<?xml version='1.0' encoding='UTF-8'?><gpx version="1.1" creator="JPX - https://github.com/jenetics/jpx" xmlns="http://www.topografix.com/GPX/1/1"><trk><trkseg><trkpt lat="44.61739151002546" lon="17.144602544840982"><ele>213.0</ele><time>2026-05-04T12:06:45Z</time></trkpt><trkpt lat="44.61739853786646" lon="17.144710643543984"><ele>213.0</ele><time>2026-05-04T12:06:48Z</time></trkpt><trkpt lat="44.6174735220394" lon="17.144729240353332"><ele>213.0</ele><time>2026-05-04T12:07:09Z</time></trkpt><trkpt lat="44.61757330499523" lon="17.144758401190995"><ele>213.0</ele><time>2026-05-04T12:07:11Z</time></trkpt><trkpt lat="44.617639527389684" lon="17.1448058619964"><ele>213.0</ele><time>2026-05-04T12:07:12Z</time></trkpt><trkpt lat="44.61771260747179" lon="17.144863600383875"><ele>213.0</ele><time>2026-05-04T12:07:13Z</time></trkpt><trkpt lat="44.61778867580086" lon="17.144922605014138"><ele>213.0</ele><time>2026-05-04T12:07:14Z</time></trkpt><trkpt lat="44.6178681017085" lon="17.144974318659003"><ele>213.0</ele><time>2026-05-04T12:07:15Z</time></trkpt><trkpt lat="44.617940460164775" lon="17.14502524571602"><ele>213.0</ele><time>2026-05-04T12:07:16Z</time></trkpt><trkpt lat="44.61801052727806" lon="17.145075264956553"><ele>213.0</ele><time>2026-05-04T12:07:17Z</time></trkpt><trkpt lat="44.61808814908787" lon="17.14513151954733"><ele>213.0</ele><time>2026-05-04T12:07:18Z</time></trkpt><trkpt lat="44.61816533194753" lon="17.145185497601577"><ele>213.0</ele><time>2026-05-04T12:07:19Z</time></trkpt><trkpt lat="44.61825372260017" lon="17.145243174541804"><ele>213.0</ele><time>2026-05-04T12:07:20Z</time></trkpt><trkpt lat="44.61835286016928" lon="17.145303931463"><ele>213.0</ele><time>2026-05-04T12:07:21Z</time></trkpt><trkpt lat="44.61846715090385" lon="17.145365488524813"><ele>213.0</ele><time>2026-05-04T12:07:22Z</time></trkpt><trkpt lat="44.61859112018701" lon="17.14543032263247"><ele>213.0</ele><time>2026-05-04T12:07:23Z</time></trkpt><trkpt lat="44.61872800243797" lon="17.145492825682854"><ele>214.25</ele><time>2026-05-04T12:07:24Z</time></trkpt><trkpt lat="44.618868362330275" lon="17.145545536385605"><ele>215.5</ele><time>2026-05-04T12:07:25Z</time></trkpt><trkpt lat="44.61900784228072" lon="17.145591023607633"><ele>216.75</ele><time>2026-05-04T12:07:26Z</time></trkpt><trkpt lat="44.61914572536301" lon="17.1456248500139"><ele>218.0</ele><time>2026-05-04T12:07:27Z</time></trkpt><trkpt lat="44.61928764818168" lon="17.145649561201267"><ele>218.0</ele><time>2026-05-04T12:07:28Z</time></trkpt><trkpt lat="44.619440197096175" lon="17.14567011490509"><ele>218.0</ele><time>2026-05-04T12:07:29Z</time></trkpt><trkpt lat="44.61960605627625" lon="17.145684884800126"><ele>218.0</ele><time>2026-05-04T12:07:30Z</time></trkpt><trkpt lat="44.6197708570429" lon="17.145698166790957"><ele>216.0</ele><time>2026-05-04T12:07:31Z</time></trkpt><trkpt lat="44.61992383732642" lon="17.1457135580847"><ele>214.0</ele><time>2026-05-04T12:07:32Z</time></trkpt><trkpt lat="44.62005962894819" lon="17.145739982726653"><ele>212.0</ele><time>2026-05-04T12:07:33Z</time></trkpt><trkpt lat="44.62020046221626" lon="17.145783541498332"><ele>210.0</ele><time>2026-05-04T12:07:34Z</time></trkpt><trkpt lat="44.620335415828336" lon="17.145848476443163"><ele>210.0</ele><time>2026-05-04T12:07:35Z</time></trkpt><trkpt lat="44.620481133206034" lon="17.145932721075283"><ele>210.0</ele><time>2026-05-04T12:07:36Z</time></trkpt><trkpt lat="44.620627747670774" lon="17.14603241019668"><ele>210.0</ele><time>2026-05-04T12:07:37Z</time></trkpt><trkpt lat="44.62077852670257" lon="17.146145838949277"><ele>210.0</ele><time>2026-05-04T12:07:38Z</time></trkpt><trkpt lat="44.62093149653383" lon="17.14625947808932"><ele>210.0</ele><time>2026-05-04T12:07:39Z</time></trkpt><trkpt lat="44.62108394598389" lon="17.14636137061675"><ele>210.0</ele><time>2026-05-04T12:07:40Z</time></trkpt><trkpt lat="44.62123302850631" lon="17.146463438743208"><ele>209.33333333333331</ele><time>2026-05-04T12:07:41Z</time></trkpt><trkpt lat="44.62138985206284" lon="17.14657722328489"><ele>208.66666666666666</ele><time>2026-05-04T12:07:42Z</time></trkpt><trkpt lat="44.621542311840216" lon="17.146695941584955"><ele>208.0</ele><time>2026-05-04T12:07:43Z</time></trkpt><trkpt lat="44.62169000785961" lon="17.146817460768652"><ele>208.0</ele><time>2026-05-04T12:07:44Z</time></trkpt><trkpt lat="44.621835086396494" lon="17.146941187886636"><ele>208.0</ele><time>2026-05-04T12:07:45Z</time></trkpt><trkpt lat="44.621977103897144" lon="17.147069723477525"><ele>208.0</ele><time>2026-05-04T12:07:46Z</time></trkpt><trkpt lat="44.622118277824725" lon="17.147204376042225"><ele>209.33333333333331</ele><time>2026-05-04T12:07:47Z</time></trkpt><trkpt lat="44.62226668506216" lon="17.147346460045046"><ele>210.66666666666669</ele><time>2026-05-04T12:07:48Z</time></trkpt><trkpt lat="44.62241684127212" lon="17.147498679828722"><ele>212.0</ele><time>2026-05-04T12:07:49Z</time></trkpt><trkpt lat="44.62256581204416" lon="17.147659520196317"><ele>212.0</ele><time>2026-05-04T12:07:50Z</time></trkpt><trkpt lat="44.6227155620188" lon="17.147837212671398"><ele>212.0</ele><time>2026-05-04T12:07:51Z</time></trkpt><trkpt lat="44.62285924971122" lon="17.14802741143174"><ele>212.0</ele><time>2026-05-04T12:07:52Z</time></trkpt><trkpt lat="44.622996458645396" lon="17.14821103448713"><ele>212.33333333333334</ele><time>2026-05-04T12:07:53Z</time></trkpt><trkpt lat="44.62313285154506" lon="17.1483895879882"><ele>212.66666666666669</ele><time>2026-05-04T12:07:54Z</time></trkpt><trkpt lat="44.623266072597175" lon="17.148565884926565"><ele>213.0</ele><time>2026-05-04T12:07:55Z</time></trkpt><trkpt lat="44.62340027424571" lon="17.148737224010585"><ele>213.0</ele><time>2026-05-04T12:07:56Z</time></trkpt><trkpt lat="44.62353210040415" lon="17.148909486175466"><ele>213.0</ele><time>2026-05-04T12:07:57Z</time></trkpt><trkpt lat="44.62366322893286" lon="17.149088656156593"><ele>213.0</ele><time>2026-05-04T12:07:58Z</time></trkpt><trkpt lat="44.62379579385458" lon="17.14927851447048"><ele>215.66666666666669</ele><time>2026-05-04T12:07:59Z</time></trkpt><trkpt lat="44.62393268752203" lon="17.149469582657073"><ele>218.33333333333334</ele><time>2026-05-04T12:08:00Z</time></trkpt><trkpt lat="44.62406445645795" lon="17.149667371595314"><ele>221.0</ele><time>2026-05-04T12:08:01Z</time></trkpt><trkpt lat="44.624196721398036" lon="17.14986084366916"><ele>223.0</ele><time>2026-05-04T12:08:02Z</time></trkpt><trkpt lat="44.624317745052295" lon="17.15003761036344"><ele>225.0</ele><time>2026-05-04T12:08:03Z</time></trkpt><trkpt lat="44.62443031105871" lon="17.15019427131947"><ele>227.0</ele><time>2026-05-04T12:08:04Z</time></trkpt><trkpt lat="44.62454306567713" lon="17.150348561017797"><ele>227.0</ele><time>2026-05-04T12:08:05Z</time></trkpt><trkpt lat="44.62466673504454" lon="17.150502707851835"><ele>227.0</ele><time>2026-05-04T12:08:06Z</time></trkpt><trkpt lat="44.62480254747855" lon="17.150657473802113"><ele>227.0</ele><time>2026-05-04T12:08:07Z</time></trkpt><trkpt lat="44.62495019529475" lon="17.150783093058983"><ele>224.66666666666669</ele><time>2026-05-04T12:08:08Z</time></trkpt><trkpt lat="44.625108832561" lon="17.150875171060875"><ele>222.33333333333331</ele><time>2026-05-04T12:08:09Z</time></trkpt><trkpt lat="44.62527351258425" lon="17.15093548067964"><ele>220.0</ele><time>2026-05-04T12:08:10Z</time></trkpt><trkpt lat="44.62544386488498" lon="17.15098254796854"><ele>220.0</ele><time>2026-05-04T12:08:11Z</time></trkpt><trkpt lat="44.625612458379486" lon="17.15103757511233"><ele>220.0</ele><time>2026-05-04T12:08:12Z</time></trkpt><trkpt lat="44.625779842334275" lon="17.15109303568327"><ele>220.0</ele><time>2026-05-04T12:08:13Z</time></trkpt><trkpt lat="44.62594731319606" lon="17.151149476342177"><ele>220.0</ele><time>2026-05-04T12:08:14Z</time></trkpt><trkpt lat="44.626117197264584" lon="17.15121937631702"><ele>220.0</ele><time>2026-05-04T12:08:15Z</time></trkpt><trkpt lat="44.62628582389771" lon="17.151304986767638"><ele>220.0</ele><time>2026-05-04T12:08:16Z</time></trkpt><trkpt lat="44.62645944249962" lon="17.151403953033714"><ele>217.66666666666666</ele><time>2026-05-04T12:08:17Z</time></trkpt><trkpt lat="44.62663524164829" lon="17.151512668384104"><ele>215.33333333333331</ele><time>2026-05-04T12:08:18Z</time></trkpt><trkpt lat="44.626813844822266" lon="17.151620906544473"><ele>213.0</ele><time>2026-05-04T12:08:19Z</time></trkpt><trkpt lat="44.62698742272577" lon="17.151722827540542"><ele>213.0</ele><time>2026-05-04T12:08:20Z</time></trkpt><trkpt lat="44.62717242411221" lon="17.15182214090061"><ele>213.0</ele><time>2026-05-04T12:08:21Z</time></trkpt><trkpt lat="44.62736183828498" lon="17.151911473733968"><ele>213.0</ele><time>2026-05-04T12:08:22Z</time></trkpt><trkpt lat="44.6275496020346" lon="17.15199736698385"><ele>213.0</ele><time>2026-05-04T12:08:23Z</time></trkpt><trkpt lat="44.62773551006883" lon="17.152083888410356"><ele>213.0</ele><time>2026-05-04T12:08:24Z</time></trkpt><trkpt lat="44.627915397943994" lon="17.152177605996023"><ele>213.0</ele><time>2026-05-04T12:08:25Z</time></trkpt><trkpt lat="44.62809919326685" lon="17.15227343471351"><ele>212.33333333333331</ele><time>2026-05-04T12:08:26Z</time></trkpt><trkpt lat="44.62826592740202" lon="17.152357098321556"><ele>211.66666666666666</ele><time>2026-05-04T12:08:27Z</time></trkpt><trkpt lat="44.62842124632229" lon="17.152411302950455"><ele>211.0</ele><time>2026-05-04T12:08:28Z</time></trkpt><trkpt lat="44.62857214289212" lon="17.152426405081865"><ele>211.0</ele><time>2026-05-04T12:08:29Z</time></trkpt><trkpt lat="44.62889997737642" lon="17.152392341923075"><ele>211.0</ele><time>2026-05-04T12:08:31Z</time></trkpt><trkpt lat="44.629055160511555" lon="17.152417168503188"><ele>211.0</ele><time>2026-05-04T12:08:32Z</time></trkpt><trkpt lat="44.62924298647806" lon="17.152460088886603"><ele>211.0</ele><time>2026-05-04T12:08:33Z</time></trkpt><trkpt lat="44.62946251299022" lon="17.152447792506656"><ele>211.0</ele><time>2026-05-04T12:08:34Z</time></trkpt><trkpt lat="44.62967466424591" lon="17.15246899446293"><ele>213.0</ele><time>2026-05-04T12:08:35Z</time></trkpt><trkpt lat="44.62989762199687" lon="17.152477414685375"><ele>215.0</ele><time>2026-05-04T12:08:36Z</time></trkpt><trkpt lat="44.63012602497581" lon="17.152467183101905"><ele>216.0</ele><time>2026-05-04T12:08:37Z</time></trkpt><trkpt lat="44.63034851796172" lon="17.152452927500867"><ele>217.0</ele><time>2026-05-04T12:08:38Z</time></trkpt><trkpt lat="44.63057027487695" lon="17.15243427165417"><ele>218.0</ele><time>2026-05-04T12:08:39Z</time></trkpt><trkpt lat="44.63078846363563" lon="17.152409218015585"><ele>223.66666666666669</ele><time>2026-05-04T12:08:40Z</time></trkpt><trkpt lat="44.63100907603164" lon="17.15236596026339"><ele>229.33333333333331</ele><time>2026-05-04T12:08:41Z</time></trkpt><trkpt lat="44.63122273829074" lon="17.1522935266722"><ele>235.0</ele><time>2026-05-04T12:08:42Z</time></trkpt><trkpt lat="44.63143575762922" lon="17.152198577194834"><ele>235.0</ele><time>2026-05-04T12:08:43Z</time></trkpt><trkpt lat="44.6316483098407" lon="17.152103824435706"><ele>235.0</ele><time>2026-05-04T12:08:44Z</time></trkpt><trkpt lat="44.6318527295741" lon="17.152036966565806"><ele>235.0</ele><time>2026-05-04T12:08:45Z</time></trkpt><trkpt lat="44.632048771469876" lon="17.15199405754271"><ele>228.33333333333331</ele><time>2026-05-04T12:08:46Z</time></trkpt><trkpt lat="44.632226726762006" lon="17.151949214619645"><ele>221.66666666666669</ele><time>2026-05-04T12:08:47Z</time></trkpt><trkpt lat="44.63239906278875" lon="17.151861802047215"><ele>215.0</ele><time>2026-05-04T12:08:48Z</time></trkpt><trkpt lat="44.63255781945928" lon="17.151712534584703"><ele>216.66666666666669</ele><time>2026-05-04T12:08:49Z</time></trkpt><trkpt lat="44.63270891484843" lon="17.1515246802165"><ele>218.33333333333331</ele><time>2026-05-04T12:08:50Z</time></trkpt><trkpt lat="44.632877182633514" lon="17.151339495511976"><ele>220.0</ele><time>2026-05-04T12:08:51Z</time></trkpt><trkpt lat="44.6330700240715" lon="17.15116143376493"><ele>220.0</ele><time>2026-05-04T12:08:52Z</time></trkpt><trkpt lat="44.63327780644496" lon="17.15099675353076"><ele>220.0</ele><time>2026-05-04T12:08:53Z</time></trkpt><trkpt lat="44.63349626641918" lon="17.150836665539487"><ele>217.5</ele><time>2026-05-04T12:08:54Z</time></trkpt><trkpt lat="44.63371296522891" lon="17.15066927957792"><ele>215.0</ele><time>2026-05-04T12:08:55Z</time></trkpt><trkpt lat="44.63390888417986" lon="17.150497322060346"><ele>215.0</ele><time>2026-05-04T12:08:56Z</time></trkpt><trkpt lat="44.6340880427415" lon="17.150293754249443"><ele>215.0</ele><time>2026-05-04T12:08:57Z</time></trkpt><trkpt lat="44.63424190474092" lon="17.150059707231378"><ele>212.0</ele><time>2026-05-04T12:08:58Z</time></trkpt><trkpt lat="44.634397193014465" lon="17.149807251496867"><ele>209.0</ele><time>2026-05-04T12:08:59Z</time></trkpt><trkpt lat="44.6345563161302" lon="17.149552790077887"><ele>209.0</ele><time>2026-05-04T12:09:00Z</time></trkpt><trkpt lat="44.634721013902414" lon="17.14928400024128"><ele>209.0</ele><time>2026-05-04T12:09:01Z</time></trkpt><trkpt lat="44.634882254801845" lon="17.149018703744776"><ele>212.0</ele><time>2026-05-04T12:09:02Z</time></trkpt><trkpt lat="44.63503378591161" lon="17.14873592244889"><ele>215.0</ele><time>2026-05-04T12:09:03Z</time></trkpt><trkpt lat="44.635179120586685" lon="17.148460061688954"><ele>211.0</ele><time>2026-05-04T12:09:04Z</time></trkpt><trkpt lat="44.63531728261471" lon="17.14819980565635"><ele>207.0</ele><time>2026-05-04T12:09:05Z</time></trkpt><trkpt lat="44.63545218252599" lon="17.147955720576167"><ele>207.0</ele><time>2026-05-04T12:09:06Z</time></trkpt><trkpt lat="44.63559280516724" lon="17.147724454364912"><ele>207.0</ele><time>2026-05-04T12:09:07Z</time></trkpt><trkpt lat="44.63574884152815" lon="17.147514121093568"><ele>207.0</ele><time>2026-05-04T12:09:08Z</time></trkpt><trkpt lat="44.6359299593407" lon="17.147339568661916"><ele>208.33333333333331</ele><time>2026-05-04T12:09:09Z</time></trkpt><trkpt lat="44.63612111394811" lon="17.147180710000605"><ele>209.66666666666666</ele><time>2026-05-04T12:09:10Z</time></trkpt><trkpt lat="44.63631087819123" lon="17.147013666742986"><ele>211.0</ele><time>2026-05-04T12:09:11Z</time></trkpt><trkpt lat="44.6365008635383" lon="17.146844268739617"><ele>211.0</ele><time>2026-05-04T12:09:12Z</time></trkpt><trkpt lat="44.636703014859805" lon="17.14668422899952"><ele>211.0</ele><time>2026-05-04T12:09:13Z</time></trkpt><trkpt lat="44.63691726516469" lon="17.14652779079253"><ele>215.0</ele><time>2026-05-04T12:09:14Z</time></trkpt><trkpt lat="44.637143348687545" lon="17.146368691975447"><ele>219.0</ele><time>2026-05-04T12:09:15Z</time></trkpt><trkpt lat="44.63736763922004" lon="17.146216437708127"><ele>219.0</ele><time>2026-05-04T12:09:16Z</time></trkpt><trkpt lat="44.63758615563783" lon="17.146072712369616"><ele>219.0</ele><time>2026-05-04T12:09:17Z</time></trkpt><trkpt lat="44.63779823996938" lon="17.14593714802413"><ele>223.5</ele><time>2026-05-04T12:09:18Z</time></trkpt><trkpt lat="44.638012944903394" lon="17.145815317366534"><ele>228.0</ele><time>2026-05-04T12:09:19Z</time></trkpt><trkpt lat="44.63821841662304" lon="17.14570995974605"><ele>228.0</ele><time>2026-05-04T12:09:20Z</time></trkpt><trkpt lat="44.63840813531998" lon="17.145623660270264"><ele>228.0</ele><time>2026-05-04T12:09:21Z</time></trkpt><trkpt lat="44.63858901563306" lon="17.14555183781127"><ele>228.0</ele><time>2026-05-04T12:09:22Z</time></trkpt><trkpt lat="44.63876958702056" lon="17.14550050519944"><ele>226.33333333333331</ele><time>2026-05-04T12:09:23Z</time></trkpt><trkpt lat="44.63894403039669" lon="17.14547260212196"><ele>224.66666666666666</ele><time>2026-05-04T12:09:24Z</time></trkpt><trkpt lat="44.63910608307923" lon="17.145497276720526"><ele>223.0</ele><time>2026-05-04T12:09:25Z</time></trkpt><trkpt lat="44.63925490920358" lon="17.145577174792074"><ele>223.0</ele><time>2026-05-04T12:09:26Z</time></trkpt><trkpt lat="44.63939380656154" lon="17.14569272030226"><ele>223.0</ele><time>2026-05-04T12:09:27Z</time></trkpt><trkpt lat="44.63953643504918" lon="17.14581573625026"><ele>223.0</ele><time>2026-05-04T12:09:28Z</time></trkpt><trkpt lat="44.63967390207205" lon="17.145902996108603"><ele>217.66666666666666</ele><time>2026-05-04T12:09:29Z</time></trkpt><trkpt lat="44.63982782033799" lon="17.14595726612313"><ele>212.33333333333331</ele><time>2026-05-04T12:09:30Z</time></trkpt><trkpt lat="44.63998806074255" lon="17.14597616100987"><ele>207.0</ele><time>2026-05-04T12:09:31Z</time></trkpt><trkpt lat="44.64013934867201" lon="17.145970473868907"><ele>207.0</ele><time>2026-05-04T12:09:32Z</time></trkpt><trkpt lat="44.64029302773109" lon="17.14594755768901"><ele>207.0</ele><time>2026-05-04T12:09:33Z</time></trkpt><trkpt lat="44.64044701281294" lon="17.145905116054298"><ele>207.0</ele><time>2026-05-04T12:09:34Z</time></trkpt><trkpt lat="44.640605395090546" lon="17.145855161471587"><ele>207.0</ele><time>2026-05-04T12:09:35Z</time></trkpt><trkpt lat="44.64076837864229" lon="17.145819670037945"><ele>207.0</ele><time>2026-05-04T12:09:36Z</time></trkpt><trkpt lat="44.64093247551326" lon="17.145814305785965"><ele>207.0</ele><time>2026-05-04T12:09:37Z</time></trkpt><trkpt lat="44.64109991301969" lon="17.14584758610854"><ele>208.33333333333331</ele><time>2026-05-04T12:09:38Z</time></trkpt><trkpt lat="44.64127163471196" lon="17.145914566764073"><ele>209.66666666666666</ele><time>2026-05-04T12:09:39Z</time></trkpt><trkpt lat="44.64143634190637" lon="17.146010082341707"><ele>211.0</ele><time>2026-05-04T12:09:40Z</time></trkpt><trkpt lat="44.64159733202356" lon="17.146125182332366"><ele>211.0</ele><time>2026-05-04T12:09:41Z</time></trkpt><trkpt lat="44.64175590064405" lon="17.146242015569797"><ele>211.0</ele><time>2026-05-04T12:09:42Z</time></trkpt><trkpt lat="44.64191958066828" lon="17.146352966417968"><ele>211.0</ele><time>2026-05-04T12:09:43Z</time></trkpt><trkpt lat="44.64208486042989" lon="17.146464053332604"><ele>211.66666666666666</ele><time>2026-05-04T12:09:44Z</time></trkpt><trkpt lat="44.64224577799402" lon="17.146567547251166"><ele>212.33333333333331</ele><time>2026-05-04T12:09:45Z</time></trkpt><trkpt lat="44.64240830434452" lon="17.146667363228296"><ele>213.0</ele><time>2026-05-04T12:09:46Z</time></trkpt><trkpt lat="44.642574495474186" lon="17.14675234472739"><ele>213.0</ele><time>2026-05-04T12:09:47Z</time></trkpt><trkpt lat="44.64274260564087" lon="17.14681797616821"><ele>213.0</ele><time>2026-05-04T12:09:48Z</time></trkpt><trkpt lat="44.642909367199366" lon="17.14686399730457"><ele>213.0</ele><time>2026-05-04T12:09:49Z</time></trkpt><trkpt lat="44.64307753397503" lon="17.146900022280253"><ele>211.33333333333331</ele><time>2026-05-04T12:09:50Z</time></trkpt><trkpt lat="44.64324294502935" lon="17.14692549392814"><ele>209.66666666666666</ele><time>2026-05-04T12:09:51Z</time></trkpt><trkpt lat="44.64341182503646" lon="17.14693011404047"><ele>208.0</ele><time>2026-05-04T12:09:52Z</time></trkpt><trkpt lat="44.64358019007595" lon="17.146906948591496"><ele>206.66666666666666</ele><time>2026-05-04T12:09:53Z</time></trkpt><trkpt lat="44.64374471606731" lon="17.14684932944189"><ele>205.33333333333331</ele><time>2026-05-04T12:09:54Z</time></trkpt><trkpt lat="44.64389412213019" lon="17.146774392428423"><ele>204.0</ele><time>2026-05-04T12:09:55Z</time></trkpt><trkpt lat="44.64404636398463" lon="17.146699482440763"><ele>204.0</ele><time>2026-05-04T12:09:56Z</time></trkpt><trkpt lat="44.64420373982187" lon="17.146634502764396"><ele>204.0</ele><time>2026-05-04T12:09:57Z</time></trkpt><trkpt lat="44.64437294266284" lon="17.146588811557372"><ele>204.0</ele><time>2026-05-04T12:09:58Z</time></trkpt><trkpt lat="44.64455073994886" lon="17.146563817466635"><ele>204.0</ele><time>2026-05-04T12:09:59Z</time></trkpt><trkpt lat="44.64473489969637" lon="17.146547742023284"><ele>204.0</ele><time>2026-05-04T12:10:00Z</time></trkpt><trkpt lat="44.6449187660426" lon="17.146547320572154"><ele>204.0</ele><time>2026-05-04T12:10:01Z</time></trkpt><trkpt lat="44.64510218736728" lon="17.1465652497734"><ele>204.0</ele><time>2026-05-04T12:10:02Z</time></trkpt><trkpt lat="44.64527770547068" lon="17.146598448111064"><ele>204.0</ele><time>2026-05-04T12:10:03Z</time></trkpt><trkpt lat="44.64543900930748" lon="17.14663966368522"><ele>204.0</ele><time>2026-05-04T12:10:04Z</time></trkpt><trkpt lat="44.64559439124273" lon="17.146674581924998"><ele>204.33333333333331</ele><time>2026-05-04T12:10:05Z</time></trkpt><trkpt lat="44.645751729349065" lon="17.14668428624887"><ele>204.66666666666666</ele><time>2026-05-04T12:10:06Z</time></trkpt><trkpt lat="44.64590975760409" lon="17.146658885971462"><ele>205.0</ele><time>2026-05-04T12:10:07Z</time></trkpt><trkpt lat="44.64606242994623" lon="17.146591929763815"><ele>205.66666666666666</ele><time>2026-05-04T12:10:08Z</time></trkpt><trkpt lat="44.646206579634914" lon="17.14647633942767"><ele>206.33333333333331</ele><time>2026-05-04T12:10:09Z</time></trkpt><trkpt lat="44.64633868602466" lon="17.146341885750008"><ele>207.0</ele><time>2026-05-04T12:10:10Z</time></trkpt><trkpt lat="44.64648050859469" lon="17.146207646001887"><ele>207.0</ele><time>2026-05-04T12:10:11Z</time></trkpt><trkpt lat="44.64663191336051" lon="17.146082174540513"><ele>207.0</ele><time>2026-05-04T12:10:12Z</time></trkpt><trkpt lat="44.64678637382184" lon="17.145962521590118"><ele>207.0</ele><time>2026-05-04T12:10:13Z</time></trkpt><trkpt lat="44.64694573563657" lon="17.14584232731551"><ele>204.66666666666669</ele><time>2026-05-04T12:10:14Z</time></trkpt><trkpt lat="44.64711908123121" lon="17.145724552074974"><ele>202.33333333333334</ele><time>2026-05-04T12:10:15Z</time></trkpt><trkpt lat="44.64731606291455" lon="17.145604328963575"><ele>200.0</ele><time>2026-05-04T12:10:16Z</time></trkpt><trkpt lat="44.64754476452215" lon="17.145486096569027"><ele>205.5</ele><time>2026-05-04T12:10:17Z</time></trkpt><trkpt lat="44.64779606174959" lon="17.14536001077601"><ele>211.0</ele><time>2026-05-04T12:10:18Z</time></trkpt><trkpt lat="44.64807132064534" lon="17.14523740311206"><ele>211.0</ele><time>2026-05-04T12:10:19Z</time></trkpt><trkpt lat="44.6483587327296" lon="17.145115911101346"><ele>211.0</ele><time>2026-05-04T12:10:20Z</time></trkpt><trkpt lat="44.64863766763653" lon="17.1450004620189"><ele>208.5</ele><time>2026-05-04T12:10:21Z</time></trkpt><trkpt lat="44.648902811327304" lon="17.144913143759766"><ele>206.0</ele><time>2026-05-04T12:10:22Z</time></trkpt><trkpt lat="44.6491603116272" lon="17.144851072208752"><ele>217.5</ele><time>2026-05-04T12:10:23Z</time></trkpt><trkpt lat="44.64941771275927" lon="17.144797333362156"><ele>229.0</ele><time>2026-05-04T12:10:24Z</time></trkpt><trkpt lat="44.64966798930233" lon="17.144768400789058"><ele>229.0</ele><time>2026-05-04T12:10:25Z</time></trkpt><trkpt lat="44.64991084601847" lon="17.14474947255063"><ele>229.0</ele><time>2026-05-04T12:10:26Z</time></trkpt><trkpt lat="44.65015277270104" lon="17.144747910688086"><ele>227.5</ele><time>2026-05-04T12:10:27Z</time></trkpt><trkpt lat="44.65039218595541" lon="17.14476549671223"><ele>226.0</ele><time>2026-05-04T12:10:28Z</time></trkpt><trkpt lat="44.65062105259028" lon="17.144804953846656"><ele>226.0</ele><time>2026-05-04T12:10:29Z</time></trkpt><trkpt lat="44.65084024474742" lon="17.144855121516233"><ele>226.0</ele><time>2026-05-04T12:10:30Z</time></trkpt><trkpt lat="44.65104663406301" lon="17.144911186504704"><ele>226.0</ele><time>2026-05-04T12:10:31Z</time></trkpt><trkpt lat="44.651249336800056" lon="17.144968833632692"><ele>220.0</ele><time>2026-05-04T12:10:32Z</time></trkpt><trkpt lat="44.65146302965434" lon="17.145037197507776"><ele>214.0</ele><time>2026-05-04T12:10:33Z</time></trkpt><trkpt lat="44.6516724669017" lon="17.145128689654538"><ele>208.0</ele><time>2026-05-04T12:10:34Z</time></trkpt><trkpt lat="44.65187495616906" lon="17.145236560207643"><ele>210.0</ele><time>2026-05-04T12:10:35Z</time></trkpt><trkpt lat="44.652073320372374" lon="17.145348793797226"><ele>212.0</ele><time>2026-05-04T12:10:36Z</time></trkpt><trkpt lat="44.65227604927401" lon="17.145450891304574"><ele>214.0</ele><time>2026-05-04T12:10:37Z</time></trkpt><trkpt lat="44.65248861932805" lon="17.145519197824676"><ele>214.0</ele><time>2026-05-04T12:10:38Z</time></trkpt><trkpt lat="44.652706719372986" lon="17.145557270808375"><ele>214.0</ele><time>2026-05-04T12:10:39Z</time></trkpt><trkpt lat="44.65293639547101" lon="17.14557353303848"><ele>218.0</ele><time>2026-05-04T12:10:40Z</time></trkpt><trkpt lat="44.65317803282085" lon="17.145579087182025"><ele>222.0</ele><time>2026-05-04T12:10:41Z</time></trkpt><trkpt lat="44.65341765406198" lon="17.14558513866252"><ele>223.5</ele><time>2026-05-04T12:10:42Z</time></trkpt><trkpt lat="44.653658359542824" lon="17.14559201768802"><ele>225.0</ele><time>2026-05-04T12:10:43Z</time></trkpt><trkpt lat="44.65389930255023" lon="17.145598879523178"><ele>225.0</ele><time>2026-05-04T12:10:44Z</time></trkpt><trkpt lat="44.65413028416587" lon="17.145623730570613"><ele>225.0</ele><time>2026-05-04T12:10:45Z</time></trkpt><trkpt lat="44.654339027664776" lon="17.145664831659392"><ele>225.0</ele><time>2026-05-04T12:10:46Z</time></trkpt><trkpt lat="44.654538787147914" lon="17.14570772311342"><ele>222.66666666666669</ele><time>2026-05-04T12:10:47Z</time></trkpt><trkpt lat="44.65473946722267" lon="17.14571722352695"><ele>220.33333333333334</ele><time>2026-05-04T12:10:48Z</time></trkpt><trkpt lat="44.654940828480704" lon="17.14567857562872"><ele>218.0</ele><time>2026-05-04T12:10:49Z</time></trkpt><trkpt lat="44.65513932905944" lon="17.145605868225264"><ele>215.66666666666669</ele><time>2026-05-04T12:10:50Z</time></trkpt><trkpt lat="44.65534250278181" lon="17.145519198189376"><ele>213.33333333333331</ele><time>2026-05-04T12:10:51Z</time></trkpt><trkpt lat="44.65554167933565" lon="17.145439520389747"><ele>211.0</ele><time>2026-05-04T12:10:52Z</time></trkpt><trkpt lat="44.65574577390145" lon="17.145357180420994"><ele>211.0</ele><time>2026-05-04T12:10:53Z</time></trkpt><trkpt lat="44.65595178583462" lon="17.145277912580866"><ele>211.0</ele><time>2026-05-04T12:10:54Z</time></trkpt><trkpt lat="44.65615855186144" lon="17.145200563501536"><ele>211.0</ele><time>2026-05-04T12:10:55Z</time></trkpt><trkpt lat="44.65637137477314" lon="17.145131465395806"><ele>209.5</ele><time>2026-05-04T12:10:56Z</time></trkpt><trkpt lat="44.65659108496644" lon="17.14505266325032"><ele>208.0</ele><time>2026-05-04T12:10:57Z</time></trkpt><trkpt lat="44.65681382721421" lon="17.144949508295227"><ele>212.0</ele><time>2026-05-04T12:10:58Z</time></trkpt><trkpt lat="44.65704763714915" lon="17.144820617377857"><ele>216.0</ele><time>2026-05-04T12:10:59Z</time></trkpt><trkpt lat="44.657286571855614" lon="17.144674179392805"><ele>216.0</ele><time>2026-05-04T12:11:00Z</time></trkpt><trkpt lat="44.65751898489606" lon="17.144516189944472"><ele>216.0</ele><time>2026-05-04T12:11:01Z</time></trkpt><trkpt lat="44.65774975236584" lon="17.144360226099014"><ele>212.0</ele><time>2026-05-04T12:11:02Z</time></trkpt><trkpt lat="44.657981565300744" lon="17.144197633064387"><ele>208.0</ele><time>2026-05-04T12:11:03Z</time></trkpt><trkpt lat="44.65820613664055" lon="17.144021434768785"><ele>216.0</ele><time>2026-05-04T12:11:04Z</time></trkpt><trkpt lat="44.6584150055123" lon="17.143834237628248"><ele>224.0</ele><time>2026-05-04T12:11:05Z</time></trkpt><trkpt lat="44.65861706364963" lon="17.143624842380664"><ele>213.5</ele><time>2026-05-04T12:11:06Z</time></trkpt><trkpt lat="44.65880155836277" lon="17.143427795151446"><ele>203.0</ele><time>2026-05-04T12:11:07Z</time></trkpt><trkpt lat="44.65897552490244" lon="17.143233008073587"><ele>204.0</ele><time>2026-05-04T12:11:08Z</time></trkpt><trkpt lat="44.65914582018659" lon="17.14303557630233"><ele>205.0</ele><time>2026-05-04T12:11:09Z</time></trkpt><trkpt lat="44.659323205311544" lon="17.14285355359946"><ele>206.0</ele><time>2026-05-04T12:11:10Z</time></trkpt><trkpt lat="44.65951670775934" lon="17.142694149725028"><ele>206.0</ele><time>2026-05-04T12:11:11Z</time></trkpt><trkpt lat="44.659707639703534" lon="17.142557013967142"><ele>206.0</ele><time>2026-05-04T12:11:12Z</time></trkpt><trkpt lat="44.65987040068832" lon="17.14238888349975"><ele>206.0</ele><time>2026-05-04T12:11:13Z</time></trkpt><trkpt lat="44.66015001283955" lon="17.14245744146768"><ele>204.33333333333334</ele><time>2026-05-04T12:11:14Z</time></trkpt><trkpt lat="44.660347520966624" lon="17.14240276984201"><ele>202.66666666666669</ele><time>2026-05-04T12:11:15Z</time></trkpt><trkpt lat="44.660549760567974" lon="17.142362581115016"><ele>201.0</ele><time>2026-05-04T12:11:16Z</time></trkpt><trkpt lat="44.66075059890362" lon="17.142349541361728"><ele>201.0</ele><time>2026-05-04T12:11:17Z</time></trkpt><trkpt lat="44.66094326848511" lon="17.14239601362142"><ele>201.0</ele><time>2026-05-04T12:11:18Z</time></trkpt><trkpt lat="44.661117649546426" lon="17.14246839998948"><ele>201.0</ele><time>2026-05-04T12:11:19Z</time></trkpt><trkpt lat="44.661298445523116" lon="17.14249833195526"><ele>200.33333333333331</ele><time>2026-05-04T12:11:20Z</time></trkpt><trkpt lat="44.66149603835037" lon="17.14246271261425"><ele>199.66666666666666</ele><time>2026-05-04T12:11:21Z</time></trkpt><trkpt lat="44.661695360340055" lon="17.142385788892938"><ele>199.0</ele><time>2026-05-04T12:11:22Z</time></trkpt><trkpt lat="44.66190208507132" lon="17.142307605284316"><ele>204.33333333333331</ele><time>2026-05-04T12:11:23Z</time></trkpt><trkpt lat="44.66211875621476" lon="17.142281856285113"><ele>209.66666666666669</ele><time>2026-05-04T12:11:24Z</time></trkpt><trkpt lat="44.66232302321245" lon="17.142309394486826"><ele>215.0</ele><time>2026-05-04T12:11:25Z</time></trkpt><trkpt lat="44.6625177164379" lon="17.14235327101873"><ele>214.0</ele><time>2026-05-04T12:11:26Z</time></trkpt><trkpt lat="44.662709918991894" lon="17.142399452254708"><ele>213.0</ele><time>2026-05-04T12:11:27Z</time></trkpt><trkpt lat="44.66289651599653" lon="17.142464793156233"><ele>212.0</ele><time>2026-05-04T12:11:28Z</time></trkpt><trkpt lat="44.66306859090927" lon="17.14257454790633"><ele>212.0</ele><time>2026-05-04T12:11:29Z</time></trkpt><trkpt lat="44.663205735903844" lon="17.142728761609867"><ele>212.0</ele><time>2026-05-04T12:11:30Z</time></trkpt><trkpt lat="44.66331585995041" lon="17.14291684960625"><ele>212.0</ele><time>2026-05-04T12:11:31Z</time></trkpt><trkpt lat="44.663409920435484" lon="17.14310637591309"><ele>213.0</ele><time>2026-05-04T12:11:32Z</time></trkpt><trkpt lat="44.66352169904744" lon="17.1433005184177"><ele>214.0</ele><time>2026-05-04T12:11:33Z</time></trkpt><trkpt lat="44.66366079491832" lon="17.14346629793986"><ele>215.0</ele><time>2026-05-04T12:11:34Z</time></trkpt><trkpt lat="44.66382360226784" lon="17.14360604412735"><ele>215.0</ele><time>2026-05-04T12:11:35Z</time></trkpt><trkpt lat="44.66400317128852" lon="17.14374808911819"><ele>215.0</ele><time>2026-05-04T12:11:36Z</time></trkpt><trkpt lat="44.6641904406222" lon="17.14389060968572"><ele>215.0</ele><time>2026-05-04T12:11:37Z</time></trkpt><trkpt lat="44.66438299138321" lon="17.144030718882018"><ele>210.33333333333334</ele><time>2026-05-04T12:11:38Z</time></trkpt><trkpt lat="44.664575486169305" lon="17.144147463515992"><ele>205.66666666666669</ele><time>2026-05-04T12:11:39Z</time></trkpt><trkpt lat="44.66477529519317" lon="17.144230973200557"><ele>201.0</ele><time>2026-05-04T12:11:40Z</time></trkpt><trkpt lat="44.66498444753522" lon="17.14427784612953"><ele>201.0</ele><time>2026-05-04T12:11:41Z</time></trkpt><trkpt lat="44.66517794503023" lon="17.144312312587843"><ele>201.0</ele><time>2026-05-04T12:11:42Z</time></trkpt><trkpt lat="44.665363336754815" lon="17.144329999578215"><ele>201.0</ele><time>2026-05-04T12:11:43Z</time></trkpt><trkpt lat="44.66554762932889" lon="17.14431164137073"><ele>202.0</ele><time>2026-05-04T12:11:44Z</time></trkpt><trkpt lat="44.66573793982821" lon="17.14428027340133"><ele>203.0</ele><time>2026-05-04T12:11:45Z</time></trkpt><trkpt lat="44.66594042088789" lon="17.144295665081888"><ele>204.0</ele><time>2026-05-04T12:11:46Z</time></trkpt><trkpt lat="44.666151681156755" lon="17.14438935839909"><ele>204.33333333333331</ele><time>2026-05-04T12:11:47Z</time></trkpt><trkpt lat="44.66635352377611" lon="17.144516792074"><ele>204.66666666666666</ele><time>2026-05-04T12:11:48Z</time></trkpt><trkpt lat="44.666536541107114" lon="17.144635880886906"><ele>205.0</ele><time>2026-05-04T12:11:49Z</time></trkpt><trkpt lat="44.666714553125615" lon="17.144736926160164"><ele>205.0</ele><time>2026-05-04T12:11:50Z</time></trkpt><trkpt lat="44.666887638292906" lon="17.144819167193223"><ele>205.0</ele><time>2026-05-04T12:11:51Z</time></trkpt><trkpt lat="44.66706506669742" lon="17.144874147232883"><ele>205.0</ele><time>2026-05-04T12:11:52Z</time></trkpt><trkpt lat="44.66724942421682" lon="17.144903102581342"><ele>204.0</ele><time>2026-05-04T12:11:53Z</time></trkpt><trkpt lat="44.66743881883208" lon="17.14491420641825"><ele>203.0</ele><time>2026-05-04T12:11:54Z</time></trkpt><trkpt lat="44.66762782391013" lon="17.144925089257907"><ele>202.0</ele><time>2026-05-04T12:11:55Z</time></trkpt><trkpt lat="44.66781875886175" lon="17.14496139850039"><ele>202.0</ele><time>2026-05-04T12:11:56Z</time></trkpt><trkpt lat="44.66800740797466" lon="17.145039123422052"><ele>202.0</ele><time>2026-05-04T12:11:57Z</time></trkpt><trkpt lat="44.668182421439326" lon="17.145153891396042"><ele>202.0</ele><time>2026-05-04T12:11:58Z</time></trkpt><trkpt lat="44.66835023900277" lon="17.145280004303437"><ele>202.0</ele><time>2026-05-04T12:11:59Z</time></trkpt><trkpt lat="44.66851833956435" lon="17.145372387652177"><ele>202.0</ele><time>2026-05-04T12:12:00Z</time></trkpt><trkpt lat="44.66869681846864" lon="17.14542014185239"><ele>202.0</ele><time>2026-05-04T12:12:01Z</time></trkpt><trkpt lat="44.66888125274714" lon="17.14544953230982"><ele>205.0</ele><time>2026-05-04T12:12:02Z</time></trkpt><trkpt lat="44.669067514480616" lon="17.145482364074798"><ele>208.0</ele><time>2026-05-04T12:12:03Z</time></trkpt><trkpt lat="44.66924953990848" lon="17.14551148379377"><ele>211.0</ele><time>2026-05-04T12:12:04Z</time></trkpt><trkpt lat="44.66943379770515" lon="17.145539742755727"><ele>214.0</ele><time>2026-05-04T12:12:05Z</time></trkpt><trkpt lat="44.66961679312942" lon="17.145569509313887"><ele>217.0</ele><time>2026-05-04T12:12:06Z</time></trkpt><trkpt lat="44.66979931291252" lon="17.145588068757437"><ele>220.0</ele><time>2026-05-04T12:12:07Z</time></trkpt><trkpt lat="44.669983328015604" lon="17.145590000285946"><ele>220.0</ele><time>2026-05-04T12:12:08Z</time></trkpt><trkpt lat="44.67015709349231" lon="17.145569248030455"><ele>220.0</ele><time>2026-05-04T12:12:09Z</time></trkpt><trkpt lat="44.670324636065686" lon="17.145541708612882"><ele>220.0</ele><time>2026-05-04T12:12:10Z</time></trkpt><trkpt lat="44.67047431246124" lon="17.145516011294827"><ele>218.66666666666666</ele><time>2026-05-04T12:12:11Z</time></trkpt><trkpt lat="44.67062503501029" lon="17.14549129143093"><ele>217.33333333333331</ele><time>2026-05-04T12:12:12Z</time></trkpt><trkpt lat="44.67077588505254" lon="17.145470894716198"><ele>216.0</ele><time>2026-05-04T12:12:13Z</time></trkpt><trkpt lat="44.67093165775492" lon="17.145452148618233"><ele>216.0</ele><time>2026-05-04T12:12:14Z</time></trkpt><trkpt lat="44.67108633321148" lon="17.145453537046336"><ele>216.0</ele><time>2026-05-04T12:12:15Z</time></trkpt><trkpt lat="44.671235173861554" lon="17.14546219781024"><ele>216.0</ele><time>2026-05-04T12:12:16Z</time></trkpt><trkpt lat="44.67137917291737" lon="17.145486146359545"><ele>216.0</ele><time>2026-05-04T12:12:17Z</time></trkpt><trkpt lat="44.67151160479456" lon="17.145508079460573"><ele>214.25</ele><time>2026-05-04T12:12:18Z</time></trkpt><trkpt lat="44.671640786941396" lon="17.145528060101224"><ele>212.5</ele><time>2026-05-04T12:12:19Z</time></trkpt><trkpt lat="44.67177202080112" lon="17.145544418826073"><ele>210.75</ele><time>2026-05-04T12:12:20Z</time></trkpt><trkpt lat="44.67190741602641" lon="17.145554412190307"><ele>209.0</ele><time>2026-05-04T12:12:21Z</time></trkpt><trkpt lat="44.67203626801178" lon="17.14556056505333"><ele>206.5</ele><time>2026-05-04T12:12:22Z</time></trkpt><trkpt lat="44.67217246003106" lon="17.14557198607671"><ele>204.0</ele><time>2026-05-04T12:12:23Z</time></trkpt><trkpt lat="44.67230902494111" lon="17.145596414078778"><ele>201.5</ele><time>2026-05-04T12:12:24Z</time></trkpt><trkpt lat="44.67243474994723" lon="17.145627756064407"><ele>199.0</ele><time>2026-05-04T12:12:25Z</time></trkpt><trkpt lat="44.67255066308524" lon="17.145664906558064"><ele>199.0</ele><time>2026-05-04T12:12:26Z</time></trkpt><trkpt lat="44.67265878335089" lon="17.145703469427133"><ele>199.0</ele><time>2026-05-04T12:12:27Z</time></trkpt><trkpt lat="44.67275888502457" lon="17.145740899112873"><ele>199.0</ele><time>2026-05-04T12:12:28Z</time></trkpt><trkpt lat="44.672853485119724" lon="17.145777801197685"><ele>199.0</ele><time>2026-05-04T12:12:29Z</time></trkpt><trkpt lat="44.67293972827579" lon="17.145812400163013"><ele>199.0</ele><time>2026-05-04T12:12:30Z</time></trkpt><trkpt lat="44.67301747923001" lon="17.145846933813246"><ele>199.66666666666666</ele><time>2026-05-04T12:12:31Z</time></trkpt><trkpt lat="44.67308633888104" lon="17.145877485765"><ele>200.33333333333331</ele><time>2026-05-04T12:12:32Z</time></trkpt><trkpt lat="44.67316925687317" lon="17.14590660489674"><ele>201.0</ele><time>2026-05-04T12:12:34Z</time></trkpt><trkpt lat="44.67320714259043" lon="17.145796874662153"><ele>201.66666666666669</ele><time>2026-05-04T12:12:36Z</time></trkpt><trkpt lat="44.673195251504445" lon="17.145656892213403"><ele>202.33333333333334</ele><time>2026-05-04T12:12:38Z</time></trkpt><trkpt lat="44.673168441568556" lon="17.14555788294016"><ele>203.0</ele><time>2026-05-04T12:12:39Z</time></trkpt><trkpt lat="44.673135232565315" lon="17.14544240489778"><ele>205.0</ele><time>2026-05-04T12:12:40Z</time></trkpt><trkpt lat="44.673088253732026" lon="17.145328606680923"><ele>207.0</ele><time>2026-05-04T12:12:41Z</time></trkpt><trkpt lat="44.67302271517315" lon="17.14521816268633"><ele>209.0</ele><time>2026-05-04T12:12:42Z</time></trkpt><trkpt lat="44.6729424643256" lon="17.145116041384934"><ele>211.0</ele><time>2026-05-04T12:12:43Z</time></trkpt><trkpt lat="44.67286207110838" lon="17.145012507639454"><ele>213.0</ele><time>2026-05-04T12:12:44Z</time></trkpt><trkpt lat="44.672787160500526" lon="17.144897113693773"><ele>210.60000000000002</ele><time>2026-05-04T12:12:45Z</time></trkpt><trkpt lat="44.672727586297455" lon="17.14477553290829"><ele>208.20000000000002</ele><time>2026-05-04T12:12:46Z</time></trkpt><trkpt lat="44.67269785565382" lon="17.14464305036563"><ele>205.8</ele><time>2026-05-04T12:12:47Z</time></trkpt><trkpt lat="44.67269684887508" lon="17.144490000551393"><ele>203.4</ele><time>2026-05-04T12:12:48Z</time></trkpt><trkpt lat="44.6727039265082" lon="17.14431112214531"><ele>201.0</ele><time>2026-05-04T12:12:49Z</time></trkpt><trkpt lat="44.67269917272802" lon="17.144124511352665"><ele>202.33333333333331</ele><time>2026-05-04T12:12:50Z</time></trkpt><trkpt lat="44.67268281479527" lon="17.14392960791413"><ele>203.66666666666666</ele><time>2026-05-04T12:12:51Z</time></trkpt><trkpt lat="44.67265232543078" lon="17.143716456565617"><ele>205.0</ele><time>2026-05-04T12:12:52Z</time></trkpt><trkpt lat="44.67261399971444" lon="17.14348541049657"><ele>205.0</ele><time>2026-05-04T12:12:53Z</time></trkpt><trkpt lat="44.672577541110265" lon="17.14324944436066"><ele>205.0</ele><time>2026-05-04T12:12:54Z</time></trkpt><trkpt lat="44.672549631591586" lon="17.143045914797018"><ele>205.0</ele><time>2026-05-04T12:12:55Z</time></trkpt><trkpt lat="44.672521794854745" lon="17.142863359408633"><ele>205.25</ele><time>2026-05-04T12:12:56Z</time></trkpt><trkpt lat="44.672494280117895" lon="17.14268833139832"><ele>205.5</ele><time>2026-05-04T12:12:57Z</time></trkpt><trkpt lat="44.67246971392639" lon="17.142517638959465"><ele>205.75</ele><time>2026-05-04T12:12:58Z</time></trkpt><trkpt lat="44.67244547620134" lon="17.14235629082376"><ele>206.0</ele><time>2026-05-04T12:12:59Z</time></trkpt><trkpt lat="44.6724325549609" lon="17.142205292415273"><ele>206.0</ele><time>2026-05-04T12:13:00Z</time></trkpt><trkpt lat="44.6724323438884" lon="17.142060459109185"><ele>206.0</ele><time>2026-05-04T12:13:01Z</time></trkpt><trkpt lat="44.67246363055366" lon="17.141927660909193"><ele>206.0</ele><time>2026-05-04T12:13:02Z</time></trkpt><trkpt lat="44.67251824385222" lon="17.14178765112295"><ele>206.0</ele><time>2026-05-04T12:13:03Z</time></trkpt><trkpt lat="44.67257819580655" lon="17.141647112411622"><ele>206.0</ele><time>2026-05-04T12:13:04Z</time></trkpt><trkpt lat="44.672632896873104" lon="17.141504978584734"><ele>207.75</ele><time>2026-05-04T12:13:05Z</time></trkpt><trkpt lat="44.6726757860605" lon="17.141348517007543"><ele>209.5</ele><time>2026-05-04T12:13:06Z</time></trkpt><trkpt lat="44.67270776106913" lon="17.14118736645563"><ele>211.25</ele><time>2026-05-04T12:13:07Z</time></trkpt><trkpt lat="44.672724922541605" lon="17.14102457083984"><ele>213.0</ele><time>2026-05-04T12:13:08Z</time></trkpt><trkpt lat="44.672740579988684" lon="17.14086116445591"><ele>212.4</ele><time>2026-05-04T12:13:09Z</time></trkpt><trkpt lat="44.67275577733116" lon="17.140694508044238"><ele>211.8</ele><time>2026-05-04T12:13:10Z</time></trkpt><trkpt lat="44.67277175481921" lon="17.140536909902107"><ele>211.2</ele><time>2026-05-04T12:13:11Z</time></trkpt><trkpt lat="44.67278517773968" lon="17.140394161543707"><ele>210.6</ele><time>2026-05-04T12:13:12Z</time></trkpt><trkpt lat="44.67279979438509" lon="17.140256947530997"><ele>210.0</ele><time>2026-05-04T12:13:13Z</time></trkpt><trkpt lat="44.67281670019935" lon="17.140125849663487"><ele>210.0</ele><time>2026-05-04T12:13:14Z</time></trkpt><trkpt lat="44.672830744645566" lon="17.139994271835054"><ele>210.0</ele><time>2026-05-04T12:13:15Z</time></trkpt><trkpt lat="44.67284698175381" lon="17.139848037556323"><ele>210.0</ele><time>2026-05-04T12:13:16Z</time></trkpt><trkpt lat="44.67286029317561" lon="17.139700631835577"><ele>210.0</ele><time>2026-05-04T12:13:17Z</time></trkpt><trkpt lat="44.67287687413658" lon="17.139564859558146"><ele>210.0</ele><time>2026-05-04T12:13:18Z</time></trkpt><trkpt lat="44.672897211862136" lon="17.139427240902524"><ele>210.2</ele><time>2026-05-04T12:13:19Z</time></trkpt><trkpt lat="44.67292338952177" lon="17.139291519911396"><ele>210.4</ele><time>2026-05-04T12:13:20Z</time></trkpt><trkpt lat="44.67295816072508" lon="17.139154352555295"><ele>210.60000000000002</ele><time>2026-05-04T12:13:21Z</time></trkpt><trkpt lat="44.67300424554864" lon="17.13901581270592"><ele>210.8</ele><time>2026-05-04T12:13:22Z</time></trkpt><trkpt lat="44.67306303444764" lon="17.13887966194261"><ele>211.0</ele><time>2026-05-04T12:13:23Z</time></trkpt><trkpt lat="44.67313271835684" lon="17.138747810843405"><ele>211.0</ele><time>2026-05-04T12:13:24Z</time></trkpt><trkpt lat="44.673207040473514" lon="17.138618691982312"><ele>211.0</ele><time>2026-05-04T12:13:25Z</time></trkpt><trkpt lat="44.673284217882426" lon="17.138480601709357"><ele>211.0</ele><time>2026-05-04T12:13:26Z</time></trkpt><trkpt lat="44.6733539797599" lon="17.138337408722034"><ele>211.0</ele><time>2026-05-04T12:13:27Z</time></trkpt><trkpt lat="44.67341201056343" lon="17.138184366195343"><ele>211.20000000000002</ele><time>2026-05-04T12:13:28Z</time></trkpt><trkpt lat="44.67345013643534" lon="17.138032955717836"><ele>211.4</ele><time>2026-05-04T12:13:29Z</time></trkpt><trkpt lat="44.67347835838442" lon="17.137881146615868"><ele>211.6</ele><time>2026-05-04T12:13:30Z</time></trkpt><trkpt lat="44.673499053501764" lon="17.137746386931727"><ele>211.8</ele><time>2026-05-04T12:13:31Z</time></trkpt><trkpt lat="44.673520789464725" lon="17.137623756263935"><ele>212.0</ele><time>2026-05-04T12:13:32Z</time></trkpt><trkpt lat="44.673550770976654" lon="17.137510441906734"><ele>212.0</ele><time>2026-05-04T12:13:33Z</time></trkpt><trkpt lat="44.67357911306991" lon="17.137399367936478"><ele>212.0</ele><time>2026-05-04T12:13:34Z</time></trkpt><trkpt lat="44.67360901879242" lon="17.137288905212003"><ele>212.0</ele><time>2026-05-04T12:13:35Z</time></trkpt><trkpt lat="44.67364069167911" lon="17.137162010462145"><ele>212.0</ele><time>2026-05-04T12:13:36Z</time></trkpt><trkpt lat="44.673668014437446" lon="17.137027562933127"><ele>212.0</ele><time>2026-05-04T12:13:37Z</time></trkpt><trkpt lat="44.67368959359218" lon="17.136878771967957"><ele>213.0</ele><time>2026-05-04T12:13:38Z</time></trkpt><trkpt lat="44.67372542329532" lon="17.13673193221264"><ele>214.0</ele><time>2026-05-04T12:13:39Z</time></trkpt><trkpt lat="44.6737628099544" lon="17.13658078408719"><ele>215.0</ele><time>2026-05-04T12:13:40Z</time></trkpt><trkpt lat="44.673797336603684" lon="17.136431651921225"><ele>216.0</ele><time>2026-05-04T12:13:41Z</time></trkpt><trkpt lat="44.67383379038094" lon="17.136289667943686"><ele>217.0</ele><time>2026-05-04T12:13:42Z</time></trkpt><trkpt lat="44.67387348085831" lon="17.13615540118931"><ele>217.0</ele><time>2026-05-04T12:13:43Z</time></trkpt><trkpt lat="44.67392454424472" lon="17.136036541638223"><ele>217.0</ele><time>2026-05-04T12:13:44Z</time></trkpt><trkpt lat="44.673981649326336" lon="17.13593983721897"><ele>217.0</ele><time>2026-05-04T12:13:45Z</time></trkpt><trkpt lat="44.67405271240127" lon="17.135854332250418"><ele>217.0</ele><time>2026-05-04T12:13:46Z</time></trkpt><trkpt lat="44.674110007203225" lon="17.135779652713776"><ele>217.0</ele><time>2026-05-04T12:13:47Z</time></trkpt><trkpt lat="44.67417471871687" lon="17.135688866710673"><ele>217.2</ele><time>2026-05-04T12:13:48Z</time></trkpt><trkpt lat="44.67424274139034" lon="17.135593856990653"><ele>217.39999999999998</ele><time>2026-05-04T12:13:49Z</time></trkpt><trkpt lat="44.67431854235616" lon="17.13550471987957"><ele>217.60000000000002</ele><time>2026-05-04T12:13:50Z</time></trkpt><trkpt lat="44.67440580153436" lon="17.13542531608956"><ele>217.8</ele><time>2026-05-04T12:13:51Z</time></trkpt><trkpt lat="44.67449082973561" lon="17.135373301153876"><ele>218.0</ele><time>2026-05-04T12:13:52Z</time></trkpt><trkpt lat="44.67457723763603" lon="17.135326622990235"><ele>219.4</ele><time>2026-05-04T12:13:53Z</time></trkpt><trkpt lat="44.67467153767577" lon="17.135300000614016"><ele>220.8</ele><time>2026-05-04T12:13:54Z</time></trkpt><trkpt lat="44.67477836326002" lon="17.13528933225229"><ele>222.2</ele><time>2026-05-04T12:13:55Z</time></trkpt><trkpt lat="44.67488990159541" lon="17.13527203320877"><ele>223.6</ele><time>2026-05-04T12:13:56Z</time></trkpt><trkpt lat="44.67500411665918" lon="17.135223621498763"><ele>225.0</ele><time>2026-05-04T12:13:57Z</time></trkpt><trkpt lat="44.6751116263515" lon="17.135147374456132"><ele>225.0</ele><time>2026-05-04T12:13:58Z</time></trkpt><trkpt lat="44.67519877362116" lon="17.135066342932436"><ele>225.0</ele><time>2026-05-04T12:13:59Z</time></trkpt><trkpt lat="44.67527643784256" lon="17.135014169754673"><ele>225.0</ele><time>2026-05-04T12:14:00Z</time></trkpt><trkpt lat="44.675355627986676" lon="17.134992130228518"><ele>225.0</ele><time>2026-05-04T12:14:01Z</time></trkpt><trkpt lat="44.67544108939005" lon="17.134987630601128"><ele>225.0</ele><time>2026-05-04T12:14:02Z</time></trkpt><trkpt lat="44.675518031559" lon="17.134963970514804"><ele>225.0</ele><time>2026-05-04T12:14:03Z</time></trkpt><trkpt lat="44.67558775446029" lon="17.134921159398857"><ele>226.83333333333334</ele><time>2026-05-04T12:14:04Z</time></trkpt><trkpt lat="44.67564773394119" lon="17.134842825434987"><ele>228.66666666666669</ele><time>2026-05-04T12:14:05Z</time></trkpt><trkpt lat="44.67570329156701" lon="17.134759593771754"><ele>230.5</ele><time>2026-05-04T12:14:06Z</time></trkpt><trkpt lat="44.675754874870606" lon="17.134689533956898"><ele>232.33333333333334</ele><time>2026-05-04T12:14:07Z</time></trkpt><trkpt lat="44.67580593962802" lon="17.134623825116552"><ele>234.16666666666669</ele><time>2026-05-04T12:14:08Z</time></trkpt><trkpt lat="44.675900199755276" lon="17.134598692547733"><ele>236.0</ele><time>2026-05-04T12:14:10Z</time></trkpt><trkpt lat="44.67595855468517" lon="17.13471459173695"><ele>237.83333333333334</ele><time>2026-05-04T12:14:12Z</time></trkpt><trkpt lat="44.6759756120876" lon="17.134893156249856"><ele>239.66666666666669</ele><time>2026-05-04T12:14:14Z</time></trkpt><trkpt lat="44.675975066973514" lon="17.134996450580118"><ele>241.5</ele><time>2026-05-04T12:14:15Z</time></trkpt><trkpt lat="44.67596431248749" lon="17.135092955649917"><ele>243.33333333333331</ele><time>2026-05-04T12:14:16Z</time></trkpt><trkpt lat="44.67594118163931" lon="17.135187143410704"><ele>245.16666666666666</ele><time>2026-05-04T12:14:17Z</time></trkpt><trkpt lat="44.67591583085159" lon="17.13528828840403"><ele>247.0</ele><time>2026-05-04T12:14:18Z</time></trkpt><trkpt lat="44.67588602702046" lon="17.135398217436627"><ele>246.99999999999997</ele><time>2026-05-04T12:14:19Z</time></trkpt><trkpt lat="44.675861727050226" lon="17.135509517439747"><ele>247.0</ele><time>2026-05-04T12:14:20Z</time></trkpt><trkpt lat="44.67583934137807" lon="17.13563165794359"><ele>247.0</ele><time>2026-05-04T12:14:21Z</time></trkpt><trkpt lat="44.6758302449646" lon="17.13574738920898"><ele>247.0</ele><time>2026-05-04T12:14:22Z</time></trkpt><trkpt lat="44.67583737546383" lon="17.135847491010328"><ele>246.99999999999997</ele><time>2026-05-04T12:14:23Z</time></trkpt><trkpt lat="44.67586567972167" lon="17.1359289476188"><ele>247.0</ele><time>2026-05-04T12:14:24Z</time></trkpt><trkpt lat="44.67592881116713" lon="17.13598086574082"><ele>248.33333333333331</ele><time>2026-05-04T12:14:25Z</time></trkpt><trkpt lat="44.67600539036968" lon="17.13598870777735"><ele>249.66666666666666</ele><time>2026-05-04T12:14:26Z</time></trkpt><trkpt lat="44.676092330320714" lon="17.13595829328144"><ele>251.0</ele><time>2026-05-04T12:14:27Z</time></trkpt><trkpt lat="44.67616858924066" lon="17.135901144421943"><ele>252.33333333333331</ele><time>2026-05-04T12:14:28Z</time></trkpt><trkpt lat="44.676240442525184" lon="17.135820494865097"><ele>253.66666666666666</ele><time>2026-05-04T12:14:29Z</time></trkpt><trkpt lat="44.6763220344969" lon="17.13573970032169"><ele>255.0</ele><time>2026-05-04T12:14:30Z</time></trkpt><trkpt lat="44.67640142002141" lon="17.135650813570134"><ele>258.0</ele><time>2026-05-04T12:14:31Z</time></trkpt><trkpt lat="44.67647698196127" lon="17.135551917102568"><ele>261.0</ele><time>2026-05-04T12:14:32Z</time></trkpt><trkpt lat="44.676555365453765" lon="17.135442126971302"><ele>264.0</ele><time>2026-05-04T12:14:33Z</time></trkpt><trkpt lat="44.67663252916382" lon="17.135335307833273"><ele>267.0</ele><time>2026-05-04T12:14:34Z</time></trkpt><trkpt lat="44.67671371340413" lon="17.135225556130248"><ele>270.0</ele><time>2026-05-04T12:14:35Z</time></trkpt><trkpt lat="44.67679311554336" lon="17.135094785726885"><ele>270.0</ele><time>2026-05-04T12:14:36Z</time></trkpt><trkpt lat="44.676857284856794" lon="17.13494046342223"><ele>270.0</ele><time>2026-05-04T12:14:37Z</time></trkpt><trkpt lat="44.67690821140437" lon="17.134796108747814"><ele>270.0</ele><time>2026-05-04T12:14:38Z</time></trkpt><trkpt lat="44.67695555429516" lon="17.13465747431634"><ele>270.0</ele><time>2026-05-04T12:14:39Z</time></trkpt><trkpt lat="44.677013182019934" lon="17.134522869349052"><ele>272.2</ele><time>2026-05-04T12:14:40Z</time></trkpt><trkpt lat="44.677080398426504" lon="17.13439304213857"><ele>274.4</ele><time>2026-05-04T12:14:41Z</time></trkpt><trkpt lat="44.67715443833239" lon="17.13428471457915"><ele>276.6</ele><time>2026-05-04T12:14:42Z</time></trkpt><trkpt lat="44.67724494351574" lon="17.134208256942454"><ele>278.8</ele><time>2026-05-04T12:14:43Z</time></trkpt><trkpt lat="44.67734244193144" lon="17.1341383160113"><ele>281.0</ele><time>2026-05-04T12:14:44Z</time></trkpt><trkpt lat="44.677449092745306" lon="17.134070974226287"><ele>278.5</ele><time>2026-05-04T12:14:45Z</time></trkpt><trkpt lat="44.67755475260484" lon="17.133998191699867"><ele>276.0</ele><time>2026-05-04T12:14:46Z</time></trkpt><trkpt lat="44.6776504380073" lon="17.13390852663934"><ele>273.5</ele><time>2026-05-04T12:14:47Z</time></trkpt><trkpt lat="44.67772886084052" lon="17.133801224678216"><ele>271.0</ele><time>2026-05-04T12:14:48Z</time></trkpt><trkpt lat="44.67782148894552" lon="17.133712883824614"><ele>277.0</ele><time>2026-05-04T12:14:49Z</time></trkpt><trkpt lat="44.677932132703674" lon="17.13365188461204"><ele>283.0</ele><time>2026-05-04T12:14:50Z</time></trkpt><trkpt lat="44.678055266555" lon="17.133591795155727"><ele>289.0</ele><time>2026-05-04T12:14:51Z</time></trkpt><trkpt lat="44.67817607816889" lon="17.133505109735953"><ele>295.0</ele><time>2026-05-04T12:14:52Z</time></trkpt><trkpt lat="44.67826981307546" lon="17.133375197619625"><ele>295.0</ele><time>2026-05-04T12:14:53Z</time></trkpt><trkpt lat="44.67834756654657" lon="17.133241794325038"><ele>295.0</ele><time>2026-05-04T12:14:54Z</time></trkpt><trkpt lat="44.67843172609943" lon="17.133130331364317"><ele>295.0</ele><time>2026-05-04T12:14:55Z</time></trkpt><trkpt lat="44.67851977713044" lon="17.133038510070183"><ele>295.0</ele><time>2026-05-04T12:14:56Z</time></trkpt><trkpt lat="44.67861169578208" lon="17.132956744820945"><ele>299.0</ele><time>2026-05-04T12:14:57Z</time></trkpt><trkpt lat="44.67870529934954" lon="17.13289168530737"><ele>303.0</ele><time>2026-05-04T12:14:58Z</time></trkpt><trkpt lat="44.67880754702508" lon="17.13282169475749"><ele>307.0</ele><time>2026-05-04T12:14:59Z</time></trkpt><trkpt lat="44.678922194167036" lon="17.132745715522624"><ele>311.0</ele><time>2026-05-04T12:15:00Z</time></trkpt><trkpt lat="44.67904183737581" lon="17.132670096054103"><ele>311.0</ele><time>2026-05-04T12:15:01Z</time></trkpt><trkpt lat="44.679166833483926" lon="17.13261491431918"><ele>311.0</ele><time>2026-05-04T12:15:02Z</time></trkpt><trkpt lat="44.67928464973132" lon="17.132564881210833"><ele>311.0</ele><time>2026-05-04T12:15:03Z</time></trkpt><trkpt lat="44.679384434346886" lon="17.132493504619827"><ele>311.0</ele><time>2026-05-04T12:15:04Z</time></trkpt><trkpt lat="44.67946468054915" lon="17.132376784127235"><ele>314.5</ele><time>2026-05-04T12:15:05Z</time></trkpt><trkpt lat="44.679541550906315" lon="17.13222981082406"><ele>318.0</ele><time>2026-05-04T12:15:06Z</time></trkpt><trkpt lat="44.679620759928795" lon="17.132066089798435"><ele>321.5</ele><time>2026-05-04T12:15:07Z</time></trkpt><trkpt lat="44.67970449446573" lon="17.131909609250936"><ele>325.0</ele><time>2026-05-04T12:15:08Z</time></trkpt><trkpt lat="44.67979299864204" lon="17.131778118242227"><ele>325.0</ele><time>2026-05-04T12:15:09Z</time></trkpt><trkpt lat="44.67988496329584" lon="17.13167088386298"><ele>325.0</ele><time>2026-05-04T12:15:10Z</time></trkpt><trkpt lat="44.67997262063032" lon="17.131584320133715"><ele>325.0</ele><time>2026-05-04T12:15:11Z</time></trkpt><trkpt lat="44.68006020863213" lon="17.13151855854989"><ele>325.0</ele><time>2026-05-04T12:15:12Z</time></trkpt><trkpt lat="44.680156213698375" lon="17.131489865082795"><ele>325.0</ele><time>2026-05-04T12:15:13Z</time></trkpt><trkpt lat="44.68026060960121" lon="17.131498945953943"><ele>325.25</ele><time>2026-05-04T12:15:14Z</time></trkpt><trkpt lat="44.68037233216409" lon="17.13153795350721"><ele>325.5</ele><time>2026-05-04T12:15:15Z</time></trkpt><trkpt lat="44.68048919353427" lon="17.131576468608188"><ele>325.75</ele><time>2026-05-04T12:15:16Z</time></trkpt><trkpt lat="44.68061197876964" lon="17.131591774491824"><ele>326.0</ele><time>2026-05-04T12:15:17Z</time></trkpt><trkpt lat="44.6807385455559" lon="17.131578816971313"><ele>326.0</ele><time>2026-05-04T12:15:18Z</time></trkpt><trkpt lat="44.6808623489978" lon="17.13154676908044"><ele>326.0</ele><time>2026-05-04T12:15:19Z</time></trkpt><trkpt lat="44.68099345720503" lon="17.13150512773985"><ele>326.0</ele><time>2026-05-04T12:15:20Z</time></trkpt><trkpt lat="44.68112659966204" lon="17.131463757173886"><ele>326.0</ele><time>2026-05-04T12:15:21Z</time></trkpt><trkpt lat="44.681254957720256" lon="17.131409665739056"><ele>331.6</ele><time>2026-05-04T12:15:22Z</time></trkpt><trkpt lat="44.68137192111809" lon="17.13135378189551"><ele>337.20000000000005</ele><time>2026-05-04T12:15:23Z</time></trkpt><trkpt lat="44.68147489028823" lon="17.131326368423263"><ele>342.79999999999995</ele><time>2026-05-04T12:15:24Z</time></trkpt><trkpt lat="44.68157022411786" lon="17.131347277224425"><ele>348.4</ele><time>2026-05-04T12:15:25Z</time></trkpt><trkpt lat="44.68167205033658" lon="17.13139916085199"><ele>354.0</ele><time>2026-05-04T12:15:26Z</time></trkpt><trkpt lat="44.681795977049624" lon="17.131454785003346"><ele>357.6666666666667</ele><time>2026-05-04T12:15:27Z</time></trkpt><trkpt lat="44.681946256006526" lon="17.131502881045602"><ele>361.33333333333337</ele><time>2026-05-04T12:15:28Z</time></trkpt><trkpt lat="44.68211006571747" lon="17.131552524210715"><ele>365.0</ele><time>2026-05-04T12:15:29Z</time></trkpt><trkpt lat="44.68227727624601" lon="17.13162917174034"><ele>365.0</ele><time>2026-05-04T12:15:30Z</time></trkpt><trkpt lat="44.68243226914786" lon="17.131705121012335"><ele>365.0</ele><time>2026-05-04T12:15:31Z</time></trkpt><trkpt lat="44.682587872519846" lon="17.13175985564171"><ele>365.0</ele><time>2026-05-04T12:15:32Z</time></trkpt><trkpt lat="44.68274149970182" lon="17.131781188757035"><ele>366.25</ele><time>2026-05-04T12:15:33Z</time></trkpt><trkpt lat="44.68288431459327" lon="17.131769538528417"><ele>367.5</ele><time>2026-05-04T12:15:34Z</time></trkpt><trkpt lat="44.68301059904229" lon="17.13171982730227"><ele>368.75</ele><time>2026-05-04T12:15:35Z</time></trkpt><trkpt lat="44.683132683174136" lon="17.131653060342774"><ele>370.0</ele><time>2026-05-04T12:15:36Z</time></trkpt><trkpt lat="44.683253770610904" lon="17.131587575688595"><ele>369.0</ele><time>2026-05-04T12:15:37Z</time></trkpt><trkpt lat="44.683380416793646" lon="17.131533342228934"><ele>368.0</ele><time>2026-05-04T12:15:38Z</time></trkpt><trkpt lat="44.6835058875404" lon="17.13148631382007"><ele>367.0</ele><time>2026-05-04T12:15:39Z</time></trkpt><trkpt lat="44.68363792856667" lon="17.13146221020632"><ele>366.0</ele><time>2026-05-04T12:15:40Z</time></trkpt><trkpt lat="44.68376812777494" lon="17.131465619566868"><ele>366.0</ele><time>2026-05-04T12:15:41Z</time></trkpt><trkpt lat="44.683901555500874" lon="17.1314723217165"><ele>366.0</ele><time>2026-05-04T12:15:42Z</time></trkpt><trkpt lat="44.684040887713195" lon="17.131470258701587"><ele>366.0</ele><time>2026-05-04T12:15:43Z</time></trkpt><trkpt lat="44.68418530255512" lon="17.13145508076588"><ele>366.0</ele><time>2026-05-04T12:15:44Z</time></trkpt><trkpt lat="44.684336501676185" lon="17.131433033964644"><ele>366.6666666666667</ele><time>2026-05-04T12:15:45Z</time></trkpt><trkpt lat="44.68449331973597" lon="17.131415527219975"><ele>367.33333333333337</ele><time>2026-05-04T12:15:46Z</time></trkpt><trkpt lat="44.68465930002706" lon="17.131394358075422"><ele>368.0</ele><time>2026-05-04T12:15:47Z</time></trkpt><trkpt lat="44.68481788481527" lon="17.131376190557184"><ele>368.0</ele><time>2026-05-04T12:15:48Z</time></trkpt><trkpt lat="44.684956426653706" lon="17.131375550351674"><ele>368.0</ele><time>2026-05-04T12:15:49Z</time></trkpt><trkpt lat="44.68509230903629" lon="17.131405538040504"><ele>368.0</ele><time>2026-05-04T12:15:50Z</time></trkpt><trkpt lat="44.68522727075677" lon="17.131453100898867"><ele>368.0</ele><time>2026-05-04T12:15:51Z</time></trkpt><trkpt lat="44.685358215569956" lon="17.13150872818689"><ele>371.59999999999997</ele><time>2026-05-04T12:15:52Z</time></trkpt><trkpt lat="44.68547740783439" lon="17.131559126471686"><ele>375.2</ele><time>2026-05-04T12:15:53Z</time></trkpt><trkpt lat="44.68558216595467" lon="17.131607738925116"><ele>378.8</ele><time>2026-05-04T12:15:54Z</time></trkpt><trkpt lat="44.6856591407369" lon="17.131681870365902"><ele>382.4</ele><time>2026-05-04T12:15:55Z</time></trkpt><trkpt lat="44.68571199583861" lon="17.131787483524693"><ele>386.0</ele><time>2026-05-04T12:15:56Z</time></trkpt><trkpt lat="44.68575640369704" lon="17.131916865908376"><ele>386.0</ele><time>2026-05-04T12:15:57Z</time></trkpt><trkpt lat="44.68579878707691" lon="17.132064072054664"><ele>386.0</ele><time>2026-05-04T12:15:58Z</time></trkpt><trkpt lat="44.68584473024718" lon="17.13222113329067"><ele>386.0</ele><time>2026-05-04T12:15:59Z</time></trkpt><trkpt lat="44.685887687655935" lon="17.13239657667281"><ele>386.0</ele><time>2026-05-04T12:16:00Z</time></trkpt><trkpt lat="44.68591572943589" lon="17.132579208334054"><ele>386.4</ele><time>2026-05-04T12:16:01Z</time></trkpt><trkpt lat="44.68591943043395" lon="17.132759681810764"><ele>386.8</ele><time>2026-05-04T12:16:02Z</time></trkpt><trkpt lat="44.68592184740692" lon="17.132914588256597"><ele>387.2</ele><time>2026-05-04T12:16:03Z</time></trkpt><trkpt lat="44.685940149625104" lon="17.133052826366"><ele>387.59999999999997</ele><time>2026-05-04T12:16:04Z</time></trkpt><trkpt lat="44.685973566623495" lon="17.133139548634336"><ele>388.0</ele><time>2026-05-04T12:16:05Z</time></trkpt><trkpt lat="44.686090042547335" lon="17.133176111427037"><ele>391.4</ele><time>2026-05-04T12:16:07Z</time></trkpt><trkpt lat="44.68616817181993" lon="17.13313141648957"><ele>394.79999999999995</ele><time>2026-05-04T12:16:08Z</time></trkpt><trkpt lat="44.68623909071844" lon="17.133062873502922"><ele>398.2</ele><time>2026-05-04T12:16:09Z</time></trkpt><trkpt lat="44.6863265570118" lon="17.13297598040766"><ele>401.6</ele><time>2026-05-04T12:16:10Z</time></trkpt><trkpt lat="44.68641861577159" lon="17.132874445608486"><ele>405.0</ele><time>2026-05-04T12:16:11Z</time></trkpt><trkpt lat="44.686521468836" lon="17.132795557446734"><ele>405.0</ele><time>2026-05-04T12:16:12Z</time></trkpt><trkpt lat="44.686633519989954" lon="17.13274813017718"><ele>405.0</ele><time>2026-05-04T12:16:13Z</time></trkpt><trkpt lat="44.68674420855326" lon="17.1327200306117"><ele>405.0</ele><time>2026-05-04T12:16:14Z</time></trkpt><trkpt lat="44.68686036536777" lon="17.132706363567518"><ele>405.0</ele><time>2026-05-04T12:16:15Z</time></trkpt><trkpt lat="44.68698432777161" lon="17.132696839615594"><ele>408.5</ele><time>2026-05-04T12:16:16Z</time></trkpt><trkpt lat="44.68711827214146" lon="17.132706775943568"><ele>412.0</ele><time>2026-05-04T12:16:17Z</time></trkpt><trkpt lat="44.68725249979101" lon="17.132733413334137"><ele>415.5</ele><time>2026-05-04T12:16:18Z</time></trkpt><trkpt lat="44.687384544192135" lon="17.132759544909252"><ele>419.0</ele><time>2026-05-04T12:16:19Z</time></trkpt><trkpt lat="44.6875182005987" lon="17.132784727419406"><ele>419.0</ele><time>2026-05-04T12:16:20Z</time></trkpt><trkpt lat="44.687655000411105" lon="17.132807108646155"><ele>419.0</ele><time>2026-05-04T12:16:21Z</time></trkpt><trkpt lat="44.68778678078652" lon="17.132831705196903"><ele>419.0</ele><time>2026-05-04T12:16:22Z</time></trkpt><trkpt lat="44.68790756227016" lon="17.13285705272539"><ele>419.0</ele><time>2026-05-04T12:16:23Z</time></trkpt><trkpt lat="44.688027336549546" lon="17.13289375451582"><ele>421.75</ele><time>2026-05-04T12:16:24Z</time></trkpt><trkpt lat="44.68814451089819" lon="17.13292899036281"><ele>424.5</ele><time>2026-05-04T12:16:25Z</time></trkpt><trkpt lat="44.68825460842665" lon="17.13296466742807"><ele>427.25</ele><time>2026-05-04T12:16:26Z</time></trkpt><trkpt lat="44.68836333230129" lon="17.13299514936163"><ele>430.0</ele><time>2026-05-04T12:16:27Z</time></trkpt><trkpt lat="44.68847086037287" lon="17.133029565730045"><ele>430.0</ele><time>2026-05-04T12:16:28Z</time></trkpt><trkpt lat="44.688572658675795" lon="17.13306137140722"><ele>430.0</ele><time>2026-05-04T12:16:29Z</time></trkpt><trkpt lat="44.68867348588584" lon="17.133089713559702"><ele>430.0</ele><time>2026-05-04T12:16:30Z</time></trkpt><trkpt lat="44.688776525304775" lon="17.133119081960935"><ele>430.0</ele><time>2026-05-04T12:16:31Z</time></trkpt><trkpt lat="44.68888090016161" lon="17.133148916105263"><ele>430.0</ele><time>2026-05-04T12:16:32Z</time></trkpt><trkpt lat="44.68899329502164" lon="17.133179105789406"><ele>431.8</ele><time>2026-05-04T12:16:33Z</time></trkpt><trkpt lat="44.68910534451397" lon="17.133195950002712"><ele>433.6</ele><time>2026-05-04T12:16:34Z</time></trkpt><trkpt lat="44.68920668649323" lon="17.133198801618878"><ele>435.4</ele><time>2026-05-04T12:16:35Z</time></trkpt><trkpt lat="44.68929806891129" lon="17.13318157558742"><ele>437.2</ele><time>2026-05-04T12:16:36Z</time></trkpt><trkpt lat="44.689387837834325" lon="17.13316406163232"><ele>439.0</ele><time>2026-05-04T12:16:37Z</time></trkpt><trkpt lat="44.68948192830432" lon="17.133126347491494"><ele>439.4</ele><time>2026-05-04T12:16:38Z</time></trkpt><trkpt lat="44.68958089746829" lon="17.1330882910414"><ele>439.79999999999995</ele><time>2026-05-04T12:16:39Z</time></trkpt><trkpt lat="44.6896828340552" lon="17.13303988214596"><ele>440.20000000000005</ele><time>2026-05-04T12:16:40Z</time></trkpt><trkpt lat="44.68979173383251" lon="17.13299028019413"><ele>440.6</ele><time>2026-05-04T12:16:41Z</time></trkpt><trkpt lat="44.68990834104696" lon="17.132950894815448"><ele>441.0</ele><time>2026-05-04T12:16:42Z</time></trkpt><trkpt lat="44.690031063391686" lon="17.132933950479458"><ele>441.0</ele><time>2026-05-04T12:16:43Z</time></trkpt><trkpt lat="44.69016196227091" lon="17.132931692832198"><ele>441.0</ele><time>2026-05-04T12:16:44Z</time></trkpt><trkpt lat="44.69030034243882" lon="17.13295592920291"><ele>441.0</ele><time>2026-05-04T12:16:45Z</time></trkpt><trkpt lat="44.69043857677177" lon="17.132994848940776"><ele>441.0</ele><time>2026-05-04T12:16:46Z</time></trkpt><trkpt lat="44.6905711983182" lon="17.13305572482908"><ele>440.0</ele><time>2026-05-04T12:16:47Z</time></trkpt><trkpt lat="44.690708065566916" lon="17.133129877793035"><ele>439.0</ele><time>2026-05-04T12:16:48Z</time></trkpt><trkpt lat="44.690851220551274" lon="17.133206330058425"><ele>438.0</ele><time>2026-05-04T12:16:49Z</time></trkpt><trkpt lat="44.69100233578143" lon="17.13327181229278"><ele>439.0</ele><time>2026-05-04T12:16:50Z</time></trkpt><trkpt lat="44.69115773303469" lon="17.133308712918843"><ele>440.0</ele><time>2026-05-04T12:16:51Z</time></trkpt><trkpt lat="44.691307714740105" lon="17.13331790649241"><ele>441.0</ele><time>2026-05-04T12:16:52Z</time></trkpt><trkpt lat="44.6914554687282" lon="17.133313851344575"><ele>441.0</ele><time>2026-05-04T12:16:53Z</time></trkpt><trkpt lat="44.691600383823605" lon="17.13331535283054"><ele>441.0</ele><time>2026-05-04T12:16:54Z</time></trkpt><trkpt lat="44.69173762196886" lon="17.133326911188316"><ele>441.0</ele><time>2026-05-04T12:16:55Z</time></trkpt><trkpt lat="44.69185755064882" lon="17.133343941220502"><ele>441.0</ele><time>2026-05-04T12:16:56Z</time></trkpt><trkpt lat="44.69195047151301" lon="17.13336002065089"><ele>443.5</ele><time>2026-05-04T12:16:57Z</time></trkpt><trkpt lat="44.69202183424344" lon="17.133398767116176"><ele>446.0</ele><time>2026-05-04T12:16:58Z</time></trkpt><trkpt lat="44.69205553613017" lon="17.133479513731963"><ele>448.5</ele><time>2026-05-04T12:16:59Z</time></trkpt><trkpt lat="44.692062248391274" lon="17.133589805369787"><ele>451.0</ele><time>2026-05-04T12:17:00Z</time></trkpt><trkpt lat="44.69205983980507" lon="17.133720546138164"><ele>453.5</ele><time>2026-05-04T12:17:01Z</time></trkpt><trkpt lat="44.69209626801903" lon="17.1338592334846"><ele>456.0</ele><time>2026-05-04T12:17:02Z</time></trkpt><trkpt lat="44.692160938849256" lon="17.134003979065106"><ele>457.20000000000005</ele><time>2026-05-04T12:17:03Z</time></trkpt><trkpt lat="44.692217380011215" lon="17.13414112919319"><ele>458.40000000000003</ele><time>2026-05-04T12:17:04Z</time></trkpt><trkpt lat="44.69228059559443" lon="17.13430554645854"><ele>459.6</ele><time>2026-05-04T12:17:05Z</time></trkpt><trkpt lat="44.69233141341809" lon="17.134443121313677"><ele>460.8</ele><time>2026-05-04T12:17:06Z</time></trkpt><trkpt lat="44.69236994580512" lon="17.13453289797722"><ele>462.0</ele><time>2026-05-04T12:17:07Z</time></trkpt><trkpt lat="44.69241887124582" lon="17.134591422091493"><ele>462.0</ele><time>2026-05-04T12:17:08Z</time></trkpt><trkpt lat="44.692493817044316" lon="17.134645919356807"><ele>462.00000000000006</ele><time>2026-05-04T12:17:09Z</time></trkpt><trkpt lat="44.692585719354206" lon="17.13468255911654"><ele>462.00000000000006</ele><time>2026-05-04T12:17:10Z</time></trkpt><trkpt lat="44.69269003080976" lon="17.13472141452945"><ele>462.0</ele><time>2026-05-04T12:17:11Z</time></trkpt><trkpt lat="44.69280710477648" lon="17.13477295619034"><ele>462.0</ele><time>2026-05-04T12:17:12Z</time></trkpt><trkpt lat="44.69294119667182" lon="17.134840051650233"><ele>465.33333333333337</ele><time>2026-05-04T12:17:13Z</time></trkpt><trkpt lat="44.69308176637944" lon="17.134910140866506"><ele>468.6666666666667</ele><time>2026-05-04T12:17:14Z</time></trkpt><trkpt lat="44.693224726979224" lon="17.134977844377733"><ele>472.0</ele><time>2026-05-04T12:17:15Z</time></trkpt><trkpt lat="44.69337008737436" lon="17.135051159408803"><ele>472.0</ele><time>2026-05-04T12:17:16Z</time></trkpt><trkpt lat="44.69352058477871" lon="17.135132455515706"><ele>472.0</ele><time>2026-05-04T12:17:17Z</time></trkpt><trkpt lat="44.6936761992008" lon="17.135200516813242"><ele>472.0</ele><time>2026-05-04T12:17:18Z</time></trkpt><trkpt lat="44.69382447368498" lon="17.13526478454209"><ele>474.0</ele><time>2026-05-04T12:17:19Z</time></trkpt><trkpt lat="44.693971024390926" lon="17.13530285116867"><ele>476.0</ele><time>2026-05-04T12:17:20Z</time></trkpt><trkpt lat="44.69410553995744" lon="17.135348797733116"><ele>478.0</ele><time>2026-05-04T12:17:21Z</time></trkpt><trkpt lat="44.694220799900144" lon="17.135403754654458"><ele>480.0</ele><time>2026-05-04T12:17:22Z</time></trkpt><trkpt lat="44.69431801504883" lon="17.13548013610041"><ele>480.0</ele><time>2026-05-04T12:17:23Z</time></trkpt><trkpt lat="44.6944015883675" lon="17.1355845832335"><ele>480.0</ele><time>2026-05-04T12:17:24Z</time></trkpt><trkpt lat="44.694480486412665" lon="17.135731927124624"><ele>480.0</ele><time>2026-05-04T12:17:25Z</time></trkpt><trkpt lat="44.6945580939645" lon="17.13589419248239"><ele>480.0</ele><time>2026-05-04T12:17:26Z</time></trkpt><trkpt lat="44.69463345926972" lon="17.136061666040824"><ele>481.25</ele><time>2026-05-04T12:17:27Z</time></trkpt><trkpt lat="44.69471314865858" lon="17.136188163037836"><ele>482.5</ele><time>2026-05-04T12:17:28Z</time></trkpt><trkpt lat="44.69480854012846" lon="17.13627189748528"><ele>483.75</ele><time>2026-05-04T12:17:29Z</time></trkpt><trkpt lat="44.69493555881062" lon="17.13633939061778"><ele>485.0</ele><time>2026-05-04T12:17:30Z</time></trkpt><trkpt lat="44.69507883701937" lon="17.136431202912338"><ele>485.0</ele><time>2026-05-04T12:17:31Z</time></trkpt><trkpt lat="44.695216817496686" lon="17.136541811142596"><ele>485.0</ele><time>2026-05-04T12:17:32Z</time></trkpt><trkpt lat="44.69535371953326" lon="17.13665418916584"><ele>485.0</ele><time>2026-05-04T12:17:33Z</time></trkpt><trkpt lat="44.69548596235481" lon="17.136770513849687"><ele>490.66666666666663</ele><time>2026-05-04T12:17:34Z</time></trkpt><trkpt lat="44.695619436184636" lon="17.13690305248027"><ele>496.33333333333337</ele><time>2026-05-04T12:17:35Z</time></trkpt><trkpt lat="44.69575729241644" lon="17.137041738521493"><ele>502.0</ele><time>2026-05-04T12:17:36Z</time></trkpt><trkpt lat="44.695880679818096" lon="17.137175751854677"><ele>502.0</ele><time>2026-05-04T12:17:37Z</time></trkpt><trkpt lat="44.69598069368444" lon="17.137309152105647"><ele>502.0</ele><time>2026-05-04T12:17:38Z</time></trkpt><trkpt lat="44.696080354302936" lon="17.13741873766277"><ele>502.0</ele><time>2026-05-04T12:17:39Z</time></trkpt><trkpt lat="44.69620700450875" lon="17.137506415091725"><ele>502.0</ele><time>2026-05-04T12:17:40Z</time></trkpt><trkpt lat="44.69635597227239" lon="17.137556275432726"><ele>505.6666666666667</ele><time>2026-05-04T12:17:41Z</time></trkpt><trkpt lat="44.696507448553426" lon="17.13760807316356"><ele>509.33333333333337</ele><time>2026-05-04T12:17:42Z</time></trkpt><trkpt lat="44.696656673361474" lon="17.13766497131843"><ele>513.0</ele><time>2026-05-04T12:17:43Z</time></trkpt><trkpt lat="44.69679770741026" lon="17.137715972562354"><ele>514.0</ele><time>2026-05-04T12:17:44Z</time></trkpt><trkpt lat="44.69694541786356" lon="17.137740902837322"><ele>515.0</ele><time>2026-05-04T12:17:45Z</time></trkpt><trkpt lat="44.69708056928759" lon="17.13775088272482"><ele>516.0</ele><time>2026-05-04T12:17:46Z</time></trkpt><trkpt lat="44.69720098535166" lon="17.13775713546345"><ele>517.0</ele><time>2026-05-04T12:17:47Z</time></trkpt><trkpt lat="44.69732173569562" lon="17.13776960878194"><ele>517.0</ele><time>2026-05-04T12:17:48Z</time></trkpt><trkpt lat="44.69743052739637" lon="17.137728354671456"><ele>517.0</ele><time>2026-05-04T12:17:49Z</time></trkpt><trkpt lat="44.69754534209925" lon="17.137671434798392"><ele>517.0</ele><time>2026-05-04T12:17:50Z</time></trkpt><trkpt lat="44.69767637575952" lon="17.13760649864094"><ele>517.0</ele><time>2026-05-04T12:17:51Z</time></trkpt><trkpt lat="44.6978173765985" lon="17.137572794622002"><ele>516.75</ele><time>2026-05-04T12:17:52Z</time></trkpt><trkpt lat="44.69794411513621" lon="17.13755771160632"><ele>516.5</ele><time>2026-05-04T12:17:53Z</time></trkpt><trkpt lat="44.698067112926054" lon="17.13754747574706"><ele>516.25</ele><time>2026-05-04T12:17:54Z</time></trkpt><trkpt lat="44.69819734126726" lon="17.13753609045182"><ele>516.0</ele><time>2026-05-04T12:17:55Z</time></trkpt><trkpt lat="44.69833285929873" lon="17.137533512076725"><ele>516.0</ele><time>2026-05-04T12:17:56Z</time></trkpt><trkpt lat="44.69847347123644" lon="17.13754323828623"><ele>516.0</ele><time>2026-05-04T12:17:57Z</time></trkpt><trkpt lat="44.69861806662203" lon="17.137572187995595"><ele>516.0</ele><time>2026-05-04T12:17:58Z</time></trkpt><trkpt lat="44.69876280720154" lon="17.137626185910797"><ele>516.0</ele><time>2026-05-04T12:17:59Z</time></trkpt><trkpt lat="44.698896812835216" lon="17.1376940826102"><ele>514.5</ele><time>2026-05-04T12:18:00Z</time></trkpt><trkpt lat="44.69901683172888" lon="17.137776078644773"><ele>513.0</ele><time>2026-05-04T12:18:01Z</time></trkpt><trkpt lat="44.699101753202015" lon="17.13789920206647"><ele>511.5</ele><time>2026-05-04T12:18:02Z</time></trkpt><trkpt lat="44.69914891373403" lon="17.138046688728007"><ele>510.0</ele><time>2026-05-04T12:18:03Z</time></trkpt><trkpt lat="44.69917878186271" lon="17.138200411913193"><ele>510.0</ele><time>2026-05-04T12:18:04Z</time></trkpt><trkpt lat="44.699222747200054" lon="17.138353206404165"><ele>510.0</ele><time>2026-05-04T12:18:05Z</time></trkpt><trkpt lat="44.69931149965201" lon="17.138488264626947"><ele>510.0</ele><time>2026-05-04T12:18:06Z</time></trkpt><trkpt lat="44.6994361425002" lon="17.138573276844028"><ele>510.0</ele><time>2026-05-04T12:18:07Z</time></trkpt><trkpt lat="44.699569591739376" lon="17.138624136078114"><ele>510.0</ele><time>2026-05-04T12:18:08Z</time></trkpt><trkpt lat="44.699705957073036" lon="17.138670353349617"><ele>510.0</ele><time>2026-05-04T12:18:09Z</time></trkpt><trkpt lat="44.699831599619934" lon="17.138763632451315"><ele>510.0</ele><time>2026-05-04T12:18:10Z</time></trkpt><trkpt lat="44.69993237087937" lon="17.138897136382333"><ele>510.0</ele><time>2026-05-04T12:18:11Z</time></trkpt><trkpt lat="44.70002721762398" lon="17.13904279321659"><ele>510.75</ele><time>2026-05-04T12:18:12Z</time></trkpt><trkpt lat="44.700122418151075" lon="17.1391922128439"><ele>511.5</ele><time>2026-05-04T12:18:13Z</time></trkpt><trkpt lat="44.700218714567654" lon="17.13934894489122"><ele>512.25</ele><time>2026-05-04T12:18:14Z</time></trkpt><trkpt lat="44.7003217042112" lon="17.13951528336505"><ele>513.0</ele><time>2026-05-04T12:18:15Z</time></trkpt><trkpt lat="44.70042894864413" lon="17.139665435753194"><ele>513.0</ele><time>2026-05-04T12:18:16Z</time></trkpt><trkpt lat="44.700541504201226" lon="17.139771275362268"><ele>513.0</ele><time>2026-05-04T12:18:17Z</time></trkpt><trkpt lat="44.700671101384664" lon="17.139833214278628"><ele>513.0</ele><time>2026-05-04T12:18:18Z</time></trkpt><trkpt lat="44.70081717939506" lon="17.13985933252576"><ele>513.0</ele><time>2026-05-04T12:18:19Z</time></trkpt><trkpt lat="44.70097906789278" lon="17.139859842986727"><ele>515.0</ele><time>2026-05-04T12:18:20Z</time></trkpt><trkpt lat="44.70114147951318" lon="17.13984144253076"><ele>517.0</ele><time>2026-05-04T12:18:21Z</time></trkpt><trkpt lat="44.70130945533831" lon="17.13982455039701"><ele>519.0</ele><time>2026-05-04T12:18:22Z</time></trkpt><trkpt lat="44.701457263107486" lon="17.139801189146247"><ele>519.0</ele><time>2026-05-04T12:18:23Z</time></trkpt><trkpt lat="44.70158839105379" lon="17.139787194173163"><ele>519.0</ele><time>2026-05-04T12:18:24Z</time></trkpt><trkpt lat="44.70169534183509" lon="17.139780999835978"><ele>519.0</ele><time>2026-05-04T12:18:25Z</time></trkpt><trkpt lat="44.701789445789295" lon="17.139773825758773"><ele>519.0</ele><time>2026-05-04T12:18:26Z</time></trkpt><trkpt lat="44.701882575570785" lon="17.13976838404424"><ele>519.0</ele><time>2026-05-04T12:18:27Z</time></trkpt><trkpt lat="44.701984823756625" lon="17.139758725682384"><ele>520.4</ele><time>2026-05-04T12:18:28Z</time></trkpt><trkpt lat="44.70208292074719" lon="17.139758311613164"><ele>521.8</ele><time>2026-05-04T12:18:29Z</time></trkpt><trkpt lat="44.702179733132" lon="17.139759338235077"><ele>523.2</ele><time>2026-05-04T12:18:30Z</time></trkpt><trkpt lat="44.70228221673223" lon="17.139757558289492"><ele>524.6</ele><time>2026-05-04T12:18:31Z</time></trkpt><trkpt lat="44.70238488345045" lon="17.139739460874704"><ele>526.0</ele><time>2026-05-04T12:18:32Z</time></trkpt><trkpt lat="44.70248027722898" lon="17.139687641534778"><ele>526.0</ele><time>2026-05-04T12:18:33Z</time></trkpt><trkpt lat="44.702565135139544" lon="17.139600604036747"><ele>526.0</ele><time>2026-05-04T12:18:34Z</time></trkpt><trkpt lat="44.702650290026064" lon="17.13948396952266"><ele>526.0</ele><time>2026-05-04T12:18:35Z</time></trkpt><trkpt lat="44.70273749047168" lon="17.1393453699952"><ele>526.0</ele><time>2026-05-04T12:18:36Z</time></trkpt><trkpt lat="44.70282949013077" lon="17.139196594661424"><ele>527.25</ele><time>2026-05-04T12:18:37Z</time></trkpt><trkpt lat="44.70291120537333" lon="17.13903510053895"><ele>528.5</ele><time>2026-05-04T12:18:38Z</time></trkpt><trkpt lat="44.70297296278918" lon="17.13884403562467"><ele>529.75</ele><time>2026-05-04T12:18:39Z</time></trkpt><trkpt lat="44.70302836833517" lon="17.138662324284603"><ele>531.0</ele><time>2026-05-04T12:18:40Z</time></trkpt><trkpt lat="44.703081685802594" lon="17.138499802558208"><ele>531.0</ele><time>2026-05-04T12:18:41Z</time></trkpt><trkpt lat="44.703147598206996" lon="17.138340141494528"><ele>531.0</ele><time>2026-05-04T12:18:42Z</time></trkpt><trkpt lat="44.70323458348198" lon="17.138181783050868"><ele>531.0</ele><time>2026-05-04T12:18:43Z</time></trkpt><trkpt lat="44.70334266569521" lon="17.138048390853605"><ele>531.0</ele><time>2026-05-04T12:18:44Z</time></trkpt><trkpt lat="44.703473484451976" lon="17.137957832325835"><ele>532.0</ele><time>2026-05-04T12:18:45Z</time></trkpt><trkpt lat="44.70361798393282" lon="17.137893740530387"><ele>533.0</ele><time>2026-05-04T12:18:46Z</time></trkpt><trkpt lat="44.7037801671445" lon="17.137841580541195"><ele>534.0</ele><time>2026-05-04T12:18:47Z</time></trkpt><trkpt lat="44.703960360768114" lon="17.137784016380653"><ele>534.0</ele><time>2026-05-04T12:18:48Z</time></trkpt><trkpt lat="44.704153854303726" lon="17.13769725878701"><ele>534.0</ele><time>2026-05-04T12:18:49Z</time></trkpt><trkpt lat="44.704360028310525" lon="17.13755668422066"><ele>534.0</ele><time>2026-05-04T12:18:50Z</time></trkpt><trkpt lat="44.70456731520647" lon="17.13739703669238"><ele>532.3333333333334</ele><time>2026-05-04T12:18:51Z</time></trkpt><trkpt lat="44.70475544855243" lon="17.13724277778762"><ele>530.6666666666667</ele><time>2026-05-04T12:18:52Z</time></trkpt><trkpt lat="44.704924288173565" lon="17.13712066562747"><ele>529.0</ele><time>2026-05-04T12:18:53Z</time></trkpt><trkpt lat="44.70507480442823" lon="17.137011442501816"><ele>529.0</ele><time>2026-05-04T12:18:54Z</time></trkpt><trkpt lat="44.705198948217216" lon="17.136884888030078"><ele>529.0</ele><time>2026-05-04T12:18:55Z</time></trkpt><trkpt lat="44.705300900635585" lon="17.136730970845072"><ele>529.0</ele><time>2026-05-04T12:18:56Z</time></trkpt><trkpt lat="44.705369807756604" lon="17.136548970884153"><ele>529.0</ele><time>2026-05-04T12:18:57Z</time></trkpt><trkpt lat="44.705435202943825" lon="17.13636977672101"><ele>527.5</ele><time>2026-05-04T12:18:58Z</time></trkpt><trkpt lat="44.705499337586474" lon="17.136189698692025"><ele>526.0</ele><time>2026-05-04T12:18:59Z</time></trkpt><trkpt lat="44.70556612537904" lon="17.136022358238066"><ele>524.5</ele><time>2026-05-04T12:19:00Z</time></trkpt><trkpt lat="44.7056509692257" lon="17.135858621972716"><ele>523.0</ele><time>2026-05-04T12:19:01Z</time></trkpt><trkpt lat="44.70574444989604" lon="17.13571253723425"><ele>522.75</ele><time>2026-05-04T12:19:02Z</time></trkpt><trkpt lat="44.70584464670085" lon="17.135575923952523"><ele>522.5</ele><time>2026-05-04T12:19:03Z</time></trkpt><trkpt lat="44.70594316372497" lon="17.13545276223848"><ele>522.25</ele><time>2026-05-04T12:19:04Z</time></trkpt><trkpt lat="44.706050026660115" lon="17.135339659196912"><ele>522.0</ele><time>2026-05-04T12:19:05Z</time></trkpt><trkpt lat="44.70616476221148" lon="17.135246508866718"><ele>523.25</ele><time>2026-05-04T12:19:06Z</time></trkpt><trkpt lat="44.70629062543314" lon="17.135167893019407"><ele>524.5</ele><time>2026-05-04T12:19:07Z</time></trkpt><trkpt lat="44.70642227562002" lon="17.135115114729256"><ele>525.75</ele><time>2026-05-04T12:19:08Z</time></trkpt><trkpt lat="44.70656135449359" lon="17.135081928196264"><ele>527.0</ele><time>2026-05-04T12:19:09Z</time></trkpt><trkpt lat="44.70670485493806" lon="17.13505551121975"><ele>527.0</ele><time>2026-05-04T12:19:10Z</time></trkpt><trkpt lat="44.70684360816113" lon="17.13502314392232"><ele>527.0</ele><time>2026-05-04T12:19:11Z</time></trkpt><trkpt lat="44.706973727692066" lon="17.134973867381643"><ele>527.0</ele><time>2026-05-04T12:19:12Z</time></trkpt><trkpt lat="44.707086951825694" lon="17.134887422913273"><ele>527.0</ele><time>2026-05-04T12:19:13Z</time></trkpt><trkpt lat="44.70719042368236" lon="17.13477084381218"><ele>526.75</ele><time>2026-05-04T12:19:14Z</time></trkpt><trkpt lat="44.70728659246944" lon="17.1346255704709"><ele>526.5</ele><time>2026-05-04T12:19:15Z</time></trkpt><trkpt lat="44.707375444081165" lon="17.134475813623787"><ele>526.25</ele><time>2026-05-04T12:19:16Z</time></trkpt><trkpt lat="44.707463198291194" lon="17.134301212634014"><ele>526.0</ele><time>2026-05-04T12:19:17Z</time></trkpt><trkpt lat="44.707542055409576" lon="17.134106386225028"><ele>527.6666666666667</ele><time>2026-05-04T12:19:18Z</time></trkpt><trkpt lat="44.70759515036923" lon="17.133899632137243"><ele>529.3333333333334</ele><time>2026-05-04T12:19:19Z</time></trkpt><trkpt lat="44.70762591408561" lon="17.13369948510705"><ele>531.0</ele><time>2026-05-04T12:19:20Z</time></trkpt><trkpt lat="44.70766916329496" lon="17.133499584814153"><ele>531.0</ele><time>2026-05-04T12:19:21Z</time></trkpt><trkpt lat="44.70772178012462" lon="17.13332092535403"><ele>531.0</ele><time>2026-05-04T12:19:22Z</time></trkpt><trkpt lat="44.70773040109046" lon="17.133146123781586"><ele>531.0</ele><time>2026-05-04T12:19:23Z</time></trkpt><trkpt lat="44.7076933978689" lon="17.132974549805443"><ele>531.0</ele><time>2026-05-04T12:19:24Z</time></trkpt><trkpt lat="44.70764384087919" lon="17.132804379486764"><ele>532.25</ele><time>2026-05-04T12:19:25Z</time></trkpt><trkpt lat="44.70763274056142" lon="17.1326251519271"><ele>533.5</ele><time>2026-05-04T12:19:26Z</time></trkpt><trkpt lat="44.70767650810305" lon="17.132447740531195"><ele>534.75</ele><time>2026-05-04T12:19:27Z</time></trkpt><trkpt lat="44.70775730661985" lon="17.132295491294975"><ele>536.0</ele><time>2026-05-04T12:19:28Z</time></trkpt><trkpt lat="44.70786928682173" lon="17.132185252513917"><ele>532.3333333333333</ele><time>2026-05-04T12:19:29Z</time></trkpt><trkpt lat="44.707994204582455" lon="17.132084984463596"><ele>528.6666666666666</ele><time>2026-05-04T12:19:30Z</time></trkpt><trkpt lat="44.7081243348962" lon="17.131968399774173"><ele>525.0</ele><time>2026-05-04T12:19:31Z</time></trkpt><trkpt lat="44.708250656839574" lon="17.131834855037326"><ele>525.0</ele><time>2026-05-04T12:19:32Z</time></trkpt><trkpt lat="44.708374268158856" lon="17.131704161769264"><ele>525.0</ele><time>2026-05-04T12:19:33Z</time></trkpt><trkpt lat="44.70849695774586" lon="17.131578718033403"><ele>525.0</ele><time>2026-05-04T12:19:34Z</time></trkpt><trkpt lat="44.708621645256564" lon="17.131463547188368"><ele>524.0</ele><time>2026-05-04T12:19:35Z</time></trkpt><trkpt lat="44.708751294226666" lon="17.131357666099618"><ele>523.0</ele><time>2026-05-04T12:19:36Z</time></trkpt><trkpt lat="44.70887450917683" lon="17.131269939803758"><ele>522.0</ele><time>2026-05-04T12:19:37Z</time></trkpt><trkpt lat="44.708987583749526" lon="17.131196739277993"><ele>521.0</ele><time>2026-05-04T12:19:38Z</time></trkpt><trkpt lat="44.70909833905801" lon="17.13112281753473"><ele>521.0</ele><time>2026-05-04T12:19:39Z</time></trkpt><trkpt lat="44.70920805560389" lon="17.13103261261705"><ele>521.0</ele><time>2026-05-04T12:19:40Z</time></trkpt><trkpt lat="44.70931130010229" lon="17.130912810383933"><ele>521.0</ele><time>2026-05-04T12:19:41Z</time></trkpt><trkpt lat="44.70940535998018" lon="17.13077227620377"><ele>521.0</ele><time>2026-05-04T12:19:42Z</time></trkpt><trkpt lat="44.70949690905998" lon="17.13061888085124"><ele>517.6666666666666</ele><time>2026-05-04T12:19:43Z</time></trkpt><trkpt lat="44.709593588117656" lon="17.13047654565932"><ele>514.3333333333334</ele><time>2026-05-04T12:19:44Z</time></trkpt><trkpt lat="44.709699363363086" lon="17.130330433846872"><ele>511.0</ele><time>2026-05-04T12:19:45Z</time></trkpt><trkpt lat="44.70982965888534" lon="17.13019229162461"><ele>511.0</ele><time>2026-05-04T12:19:46Z</time></trkpt><trkpt lat="44.7099694023871" lon="17.130055749577252"><ele>511.0</ele><time>2026-05-04T12:19:47Z</time></trkpt><trkpt lat="44.710107201859856" lon="17.1299177965016"><ele>511.0</ele><time>2026-05-04T12:19:48Z</time></trkpt><trkpt lat="44.710253130251054" lon="17.129779065379818"><ele>511.0</ele><time>2026-05-04T12:19:49Z</time></trkpt><trkpt lat="44.71039962869604" lon="17.129653823380934"><ele>511.0</ele><time>2026-05-04T12:19:50Z</time></trkpt><trkpt lat="44.71055105109671" lon="17.12954335604419"><ele>511.0</ele><time>2026-05-04T12:19:51Z</time></trkpt><trkpt lat="44.710702491863465" lon="17.129446889739"><ele>511.0</ele><time>2026-05-04T12:19:52Z</time></trkpt><trkpt lat="44.71085555852014" lon="17.129354535877468"><ele>511.0</ele><time>2026-05-04T12:19:53Z</time></trkpt><trkpt lat="44.71101135582456" lon="17.129271555997036"><ele>511.0</ele><time>2026-05-04T12:19:54Z</time></trkpt><trkpt lat="44.7111633495994" lon="17.129212443411223"><ele>511.75</ele><time>2026-05-04T12:19:55Z</time></trkpt><trkpt lat="44.711304906056824" lon="17.129177282397233"><ele>512.5</ele><time>2026-05-04T12:19:56Z</time></trkpt><trkpt lat="44.71145211840051" lon="17.129160591288684"><ele>513.25</ele><time>2026-05-04T12:19:57Z</time></trkpt><trkpt lat="44.71160149551833" lon="17.129149313292036"><ele>514.0</ele><time>2026-05-04T12:19:58Z</time></trkpt><trkpt lat="44.71175841834955" lon="17.129123401365117"><ele>516.0</ele><time>2026-05-04T12:19:59Z</time></trkpt><trkpt lat="44.71192507858695" lon="17.129079440201497"><ele>518.0</ele><time>2026-05-04T12:20:00Z</time></trkpt><trkpt lat="44.71209551358764" lon="17.129007078498976"><ele>520.0</ele><time>2026-05-04T12:20:01Z</time></trkpt><trkpt lat="44.71225018343527" lon="17.1289407993465"><ele>519.25</ele><time>2026-05-04T12:20:02Z</time></trkpt><trkpt lat="44.7123921720525" lon="17.128882597256965"><ele>518.5</ele><time>2026-05-04T12:20:03Z</time></trkpt><trkpt lat="44.712534732165196" lon="17.128811092323417"><ele>517.75</ele><time>2026-05-04T12:20:04Z</time></trkpt><trkpt lat="44.71265079414218" lon="17.12873168495865"><ele>517.0</ele><time>2026-05-04T12:20:05Z</time></trkpt><trkpt lat="44.712767941843545" lon="17.12863137127167"><ele>517.0</ele><time>2026-05-04T12:20:06Z</time></trkpt><trkpt lat="44.712890940415484" lon="17.128510781354553"><ele>517.0</ele><time>2026-05-04T12:20:07Z</time></trkpt><trkpt lat="44.71301472188863" lon="17.128395371834657"><ele>517.0</ele><time>2026-05-04T12:20:08Z</time></trkpt><trkpt lat="44.713130384468855" lon="17.128285422456027"><ele>517.0</ele><time>2026-05-04T12:20:09Z</time></trkpt><trkpt lat="44.713249895528406" lon="17.128194942041905"><ele>517.5</ele><time>2026-05-04T12:20:10Z</time></trkpt><trkpt lat="44.71337938082879" lon="17.1281262358422"><ele>518.0</ele><time>2026-05-04T12:20:11Z</time></trkpt><trkpt lat="44.713520861478216" lon="17.12811051027844"><ele>518.5</ele><time>2026-05-04T12:20:12Z</time></trkpt><trkpt lat="44.7136818026693" lon="17.128101345494716"><ele>519.0</ele><time>2026-05-04T12:20:13Z</time></trkpt><trkpt lat="44.713846323500036" lon="17.128099640234083"><ele>514.3333333333334</ele><time>2026-05-04T12:20:14Z</time></trkpt><trkpt lat="44.71401410843688" lon="17.12809654178488"><ele>509.6666666666667</ele><time>2026-05-04T12:20:15Z</time></trkpt><trkpt lat="44.71418884555275" lon="17.12809324535843"><ele>505.0</ele><time>2026-05-04T12:20:16Z</time></trkpt><trkpt lat="44.71436538338433" lon="17.128094284804327"><ele>507.6666666666667</ele><time>2026-05-04T12:20:17Z</time></trkpt><trkpt lat="44.71454266720859" lon="17.128087232847427"><ele>510.33333333333337</ele><time>2026-05-04T12:20:18Z</time></trkpt><trkpt lat="44.71470978982391" lon="17.128056445354897"><ele>513.0</ele><time>2026-05-04T12:20:19Z</time></trkpt><trkpt lat="44.714859817305395" lon="17.12799712434796"><ele>513.0</ele><time>2026-05-04T12:20:20Z</time></trkpt><trkpt lat="44.71500118616968" lon="17.127897910413914"><ele>513.0</ele><time>2026-05-04T12:20:21Z</time></trkpt><trkpt lat="44.715127539839294" lon="17.12777499775204"><ele>513.0</ele><time>2026-05-04T12:20:22Z</time></trkpt><trkpt lat="44.71523696886421" lon="17.12763664682433"><ele>515.75</ele><time>2026-05-04T12:20:23Z</time></trkpt><trkpt lat="44.715336678529475" lon="17.127498655402253"><ele>518.5</ele><time>2026-05-04T12:20:24Z</time></trkpt><trkpt lat="44.71543650776009" lon="17.127393941610666"><ele>521.25</ele><time>2026-05-04T12:20:25Z</time></trkpt><trkpt lat="44.715535235205955" lon="17.127330315164564"><ele>524.0</ele><time>2026-05-04T12:20:26Z</time></trkpt><trkpt lat="44.715631959854875" lon="17.12731541071671"><ele>524.0</ele><time>2026-05-04T12:20:27Z</time></trkpt><trkpt lat="44.715728429357" lon="17.127335241535633"><ele>524.0</ele><time>2026-05-04T12:20:28Z</time></trkpt><trkpt lat="44.71583529168833" lon="17.12733202707522"><ele>524.0</ele><time>2026-05-04T12:20:29Z</time></trkpt><trkpt lat="44.71595311021345" lon="17.12726390561457"><ele>524.0</ele><time>2026-05-04T12:20:30Z</time></trkpt><trkpt lat="44.71607314952917" lon="17.127143509440202"><ele>527.6666666666666</ele><time>2026-05-04T12:20:31Z</time></trkpt><trkpt lat="44.716185757963736" lon="17.12699901268613"><ele>531.3333333333334</ele><time>2026-05-04T12:20:32Z</time></trkpt><trkpt lat="44.71627978142363" lon="17.126815540589458"><ele>535.0</ele><time>2026-05-04T12:20:33Z</time></trkpt><trkpt lat="44.71635016486508" lon="17.126615495657187"><ele>535.0</ele><time>2026-05-04T12:20:34Z</time></trkpt><trkpt lat="44.71638318684797" lon="17.12641217603683"><ele>535.0</ele><time>2026-05-04T12:20:35Z</time></trkpt><trkpt lat="44.71638540278221" lon="17.126190197747935"><ele>535.0</ele><time>2026-05-04T12:20:36Z</time></trkpt><trkpt lat="44.71637687819577" lon="17.125972848938964"><ele>535.0</ele><time>2026-05-04T12:20:37Z</time></trkpt><trkpt lat="44.71636719206928" lon="17.125747299071627"><ele>535.0</ele><time>2026-05-04T12:20:38Z</time></trkpt><trkpt lat="44.71635595149985" lon="17.125519974081026"><ele>535.0</ele><time>2026-05-04T12:20:39Z</time></trkpt><trkpt lat="44.71635373956881" lon="17.12529714273771"><ele>534.6666666666667</ele><time>2026-05-04T12:20:40Z</time></trkpt><trkpt lat="44.71634486123957" lon="17.125076878755035"><ele>534.3333333333334</ele><time>2026-05-04T12:20:41Z</time></trkpt><trkpt lat="44.71634008503968" lon="17.12485538519967"><ele>534.0</ele><time>2026-05-04T12:20:42Z</time></trkpt><trkpt lat="44.71639023865445" lon="17.1246178801999"><ele>533.6666666666666</ele><time>2026-05-04T12:20:43Z</time></trkpt><trkpt lat="44.716390046327795" lon="17.124380989974885"><ele>533.3333333333333</ele><time>2026-05-04T12:20:44Z</time></trkpt><trkpt lat="44.71633360474882" lon="17.12412080613355"><ele>533.0</ele><time>2026-05-04T12:20:45Z</time></trkpt><trkpt lat="44.71627551250185" lon="17.123872235073588"><ele>533.0</ele><time>2026-05-04T12:20:46Z</time></trkpt><trkpt lat="44.716208401985604" lon="17.123656832829617"><ele>533.0</ele><time>2026-05-04T12:20:47Z</time></trkpt><trkpt lat="44.71613488020843" lon="17.123446590410058"><ele>533.0</ele><time>2026-05-04T12:20:48Z</time></trkpt><trkpt lat="44.71609443504064" lon="17.12321528194273"><ele>533.6666666666666</ele><time>2026-05-04T12:20:49Z</time></trkpt><trkpt lat="44.71606029527857" lon="17.12298097953756"><ele>534.3333333333334</ele><time>2026-05-04T12:20:50Z</time></trkpt><trkpt lat="44.716049737380075" lon="17.122751879145458"><ele>535.0</ele><time>2026-05-04T12:20:51Z</time></trkpt><trkpt lat="44.71603492623387" lon="17.122515647633094"><ele>535.0</ele><time>2026-05-04T12:20:52Z</time></trkpt><trkpt lat="44.71601485168801" lon="17.122288123570133"><ele>535.0</ele><time>2026-05-04T12:20:53Z</time></trkpt><trkpt lat="44.715991053465686" lon="17.122068399675722"><ele>535.0</ele><time>2026-05-04T12:20:54Z</time></trkpt><trkpt lat="44.71598637185075" lon="17.121863725028"><ele>535.0</ele><time>2026-05-04T12:20:55Z</time></trkpt><trkpt lat="44.71598354431258" lon="17.121681239057153"><ele>535.0</ele><time>2026-05-04T12:20:56Z</time></trkpt><trkpt lat="44.7159829877317" lon="17.121522800233926"><ele>535.0</ele><time>2026-05-04T12:20:57Z</time></trkpt><trkpt lat="44.71606410214029" lon="17.12144850032039"><ele>535.0</ele><time>2026-05-04T12:20:58Z</time></trkpt><trkpt lat="44.716146045512666" lon="17.121323012278218"><ele>535.0</ele><time>2026-05-04T12:20:59Z</time></trkpt><trkpt lat="44.71626063972841" lon="17.121217798273932"><ele>535.0</ele><time>2026-05-04T12:21:00Z</time></trkpt><trkpt lat="44.716371463114726" lon="17.121082915521818"><ele>535.0</ele><time>2026-05-04T12:21:01Z</time></trkpt><trkpt lat="44.71648593068115" lon="17.120962228530257"><ele>535.0</ele><time>2026-05-04T12:21:02Z</time></trkpt><trkpt lat="44.71660175864568" lon="17.12086267340839"><ele>535.0</ele><time>2026-05-04T12:21:03Z</time></trkpt><trkpt lat="44.71670760644964" lon="17.12074926118075"><ele>535.0</ele><time>2026-05-04T12:21:04Z</time></trkpt><trkpt lat="44.71677645173614" lon="17.1205790743582"><ele>535.0</ele><time>2026-05-04T12:21:05Z</time></trkpt><trkpt lat="44.716852566415824" lon="17.120444817553402"><ele>535.0</ele><time>2026-05-04T12:21:06Z</time></trkpt><trkpt lat="44.716914160154644" lon="17.1203346847272"><ele>534.8</ele><time>2026-05-04T12:21:07Z</time></trkpt><trkpt lat="44.71696765532139" lon="17.12025555072676"><ele>534.6</ele><time>2026-05-04T12:21:08Z</time></trkpt><trkpt lat="44.71701992561694" lon="17.12012535496975"><ele>534.4</ele><time>2026-05-04T12:21:10Z</time></trkpt><trkpt lat="44.717057942977995" lon="17.120005380797327"><ele>534.2</ele><time>2026-05-04T12:21:19Z</time></trkpt><trkpt lat="44.71691851823253" lon="17.11991137346135"><ele>534.0</ele><time>2026-05-04T12:21:21Z</time></trkpt><trkpt lat="44.716812274495666" lon="17.11993850665635"><ele>534.0</ele><time>2026-05-04T12:21:22Z</time></trkpt><trkpt lat="44.71669082603905" lon="17.119935770411374"><ele>534.0</ele><time>2026-05-04T12:21:23Z</time></trkpt><trkpt lat="44.71656532449331" lon="17.119924422118075"><ele>534.0</ele><time>2026-05-04T12:21:24Z</time></trkpt><trkpt lat="44.716425220417285" lon="17.11991013527231"><ele>534.0</ele><time>2026-05-04T12:21:25Z</time></trkpt><trkpt lat="44.71626940365369" lon="17.1199038620849"><ele>532.0</ele><time>2026-05-04T12:21:26Z</time></trkpt><trkpt lat="44.716100937574026" lon="17.119894877917694"><ele>530.0</ele><time>2026-05-04T12:21:27Z</time></trkpt><trkpt lat="44.71592863289893" lon="17.119850635231952"><ele>528.0</ele><time>2026-05-04T12:21:28Z</time></trkpt><trkpt lat="44.715757966544054" lon="17.119812425330988"><ele>528.0</ele><time>2026-05-04T12:21:29Z</time></trkpt><trkpt lat="44.71559683100195" lon="17.119777385757306"><ele>528.0</ele><time>2026-05-04T12:21:30Z</time></trkpt><trkpt lat="44.715436832466374" lon="17.119757256747555"><ele>528.0</ele><time>2026-05-04T12:21:31Z</time></trkpt><trkpt lat="44.715284768424" lon="17.119713284262147"><ele>530.0</ele><time>2026-05-04T12:21:32Z</time></trkpt><trkpt lat="44.71513752496783" lon="17.119666022067452"><ele>532.0</ele><time>2026-05-04T12:21:33Z</time></trkpt><trkpt lat="44.715005483300025" lon="17.11958588966441"><ele>534.0</ele><time>2026-05-04T12:21:34Z</time></trkpt><trkpt lat="44.71486458375706" lon="17.119524287876498"><ele>536.0</ele><time>2026-05-04T12:21:35Z</time></trkpt><trkpt lat="44.71472131974197" lon="17.119479103357946"><ele>536.0</ele><time>2026-05-04T12:21:36Z</time></trkpt><trkpt lat="44.714574914433605" lon="17.119404759719398"><ele>536.0</ele><time>2026-05-04T12:21:37Z</time></trkpt><trkpt lat="44.714431615113035" lon="17.119338843522648"><ele>536.0</ele><time>2026-05-04T12:21:38Z</time></trkpt><trkpt lat="44.71428356824228" lon="17.119270421043318"><ele>534.3333333333333</ele><time>2026-05-04T12:21:39Z</time></trkpt><trkpt lat="44.71413389607036" lon="17.119202168226536"><ele>532.6666666666666</ele><time>2026-05-04T12:21:40Z</time></trkpt><trkpt lat="44.71399133603801" lon="17.119122241449"><ele>531.0</ele><time>2026-05-04T12:21:41Z</time></trkpt><trkpt lat="44.71385743259704" lon="17.11903122632305"><ele>528.75</ele><time>2026-05-04T12:21:42Z</time></trkpt><trkpt lat="44.713730828773166" lon="17.118929555211214"><ele>526.5</ele><time>2026-05-04T12:21:43Z</time></trkpt><trkpt lat="44.71361402250721" lon="17.11883064511746"><ele>524.25</ele><time>2026-05-04T12:21:44Z</time></trkpt><trkpt lat="44.71350041541988" lon="17.11872484454364"><ele>522.0</ele><time>2026-05-04T12:21:45Z</time></trkpt><trkpt lat="44.713390954106714" lon="17.118614263394054"><ele>522.0</ele><time>2026-05-04T12:21:46Z</time></trkpt><trkpt lat="44.71327962405927" lon="17.118491249573662"><ele>522.0</ele><time>2026-05-04T12:21:47Z</time></trkpt><trkpt lat="44.71317003848577" lon="17.118365785029116"><ele>522.0</ele><time>2026-05-04T12:21:48Z</time></trkpt><trkpt lat="44.71305841620363" lon="17.11823151411166"><ele>522.0</ele><time>2026-05-04T12:21:49Z</time></trkpt><trkpt lat="44.7129396130183" lon="17.11809321559677"><ele>522.3333333333334</ele><time>2026-05-04T12:21:50Z</time></trkpt><trkpt lat="44.71282154125716" lon="17.117955995255024"><ele>522.6666666666667</ele><time>2026-05-04T12:21:51Z</time></trkpt><trkpt lat="44.71270040098783" lon="17.117820097758923"><ele>523.0</ele><time>2026-05-04T12:21:52Z</time></trkpt><trkpt lat="44.712576598351696" lon="17.117680356725376"><ele>523.0</ele><time>2026-05-04T12:21:53Z</time></trkpt><trkpt lat="44.712455941819755" lon="17.117539779701453"><ele>523.0</ele><time>2026-05-04T12:21:54Z</time></trkpt><trkpt lat="44.71233933112966" lon="17.117392530820116"><ele>523.0</ele><time>2026-05-04T12:21:55Z</time></trkpt><trkpt lat="44.712220024243905" lon="17.117230118418178"><ele>520.6666666666667</ele><time>2026-05-04T12:21:56Z</time></trkpt><trkpt lat="44.71210890874726" lon="17.11705354210059"><ele>518.3333333333334</ele><time>2026-05-04T12:21:57Z</time></trkpt><trkpt lat="44.7120181786259" lon="17.116886225239934"><ele>516.0</ele><time>2026-05-04T12:21:58Z</time></trkpt><trkpt lat="44.71197972929749" lon="17.11666455027127"><ele>515.6666666666666</ele><time>2026-05-04T12:21:59Z</time></trkpt><trkpt lat="44.711967461189424" lon="17.116445524410842"><ele>515.3333333333333</ele><time>2026-05-04T12:22:00Z</time></trkpt><trkpt lat="44.71197780495371" lon="17.116226170356533"><ele>515.0</ele><time>2026-05-04T12:22:01Z</time></trkpt><trkpt lat="44.71201027143671" lon="17.1160081604491"><ele>515.0</ele><time>2026-05-04T12:22:02Z</time></trkpt><trkpt lat="44.712074681346856" lon="17.11579634252333"><ele>515.0</ele><time>2026-05-04T12:22:03Z</time></trkpt><trkpt lat="44.71216549396198" lon="17.115596266190686"><ele>515.0</ele><time>2026-05-04T12:22:04Z</time></trkpt><trkpt lat="44.71228189751221" lon="17.115429836377135"><ele>514.3333333333333</ele><time>2026-05-04T12:22:05Z</time></trkpt><trkpt lat="44.71242581762997" lon="17.11528067397881"><ele>513.6666666666666</ele><time>2026-05-04T12:22:06Z</time></trkpt><trkpt lat="44.712585717975124" lon="17.115159926470845"><ele>513.0</ele><time>2026-05-04T12:22:07Z</time></trkpt><trkpt lat="44.712762394548434" lon="17.115069458303267"><ele>513.0</ele><time>2026-05-04T12:22:08Z</time></trkpt><trkpt lat="44.71295045167614" lon="17.115008848677434"><ele>513.0</ele><time>2026-05-04T12:22:09Z</time></trkpt><trkpt lat="44.71313733342665" lon="17.114938044648706"><ele>513.0</ele><time>2026-05-04T12:22:10Z</time></trkpt><trkpt lat="44.713319044685264" lon="17.114838583640356"><ele>514.0</ele><time>2026-05-04T12:22:11Z</time></trkpt><trkpt lat="44.71349346696483" lon="17.114700705473968"><ele>515.0</ele><time>2026-05-04T12:22:12Z</time></trkpt><trkpt lat="44.7136413581435" lon="17.114509740258615"><ele>516.0</ele><time>2026-05-04T12:22:13Z</time></trkpt><trkpt lat="44.71375436384972" lon="17.11427918151103"><ele>512.0</ele><time>2026-05-04T12:22:14Z</time></trkpt><trkpt lat="44.71383640836148" lon="17.114017318641917"><ele>508.0</ele><time>2026-05-04T12:22:15Z</time></trkpt><trkpt lat="44.71388431466144" lon="17.113739149181086"><ele>504.0</ele><time>2026-05-04T12:22:16Z</time></trkpt><trkpt lat="44.71388827964028" lon="17.113456003525016"><ele>500.66666666666663</ele><time>2026-05-04T12:22:17Z</time></trkpt><trkpt lat="44.7138487679537" lon="17.113174227675874"><ele>497.3333333333333</ele><time>2026-05-04T12:22:18Z</time></trkpt><trkpt lat="44.71377120449429" lon="17.11291225163717"><ele>494.0</ele><time>2026-05-04T12:22:19Z</time></trkpt><trkpt lat="44.713681584169535" lon="17.112643504482865"><ele>494.3333333333333</ele><time>2026-05-04T12:22:20Z</time></trkpt><trkpt lat="44.71359784153993" lon="17.112357488292492"><ele>494.66666666666663</ele><time>2026-05-04T12:22:21Z</time></trkpt><trkpt lat="44.71353580247041" lon="17.112046667405394"><ele>495.0</ele><time>2026-05-04T12:22:22Z</time></trkpt><trkpt lat="44.713501211394636" lon="17.111697696888193"><ele>494.0</ele><time>2026-05-04T12:22:23Z</time></trkpt><trkpt lat="44.713486307458176" lon="17.111333008731748"><ele>493.0</ele><time>2026-05-04T12:22:24Z</time></trkpt><trkpt lat="44.71346136161228" lon="17.110967704267466"><ele>499.0</ele><time>2026-05-04T12:22:25Z</time></trkpt><trkpt lat="44.71342736671427" lon="17.11061481558007"><ele>505.0</ele><time>2026-05-04T12:22:26Z</time></trkpt><trkpt lat="44.713366504178815" lon="17.110271968705366"><ele>505.0</ele><time>2026-05-04T12:22:27Z</time></trkpt><trkpt lat="44.71327879862098" lon="17.109940560749184"><ele>505.0</ele><time>2026-05-04T12:22:28Z</time></trkpt><trkpt lat="44.71317318466941" lon="17.109607950893146"><ele>508.0</ele><time>2026-05-04T12:22:29Z</time></trkpt><trkpt lat="44.713071377876986" lon="17.109285411672943"><ele>511.0</ele><time>2026-05-04T12:22:30Z</time></trkpt><trkpt lat="44.71298113351838" lon="17.108966764447636"><ele>512.0</ele><time>2026-05-04T12:22:31Z</time></trkpt><trkpt lat="44.71289598114542" lon="17.10866493277334"><ele>513.0</ele><time>2026-05-04T12:22:32Z</time></trkpt><trkpt lat="44.71281827338415" lon="17.10836966184321"><ele>513.3333333333334</ele><time>2026-05-04T12:22:33Z</time></trkpt><trkpt lat="44.7127532019294" lon="17.10808439393477"><ele>513.6666666666667</ele><time>2026-05-04T12:22:34Z</time></trkpt><trkpt lat="44.71272291143354" lon="17.107794130899496"><ele>514.0</ele><time>2026-05-04T12:22:35Z</time></trkpt><trkpt lat="44.71273006773552" lon="17.10750779072702"><ele>510.33333333333337</ele><time>2026-05-04T12:22:36Z</time></trkpt><trkpt lat="44.7127810987451" lon="17.107249163639946"><ele>506.66666666666663</ele><time>2026-05-04T12:22:37Z</time></trkpt><trkpt lat="44.712863330998054" lon="17.107022282840187"><ele>503.0</ele><time>2026-05-04T12:22:38Z</time></trkpt><trkpt lat="44.712971717846585" lon="17.106810025739748"><ele>503.0</ele><time>2026-05-04T12:22:39Z</time></trkpt><trkpt lat="44.7131056799315" lon="17.106623463921263"><ele>503.0</ele><time>2026-05-04T12:22:40Z</time></trkpt><trkpt lat="44.71326828642841" lon="17.106470941984814"><ele>503.0</ele><time>2026-05-04T12:22:41Z</time></trkpt><trkpt lat="44.71344213327888" lon="17.106354134563784"><ele>498.0</ele><time>2026-05-04T12:22:42Z</time></trkpt><trkpt lat="44.713623752170456" lon="17.106292014173015"><ele>493.0</ele><time>2026-05-04T12:22:43Z</time></trkpt><trkpt lat="44.71381396173972" lon="17.10628882421428"><ele>488.0</ele><time>2026-05-04T12:22:44Z</time></trkpt><trkpt lat="44.71400521307684" lon="17.10629419181474"><ele>488.0</ele><time>2026-05-04T12:22:45Z</time></trkpt><trkpt lat="44.714186026306706" lon="17.10626570703098"><ele>488.0</ele><time>2026-05-04T12:22:46Z</time></trkpt><trkpt lat="44.71435321037314" lon="17.106201467678993"><ele>488.0</ele><time>2026-05-04T12:22:47Z</time></trkpt><trkpt lat="44.714500054296096" lon="17.10610509019446"><ele>488.75</ele><time>2026-05-04T12:22:48Z</time></trkpt><trkpt lat="44.71461481484355" lon="17.105969861261684"><ele>489.5</ele><time>2026-05-04T12:22:49Z</time></trkpt><trkpt lat="44.71470416022615" lon="17.10580864533746"><ele>490.25</ele><time>2026-05-04T12:22:50Z</time></trkpt><trkpt lat="44.71477382602077" lon="17.10561962160917"><ele>491.0</ele><time>2026-05-04T12:22:51Z</time></trkpt><trkpt lat="44.71482007191504" lon="17.105415522323987"><ele>491.3333333333333</ele><time>2026-05-04T12:22:52Z</time></trkpt><trkpt lat="44.714816334287846" lon="17.10519169952585"><ele>491.66666666666663</ele><time>2026-05-04T12:22:53Z</time></trkpt><trkpt lat="44.71478382542218" lon="17.10497725245445"><ele>492.0</ele><time>2026-05-04T12:22:54Z</time></trkpt><trkpt lat="44.71471931016062" lon="17.10476955313813"><ele>491.0</ele><time>2026-05-04T12:22:55Z</time></trkpt><trkpt lat="44.714633566411194" lon="17.10457056457392"><ele>490.0</ele><time>2026-05-04T12:22:56Z</time></trkpt><trkpt lat="44.714508236867644" lon="17.104398311778922"><ele>489.0</ele><time>2026-05-04T12:22:57Z</time></trkpt><trkpt lat="44.714350983985085" lon="17.104248139423362"><ele>489.0</ele><time>2026-05-04T12:22:58Z</time></trkpt><trkpt lat="44.71418092602631" lon="17.104107596326624"><ele>489.0</ele><time>2026-05-04T12:22:59Z</time></trkpt><trkpt lat="44.714011321738546" lon="17.10397307850559"><ele>489.0</ele><time>2026-05-04T12:23:00Z</time></trkpt><trkpt lat="44.713835406812606" lon="17.103844304145888"><ele>488.0</ele><time>2026-05-04T12:23:01Z</time></trkpt><trkpt lat="44.71365222314738" lon="17.10372336334824"><ele>487.0</ele><time>2026-05-04T12:23:02Z</time></trkpt><trkpt lat="44.71346955796023" lon="17.10361650222448"><ele>486.0</ele><time>2026-05-04T12:23:03Z</time></trkpt><trkpt lat="44.71329577462178" lon="17.10351708598667"><ele>486.66666666666663</ele><time>2026-05-04T12:23:04Z</time></trkpt><trkpt lat="44.71313103240064" lon="17.103416095283094"><ele>487.3333333333333</ele><time>2026-05-04T12:23:05Z</time></trkpt><trkpt lat="44.71296990856284" lon="17.10331533634918"><ele>488.0</ele><time>2026-05-04T12:23:06Z</time></trkpt><trkpt lat="44.712806637988855" lon="17.10322218850125"><ele>487.66666666666663</ele><time>2026-05-04T12:23:07Z</time></trkpt><trkpt lat="44.71264257168656" lon="17.10314324113869"><ele>487.33333333333337</ele><time>2026-05-04T12:23:08Z</time></trkpt><trkpt lat="44.71246075484836" lon="17.10306235724593"><ele>487.0</ele><time>2026-05-04T12:23:09Z</time></trkpt><trkpt lat="44.71226672974481" lon="17.102982807696055"><ele>487.0</ele><time>2026-05-04T12:23:10Z</time></trkpt><trkpt lat="44.71206321067207" lon="17.10290103084494"><ele>487.0</ele><time>2026-05-04T12:23:11Z</time></trkpt><trkpt lat="44.711861306865764" lon="17.10281436709216"><ele>487.0</ele><time>2026-05-04T12:23:12Z</time></trkpt><trkpt lat="44.71165990101751" lon="17.102718435061306"><ele>486.6666666666667</ele><time>2026-05-04T12:23:13Z</time></trkpt><trkpt lat="44.71146789882229" lon="17.102628194562314"><ele>486.33333333333337</ele><time>2026-05-04T12:23:14Z</time></trkpt><trkpt lat="44.71126990843592" lon="17.10252569990975"><ele>486.0</ele><time>2026-05-04T12:23:15Z</time></trkpt><trkpt lat="44.71108556783874" lon="17.102410298813215"><ele>484.66666666666663</ele><time>2026-05-04T12:23:16Z</time></trkpt><trkpt lat="44.71091436894291" lon="17.10226809775932"><ele>483.3333333333333</ele><time>2026-05-04T12:23:17Z</time></trkpt><trkpt lat="44.710760226539506" lon="17.102098424268085"><ele>482.0</ele><time>2026-05-04T12:23:18Z</time></trkpt><trkpt lat="44.71062300744619" lon="17.101907784561256"><ele>482.0</ele><time>2026-05-04T12:23:19Z</time></trkpt><trkpt lat="44.71050311098338" lon="17.101706596557552"><ele>482.0</ele><time>2026-05-04T12:23:20Z</time></trkpt><trkpt lat="44.71038536758542" lon="17.101490391935254"><ele>482.0</ele><time>2026-05-04T12:23:21Z</time></trkpt><trkpt lat="44.7102736121802" lon="17.101280734762653"><ele>484.0</ele><time>2026-05-04T12:23:22Z</time></trkpt><trkpt lat="44.71015648813434" lon="17.101083598264324"><ele>486.0</ele><time>2026-05-04T12:23:23Z</time></trkpt><trkpt lat="44.710032964682746" lon="17.100894917756573"><ele>488.0</ele><time>2026-05-04T12:23:24Z</time></trkpt><trkpt lat="44.70989955193987" lon="17.100713054046835"><ele>488.0</ele><time>2026-05-04T12:23:25Z</time></trkpt><trkpt lat="44.709764478358565" lon="17.100543758180496"><ele>488.0</ele><time>2026-05-04T12:23:26Z</time></trkpt><trkpt lat="44.70961619491781" lon="17.100390366821042"><ele>488.0</ele><time>2026-05-04T12:23:27Z</time></trkpt><trkpt lat="44.709456311558476" lon="17.100249086906434"><ele>488.66666666666663</ele><time>2026-05-04T12:23:28Z</time></trkpt><trkpt lat="44.70929176093469" lon="17.10012511678325"><ele>489.33333333333337</ele><time>2026-05-04T12:23:29Z</time></trkpt><trkpt lat="44.70911423641627" lon="17.1000289318295"><ele>490.0</ele><time>2026-05-04T12:23:30Z</time></trkpt><trkpt lat="44.708934770856544" lon="17.099946817879093"><ele>491.33333333333337</ele><time>2026-05-04T12:23:31Z</time></trkpt><trkpt lat="44.70875587949697" lon="17.09987559445144"><ele>492.66666666666663</ele><time>2026-05-04T12:23:32Z</time></trkpt><trkpt lat="44.70857550653764" lon="17.099798158913057"><ele>494.0</ele><time>2026-05-04T12:23:33Z</time></trkpt><trkpt lat="44.70839247830683" lon="17.099721263673487"><ele>494.0</ele><time>2026-05-04T12:23:34Z</time></trkpt><trkpt lat="44.708207448957154" lon="17.09964546892231"><ele>494.0</ele><time>2026-05-04T12:23:35Z</time></trkpt><trkpt lat="44.70802000859549" lon="17.099581056248695"><ele>494.0</ele><time>2026-05-04T12:23:36Z</time></trkpt><trkpt lat="44.707822124357946" lon="17.099548233731618"><ele>496.66666666666663</ele><time>2026-05-04T12:23:37Z</time></trkpt><trkpt lat="44.7076217216631" lon="17.09952347095095"><ele>499.33333333333337</ele><time>2026-05-04T12:23:38Z</time></trkpt><trkpt lat="44.70741975103296" lon="17.099548729589348"><ele>502.0</ele><time>2026-05-04T12:23:39Z</time></trkpt><trkpt lat="44.70722610561701" lon="17.099596999023504"><ele>502.0</ele><time>2026-05-04T12:23:40Z</time></trkpt><trkpt lat="44.70704108582031" lon="17.099641162238516"><ele>502.0</ele><time>2026-05-04T12:23:41Z</time></trkpt><trkpt lat="44.70685791708712" lon="17.099671455744048"><ele>502.0</ele><time>2026-05-04T12:23:42Z</time></trkpt><trkpt lat="44.70669375311701" lon="17.099657845134633"><ele>503.0</ele><time>2026-05-04T12:23:43Z</time></trkpt><trkpt lat="44.70655161766205" lon="17.09957950847861"><ele>504.0</ele><time>2026-05-04T12:23:44Z</time></trkpt><trkpt lat="44.706441977102905" lon="17.099439948602427"><ele>505.0</ele><time>2026-05-04T12:23:45Z</time></trkpt><trkpt lat="44.70635024291402" lon="17.099268963299295"><ele>505.6666666666667</ele><time>2026-05-04T12:23:46Z</time></trkpt><trkpt lat="44.70627164823427" lon="17.099073381565493"><ele>506.33333333333337</ele><time>2026-05-04T12:23:47Z</time></trkpt><trkpt lat="44.706206884921656" lon="17.09884256361647"><ele>507.0</ele><time>2026-05-04T12:23:48Z</time></trkpt><trkpt lat="44.70614825386678" lon="17.098586597667428"><ele>507.0</ele><time>2026-05-04T12:23:49Z</time></trkpt><trkpt lat="44.70609500872949" lon="17.09831168895862"><ele>507.0</ele><time>2026-05-04T12:23:50Z</time></trkpt><trkpt lat="44.706040628254215" lon="17.09804365278549"><ele>507.0</ele><time>2026-05-04T12:23:51Z</time></trkpt><trkpt lat="44.70595497787241" lon="17.097805716955264"><ele>505.33333333333337</ele><time>2026-05-04T12:23:52Z</time></trkpt><trkpt lat="44.705833817163104" lon="17.097596294036524"><ele>503.6666666666667</ele><time>2026-05-04T12:23:53Z</time></trkpt><trkpt lat="44.70570753147639" lon="17.097408689534873"><ele>502.0</ele><time>2026-05-04T12:23:54Z</time></trkpt><trkpt lat="44.705593029815375" lon="17.097231012560876"><ele>502.0</ele><time>2026-05-04T12:23:55Z</time></trkpt><trkpt lat="44.70549667905857" lon="17.097046445538272"><ele>502.0</ele><time>2026-05-04T12:23:56Z</time></trkpt><trkpt lat="44.70543013773977" lon="17.09684487760476"><ele>502.0</ele><time>2026-05-04T12:23:57Z</time></trkpt><trkpt lat="44.70539814553831" lon="17.09662644553675"><ele>501.0</ele><time>2026-05-04T12:23:58Z</time></trkpt><trkpt lat="44.70540179938691" lon="17.09639615723919"><ele>500.0</ele><time>2026-05-04T12:23:59Z</time></trkpt><trkpt lat="44.70544329665871" lon="17.09615968707279"><ele>499.0</ele><time>2026-05-04T12:24:00Z</time></trkpt><trkpt lat="44.705508602986875" lon="17.095934951637172"><ele>499.0</ele><time>2026-05-04T12:24:01Z</time></trkpt><trkpt lat="44.70557014724057" lon="17.09570829759002"><ele>499.0</ele><time>2026-05-04T12:24:02Z</time></trkpt><trkpt lat="44.7056023131973" lon="17.09546416868757"><ele>499.0</ele><time>2026-05-04T12:24:03Z</time></trkpt><trkpt lat="44.70559616679064" lon="17.095211992936022"><ele>499.0</ele><time>2026-05-04T12:24:04Z</time></trkpt><trkpt lat="44.705551294173176" lon="17.094977823718796"><ele>499.0</ele><time>2026-05-04T12:24:05Z</time></trkpt><trkpt lat="44.70546586120789" lon="17.094774053740014"><ele>499.0</ele><time>2026-05-04T12:24:06Z</time></trkpt><trkpt lat="44.70534906260689" lon="17.094617486963074"><ele>497.0</ele><time>2026-05-04T12:24:07Z</time></trkpt><trkpt lat="44.70521198724808" lon="17.09448620602294"><ele>495.0</ele><time>2026-05-04T12:24:08Z</time></trkpt><trkpt lat="44.705067523788635" lon="17.09437148540807"><ele>493.0</ele><time>2026-05-04T12:24:09Z</time></trkpt><trkpt lat="44.70492618545022" lon="17.094259724732325"><ele>493.0</ele><time>2026-05-04T12:24:10Z</time></trkpt><trkpt lat="44.704783519791455" lon="17.09414412527046"><ele>493.0</ele><time>2026-05-04T12:24:11Z</time></trkpt><trkpt lat="44.70464271382854" lon="17.094020534186082"><ele>493.0</ele><time>2026-05-04T12:24:12Z</time></trkpt><trkpt lat="44.70449953451333" lon="17.09390295407936"><ele>488.6666666666667</ele><time>2026-05-04T12:24:13Z</time></trkpt><trkpt lat="44.70435020941356" lon="17.09379614261744"><ele>484.33333333333337</ele><time>2026-05-04T12:24:14Z</time></trkpt><trkpt lat="44.70419554862724" lon="17.093695320751213"><ele>480.0</ele><time>2026-05-04T12:24:15Z</time></trkpt><trkpt lat="44.70403794751015" lon="17.093607615382957"><ele>480.0</ele><time>2026-05-04T12:24:16Z</time></trkpt><trkpt lat="44.703869167698" lon="17.093536534925253"><ele>480.0</ele><time>2026-05-04T12:24:17Z</time></trkpt><trkpt lat="44.7036894360606" lon="17.093483314567017"><ele>480.0</ele><time>2026-05-04T12:24:18Z</time></trkpt><trkpt lat="44.70350532773672" lon="17.093443752936636"><ele>480.33333333333337</ele><time>2026-05-04T12:24:19Z</time></trkpt><trkpt lat="44.70331192662055" lon="17.093407255009073"><ele>480.6666666666667</ele><time>2026-05-04T12:24:20Z</time></trkpt><trkpt lat="44.70310958010683" lon="17.09337254676454"><ele>481.0</ele><time>2026-05-04T12:24:21Z</time></trkpt><trkpt lat="44.70290144959015" lon="17.093335367926457"><ele>481.6666666666667</ele><time>2026-05-04T12:24:22Z</time></trkpt><trkpt lat="44.702705327340524" lon="17.093295322542822"><ele>482.33333333333337</ele><time>2026-05-04T12:24:23Z</time></trkpt><trkpt lat="44.70252235507804" lon="17.093257210883326"><ele>483.0</ele><time>2026-05-04T12:24:24Z</time></trkpt><trkpt lat="44.70234477107917" lon="17.093222179125114"><ele>483.0</ele><time>2026-05-04T12:24:25Z</time></trkpt><trkpt lat="44.702165616674336" lon="17.093187792910477"><ele>483.0</ele><time>2026-05-04T12:24:26Z</time></trkpt><trkpt lat="44.70198484043635" lon="17.09315596821038"><ele>483.0</ele><time>2026-05-04T12:24:27Z</time></trkpt><trkpt lat="44.701806591415384" lon="17.093136652146264"><ele>483.0</ele><time>2026-05-04T12:24:28Z</time></trkpt><trkpt lat="44.70162106025571" lon="17.09314670268955"><ele>483.0</ele><time>2026-05-04T12:24:29Z</time></trkpt><trkpt lat="44.701429651710214" lon="17.09320407982769"><ele>483.0</ele><time>2026-05-04T12:24:30Z</time></trkpt><trkpt lat="44.701239564932" lon="17.093298501490246"><ele>487.66666666666663</ele><time>2026-05-04T12:24:31Z</time></trkpt><trkpt lat="44.701070864861" lon="17.093423671082085"><ele>492.3333333333333</ele><time>2026-05-04T12:24:32Z</time></trkpt><trkpt lat="44.700913729415696" lon="17.093570729017245"><ele>497.0</ele><time>2026-05-04T12:24:33Z</time></trkpt><trkpt lat="44.70075656359876" lon="17.093719501952922"><ele>497.0</ele><time>2026-05-04T12:24:34Z</time></trkpt><trkpt lat="44.700587618410175" lon="17.093847897603837"><ele>497.0</ele><time>2026-05-04T12:24:35Z</time></trkpt><trkpt lat="44.700410944914175" lon="17.09392367660809"><ele>497.0</ele><time>2026-05-04T12:24:36Z</time></trkpt><trkpt lat="44.700229615721575" lon="17.093945354359008"><ele>499.0</ele><time>2026-05-04T12:24:37Z</time></trkpt><trkpt lat="44.700050658955945" lon="17.093921202129373"><ele>501.0</ele><time>2026-05-04T12:24:38Z</time></trkpt><trkpt lat="44.69987562982096" lon="17.093865521181208"><ele>503.0</ele><time>2026-05-04T12:24:39Z</time></trkpt><trkpt lat="44.69971055678981" lon="17.09377337900651"><ele>503.0</ele><time>2026-05-04T12:24:40Z</time></trkpt><trkpt lat="44.699554514015816" lon="17.09364757597392"><ele>503.0</ele><time>2026-05-04T12:24:41Z</time></trkpt><trkpt lat="44.69942177521636" lon="17.093486932517237"><ele>503.0</ele><time>2026-05-04T12:24:42Z</time></trkpt><trkpt lat="44.699303920245804" lon="17.093303674185922"><ele>501.66666666666663</ele><time>2026-05-04T12:24:43Z</time></trkpt><trkpt lat="44.699186908904466" lon="17.093111155852675"><ele>500.33333333333337</ele><time>2026-05-04T12:24:44Z</time></trkpt><trkpt lat="44.699064073003214" lon="17.092925150262793"><ele>499.0</ele><time>2026-05-04T12:24:45Z</time></trkpt><trkpt lat="44.69891746167998" lon="17.09277824044625"><ele>499.0</ele><time>2026-05-04T12:24:46Z</time></trkpt><trkpt lat="44.698750108054575" lon="17.09265842297483"><ele>499.0</ele><time>2026-05-04T12:24:47Z</time></trkpt><trkpt lat="44.698573476142734" lon="17.092555656058387"><ele>499.0</ele><time>2026-05-04T12:24:48Z</time></trkpt><trkpt lat="44.698398553799706" lon="17.092463211697705"><ele>497.33333333333337</ele><time>2026-05-04T12:24:49Z</time></trkpt><trkpt lat="44.698218375387654" lon="17.09237991051921"><ele>495.66666666666663</ele><time>2026-05-04T12:24:50Z</time></trkpt><trkpt lat="44.698039369232404" lon="17.09229807168075"><ele>494.0</ele><time>2026-05-04T12:24:51Z</time></trkpt><trkpt lat="44.69786260338876" lon="17.09222207718478"><ele>494.0</ele><time>2026-05-04T12:24:52Z</time></trkpt><trkpt lat="44.69768265532686" lon="17.092144456432003"><ele>494.0</ele><time>2026-05-04T12:24:53Z</time></trkpt><trkpt lat="44.69750542204477" lon="17.092066604426808"><ele>494.0</ele><time>2026-05-04T12:24:54Z</time></trkpt><trkpt lat="44.697327264573296" lon="17.091992377502006"><ele>494.0</ele><time>2026-05-04T12:24:55Z</time></trkpt><trkpt lat="44.69714395741068" lon="17.09191547140573"><ele>494.0</ele><time>2026-05-04T12:24:56Z</time></trkpt><trkpt lat="44.696962168655844" lon="17.09184815879165"><ele>494.0</ele><time>2026-05-04T12:24:57Z</time></trkpt><trkpt lat="44.696775627545165" lon="17.091789445033548"><ele>494.0</ele><time>2026-05-04T12:24:58Z</time></trkpt><trkpt lat="44.69658990838038" lon="17.091707688339095"><ele>494.0</ele><time>2026-05-04T12:24:59Z</time></trkpt><trkpt lat="44.69641827076291" lon="17.091586653702628"><ele>494.0</ele><time>2026-05-04T12:25:00Z</time></trkpt><trkpt lat="44.69625735104016" lon="17.091424151167924"><ele>492.0</ele><time>2026-05-04T12:25:01Z</time></trkpt><trkpt lat="44.6961123171057" lon="17.091237529661026"><ele>490.0</ele><time>2026-05-04T12:25:02Z</time></trkpt><trkpt lat="44.69598528592071" lon="17.091017019141795"><ele>488.0</ele><time>2026-05-04T12:25:03Z</time></trkpt><trkpt lat="44.69589327312944" lon="17.09077262216144"><ele>487.3333333333333</ele><time>2026-05-04T12:25:04Z</time></trkpt><trkpt lat="44.695839314761486" lon="17.090509500825416"><ele>486.66666666666663</ele><time>2026-05-04T12:25:05Z</time></trkpt><trkpt lat="44.695823138169466" lon="17.09024090433812"><ele>486.0</ele><time>2026-05-04T12:25:06Z</time></trkpt><trkpt lat="44.69585293898196" lon="17.089975130338587"><ele>486.33333333333337</ele><time>2026-05-04T12:25:07Z</time></trkpt><trkpt lat="44.69590584009797" lon="17.089713102976646"><ele>486.6666666666667</ele><time>2026-05-04T12:25:08Z</time></trkpt><trkpt lat="44.69594764246442" lon="17.08945180661712"><ele>487.0</ele><time>2026-05-04T12:25:09Z</time></trkpt><trkpt lat="44.695975020540416" lon="17.089193257536145"><ele>487.0</ele><time>2026-05-04T12:25:10Z</time></trkpt><trkpt lat="44.69598738046993" lon="17.08893380020887"><ele>487.0</ele><time>2026-05-04T12:25:11Z</time></trkpt><trkpt lat="44.69598705200201" lon="17.08866738879934"><ele>487.0</ele><time>2026-05-04T12:25:12Z</time></trkpt><trkpt lat="44.695959686926706" lon="17.0884108251148"><ele>488.33333333333337</ele><time>2026-05-04T12:25:13Z</time></trkpt><trkpt lat="44.69589496813783" lon="17.088176441744906"><ele>489.66666666666663</ele><time>2026-05-04T12:25:14Z</time></trkpt><trkpt lat="44.69578424286394" lon="17.087981818893677"><ele>491.0</ele><time>2026-05-04T12:25:15Z</time></trkpt><trkpt lat="44.695656630627084" lon="17.087819539402897"><ele>491.0</ele><time>2026-05-04T12:25:16Z</time></trkpt><trkpt lat="44.695526607981655" lon="17.087663195133874"><ele>491.0</ele><time>2026-05-04T12:25:17Z</time></trkpt><trkpt lat="44.69540085325045" lon="17.08750320227225"><ele>491.0</ele><time>2026-05-04T12:25:18Z</time></trkpt><trkpt lat="44.695279701826536" lon="17.0873532510774"><ele>491.5</ele><time>2026-05-04T12:25:19Z</time></trkpt><trkpt lat="44.69515513765054" lon="17.08721805934858"><ele>492.0</ele><time>2026-05-04T12:25:20Z</time></trkpt><trkpt lat="44.695027900329784" lon="17.087129291848086"><ele>492.5</ele><time>2026-05-04T12:25:21Z</time></trkpt><trkpt lat="44.694924348752096" lon="17.087073514075545"><ele>493.0</ele><time>2026-05-04T12:25:22Z</time></trkpt><trkpt lat="44.69485400542002" lon="17.087059221256727"><ele>493.0</ele><time>2026-05-04T12:25:23Z</time></trkpt><trkpt lat="44.69477342645814" lon="17.08698192505606"><ele>492.99999999999994</ele><time>2026-05-04T12:25:25Z</time></trkpt><trkpt lat="44.6947768071531" lon="17.086828391487376"><ele>492.99999999999994</ele><time>2026-05-04T12:25:27Z</time></trkpt><trkpt lat="44.69481615601898" lon="17.086750867942506"><ele>493.0</ele><time>2026-05-04T12:25:28Z</time></trkpt><trkpt lat="44.69486970273683" lon="17.086687666565243"><ele>493.0</ele><time>2026-05-04T12:25:29Z</time></trkpt><trkpt lat="44.69495366662255" lon="17.086578170586005"><ele>492.33333333333337</ele><time>2026-05-04T12:25:31Z</time></trkpt><trkpt lat="44.69499641538922" lon="17.086457985859273"><ele>491.6666666666667</ele><time>2026-05-04T12:25:33Z</time></trkpt><trkpt lat="44.695022608766436" lon="17.086328503321816"><ele>491.0</ele><time>2026-05-04T12:25:35Z</time></trkpt><trkpt lat="44.695060028447585" lon="17.086183940304345"><ele>490.33333333333337</ele><time>2026-05-04T12:25:37Z</time></trkpt><trkpt lat="44.695086680546154" lon="17.086089951727928"><ele>489.6666666666667</ele><time>2026-05-04T12:25:38Z</time></trkpt><trkpt lat="44.69511585003805" lon="17.085991849394457"><ele>489.0</ele><time>2026-05-04T12:25:39Z</time></trkpt><trkpt lat="44.69514862142056" lon="17.085894861923258"><ele>489.0</ele><time>2026-05-04T12:25:40Z</time></trkpt><trkpt lat="44.69518155934114" lon="17.08579275595971"><ele>489.0</ele><time>2026-05-04T12:25:41Z</time></trkpt><trkpt lat="44.6952158203164" lon="17.085679297537013"><ele>489.0</ele><time>2026-05-04T12:25:42Z</time></trkpt><trkpt lat="44.69524972966807" lon="17.085565686104598"><ele>489.0</ele><time>2026-05-04T12:25:43Z</time></trkpt><trkpt lat="44.69528262347906" lon="17.08544557196166"><ele>489.0</ele><time>2026-05-04T12:25:44Z</time></trkpt><trkpt lat="44.69530393508869" lon="17.085329482937723"><ele>489.0</ele><time>2026-05-04T12:25:45Z</time></trkpt><trkpt lat="44.69530050109371" lon="17.085214303831364"><ele>487.6666666666667</ele><time>2026-05-04T12:25:46Z</time></trkpt><trkpt lat="44.695261685098245" lon="17.08511176506062"><ele>486.33333333333337</ele><time>2026-05-04T12:25:47Z</time></trkpt><trkpt lat="44.695205294585" lon="17.085061761780654"><ele>485.0</ele><time>2026-05-04T12:25:48Z</time></trkpt><trkpt lat="44.69511775714271" lon="17.085017135021793"><ele>483.6666666666667</ele><time>2026-05-04T12:25:50Z</time></trkpt><trkpt lat="44.69509295594421" lon="17.084912381814878"><ele>482.33333333333337</ele><time>2026-05-04T12:25:52Z</time></trkpt><trkpt lat="44.69512076139551" lon="17.08483266763556"><ele>481.0</ele><time>2026-05-04T12:25:53Z</time></trkpt><trkpt lat="44.69516309307534" lon="17.08473476215602"><ele>480.5</ele><time>2026-05-04T12:25:54Z</time></trkpt><trkpt lat="44.69521873985594" lon="17.084600671886843"><ele>480.0</ele><time>2026-05-04T12:25:55Z</time></trkpt><trkpt lat="44.695278119318154" lon="17.084446160226367"><ele>479.5</ele><time>2026-05-04T12:25:56Z</time></trkpt><trkpt lat="44.69534501583179" lon="17.084281500662076"><ele>479.0</ele><time>2026-05-04T12:25:57Z</time></trkpt><trkpt lat="44.695408154569186" lon="17.08413827811203"><ele>478.3333333333333</ele><time>2026-05-04T12:25:58Z</time></trkpt><trkpt lat="44.695459298777564" lon="17.084015532149305"><ele>477.66666666666663</ele><time>2026-05-04T12:25:59Z</time></trkpt><trkpt lat="44.69550246683444" lon="17.083914189476985"><ele>477.0</ele><time>2026-05-04T12:26:00Z</time></trkpt><trkpt lat="44.695541561576114" lon="17.083815987395635"><ele>476.33333333333337</ele><time>2026-05-04T12:26:01Z</time></trkpt><trkpt lat="44.69558257192276" lon="17.0837095128874"><ele>475.6666666666667</ele><time>2026-05-04T12:26:02Z</time></trkpt><trkpt lat="44.69562700878442" lon="17.08359187400841"><ele>475.0</ele><time>2026-05-04T12:26:03Z</time></trkpt><trkpt lat="44.69567424106993" lon="17.083467433538"><ele>475.0</ele><time>2026-05-04T12:26:04Z</time></trkpt><trkpt lat="44.69572136753307" lon="17.083330320799643"><ele>475.0</ele><time>2026-05-04T12:26:05Z</time></trkpt><trkpt lat="44.695763262051514" lon="17.08318091423755"><ele>475.0</ele><time>2026-05-04T12:26:06Z</time></trkpt><trkpt lat="44.69579838827024" lon="17.083012470837236"><ele>475.0</ele><time>2026-05-04T12:26:07Z</time></trkpt><trkpt lat="44.695829476360856" lon="17.0828330570534"><ele>474.25</ele><time>2026-05-04T12:26:08Z</time></trkpt><trkpt lat="44.69587227271216" lon="17.08264863417714"><ele>473.5</ele><time>2026-05-04T12:26:09Z</time></trkpt><trkpt lat="44.695927940958974" lon="17.08247322744539"><ele>472.75</ele><time>2026-05-04T12:26:10Z</time></trkpt><trkpt lat="44.69597408981759" lon="17.082303560996998"><ele>472.0</ele><time>2026-05-04T12:26:11Z</time></trkpt><trkpt lat="44.69600822577007" lon="17.082118931784226"><ele>472.0</ele><time>2026-05-04T12:26:12Z</time></trkpt><trkpt lat="44.696028459165206" lon="17.081919625186387"><ele>472.0</ele><time>2026-05-04T12:26:13Z</time></trkpt><trkpt lat="44.69604194911069" lon="17.081705624146"><ele>472.0</ele><time>2026-05-04T12:26:14Z</time></trkpt><trkpt lat="44.696034458514426" lon="17.081483536165088"><ele>472.25</ele><time>2026-05-04T12:26:15Z</time></trkpt><trkpt lat="44.69601534396289" lon="17.081280113543595"><ele>472.5</ele><time>2026-05-04T12:26:16Z</time></trkpt><trkpt lat="44.69601375406984" lon="17.081104389430617"><ele>472.75</ele><time>2026-05-04T12:26:17Z</time></trkpt><trkpt lat="44.69603811511933" lon="17.080951113642417"><ele>473.0</ele><time>2026-05-04T12:26:18Z</time></trkpt><trkpt lat="44.69607842393692" lon="17.08081361354842"><ele>471.75</ele><time>2026-05-04T12:26:19Z</time></trkpt><trkpt lat="44.69612956302785" lon="17.080675680071156"><ele>470.5</ele><time>2026-05-04T12:26:20Z</time></trkpt><trkpt lat="44.69619602255605" lon="17.08053995071993"><ele>469.25</ele><time>2026-05-04T12:26:21Z</time></trkpt><trkpt lat="44.69626946700382" lon="17.080384638539627"><ele>468.0</ele><time>2026-05-04T12:26:22Z</time></trkpt><trkpt lat="44.69634730733017" lon="17.080205101807728"><ele>468.0</ele><time>2026-05-04T12:26:23Z</time></trkpt><trkpt lat="44.696421974876536" lon="17.0800016301673"><ele>468.0</ele><time>2026-05-04T12:26:24Z</time></trkpt><trkpt lat="44.696483827225954" lon="17.07977006798249"><ele>468.0</ele><time>2026-05-04T12:26:25Z</time></trkpt><trkpt lat="44.696551754041664" lon="17.07953861286387"><ele>468.66666666666663</ele><time>2026-05-04T12:26:26Z</time></trkpt><trkpt lat="44.69664045382551" lon="17.079312184849627"><ele>469.3333333333333</ele><time>2026-05-04T12:26:27Z</time></trkpt><trkpt lat="44.69673613417116" lon="17.079110089233275"><ele>470.0</ele><time>2026-05-04T12:26:28Z</time></trkpt><trkpt lat="44.6968434824918" lon="17.078927897289045"><ele>473.3333333333333</ele><time>2026-05-04T12:26:29Z</time></trkpt><trkpt lat="44.69695205520629" lon="17.078764586091204"><ele>476.66666666666663</ele><time>2026-05-04T12:26:30Z</time></trkpt><trkpt lat="44.697061795798355" lon="17.078619736112568"><ele>480.0</ele><time>2026-05-04T12:26:31Z</time></trkpt><trkpt lat="44.69718243774057" lon="17.078502267834462"><ele>480.0</ele><time>2026-05-04T12:26:32Z</time></trkpt><trkpt lat="44.697321645881" lon="17.07843027201231"><ele>480.0</ele><time>2026-05-04T12:26:33Z</time></trkpt><trkpt lat="44.69746634748963" lon="17.078399271819322"><ele>480.0</ele><time>2026-05-04T12:26:34Z</time></trkpt><trkpt lat="44.69761622713539" lon="17.078388336557037"><ele>480.0</ele><time>2026-05-04T12:26:35Z</time></trkpt><trkpt lat="44.69776741024286" lon="17.078375241431594"><ele>479.33333333333337</ele><time>2026-05-04T12:26:36Z</time></trkpt><trkpt lat="44.697918856767934" lon="17.07833179635068"><ele>478.6666666666667</ele><time>2026-05-04T12:26:37Z</time></trkpt><trkpt lat="44.698074106121155" lon="17.07826512855276"><ele>478.0</ele><time>2026-05-04T12:26:38Z</time></trkpt><trkpt lat="44.69822279583707" lon="17.078176336934696"><ele>478.0</ele><time>2026-05-04T12:26:39Z</time></trkpt><trkpt lat="44.698367828368376" lon="17.07806566373189"><ele>478.0</ele><time>2026-05-04T12:26:40Z</time></trkpt><trkpt lat="44.69851181079625" lon="17.077942188904878"><ele>478.0</ele><time>2026-05-04T12:26:41Z</time></trkpt><trkpt lat="44.69866834764812" lon="17.077836276535894"><ele>478.6666666666667</ele><time>2026-05-04T12:26:42Z</time></trkpt><trkpt lat="44.69883621313696" lon="17.077761062260333"><ele>479.33333333333337</ele><time>2026-05-04T12:26:43Z</time></trkpt><trkpt lat="44.69900092720948" lon="17.077703894323804"><ele>480.0</ele><time>2026-05-04T12:26:44Z</time></trkpt><trkpt lat="44.69916744209437" lon="17.077647324925714"><ele>480.0</ele><time>2026-05-04T12:26:45Z</time></trkpt><trkpt lat="44.6993344155042" lon="17.07758398298254"><ele>480.0</ele><time>2026-05-04T12:26:46Z</time></trkpt><trkpt lat="44.69949132671649" lon="17.077511787344065"><ele>480.0</ele><time>2026-05-04T12:26:47Z</time></trkpt><trkpt lat="44.699657768888784" lon="17.07743906982792"><ele>478.0</ele><time>2026-05-04T12:26:48Z</time></trkpt><trkpt lat="44.69982988766224" lon="17.077358194132998"><ele>476.0</ele><time>2026-05-04T12:26:49Z</time></trkpt><trkpt lat="44.70000349236349" lon="17.077260392731176"><ele>474.0</ele><time>2026-05-04T12:26:50Z</time></trkpt><trkpt lat="44.700172328417125" lon="17.077151130321862"><ele>475.0</ele><time>2026-05-04T12:26:51Z</time></trkpt><trkpt lat="44.70033069740374" lon="17.07703009817653"><ele>476.0</ele><time>2026-05-04T12:26:52Z</time></trkpt><trkpt lat="44.70048502901081" lon="17.07690429343137"><ele>477.0</ele><time>2026-05-04T12:26:53Z</time></trkpt><trkpt lat="44.700632661833595" lon="17.076778489384107"><ele>477.0</ele><time>2026-05-04T12:26:54Z</time></trkpt><trkpt lat="44.70077974188842" lon="17.076649505899102"><ele>477.0</ele><time>2026-05-04T12:26:55Z</time></trkpt><trkpt lat="44.70092190223692" lon="17.076521537112978"><ele>477.0</ele><time>2026-05-04T12:26:56Z</time></trkpt><trkpt lat="44.70104828320184" lon="17.076383862102393"><ele>477.0</ele><time>2026-05-04T12:26:57Z</time></trkpt><trkpt lat="44.70115111420141" lon="17.07621791821866"><ele>477.0</ele><time>2026-05-04T12:26:58Z</time></trkpt><trkpt lat="44.70122935927234" lon="17.0760219841366"><ele>477.0</ele><time>2026-05-04T12:26:59Z</time></trkpt><trkpt lat="44.70128494770596" lon="17.075810356161572"><ele>478.0</ele><time>2026-05-04T12:27:00Z</time></trkpt><trkpt lat="44.701313203443576" lon="17.07558787591009"><ele>479.0</ele><time>2026-05-04T12:27:01Z</time></trkpt><trkpt lat="44.70131483232599" lon="17.0753572861354"><ele>480.0</ele><time>2026-05-04T12:27:02Z</time></trkpt><trkpt lat="44.701271260897606" lon="17.07512332272738"><ele>480.66666666666663</ele><time>2026-05-04T12:27:03Z</time></trkpt><trkpt lat="44.7012123893197" lon="17.074896226336072"><ele>481.3333333333333</ele><time>2026-05-04T12:27:04Z</time></trkpt><trkpt lat="44.70116401376749" lon="17.07468314856697"><ele>482.0</ele><time>2026-05-04T12:27:05Z</time></trkpt><trkpt lat="44.701142101543105" lon="17.07445902774306"><ele>482.0</ele><time>2026-05-04T12:27:06Z</time></trkpt><trkpt lat="44.70114507182931" lon="17.07422709775596"><ele>482.0</ele><time>2026-05-04T12:27:07Z</time></trkpt><trkpt lat="44.70115656345461" lon="17.073998432482842"><ele>482.0</ele><time>2026-05-04T12:27:08Z</time></trkpt><trkpt lat="44.70117247235983" lon="17.073770328459208"><ele>481.0</ele><time>2026-05-04T12:27:09Z</time></trkpt><trkpt lat="44.70120576803244" lon="17.073539671267167"><ele>480.0</ele><time>2026-05-04T12:27:10Z</time></trkpt><trkpt lat="44.70125120662442" lon="17.073327902000766"><ele>479.0</ele><time>2026-05-04T12:27:11Z</time></trkpt><trkpt lat="44.70129295124543" lon="17.073141140731988"><ele>477.25</ele><time>2026-05-04T12:27:12Z</time></trkpt><trkpt lat="44.70134351647852" lon="17.07296624713456"><ele>475.5</ele><time>2026-05-04T12:27:13Z</time></trkpt><trkpt lat="44.70141771683041" lon="17.072824965729122"><ele>473.75</ele><time>2026-05-04T12:27:14Z</time></trkpt><trkpt lat="44.701529800070375" lon="17.072718238419675"><ele>472.0</ele><time>2026-05-04T12:27:15Z</time></trkpt><trkpt lat="44.70166846905038" lon="17.072664936788346"><ele>472.0</ele><time>2026-05-04T12:27:16Z</time></trkpt><trkpt lat="44.70182194618274" lon="17.07262892279845"><ele>472.0</ele><time>2026-05-04T12:27:17Z</time></trkpt><trkpt lat="44.701984153017236" lon="17.07258577286092"><ele>472.0</ele><time>2026-05-04T12:27:18Z</time></trkpt><trkpt lat="44.702150657115325" lon="17.072535079625556"><ele>472.33333333333337</ele><time>2026-05-04T12:27:19Z</time></trkpt><trkpt lat="44.70232275537561" lon="17.07247955919236"><ele>472.66666666666663</ele><time>2026-05-04T12:27:20Z</time></trkpt><trkpt lat="44.702474656138946" lon="17.07242000553711"><ele>473.0</ele><time>2026-05-04T12:27:21Z</time></trkpt><trkpt lat="44.702609773625454" lon="17.072355080823183"><ele>472.0</ele><time>2026-05-04T12:27:22Z</time></trkpt><trkpt lat="44.702710512181255" lon="17.072247817085685"><ele>471.0</ele><time>2026-05-04T12:27:23Z</time></trkpt><trkpt lat="44.70277613035163" lon="17.072114722737897"><ele>470.0</ele><time>2026-05-04T12:27:24Z</time></trkpt><trkpt lat="44.70279891429086" lon="17.071968374040875"><ele>469.0</ele><time>2026-05-04T12:27:25Z</time></trkpt><trkpt lat="44.7027832118765" lon="17.071816465296116"><ele>469.0</ele><time>2026-05-04T12:27:26Z</time></trkpt><trkpt lat="44.70272717235977" lon="17.071644925024426"><ele>469.0</ele><time>2026-05-04T12:27:27Z</time></trkpt><trkpt lat="44.702647922709744" lon="17.071467882821043"><ele>469.0</ele><time>2026-05-04T12:27:28Z</time></trkpt><trkpt lat="44.70258903305495" lon="17.071270150508273"><ele>469.0</ele><time>2026-05-04T12:27:29Z</time></trkpt><trkpt lat="44.70253298517212" lon="17.071052273398152"><ele>469.0</ele><time>2026-05-04T12:27:30Z</time></trkpt><trkpt lat="44.70246505222639" lon="17.07083988819016"><ele>469.0</ele><time>2026-05-04T12:27:31Z</time></trkpt><trkpt lat="44.70240864869833" lon="17.07061742412166"><ele>469.0</ele><time>2026-05-04T12:27:32Z</time></trkpt><trkpt lat="44.70238522592536" lon="17.070370332693845"><ele>470.33333333333337</ele><time>2026-05-04T12:27:33Z</time></trkpt><trkpt lat="44.70239617573873" lon="17.070108991957923"><ele>471.66666666666663</ele><time>2026-05-04T12:27:34Z</time></trkpt><trkpt lat="44.702416254644646" lon="17.06983268589856"><ele>473.0</ele><time>2026-05-04T12:27:35Z</time></trkpt><trkpt lat="44.70242892306889" lon="17.069545335085238"><ele>473.0</ele><time>2026-05-04T12:27:36Z</time></trkpt><trkpt lat="44.70243172739345" lon="17.069252486989885"><ele>473.0</ele><time>2026-05-04T12:27:37Z</time></trkpt><trkpt lat="44.70242102174461" lon="17.068963021894362"><ele>473.0</ele><time>2026-05-04T12:27:38Z</time></trkpt><trkpt lat="44.702401316964405" lon="17.06868660366212"><ele>474.0</ele><time>2026-05-04T12:27:39Z</time></trkpt><trkpt lat="44.70238025171123" lon="17.068418445699823"><ele>475.0</ele><time>2026-05-04T12:27:40Z</time></trkpt><trkpt lat="44.70236132949124" lon="17.06816836960099"><ele>476.0</ele><time>2026-05-04T12:27:41Z</time></trkpt><trkpt lat="44.70234888441341" lon="17.06794631040927"><ele>476.66666666666663</ele><time>2026-05-04T12:27:42Z</time></trkpt><trkpt lat="44.70236002943676" lon="17.06773199374947"><ele>477.33333333333337</ele><time>2026-05-04T12:27:43Z</time></trkpt><trkpt lat="44.702398671582344" lon="17.067505750751767"><ele>478.0</ele><time>2026-05-04T12:27:44Z</time></trkpt><trkpt lat="44.70244542191411" lon="17.067270708202614"><ele>478.0</ele><time>2026-05-04T12:27:45Z</time></trkpt><trkpt lat="44.70248759199143" lon="17.0670425513774"><ele>478.0</ele><time>2026-05-04T12:27:46Z</time></trkpt><trkpt lat="44.70253668414449" lon="17.066824134365"><ele>478.0</ele><time>2026-05-04T12:27:47Z</time></trkpt><trkpt lat="44.70261032634019" lon="17.066612624515326"><ele>477.0</ele><time>2026-05-04T12:27:48Z</time></trkpt><trkpt lat="44.7027025261249" lon="17.066405720299386"><ele>476.0</ele><time>2026-05-04T12:27:49Z</time></trkpt><trkpt lat="44.702795460282175" lon="17.066221363707605"><ele>475.0</ele><time>2026-05-04T12:27:50Z</time></trkpt><trkpt lat="44.70289395163016" lon="17.06604705195628"><ele>476.0</ele><time>2026-05-04T12:27:51Z</time></trkpt><trkpt lat="44.70299367774682" lon="17.06588550673999"><ele>477.0</ele><time>2026-05-04T12:27:52Z</time></trkpt><trkpt lat="44.703125589120866" lon="17.065750380123813"><ele>478.0</ele><time>2026-05-04T12:27:53Z</time></trkpt><trkpt lat="44.703268882572345" lon="17.06562517694884"><ele>478.0</ele><time>2026-05-04T12:27:54Z</time></trkpt><trkpt lat="44.703399027990784" lon="17.065473099132056"><ele>478.0</ele><time>2026-05-04T12:27:55Z</time></trkpt><trkpt lat="44.703524076659555" lon="17.065254031095833"><ele>478.0</ele><time>2026-05-04T12:27:56Z</time></trkpt><trkpt lat="44.70362137962217" lon="17.065023304804225"><ele>478.6666666666667</ele><time>2026-05-04T12:27:57Z</time></trkpt><trkpt lat="44.70370761273442" lon="17.0648147221691"><ele>479.33333333333337</ele><time>2026-05-04T12:27:58Z</time></trkpt><trkpt lat="44.703795589558794" lon="17.064615854014715"><ele>480.0</ele><time>2026-05-04T12:27:59Z</time></trkpt><trkpt lat="44.703881563664865" lon="17.064422609876868"><ele>480.0</ele><time>2026-05-04T12:28:00Z</time></trkpt><trkpt lat="44.70396071274704" lon="17.06422849943967"><ele>480.0</ele><time>2026-05-04T12:28:01Z</time></trkpt><trkpt lat="44.70400237100024" lon="17.064017839716268"><ele>480.0</ele><time>2026-05-04T12:28:02Z</time></trkpt><trkpt lat="44.70399582403168" lon="17.06379549410825"><ele>479.75</ele><time>2026-05-04T12:28:03Z</time></trkpt><trkpt lat="44.70396121495272" lon="17.06358209067809"><ele>479.5</ele><time>2026-05-04T12:28:04Z</time></trkpt><trkpt lat="44.70390573097109" lon="17.06339117685642"><ele>479.25</ele><time>2026-05-04T12:28:05Z</time></trkpt><trkpt lat="44.70384885768112" lon="17.063212324888372"><ele>479.0</ele><time>2026-05-04T12:28:06Z</time></trkpt><trkpt lat="44.70378842325864" lon="17.06305032336412"><ele>480.25</ele><time>2026-05-04T12:28:07Z</time></trkpt><trkpt lat="44.70372387918185" lon="17.062901793815954"><ele>481.5</ele><time>2026-05-04T12:28:08Z</time></trkpt><trkpt lat="44.70366404230144" lon="17.06276167307775"><ele>482.75</ele><time>2026-05-04T12:28:09Z</time></trkpt><trkpt lat="44.70362834003659" lon="17.06262069608278"><ele>484.0</ele><time>2026-05-04T12:28:10Z</time></trkpt><trkpt lat="44.70362503347132" lon="17.06247142289015"><ele>484.4</ele><time>2026-05-04T12:28:11Z</time></trkpt><trkpt lat="44.70364113352593" lon="17.062319428508534"><ele>484.79999999999995</ele><time>2026-05-04T12:28:12Z</time></trkpt><trkpt lat="44.703682734830544" lon="17.062180404556454"><ele>485.20000000000005</ele><time>2026-05-04T12:28:13Z</time></trkpt><trkpt lat="44.703742624325095" lon="17.06205571587059"><ele>485.6</ele><time>2026-05-04T12:28:14Z</time></trkpt><trkpt lat="44.703823745604964" lon="17.06195658718291"><ele>486.0</ele><time>2026-05-04T12:28:15Z</time></trkpt><trkpt lat="44.70392111371135" lon="17.061893306840314"><ele>486.0</ele><time>2026-05-04T12:28:16Z</time></trkpt><trkpt lat="44.704028322413535" lon="17.061875971869988"><ele>486.0</ele><time>2026-05-04T12:28:17Z</time></trkpt><trkpt lat="44.7041385750848" lon="17.061903427101242"><ele>486.0</ele><time>2026-05-04T12:28:18Z</time></trkpt><trkpt lat="44.70425843031352" lon="17.06195435104862"><ele>486.0</ele><time>2026-05-04T12:28:19Z</time></trkpt><trkpt lat="44.70438722354067" lon="17.06200416106116"><ele>487.66666666666663</ele><time>2026-05-04T12:28:20Z</time></trkpt><trkpt lat="44.70452906330787" lon="17.062056468407693"><ele>489.3333333333333</ele><time>2026-05-04T12:28:21Z</time></trkpt><trkpt lat="44.70469525987175" lon="17.062115163744625"><ele>491.0</ele><time>2026-05-04T12:28:22Z</time></trkpt><trkpt lat="44.704874337067196" lon="17.06217686157089"><ele>491.0</ele><time>2026-05-04T12:28:23Z</time></trkpt><trkpt lat="44.705056144223306" lon="17.06223101210962"><ele>491.0</ele><time>2026-05-04T12:28:24Z</time></trkpt><trkpt lat="44.705248576230765" lon="17.062254702159873"><ele>491.0</ele><time>2026-05-04T12:28:25Z</time></trkpt><trkpt lat="44.70543809215584" lon="17.062239895068124"><ele>489.66666666666663</ele><time>2026-05-04T12:28:26Z</time></trkpt><trkpt lat="44.70562719284979" lon="17.062212409881045"><ele>488.33333333333337</ele><time>2026-05-04T12:28:27Z</time></trkpt><trkpt lat="44.705807040711186" lon="17.06220386395266"><ele>487.0</ele><time>2026-05-04T12:28:28Z</time></trkpt><trkpt lat="44.705989881586376" lon="17.062219100660254"><ele>485.0</ele><time>2026-05-04T12:28:29Z</time></trkpt><trkpt lat="44.70616346538162" lon="17.062250802344177"><ele>483.0</ele><time>2026-05-04T12:28:30Z</time></trkpt><trkpt lat="44.706335033009054" lon="17.062292169789842"><ele>481.0</ele><time>2026-05-04T12:28:31Z</time></trkpt><trkpt lat="44.70650058936986" lon="17.0623452835144"><ele>481.0</ele><time>2026-05-04T12:28:32Z</time></trkpt><trkpt lat="44.70666844092783" lon="17.062406428377873"><ele>481.0</ele><time>2026-05-04T12:28:33Z</time></trkpt><trkpt lat="44.706840181459185" lon="17.062481583648605"><ele>481.0</ele><time>2026-05-04T12:28:34Z</time></trkpt><trkpt lat="44.7070075828446" lon="17.062580988917738"><ele>480.6666666666667</ele><time>2026-05-04T12:28:35Z</time></trkpt><trkpt lat="44.707171094454445" lon="17.062709359616427"><ele>480.33333333333337</ele><time>2026-05-04T12:28:36Z</time></trkpt><trkpt lat="44.707330503475674" lon="17.062853521722914"><ele>480.0</ele><time>2026-05-04T12:28:37Z</time></trkpt><trkpt lat="44.707488068212726" lon="17.062992946433216"><ele>480.0</ele><time>2026-05-04T12:28:38Z</time></trkpt><trkpt lat="44.70765327134807" lon="17.063131293471727"><ele>480.0</ele><time>2026-05-04T12:28:39Z</time></trkpt><trkpt lat="44.70782355778102" lon="17.063269809319213"><ele>480.0</ele><time>2026-05-04T12:28:40Z</time></trkpt><trkpt lat="44.70799070797773" lon="17.06339508964127"><ele>481.66666666666663</ele><time>2026-05-04T12:28:41Z</time></trkpt><trkpt lat="44.70816477531096" lon="17.063529890472118"><ele>483.3333333333333</ele><time>2026-05-04T12:28:42Z</time></trkpt><trkpt lat="44.70834104005187" lon="17.0636685600762"><ele>485.0</ele><time>2026-05-04T12:28:43Z</time></trkpt><trkpt lat="44.708521428456066" lon="17.063809326397024"><ele>485.3333333333333</ele><time>2026-05-04T12:28:44Z</time></trkpt><trkpt lat="44.70870503009529" lon="17.06394496071812"><ele>485.66666666666663</ele><time>2026-05-04T12:28:45Z</time></trkpt><trkpt lat="44.70889151617657" lon="17.064080464092395"><ele>486.0</ele><time>2026-05-04T12:28:46Z</time></trkpt><trkpt lat="44.70907835268054" lon="17.064212805565894"><ele>486.0</ele><time>2026-05-04T12:28:47Z</time></trkpt><trkpt lat="44.70926007838879" lon="17.064340486201782"><ele>486.0</ele><time>2026-05-04T12:28:48Z</time></trkpt><trkpt lat="44.709434196395875" lon="17.064455455830572"><ele>486.0</ele><time>2026-05-04T12:28:49Z</time></trkpt><trkpt lat="44.70959202847133" lon="17.064559672032573"><ele>484.0</ele><time>2026-05-04T12:28:50Z</time></trkpt><trkpt lat="44.709745547013874" lon="17.064659099517186"><ele>482.0</ele><time>2026-05-04T12:28:51Z</time></trkpt><trkpt lat="44.70990399584326" lon="17.064760137011714"><ele>480.0</ele><time>2026-05-04T12:28:52Z</time></trkpt><trkpt lat="44.71006453470061" lon="17.06487648470869"><ele>480.66666666666663</ele><time>2026-05-04T12:28:53Z</time></trkpt><trkpt lat="44.71022277894058" lon="17.06501381609307"><ele>481.3333333333333</ele><time>2026-05-04T12:28:54Z</time></trkpt><trkpt lat="44.710390863552355" lon="17.065137130879144"><ele>482.0</ele><time>2026-05-04T12:28:55Z</time></trkpt><trkpt lat="44.710565968697175" lon="17.065208784333933"><ele>482.0</ele><time>2026-05-04T12:28:56Z</time></trkpt><trkpt lat="44.71074288482771" lon="17.065226742493756"><ele>482.0</ele><time>2026-05-04T12:28:57Z</time></trkpt><trkpt lat="44.71091294964221" lon="17.06520323993796"><ele>482.0</ele><time>2026-05-04T12:28:58Z</time></trkpt><trkpt lat="44.711073280592146" lon="17.06514117199513"><ele>481.66666666666663</ele><time>2026-05-04T12:28:59Z</time></trkpt><trkpt lat="44.71122576262615" lon="17.065052430522382"><ele>481.33333333333337</ele><time>2026-05-04T12:29:00Z</time></trkpt><trkpt lat="44.71137416965848" lon="17.064952625537106"><ele>481.0</ele><time>2026-05-04T12:29:01Z</time></trkpt><trkpt lat="44.71153268085562" lon="17.06484766741787"><ele>479.6666666666667</ele><time>2026-05-04T12:29:02Z</time></trkpt><trkpt lat="44.7116967059553" lon="17.06474456115835"><ele>478.33333333333337</ele><time>2026-05-04T12:29:03Z</time></trkpt><trkpt lat="44.71186336779315" lon="17.06465300199093"><ele>477.0</ele><time>2026-05-04T12:29:04Z</time></trkpt><trkpt lat="44.712035765179564" lon="17.06456440683832"><ele>477.0</ele><time>2026-05-04T12:29:05Z</time></trkpt><trkpt lat="44.71221307068706" lon="17.064483296317253"><ele>477.0</ele><time>2026-05-04T12:29:06Z</time></trkpt><trkpt lat="44.71240542759119" lon="17.064402548582734"><ele>477.0</ele><time>2026-05-04T12:29:07Z</time></trkpt><trkpt lat="44.71260542874192" lon="17.064319137462878"><ele>477.33333333333337</ele><time>2026-05-04T12:29:08Z</time></trkpt><trkpt lat="44.71280852606766" lon="17.064228689689234"><ele>477.6666666666667</ele><time>2026-05-04T12:29:09Z</time></trkpt><trkpt lat="44.71301075742173" lon="17.064132819650407"><ele>478.0</ele><time>2026-05-04T12:29:10Z</time></trkpt><trkpt lat="44.713206820869715" lon="17.06404000998381"><ele>476.6666666666667</ele><time>2026-05-04T12:29:11Z</time></trkpt><trkpt lat="44.713401789135276" lon="17.063932614574394"><ele>475.33333333333337</ele><time>2026-05-04T12:29:12Z</time></trkpt><trkpt lat="44.71358681611742" lon="17.063803827561937"><ele>474.0</ele><time>2026-05-04T12:29:13Z</time></trkpt><trkpt lat="44.71375955024908" lon="17.063650240047863"><ele>473.0</ele><time>2026-05-04T12:29:14Z</time></trkpt><trkpt lat="44.71392048142825" lon="17.063482355884812"><ele>472.0</ele><time>2026-05-04T12:29:15Z</time></trkpt><trkpt lat="44.7140690337341" lon="17.063316067783425"><ele>471.0</ele><time>2026-05-04T12:29:16Z</time></trkpt><trkpt lat="44.714211376063766" lon="17.0631430314176"><ele>470.33333333333337</ele><time>2026-05-04T12:29:17Z</time></trkpt><trkpt lat="44.71433699276207" lon="17.062964158293212"><ele>469.6666666666667</ele><time>2026-05-04T12:29:18Z</time></trkpt><trkpt lat="44.714444008266106" lon="17.062762003482685"><ele>469.0</ele><time>2026-05-04T12:29:19Z</time></trkpt><trkpt lat="44.71454526121717" lon="17.06255236821596"><ele>469.33333333333337</ele><time>2026-05-04T12:29:20Z</time></trkpt><trkpt lat="44.714640672058344" lon="17.062346381518186"><ele>469.66666666666663</ele><time>2026-05-04T12:29:21Z</time></trkpt><trkpt lat="44.71472911384955" lon="17.062159954634634"><ele>470.0</ele><time>2026-05-04T12:29:22Z</time></trkpt><trkpt lat="44.71480862507462" lon="17.061975464144602"><ele>470.0</ele><time>2026-05-04T12:29:23Z</time></trkpt><trkpt lat="44.714856355716634" lon="17.061777056152657"><ele>470.0</ele><time>2026-05-04T12:29:24Z</time></trkpt><trkpt lat="44.714851308481265" lon="17.061555830694473"><ele>470.0</ele><time>2026-05-04T12:29:25Z</time></trkpt><trkpt lat="44.71480257675726" lon="17.06133844229449"><ele>472.3333333333333</ele><time>2026-05-04T12:29:26Z</time></trkpt><trkpt lat="44.714715478683146" lon="17.061133913015933"><ele>474.66666666666663</ele><time>2026-05-04T12:29:27Z</time></trkpt><trkpt lat="44.71461007797524" lon="17.060931840599128"><ele>477.0</ele><time>2026-05-04T12:29:28Z</time></trkpt><trkpt lat="44.714493673246366" lon="17.060720002450566"><ele>478.33333333333337</ele><time>2026-05-04T12:29:29Z</time></trkpt><trkpt lat="44.714385535870164" lon="17.060512147829886"><ele>479.6666666666667</ele><time>2026-05-04T12:29:30Z</time></trkpt><trkpt lat="44.71429084387711" lon="17.060306775658987"><ele>481.0</ele><time>2026-05-04T12:29:31Z</time></trkpt><trkpt lat="44.71423434701577" lon="17.060083292538224"><ele>481.0</ele><time>2026-05-04T12:29:32Z</time></trkpt><trkpt lat="44.71421118995042" lon="17.059860746891413"><ele>481.0</ele><time>2026-05-04T12:29:33Z</time></trkpt><trkpt lat="44.714204873407844" lon="17.05966148630031"><ele>481.0</ele><time>2026-05-04T12:29:34Z</time></trkpt><trkpt lat="44.71422688640658" lon="17.05949113185687"><ele>481.0</ele><time>2026-05-04T12:29:35Z</time></trkpt><trkpt lat="44.714281887991085" lon="17.05935161447507"><ele>481.0</ele><time>2026-05-04T12:29:36Z</time></trkpt><trkpt lat="44.71435570911679" lon="17.059246588957045"><ele>481.0</ele><time>2026-05-04T12:29:37Z</time></trkpt><trkpt lat="44.71444577669645" lon="17.05912642606933"><ele>481.0</ele><time>2026-05-04T12:29:38Z</time></trkpt><trkpt lat="44.71454985421401" lon="17.058985744105748"><ele>481.0</ele><time>2026-05-04T12:29:39Z</time></trkpt><trkpt lat="44.7146460173917" lon="17.058813399371168"><ele>481.33333333333337</ele><time>2026-05-04T12:29:40Z</time></trkpt><trkpt lat="44.71473206356345" lon="17.058618855009662"><ele>481.66666666666663</ele><time>2026-05-04T12:29:41Z</time></trkpt><trkpt lat="44.71481116901971" lon="17.058420250215995"><ele>482.0</ele><time>2026-05-04T12:29:42Z</time></trkpt><trkpt lat="44.71488996307253" lon="17.058235703148263"><ele>481.25</ele><time>2026-05-04T12:29:43Z</time></trkpt><trkpt lat="44.714979147866366" lon="17.058076137904774"><ele>480.5</ele><time>2026-05-04T12:29:44Z</time></trkpt><trkpt lat="44.715082663800956" lon="17.05794060680579"><ele>479.75</ele><time>2026-05-04T12:29:45Z</time></trkpt><trkpt lat="44.71520065473481" lon="17.057818414483535"><ele>479.0</ele><time>2026-05-04T12:29:46Z</time></trkpt><trkpt lat="44.715333323129535" lon="17.057699850337652"><ele>475.3333333333333</ele><time>2026-05-04T12:29:47Z</time></trkpt><trkpt lat="44.715462246409956" lon="17.057573182258107"><ele>471.66666666666663</ele><time>2026-05-04T12:29:48Z</time></trkpt><trkpt lat="44.71559096034048" lon="17.05741810192074"><ele>468.0</ele><time>2026-05-04T12:29:49Z</time></trkpt><trkpt lat="44.71570711127707" lon="17.057234790844795"><ele>468.0</ele><time>2026-05-04T12:29:50Z</time></trkpt><trkpt lat="44.71578954626204" lon="17.057019942144635"><ele>468.0</ele><time>2026-05-04T12:29:51Z</time></trkpt><trkpt lat="44.71585381449961" lon="17.05678246325277"><ele>468.0</ele><time>2026-05-04T12:29:52Z</time></trkpt><trkpt lat="44.7159151453001" lon="17.056535677834045"><ele>467.66666666666663</ele><time>2026-05-04T12:29:53Z</time></trkpt><trkpt lat="44.71598476328736" lon="17.056297102920738"><ele>467.3333333333333</ele><time>2026-05-04T12:29:54Z</time></trkpt><trkpt lat="44.71606173301999" lon="17.05605638325734"><ele>467.0</ele><time>2026-05-04T12:29:55Z</time></trkpt><trkpt lat="44.71614437354109" lon="17.05582305022779"><ele>466.66666666666663</ele><time>2026-05-04T12:29:56Z</time></trkpt><trkpt lat="44.71622983384823" lon="17.055608328441426"><ele>466.33333333333337</ele><time>2026-05-04T12:29:57Z</time></trkpt><trkpt lat="44.716332333926196" lon="17.055429412592495"><ele>466.0</ele><time>2026-05-04T12:29:58Z</time></trkpt><trkpt lat="44.71647016209106" lon="17.055295128183573"><ele>466.0</ele><time>2026-05-04T12:29:59Z</time></trkpt><trkpt lat="44.71662423080906" lon="17.055181920546385"><ele>466.0</ele><time>2026-05-04T12:30:00Z</time></trkpt><trkpt lat="44.71677936607839" lon="17.055049291480245"><ele>466.0</ele><time>2026-05-04T12:30:01Z</time></trkpt><trkpt lat="44.716931622201486" lon="17.054902559886905"><ele>468.6666666666667</ele><time>2026-05-04T12:30:02Z</time></trkpt><trkpt lat="44.71708294848802" lon="17.05475427856325"><ele>471.33333333333337</ele><time>2026-05-04T12:30:03Z</time></trkpt><trkpt lat="44.717237981715726" lon="17.054600016739187"><ele>474.0</ele><time>2026-05-04T12:30:04Z</time></trkpt><trkpt lat="44.71738919288555" lon="17.054445744710513"><ele>474.0</ele><time>2026-05-04T12:30:05Z</time></trkpt><trkpt lat="44.71753165991253" lon="17.05429568154151"><ele>474.0</ele><time>2026-05-04T12:30:06Z</time></trkpt><trkpt lat="44.717659685865655" lon="17.054147808037225"><ele>474.0</ele><time>2026-05-04T12:30:07Z</time></trkpt><trkpt lat="44.71775317270898" lon="17.053997822324753"><ele>473.75</ele><time>2026-05-04T12:30:08Z</time></trkpt><trkpt lat="44.71781725307117" lon="17.053831354749345"><ele>473.5</ele><time>2026-05-04T12:30:09Z</time></trkpt><trkpt lat="44.71785718700962" lon="17.053632250973674"><ele>473.25</ele><time>2026-05-04T12:30:10Z</time></trkpt><trkpt lat="44.717884257640385" lon="17.053413466225376"><ele>473.0</ele><time>2026-05-04T12:30:11Z</time></trkpt><trkpt lat="44.71793066592548" lon="17.053156473182305"><ele>473.0</ele><time>2026-05-04T12:30:12Z</time></trkpt><trkpt lat="44.71801260290066" lon="17.052876886182837"><ele>473.0</ele><time>2026-05-04T12:30:13Z</time></trkpt><trkpt lat="44.71812275417546" lon="17.05260925697335"><ele>473.0</ele><time>2026-05-04T12:30:14Z</time></trkpt><trkpt lat="44.71825784722952" lon="17.052329030172128"><ele>474.0</ele><time>2026-05-04T12:30:15Z</time></trkpt><trkpt lat="44.71841775731039" lon="17.05201447911736"><ele>475.0</ele><time>2026-05-04T12:30:16Z</time></trkpt><trkpt lat="44.71858630536869" lon="17.05168008850308"><ele>477.5</ele><time>2026-05-04T12:30:17Z</time></trkpt><trkpt lat="44.718739263759204" lon="17.051350859238916"><ele>480.0</ele><time>2026-05-04T12:30:18Z</time></trkpt><trkpt lat="44.71887669318976" lon="17.051030131733842"><ele>481.5</ele><time>2026-05-04T12:30:19Z</time></trkpt><trkpt lat="44.71898450873575" lon="17.050722298665654"><ele>483.0</ele><time>2026-05-04T12:30:20Z</time></trkpt><trkpt lat="44.71907239137397" lon="17.050443890805052"><ele>483.0</ele><time>2026-05-04T12:30:21Z</time></trkpt><trkpt lat="44.719168093532744" lon="17.050207284711178"><ele>483.0</ele><time>2026-05-04T12:30:22Z</time></trkpt><trkpt lat="44.71927901407692" lon="17.050007149886376"><ele>483.0</ele><time>2026-05-04T12:30:23Z</time></trkpt><trkpt lat="44.71939278392312" lon="17.04983112398316"><ele>483.33333333333337</ele><time>2026-05-04T12:30:24Z</time></trkpt><trkpt lat="44.71951597982492" lon="17.049665883901902"><ele>483.6666666666667</ele><time>2026-05-04T12:30:25Z</time></trkpt><trkpt lat="44.71966162267372" lon="17.04948280958297"><ele>484.0</ele><time>2026-05-04T12:30:26Z</time></trkpt><trkpt lat="44.71982816602936" lon="17.049301035525595"><ele>482.6666666666667</ele><time>2026-05-04T12:30:27Z</time></trkpt><trkpt lat="44.7199847535355" lon="17.049124594267237"><ele>481.33333333333337</ele><time>2026-05-04T12:30:28Z</time></trkpt><trkpt lat="44.7201271576621" lon="17.04894518274858"><ele>480.0</ele><time>2026-05-04T12:30:29Z</time></trkpt><trkpt lat="44.7202695164292" lon="17.048762142440896"><ele>479.66666666666663</ele><time>2026-05-04T12:30:30Z</time></trkpt><trkpt lat="44.72040987697596" lon="17.04858940802366"><ele>479.3333333333333</ele><time>2026-05-04T12:30:31Z</time></trkpt><trkpt lat="44.72053579889968" lon="17.048440159379396"><ele>479.0</ele><time>2026-05-04T12:30:32Z</time></trkpt><trkpt lat="44.720659679705605" lon="17.048292781112494"><ele>477.0</ele><time>2026-05-04T12:30:33Z</time></trkpt><trkpt lat="44.72079245882978" lon="17.04813062068745"><ele>475.0</ele><time>2026-05-04T12:30:34Z</time></trkpt><trkpt lat="44.720935503748684" lon="17.04794914596184"><ele>473.0</ele><time>2026-05-04T12:30:35Z</time></trkpt><trkpt lat="44.72108063719824" lon="17.04777369306598"><ele>473.0</ele><time>2026-05-04T12:30:36Z</time></trkpt><trkpt lat="44.721220747169" lon="17.047596139882412"><ele>473.0</ele><time>2026-05-04T12:30:37Z</time></trkpt><trkpt lat="44.72135862765881" lon="17.047423978153358"><ele>473.0</ele><time>2026-05-04T12:30:38Z</time></trkpt><trkpt lat="44.721485436514364" lon="17.04726053712324"><ele>471.3333333333333</ele><time>2026-05-04T12:30:39Z</time></trkpt><trkpt lat="44.72160710512635" lon="17.047106204709298"><ele>469.66666666666663</ele><time>2026-05-04T12:30:40Z</time></trkpt><trkpt lat="44.721728797256375" lon="17.046955938477318"><ele>468.0</ele><time>2026-05-04T12:30:41Z</time></trkpt><trkpt lat="44.721860419002425" lon="17.04680949982287"><ele>466.66666666666663</ele><time>2026-05-04T12:30:42Z</time></trkpt><trkpt lat="44.722013243263554" lon="17.046672348691175"><ele>465.3333333333333</ele><time>2026-05-04T12:30:43Z</time></trkpt><trkpt lat="44.722178642531354" lon="17.04655995667433"><ele>464.0</ele><time>2026-05-04T12:30:44Z</time></trkpt><trkpt lat="44.722359580257546" lon="17.046455252951944"><ele>465.0</ele><time>2026-05-04T12:30:45Z</time></trkpt><trkpt lat="44.72254335994515" lon="17.04634646493349"><ele>466.0</ele><time>2026-05-04T12:30:46Z</time></trkpt><trkpt lat="44.722725932027494" lon="17.046237311792577"><ele>467.0</ele><time>2026-05-04T12:30:47Z</time></trkpt><trkpt lat="44.72290319585053" lon="17.046127683455044"><ele>467.0</ele><time>2026-05-04T12:30:48Z</time></trkpt><trkpt lat="44.7230759610651" lon="17.046019717434866"><ele>467.0</ele><time>2026-05-04T12:30:49Z</time></trkpt><trkpt lat="44.72325214026155" lon="17.045913077276033"><ele>467.0</ele><time>2026-05-04T12:30:50Z</time></trkpt><trkpt lat="44.72342394893356" lon="17.045800649763667"><ele>467.3333333333333</ele><time>2026-05-04T12:30:51Z</time></trkpt><trkpt lat="44.72358924501737" lon="17.04566446021473"><ele>467.66666666666663</ele><time>2026-05-04T12:30:52Z</time></trkpt><trkpt lat="44.72373454346004" lon="17.045493562307186"><ele>468.0</ele><time>2026-05-04T12:30:53Z</time></trkpt><trkpt lat="44.723853995767506" lon="17.045287133443964"><ele>468.0</ele><time>2026-05-04T12:30:54Z</time></trkpt><trkpt lat="44.72393839655593" lon="17.045083133233558"><ele>468.0</ele><time>2026-05-04T12:30:55Z</time></trkpt><trkpt lat="44.72402265563179" lon="17.04489726210599"><ele>468.0</ele><time>2026-05-04T12:30:56Z</time></trkpt><trkpt lat="44.724128377163616" lon="17.044741105656463"><ele>467.33333333333337</ele><time>2026-05-04T12:30:57Z</time></trkpt><trkpt lat="44.72427053103761" lon="17.044603206943915"><ele>466.6666666666667</ele><time>2026-05-04T12:30:58Z</time></trkpt><trkpt lat="44.72442081571218" lon="17.044463526113482"><ele>466.0</ele><time>2026-05-04T12:30:59Z</time></trkpt><trkpt lat="44.72457302653729" lon="17.044300823665264"><ele>465.0</ele><time>2026-05-04T12:31:00Z</time></trkpt><trkpt lat="44.724701983285684" lon="17.044114255703274"><ele>464.0</ele><time>2026-05-04T12:31:01Z</time></trkpt><trkpt lat="44.724821430864274" lon="17.043924039884615"><ele>463.0</ele><time>2026-05-04T12:31:02Z</time></trkpt><trkpt lat="44.72494074234237" lon="17.04376212712393"><ele>463.0</ele><time>2026-05-04T12:31:03Z</time></trkpt><trkpt lat="44.72507995876542" lon="17.043649605289755"><ele>463.0</ele><time>2026-05-04T12:31:04Z</time></trkpt><trkpt lat="44.725222192566505" lon="17.043587399519136"><ele>463.0</ele><time>2026-05-04T12:31:05Z</time></trkpt><trkpt lat="44.725349149523275" lon="17.043520418719357"><ele>463.0</ele><time>2026-05-04T12:31:06Z</time></trkpt><trkpt lat="44.72545364876519" lon="17.043414030031837"><ele>460.0</ele><time>2026-05-04T12:31:07Z</time></trkpt><trkpt lat="44.72551289267336" lon="17.043277599168896"><ele>457.0</ele><time>2026-05-04T12:31:08Z</time></trkpt><trkpt lat="44.725523136106126" lon="17.043129016311056"><ele>454.0</ele><time>2026-05-04T12:31:09Z</time></trkpt><trkpt lat="44.725489840380675" lon="17.04297617813163"><ele>451.0</ele><time>2026-05-04T12:31:10Z</time></trkpt><trkpt lat="44.725425587231506" lon="17.042806400692108"><ele>451.0</ele><time>2026-05-04T12:31:11Z</time></trkpt><trkpt lat="44.72536166326998" lon="17.042604871713355"><ele>451.0</ele><time>2026-05-04T12:31:12Z</time></trkpt><trkpt lat="44.72529853426913" lon="17.042367145350553"><ele>451.0</ele><time>2026-05-04T12:31:13Z</time></trkpt><trkpt lat="44.72522723675791" lon="17.042112495845707"><ele>454.33333333333337</ele><time>2026-05-04T12:31:14Z</time></trkpt><trkpt lat="44.72515925283376" lon="17.0418567375379"><ele>457.66666666666663</ele><time>2026-05-04T12:31:15Z</time></trkpt><trkpt lat="44.72509808763466" lon="17.04159863935371"><ele>461.0</ele><time>2026-05-04T12:31:16Z</time></trkpt><trkpt lat="44.72503562276251" lon="17.04134529038895"><ele>461.0</ele><time>2026-05-04T12:31:17Z</time></trkpt><trkpt lat="44.72497015156862" lon="17.041094402863436"><ele>461.0</ele><time>2026-05-04T12:31:18Z</time></trkpt><trkpt lat="44.72491803265578" lon="17.04083788479585"><ele>461.0</ele><time>2026-05-04T12:31:19Z</time></trkpt><trkpt lat="44.72490668486826" lon="17.04057686974887"><ele>462.3333333333333</ele><time>2026-05-04T12:31:20Z</time></trkpt><trkpt lat="44.72494590824875" lon="17.04031917835866"><ele>463.66666666666663</ele><time>2026-05-04T12:31:21Z</time></trkpt><trkpt lat="44.72501565214205" lon="17.040079448879943"><ele>465.0</ele><time>2026-05-04T12:31:22Z</time></trkpt><trkpt lat="44.725104361628" lon="17.03986188287203"><ele>466.33333333333337</ele><time>2026-05-04T12:31:23Z</time></trkpt><trkpt lat="44.72518272030264" lon="17.039651079351483"><ele>467.6666666666667</ele><time>2026-05-04T12:31:24Z</time></trkpt><trkpt lat="44.72525145579984" lon="17.039441953980976"><ele>469.0</ele><time>2026-05-04T12:31:25Z</time></trkpt><trkpt lat="44.725318952474126" lon="17.03924386113653"><ele>468.33333333333337</ele><time>2026-05-04T12:31:26Z</time></trkpt><trkpt lat="44.72539985522641" lon="17.03903193815462"><ele>467.66666666666663</ele><time>2026-05-04T12:31:27Z</time></trkpt><trkpt lat="44.725503514667714" lon="17.038818337313987"><ele>467.0</ele><time>2026-05-04T12:31:28Z</time></trkpt><trkpt lat="44.72564452804678" lon="17.03863368743728"><ele>467.0</ele><time>2026-05-04T12:31:29Z</time></trkpt><trkpt lat="44.72580410739671" lon="17.038453063324702"><ele>467.0</ele><time>2026-05-04T12:31:30Z</time></trkpt><trkpt lat="44.7259595835675" lon="17.038264109168633"><ele>467.0</ele><time>2026-05-04T12:31:31Z</time></trkpt><trkpt lat="44.726095809973295" lon="17.038068850405885"><ele>465.3333333333333</ele><time>2026-05-04T12:31:32Z</time></trkpt><trkpt lat="44.726221011304" lon="17.03787698027016"><ele>463.66666666666663</ele><time>2026-05-04T12:31:33Z</time></trkpt><trkpt lat="44.72634066736025" lon="17.037685041228908"><ele>462.0</ele><time>2026-05-04T12:31:34Z</time></trkpt><trkpt lat="44.726462108635594" lon="17.037494639080677"><ele>461.66666666666663</ele><time>2026-05-04T12:31:35Z</time></trkpt><trkpt lat="44.72658835353506" lon="17.03730561354736"><ele>461.3333333333333</ele><time>2026-05-04T12:31:36Z</time></trkpt><trkpt lat="44.72671401667575" lon="17.037129616856426"><ele>461.0</ele><time>2026-05-04T12:31:37Z</time></trkpt><trkpt lat="44.72683361872214" lon="17.036958036971875"><ele>457.66666666666663</ele><time>2026-05-04T12:31:38Z</time></trkpt><trkpt lat="44.72693845936913" lon="17.03676982465129"><ele>454.33333333333337</ele><time>2026-05-04T12:31:39Z</time></trkpt><trkpt lat="44.727026896157874" lon="17.036557048017418"><ele>451.0</ele><time>2026-05-04T12:31:40Z</time></trkpt><trkpt lat="44.72710022409339" lon="17.0363467496146"><ele>451.0</ele><time>2026-05-04T12:31:41Z</time></trkpt><trkpt lat="44.72718180480189" lon="17.036142436791636"><ele>451.0</ele><time>2026-05-04T12:31:42Z</time></trkpt><trkpt lat="44.72728359146037" lon="17.035956387857443"><ele>451.0</ele><time>2026-05-04T12:31:43Z</time></trkpt><trkpt lat="44.72740804379078" lon="17.03580406612812"><ele>451.0</ele><time>2026-05-04T12:31:44Z</time></trkpt><trkpt lat="44.727547551564804" lon="17.0356877537349"><ele>451.0</ele><time>2026-05-04T12:31:45Z</time></trkpt><trkpt lat="44.72769455149022" lon="17.035582645951756"><ele>451.0</ele><time>2026-05-04T12:31:46Z</time></trkpt><trkpt lat="44.72782868570441" lon="17.035474554289863"><ele>447.33333333333337</ele><time>2026-05-04T12:31:47Z</time></trkpt><trkpt lat="44.72795540037487" lon="17.035344183152237"><ele>443.66666666666663</ele><time>2026-05-04T12:31:48Z</time></trkpt><trkpt lat="44.72807401604904" lon="17.03519022610907"><ele>440.0</ele><time>2026-05-04T12:31:49Z</time></trkpt><trkpt lat="44.728186182655755" lon="17.035019243177032"><ele>438.0</ele><time>2026-05-04T12:31:50Z</time></trkpt><trkpt lat="44.72828836704624" lon="17.034831681216982"><ele>436.0</ele><time>2026-05-04T12:31:51Z</time></trkpt><trkpt lat="44.72838697147808" lon="17.0346288367911"><ele>434.0</ele><time>2026-05-04T12:31:52Z</time></trkpt><trkpt lat="44.72848238469645" lon="17.03442368125636"><ele>434.66666666666663</ele><time>2026-05-04T12:31:53Z</time></trkpt><trkpt lat="44.72857204426562" lon="17.03421364816133"><ele>435.33333333333337</ele><time>2026-05-04T12:31:54Z</time></trkpt><trkpt lat="44.728658869048374" lon="17.034013010139233"><ele>436.0</ele><time>2026-05-04T12:31:55Z</time></trkpt><trkpt lat="44.72873800645956" lon="17.03380960834698"><ele>436.0</ele><time>2026-05-04T12:31:56Z</time></trkpt><trkpt lat="44.728813621418546" lon="17.033624119664168"><ele>436.0</ele><time>2026-05-04T12:31:57Z</time></trkpt><trkpt lat="44.72891840425398" lon="17.03347912028853"><ele>436.0</ele><time>2026-05-04T12:31:58Z</time></trkpt><trkpt lat="44.729044816250976" lon="17.033385914179046"><ele>436.0</ele><time>2026-05-04T12:31:59Z</time></trkpt><trkpt lat="44.729139296439705" lon="17.033277533170242"><ele>433.75</ele><time>2026-05-04T12:32:00Z</time></trkpt><trkpt lat="44.729179717861236" lon="17.033124732794764"><ele>431.5</ele><time>2026-05-04T12:32:01Z</time></trkpt><trkpt lat="44.72916449117181" lon="17.032952578902187"><ele>429.25</ele><time>2026-05-04T12:32:02Z</time></trkpt><trkpt lat="44.72914879809194" lon="17.0327754230584"><ele>427.0</ele><time>2026-05-04T12:32:03Z</time></trkpt><trkpt lat="44.72916212571662" lon="17.0325910004523"><ele>425.6666666666667</ele><time>2026-05-04T12:32:04Z</time></trkpt><trkpt lat="44.72921446903379" lon="17.032400521547363"><ele>424.33333333333337</ele><time>2026-05-04T12:32:05Z</time></trkpt><trkpt lat="44.7292944309979" lon="17.0322112657204"><ele>423.0</ele><time>2026-05-04T12:32:06Z</time></trkpt><trkpt lat="44.72938203515728" lon="17.0319878317432"><ele>425.33333333333337</ele><time>2026-05-04T12:32:07Z</time></trkpt><trkpt lat="44.729454426965525" lon="17.03173025734996"><ele>427.6666666666667</ele><time>2026-05-04T12:32:08Z</time></trkpt><trkpt lat="44.72949614629414" lon="17.03143595224037"><ele>430.0</ele><time>2026-05-04T12:32:09Z</time></trkpt><trkpt lat="44.72951754425385" lon="17.031140979889763"><ele>430.6666666666667</ele><time>2026-05-04T12:32:10Z</time></trkpt><trkpt lat="44.729524027971195" lon="17.030849493442574"><ele>431.33333333333337</ele><time>2026-05-04T12:32:11Z</time></trkpt><trkpt lat="44.72952381812395" lon="17.03057782243518"><ele>432.0</ele><time>2026-05-04T12:32:12Z</time></trkpt><trkpt lat="44.729522091639176" lon="17.030333318248942"><ele>433.33333333333337</ele><time>2026-05-04T12:32:13Z</time></trkpt><trkpt lat="44.72952401328307" lon="17.030088969917617"><ele>434.6666666666667</ele><time>2026-05-04T12:32:14Z</time></trkpt><trkpt lat="44.72952889351765" lon="17.02985234651823"><ele>436.0</ele><time>2026-05-04T12:32:15Z</time></trkpt><trkpt lat="44.72954131696704" lon="17.0296209520141"><ele>436.0</ele><time>2026-05-04T12:32:16Z</time></trkpt><trkpt lat="44.72955867143319" lon="17.02939183585414"><ele>436.0</ele><time>2026-05-04T12:32:17Z</time></trkpt><trkpt lat="44.729574166994105" lon="17.02916415052587"><ele>436.0</ele><time>2026-05-04T12:32:18Z</time></trkpt><trkpt lat="44.72958690343231" lon="17.02894184850134"><ele>435.0</ele><time>2026-05-04T12:32:19Z</time></trkpt><trkpt lat="44.72960228776051" lon="17.02871636507937"><ele>434.0</ele><time>2026-05-04T12:32:20Z</time></trkpt><trkpt lat="44.72962890964164" lon="17.02848844814115"><ele>433.0</ele><time>2026-05-04T12:32:21Z</time></trkpt><trkpt lat="44.72967069305685" lon="17.0282588811536"><ele>433.0</ele><time>2026-05-04T12:32:22Z</time></trkpt><trkpt lat="44.72973303827475" lon="17.02804319640379"><ele>433.0</ele><time>2026-05-04T12:32:23Z</time></trkpt><trkpt lat="44.72981244547183" lon="17.027839860558526"><ele>433.0</ele><time>2026-05-04T12:32:24Z</time></trkpt><trkpt lat="44.72991110790745" lon="17.027650638950448"><ele>433.0</ele><time>2026-05-04T12:32:25Z</time></trkpt><trkpt lat="44.73002475478441" lon="17.02748039110577"><ele>433.0</ele><time>2026-05-04T12:32:26Z</time></trkpt><trkpt lat="44.73014705382968" lon="17.027332084153635"><ele>433.0</ele><time>2026-05-04T12:32:27Z</time></trkpt><trkpt lat="44.73026734823081" lon="17.027192242045693"><ele>432.75</ele><time>2026-05-04T12:32:28Z</time></trkpt><trkpt lat="44.73038716663486" lon="17.027050992958085"><ele>432.5</ele><time>2026-05-04T12:32:29Z</time></trkpt><trkpt lat="44.73048878485199" lon="17.02693805157225"><ele>432.25</ele><time>2026-05-04T12:32:30Z</time></trkpt><trkpt lat="44.730577760260516" lon="17.026841303841184"><ele>432.0</ele><time>2026-05-04T12:32:31Z</time></trkpt><trkpt lat="44.7306827823551" lon="17.02671781239954"><ele>430.66666666666663</ele><time>2026-05-04T12:32:32Z</time></trkpt><trkpt lat="44.730800210050496" lon="17.026577386571528"><ele>429.3333333333333</ele><time>2026-05-04T12:32:33Z</time></trkpt><trkpt lat="44.73092387554266" lon="17.026407451452496"><ele>428.0</ele><time>2026-05-04T12:32:34Z</time></trkpt><trkpt lat="44.73102967614212" lon="17.026198414972963"><ele>428.0</ele><time>2026-05-04T12:32:35Z</time></trkpt><trkpt lat="44.73112371518788" lon="17.025974090541784"><ele>428.0</ele><time>2026-05-04T12:32:36Z</time></trkpt><trkpt lat="44.73122690711581" lon="17.0257543428783"><ele>428.0</ele><time>2026-05-04T12:32:37Z</time></trkpt><trkpt lat="44.73132911710651" lon="17.02554343703137"><ele>428.0</ele><time>2026-05-04T12:32:38Z</time></trkpt><trkpt lat="44.73142856667827" lon="17.025341861998978"><ele>428.0</ele><time>2026-05-04T12:32:39Z</time></trkpt><trkpt lat="44.73153966515537" lon="17.025158082878917"><ele>428.0</ele><time>2026-05-04T12:32:40Z</time></trkpt><trkpt lat="44.73166778663476" lon="17.024990000917537"><ele>426.3333333333333</ele><time>2026-05-04T12:32:41Z</time></trkpt><trkpt lat="44.73180841276966" lon="17.02483530661445"><ele>424.66666666666663</ele><time>2026-05-04T12:32:42Z</time></trkpt><trkpt lat="44.731969099978066" lon="17.024688764749236"><ele>423.0</ele><time>2026-05-04T12:32:43Z</time></trkpt><trkpt lat="44.73213674031306" lon="17.024556334909242"><ele>423.0</ele><time>2026-05-04T12:32:44Z</time></trkpt><trkpt lat="44.732305800890735" lon="17.02442636862011"><ele>423.0</ele><time>2026-05-04T12:32:45Z</time></trkpt><trkpt lat="44.73247464700707" lon="17.024286274481273"><ele>423.0</ele><time>2026-05-04T12:32:46Z</time></trkpt><trkpt lat="44.73263696920226" lon="17.02414845776987"><ele>422.0</ele><time>2026-05-04T12:32:47Z</time></trkpt><trkpt lat="44.73278751025853" lon="17.02402077431687"><ele>421.0</ele><time>2026-05-04T12:32:48Z</time></trkpt><trkpt lat="44.73293057095223" lon="17.02389409512861"><ele>420.0</ele><time>2026-05-04T12:32:49Z</time></trkpt><trkpt lat="44.73306694567715" lon="17.023787695577166"><ele>420.0</ele><time>2026-05-04T12:32:50Z</time></trkpt><trkpt lat="44.733214397275006" lon="17.0236778026781"><ele>420.0</ele><time>2026-05-04T12:32:51Z</time></trkpt><trkpt lat="44.73337085339775" lon="17.02357149567106"><ele>420.0</ele><time>2026-05-04T12:32:52Z</time></trkpt><trkpt lat="44.73352526033132" lon="17.023468952266327"><ele>422.33333333333337</ele><time>2026-05-04T12:32:53Z</time></trkpt><trkpt lat="44.73367428878954" lon="17.023365420165614"><ele>424.6666666666667</ele><time>2026-05-04T12:32:54Z</time></trkpt><trkpt lat="44.733820021664876" lon="17.02325682870096"><ele>427.0</ele><time>2026-05-04T12:32:55Z</time></trkpt><trkpt lat="44.733960150920055" lon="17.02314242158414"><ele>427.6666666666667</ele><time>2026-05-04T12:32:56Z</time></trkpt><trkpt lat="44.73409425791964" lon="17.023021303583196"><ele>428.33333333333337</ele><time>2026-05-04T12:32:57Z</time></trkpt><trkpt lat="44.73421508362457" lon="17.022887096110676"><ele>429.0</ele><time>2026-05-04T12:32:58Z</time></trkpt><trkpt lat="44.73432166695716" lon="17.02273065733677"><ele>430.0</ele><time>2026-05-04T12:32:59Z</time></trkpt><trkpt lat="44.73442679171727" lon="17.02257621452176"><ele>431.0</ele><time>2026-05-04T12:33:00Z</time></trkpt><trkpt lat="44.734528155314734" lon="17.022446905607698"><ele>432.0</ele><time>2026-05-04T12:33:01Z</time></trkpt><trkpt lat="44.73462520295964" lon="17.022329387723712"><ele>433.0</ele><time>2026-05-04T12:33:02Z</time></trkpt><trkpt lat="44.73470870957035" lon="17.022210530111025"><ele>433.0</ele><time>2026-05-04T12:33:03Z</time></trkpt><trkpt lat="44.734775910775966" lon="17.022081646440448"><ele>433.0</ele><time>2026-05-04T12:33:04Z</time></trkpt><trkpt lat="44.734839773360555" lon="17.021938395415617"><ele>433.0</ele><time>2026-05-04T12:33:05Z</time></trkpt><trkpt lat="44.73491507662213" lon="17.02178741796573"><ele>433.0</ele><time>2026-05-04T12:33:06Z</time></trkpt><trkpt lat="44.735000394837364" lon="17.021619498362107"><ele>432.33333333333337</ele><time>2026-05-04T12:33:07Z</time></trkpt><trkpt lat="44.735090268256755" lon="17.021444919692165"><ele>431.66666666666663</ele><time>2026-05-04T12:33:08Z</time></trkpt><trkpt lat="44.73519132622285" lon="17.021262343713456"><ele>431.0</ele><time>2026-05-04T12:33:09Z</time></trkpt><trkpt lat="44.735301753639746" lon="17.021081994685225"><ele>430.66666666666663</ele><time>2026-05-04T12:33:10Z</time></trkpt><trkpt lat="44.73541782834311" lon="17.020906327265234"><ele>430.33333333333337</ele><time>2026-05-04T12:33:11Z</time></trkpt><trkpt lat="44.73553051912696" lon="17.020734717606906"><ele>430.0</ele><time>2026-05-04T12:33:12Z</time></trkpt><trkpt lat="44.73564577899313" lon="17.020564447148367"><ele>430.0</ele><time>2026-05-04T12:33:13Z</time></trkpt><trkpt lat="44.735765021103596" lon="17.02040063165093"><ele>430.0</ele><time>2026-05-04T12:33:14Z</time></trkpt><trkpt lat="44.73589451194988" lon="17.02024860684838"><ele>430.0</ele><time>2026-05-04T12:33:15Z</time></trkpt><trkpt lat="44.73603080095548" lon="17.020114379684355"><ele>430.25</ele><time>2026-05-04T12:33:16Z</time></trkpt><trkpt lat="44.736163990980245" lon="17.01999653569182"><ele>430.5</ele><time>2026-05-04T12:33:17Z</time></trkpt><trkpt lat="44.73628606190748" lon="17.019895759481916"><ele>430.75</ele><time>2026-05-04T12:33:18Z</time></trkpt><trkpt lat="44.73639619140413" lon="17.0198192700201"><ele>431.0</ele><time>2026-05-04T12:33:19Z</time></trkpt><trkpt lat="44.73649449331083" lon="17.019774408532847"><ele>431.0</ele><time>2026-05-04T12:33:20Z</time></trkpt><trkpt lat="44.736590119596826" lon="17.019772520207678"><ele>431.0</ele><time>2026-05-04T12:33:21Z</time></trkpt><trkpt lat="44.736685637957144" lon="17.019824532316417"><ele>431.0</ele><time>2026-05-04T12:33:22Z</time></trkpt><trkpt lat="44.7367771538502" lon="17.019916518274826"><ele>431.0</ele><time>2026-05-04T12:33:23Z</time></trkpt><trkpt lat="44.73687649088286" lon="17.019987623983376"><ele>431.0</ele><time>2026-05-04T12:33:24Z</time></trkpt><trkpt lat="44.73698551687235" lon="17.020002198641173"><ele>428.0</ele><time>2026-05-04T12:33:25Z</time></trkpt><trkpt lat="44.73709858465797" lon="17.019972487505747"><ele>425.0</ele><time>2026-05-04T12:33:26Z</time></trkpt><trkpt lat="44.73720108223133" lon="17.019883651223864"><ele>422.0</ele><time>2026-05-04T12:33:27Z</time></trkpt><trkpt lat="44.73728379115072" lon="17.019757330405806"><ele>419.0</ele><time>2026-05-04T12:33:28Z</time></trkpt><trkpt lat="44.737359964496704" lon="17.019595903137812"><ele>419.0</ele><time>2026-05-04T12:33:29Z</time></trkpt><trkpt lat="44.73744255864639" lon="17.019410044608016"><ele>419.0</ele><time>2026-05-04T12:33:30Z</time></trkpt><trkpt lat="44.73753549651466" lon="17.019202437387083"><ele>419.0</ele><time>2026-05-04T12:33:31Z</time></trkpt><trkpt lat="44.73763917911822" lon="17.018978220600854"><ele>415.66666666666663</ele><time>2026-05-04T12:33:32Z</time></trkpt><trkpt lat="44.737750858079316" lon="17.018742116026782"><ele>412.33333333333337</ele><time>2026-05-04T12:33:33Z</time></trkpt><trkpt lat="44.73786505451041" lon="17.01850171709916"><ele>409.0</ele><time>2026-05-04T12:33:34Z</time></trkpt><trkpt lat="44.73797704969815" lon="17.018266366911302"><ele>408.6666666666667</ele><time>2026-05-04T12:33:35Z</time></trkpt><trkpt lat="44.738083575488076" lon="17.018052748640873"><ele>408.33333333333337</ele><time>2026-05-04T12:33:36Z</time></trkpt><trkpt lat="44.73818808152797" lon="17.017841664413382"><ele>408.0</ele><time>2026-05-04T12:33:37Z</time></trkpt><trkpt lat="44.73829112056308" lon="17.01763292964306"><ele>407.66666666666663</ele><time>2026-05-04T12:33:38Z</time></trkpt><trkpt lat="44.73838255795011" lon="17.017431704872717"><ele>407.3333333333333</ele><time>2026-05-04T12:33:39Z</time></trkpt><trkpt lat="44.73846081184101" lon="17.01722977332576"><ele>407.0</ele><time>2026-05-04T12:33:40Z</time></trkpt><trkpt lat="44.738525579436505" lon="17.017013031368815"><ele>408.0</ele><time>2026-05-04T12:33:41Z</time></trkpt><trkpt lat="44.738582251893185" lon="17.01678425870809"><ele>409.0</ele><time>2026-05-04T12:33:42Z</time></trkpt><trkpt lat="44.738631163856894" lon="17.016558377240763"><ele>410.0</ele><time>2026-05-04T12:33:43Z</time></trkpt><trkpt lat="44.73867255607324" lon="17.016342040073226"><ele>411.25</ele><time>2026-05-04T12:33:44Z</time></trkpt><trkpt lat="44.738711432327136" lon="17.016143207770895"><ele>412.5</ele><time>2026-05-04T12:33:45Z</time></trkpt><trkpt lat="44.738754190609434" lon="17.015959794811337"><ele>413.75</ele><time>2026-05-04T12:33:46Z</time></trkpt><trkpt lat="44.73882114767057" lon="17.015808943771837"><ele>415.0</ele><time>2026-05-04T12:33:47Z</time></trkpt><trkpt lat="44.73892283135582" lon="17.015683419221244"><ele>411.6666666666667</ele><time>2026-05-04T12:33:48Z</time></trkpt><trkpt lat="44.73903397896213" lon="17.015554180491936"><ele>408.33333333333337</ele><time>2026-05-04T12:33:49Z</time></trkpt><trkpt lat="44.739153964108624" lon="17.015405352167626"><ele>405.0</ele><time>2026-05-04T12:33:50Z</time></trkpt><trkpt lat="44.739277139642" lon="17.01524011845538"><ele>405.0</ele><time>2026-05-04T12:33:51Z</time></trkpt><trkpt lat="44.73940802923054" lon="17.015067270589732"><ele>405.0</ele><time>2026-05-04T12:33:52Z</time></trkpt><trkpt lat="44.73954609059052" lon="17.014881397539263"><ele>405.0</ele><time>2026-05-04T12:33:53Z</time></trkpt><trkpt lat="44.73969064960998" lon="17.014711246875912"><ele>405.0</ele><time>2026-05-04T12:33:54Z</time></trkpt><trkpt lat="44.739846005302226" lon="17.014569405018747"><ele>405.0</ele><time>2026-05-04T12:33:55Z</time></trkpt><trkpt lat="44.740014250334575" lon="17.014456922836498"><ele>405.0</ele><time>2026-05-04T12:33:56Z</time></trkpt><trkpt lat="44.740189862494695" lon="17.01436331408722"><ele>407.66666666666663</ele><time>2026-05-04T12:33:57Z</time></trkpt><trkpt lat="44.740364126675075" lon="17.014263138384294"><ele>410.3333333333333</ele><time>2026-05-04T12:33:58Z</time></trkpt><trkpt lat="44.7405318376669" lon="17.014154679681578"><ele>413.0</ele><time>2026-05-04T12:33:59Z</time></trkpt><trkpt lat="44.74069370589958" lon="17.014025671887484"><ele>413.0</ele><time>2026-05-04T12:34:00Z</time></trkpt><trkpt lat="44.74084724034341" lon="17.013869691644555"><ele>413.0</ele><time>2026-05-04T12:34:01Z</time></trkpt><trkpt lat="44.740996138408775" lon="17.01369505354847"><ele>413.0</ele><time>2026-05-04T12:34:02Z</time></trkpt><trkpt lat="44.7411516029861" lon="17.013504986552505"><ele>419.0</ele><time>2026-05-04T12:34:03Z</time></trkpt><trkpt lat="44.74132544572035" lon="17.013298822430468"><ele>425.0</ele><time>2026-05-04T12:34:04Z</time></trkpt><trkpt lat="44.741509887750965" lon="17.01309252178609"><ele>425.0</ele><time>2026-05-04T12:34:05Z</time></trkpt><trkpt lat="44.74167246188975" lon="17.01291099683437"><ele>425.0</ele><time>2026-05-04T12:34:06Z</time></trkpt><trkpt lat="44.74181040682565" lon="17.012725919744945"><ele>425.0</ele><time>2026-05-04T12:34:07Z</time></trkpt><trkpt lat="44.74193268666339" lon="17.012532389329326"><ele>425.66666666666663</ele><time>2026-05-04T12:34:08Z</time></trkpt><trkpt lat="44.742049742450334" lon="17.01234707530583"><ele>426.33333333333337</ele><time>2026-05-04T12:34:09Z</time></trkpt><trkpt lat="44.7421793232287" lon="17.01219252222329"><ele>427.0</ele><time>2026-05-04T12:34:10Z</time></trkpt><trkpt lat="44.742331168543174" lon="17.012083953415548"><ele>427.0</ele><time>2026-05-04T12:34:11Z</time></trkpt><trkpt lat="44.74250395038339" lon="17.01202725190834"><ele>427.0</ele><time>2026-05-04T12:34:12Z</time></trkpt><trkpt lat="44.742687992584806" lon="17.012004742988015"><ele>427.0</ele><time>2026-05-04T12:34:13Z</time></trkpt><trkpt lat="44.74287634499047" lon="17.012003607719173"><ele>430.0</ele><time>2026-05-04T12:34:14Z</time></trkpt><trkpt lat="44.74307184672663" lon="17.01201517541284"><ele>433.0</ele><time>2026-05-04T12:34:15Z</time></trkpt><trkpt lat="44.743267370859506" lon="17.01202272723002"><ele>436.0</ele><time>2026-05-04T12:34:16Z</time></trkpt><trkpt lat="44.74346580257906" lon="17.012047197333192"><ele>438.0</ele><time>2026-05-04T12:34:17Z</time></trkpt><trkpt lat="44.74365643913629" lon="17.012122102897944"><ele>440.0</ele><time>2026-05-04T12:34:18Z</time></trkpt><trkpt lat="44.743833029644854" lon="17.012194836815162"><ele>442.0</ele><time>2026-05-04T12:34:19Z</time></trkpt><trkpt lat="44.74399680541251" lon="17.01222753617649"><ele>442.0</ele><time>2026-05-04T12:34:20Z</time></trkpt><trkpt lat="44.74415969514472" lon="17.012221112610064"><ele>442.0</ele><time>2026-05-04T12:34:21Z</time></trkpt><trkpt lat="44.74433471868162" lon="17.012200103241092"><ele>442.0</ele><time>2026-05-04T12:34:22Z</time></trkpt><trkpt lat="44.74452443969532" lon="17.012166677542407"><ele>438.6666666666667</ele><time>2026-05-04T12:34:23Z</time></trkpt><trkpt lat="44.74471681184821" lon="17.01213824207626"><ele>435.33333333333337</ele><time>2026-05-04T12:34:24Z</time></trkpt><trkpt lat="44.74490630967923" lon="17.01211620960595"><ele>432.0</ele><time>2026-05-04T12:34:25Z</time></trkpt><trkpt lat="44.74508945655666" lon="17.012098458677077"><ele>429.33333333333337</ele><time>2026-05-04T12:34:26Z</time></trkpt><trkpt lat="44.745263906825556" lon="17.01209329924388"><ele>426.6666666666667</ele><time>2026-05-04T12:34:27Z</time></trkpt><trkpt lat="44.74543600240587" lon="17.012111283482"><ele>424.0</ele><time>2026-05-04T12:34:28Z</time></trkpt><trkpt lat="44.74559510453929" lon="17.012137727979013"><ele>424.0</ele><time>2026-05-04T12:34:29Z</time></trkpt><trkpt lat="44.745735147774816" lon="17.012156569716158"><ele>424.0</ele><time>2026-05-04T12:34:30Z</time></trkpt><trkpt lat="44.74584912351553" lon="17.012167399284774"><ele>424.0</ele><time>2026-05-04T12:34:31Z</time></trkpt><trkpt lat="44.7459429433197" lon="17.012154149130577"><ele>424.0</ele><time>2026-05-04T12:34:32Z</time></trkpt><trkpt lat="44.746028933136806" lon="17.01210938651028"><ele>424.0</ele><time>2026-05-04T12:34:33Z</time></trkpt><trkpt lat="44.746106945670626" lon="17.01201576665259"><ele>420.25</ele><time>2026-05-04T12:34:34Z</time></trkpt><trkpt lat="44.74616873130468" lon="17.0118687680131"><ele>416.5</ele><time>2026-05-04T12:34:35Z</time></trkpt><trkpt lat="44.74622859201121" lon="17.01167770978872"><ele>412.75</ele><time>2026-05-04T12:34:36Z</time></trkpt><trkpt lat="44.746308678225496" lon="17.01146046580082"><ele>409.0</ele><time>2026-05-04T12:34:37Z</time></trkpt><trkpt lat="44.74640553426825" lon="17.01122362824025"><ele>409.0</ele><time>2026-05-04T12:34:38Z</time></trkpt><trkpt lat="44.74651078963264" lon="17.010971471490823"><ele>409.0</ele><time>2026-05-04T12:34:39Z</time></trkpt><trkpt lat="44.746621835809016" lon="17.010707477362413"><ele>409.0</ele><time>2026-05-04T12:34:40Z</time></trkpt><trkpt lat="44.746738908302376" lon="17.010438770204054"><ele>408.33333333333337</ele><time>2026-05-04T12:34:41Z</time></trkpt><trkpt lat="44.7468568091592" lon="17.010173291743943"><ele>407.66666666666663</ele><time>2026-05-04T12:34:42Z</time></trkpt><trkpt lat="44.746984755670134" lon="17.009926450180142"><ele>407.0</ele><time>2026-05-04T12:34:43Z</time></trkpt><trkpt lat="44.74713404121564" lon="17.009718972949084"><ele>403.66666666666663</ele><time>2026-05-04T12:34:44Z</time></trkpt><trkpt lat="44.74729667720237" lon="17.009560435975267"><ele>400.33333333333337</ele><time>2026-05-04T12:34:45Z</time></trkpt><trkpt lat="44.7474577518" lon="17.00944513439163"><ele>397.0</ele><time>2026-05-04T12:34:46Z</time></trkpt><trkpt lat="44.74762202354972" lon="17.009391910830807"><ele>397.6666666666667</ele><time>2026-05-04T12:34:47Z</time></trkpt><trkpt lat="44.74779000686872" lon="17.009377298017256"><ele>398.33333333333337</ele><time>2026-05-04T12:34:48Z</time></trkpt><trkpt lat="44.74795541318161" lon="17.00938897774565"><ele>399.0</ele><time>2026-05-04T12:34:49Z</time></trkpt><trkpt lat="44.748115767926286" lon="17.009400595716208"><ele>399.0</ele><time>2026-05-04T12:34:50Z</time></trkpt><trkpt lat="44.74827590434688" lon="17.00942257242599"><ele>399.0</ele><time>2026-05-04T12:34:51Z</time></trkpt><trkpt lat="44.74843873017014" lon="17.009464083695878"><ele>399.0</ele><time>2026-05-04T12:34:52Z</time></trkpt><trkpt lat="44.74860913071537" lon="17.009537544262308"><ele>396.66666666666663</ele><time>2026-05-04T12:34:53Z</time></trkpt><trkpt lat="44.74878185737186" lon="17.009628698322707"><ele>394.3333333333333</ele><time>2026-05-04T12:34:54Z</time></trkpt><trkpt lat="44.74896472905813" lon="17.00973481622011"><ele>392.0</ele><time>2026-05-04T12:34:55Z</time></trkpt><trkpt lat="44.74915415451707" lon="17.00982353506881"><ele>392.0</ele><time>2026-05-04T12:34:56Z</time></trkpt><trkpt lat="44.74935330076627" lon="17.009863108004705"><ele>392.0</ele><time>2026-05-04T12:34:57Z</time></trkpt><trkpt lat="44.749547008645266" lon="17.00986849774846"><ele>392.0</ele><time>2026-05-04T12:34:58Z</time></trkpt><trkpt lat="44.749733137889656" lon="17.009849598186552"><ele>390.66666666666663</ele><time>2026-05-04T12:34:59Z</time></trkpt><trkpt lat="44.74991063201656" lon="17.009816154012118"><ele>389.33333333333337</ele><time>2026-05-04T12:35:00Z</time></trkpt><trkpt lat="44.7500812811493" lon="17.00977223922245"><ele>388.0</ele><time>2026-05-04T12:35:01Z</time></trkpt><trkpt lat="44.750244314919144" lon="17.009751609396943"><ele>386.6666666666667</ele><time>2026-05-04T12:35:02Z</time></trkpt><trkpt lat="44.750423877675665" lon="17.00976071760785"><ele>385.33333333333337</ele><time>2026-05-04T12:35:03Z</time></trkpt><trkpt lat="44.75060474779727" lon="17.00979941436572"><ele>384.0</ele><time>2026-05-04T12:35:04Z</time></trkpt><trkpt lat="44.750780865195416" lon="17.00985932427475"><ele>384.0</ele><time>2026-05-04T12:35:05Z</time></trkpt><trkpt lat="44.750950127721126" lon="17.009947621783397"><ele>384.0</ele><time>2026-05-04T12:35:06Z</time></trkpt><trkpt lat="44.75111310723975" lon="17.010059156837126"><ele>384.0</ele><time>2026-05-04T12:35:07Z</time></trkpt><trkpt lat="44.75126608589803" lon="17.010162634519684"><ele>383.3333333333333</ele><time>2026-05-04T12:35:08Z</time></trkpt><trkpt lat="44.75141992841695" lon="17.01026180907278"><ele>382.66666666666663</ele><time>2026-05-04T12:35:09Z</time></trkpt><trkpt lat="44.75156933482719" lon="17.010352044620642"><ele>382.0</ele><time>2026-05-04T12:35:10Z</time></trkpt><trkpt lat="44.75171516127378" lon="17.010412466329452"><ele>382.0</ele><time>2026-05-04T12:35:11Z</time></trkpt><trkpt lat="44.75185840037572" lon="17.010431274755167"><ele>382.0</ele><time>2026-05-04T12:35:12Z</time></trkpt><trkpt lat="44.752006759311335" lon="17.010405924981963"><ele>382.0</ele><time>2026-05-04T12:35:13Z</time></trkpt><trkpt lat="44.75215657538165" lon="17.010365904842587"><ele>382.0</ele><time>2026-05-04T12:35:14Z</time></trkpt><trkpt lat="44.75230650669915" lon="17.01034425648138"><ele>383.0</ele><time>2026-05-04T12:35:15Z</time></trkpt><trkpt lat="44.75245538201679" lon="17.010353094907366"><ele>384.0</ele><time>2026-05-04T12:35:16Z</time></trkpt><trkpt lat="44.75262254112615" lon="17.010362535810344"><ele>385.0</ele><time>2026-05-04T12:35:17Z</time></trkpt><trkpt lat="44.75279656484891" lon="17.01037011686564"><ele>385.6666666666667</ele><time>2026-05-04T12:35:18Z</time></trkpt><trkpt lat="44.75297774241387" lon="17.010363302047733"><ele>386.33333333333337</ele><time>2026-05-04T12:35:19Z</time></trkpt><trkpt lat="44.75317213566858" lon="17.010339241383416"><ele>387.0</ele><time>2026-05-04T12:35:20Z</time></trkpt><trkpt lat="44.75336504814428" lon="17.010319032997582"><ele>386.33333333333337</ele><time>2026-05-04T12:35:21Z</time></trkpt><trkpt lat="44.753561933138144" lon="17.0102959115189"><ele>385.6666666666667</ele><time>2026-05-04T12:35:22Z</time></trkpt><trkpt lat="44.75374761337103" lon="17.010250094819682"><ele>385.0</ele><time>2026-05-04T12:35:23Z</time></trkpt><trkpt lat="44.75391163111977" lon="17.010185845773997"><ele>385.0</ele><time>2026-05-04T12:35:24Z</time></trkpt><trkpt lat="44.75406548133522" lon="17.010091078464015"><ele>385.0</ele><time>2026-05-04T12:35:25Z</time></trkpt><trkpt lat="44.754213694405074" lon="17.009997681108345"><ele>385.0</ele><time>2026-05-04T12:35:26Z</time></trkpt><trkpt lat="44.754376376732786" lon="17.009918429080326"><ele>385.0</ele><time>2026-05-04T12:35:27Z</time></trkpt><trkpt lat="44.75454746103008" lon="17.00987051481219"><ele>385.0</ele><time>2026-05-04T12:35:28Z</time></trkpt><trkpt lat="44.75471682963881" lon="17.009855424207892"><ele>385.0</ele><time>2026-05-04T12:35:29Z</time></trkpt><trkpt lat="44.75488911600436" lon="17.009847080660013"><ele>385.0</ele><time>2026-05-04T12:35:30Z</time></trkpt><trkpt lat="44.755068792010704" lon="17.00983124527588"><ele>385.0</ele><time>2026-05-04T12:35:31Z</time></trkpt><trkpt lat="44.75525893367395" lon="17.00982478968269"><ele>385.0</ele><time>2026-05-04T12:35:32Z</time></trkpt><trkpt lat="44.75544685960887" lon="17.009831710565148"><ele>384.6666666666667</ele><time>2026-05-04T12:35:33Z</time></trkpt><trkpt lat="44.7556365528043" lon="17.00984620079695"><ele>384.33333333333337</ele><time>2026-05-04T12:35:34Z</time></trkpt><trkpt lat="44.755828158305306" lon="17.009868569373356"><ele>384.0</ele><time>2026-05-04T12:35:35Z</time></trkpt><trkpt lat="44.75601598931371" lon="17.009896728331864"><ele>382.6666666666667</ele><time>2026-05-04T12:35:36Z</time></trkpt><trkpt lat="44.75617710133285" lon="17.00993173754332"><ele>381.33333333333337</ele><time>2026-05-04T12:35:37Z</time></trkpt><trkpt lat="44.75631593729188" lon="17.009977561607258"><ele>380.0</ele><time>2026-05-04T12:35:38Z</time></trkpt><trkpt lat="44.756456403173445" lon="17.010027902563934"><ele>383.0</ele><time>2026-05-04T12:35:39Z</time></trkpt><trkpt lat="44.75660299766588" lon="17.01007191468481"><ele>386.0</ele><time>2026-05-04T12:35:40Z</time></trkpt><trkpt lat="44.75675598708977" lon="17.010110851698744"><ele>389.0</ele><time>2026-05-04T12:35:41Z</time></trkpt><trkpt lat="44.756917219713536" lon="17.01016952517654"><ele>389.0</ele><time>2026-05-04T12:35:42Z</time></trkpt><trkpt lat="44.75707619642146" lon="17.010240601693027"><ele>389.0</ele><time>2026-05-04T12:35:43Z</time></trkpt><trkpt lat="44.75722597161992" lon="17.01030110084255"><ele>389.0</ele><time>2026-05-04T12:35:44Z</time></trkpt><trkpt lat="44.75737741168098" lon="17.010355472989815"><ele>389.0</ele><time>2026-05-04T12:35:45Z</time></trkpt><trkpt lat="44.75751849022026" lon="17.010415677391975"><ele>389.0</ele><time>2026-05-04T12:35:46Z</time></trkpt><trkpt lat="44.75765382943261" lon="17.010489730327443"><ele>389.0</ele><time>2026-05-04T12:35:47Z</time></trkpt><trkpt lat="44.757793079642084" lon="17.01055938902592"><ele>389.0</ele><time>2026-05-04T12:35:48Z</time></trkpt><trkpt lat="44.75794768650281" lon="17.010608352607193"><ele>389.66666666666663</ele><time>2026-05-04T12:35:49Z</time></trkpt><trkpt lat="44.75810568372076" lon="17.01062528132829"><ele>390.33333333333337</ele><time>2026-05-04T12:35:50Z</time></trkpt><trkpt lat="44.75827254433005" lon="17.01061588251011"><ele>391.0</ele><time>2026-05-04T12:35:51Z</time></trkpt><trkpt lat="44.75844287986572" lon="17.010602272446164"><ele>391.0</ele><time>2026-05-04T12:35:52Z</time></trkpt><trkpt lat="44.758622356116746" lon="17.01061097932041"><ele>391.0</ele><time>2026-05-04T12:35:53Z</time></trkpt><trkpt lat="44.75879831904279" lon="17.010642380302"><ele>391.0</ele><time>2026-05-04T12:35:54Z</time></trkpt><trkpt lat="44.75897958163886" lon="17.01067945117854"><ele>391.0</ele><time>2026-05-04T12:35:55Z</time></trkpt><trkpt lat="44.75914554066221" lon="17.010726720929377"><ele>391.0</ele><time>2026-05-04T12:35:56Z</time></trkpt><trkpt lat="44.75929063500656" lon="17.01079706732603"><ele>391.0</ele><time>2026-05-04T12:35:57Z</time></trkpt><trkpt lat="44.75941520481337" lon="17.010894099167256"><ele>391.25</ele><time>2026-05-04T12:35:58Z</time></trkpt><trkpt lat="44.759515911170254" lon="17.011018943270404"><ele>391.5</ele><time>2026-05-04T12:35:59Z</time></trkpt><trkpt lat="44.75957173662888" lon="17.01117769158064"><ele>391.75</ele><time>2026-05-04T12:36:00Z</time></trkpt><trkpt lat="44.759591204648096" lon="17.011366795449128"><ele>392.0</ele><time>2026-05-04T12:36:01Z</time></trkpt><trkpt lat="44.7595832382694" lon="17.01154853259061"><ele>393.25</ele><time>2026-05-04T12:36:02Z</time></trkpt><trkpt lat="44.7595746203368" lon="17.011716752603313"><ele>394.5</ele><time>2026-05-04T12:36:03Z</time></trkpt><trkpt lat="44.75960948903071" lon="17.01188045619422"><ele>395.75</ele><time>2026-05-04T12:36:04Z</time></trkpt><trkpt lat="44.75968803521129" lon="17.012038917357042"><ele>397.0</ele><time>2026-05-04T12:36:05Z</time></trkpt><trkpt lat="44.759793664324796" lon="17.01217731535126"><ele>397.0</ele><time>2026-05-04T12:36:06Z</time></trkpt><trkpt lat="44.75992206440005" lon="17.01229815760304"><ele>397.0</ele><time>2026-05-04T12:36:07Z</time></trkpt><trkpt lat="44.76006658170959" lon="17.012419495617156"><ele>397.0</ele><time>2026-05-04T12:36:08Z</time></trkpt><trkpt lat="44.760220825066796" lon="17.012545671777726"><ele>399.6666666666667</ele><time>2026-05-04T12:36:09Z</time></trkpt><trkpt lat="44.76038111276478" lon="17.012683273590802"><ele>402.33333333333337</ele><time>2026-05-04T12:36:10Z</time></trkpt><trkpt lat="44.76055987610953" lon="17.012828907066005"><ele>405.0</ele><time>2026-05-04T12:36:11Z</time></trkpt><trkpt lat="44.76073277378801" lon="17.012971762093745"><ele>405.0</ele><time>2026-05-04T12:36:12Z</time></trkpt><trkpt lat="44.7608947592097" lon="17.01310861289451"><ele>405.0</ele><time>2026-05-04T12:36:13Z</time></trkpt><trkpt lat="44.76102586329891" lon="17.013233326114634"><ele>405.0</ele><time>2026-05-04T12:36:14Z</time></trkpt><trkpt lat="44.76114573805771" lon="17.013372990920494"><ele>407.33333333333337</ele><time>2026-05-04T12:36:15Z</time></trkpt><trkpt lat="44.76126234529715" lon="17.013531395776646"><ele>409.6666666666667</ele><time>2026-05-04T12:36:16Z</time></trkpt><trkpt lat="44.761350646360825" lon="17.013727021692745"><ele>412.0</ele><time>2026-05-04T12:36:17Z</time></trkpt><trkpt lat="44.76140510336129" lon="17.013932470073897"><ele>412.0</ele><time>2026-05-04T12:36:18Z</time></trkpt><trkpt lat="44.76145659807548" lon="17.014127183182477"><ele>412.0</ele><time>2026-05-04T12:36:19Z</time></trkpt><trkpt lat="44.76151581955288" lon="17.014318272827126"><ele>412.0</ele><time>2026-05-04T12:36:20Z</time></trkpt><trkpt lat="44.761569086931615" lon="17.01452227134259"><ele>411.33333333333337</ele><time>2026-05-04T12:36:21Z</time></trkpt><trkpt lat="44.76160939211877" lon="17.01473935445049"><ele>410.66666666666663</ele><time>2026-05-04T12:36:22Z</time></trkpt><trkpt lat="44.761612929422384" lon="17.01496521380665"><ele>410.0</ele><time>2026-05-04T12:36:23Z</time></trkpt><trkpt lat="44.76158957916432" lon="17.015185178770306"><ele>410.0</ele><time>2026-05-04T12:36:24Z</time></trkpt><trkpt lat="44.761565298910675" lon="17.01537824402153"><ele>410.0</ele><time>2026-05-04T12:36:25Z</time></trkpt><trkpt lat="44.76157200459932" lon="17.015527644434425"><ele>410.0</ele><time>2026-05-04T12:36:26Z</time></trkpt><trkpt lat="44.76161109142976" lon="17.015648011284387"><ele>410.0</ele><time>2026-05-04T12:36:27Z</time></trkpt><trkpt lat="44.76166590508691" lon="17.015772669027598"><ele>410.0</ele><time>2026-05-04T12:36:28Z</time></trkpt><trkpt lat="44.76175556199681" lon="17.015905620308683"><ele>412.3333333333333</ele><time>2026-05-04T12:36:29Z</time></trkpt><trkpt lat="44.761866353003825" lon="17.01603890918553"><ele>414.66666666666663</ele><time>2026-05-04T12:36:30Z</time></trkpt><trkpt lat="44.7619978847926" lon="17.016167146049902"><ele>417.0</ele><time>2026-05-04T12:36:31Z</time></trkpt><trkpt lat="44.7621313503035" lon="17.016303584193768"><ele>417.0</ele><time>2026-05-04T12:36:32Z</time></trkpt><trkpt lat="44.76227655064285" lon="17.01643594736268"><ele>417.0</ele><time>2026-05-04T12:36:33Z</time></trkpt><trkpt lat="44.762418227858696" lon="17.016537332866196"><ele>417.0</ele><time>2026-05-04T12:36:34Z</time></trkpt><trkpt lat="44.76254400746032" lon="17.01659896658927"><ele>417.0</ele><time>2026-05-04T12:36:35Z</time></trkpt><trkpt lat="44.76266791604926" lon="17.016627891072964"><ele>417.0</ele><time>2026-05-04T12:36:36Z</time></trkpt><trkpt lat="44.7628053371743" lon="17.016647268178865"><ele>417.0</ele><time>2026-05-04T12:36:37Z</time></trkpt><trkpt lat="44.76295422604389" lon="17.016651085887908"><ele>417.0</ele><time>2026-05-04T12:36:38Z</time></trkpt><trkpt lat="44.76309809000015" lon="17.016651863165503"><ele>416.0</ele><time>2026-05-04T12:36:39Z</time></trkpt><trkpt lat="44.7632448599566" lon="17.01666514779166"><ele>415.0</ele><time>2026-05-04T12:36:40Z</time></trkpt><trkpt lat="44.76339478805587" lon="17.01669272233699"><ele>414.0</ele><time>2026-05-04T12:36:41Z</time></trkpt><trkpt lat="44.76354725712881" lon="17.016746739783436"><ele>414.0</ele><time>2026-05-04T12:36:42Z</time></trkpt><trkpt lat="44.76369505036105" lon="17.016825011120595"><ele>414.0</ele><time>2026-05-04T12:36:43Z</time></trkpt><trkpt lat="44.76384886402024" lon="17.016927733996766"><ele>414.0</ele><time>2026-05-04T12:36:44Z</time></trkpt><trkpt lat="44.76399288116883" lon="17.017066086676255"><ele>414.0</ele><time>2026-05-04T12:36:45Z</time></trkpt><trkpt lat="44.764117992299106" lon="17.017217372377345"><ele>414.0</ele><time>2026-05-04T12:36:46Z</time></trkpt><trkpt lat="44.76423401734211" lon="17.017365597130038"><ele>414.0</ele><time>2026-05-04T12:36:47Z</time></trkpt><trkpt lat="44.76433591709484" lon="17.01748932843969"><ele>413.0</ele><time>2026-05-04T12:36:48Z</time></trkpt><trkpt lat="44.764438496837435" lon="17.017575999097634"><ele>412.0</ele><time>2026-05-04T12:36:49Z</time></trkpt><trkpt lat="44.764547441267844" lon="17.01761405320621"><ele>411.0</ele><time>2026-05-04T12:36:50Z</time></trkpt><trkpt lat="44.76464753611861" lon="17.017591895231266"><ele>410.0</ele><time>2026-05-04T12:36:51Z</time></trkpt><trkpt lat="44.76475187584228" lon="17.017530742418057"><ele>409.0</ele><time>2026-05-04T12:36:52Z</time></trkpt><trkpt lat="44.76486311714682" lon="17.01742518817364"><ele>411.33333333333337</ele><time>2026-05-04T12:36:53Z</time></trkpt><trkpt lat="44.76498225892308" lon="17.017305725412967"><ele>413.66666666666663</ele><time>2026-05-04T12:36:54Z</time></trkpt><trkpt lat="44.76512663233499" lon="17.017188086977125"><ele>416.0</ele><time>2026-05-04T12:36:55Z</time></trkpt><trkpt lat="44.76528798446898" lon="17.01707302904679"><ele>416.0</ele><time>2026-05-04T12:36:56Z</time></trkpt><trkpt lat="44.7654585443584" lon="17.016951210475966"><ele>416.0</ele><time>2026-05-04T12:36:57Z</time></trkpt><trkpt lat="44.7656298459585" lon="17.016818878279985"><ele>416.0</ele><time>2026-05-04T12:36:58Z</time></trkpt><trkpt lat="44.765791732396956" lon="17.016693526528062"><ele>417.25</ele><time>2026-05-04T12:36:59Z</time></trkpt><trkpt lat="44.765940726236884" lon="17.016583200462183"><ele>418.5</ele><time>2026-05-04T12:37:00Z</time></trkpt><trkpt lat="44.766062590763376" lon="17.016497783427372"><ele>419.75</ele><time>2026-05-04T12:37:01Z</time></trkpt><trkpt lat="44.766170901798006" lon="17.01640241368246"><ele>421.0</ele><time>2026-05-04T12:37:02Z</time></trkpt><trkpt lat="44.7662580987527" lon="17.01628226317698"><ele>418.5</ele><time>2026-05-04T12:37:03Z</time></trkpt><trkpt lat="44.76631311666541" lon="17.016137276238403"><ele>416.0</ele><time>2026-05-04T12:37:04Z</time></trkpt><trkpt lat="44.76633264631048" lon="17.015969331486506"><ele>413.5</ele><time>2026-05-04T12:37:05Z</time></trkpt><trkpt lat="44.76632901136254" lon="17.01577567242262"><ele>411.0</ele><time>2026-05-04T12:37:06Z</time></trkpt><trkpt lat="44.766349147398785" lon="17.01557982171649"><ele>411.0</ele><time>2026-05-04T12:37:07Z</time></trkpt><trkpt lat="44.76641152111288" lon="17.015395243143278"><ele>411.0</ele><time>2026-05-04T12:37:08Z</time></trkpt><trkpt lat="44.76649135328344" lon="17.015215111819206"><ele>411.0</ele><time>2026-05-04T12:37:09Z</time></trkpt><trkpt lat="44.76658570897024" lon="17.015039852765987"><ele>411.33333333333337</ele><time>2026-05-04T12:37:10Z</time></trkpt><trkpt lat="44.76669891316222" lon="17.014882402318282"><ele>411.6666666666667</ele><time>2026-05-04T12:37:11Z</time></trkpt><trkpt lat="44.76683412774198" lon="17.01476886764236"><ele>412.0</ele><time>2026-05-04T12:37:12Z</time></trkpt><trkpt lat="44.7669813231274" lon="17.014705065248805"><ele>410.25</ele><time>2026-05-04T12:37:13Z</time></trkpt><trkpt lat="44.76713145932692" lon="17.014659708062158"><ele>408.5</ele><time>2026-05-04T12:37:14Z</time></trkpt><trkpt lat="44.76727529981332" lon="17.014626227890044"><ele>406.75</ele><time>2026-05-04T12:37:15Z</time></trkpt><trkpt lat="44.76741622095526" lon="17.014587586620895"><ele>405.0</ele><time>2026-05-04T12:37:16Z</time></trkpt><trkpt lat="44.767554055748555" lon="17.014536129736815"><ele>404.66666666666663</ele><time>2026-05-04T12:37:17Z</time></trkpt><trkpt lat="44.76770305683801" lon="17.014470930026413"><ele>404.3333333333333</ele><time>2026-05-04T12:37:18Z</time></trkpt><trkpt lat="44.767861637624314" lon="17.014394901742982"><ele>404.0</ele><time>2026-05-04T12:37:19Z</time></trkpt><trkpt lat="44.76802414131816" lon="17.014315602205777"><ele>404.0</ele><time>2026-05-04T12:37:20Z</time></trkpt><trkpt lat="44.768194209214776" lon="17.014229664935428"><ele>404.0</ele><time>2026-05-04T12:37:21Z</time></trkpt><trkpt lat="44.768359344564864" lon="17.014137109749043"><ele>404.0</ele><time>2026-05-04T12:37:22Z</time></trkpt><trkpt lat="44.768517226260734" lon="17.014034614318177"><ele>404.0</ele><time>2026-05-04T12:37:23Z</time></trkpt><trkpt lat="44.7686580726024" lon="17.01392998370878"><ele>404.0</ele><time>2026-05-04T12:37:24Z</time></trkpt><trkpt lat="44.76876591399533" lon="17.013808755723527"><ele>404.0</ele><time>2026-05-04T12:37:25Z</time></trkpt><trkpt lat="44.768853254583476" lon="17.013666241940648"><ele>404.0</ele><time>2026-05-04T12:37:26Z</time></trkpt><trkpt lat="44.7689164497527" lon="17.013506550696253"><ele>404.0</ele><time>2026-05-04T12:37:27Z</time></trkpt><trkpt lat="44.7689703353952" lon="17.013324135146537"><ele>404.0</ele><time>2026-05-04T12:37:28Z</time></trkpt><trkpt lat="44.76902442383644" lon="17.013133501381233"><ele>404.0</ele><time>2026-05-04T12:37:29Z</time></trkpt><trkpt lat="44.76908255571394" lon="17.012939528940638"><ele>404.0</ele><time>2026-05-04T12:37:30Z</time></trkpt><trkpt lat="44.769136920155674" lon="17.01272866513094"><ele>403.66666666666663</ele><time>2026-05-04T12:37:31Z</time></trkpt><trkpt lat="44.76917503690268" lon="17.012494935062662"><ele>403.33333333333337</ele><time>2026-05-04T12:37:32Z</time></trkpt><trkpt lat="44.76920372747715" lon="17.012272122180885"><ele>403.0</ele><time>2026-05-04T12:37:33Z</time></trkpt><trkpt lat="44.76925589653702" lon="17.012081554160492"><ele>404.33333333333337</ele><time>2026-05-04T12:37:34Z</time></trkpt><trkpt lat="44.76934564866038" lon="17.01192557917603"><ele>405.66666666666663</ele><time>2026-05-04T12:37:35Z</time></trkpt><trkpt lat="44.769467062331465" lon="17.011786442677554"><ele>407.0</ele><time>2026-05-04T12:37:36Z</time></trkpt><trkpt lat="44.76960491749183" lon="17.011641123955282"><ele>403.66666666666663</ele><time>2026-05-04T12:37:37Z</time></trkpt><trkpt lat="44.76974676719247" lon="17.011478045682463"><ele>400.33333333333337</ele><time>2026-05-04T12:37:38Z</time></trkpt><trkpt lat="44.769899339503645" lon="17.01129328553729"><ele>397.0</ele><time>2026-05-04T12:37:39Z</time></trkpt><trkpt lat="44.77005032885339" lon="17.01109148689972"><ele>396.0</ele><time>2026-05-04T12:37:40Z</time></trkpt><trkpt lat="44.77019584443788" lon="17.01088164268379"><ele>395.0</ele><time>2026-05-04T12:37:41Z</time></trkpt><trkpt lat="44.770332574720385" lon="17.010675556252128"><ele>394.0</ele><time>2026-05-04T12:37:42Z</time></trkpt><trkpt lat="44.77045755595897" lon="17.010480040630007"><ele>394.0</ele><time>2026-05-04T12:37:43Z</time></trkpt><trkpt lat="44.77056813066762" lon="17.010292373973705"><ele>394.0</ele><time>2026-05-04T12:37:44Z</time></trkpt><trkpt lat="44.77065508417434" lon="17.010110950513084"><ele>394.0</ele><time>2026-05-04T12:37:45Z</time></trkpt><trkpt lat="44.77070376928454" lon="17.009936913657207"><ele>392.25</ele><time>2026-05-04T12:37:46Z</time></trkpt><trkpt lat="44.770712432369955" lon="17.009751809870973"><ele>390.5</ele><time>2026-05-04T12:37:47Z</time></trkpt><trkpt lat="44.7706824778948" lon="17.00955794419894"><ele>388.75</ele><time>2026-05-04T12:37:48Z</time></trkpt><trkpt lat="44.77062817438636" lon="17.009338964630885"><ele>387.0</ele><time>2026-05-04T12:37:49Z</time></trkpt><trkpt lat="44.77057759968362" lon="17.009095697381223"><ele>385.3333333333333</ele><time>2026-05-04T12:37:50Z</time></trkpt><trkpt lat="44.77053287665735" lon="17.0088340698276"><ele>383.66666666666663</ele><time>2026-05-04T12:37:51Z</time></trkpt><trkpt lat="44.77049280844372" lon="17.008579278385266"><ele>382.0</ele><time>2026-05-04T12:37:52Z</time></trkpt><trkpt lat="44.77045243522396" lon="17.00834219137309"><ele>383.3333333333333</ele><time>2026-05-04T12:37:53Z</time></trkpt><trkpt lat="44.77041411315036" lon="17.008113270177642"><ele>384.66666666666663</ele><time>2026-05-04T12:37:54Z</time></trkpt><trkpt lat="44.770386020913904" lon="17.007879270917527"><ele>386.0</ele><time>2026-05-04T12:37:55Z</time></trkpt><trkpt lat="44.770366775811404" lon="17.00764648485493"><ele>387.75</ele><time>2026-05-04T12:37:56Z</time></trkpt><trkpt lat="44.77035439563124" lon="17.007437608882856"><ele>389.5</ele><time>2026-05-04T12:37:57Z</time></trkpt><trkpt lat="44.77033977000755" lon="17.007238152074525"><ele>391.25</ele><time>2026-05-04T12:37:58Z</time></trkpt><trkpt lat="44.77032512286584" lon="17.007053213375997"><ele>393.0</ele><time>2026-05-04T12:37:59Z</time></trkpt><trkpt lat="44.770327259019915" lon="17.006888036951302"><ele>393.0</ele><time>2026-05-04T12:38:00Z</time></trkpt><trkpt lat="44.77034598079875" lon="17.00674542523187"><ele>393.0</ele><time>2026-05-04T12:38:01Z</time></trkpt><trkpt lat="44.77037851329895" lon="17.006615045751595"><ele>393.0</ele><time>2026-05-04T12:38:02Z</time></trkpt><trkpt lat="44.770425736730445" lon="17.006501680921637"><ele>393.0</ele><time>2026-05-04T12:38:03Z</time></trkpt><trkpt lat="44.77047607855559" lon="17.00639139895456"><ele>393.0</ele><time>2026-05-04T12:38:04Z</time></trkpt><trkpt lat="44.770533586502786" lon="17.006291753109313"><ele>391.0</ele><time>2026-05-04T12:38:05Z</time></trkpt><trkpt lat="44.770608534875116" lon="17.006215706673867"><ele>389.0</ele><time>2026-05-04T12:38:06Z</time></trkpt><trkpt lat="44.770710670805414" lon="17.0061586555908"><ele>387.0</ele><time>2026-05-04T12:38:07Z</time></trkpt><trkpt lat="44.770829879092844" lon="17.006126339419524"><ele>385.0</ele><time>2026-05-04T12:38:08Z</time></trkpt><trkpt lat="44.770955372153566" lon="17.006092089868112"><ele>384.6666666666667</ele><time>2026-05-04T12:38:09Z</time></trkpt><trkpt lat="44.77109509059524" lon="17.006039320166362"><ele>384.33333333333337</ele><time>2026-05-04T12:38:10Z</time></trkpt><trkpt lat="44.771254469147024" lon="17.005963763385758"><ele>384.0</ele><time>2026-05-04T12:38:11Z</time></trkpt><trkpt lat="44.7714331506874" lon="17.00586974590516"><ele>381.3333333333333</ele><time>2026-05-04T12:38:12Z</time></trkpt><trkpt lat="44.77162264170824" lon="17.005764743289195"><ele>378.66666666666663</ele><time>2026-05-04T12:38:13Z</time></trkpt><trkpt lat="44.77180561560181" lon="17.005637550374583"><ele>376.0</ele><time>2026-05-04T12:38:14Z</time></trkpt><trkpt lat="44.771979857792374" lon="17.00549474220963"><ele>376.0</ele><time>2026-05-04T12:38:15Z</time></trkpt><trkpt lat="44.772136404242474" lon="17.00532389177936"><ele>376.0</ele><time>2026-05-04T12:38:16Z</time></trkpt><trkpt lat="44.77227421490164" lon="17.005155816356375"><ele>376.0</ele><time>2026-05-04T12:38:17Z</time></trkpt><trkpt lat="44.77242754518891" lon="17.005019289802757"><ele>376.3333333333333</ele><time>2026-05-04T12:38:18Z</time></trkpt><trkpt lat="44.77258528945229" lon="17.00492724117416"><ele>376.6666666666667</ele><time>2026-05-04T12:38:19Z</time></trkpt><trkpt lat="44.772747835736666" lon="17.00484858438217"><ele>377.0</ele><time>2026-05-04T12:38:20Z</time></trkpt><trkpt lat="44.77290335043249" lon="17.004771934977867"><ele>377.0</ele><time>2026-05-04T12:38:21Z</time></trkpt><trkpt lat="44.773052957931306" lon="17.004679866235968"><ele>377.0</ele><time>2026-05-04T12:38:22Z</time></trkpt><trkpt lat="44.773183953149484" lon="17.004568197008336"><ele>377.0</ele><time>2026-05-04T12:38:23Z</time></trkpt><trkpt lat="44.77329565826124" lon="17.004437099285735"><ele>377.0</ele><time>2026-05-04T12:38:24Z</time></trkpt><trkpt lat="44.7733929186723" lon="17.004273563454564"><ele>377.0</ele><time>2026-05-04T12:38:25Z</time></trkpt><trkpt lat="44.773473612141096" lon="17.004090619332953"><ele>377.0</ele><time>2026-05-04T12:38:26Z</time></trkpt><trkpt lat="44.773548831212686" lon="17.00390955116865"><ele>375.0</ele><time>2026-05-04T12:38:27Z</time></trkpt><trkpt lat="44.77362279035048" lon="17.003756488666333"><ele>373.0</ele><time>2026-05-04T12:38:28Z</time></trkpt><trkpt lat="44.77369775447162" lon="17.003629929396382"><ele>371.0</ele><time>2026-05-04T12:38:29Z</time></trkpt><trkpt lat="44.773787168291314" lon="17.00351803511539"><ele>369.0</ele><time>2026-05-04T12:38:30Z</time></trkpt><trkpt lat="44.77389305127678" lon="17.003429416761417"><ele>369.0</ele><time>2026-05-04T12:38:31Z</time></trkpt><trkpt lat="44.77401002480542" lon="17.00336896490906"><ele>369.0</ele><time>2026-05-04T12:38:32Z</time></trkpt><trkpt lat="44.77413322014162" lon="17.003347897014425"><ele>369.0</ele><time>2026-05-04T12:38:33Z</time></trkpt><trkpt lat="44.77425336579503" lon="17.003352999469328"><ele>369.0</ele><time>2026-05-04T12:38:34Z</time></trkpt><trkpt lat="44.77437200357755" lon="17.003381664515494"><ele>366.0</ele><time>2026-05-04T12:38:35Z</time></trkpt><trkpt lat="44.77449303582367" lon="17.003422362312772"><ele>363.0</ele><time>2026-05-04T12:38:36Z</time></trkpt><trkpt lat="44.77461735683451" lon="17.003482282198476"><ele>360.0</ele><time>2026-05-04T12:38:37Z</time></trkpt><trkpt lat="44.77474979640633" lon="17.00356196267978"><ele>357.0</ele><time>2026-05-04T12:38:38Z</time></trkpt><trkpt lat="44.77488526383774" lon="17.003649508511092"><ele>357.0</ele><time>2026-05-04T12:38:39Z</time></trkpt><trkpt lat="44.77503415793336" lon="17.003711676757156"><ele>357.0</ele><time>2026-05-04T12:38:40Z</time></trkpt><trkpt lat="44.775200783559676" lon="17.00373363754562"><ele>357.0</ele><time>2026-05-04T12:38:41Z</time></trkpt><trkpt lat="44.775367816737834" lon="17.00372462420116"><ele>357.0</ele><time>2026-05-04T12:38:42Z</time></trkpt><trkpt lat="44.775526729908414" lon="17.003704736384062"><ele>357.0</ele><time>2026-05-04T12:38:43Z</time></trkpt><trkpt lat="44.7756811294626" lon="17.003692255095284"><ele>357.0</ele><time>2026-05-04T12:38:44Z</time></trkpt><trkpt lat="44.77583813190682" lon="17.0036738749947"><ele>357.0</ele><time>2026-05-04T12:38:45Z</time></trkpt><trkpt lat="44.77599554267834" lon="17.00364600712867"><ele>357.0</ele><time>2026-05-04T12:38:46Z</time></trkpt><trkpt lat="44.77615568911223" lon="17.003626853587658"><ele>357.0</ele><time>2026-05-04T12:38:47Z</time></trkpt><trkpt lat="44.77632319244686" lon="17.003654608909702"><ele>357.3333333333333</ele><time>2026-05-04T12:38:48Z</time></trkpt><trkpt lat="44.77648805250422" lon="17.003741404731556"><ele>357.66666666666663</ele><time>2026-05-04T12:38:49Z</time></trkpt><trkpt lat="44.77664133605569" lon="17.00383984064256"><ele>358.0</ele><time>2026-05-04T12:38:50Z</time></trkpt><trkpt lat="44.776774882086514" lon="17.003921535902414"><ele>359.0</ele><time>2026-05-04T12:38:51Z</time></trkpt><trkpt lat="44.776905029362176" lon="17.00398454824702"><ele>360.0</ele><time>2026-05-04T12:38:52Z</time></trkpt><trkpt lat="44.777035310227724" lon="17.004043273939516"><ele>361.0</ele><time>2026-05-04T12:38:53Z</time></trkpt><trkpt lat="44.77718254252572" lon="17.004106412066044"><ele>362.0</ele><time>2026-05-04T12:38:54Z</time></trkpt><trkpt lat="44.777334764683076" lon="17.004184977797212"><ele>362.0</ele><time>2026-05-04T12:38:55Z</time></trkpt><trkpt lat="44.77749885560607" lon="17.00429137418093"><ele>362.0</ele><time>2026-05-04T12:38:56Z</time></trkpt><trkpt lat="44.777654673032856" lon="17.004425931744873"><ele>362.0</ele><time>2026-05-04T12:38:57Z</time></trkpt><trkpt lat="44.777809319363975" lon="17.00456084666387"><ele>362.33333333333337</ele><time>2026-05-04T12:38:58Z</time></trkpt><trkpt lat="44.7779537325792" lon="17.004683479498013"><ele>362.6666666666667</ele><time>2026-05-04T12:38:59Z</time></trkpt><trkpt lat="44.77808937336975" lon="17.00479653224541"><ele>363.0</ele><time>2026-05-04T12:39:00Z</time></trkpt><trkpt lat="44.7782152993176" lon="17.00489708543655"><ele>363.0</ele><time>2026-05-04T12:39:01Z</time></trkpt><trkpt lat="44.77834912287301" lon="17.004977515950713"><ele>363.0</ele><time>2026-05-04T12:39:02Z</time></trkpt><trkpt lat="44.778483347690056" lon="17.005005046678836"><ele>363.0</ele><time>2026-05-04T12:39:03Z</time></trkpt><trkpt lat="44.778609526463235" lon="17.00497442847722"><ele>363.0</ele><time>2026-05-04T12:39:04Z</time></trkpt><trkpt lat="44.77871920950535" lon="17.004878337085565"><ele>358.0</ele><time>2026-05-04T12:39:05Z</time></trkpt><trkpt lat="44.778810579419684" lon="17.00474094416928"><ele>353.0</ele><time>2026-05-04T12:39:06Z</time></trkpt><trkpt lat="44.77889100043679" lon="17.004559424118966"><ele>348.0</ele><time>2026-05-04T12:39:07Z</time></trkpt><trkpt lat="44.77898436926241" lon="17.004363155495515"><ele>346.6666666666667</ele><time>2026-05-04T12:39:08Z</time></trkpt><trkpt lat="44.779103369361444" lon="17.00416176571245"><ele>345.33333333333337</ele><time>2026-05-04T12:39:09Z</time></trkpt><trkpt lat="44.77924226998813" lon="17.003962525940562"><ele>344.0</ele><time>2026-05-04T12:39:10Z</time></trkpt><trkpt lat="44.77940733256818" lon="17.003775148858445"><ele>342.0</ele><time>2026-05-04T12:39:11Z</time></trkpt><trkpt lat="44.77958610725898" lon="17.003606103533205"><ele>340.0</ele><time>2026-05-04T12:39:12Z</time></trkpt><trkpt lat="44.77976601907105" lon="17.00344066551506"><ele>338.0</ele><time>2026-05-04T12:39:13Z</time></trkpt><trkpt lat="44.779950270818865" lon="17.003262343607016"><ele>336.33333333333337</ele><time>2026-05-04T12:39:14Z</time></trkpt><trkpt lat="44.78012190846587" lon="17.00308961242445"><ele>334.6666666666667</ele><time>2026-05-04T12:39:15Z</time></trkpt><trkpt lat="44.780282524880086" lon="17.002923633036712"><ele>333.0</ele><time>2026-05-04T12:39:16Z</time></trkpt><trkpt lat="44.78043825618778" lon="17.002761216446572"><ele>336.3333333333333</ele><time>2026-05-04T12:39:17Z</time></trkpt><trkpt lat="44.780586062233205" lon="17.002609567393502"><ele>339.66666666666663</ele><time>2026-05-04T12:39:18Z</time></trkpt><trkpt lat="44.78072055145501" lon="17.002472647407338"><ele>343.0</ele><time>2026-05-04T12:39:19Z</time></trkpt><trkpt lat="44.780851232236294" lon="17.002335424374746"><ele>343.0</ele><time>2026-05-04T12:39:20Z</time></trkpt><trkpt lat="44.7809661672516" lon="17.002232913277442"><ele>343.0</ele><time>2026-05-04T12:39:21Z</time></trkpt><trkpt lat="44.781083858610884" lon="17.002172717756753"><ele>343.0</ele><time>2026-05-04T12:39:22Z</time></trkpt><trkpt lat="44.78120284595505" lon="17.002162740581742"><ele>343.0</ele><time>2026-05-04T12:39:23Z</time></trkpt><trkpt lat="44.78133270672295" lon="17.00218321709543"><ele>347.3333333333333</ele><time>2026-05-04T12:39:24Z</time></trkpt><trkpt lat="44.78148150009224" lon="17.0022051254106"><ele>351.6666666666667</ele><time>2026-05-04T12:39:25Z</time></trkpt><trkpt lat="44.781644043831996" lon="17.00221617213791"><ele>356.0</ele><time>2026-05-04T12:39:26Z</time></trkpt><trkpt lat="44.781805604766504" lon="17.00223119011414"><ele>355.6666666666667</ele><time>2026-05-04T12:39:27Z</time></trkpt><trkpt lat="44.78195846959576" lon="17.0022570032701"><ele>355.3333333333333</ele><time>2026-05-04T12:39:28Z</time></trkpt><trkpt lat="44.78211814634289" lon="17.002289545753523"><ele>355.0</ele><time>2026-05-04T12:39:29Z</time></trkpt><trkpt lat="44.78228060793681" lon="17.002327173780852"><ele>355.0</ele><time>2026-05-04T12:39:30Z</time></trkpt><trkpt lat="44.78244482316311" lon="17.002368247734694"><ele>355.0</ele><time>2026-05-04T12:39:31Z</time></trkpt><trkpt lat="44.78260227258269" lon="17.00241237432214"><ele>355.0</ele><time>2026-05-04T12:39:32Z</time></trkpt><trkpt lat="44.782758545085784" lon="17.00245129276176"><ele>352.66666666666663</ele><time>2026-05-04T12:39:33Z</time></trkpt><trkpt lat="44.78291460401235" lon="17.00248351338261"><ele>350.3333333333333</ele><time>2026-05-04T12:39:34Z</time></trkpt><trkpt lat="44.783074374344885" lon="17.00251134767053"><ele>348.0</ele><time>2026-05-04T12:39:35Z</time></trkpt><trkpt lat="44.78322406816466" lon="17.002494303195874"><ele>346.3333333333333</ele><time>2026-05-04T12:39:36Z</time></trkpt><trkpt lat="44.78336902625097" lon="17.00244698311812"><ele>344.66666666666663</ele><time>2026-05-04T12:39:37Z</time></trkpt><trkpt lat="44.78351046270435" lon="17.00234914450572"><ele>343.0</ele><time>2026-05-04T12:39:38Z</time></trkpt><trkpt lat="44.78364350990483" lon="17.002238062519833"><ele>343.0</ele><time>2026-05-04T12:39:39Z</time></trkpt><trkpt lat="44.78377637907374" lon="17.002124158185364"><ele>343.0</ele><time>2026-05-04T12:39:40Z</time></trkpt><trkpt lat="44.783913249395965" lon="17.002019228253168"><ele>343.0</ele><time>2026-05-04T12:39:41Z</time></trkpt><trkpt lat="44.78406021089817" lon="17.001939258963542"><ele>343.0</ele><time>2026-05-04T12:39:42Z</time></trkpt><trkpt lat="44.78421263962263" lon="17.001887863397506"><ele>343.0</ele><time>2026-05-04T12:39:43Z</time></trkpt><trkpt lat="44.784364125154184" lon="17.001859511767723"><ele>343.0</ele><time>2026-05-04T12:39:44Z</time></trkpt><trkpt lat="44.78451675792893" lon="17.001840801693128"><ele>343.66666666666663</ele><time>2026-05-04T12:39:45Z</time></trkpt><trkpt lat="44.784668722557946" lon="17.001820118808798"><ele>344.3333333333333</ele><time>2026-05-04T12:39:46Z</time></trkpt><trkpt lat="44.78482494220448" lon="17.001786527263775"><ele>345.0</ele><time>2026-05-04T12:39:47Z</time></trkpt><trkpt lat="44.784985629248304" lon="17.0017336016471"><ele>343.3333333333333</ele><time>2026-05-04T12:39:48Z</time></trkpt><trkpt lat="44.78514611811127" lon="17.001664750381355"><ele>341.66666666666663</ele><time>2026-05-04T12:39:49Z</time></trkpt><trkpt lat="44.78531037666814" lon="17.001584371093887"><ele>340.0</ele><time>2026-05-04T12:39:50Z</time></trkpt><trkpt lat="44.78546749585028" lon="17.00148825493049"><ele>342.75</ele><time>2026-05-04T12:39:51Z</time></trkpt><trkpt lat="44.785611372097584" lon="17.001380721130097"><ele>345.5</ele><time>2026-05-04T12:39:52Z</time></trkpt><trkpt lat="44.78573386309094" lon="17.001274392995395"><ele>348.25</ele><time>2026-05-04T12:39:53Z</time></trkpt><trkpt lat="44.78584452603633" lon="17.001171959045507"><ele>351.0</ele><time>2026-05-04T12:39:54Z</time></trkpt><trkpt lat="44.78595091283894" lon="17.001053707188294"><ele>346.6666666666667</ele><time>2026-05-04T12:39:55Z</time></trkpt><trkpt lat="44.786048114393026" lon="17.000908029821964"><ele>342.33333333333337</ele><time>2026-05-04T12:39:56Z</time></trkpt><trkpt lat="44.78612900623513" lon="17.00072242152393"><ele>338.0</ele><time>2026-05-04T12:39:57Z</time></trkpt><trkpt lat="44.78619185981108" lon="17.000511139348088"><ele>338.0</ele><time>2026-05-04T12:39:58Z</time></trkpt><trkpt lat="44.78624703490226" lon="17.000302046333438"><ele>338.0</ele><time>2026-05-04T12:39:59Z</time></trkpt><trkpt lat="44.786312132406316" lon="17.00009045269122"><ele>338.0</ele><time>2026-05-04T12:40:00Z</time></trkpt><trkpt lat="44.786380719351556" lon="16.999877206966094"><ele>338.0</ele><time>2026-05-04T12:40:01Z</time></trkpt><trkpt lat="44.78646268062999" lon="16.9996588237223"><ele>338.0</ele><time>2026-05-04T12:40:02Z</time></trkpt><trkpt lat="44.78656521185745" lon="16.99945167248517"><ele>338.0</ele><time>2026-05-04T12:40:03Z</time></trkpt><trkpt lat="44.78668331843054" lon="16.999243097883337"><ele>337.33333333333337</ele><time>2026-05-04T12:40:04Z</time></trkpt><trkpt lat="44.78681498800448" lon="16.999028229239006"><ele>336.6666666666667</ele><time>2026-05-04T12:40:05Z</time></trkpt><trkpt lat="44.78695248867698" lon="16.998830233228258"><ele>336.0</ele><time>2026-05-04T12:40:06Z</time></trkpt><trkpt lat="44.78709083239253" lon="16.998657786693727"><ele>336.0</ele><time>2026-05-04T12:40:07Z</time></trkpt><trkpt lat="44.78722836285323" lon="16.998506078771907"><ele>336.0</ele><time>2026-05-04T12:40:08Z</time></trkpt><trkpt lat="44.78735334697074" lon="16.998350453086143"><ele>336.0</ele><time>2026-05-04T12:40:09Z</time></trkpt><trkpt lat="44.78745128473439" lon="16.9981830286313"><ele>336.0</ele><time>2026-05-04T12:40:10Z</time></trkpt><trkpt lat="44.7875214590249" lon="16.997996952699072"><ele>336.0</ele><time>2026-05-04T12:40:11Z</time></trkpt><trkpt lat="44.78757245733481" lon="16.997807918361765"><ele>336.0</ele><time>2026-05-04T12:40:12Z</time></trkpt><trkpt lat="44.78761990159396" lon="16.997631915924774"><ele>336.0</ele><time>2026-05-04T12:40:13Z</time></trkpt><trkpt lat="44.78767708252293" lon="16.997475610341045"><ele>335.20000000000005</ele><time>2026-05-04T12:40:14Z</time></trkpt><trkpt lat="44.78774440590227" lon="16.997367223294866"><ele>334.40000000000003</ele><time>2026-05-04T12:40:15Z</time></trkpt><trkpt lat="44.78782748903667" lon="16.997321859373915"><ele>333.6</ele><time>2026-05-04T12:40:16Z</time></trkpt><trkpt lat="44.78792372163637" lon="16.997334541704188"><ele>332.8</ele><time>2026-05-04T12:40:17Z</time></trkpt><trkpt lat="44.788030451775654" lon="16.99737908266293"><ele>332.0</ele><time>2026-05-04T12:40:18Z</time></trkpt><trkpt lat="44.788151169776725" lon="16.99743421317971"><ele>332.0</ele><time>2026-05-04T12:40:19Z</time></trkpt><trkpt lat="44.78827594246157" lon="16.997477383274138"><ele>332.0</ele><time>2026-05-04T12:40:20Z</time></trkpt><trkpt lat="44.78840392873721" lon="16.99747175515658"><ele>332.0</ele><time>2026-05-04T12:40:21Z</time></trkpt><trkpt lat="44.78852414253201" lon="16.99740748883589"><ele>332.0</ele><time>2026-05-04T12:40:22Z</time></trkpt><trkpt lat="44.78861984201463" lon="16.99727665489635"><ele>328.33333333333337</ele><time>2026-05-04T12:40:23Z</time></trkpt><trkpt lat="44.78867635569256" lon="16.9970889969818"><ele>324.6666666666667</ele><time>2026-05-04T12:40:24Z</time></trkpt><trkpt lat="44.78872359403129" lon="16.996873366549217"><ele>321.0</ele><time>2026-05-04T12:40:25Z</time></trkpt><trkpt lat="44.78877730471234" lon="16.996605867273924"><ele>318.5</ele><time>2026-05-04T12:40:26Z</time></trkpt><trkpt lat="44.78884628968079" lon="16.99631934877137"><ele>316.0</ele><time>2026-05-04T12:40:27Z</time></trkpt><trkpt lat="44.78892490355357" lon="16.996006227878826"><ele>316.0</ele><time>2026-05-04T12:40:28Z</time></trkpt><trkpt lat="44.789011648178274" lon="16.995702635288225"><ele>316.0</ele><time>2026-05-04T12:40:29Z</time></trkpt><trkpt lat="44.78911141846723" lon="16.995410177780442"><ele>316.0</ele><time>2026-05-04T12:40:30Z</time></trkpt><trkpt lat="44.78921912217022" lon="16.99515269477744"><ele>316.0</ele><time>2026-05-04T12:40:31Z</time></trkpt><trkpt lat="44.78932750551191" lon="16.994919049453607"><ele>316.0</ele><time>2026-05-04T12:40:32Z</time></trkpt><trkpt lat="44.7894359300441" lon="16.99469752797223"><ele>313.66666666666663</ele><time>2026-05-04T12:40:33Z</time></trkpt><trkpt lat="44.78955867321119" lon="16.994499840827412"><ele>311.3333333333333</ele><time>2026-05-04T12:40:34Z</time></trkpt><trkpt lat="44.78970229038737" lon="16.99433397277582"><ele>309.0</ele><time>2026-05-04T12:40:35Z</time></trkpt><trkpt lat="44.789871019066624" lon="16.994205621479544"><ele>311.0</ele><time>2026-05-04T12:40:36Z</time></trkpt><trkpt lat="44.79005182991" lon="16.994116776912986"><ele>313.0</ele><time>2026-05-04T12:40:37Z</time></trkpt><trkpt lat="44.790228218668986" lon="16.994015068011507"><ele>315.0</ele><time>2026-05-04T12:40:38Z</time></trkpt><trkpt lat="44.79037763042899" lon="16.993915837863213"><ele>315.5</ele><time>2026-05-04T12:40:39Z</time></trkpt><trkpt lat="44.790521669389854" lon="16.99382016091185"><ele>316.0</ele><time>2026-05-04T12:40:40Z</time></trkpt><trkpt lat="44.79065110393586" lon="16.99373227531164"><ele>316.5</ele><time>2026-05-04T12:40:41Z</time></trkpt><trkpt lat="44.79077158178626" lon="16.993624205860723"><ele>317.0</ele><time>2026-05-04T12:40:42Z</time></trkpt><trkpt lat="44.79087760996401" lon="16.993482655732056"><ele>317.6666666666667</ele><time>2026-05-04T12:40:43Z</time></trkpt><trkpt lat="44.79096554793264" lon="16.99330484232414"><ele>318.3333333333333</ele><time>2026-05-04T12:40:44Z</time></trkpt><trkpt lat="44.79104473753055" lon="16.993098861656737"><ele>319.0</ele><time>2026-05-04T12:40:45Z</time></trkpt><trkpt lat="44.79112547580848" lon="16.99287895578709"><ele>316.0</ele><time>2026-05-04T12:40:46Z</time></trkpt><trkpt lat="44.79121557637817" lon="16.992634784239936"><ele>313.0</ele><time>2026-05-04T12:40:47Z</time></trkpt><trkpt lat="44.79131185646567" lon="16.992359107601114"><ele>310.0</ele><time>2026-05-04T12:40:48Z</time></trkpt><trkpt lat="44.79140894519389" lon="16.992062159873498"><ele>310.0</ele><time>2026-05-04T12:40:49Z</time></trkpt><trkpt lat="44.791504879228796" lon="16.991759957917075"><ele>310.0</ele><time>2026-05-04T12:40:50Z</time></trkpt><trkpt lat="44.7915923001531" lon="16.991487734172846"><ele>310.0</ele><time>2026-05-04T12:40:51Z</time></trkpt><trkpt lat="44.79166601239797" lon="16.991256386862865"><ele>308.3333333333333</ele><time>2026-05-04T12:40:52Z</time></trkpt><trkpt lat="44.79174433674323" lon="16.991025312090464"><ele>306.6666666666667</ele><time>2026-05-04T12:40:53Z</time></trkpt><trkpt lat="44.791828639953074" lon="16.990777806706497"><ele>305.0</ele><time>2026-05-04T12:40:54Z</time></trkpt><trkpt lat="44.791912786666124" lon="16.990524904579193"><ele>303.0</ele><time>2026-05-04T12:40:55Z</time></trkpt><trkpt lat="44.79199395148691" lon="16.990270956471143"><ele>301.0</ele><time>2026-05-04T12:40:56Z</time></trkpt><trkpt lat="44.792069306009765" lon="16.990022598785984"><ele>299.0</ele><time>2026-05-04T12:40:57Z</time></trkpt><trkpt lat="44.79214798281313" lon="16.98977448518059"><ele>299.0</ele><time>2026-05-04T12:40:58Z</time></trkpt><trkpt lat="44.79222688108715" lon="16.98953345338734"><ele>299.0</ele><time>2026-05-04T12:40:59Z</time></trkpt><trkpt lat="44.792300612307734" lon="16.98930141283347"><ele>299.0</ele><time>2026-05-04T12:41:00Z</time></trkpt><trkpt lat="44.79236820012674" lon="16.989083876782026"><ele>300.6666666666667</ele><time>2026-05-04T12:41:01Z</time></trkpt><trkpt lat="44.79243259267012" lon="16.98887736695707"><ele>302.3333333333333</ele><time>2026-05-04T12:41:02Z</time></trkpt><trkpt lat="44.79249858284961" lon="16.988660592409314"><ele>304.0</ele><time>2026-05-04T12:41:03Z</time></trkpt><trkpt lat="44.792555806595175" lon="16.988439670945894"><ele>304.0</ele><time>2026-05-04T12:41:04Z</time></trkpt><trkpt lat="44.79259587283944" lon="16.988208325623344"><ele>304.0</ele><time>2026-05-04T12:41:05Z</time></trkpt><trkpt lat="44.792620833404946" lon="16.987964402341916"><ele>304.0</ele><time>2026-05-04T12:41:06Z</time></trkpt><trkpt lat="44.79264050393736" lon="16.9876982227418"><ele>303.66666666666663</ele><time>2026-05-04T12:41:07Z</time></trkpt><trkpt lat="44.79266352673361" lon="16.987420777907637"><ele>303.3333333333333</ele><time>2026-05-04T12:41:08Z</time></trkpt><trkpt lat="44.79266977722259" lon="16.98712206817827"><ele>303.0</ele><time>2026-05-04T12:41:09Z</time></trkpt><trkpt lat="44.792648733545526" lon="16.986824315041797"><ele>302.6666666666667</ele><time>2026-05-04T12:41:10Z</time></trkpt><trkpt lat="44.79261686750558" lon="16.986543372962004"><ele>302.33333333333337</ele><time>2026-05-04T12:41:11Z</time></trkpt><trkpt lat="44.79258128862082" lon="16.98628026024862"><ele>302.0</ele><time>2026-05-04T12:41:12Z</time></trkpt><trkpt lat="44.79253235097083" lon="16.98601604803896"><ele>301.6666666666667</ele><time>2026-05-04T12:41:13Z</time></trkpt><trkpt lat="44.79247683693709" lon="16.985792011191656"><ele>301.3333333333333</ele><time>2026-05-04T12:41:14Z</time></trkpt><trkpt lat="44.792438931655525" lon="16.985577501209537"><ele>301.0</ele><time>2026-05-04T12:41:15Z</time></trkpt><trkpt lat="44.792419074499456" lon="16.98536761357153"><ele>301.0</ele><time>2026-05-04T12:41:16Z</time></trkpt><trkpt lat="44.79241932962108" lon="16.98515482520414"><ele>301.0</ele><time>2026-05-04T12:41:17Z</time></trkpt><trkpt lat="44.792436573486896" lon="16.984957491978474"><ele>301.0</ele><time>2026-05-04T12:41:18Z</time></trkpt><trkpt lat="44.792471159553" lon="16.984763478316363"><ele>301.0</ele><time>2026-05-04T12:41:19Z</time></trkpt><trkpt lat="44.79251068943242" lon="16.984551378742246"><ele>300.66666666666663</ele><time>2026-05-04T12:41:20Z</time></trkpt><trkpt lat="44.7925460254742" lon="16.98431720528191"><ele>300.3333333333333</ele><time>2026-05-04T12:41:21Z</time></trkpt><trkpt lat="44.792566789297666" lon="16.984059551609135"><ele>300.0</ele><time>2026-05-04T12:41:22Z</time></trkpt><trkpt lat="44.792570202827584" lon="16.983794199812902"><ele>298.0</ele><time>2026-05-04T12:41:23Z</time></trkpt><trkpt lat="44.79255897025849" lon="16.983504873824998"><ele>296.0</ele><time>2026-05-04T12:41:24Z</time></trkpt><trkpt lat="44.79254494526216" lon="16.983205135546488"><ele>294.0</ele><time>2026-05-04T12:41:25Z</time></trkpt><trkpt lat="44.792527343086554" lon="16.98289373846955"><ele>294.0</ele><time>2026-05-04T12:41:26Z</time></trkpt><trkpt lat="44.79250517015316" lon="16.982572522981485"><ele>294.0</ele><time>2026-05-04T12:41:27Z</time></trkpt><trkpt lat="44.79247765514932" lon="16.982242842775943"><ele>294.0</ele><time>2026-05-04T12:41:28Z</time></trkpt><trkpt lat="44.792448753422654" lon="16.98190780023589"><ele>294.0</ele><time>2026-05-04T12:41:29Z</time></trkpt><trkpt lat="44.79242671053673" lon="16.981573987386067"><ele>296.5</ele><time>2026-05-04T12:41:30Z</time></trkpt><trkpt lat="44.792402854483775" lon="16.981245794686462"><ele>299.0</ele><time>2026-05-04T12:41:31Z</time></trkpt><trkpt lat="44.79237037784212" lon="16.98093160996252"><ele>300.0</ele><time>2026-05-04T12:41:32Z</time></trkpt><trkpt lat="44.792327774456275" lon="16.980629614403384"><ele>301.0</ele><time>2026-05-04T12:41:33Z</time></trkpt><trkpt lat="44.792281431947345" lon="16.980332569947674"><ele>302.0</ele><time>2026-05-04T12:41:34Z</time></trkpt><trkpt lat="44.79223918191232" lon="16.98005824602076"><ele>301.33333333333337</ele><time>2026-05-04T12:41:35Z</time></trkpt><trkpt lat="44.79220888324758" lon="16.97978874103899"><ele>300.6666666666667</ele><time>2026-05-04T12:41:36Z</time></trkpt><trkpt lat="44.79218676506484" lon="16.979521726864323"><ele>300.0</ele><time>2026-05-04T12:41:37Z</time></trkpt><trkpt lat="44.79217553706458" lon="16.97926025566879"><ele>299.6666666666667</ele><time>2026-05-04T12:41:38Z</time></trkpt><trkpt lat="44.79216889198882" lon="16.979006717747275"><ele>299.33333333333337</ele><time>2026-05-04T12:41:39Z</time></trkpt><trkpt lat="44.79216620758216" lon="16.978769245171065"><ele>299.0</ele><time>2026-05-04T12:41:40Z</time></trkpt><trkpt lat="44.79216898639615" lon="16.97855451349509"><ele>299.0</ele><time>2026-05-04T12:41:41Z</time></trkpt><trkpt lat="44.792201593747265" lon="16.978365273787134"><ele>299.0</ele><time>2026-05-04T12:41:42Z</time></trkpt><trkpt lat="44.792275463977276" lon="16.97822002478099"><ele>299.0</ele><time>2026-05-04T12:41:43Z</time></trkpt><trkpt lat="44.7923782189893" lon="16.97811636608608"><ele>299.0</ele><time>2026-05-04T12:41:44Z</time></trkpt><trkpt lat="44.79249605763066" lon="16.978026760767555"><ele>299.5</ele><time>2026-05-04T12:41:45Z</time></trkpt><trkpt lat="44.79262005122557" lon="16.97794467853902"><ele>300.0</ele><time>2026-05-04T12:41:46Z</time></trkpt><trkpt lat="44.792757472918915" lon="16.9778549225875"><ele>300.5</ele><time>2026-05-04T12:41:47Z</time></trkpt><trkpt lat="44.79289805774986" lon="16.97776370014055"><ele>301.0</ele><time>2026-05-04T12:41:48Z</time></trkpt><trkpt lat="44.79302577703298" lon="16.97767847002782"><ele>300.2</ele><time>2026-05-04T12:41:49Z</time></trkpt><trkpt lat="44.79313660351869" lon="16.977596267368245"><ele>299.40000000000003</ele><time>2026-05-04T12:41:50Z</time></trkpt><trkpt lat="44.793230250185026" lon="16.977515217756537"><ele>298.6</ele><time>2026-05-04T12:41:51Z</time></trkpt><trkpt lat="44.79330931784543" lon="16.977439363006873"><ele>297.8</ele><time>2026-05-04T12:41:52Z</time></trkpt><trkpt lat="44.793367467390404" lon="16.977379282135807"><ele>297.0</ele><time>2026-05-04T12:41:53Z</time></trkpt><trkpt lat="44.793431021904716" lon="16.977307927646766"><ele>297.0</ele><time>2026-05-04T12:41:55Z</time></trkpt><trkpt lat="44.793496170923675" lon="16.977233260807488"><ele>297.0</ele><time>2026-05-04T12:41:58Z</time></trkpt><trkpt lat="44.79351128636721" lon="16.97714673757723"><ele>297.0</ele><time>2026-05-04T12:42:00Z</time></trkpt><trkpt lat="44.79347736479338" lon="16.977057904534977"><ele>297.0</ele><time>2026-05-04T12:42:01Z</time></trkpt><trkpt lat="44.79340914672836" lon="16.97696291724063"><ele>297.0</ele><time>2026-05-04T12:42:02Z</time></trkpt><trkpt lat="44.79333321835672" lon="16.976862157278568"><ele>297.0</ele><time>2026-05-04T12:42:03Z</time></trkpt><trkpt lat="44.79323090789742" lon="16.976744234448518"><ele>295.0</ele><time>2026-05-04T12:42:04Z</time></trkpt><trkpt lat="44.79310812913322" lon="16.976596126372396"><ele>293.0</ele><time>2026-05-04T12:42:05Z</time></trkpt><trkpt lat="44.79297460154739" lon="16.976416061996943"><ele>291.0</ele><time>2026-05-04T12:42:06Z</time></trkpt><trkpt lat="44.79283088726737" lon="16.976224280411618"><ele>291.0</ele><time>2026-05-04T12:42:07Z</time></trkpt><trkpt lat="44.79267958064857" lon="16.976024850948587"><ele>291.0</ele><time>2026-05-04T12:42:08Z</time></trkpt><trkpt lat="44.792517054586575" lon="16.97581133578341"><ele>291.0</ele><time>2026-05-04T12:42:09Z</time></trkpt><trkpt lat="44.792357603793356" lon="16.975603609426276"><ele>291.0</ele><time>2026-05-04T12:42:10Z</time></trkpt><trkpt lat="44.79220727829332" lon="16.97540636602965"><ele>291.0</ele><time>2026-05-04T12:42:11Z</time></trkpt><trkpt lat="44.79206210487461" lon="16.97521542119717"><ele>291.0</ele><time>2026-05-04T12:42:12Z</time></trkpt><trkpt lat="44.79192262407769" lon="16.97502886938743"><ele>289.6666666666667</ele><time>2026-05-04T12:42:13Z</time></trkpt><trkpt lat="44.791787724688646" lon="16.97484684744616"><ele>288.33333333333337</ele><time>2026-05-04T12:42:14Z</time></trkpt><trkpt lat="44.79165537585004" lon="16.974668895565692"><ele>287.0</ele><time>2026-05-04T12:42:15Z</time></trkpt><trkpt lat="44.79151276682117" lon="16.97448236787377"><ele>287.0</ele><time>2026-05-04T12:42:16Z</time></trkpt><trkpt lat="44.7913705641816" lon="16.974295230713494"><ele>287.0</ele><time>2026-05-04T12:42:17Z</time></trkpt><trkpt lat="44.79123383507836" lon="16.97411725815374"><ele>287.0</ele><time>2026-05-04T12:42:18Z</time></trkpt><trkpt lat="44.79110222032135" lon="16.973945802786993"><ele>285.6666666666667</ele><time>2026-05-04T12:42:19Z</time></trkpt><trkpt lat="44.79096816602507" lon="16.97376862822044"><ele>284.3333333333333</ele><time>2026-05-04T12:42:20Z</time></trkpt><trkpt lat="44.790833590335765" lon="16.973594821301493"><ele>283.0</ele><time>2026-05-04T12:42:21Z</time></trkpt><trkpt lat="44.79070146126274" lon="16.973415642609016"><ele>279.3333333333333</ele><time>2026-05-04T12:42:22Z</time></trkpt><trkpt lat="44.79056810761666" lon="16.973236196539787"><ele>275.6666666666667</ele><time>2026-05-04T12:42:23Z</time></trkpt><trkpt lat="44.790433530620184" lon="16.973059131177045"><ele>272.0</ele><time>2026-05-04T12:42:24Z</time></trkpt><trkpt lat="44.79029783245576" lon="16.972885789107067"><ele>272.0</ele><time>2026-05-04T12:42:25Z</time></trkpt><trkpt lat="44.79015617656658" lon="16.972705245232646"><ele>272.0</ele><time>2026-05-04T12:42:26Z</time></trkpt><trkpt lat="44.790007621123856" lon="16.972504353554065"><ele>272.0</ele><time>2026-05-04T12:42:27Z</time></trkpt><trkpt lat="44.789873736430565" lon="16.972295724734337"><ele>272.0</ele><time>2026-05-04T12:42:28Z</time></trkpt><trkpt lat="44.78976146751574" lon="16.972061111465663"><ele>272.0</ele><time>2026-05-04T12:42:29Z</time></trkpt><trkpt lat="44.789683635143135" lon="16.971818454851256"><ele>272.0</ele><time>2026-05-04T12:42:30Z</time></trkpt><trkpt lat="44.789628168523045" lon="16.97156195073538"><ele>269.0</ele><time>2026-05-04T12:42:31Z</time></trkpt><trkpt lat="44.78959708196556" lon="16.97130862819745"><ele>266.0</ele><time>2026-05-04T12:42:32Z</time></trkpt><trkpt lat="44.789591599682815" lon="16.971047786700467"><ele>263.0</ele><time>2026-05-04T12:42:33Z</time></trkpt><trkpt lat="44.78960601220576" lon="16.970798789688594"><ele>262.6666666666667</ele><time>2026-05-04T12:42:34Z</time></trkpt><trkpt lat="44.78964068361387" lon="16.97054508966712"><ele>262.3333333333333</ele><time>2026-05-04T12:42:35Z</time></trkpt><trkpt lat="44.78969803753838" lon="16.97029825492945"><ele>262.0</ele><time>2026-05-04T12:42:36Z</time></trkpt><trkpt lat="44.789782542876246" lon="16.970069797686346"><ele>262.3333333333333</ele><time>2026-05-04T12:42:37Z</time></trkpt><trkpt lat="44.78988910546702" lon="16.969848561343653"><ele>262.6666666666667</ele><time>2026-05-04T12:42:38Z</time></trkpt><trkpt lat="44.79001257320847" lon="16.969640865951256"><ele>263.0</ele><time>2026-05-04T12:42:39Z</time></trkpt><trkpt lat="44.790143374081865" lon="16.96945198283785"><ele>261.6666666666667</ele><time>2026-05-04T12:42:40Z</time></trkpt><trkpt lat="44.790286803203365" lon="16.969302644377798"><ele>260.3333333333333</ele><time>2026-05-04T12:42:41Z</time></trkpt><trkpt lat="44.79045022096573" lon="16.96922338675497"><ele>259.0</ele><time>2026-05-04T12:42:42Z</time></trkpt><trkpt lat="44.7906249736638" lon="16.969159901861854"><ele>259.0</ele><time>2026-05-04T12:42:43Z</time></trkpt><trkpt lat="44.79080428891145" lon="16.96907187583329"><ele>259.0</ele><time>2026-05-04T12:42:44Z</time></trkpt><trkpt lat="44.79097203274333" lon="16.96895061957113"><ele>259.0</ele><time>2026-05-04T12:42:45Z</time></trkpt><trkpt lat="44.79112845003749" lon="16.96880490840454"><ele>255.33333333333331</ele><time>2026-05-04T12:42:46Z</time></trkpt><trkpt lat="44.79126887148411" lon="16.968638359853912"><ele>251.66666666666669</ele><time>2026-05-04T12:42:47Z</time></trkpt><trkpt lat="44.79139505179149" lon="16.96844962499757"><ele>248.0</ele><time>2026-05-04T12:42:48Z</time></trkpt><trkpt lat="44.791495296676516" lon="16.968241992158035"><ele>248.0</ele><time>2026-05-04T12:42:49Z</time></trkpt><trkpt lat="44.791567490332454" lon="16.96799887177776"><ele>248.0</ele><time>2026-05-04T12:42:50Z</time></trkpt><trkpt lat="44.79162124075987" lon="16.96773481224394"><ele>248.0</ele><time>2026-05-04T12:42:51Z</time></trkpt><trkpt lat="44.791671324159196" lon="16.967460651947388"><ele>248.33333333333334</ele><time>2026-05-04T12:42:52Z</time></trkpt><trkpt lat="44.791728138792806" lon="16.967168619521704"><ele>248.66666666666669</ele><time>2026-05-04T12:42:53Z</time></trkpt><trkpt lat="44.7917850145024" lon="16.966860918188225"><ele>249.0</ele><time>2026-05-04T12:42:54Z</time></trkpt><trkpt lat="44.79184695907203" lon="16.96653590461434"><ele>243.5</ele><time>2026-05-04T12:42:55Z</time></trkpt><trkpt lat="44.791911787241126" lon="16.966199702126623"><ele>238.0</ele><time>2026-05-04T12:42:56Z</time></trkpt><trkpt lat="44.7919705779777" lon="16.965868817003084"><ele>240.5</ele><time>2026-05-04T12:42:57Z</time></trkpt><trkpt lat="44.7920213840488" lon="16.96553430309207"><ele>243.0</ele><time>2026-05-04T12:42:58Z</time></trkpt><trkpt lat="44.792056265182005" lon="16.96520063600253"><ele>241.0</ele><time>2026-05-04T12:42:59Z</time></trkpt><trkpt lat="44.79207286321847" lon="16.964865474609525"><ele>239.0</ele><time>2026-05-04T12:43:00Z</time></trkpt><trkpt lat="44.79206166250746" lon="16.96453460969652"><ele>239.0</ele><time>2026-05-04T12:43:01Z</time></trkpt><trkpt lat="44.792030597537085" lon="16.964213216038072"><ele>239.0</ele><time>2026-05-04T12:43:02Z</time></trkpt><trkpt lat="44.791990900344786" lon="16.96390582090712"><ele>237.0</ele><time>2026-05-04T12:43:03Z</time></trkpt><trkpt lat="44.79195427215255" lon="16.963599184200973"><ele>235.0</ele><time>2026-05-04T12:43:04Z</time></trkpt><trkpt lat="44.791903432311884" lon="16.963299757089484"><ele>233.0</ele><time>2026-05-04T12:43:05Z</time></trkpt><trkpt lat="44.79183951426862" lon="16.96301200270383"><ele>232.66666666666669</ele><time>2026-05-04T12:43:06Z</time></trkpt><trkpt lat="44.791753226679596" lon="16.962736757246592"><ele>232.33333333333331</ele><time>2026-05-04T12:43:07Z</time></trkpt><trkpt lat="44.791648994042426" lon="16.962476752638338"><ele>232.0</ele><time>2026-05-04T12:43:08Z</time></trkpt><trkpt lat="44.791525981000234" lon="16.962231843435795"><ele>229.33333333333331</ele><time>2026-05-04T12:43:09Z</time></trkpt><trkpt lat="44.79138287934496" lon="16.96199985626679"><ele>226.66666666666669</ele><time>2026-05-04T12:43:10Z</time></trkpt><trkpt lat="44.79121522023891" lon="16.961794240716706"><ele>224.0</ele><time>2026-05-04T12:43:11Z</time></trkpt><trkpt lat="44.791031697730965" lon="16.961624571718826"><ele>221.0</ele><time>2026-05-04T12:43:12Z</time></trkpt><trkpt lat="44.79084305208248" lon="16.961487829226257"><ele>218.0</ele><time>2026-05-04T12:43:13Z</time></trkpt><trkpt lat="44.79064855765588" lon="16.961380244832004"><ele>215.0</ele><time>2026-05-04T12:43:14Z</time></trkpt><trkpt lat="44.790469441653066" lon="16.961293585695113"><ele>215.0</ele><time>2026-05-04T12:43:15Z</time></trkpt><trkpt lat="44.79029194198922" lon="16.96122679392757"><ele>215.0</ele><time>2026-05-04T12:43:16Z</time></trkpt><trkpt lat="44.790114129733865" lon="16.961196395864967"><ele>215.0</ele><time>2026-05-04T12:43:17Z</time></trkpt><trkpt lat="44.7899366343462" lon="16.961188492045117"><ele>215.0</ele><time>2026-05-04T12:43:18Z</time></trkpt><trkpt lat="44.78975087251267" lon="16.961213526584395"><ele>215.0</ele><time>2026-05-04T12:43:19Z</time></trkpt><trkpt lat="44.789555367735964" lon="16.961255860960456"><ele>215.0</ele><time>2026-05-04T12:43:20Z</time></trkpt><trkpt lat="44.789361132739536" lon="16.96131483487761"><ele>213.33333333333334</ele><time>2026-05-04T12:43:21Z</time></trkpt><trkpt lat="44.78916491848277" lon="16.961396876154904"><ele>211.66666666666669</ele><time>2026-05-04T12:43:22Z</time></trkpt><trkpt lat="44.788955924106105" lon="16.96148337838712"><ele>210.0</ele><time>2026-05-04T12:43:23Z</time></trkpt><trkpt lat="44.78874610260125" lon="16.961567604620342"><ele>210.0</ele><time>2026-05-04T12:43:24Z</time></trkpt><trkpt lat="44.7885394395858" lon="16.96164115209172"><ele>210.0</ele><time>2026-05-04T12:43:25Z</time></trkpt><trkpt lat="44.78833738358827" lon="16.96170302122754"><ele>210.0</ele><time>2026-05-04T12:43:26Z</time></trkpt><trkpt lat="44.788132431327604" lon="16.961743255167026"><ele>207.33333333333331</ele><time>2026-05-04T12:43:27Z</time></trkpt><trkpt lat="44.78793433324631" lon="16.961750939012703"><ele>204.66666666666666</ele><time>2026-05-04T12:43:28Z</time></trkpt><trkpt lat="44.78774218017385" lon="16.961714987334915"><ele>202.0</ele><time>2026-05-04T12:43:29Z</time></trkpt><trkpt lat="44.787554581778494" lon="16.96164506550686"><ele>202.0</ele><time>2026-05-04T12:43:30Z</time></trkpt><trkpt lat="44.787369076625346" lon="16.961560896584427"><ele>202.0</ele><time>2026-05-04T12:43:31Z</time></trkpt><trkpt lat="44.78719464231713" lon="16.961472001500912"><ele>202.0</ele><time>2026-05-04T12:43:32Z</time></trkpt><trkpt lat="44.78702564736553" lon="16.961364854292235"><ele>202.0</ele><time>2026-05-04T12:43:33Z</time></trkpt><trkpt lat="44.78686917141592" lon="16.9612317445236"><ele>202.0</ele><time>2026-05-04T12:43:34Z</time></trkpt><trkpt lat="44.786735347564516" lon="16.961063455571427"><ele>202.0</ele><time>2026-05-04T12:43:35Z</time></trkpt><trkpt lat="44.78661833161709" lon="16.960867246835885"><ele>198.66666666666666</ele><time>2026-05-04T12:43:36Z</time></trkpt><trkpt lat="44.78651883131942" lon="16.960669356604015"><ele>195.33333333333331</ele><time>2026-05-04T12:43:37Z</time></trkpt><trkpt lat="44.78643942327081" lon="16.960462331842095"><ele>192.0</ele><time>2026-05-04T12:43:38Z</time></trkpt><trkpt lat="44.78638770548306" lon="16.960239095573474"><ele>192.0</ele><time>2026-05-04T12:43:39Z</time></trkpt><trkpt lat="44.78633499772146" lon="16.96002169729476"><ele>192.0</ele><time>2026-05-04T12:43:40Z</time></trkpt><trkpt lat="44.78626164740666" lon="16.95985008885903"><ele>192.0</ele><time>2026-05-04T12:43:41Z</time></trkpt><trkpt lat="44.786146486423576" lon="16.959723158071338"><ele>192.66666666666669</ele><time>2026-05-04T12:43:42Z</time></trkpt><trkpt lat="44.78599613713913" lon="16.959654026218484"><ele>193.33333333333334</ele><time>2026-05-04T12:43:43Z</time></trkpt><trkpt lat="44.78581518965641" lon="16.959605039953544"><ele>194.0</ele><time>2026-05-04T12:43:44Z</time></trkpt><trkpt lat="44.78561910275997" lon="16.959556672407146"><ele>194.0</ele><time>2026-05-04T12:43:45Z</time></trkpt><trkpt lat="44.78541902180143" lon="16.95949773147836"><ele>194.0</ele><time>2026-05-04T12:43:46Z</time></trkpt><trkpt lat="44.785197888328774" lon="16.959427952825457"><ele>194.0</ele><time>2026-05-04T12:43:47Z</time></trkpt><trkpt lat="44.7849688764011" lon="16.959349798091775"><ele>193.66666666666669</ele><time>2026-05-04T12:43:48Z</time></trkpt><trkpt lat="44.78475260248606" lon="16.95927727073169"><ele>193.33333333333331</ele><time>2026-05-04T12:43:49Z</time></trkpt><trkpt lat="44.78455027839944" lon="16.95920580994099"><ele>193.0</ele><time>2026-05-04T12:43:50Z</time></trkpt><trkpt lat="44.784352214962105" lon="16.95913919484877"><ele>194.0</ele><time>2026-05-04T12:43:51Z</time></trkpt><trkpt lat="44.784157748083956" lon="16.959062840180945"><ele>195.0</ele><time>2026-05-04T12:43:52Z</time></trkpt><trkpt lat="44.78398250556755" lon="16.958962498841416"><ele>196.0</ele><time>2026-05-04T12:43:53Z</time></trkpt><trkpt lat="44.783820163796975" lon="16.95883038005842"><ele>196.0</ele><time>2026-05-04T12:43:54Z</time></trkpt><trkpt lat="44.783680476035066" lon="16.958658709039206"><ele>196.0</ele><time>2026-05-04T12:43:55Z</time></trkpt><trkpt lat="44.78356800071258" lon="16.958451668978554"><ele>196.0</ele><time>2026-05-04T12:43:56Z</time></trkpt><trkpt lat="44.7834760702809" lon="16.958232190162352"><ele>195.66666666666666</ele><time>2026-05-04T12:43:57Z</time></trkpt><trkpt lat="44.783400928748556" lon="16.957996304365558"><ele>195.33333333333331</ele><time>2026-05-04T12:43:58Z</time></trkpt><trkpt lat="44.7833602672598" lon="16.957753808320074"><ele>195.0</ele><time>2026-05-04T12:43:59Z</time></trkpt><trkpt lat="44.78335046755016" lon="16.95750730413499"><ele>195.66666666666669</ele><time>2026-05-04T12:44:00Z</time></trkpt><trkpt lat="44.78335770194716" lon="16.957265039628773"><ele>196.33333333333334</ele><time>2026-05-04T12:44:01Z</time></trkpt><trkpt lat="44.78337870592486" lon="16.95702790303246"><ele>197.0</ele><time>2026-05-04T12:44:02Z</time></trkpt><trkpt lat="44.78343040090015" lon="16.956798006338417"><ele>197.0</ele><time>2026-05-04T12:44:03Z</time></trkpt><trkpt lat="44.783503089971525" lon="16.956577074728635"><ele>197.0</ele><time>2026-05-04T12:44:04Z</time></trkpt><trkpt lat="44.783584152885396" lon="16.956369254493467"><ele>197.0</ele><time>2026-05-04T12:44:05Z</time></trkpt><trkpt lat="44.78367045789255" lon="16.956162401081492"><ele>200.0</ele><time>2026-05-04T12:44:06Z</time></trkpt><trkpt lat="44.78378315506161" lon="16.955975669037038"><ele>203.0</ele><time>2026-05-04T12:44:07Z</time></trkpt><trkpt lat="44.78393330726602" lon="16.955818923847787"><ele>206.0</ele><time>2026-05-04T12:44:08Z</time></trkpt><trkpt lat="44.78409411278413" lon="16.955674813279494"><ele>206.0</ele><time>2026-05-04T12:44:09Z</time></trkpt><trkpt lat="44.784250593894505" lon="16.955512098607667"><ele>206.0</ele><time>2026-05-04T12:44:10Z</time></trkpt><trkpt lat="44.78440098160969" lon="16.955345223506665"><ele>206.0</ele><time>2026-05-04T12:44:11Z</time></trkpt><trkpt lat="44.784542601107404" lon="16.955176043957977"><ele>210.33333333333334</ele><time>2026-05-04T12:44:12Z</time></trkpt><trkpt lat="44.78464897387701" lon="16.954982524661354"><ele>214.66666666666669</ele><time>2026-05-04T12:44:13Z</time></trkpt><trkpt lat="44.78470419551324" lon="16.95476031461467"><ele>219.0</ele><time>2026-05-04T12:44:14Z</time></trkpt><trkpt lat="44.78471240110787" lon="16.954512537773716"><ele>219.0</ele><time>2026-05-04T12:44:15Z</time></trkpt><trkpt lat="44.784684705519396" lon="16.954267551907556"><ele>219.0</ele><time>2026-05-04T12:44:16Z</time></trkpt><trkpt lat="44.78463300167356" lon="16.954037537470807"><ele>219.0</ele><time>2026-05-04T12:44:17Z</time></trkpt><trkpt lat="44.78454919610223" lon="16.953823139868916"><ele>218.0</ele><time>2026-05-04T12:44:18Z</time></trkpt><trkpt lat="44.78442070290188" lon="16.953629716295648"><ele>217.0</ele><time>2026-05-04T12:44:19Z</time></trkpt><trkpt lat="44.78427586395748" lon="16.953419803051737"><ele>216.0</ele><time>2026-05-04T12:44:20Z</time></trkpt><trkpt lat="44.78412513837392" lon="16.95317700802909"><ele>208.0</ele><time>2026-05-04T12:44:21Z</time></trkpt><trkpt lat="44.78397087829382" lon="16.95291169264857"><ele>200.0</ele><time>2026-05-04T12:44:22Z</time></trkpt><trkpt lat="44.78379684827819" lon="16.952648890405282"><ele>198.0</ele><time>2026-05-04T12:44:23Z</time></trkpt><trkpt lat="44.78360722217577" lon="16.952403552321154"><ele>196.0</ele><time>2026-05-04T12:44:24Z</time></trkpt><trkpt lat="44.78338927036806" lon="16.95216609040697"><ele>196.0</ele><time>2026-05-04T12:44:25Z</time></trkpt><trkpt lat="44.78316171298999" lon="16.951908965713596"><ele>196.0</ele><time>2026-05-04T12:44:26Z</time></trkpt><trkpt lat="44.78294544609737" lon="16.95164781136068"><ele>196.0</ele><time>2026-05-04T12:44:27Z</time></trkpt><trkpt lat="44.782744971480284" lon="16.951382537764598"><ele>196.0</ele><time>2026-05-04T12:44:28Z</time></trkpt><trkpt lat="44.78256818603937" lon="16.951124786630988"><ele>197.0</ele><time>2026-05-04T12:44:29Z</time></trkpt><trkpt lat="44.78241767215862" lon="16.9508548593354"><ele>198.0</ele><time>2026-05-04T12:44:30Z</time></trkpt><trkpt lat="44.78228749007517" lon="16.950567538012436"><ele>198.0</ele><time>2026-05-04T12:44:31Z</time></trkpt><trkpt lat="44.782179115566315" lon="16.9502888548491"><ele>198.0</ele><time>2026-05-04T12:44:32Z</time></trkpt><trkpt lat="44.78207766770971" lon="16.95001672320709"><ele>198.0</ele><time>2026-05-04T12:44:33Z</time></trkpt><trkpt lat="44.78197310385193" lon="16.94975345664858"><ele>198.0</ele><time>2026-05-04T12:44:34Z</time></trkpt><trkpt lat="44.78186895374784" lon="16.949514231099474"><ele>198.0</ele><time>2026-05-04T12:44:35Z</time></trkpt><trkpt lat="44.78178398143277" lon="16.949294633542635"><ele>198.0</ele><time>2026-05-04T12:44:36Z</time></trkpt><trkpt lat="44.7817434420844" lon="16.94909529327387"><ele>198.75</ele><time>2026-05-04T12:44:37Z</time></trkpt><trkpt lat="44.78175835088428" lon="16.948904515888376"><ele>199.5</ele><time>2026-05-04T12:44:38Z</time></trkpt><trkpt lat="44.78182487303172" lon="16.948730196150255"><ele>200.25</ele><time>2026-05-04T12:44:39Z</time></trkpt><trkpt lat="44.78192139347675" lon="16.94857259362538"><ele>201.0</ele><time>2026-05-04T12:44:40Z</time></trkpt><trkpt lat="44.7820422323403" lon="16.948415312551116"><ele>202.0</ele><time>2026-05-04T12:44:41Z</time></trkpt><trkpt lat="44.782190269343516" lon="16.948263346725135"><ele>203.0</ele><time>2026-05-04T12:44:42Z</time></trkpt><trkpt lat="44.78236407911302" lon="16.948127843122315"><ele>204.0</ele><time>2026-05-04T12:44:43Z</time></trkpt><trkpt lat="44.78254802656711" lon="16.948003650918757"><ele>205.33333333333331</ele><time>2026-05-04T12:44:44Z</time></trkpt><trkpt lat="44.78273055572434" lon="16.947864111009945"><ele>206.66666666666666</ele><time>2026-05-04T12:44:45Z</time></trkpt><trkpt lat="44.782890784342804" lon="16.94766746068077"><ele>208.0</ele><time>2026-05-04T12:44:46Z</time></trkpt><trkpt lat="44.78301613517618" lon="16.947426164369794"><ele>208.0</ele><time>2026-05-04T12:44:47Z</time></trkpt><trkpt lat="44.78313394893462" lon="16.94717709216943"><ele>208.0</ele><time>2026-05-04T12:44:48Z</time></trkpt><trkpt lat="44.7832571032432" lon="16.946914249431867"><ele>208.0</ele><time>2026-05-04T12:44:49Z</time></trkpt><trkpt lat="44.78338930710983" lon="16.946643764251665"><ele>209.5</ele><time>2026-05-04T12:44:50Z</time></trkpt><trkpt lat="44.78353018641202" lon="16.946362298757762"><ele>211.0</ele><time>2026-05-04T12:44:51Z</time></trkpt><trkpt lat="44.783668459840236" lon="16.94609041231226"><ele>210.5</ele><time>2026-05-04T12:44:52Z</time></trkpt><trkpt lat="44.78380877432191" lon="16.945817653049527"><ele>210.0</ele><time>2026-05-04T12:44:53Z</time></trkpt><trkpt lat="44.78394926469838" lon="16.94555345144672"><ele>210.0</ele><time>2026-05-04T12:44:54Z</time></trkpt><trkpt lat="44.784087470118" lon="16.945307270907982"><ele>210.0</ele><time>2026-05-04T12:44:55Z</time></trkpt><trkpt lat="44.7842249970617" lon="16.94508977597485"><ele>210.0</ele><time>2026-05-04T12:44:56Z</time></trkpt><trkpt lat="44.78436267710846" lon="16.944930294003377"><ele>210.33333333333331</ele><time>2026-05-04T12:44:57Z</time></trkpt><trkpt lat="44.784511443912734" lon="16.944822352195"><ele>210.66666666666666</ele><time>2026-05-04T12:44:58Z</time></trkpt><trkpt lat="44.784670442543295" lon="16.944763626971532"><ele>211.0</ele><time>2026-05-04T12:44:59Z</time></trkpt><trkpt lat="44.78483328342042" lon="16.944707384530854"><ele>211.0</ele><time>2026-05-04T12:45:00Z</time></trkpt><trkpt lat="44.784996980470964" lon="16.944638364916276"><ele>211.0</ele><time>2026-05-04T12:45:01Z</time></trkpt><trkpt lat="44.78515094189761" lon="16.944535620289766"><ele>211.0</ele><time>2026-05-04T12:45:02Z</time></trkpt><trkpt lat="44.78528873883682" lon="16.94440444890108"><ele>210.66666666666666</ele><time>2026-05-04T12:45:03Z</time></trkpt><trkpt lat="44.785410016201595" lon="16.94423931971278"><ele>210.33333333333331</ele><time>2026-05-04T12:45:04Z</time></trkpt><trkpt lat="44.785500444137575" lon="16.9440357831564"><ele>210.0</ele><time>2026-05-04T12:45:05Z</time></trkpt><trkpt lat="44.785568292275805" lon="16.943805698340658"><ele>210.0</ele><time>2026-05-04T12:45:06Z</time></trkpt><trkpt lat="44.7856136605079" lon="16.94355462197271"><ele>210.0</ele><time>2026-05-04T12:45:07Z</time></trkpt><trkpt lat="44.78565457990476" lon="16.94328298412557"><ele>210.0</ele><time>2026-05-04T12:45:08Z</time></trkpt><trkpt lat="44.78570897349974" lon="16.942989226094685"><ele>209.66666666666669</ele><time>2026-05-04T12:45:09Z</time></trkpt><trkpt lat="44.785775428790565" lon="16.94269436035772"><ele>209.33333333333334</ele><time>2026-05-04T12:45:10Z</time></trkpt><trkpt lat="44.78584265415252" lon="16.94241488841027"><ele>209.0</ele><time>2026-05-04T12:45:11Z</time></trkpt><trkpt lat="44.78592825363559" lon="16.942148859274464"><ele>209.66666666666669</ele><time>2026-05-04T12:45:12Z</time></trkpt><trkpt lat="44.78604652306621" lon="16.941912183336107"><ele>210.33333333333331</ele><time>2026-05-04T12:45:13Z</time></trkpt><trkpt lat="44.786169102879796" lon="16.94168607635073"><ele>211.0</ele><time>2026-05-04T12:45:14Z</time></trkpt><trkpt lat="44.78628283931413" lon="16.941446496681284"><ele>211.0</ele><time>2026-05-04T12:45:15Z</time></trkpt><trkpt lat="44.78636489161967" lon="16.94119327446963"><ele>211.0</ele><time>2026-05-04T12:45:16Z</time></trkpt><trkpt lat="44.7863955882238" lon="16.940930828637345"><ele>211.0</ele><time>2026-05-04T12:45:17Z</time></trkpt><trkpt lat="44.78639135840342" lon="16.940676203382303"><ele>211.33333333333331</ele><time>2026-05-04T12:45:18Z</time></trkpt><trkpt lat="44.78635289415438" lon="16.94043928016088"><ele>211.66666666666669</ele><time>2026-05-04T12:45:19Z</time></trkpt><trkpt lat="44.78628390837904" lon="16.9402085605725"><ele>212.0</ele><time>2026-05-04T12:45:20Z</time></trkpt><trkpt lat="44.786183419697664" lon="16.939998815766113"><ele>212.0</ele><time>2026-05-04T12:45:21Z</time></trkpt><trkpt lat="44.78607680822486" lon="16.93979095018291"><ele>212.0</ele><time>2026-05-04T12:45:22Z</time></trkpt><trkpt lat="44.78597977710565" lon="16.93955383620302"><ele>212.0</ele><time>2026-05-04T12:45:23Z</time></trkpt><trkpt lat="44.78588982289536" lon="16.939326452158028"><ele>209.0</ele><time>2026-05-04T12:45:24Z</time></trkpt><trkpt lat="44.78579467519283" lon="16.93908787381614"><ele>206.0</ele><time>2026-05-04T12:45:25Z</time></trkpt><trkpt lat="44.78570802296689" lon="16.938840762086436"><ele>203.0</ele><time>2026-05-04T12:45:26Z</time></trkpt><trkpt lat="44.78563673885315" lon="16.93858370379512"><ele>204.0</ele><time>2026-05-04T12:45:27Z</time></trkpt><trkpt lat="44.785576950517054" lon="16.9383377515658"><ele>205.0</ele><time>2026-05-04T12:45:28Z</time></trkpt><trkpt lat="44.78553788011293" lon="16.938111130774097"><ele>206.0</ele><time>2026-05-04T12:45:29Z</time></trkpt><trkpt lat="44.78551478969468" lon="16.9378839258081"><ele>206.0</ele><time>2026-05-04T12:45:30Z</time></trkpt><trkpt lat="44.785508781784465" lon="16.937656719240348"><ele>206.0</ele><time>2026-05-04T12:45:31Z</time></trkpt><trkpt lat="44.78550411890263" lon="16.937419739754738"><ele>206.0</ele><time>2026-05-04T12:45:32Z</time></trkpt><trkpt lat="44.78549666776015" lon="16.937184221743593"><ele>206.33333333333334</ele><time>2026-05-04T12:45:33Z</time></trkpt><trkpt lat="44.78549076940888" lon="16.936945699010337"><ele>206.66666666666669</ele><time>2026-05-04T12:45:34Z</time></trkpt><trkpt lat="44.7854889205555" lon="16.936709816676913"><ele>207.0</ele><time>2026-05-04T12:45:35Z</time></trkpt><trkpt lat="44.78548931397547" lon="16.936471345646602"><ele>207.66666666666669</ele><time>2026-05-04T12:45:36Z</time></trkpt><trkpt lat="44.78548995962632" lon="16.936233552190924"><ele>208.33333333333334</ele><time>2026-05-04T12:45:37Z</time></trkpt><trkpt lat="44.7854908259048" lon="16.935994947726318"><ele>209.0</ele><time>2026-05-04T12:45:38Z</time></trkpt><trkpt lat="44.78549020770762" lon="16.935756479010454"><ele>210.33333333333334</ele><time>2026-05-04T12:45:39Z</time></trkpt><trkpt lat="44.78549036549118" lon="16.935522018680476"><ele>211.66666666666669</ele><time>2026-05-04T12:45:40Z</time></trkpt><trkpt lat="44.78548895646681" lon="16.9352868579773"><ele>213.0</ele><time>2026-05-04T12:45:41Z</time></trkpt><trkpt lat="44.78548703448178" lon="16.935049790749026"><ele>213.0</ele><time>2026-05-04T12:45:42Z</time></trkpt><trkpt lat="44.785485988208364" lon="16.93483087258231"><ele>213.0</ele><time>2026-05-04T12:45:43Z</time></trkpt><trkpt lat="44.78549069855258" lon="16.934634272805862"><ele>213.0</ele><time>2026-05-04T12:45:44Z</time></trkpt><trkpt lat="44.78549470563764" lon="16.93443103092924"><ele>213.0</ele><time>2026-05-04T12:45:45Z</time></trkpt><trkpt lat="44.78550211351644" lon="16.93422806993496"><ele>212.75</ele><time>2026-05-04T12:45:46Z</time></trkpt><trkpt lat="44.78551684616255" lon="16.93403364453807"><ele>212.5</ele><time>2026-05-04T12:45:47Z</time></trkpt><trkpt lat="44.785541718725206" lon="16.933849540170996"><ele>212.25</ele><time>2026-05-04T12:45:48Z</time></trkpt><trkpt lat="44.78557024913043" lon="16.933673077210052"><ele>212.0</ele><time>2026-05-04T12:45:49Z</time></trkpt><trkpt lat="44.785597001743106" lon="16.93349292783661"><ele>211.25</ele><time>2026-05-04T12:45:50Z</time></trkpt><trkpt lat="44.78563975258401" lon="16.933333443739972"><ele>210.5</ele><time>2026-05-04T12:45:51Z</time></trkpt><trkpt lat="44.78568101526039" lon="16.93315955647116"><ele>209.75</ele><time>2026-05-04T12:45:52Z</time></trkpt><trkpt lat="44.78572660270471" lon="16.932971679324986"><ele>209.0</ele><time>2026-05-04T12:45:53Z</time></trkpt><trkpt lat="44.78577187689517" lon="16.93278391299923"><ele>209.0</ele><time>2026-05-04T12:45:54Z</time></trkpt><trkpt lat="44.78581505930224" lon="16.932613862877215"><ele>209.0</ele><time>2026-05-04T12:45:55Z</time></trkpt><trkpt lat="44.78585970337802" lon="16.93246158988182"><ele>209.0</ele><time>2026-05-04T12:45:56Z</time></trkpt><trkpt lat="44.78590027724892" lon="16.932355137173413"><ele>209.0</ele><time>2026-05-04T12:45:57Z</time></trkpt><trkpt lat="44.785943175121155" lon="16.932244079647692"><ele>209.0</ele><time>2026-05-04T12:45:59Z</time></trkpt><trkpt lat="44.78594513474423" lon="16.932149567668375"><ele>209.25</ele><time>2026-05-04T12:47:16Z</time></trkpt><trkpt lat="44.78598061542821" lon="16.932021646003218"><ele>209.5</ele><time>2026-05-04T12:47:17Z</time></trkpt><trkpt lat="44.7860259906148" lon="16.93185190387909"><ele>209.75</ele><time>2026-05-04T12:47:18Z</time></trkpt><trkpt lat="44.78607752973429" lon="16.931644000139116"><ele>210.0</ele><time>2026-05-04T12:47:19Z</time></trkpt><trkpt lat="44.786128140710034" lon="16.931430077947617"><ele>210.0</ele><time>2026-05-04T12:47:20Z</time></trkpt><trkpt lat="44.786173280091354" lon="16.93123118084861"><ele>210.0</ele><time>2026-05-04T12:47:21Z</time></trkpt><trkpt lat="44.78621653936394" lon="16.93104577819054"><ele>210.0</ele><time>2026-05-04T12:47:22Z</time></trkpt><trkpt lat="44.78625701070568" lon="16.930872744277718"><ele>210.0</ele><time>2026-05-04T12:47:23Z</time></trkpt><trkpt lat="44.786323818665934" lon="16.93071724286181"><ele>210.0</ele><time>2026-05-04T12:47:24Z</time></trkpt><trkpt lat="44.786357305310084" lon="16.930565549669456"><ele>210.0</ele><time>2026-05-04T12:47:25Z</time></trkpt><trkpt lat="44.78638694854498" lon="16.930431266971812"><ele>210.0</ele><time>2026-05-04T12:47:26Z</time></trkpt><trkpt lat="44.786413825338116" lon="16.93030971027497"><ele>210.0</ele><time>2026-05-04T12:47:27Z</time></trkpt><trkpt lat="44.786437229315155" lon="16.930204250152098"><ele>210.0</ele><time>2026-05-04T12:47:28Z</time></trkpt><trkpt lat="44.786457884280914" lon="16.93011117727926"><ele>210.2</ele><time>2026-05-04T12:47:29Z</time></trkpt><trkpt lat="44.78648474515921" lon="16.929990140086726"><ele>210.4</ele><time>2026-05-04T12:47:31Z</time></trkpt><trkpt lat="44.78632259067281" lon="16.929832353957657"><ele>210.60000000000002</ele><time>2026-05-04T12:47:51Z</time></trkpt><trkpt lat="44.78626534983683" lon="16.929888447928757"><ele>210.8</ele><time>2026-05-04T12:50:53Z</time></trkpt><trkpt lat="44.78621208658017" lon="16.92994322234694"><ele>211.0</ele><time>2026-05-04T12:50:57Z</time></trkpt><trkpt lat="44.78628291075924" lon="16.929924948124878"><ele>211.0</ele><time>2026-05-04T12:51:34Z</time></trkpt><trkpt lat="44.78632539017895" lon="16.929857715094737"><ele>211.0</ele><time>2026-05-04T12:51:46Z</time></trkpt><trkpt lat="44.78645130343584" lon="16.929914950849657"><ele>211.0</ele><time>2026-05-04T12:56:44Z</time></trkpt><trkpt lat="44.7865116627086" lon="16.92972716960428"><ele>211.0</ele><time>2026-05-04T12:56:46Z</time></trkpt><trkpt lat="44.78653724593088" lon="16.929558452793458"><ele>211.0</ele><time>2026-05-04T12:56:47Z</time></trkpt><trkpt lat="44.78659187780501" lon="16.92935554599295"><ele>211.0</ele><time>2026-05-04T12:56:48Z</time></trkpt><trkpt lat="44.78669471205991" lon="16.92916189449977"><ele>211.0</ele><time>2026-05-04T12:56:49Z</time></trkpt><trkpt lat="44.78676720457603" lon="16.928946975007957"><ele>212.66666666666666</ele><time>2026-05-04T12:56:50Z</time></trkpt><trkpt lat="44.7868504185064" lon="16.928734271905107"><ele>214.33333333333331</ele><time>2026-05-04T12:56:51Z</time></trkpt><trkpt lat="44.786936049802314" lon="16.928515389769842"><ele>216.0</ele><time>2026-05-04T12:56:52Z</time></trkpt><trkpt lat="44.787021246490596" lon="16.9282978388829"><ele>216.0</ele><time>2026-05-04T12:56:53Z</time></trkpt><trkpt lat="44.78711341918319" lon="16.928062257097764"><ele>216.0</ele><time>2026-05-04T12:56:54Z</time></trkpt><trkpt lat="44.78720698041598" lon="16.92782385683858"><ele>216.0</ele><time>2026-05-04T12:56:55Z</time></trkpt><trkpt lat="44.78730452215035" lon="16.927572214424575"><ele>214.66666666666669</ele><time>2026-05-04T12:56:56Z</time></trkpt><trkpt lat="44.787404830277" lon="16.92732309449976"><ele>213.33333333333334</ele><time>2026-05-04T12:56:57Z</time></trkpt><trkpt lat="44.787514992261215" lon="16.927082853362194"><ele>212.0</ele><time>2026-05-04T12:56:58Z</time></trkpt><trkpt lat="44.78763642892076" lon="16.92687712568619"><ele>214.0</ele><time>2026-05-04T12:56:59Z</time></trkpt><trkpt lat="44.7877620367843" lon="16.926665138104916"><ele>216.0</ele><time>2026-05-04T12:57:00Z</time></trkpt><trkpt lat="44.787913728036656" lon="16.92645985491904"><ele>218.0</ele><time>2026-05-04T12:57:01Z</time></trkpt><trkpt lat="44.78809361317819" lon="16.92624419528471"><ele>218.0</ele><time>2026-05-04T12:57:02Z</time></trkpt><trkpt lat="44.788304624738295" lon="16.926007194384457"><ele>218.0</ele><time>2026-05-04T12:57:03Z</time></trkpt><trkpt lat="44.78851650996148" lon="16.925746868392427"><ele>218.0</ele><time>2026-05-04T12:57:04Z</time></trkpt><trkpt lat="44.78871627990956" lon="16.92545671607914"><ele>218.0</ele><time>2026-05-04T12:57:05Z</time></trkpt><trkpt lat="44.78891632840743" lon="16.92515202160779"><ele>216.5</ele><time>2026-05-04T12:57:06Z</time></trkpt><trkpt lat="44.78912461447239" lon="16.924866447303017"><ele>215.0</ele><time>2026-05-04T12:57:07Z</time></trkpt><trkpt lat="44.789296372513284" lon="16.924579093746853"><ele>217.0</ele><time>2026-05-04T12:57:08Z</time></trkpt><trkpt lat="44.78944524492659" lon="16.92430365499424"><ele>219.0</ele><time>2026-05-04T12:57:09Z</time></trkpt><trkpt lat="44.789580379353964" lon="16.924040198182695"><ele>219.0</ele><time>2026-05-04T12:57:10Z</time></trkpt><trkpt lat="44.78970333889014" lon="16.923796403542642"><ele>219.0</ele><time>2026-05-04T12:57:11Z</time></trkpt><trkpt lat="44.78981986854673" lon="16.923577911730625"><ele>219.0</ele><time>2026-05-04T12:57:12Z</time></trkpt><trkpt lat="44.78993884598627" lon="16.923376673455802"><ele>218.66666666666669</ele><time>2026-05-04T12:57:13Z</time></trkpt><trkpt lat="44.790071365777955" lon="16.92322853085396"><ele>218.33333333333334</ele><time>2026-05-04T12:57:14Z</time></trkpt><trkpt lat="44.790202968359516" lon="16.923114958632315"><ele>218.0</ele><time>2026-05-04T12:57:15Z</time></trkpt><trkpt lat="44.79033998859064" lon="16.923008919958534"><ele>218.0</ele><time>2026-05-04T12:57:16Z</time></trkpt><trkpt lat="44.790481079018676" lon="16.922942906175216"><ele>218.0</ele><time>2026-05-04T12:57:17Z</time></trkpt><trkpt lat="44.790632063686225" lon="16.922864418187675"><ele>218.0</ele><time>2026-05-04T12:57:18Z</time></trkpt><trkpt lat="44.79078297239114" lon="16.92278659027246"><ele>218.0</ele><time>2026-05-04T12:57:19Z</time></trkpt><trkpt lat="44.79093159775751" lon="16.92270976871265"><ele>218.0</ele><time>2026-05-04T12:57:20Z</time></trkpt><trkpt lat="44.79107794413502" lon="16.92263373131826"><ele>218.0</ele><time>2026-05-04T12:57:21Z</time></trkpt><trkpt lat="44.79123074267094" lon="16.92255420795087"><ele>217.66666666666669</ele><time>2026-05-04T12:57:22Z</time></trkpt><trkpt lat="44.791385936509045" lon="16.92247290557775"><ele>217.33333333333331</ele><time>2026-05-04T12:57:23Z</time></trkpt><trkpt lat="44.79154986512021" lon="16.922386174819117"><ele>217.0</ele><time>2026-05-04T12:57:24Z</time></trkpt><trkpt lat="44.79171229970839" lon="16.922300234699843"><ele>218.33333333333331</ele><time>2026-05-04T12:57:25Z</time></trkpt><trkpt lat="44.79187276090405" lon="16.92221533865245"><ele>219.66666666666669</ele><time>2026-05-04T12:57:26Z</time></trkpt><trkpt lat="44.79200714413614" lon="16.922128850510788"><ele>221.0</ele><time>2026-05-04T12:57:27Z</time></trkpt><trkpt lat="44.79200122039557" lon="16.92167055196315"><ele>221.0</ele><time>2026-05-04T12:57:28Z</time></trkpt><trkpt lat="44.79204871244051" lon="16.92147702500197"><ele>221.0</ele><time>2026-05-04T12:57:29Z</time></trkpt><trkpt lat="44.792111039202425" lon="16.92129950392923"><ele>221.0</ele><time>2026-05-04T12:57:30Z</time></trkpt><trkpt lat="44.79220012886804" lon="16.921154647322723"><ele>221.0</ele><time>2026-05-04T12:57:31Z</time></trkpt><trkpt lat="44.79231987615376" lon="16.92106929899193"><ele>221.0</ele><time>2026-05-04T12:57:32Z</time></trkpt><trkpt lat="44.79245736176756" lon="16.9210484434895"><ele>221.0</ele><time>2026-05-04T12:57:33Z</time></trkpt><trkpt lat="44.792596782667" lon="16.921064575142584"><ele>221.0</ele><time>2026-05-04T12:57:34Z</time></trkpt><trkpt lat="44.79273180241495" lon="16.921068762802452"><ele>221.0</ele><time>2026-05-04T12:57:35Z</time></trkpt><trkpt lat="44.79287492163757" lon="16.92103571609403"><ele>222.66666666666669</ele><time>2026-05-04T12:57:36Z</time></trkpt><trkpt lat="44.79301272811902" lon="16.920948624200193"><ele>224.33333333333331</ele><time>2026-05-04T12:57:37Z</time></trkpt><trkpt lat="44.79313010140419" lon="16.92080320830197"><ele>226.0</ele><time>2026-05-04T12:57:38Z</time></trkpt><trkpt lat="44.79322479615913" lon="16.920615293655608"><ele>226.0</ele><time>2026-05-04T12:57:39Z</time></trkpt><trkpt lat="44.79328885726196" lon="16.920403537198194"><ele>226.0</ele><time>2026-05-04T12:57:40Z</time></trkpt><trkpt lat="44.79334667556078" lon="16.920205647682632"><ele>226.0</ele><time>2026-05-04T12:57:41Z</time></trkpt><trkpt lat="44.79343696049542" lon="16.920044824035593"><ele>225.75</ele><time>2026-05-04T12:57:42Z</time></trkpt><trkpt lat="44.79355521159081" lon="16.919943402693555"><ele>225.5</ele><time>2026-05-04T12:57:43Z</time></trkpt><trkpt lat="44.7936928730393" lon="16.919874269063648"><ele>225.25</ele><time>2026-05-04T12:57:44Z</time></trkpt><trkpt lat="44.793849908399324" lon="16.919831802022564"><ele>225.0</ele><time>2026-05-04T12:57:45Z</time></trkpt><trkpt lat="44.79400738864518" lon="16.919796276967237"><ele>225.0</ele><time>2026-05-04T12:57:46Z</time></trkpt><trkpt lat="44.794163795174164" lon="16.91973390224273"><ele>225.0</ele><time>2026-05-04T12:57:47Z</time></trkpt><trkpt lat="44.79431438785982" lon="16.91962470109411"><ele>225.0</ele><time>2026-05-04T12:57:48Z</time></trkpt><trkpt lat="44.794451816524926" lon="16.91946389087355"><ele>224.33333333333331</ele><time>2026-05-04T12:57:49Z</time></trkpt><trkpt lat="44.79455742050362" lon="16.919260242254072"><ele>223.66666666666666</ele><time>2026-05-04T12:57:50Z</time></trkpt><trkpt lat="44.794628919627286" lon="16.91901724118798"><ele>223.0</ele><time>2026-05-04T12:57:51Z</time></trkpt><trkpt lat="44.794675341549166" lon="16.91874296727504"><ele>223.0</ele><time>2026-05-04T12:57:52Z</time></trkpt><trkpt lat="44.79469831256481" lon="16.91846247690262"><ele>223.0</ele><time>2026-05-04T12:57:53Z</time></trkpt><trkpt lat="44.79471619670707" lon="16.918213461840754"><ele>223.0</ele><time>2026-05-04T12:57:54Z</time></trkpt><trkpt lat="44.794739027141475" lon="16.917988238641126"><ele>222.66666666666666</ele><time>2026-05-04T12:57:55Z</time></trkpt><trkpt lat="44.79476502964208" lon="16.917762139708"><ele>222.33333333333331</ele><time>2026-05-04T12:57:56Z</time></trkpt><trkpt lat="44.79480660588014" lon="16.917543161468746"><ele>222.0</ele><time>2026-05-04T12:57:57Z</time></trkpt><trkpt lat="44.794879277653116" lon="16.91734717697441"><ele>222.0</ele><time>2026-05-04T12:57:58Z</time></trkpt><trkpt lat="44.79498873938145" lon="16.917180578977035"><ele>222.0</ele><time>2026-05-04T12:57:59Z</time></trkpt><trkpt lat="44.79511850724612" lon="16.917033293375855"><ele>222.0</ele><time>2026-05-04T12:58:00Z</time></trkpt><trkpt lat="44.79525997812932" lon="16.916903342894777"><ele>223.0</ele><time>2026-05-04T12:58:01Z</time></trkpt><trkpt lat="44.7954098133149" lon="16.916778757473658"><ele>224.0</ele><time>2026-05-04T12:58:02Z</time></trkpt><trkpt lat="44.79555180276324" lon="16.9166536330938"><ele>225.0</ele><time>2026-05-04T12:58:03Z</time></trkpt><trkpt lat="44.7956819220041" lon="16.916504039252434"><ele>223.0</ele><time>2026-05-04T12:58:04Z</time></trkpt><trkpt lat="44.79578887191431" lon="16.916320184751054"><ele>221.0</ele><time>2026-05-04T12:58:05Z</time></trkpt><trkpt lat="44.79586258473973" lon="16.91610094002532"><ele>219.0</ele><time>2026-05-04T12:58:06Z</time></trkpt><trkpt lat="44.795907728845116" lon="16.915860504521223"><ele>219.0</ele><time>2026-05-04T12:58:07Z</time></trkpt><trkpt lat="44.795928132724754" lon="16.915616016214077"><ele>219.0</ele><time>2026-05-04T12:58:08Z</time></trkpt><trkpt lat="44.79593457674219" lon="16.91537028702001"><ele>219.0</ele><time>2026-05-04T12:58:09Z</time></trkpt><trkpt lat="44.79593570119355" lon="16.915121434266226"><ele>220.33333333333331</ele><time>2026-05-04T12:58:10Z</time></trkpt><trkpt lat="44.79594326470113" lon="16.914863636967794"><ele>221.66666666666666</ele><time>2026-05-04T12:58:11Z</time></trkpt><trkpt lat="44.79595666381707" lon="16.914611638014392"><ele>223.0</ele><time>2026-05-04T12:58:12Z</time></trkpt><trkpt lat="44.79597051119445" lon="16.914358286006383"><ele>222.66666666666666</ele><time>2026-05-04T12:58:13Z</time></trkpt><trkpt lat="44.79598139390397" lon="16.91411342905188"><ele>222.33333333333331</ele><time>2026-05-04T12:58:14Z</time></trkpt><trkpt lat="44.79599422456034" lon="16.91387465919622"><ele>222.0</ele><time>2026-05-04T12:58:15Z</time></trkpt><trkpt lat="44.79601279635183" lon="16.913630238279868"><ele>224.33333333333331</ele><time>2026-05-04T12:58:16Z</time></trkpt><trkpt lat="44.79605062312819" lon="16.913392417042473"><ele>226.66666666666666</ele><time>2026-05-04T12:58:17Z</time></trkpt><trkpt lat="44.79610700173084" lon="16.91315450418761"><ele>229.0</ele><time>2026-05-04T12:58:18Z</time></trkpt><trkpt lat="44.79617908191374" lon="16.91291541929852"><ele>229.0</ele><time>2026-05-04T12:58:19Z</time></trkpt><trkpt lat="44.796251878140076" lon="16.912681430076034"><ele>229.0</ele><time>2026-05-04T12:58:20Z</time></trkpt><trkpt lat="44.79632357938719" lon="16.912438349258007"><ele>229.0</ele><time>2026-05-04T12:58:21Z</time></trkpt><trkpt lat="44.79639544745825" lon="16.912197371951862"><ele>228.33333333333331</ele><time>2026-05-04T12:58:22Z</time></trkpt><trkpt lat="44.79647076208099" lon="16.911955743644185"><ele>227.66666666666669</ele><time>2026-05-04T12:58:23Z</time></trkpt><trkpt lat="44.796546193348696" lon="16.911716129350406"><ele>227.0</ele><time>2026-05-04T12:58:24Z</time></trkpt><trkpt lat="44.796622582690276" lon="16.91146723356063"><ele>225.33333333333334</ele><time>2026-05-04T12:58:25Z</time></trkpt><trkpt lat="44.796695736825576" lon="16.911215606559004"><ele>223.66666666666669</ele><time>2026-05-04T12:58:26Z</time></trkpt><trkpt lat="44.796755350998886" lon="16.910957006116583"><ele>222.0</ele><time>2026-05-04T12:58:27Z</time></trkpt><trkpt lat="44.7968035332763" lon="16.910691720292768"><ele>221.0</ele><time>2026-05-04T12:58:28Z</time></trkpt><trkpt lat="44.79683378618586" lon="16.91042840699333"><ele>220.0</ele><time>2026-05-04T12:58:29Z</time></trkpt><trkpt lat="44.79685475151247" lon="16.91015621508302"><ele>219.0</ele><time>2026-05-04T12:58:30Z</time></trkpt><trkpt lat="44.79687065833856" lon="16.90988114832605"><ele>223.33333333333331</ele><time>2026-05-04T12:58:31Z</time></trkpt><trkpt lat="44.79689134936366" lon="16.909605628131246"><ele>227.66666666666666</ele><time>2026-05-04T12:58:32Z</time></trkpt><trkpt lat="44.79691774075269" lon="16.909325465126134"><ele>232.0</ele><time>2026-05-04T12:58:33Z</time></trkpt><trkpt lat="44.796937800840915" lon="16.909038911429807"><ele>232.0</ele><time>2026-05-04T12:58:34Z</time></trkpt><trkpt lat="44.79693504136416" lon="16.908743507006495"><ele>232.0</ele><time>2026-05-04T12:58:35Z</time></trkpt><trkpt lat="44.79691283880295" lon="16.90843751169211"><ele>232.0</ele><time>2026-05-04T12:58:36Z</time></trkpt><trkpt lat="44.79689579265008" lon="16.908152029839126"><ele>231.33333333333331</ele><time>2026-05-04T12:58:37Z</time></trkpt><trkpt lat="44.79688220594425" lon="16.90788076050821"><ele>230.66666666666669</ele><time>2026-05-04T12:58:38Z</time></trkpt><trkpt lat="44.796872314654244" lon="16.9076049339247"><ele>230.0</ele><time>2026-05-04T12:58:39Z</time></trkpt><trkpt lat="44.79686877545161" lon="16.907312410035765"><ele>230.0</ele><time>2026-05-04T12:58:40Z</time></trkpt><trkpt lat="44.79688422947655" lon="16.90697651074095"><ele>230.0</ele><time>2026-05-04T12:58:41Z</time></trkpt><trkpt lat="44.79691393937075" lon="16.906600612044098"><ele>231.0</ele><time>2026-05-04T12:58:42Z</time></trkpt><trkpt lat="44.796944689774115" lon="16.906218960388173"><ele>232.0</ele><time>2026-05-04T12:58:43Z</time></trkpt><trkpt lat="44.796973031057675" lon="16.905842753037703"><ele>233.0</ele><time>2026-05-04T12:58:44Z</time></trkpt><trkpt lat="44.796989462715565" lon="16.905508925246338"><ele>234.0</ele><time>2026-05-04T12:58:45Z</time></trkpt><trkpt lat="44.79697855767508" lon="16.905205101121666"><ele>234.33333333333331</ele><time>2026-05-04T12:58:46Z</time></trkpt><trkpt lat="44.79692964393323" lon="16.904928858737275"><ele>234.66666666666666</ele><time>2026-05-04T12:58:47Z</time></trkpt><trkpt lat="44.79685116306649" lon="16.90468015474266"><ele>235.0</ele><time>2026-05-04T12:58:48Z</time></trkpt><trkpt lat="44.7967556655672" lon="16.904446908107026"><ele>231.0</ele><time>2026-05-04T12:58:49Z</time></trkpt><trkpt lat="44.79667613638484" lon="16.904208190013186"><ele>227.0</ele><time>2026-05-04T12:58:50Z</time></trkpt><trkpt lat="44.79664750421044" lon="16.903951268728843"><ele>223.0</ele><time>2026-05-04T12:58:51Z</time></trkpt><trkpt lat="44.79665117650392" lon="16.903680398923107"><ele>223.0</ele><time>2026-05-04T12:58:52Z</time></trkpt><trkpt lat="44.796658261928826" lon="16.903408992616253"><ele>223.0</ele><time>2026-05-04T12:58:53Z</time></trkpt><trkpt lat="44.79665891502746" lon="16.903128554287285"><ele>223.0</ele><time>2026-05-04T12:58:54Z</time></trkpt><trkpt lat="44.79666329647133" lon="16.902841929306874"><ele>223.33333333333331</ele><time>2026-05-04T12:58:55Z</time></trkpt><trkpt lat="44.796671300619444" lon="16.9025598196048"><ele>223.66666666666669</ele><time>2026-05-04T12:58:56Z</time></trkpt><trkpt lat="44.7967019869561" lon="16.90229999607197"><ele>224.0</ele><time>2026-05-04T12:58:57Z</time></trkpt><trkpt lat="44.79676181285063" lon="16.90207639497487"><ele>228.66666666666669</ele><time>2026-05-04T12:58:58Z</time></trkpt><trkpt lat="44.7968483824754" lon="16.901878531555536"><ele>233.33333333333331</ele><time>2026-05-04T12:58:59Z</time></trkpt><trkpt lat="44.79693935638269" lon="16.901682097857456"><ele>238.0</ele><time>2026-05-04T12:59:00Z</time></trkpt><trkpt lat="44.7970087964011" lon="16.90147220647077"><ele>238.0</ele><time>2026-05-04T12:59:01Z</time></trkpt><trkpt lat="44.79704271637928" lon="16.901237902826992"><ele>238.0</ele><time>2026-05-04T12:59:02Z</time></trkpt><trkpt lat="44.79703794502651" lon="16.900984990999174"><ele>238.0</ele><time>2026-05-04T12:59:03Z</time></trkpt><trkpt lat="44.797006758738966" lon="16.900734410930934"><ele>239.0</ele><time>2026-05-04T12:59:04Z</time></trkpt><trkpt lat="44.7969282204814" lon="16.900494298087885"><ele>240.0</ele><time>2026-05-04T12:59:05Z</time></trkpt><trkpt lat="44.796841245382275" lon="16.900277661653792"><ele>241.0</ele><time>2026-05-04T12:59:06Z</time></trkpt><trkpt lat="44.796755725665996" lon="16.900049251912005"><ele>236.33333333333331</ele><time>2026-05-04T12:59:07Z</time></trkpt><trkpt lat="44.79668860816169" lon="16.899800750555038"><ele>231.66666666666669</ele><time>2026-05-04T12:59:08Z</time></trkpt><trkpt lat="44.796631749235495" lon="16.89953691725483"><ele>227.0</ele><time>2026-05-04T12:59:09Z</time></trkpt><trkpt lat="44.796582878664616" lon="16.899260897802417"><ele>226.0</ele><time>2026-05-04T12:59:10Z</time></trkpt><trkpt lat="44.796542799015214" lon="16.8989791253896"><ele>225.0</ele><time>2026-05-04T12:59:11Z</time></trkpt><trkpt lat="44.796510911569655" lon="16.89869026470099"><ele>224.0</ele><time>2026-05-04T12:59:12Z</time></trkpt><trkpt lat="44.79648954750921" lon="16.898391364130642"><ele>224.0</ele><time>2026-05-04T12:59:13Z</time></trkpt><trkpt lat="44.79648047639736" lon="16.898087435224877"><ele>224.0</ele><time>2026-05-04T12:59:14Z</time></trkpt><trkpt lat="44.79648525498233" lon="16.897783761652242"><ele>224.0</ele><time>2026-05-04T12:59:15Z</time></trkpt><trkpt lat="44.79650269327913" lon="16.89748835758863"><ele>224.0</ele><time>2026-05-04T12:59:16Z</time></trkpt><trkpt lat="44.7965293700935" lon="16.897196353393333"><ele>224.0</ele><time>2026-05-04T12:59:17Z</time></trkpt><trkpt lat="44.796567268368364" lon="16.896895822754487"><ele>224.0</ele><time>2026-05-04T12:59:18Z</time></trkpt><trkpt lat="44.79662219605144" lon="16.896600569357133"><ele>224.0</ele><time>2026-05-04T12:59:19Z</time></trkpt><trkpt lat="44.796689895613" lon="16.89630305964478"><ele>224.0</ele><time>2026-05-04T12:59:20Z</time></trkpt><trkpt lat="44.796770660731305" lon="16.896005875683095"><ele>224.0</ele><time>2026-05-04T12:59:21Z</time></trkpt><trkpt lat="44.79686341843262" lon="16.895711091616874"><ele>224.5</ele><time>2026-05-04T12:59:22Z</time></trkpt><trkpt lat="44.79696512470342" lon="16.895424525113288"><ele>225.0</ele><time>2026-05-04T12:59:23Z</time></trkpt><trkpt lat="44.79708126703928" lon="16.895141256794602"><ele>226.0</ele><time>2026-05-04T12:59:24Z</time></trkpt><trkpt lat="44.79720502708713" lon="16.89486341670254"><ele>227.0</ele><time>2026-05-04T12:59:25Z</time></trkpt><trkpt lat="44.79733406064829" lon="16.894590474206023"><ele>227.0</ele><time>2026-05-04T12:59:26Z</time></trkpt><trkpt lat="44.79746175534948" lon="16.894325172792506"><ele>227.0</ele><time>2026-05-04T12:59:27Z</time></trkpt><trkpt lat="44.79758816377833" lon="16.894064787064018"><ele>228.33333333333334</ele><time>2026-05-04T12:59:28Z</time></trkpt><trkpt lat="44.79771190086934" lon="16.893814230456904"><ele>229.66666666666669</ele><time>2026-05-04T12:59:29Z</time></trkpt><trkpt lat="44.797827767196516" lon="16.893584795984516"><ele>231.0</ele><time>2026-05-04T12:59:30Z</time></trkpt><trkpt lat="44.79795041034923" lon="16.893398094677238"><ele>231.0</ele><time>2026-05-04T12:59:31Z</time></trkpt><trkpt lat="44.7981036864117" lon="16.89324146217502"><ele>231.0</ele><time>2026-05-04T12:59:32Z</time></trkpt><trkpt lat="44.798281264364995" lon="16.893135070247737"><ele>231.0</ele><time>2026-05-04T12:59:33Z</time></trkpt><trkpt lat="44.79846398253729" lon="16.893050282380255"><ele>233.0</ele><time>2026-05-04T12:59:34Z</time></trkpt><trkpt lat="44.798637209669366" lon="16.892954613745797"><ele>235.0</ele><time>2026-05-04T12:59:35Z</time></trkpt><trkpt lat="44.79879601711787" lon="16.892810619776213"><ele>237.0</ele><time>2026-05-04T12:59:36Z</time></trkpt><trkpt lat="44.7989425346202" lon="16.892612373910335"><ele>236.0</ele><time>2026-05-04T12:59:37Z</time></trkpt><trkpt lat="44.799064134946065" lon="16.892357918133772"><ele>235.0</ele><time>2026-05-04T12:59:38Z</time></trkpt><trkpt lat="44.79915731043427" lon="16.89207511517367"><ele>234.0</ele><time>2026-05-04T12:59:39Z</time></trkpt><trkpt lat="44.79924623938102" lon="16.89176692667078"><ele>237.0</ele><time>2026-05-04T12:59:40Z</time></trkpt><trkpt lat="44.79935313762235" lon="16.891443874652232"><ele>240.0</ele><time>2026-05-04T12:59:41Z</time></trkpt><trkpt lat="44.799469141609286" lon="16.89111257017211"><ele>239.0</ele><time>2026-05-04T12:59:42Z</time></trkpt><trkpt lat="44.79957949573087" lon="16.89079652105475"><ele>238.0</ele><time>2026-05-04T12:59:43Z</time></trkpt><trkpt lat="44.79968214947045" lon="16.890497606907708"><ele>238.0</ele><time>2026-05-04T12:59:44Z</time></trkpt><trkpt lat="44.79978555821378" lon="16.89020621320585"><ele>238.0</ele><time>2026-05-04T12:59:45Z</time></trkpt><trkpt lat="44.79988622324167" lon="16.889926518159033"><ele>236.0</ele><time>2026-05-04T12:59:46Z</time></trkpt><trkpt lat="44.799983151504755" lon="16.889650268741242"><ele>234.0</ele><time>2026-05-04T12:59:47Z</time></trkpt><trkpt lat="44.80007104330629" lon="16.88937877484297"><ele>232.0</ele><time>2026-05-04T12:59:48Z</time></trkpt><trkpt lat="44.800153571098974" lon="16.889114295343806"><ele>238.33333333333331</ele><time>2026-05-04T12:59:49Z</time></trkpt><trkpt lat="44.80021775710455" lon="16.88884976568107"><ele>244.66666666666669</ele><time>2026-05-04T12:59:50Z</time></trkpt><trkpt lat="44.800246282848505" lon="16.88858681750102"><ele>251.0</ele><time>2026-05-04T12:59:51Z</time></trkpt><trkpt lat="44.80024544441241" lon="16.888309839574095"><ele>253.66666666666669</ele><time>2026-05-04T12:59:52Z</time></trkpt><trkpt lat="44.80021831133758" lon="16.888044017039345"><ele>256.3333333333333</ele><time>2026-05-04T12:59:53Z</time></trkpt><trkpt lat="44.800177366279904" lon="16.887780314252844"><ele>259.0</ele><time>2026-05-04T12:59:54Z</time></trkpt><trkpt lat="44.800140879159464" lon="16.887522107744903"><ele>251.66666666666666</ele><time>2026-05-04T12:59:55Z</time></trkpt><trkpt lat="44.80012220551281" lon="16.887261499919585"><ele>244.33333333333331</ele><time>2026-05-04T12:59:56Z</time></trkpt><trkpt lat="44.80012352501686" lon="16.887000854427747"><ele>237.0</ele><time>2026-05-04T12:59:57Z</time></trkpt><trkpt lat="44.800151919748515" lon="16.886768277876747"><ele>245.0</ele><time>2026-05-04T12:59:58Z</time></trkpt><trkpt lat="44.80021817272767" lon="16.886560760208344"><ele>253.0</ele><time>2026-05-04T12:59:59Z</time></trkpt><trkpt lat="44.80032366337062" lon="16.886374254145043"><ele>261.0</ele><time>2026-05-04T13:00:00Z</time></trkpt><trkpt lat="44.80045030760421" lon="16.886197780037"><ele>261.0</ele><time>2026-05-04T13:00:01Z</time></trkpt><trkpt lat="44.80057832763596" lon="16.886018694752654"><ele>261.0</ele><time>2026-05-04T13:00:02Z</time></trkpt><trkpt lat="44.800711012178645" lon="16.885840563520134"><ele>261.0</ele><time>2026-05-04T13:00:03Z</time></trkpt><trkpt lat="44.80084944136328" lon="16.885662025574444"><ele>259.3333333333333</ele><time>2026-05-04T13:00:04Z</time></trkpt><trkpt lat="44.800988272392615" lon="16.885479932517498"><ele>257.66666666666663</ele><time>2026-05-04T13:00:05Z</time></trkpt><trkpt lat="44.80110004446649" lon="16.885278053091557"><ele>256.0</ele><time>2026-05-04T13:00:06Z</time></trkpt><trkpt lat="44.801176896669816" lon="16.885055410975614"><ele>256.0</ele><time>2026-05-04T13:00:07Z</time></trkpt><trkpt lat="44.80123544384496" lon="16.884820491069558"><ele>256.0</ele><time>2026-05-04T13:00:08Z</time></trkpt><trkpt lat="44.801288076005385" lon="16.884584162919513"><ele>256.0</ele><time>2026-05-04T13:00:09Z</time></trkpt><trkpt lat="44.80133704388216" lon="16.884359303616172"><ele>252.0</ele><time>2026-05-04T13:00:10Z</time></trkpt><trkpt lat="44.80141825732498" lon="16.88416987005762"><ele>248.0</ele><time>2026-05-04T13:00:11Z</time></trkpt><trkpt lat="44.80153218742314" lon="16.884025370480224"><ele>244.0</ele><time>2026-05-04T13:00:12Z</time></trkpt><trkpt lat="44.80165753723756" lon="16.883895511463482"><ele>244.0</ele><time>2026-05-04T13:00:13Z</time></trkpt><trkpt lat="44.80179006541501" lon="16.883770572269665"><ele>244.0</ele><time>2026-05-04T13:00:14Z</time></trkpt><trkpt lat="44.80192313747971" lon="16.88363573629041"><ele>244.0</ele><time>2026-05-04T13:00:15Z</time></trkpt><trkpt lat="44.802036759824055" lon="16.883462236479808"><ele>247.0</ele><time>2026-05-04T13:00:16Z</time></trkpt><trkpt lat="44.80212693635118" lon="16.883248741226996"><ele>250.0</ele><time>2026-05-04T13:00:17Z</time></trkpt><trkpt lat="44.80219703904624" lon="16.88301341244077"><ele>253.0</ele><time>2026-05-04T13:00:18Z</time></trkpt><trkpt lat="44.80226108468305" lon="16.882774743808735"><ele>250.66666666666666</ele><time>2026-05-04T13:00:19Z</time></trkpt><trkpt lat="44.80231711217715" lon="16.882536889658876"><ele>248.33333333333331</ele><time>2026-05-04T13:00:20Z</time></trkpt><trkpt lat="44.802368156350155" lon="16.882291265719072"><ele>246.0</ele><time>2026-05-04T13:00:21Z</time></trkpt><trkpt lat="44.80243821788968" lon="16.88205693314923"><ele>246.0</ele><time>2026-05-04T13:00:22Z</time></trkpt><trkpt lat="44.802552746212434" lon="16.881858442206255"><ele>246.0</ele><time>2026-05-04T13:00:23Z</time></trkpt><trkpt lat="44.80270239333933" lon="16.881703427462448"><ele>246.0</ele><time>2026-05-04T13:00:24Z</time></trkpt><trkpt lat="44.80285017279859" lon="16.881561634389286"><ele>250.66666666666669</ele><time>2026-05-04T13:00:25Z</time></trkpt><trkpt lat="44.80297453113069" lon="16.881391248951296"><ele>255.33333333333334</ele><time>2026-05-04T13:00:26Z</time></trkpt><trkpt lat="44.80307546722907" lon="16.88120457031062"><ele>260.0</ele><time>2026-05-04T13:00:27Z</time></trkpt><trkpt lat="44.80316613495752" lon="16.880999412696323"><ele>255.0</ele><time>2026-05-04T13:00:28Z</time></trkpt><trkpt lat="44.80325437858782" lon="16.880786423902368"><ele>250.0</ele><time>2026-05-04T13:00:29Z</time></trkpt><trkpt lat="44.80334230618337" lon="16.880582499768828"><ele>245.0</ele><time>2026-05-04T13:00:30Z</time></trkpt><trkpt lat="44.80343007990297" lon="16.880391489544422"><ele>246.0</ele><time>2026-05-04T13:00:31Z</time></trkpt><trkpt lat="44.803523620854214" lon="16.880206571736224"><ele>247.0</ele><time>2026-05-04T13:00:32Z</time></trkpt><trkpt lat="44.80363216176453" lon="16.880020190626613"><ele>248.0</ele><time>2026-05-04T13:00:33Z</time></trkpt><trkpt lat="44.80375249189717" lon="16.879839780586185"><ele>248.0</ele><time>2026-05-04T13:00:34Z</time></trkpt><trkpt lat="44.80388669846455" lon="16.879665448854634"><ele>248.0</ele><time>2026-05-04T13:00:35Z</time></trkpt><trkpt lat="44.804028399418904" lon="16.87950877831166"><ele>248.0</ele><time>2026-05-04T13:00:36Z</time></trkpt><trkpt lat="44.80418246274196" lon="16.87936501184303"><ele>247.33333333333334</ele><time>2026-05-04T13:00:37Z</time></trkpt><trkpt lat="44.80434387042156" lon="16.879221905074367"><ele>246.66666666666669</ele><time>2026-05-04T13:00:38Z</time></trkpt><trkpt lat="44.80450917677094" lon="16.87907560616978"><ele>246.0</ele><time>2026-05-04T13:00:39Z</time></trkpt><trkpt lat="44.804678227522075" lon="16.87892005665171"><ele>246.0</ele><time>2026-05-04T13:00:40Z</time></trkpt><trkpt lat="44.80484382179679" lon="16.878765601928922"><ele>246.0</ele><time>2026-05-04T13:00:41Z</time></trkpt><trkpt lat="44.804990129873886" lon="16.878624039105045"><ele>246.0</ele><time>2026-05-04T13:00:42Z</time></trkpt><trkpt lat="44.805123458713865" lon="16.878488420008136"><ele>246.66666666666669</ele><time>2026-05-04T13:00:43Z</time></trkpt><trkpt lat="44.80525299029839" lon="16.878333025285844"><ele>247.33333333333334</ele><time>2026-05-04T13:00:44Z</time></trkpt><trkpt lat="44.80537503779936" lon="16.878147145075566"><ele>248.0</ele><time>2026-05-04T13:00:45Z</time></trkpt><trkpt lat="44.80548076397918" lon="16.877945224328926"><ele>248.0</ele><time>2026-05-04T13:00:46Z</time></trkpt><trkpt lat="44.80555376375423" lon="16.877727102003274"><ele>248.0</ele><time>2026-05-04T13:00:47Z</time></trkpt><trkpt lat="44.80558542507728" lon="16.877476627073392"><ele>248.0</ele><time>2026-05-04T13:00:48Z</time></trkpt><trkpt lat="44.8055874370354" lon="16.877216200271345"><ele>248.0</ele><time>2026-05-04T13:00:49Z</time></trkpt><trkpt lat="44.80558539725912" lon="16.87695328868831"><ele>248.0</ele><time>2026-05-04T13:00:50Z</time></trkpt><trkpt lat="44.80559802644084" lon="16.876718064310637"><ele>248.0</ele><time>2026-05-04T13:00:51Z</time></trkpt><trkpt lat="44.8056117223872" lon="16.876499423469514"><ele>247.66666666666669</ele><time>2026-05-04T13:00:52Z</time></trkpt><trkpt lat="44.80562579881687" lon="16.87628588948201"><ele>247.33333333333331</ele><time>2026-05-04T13:00:53Z</time></trkpt><trkpt lat="44.80564176286504" lon="16.876072099093083"><ele>247.0</ele><time>2026-05-04T13:00:54Z</time></trkpt><trkpt lat="44.80565961988039" lon="16.875854205411244"><ele>247.0</ele><time>2026-05-04T13:00:55Z</time></trkpt><trkpt lat="44.80568803848062" lon="16.875644265378906"><ele>247.0</ele><time>2026-05-04T13:00:56Z</time></trkpt><trkpt lat="44.80573305938702" lon="16.87543745390267"><ele>247.0</ele><time>2026-05-04T13:00:57Z</time></trkpt><trkpt lat="44.80579704624396" lon="16.875228352448516"><ele>247.0</ele><time>2026-05-04T13:00:58Z</time></trkpt><trkpt lat="44.805893514472736" lon="16.87503098425785"><ele>247.0</ele><time>2026-05-04T13:00:59Z</time></trkpt><trkpt lat="44.806015821262726" lon="16.874861870882665"><ele>247.0</ele><time>2026-05-04T13:01:00Z</time></trkpt><trkpt lat="44.80614294188874" lon="16.87472210736758"><ele>249.33333333333331</ele><time>2026-05-04T13:01:01Z</time></trkpt><trkpt lat="44.80626060940888" lon="16.874572503715722"><ele>251.66666666666669</ele><time>2026-05-04T13:01:02Z</time></trkpt><trkpt lat="44.80637926988759" lon="16.87440099816185"><ele>254.0</ele><time>2026-05-04T13:01:03Z</time></trkpt><trkpt lat="44.806497682673275" lon="16.87420685401845"><ele>254.0</ele><time>2026-05-04T13:01:04Z</time></trkpt><trkpt lat="44.80660188073464" lon="16.8739982955051"><ele>254.0</ele><time>2026-05-04T13:01:05Z</time></trkpt><trkpt lat="44.806684545674464" lon="16.873768209050425"><ele>254.0</ele><time>2026-05-04T13:01:06Z</time></trkpt><trkpt lat="44.806738948599495" lon="16.873510904164924"><ele>251.66666666666669</ele><time>2026-05-04T13:01:07Z</time></trkpt><trkpt lat="44.80677113698014" lon="16.873246649333062"><ele>249.33333333333331</ele><time>2026-05-04T13:01:08Z</time></trkpt><trkpt lat="44.806783825171145" lon="16.872975335639126"><ele>247.0</ele><time>2026-05-04T13:01:09Z</time></trkpt><trkpt lat="44.806788080815814" lon="16.872703580053596"><ele>246.66666666666666</ele><time>2026-05-04T13:01:10Z</time></trkpt><trkpt lat="44.806790383145916" lon="16.872420368516057"><ele>246.33333333333331</ele><time>2026-05-04T13:01:11Z</time></trkpt><trkpt lat="44.80680339718989" lon="16.872134791875688"><ele>246.0</ele><time>2026-05-04T13:01:12Z</time></trkpt><trkpt lat="44.80683508569846" lon="16.871848547394432"><ele>252.33333333333331</ele><time>2026-05-04T13:01:13Z</time></trkpt><trkpt lat="44.80688771379033" lon="16.871574623220297"><ele>258.66666666666663</ele><time>2026-05-04T13:01:14Z</time></trkpt><trkpt lat="44.80695380285154" lon="16.871313398590996"><ele>265.0</ele><time>2026-05-04T13:01:15Z</time></trkpt><trkpt lat="44.80702222663941" lon="16.87106452107708"><ele>263.3333333333333</ele><time>2026-05-04T13:01:16Z</time></trkpt><trkpt lat="44.807079786644536" lon="16.870812703540516"><ele>261.6666666666667</ele><time>2026-05-04T13:01:17Z</time></trkpt><trkpt lat="44.80712481252508" lon="16.870558046529922"><ele>260.0</ele><time>2026-05-04T13:01:18Z</time></trkpt><trkpt lat="44.80715947615181" lon="16.870304169919027"><ele>258.0</ele><time>2026-05-04T13:01:19Z</time></trkpt><trkpt lat="44.807191065443575" lon="16.87004934010383"><ele>256.0</ele><time>2026-05-04T13:01:20Z</time></trkpt><trkpt lat="44.807192165179096" lon="16.869797417751073"><ele>254.0</ele><time>2026-05-04T13:01:21Z</time></trkpt><trkpt lat="44.80715994538963" lon="16.869545057364498"><ele>254.0</ele><time>2026-05-04T13:01:22Z</time></trkpt><trkpt lat="44.80707880174388" lon="16.869297521919304"><ele>254.0</ele><time>2026-05-04T13:01:23Z</time></trkpt><trkpt lat="44.80698584290513" lon="16.869071651022047"><ele>254.0</ele><time>2026-05-04T13:01:24Z</time></trkpt><trkpt lat="44.80687844537296" lon="16.868887710707373"><ele>253.25</ele><time>2026-05-04T13:01:25Z</time></trkpt><trkpt lat="44.806771859107286" lon="16.868746027796174"><ele>252.5</ele><time>2026-05-04T13:01:26Z</time></trkpt><trkpt lat="44.80668034718924" lon="16.868637190848222"><ele>251.75</ele><time>2026-05-04T13:01:27Z</time></trkpt><trkpt lat="44.80662453601694" lon="16.868518157497615"><ele>251.0</ele><time>2026-05-04T13:01:28Z</time></trkpt><trkpt lat="44.8066210441741" lon="16.868395100981413"><ele>251.0</ele><time>2026-05-04T13:01:29Z</time></trkpt><trkpt lat="44.806667334785615" lon="16.86826987239088"><ele>251.00000000000003</ele><time>2026-05-04T13:01:30Z</time></trkpt><trkpt lat="44.80674784934364" lon="16.868165196286203"><ele>251.00000000000003</ele><time>2026-05-04T13:01:31Z</time></trkpt><trkpt lat="44.80683681429326" lon="16.868068189623557"><ele>251.0</ele><time>2026-05-04T13:01:32Z</time></trkpt><trkpt lat="44.806921039969446" lon="16.86795743328698"><ele>251.0</ele><time>2026-05-04T13:01:33Z</time></trkpt><trkpt lat="44.80699167007238" lon="16.86781208469361"><ele>254.33333333333334</ele><time>2026-05-04T13:01:34Z</time></trkpt><trkpt lat="44.80701906856078" lon="16.8675909355392"><ele>257.6666666666667</ele><time>2026-05-04T13:01:35Z</time></trkpt><trkpt lat="44.80704264220253" lon="16.867374246127163"><ele>261.0</ele><time>2026-05-04T13:01:36Z</time></trkpt><trkpt lat="44.80704690883839" lon="16.867118693310896"><ele>261.0</ele><time>2026-05-04T13:01:37Z</time></trkpt><trkpt lat="44.80705668492224" lon="16.86684872802774"><ele>261.0</ele><time>2026-05-04T13:01:38Z</time></trkpt><trkpt lat="44.80709446445144" lon="16.866585203428517"><ele>261.0</ele><time>2026-05-04T13:01:39Z</time></trkpt><trkpt lat="44.80713748036549" lon="16.866363432802874"><ele>261.0</ele><time>2026-05-04T13:01:40Z</time></trkpt><trkpt lat="44.80715001612703" lon="16.866151896517255"><ele>261.0</ele><time>2026-05-04T13:01:41Z</time></trkpt><trkpt lat="44.8071230169047" lon="16.86594183087063"><ele>261.0</ele><time>2026-05-04T13:01:42Z</time></trkpt><trkpt lat="44.80704570945256" lon="16.865751272616315"><ele>261.0</ele><time>2026-05-04T13:01:43Z</time></trkpt><trkpt lat="44.80694974439307" lon="16.86556611879357"><ele>261.0</ele><time>2026-05-04T13:01:44Z</time></trkpt><trkpt lat="44.80689159947395" lon="16.865364203444454"><ele>261.0</ele><time>2026-05-04T13:01:45Z</time></trkpt><trkpt lat="44.80688700941604" lon="16.865144260898454"><ele>262.3333333333333</ele><time>2026-05-04T13:01:46Z</time></trkpt><trkpt lat="44.80691057193212" lon="16.864918223194042"><ele>263.66666666666663</ele><time>2026-05-04T13:01:47Z</time></trkpt><trkpt lat="44.80693902818755" lon="16.864693708129845"><ele>265.0</ele><time>2026-05-04T13:01:48Z</time></trkpt><trkpt lat="44.806973515887016" lon="16.864461198624344"><ele>264.66666666666663</ele><time>2026-05-04T13:01:49Z</time></trkpt><trkpt lat="44.80702152291328" lon="16.86422502600309"><ele>264.3333333333333</ele><time>2026-05-04T13:01:50Z</time></trkpt><trkpt lat="44.80708375906338" lon="16.86398521296921"><ele>264.0</ele><time>2026-05-04T13:01:51Z</time></trkpt><trkpt lat="44.807134562293385" lon="16.8637366343035"><ele>264.0</ele><time>2026-05-04T13:01:52Z</time></trkpt><trkpt lat="44.807162079832736" lon="16.863499782846393"><ele>264.0</ele><time>2026-05-04T13:01:53Z</time></trkpt><trkpt lat="44.80719602881155" lon="16.86327843317566"><ele>264.0</ele><time>2026-05-04T13:01:54Z</time></trkpt><trkpt lat="44.80728409294755" lon="16.863105558502866"><ele>264.0</ele><time>2026-05-04T13:01:55Z</time></trkpt><trkpt lat="44.807412089612725" lon="16.86296832894134"><ele>264.0</ele><time>2026-05-04T13:01:56Z</time></trkpt><trkpt lat="44.807527483176955" lon="16.86282225885596"><ele>264.0</ele><time>2026-05-04T13:01:57Z</time></trkpt><trkpt lat="44.807584940063215" lon="16.8625975426788"><ele>262.3333333333333</ele><time>2026-05-04T13:01:58Z</time></trkpt><trkpt lat="44.807588813242596" lon="16.862342563970913"><ele>260.66666666666663</ele><time>2026-05-04T13:01:59Z</time></trkpt><trkpt lat="44.80758491268082" lon="16.862084841799366"><ele>259.0</ele><time>2026-05-04T13:02:00Z</time></trkpt><trkpt lat="44.80762175337234" lon="16.861821561775"><ele>264.66666666666663</ele><time>2026-05-04T13:02:01Z</time></trkpt><trkpt lat="44.807696634534814" lon="16.861557086414606"><ele>270.3333333333333</ele><time>2026-05-04T13:02:02Z</time></trkpt><trkpt lat="44.80778534398793" lon="16.861299093512425"><ele>276.0</ele><time>2026-05-04T13:02:03Z</time></trkpt><trkpt lat="44.807857937537946" lon="16.86103072411396"><ele>274.6666666666667</ele><time>2026-05-04T13:02:04Z</time></trkpt><trkpt lat="44.8078870053225" lon="16.860749636652887"><ele>273.33333333333337</ele><time>2026-05-04T13:02:05Z</time></trkpt><trkpt lat="44.807862088045184" lon="16.86047103999603"><ele>272.0</ele><time>2026-05-04T13:02:06Z</time></trkpt><trkpt lat="44.807803933383475" lon="16.86017837745368"><ele>270.33333333333337</ele><time>2026-05-04T13:02:07Z</time></trkpt><trkpt lat="44.80775551550566" lon="16.859880239532806"><ele>268.6666666666667</ele><time>2026-05-04T13:02:08Z</time></trkpt><trkpt lat="44.80773402734982" lon="16.859594359968497"><ele>267.0</ele><time>2026-05-04T13:02:09Z</time></trkpt><trkpt lat="44.807730542242865" lon="16.859336172116784"><ele>268.6666666666667</ele><time>2026-05-04T13:02:10Z</time></trkpt><trkpt lat="44.807752511949886" lon="16.859098889193035"><ele>270.33333333333337</ele><time>2026-05-04T13:02:11Z</time></trkpt><trkpt lat="44.807805506390615" lon="16.85888779573778"><ele>272.0</ele><time>2026-05-04T13:02:12Z</time></trkpt><trkpt lat="44.80788312202635" lon="16.858694361154434"><ele>272.0</ele><time>2026-05-04T13:02:13Z</time></trkpt><trkpt lat="44.80796264297546" lon="16.858513087250923"><ele>272.0</ele><time>2026-05-04T13:02:14Z</time></trkpt><trkpt lat="44.80803425820435" lon="16.858313705995123"><ele>272.0</ele><time>2026-05-04T13:02:15Z</time></trkpt><trkpt lat="44.8080841478553" lon="16.858094398097606"><ele>273.0</ele><time>2026-05-04T13:02:16Z</time></trkpt><trkpt lat="44.80809576722407" lon="16.857839910403758"><ele>274.0</ele><time>2026-05-04T13:02:17Z</time></trkpt><trkpt lat="44.808076169708514" lon="16.857562694621578"><ele>275.0</ele><time>2026-05-04T13:02:18Z</time></trkpt><trkpt lat="44.80802655628599" lon="16.857287844367626"><ele>275.0</ele><time>2026-05-04T13:02:19Z</time></trkpt><trkpt lat="44.80795468758149" lon="16.85702284600841"><ele>275.0</ele><time>2026-05-04T13:02:20Z</time></trkpt><trkpt lat="44.80784441955469" lon="16.856787305811242"><ele>275.0</ele><time>2026-05-04T13:02:21Z</time></trkpt><trkpt lat="44.80772576833609" lon="16.856570011505802"><ele>271.6666666666667</ele><time>2026-05-04T13:02:22Z</time></trkpt><trkpt lat="44.80762694977853" lon="16.85636089564864"><ele>268.3333333333333</ele><time>2026-05-04T13:02:23Z</time></trkpt><trkpt lat="44.80755685154748" lon="16.85613837334911"><ele>265.0</ele><time>2026-05-04T13:02:24Z</time></trkpt><trkpt lat="44.80752698660047" lon="16.855897473393988"><ele>265.0</ele><time>2026-05-04T13:02:25Z</time></trkpt><trkpt lat="44.80752191305855" lon="16.855643070327147"><ele>265.0</ele><time>2026-05-04T13:02:26Z</time></trkpt><trkpt lat="44.807525768368876" lon="16.855369439419135"><ele>265.0</ele><time>2026-05-04T13:02:27Z</time></trkpt><trkpt lat="44.80752211975821" lon="16.85507717711338"><ele>265.0</ele><time>2026-05-04T13:02:28Z</time></trkpt><trkpt lat="44.80752515005508" lon="16.85478692504469"><ele>265.0</ele><time>2026-05-04T13:02:29Z</time></trkpt><trkpt lat="44.807535874511196" lon="16.854497191668436"><ele>265.0</ele><time>2026-05-04T13:02:30Z</time></trkpt><trkpt lat="44.80755983499558" lon="16.854198889948904"><ele>265.0</ele><time>2026-05-04T13:02:31Z</time></trkpt><trkpt lat="44.80758330725671" lon="16.853900221863412"><ele>265.0</ele><time>2026-05-04T13:02:32Z</time></trkpt><trkpt lat="44.80758912986862" lon="16.85360406706197"><ele>265.0</ele><time>2026-05-04T13:02:33Z</time></trkpt><trkpt lat="44.807579799402404" lon="16.853310304900678"><ele>265.66666666666663</ele><time>2026-05-04T13:02:34Z</time></trkpt><trkpt lat="44.807562709621834" lon="16.85303075681409"><ele>266.3333333333333</ele><time>2026-05-04T13:02:35Z</time></trkpt><trkpt lat="44.807534766344354" lon="16.85275394368115"><ele>267.0</ele><time>2026-05-04T13:02:36Z</time></trkpt><trkpt lat="44.807493548026976" lon="16.852467681689518"><ele>267.0</ele><time>2026-05-04T13:02:37Z</time></trkpt><trkpt lat="44.807436669305886" lon="16.85217727491753"><ele>267.0</ele><time>2026-05-04T13:02:38Z</time></trkpt><trkpt lat="44.807366783780324" lon="16.85188183170092"><ele>267.0</ele><time>2026-05-04T13:02:39Z</time></trkpt><trkpt lat="44.80729204607537" lon="16.851573611419987"><ele>267.6666666666667</ele><time>2026-05-04T13:02:40Z</time></trkpt><trkpt lat="44.807228155709005" lon="16.85126822056182"><ele>268.33333333333337</ele><time>2026-05-04T13:02:41Z</time></trkpt><trkpt lat="44.80717204701167" lon="16.85097283707623"><ele>269.0</ele><time>2026-05-04T13:02:42Z</time></trkpt><trkpt lat="44.807122257937436" lon="16.850697178416198"><ele>271.33333333333337</ele><time>2026-05-04T13:02:43Z</time></trkpt><trkpt lat="44.80707506633338" lon="16.850436766531118"><ele>273.6666666666667</ele><time>2026-05-04T13:02:44Z</time></trkpt><trkpt lat="44.80704399499757" lon="16.850189209122053"><ele>276.0</ele><time>2026-05-04T13:02:45Z</time></trkpt><trkpt lat="44.80705182375643" lon="16.84994624619363"><ele>275.3333333333333</ele><time>2026-05-04T13:02:46Z</time></trkpt><trkpt lat="44.80710417714028" lon="16.849704590423848"><ele>274.66666666666663</ele><time>2026-05-04T13:02:47Z</time></trkpt><trkpt lat="44.807190290401145" lon="16.849490733785064"><ele>274.0</ele><time>2026-05-04T13:02:48Z</time></trkpt><trkpt lat="44.80728508036514" lon="16.849276796344192"><ele>274.0</ele><time>2026-05-04T13:02:49Z</time></trkpt><trkpt lat="44.807367583025304" lon="16.849057297157135"><ele>274.0</ele><time>2026-05-04T13:02:50Z</time></trkpt><trkpt lat="44.80742697782698" lon="16.84882794337544"><ele>274.0</ele><time>2026-05-04T13:02:51Z</time></trkpt><trkpt lat="44.807449472435536" lon="16.848589418309523"><ele>274.0</ele><time>2026-05-04T13:02:52Z</time></trkpt><trkpt lat="44.8074350684208" lon="16.848341439947966"><ele>274.0</ele><time>2026-05-04T13:02:53Z</time></trkpt><trkpt lat="44.80739857509946" lon="16.848087242925025"><ele>274.0</ele><time>2026-05-04T13:02:54Z</time></trkpt><trkpt lat="44.80733319511179" lon="16.847810132555413"><ele>274.66666666666663</ele><time>2026-05-04T13:02:55Z</time></trkpt><trkpt lat="44.80725776776173" lon="16.847524969243445"><ele>275.3333333333333</ele><time>2026-05-04T13:02:56Z</time></trkpt><trkpt lat="44.80717405012521" lon="16.84724318268858"><ele>276.0</ele><time>2026-05-04T13:02:57Z</time></trkpt><trkpt lat="44.80707674326534" lon="16.84697396018549"><ele>277.0</ele><time>2026-05-04T13:02:58Z</time></trkpt><trkpt lat="44.806954269965445" lon="16.846738042066217"><ele>278.0</ele><time>2026-05-04T13:02:59Z</time></trkpt><trkpt lat="44.806829667758336" lon="16.846520711492015"><ele>279.0</ele><time>2026-05-04T13:03:00Z</time></trkpt><trkpt lat="44.8067413252195" lon="16.846275347140185"><ele>278.0</ele><time>2026-05-04T13:03:01Z</time></trkpt><trkpt lat="44.80669193531292" lon="16.845990094175388"><ele>277.0</ele><time>2026-05-04T13:03:02Z</time></trkpt><trkpt lat="44.806667377615554" lon="16.845706470076166"><ele>276.0</ele><time>2026-05-04T13:03:03Z</time></trkpt><trkpt lat="44.80664509937076" lon="16.845434759357374"><ele>276.0</ele><time>2026-05-04T13:03:04Z</time></trkpt><trkpt lat="44.806632761163456" lon="16.84518231440992"><ele>276.0</ele><time>2026-05-04T13:03:05Z</time></trkpt><trkpt lat="44.806659161750304" lon="16.84496244005992"><ele>276.0</ele><time>2026-05-04T13:03:06Z</time></trkpt><trkpt lat="44.80672925423814" lon="16.84478452294531"><ele>277.0</ele><time>2026-05-04T13:03:07Z</time></trkpt><trkpt lat="44.80681212498307" lon="16.844624269315467"><ele>278.0</ele><time>2026-05-04T13:03:08Z</time></trkpt><trkpt lat="44.80688240329534" lon="16.844467932899267"><ele>279.0</ele><time>2026-05-04T13:03:09Z</time></trkpt><trkpt lat="44.80691832404472" lon="16.844308342077483"><ele>280.0</ele><time>2026-05-04T13:03:10Z</time></trkpt><trkpt lat="44.80690130905975" lon="16.84415441510306"><ele>282.25</ele><time>2026-05-04T13:03:11Z</time></trkpt><trkpt lat="44.8068359311886" lon="16.8440384571528"><ele>284.5</ele><time>2026-05-04T13:03:12Z</time></trkpt><trkpt lat="44.80673128105414" lon="16.843980145281147"><ele>286.75</ele><time>2026-05-04T13:03:13Z</time></trkpt><trkpt lat="44.80661085312789" lon="16.84399678856253"><ele>289.0</ele><time>2026-05-04T13:03:14Z</time></trkpt><trkpt lat="44.80648769250064" lon="16.844085523130325"><ele>289.0</ele><time>2026-05-04T13:03:15Z</time></trkpt><trkpt lat="44.806348711946164" lon="16.844175261099906"><ele>289.0</ele><time>2026-05-04T13:03:16Z</time></trkpt><trkpt lat="44.806210535494365" lon="16.84422340166137"><ele>289.0</ele><time>2026-05-04T13:03:17Z</time></trkpt><trkpt lat="44.806078423297315" lon="16.8442064296392"><ele>289.0</ele><time>2026-05-04T13:03:18Z</time></trkpt><trkpt lat="44.80597341227269" lon="16.844107706520987"><ele>287.75</ele><time>2026-05-04T13:03:19Z</time></trkpt><trkpt lat="44.80590833546741" lon="16.843963227817056"><ele>286.5</ele><time>2026-05-04T13:03:20Z</time></trkpt><trkpt lat="44.80590426305956" lon="16.843784686948176"><ele>285.25</ele><time>2026-05-04T13:03:21Z</time></trkpt><trkpt lat="44.80594555675205" lon="16.84360137750656"><ele>284.0</ele><time>2026-05-04T13:03:22Z</time></trkpt><trkpt lat="44.80599512023588" lon="16.843416284249372"><ele>289.0</ele><time>2026-05-04T13:03:23Z</time></trkpt><trkpt lat="44.80603472546873" lon="16.843195306835543"><ele>294.0</ele><time>2026-05-04T13:03:24Z</time></trkpt><trkpt lat="44.80606376461787" lon="16.842937222720092"><ele>299.0</ele><time>2026-05-04T13:03:25Z</time></trkpt><trkpt lat="44.806084633676875" lon="16.842683839898925"><ele>296.6666666666667</ele><time>2026-05-04T13:03:26Z</time></trkpt><trkpt lat="44.806076726490346" lon="16.84244455459037"><ele>294.3333333333333</ele><time>2026-05-04T13:03:27Z</time></trkpt><trkpt lat="44.806023409007636" lon="16.84221738645741"><ele>292.0</ele><time>2026-05-04T13:03:28Z</time></trkpt><trkpt lat="44.805925953161314" lon="16.842014595090724"><ele>292.0</ele><time>2026-05-04T13:03:29Z</time></trkpt><trkpt lat="44.80583639365037" lon="16.841806120018735"><ele>292.0</ele><time>2026-05-04T13:03:30Z</time></trkpt><trkpt lat="44.80578723078097" lon="16.84158387250603"><ele>292.0</ele><time>2026-05-04T13:03:31Z</time></trkpt><trkpt lat="44.805785351561546" lon="16.84134803182949"><ele>294.66666666666663</ele><time>2026-05-04T13:03:32Z</time></trkpt><trkpt lat="44.805824572934895" lon="16.841128005483547"><ele>297.3333333333333</ele><time>2026-05-04T13:03:33Z</time></trkpt><trkpt lat="44.80590653941267" lon="16.840932635914193"><ele>300.0</ele><time>2026-05-04T13:03:34Z</time></trkpt><trkpt lat="44.80601780481141" lon="16.84077781442102"><ele>306.5</ele><time>2026-05-04T13:03:35Z</time></trkpt><trkpt lat="44.80614628197414" lon="16.840635814575823"><ele>313.0</ele><time>2026-05-04T13:03:36Z</time></trkpt><trkpt lat="44.80624275105854" lon="16.84047426988393"><ele>319.5</ele><time>2026-05-04T13:03:37Z</time></trkpt><trkpt lat="44.806293646591584" lon="16.840301711110612"><ele>326.0</ele><time>2026-05-04T13:03:38Z</time></trkpt><trkpt lat="44.806280618971314" lon="16.840118955508355"><ele>326.0</ele><time>2026-05-04T13:03:39Z</time></trkpt><trkpt lat="44.806222841912636" lon="16.8399259170182"><ele>326.0</ele><time>2026-05-04T13:03:40Z</time></trkpt><trkpt lat="44.80613191799049" lon="16.839736879079695"><ele>326.0</ele><time>2026-05-04T13:03:41Z</time></trkpt><trkpt lat="44.806029692681605" lon="16.839524660509685"><ele>323.0</ele><time>2026-05-04T13:03:42Z</time></trkpt><trkpt lat="44.80593757215078" lon="16.839267929943688"><ele>320.0</ele><time>2026-05-04T13:03:43Z</time></trkpt><trkpt lat="44.805838420323994" lon="16.838995691359283"><ele>317.0</ele><time>2026-05-04T13:03:44Z</time></trkpt><trkpt lat="44.80572025148192" lon="16.83875712368244"><ele>317.0</ele><time>2026-05-04T13:03:45Z</time></trkpt><trkpt lat="44.80560269981673" lon="16.838546103167197"><ele>317.0</ele><time>2026-05-04T13:03:46Z</time></trkpt><trkpt lat="44.8055146264709" lon="16.83831958833277"><ele>317.0</ele><time>2026-05-04T13:03:47Z</time></trkpt><trkpt lat="44.80547377504925" lon="16.838084401885936"><ele>318.5</ele><time>2026-05-04T13:03:48Z</time></trkpt><trkpt lat="44.80547234281217" lon="16.837864728200028"><ele>320.0</ele><time>2026-05-04T13:03:49Z</time></trkpt><trkpt lat="44.80550737816175" lon="16.83767907014404"><ele>321.5</ele><time>2026-05-04T13:03:50Z</time></trkpt><trkpt lat="44.805580791134595" lon="16.837556976709422"><ele>323.0</ele><time>2026-05-04T13:03:51Z</time></trkpt><trkpt lat="44.80567255636899" lon="16.837492734924112"><ele>323.0</ele><time>2026-05-04T13:03:52Z</time></trkpt><trkpt lat="44.80578918676541" lon="16.83746385309043"><ele>323.0</ele><time>2026-05-04T13:03:53Z</time></trkpt><trkpt lat="44.805926692465384" lon="16.837462069704493"><ele>323.0</ele><time>2026-05-04T13:03:54Z</time></trkpt><trkpt lat="44.80608356818566" lon="16.837499288172523"><ele>323.0</ele><time>2026-05-04T13:03:55Z</time></trkpt><trkpt lat="44.80625500215478" lon="16.837587821482124"><ele>327.33333333333337</ele><time>2026-05-04T13:03:56Z</time></trkpt><trkpt lat="44.80643537707113" lon="16.837710791402632"><ele>331.6666666666667</ele><time>2026-05-04T13:03:57Z</time></trkpt><trkpt lat="44.80661298398363" lon="16.83783552167392"><ele>336.0</ele><time>2026-05-04T13:03:58Z</time></trkpt><trkpt lat="44.80679307683414" lon="16.8379593644185"><ele>338.0</ele><time>2026-05-04T13:03:59Z</time></trkpt><trkpt lat="44.80695799197744" lon="16.838064322596214"><ele>340.0</ele><time>2026-05-04T13:04:00Z</time></trkpt><trkpt lat="44.80713859865641" lon="16.83812070647813"><ele>342.0</ele><time>2026-05-04T13:04:01Z</time></trkpt><trkpt lat="44.80733302801439" lon="16.838113225411007"><ele>342.0</ele><time>2026-05-04T13:04:02Z</time></trkpt><trkpt lat="44.80753540856233" lon="16.838064185910632"><ele>342.0</ele><time>2026-05-04T13:04:03Z</time></trkpt><trkpt lat="44.80773824441927" lon="16.83797528995425"><ele>342.0</ele><time>2026-05-04T13:04:04Z</time></trkpt><trkpt lat="44.80793149406162" lon="16.837857748030025"><ele>343.3333333333333</ele><time>2026-05-04T13:04:05Z</time></trkpt><trkpt lat="44.808127061000164" lon="16.837722438267626"><ele>344.66666666666663</ele><time>2026-05-04T13:04:06Z</time></trkpt><trkpt lat="44.80832292237578" lon="16.8376172389645"><ele>346.0</ele><time>2026-05-04T13:04:07Z</time></trkpt><trkpt lat="44.80850720215914" lon="16.83757774400735"><ele>348.5</ele><time>2026-05-04T13:04:08Z</time></trkpt><trkpt lat="44.80866582630361" lon="16.837595010469894"><ele>351.0</ele><time>2026-05-04T13:04:09Z</time></trkpt><trkpt lat="44.80879163729929" lon="16.83756663571444"><ele>353.5</ele><time>2026-05-04T13:04:10Z</time></trkpt><trkpt lat="44.80889385209753" lon="16.837449725454192"><ele>356.0</ele><time>2026-05-04T13:04:11Z</time></trkpt><trkpt lat="44.80896334230202" lon="16.837274563806453"><ele>356.0</ele><time>2026-05-04T13:04:12Z</time></trkpt><trkpt lat="44.80903057987848" lon="16.837103635947557"><ele>356.0</ele><time>2026-05-04T13:04:13Z</time></trkpt><trkpt lat="44.80912891310609" lon="16.83700739746034"><ele>356.0</ele><time>2026-05-04T13:04:14Z</time></trkpt><trkpt lat="44.80925419014055" lon="16.836984410256232"><ele>356.0</ele><time>2026-05-04T13:04:15Z</time></trkpt><trkpt lat="44.8093991376773" lon="16.83700120165803"><ele>358.0</ele><time>2026-05-04T13:04:16Z</time></trkpt><trkpt lat="44.80956498118983" lon="16.83698454229407"><ele>360.0</ele><time>2026-05-04T13:04:17Z</time></trkpt><trkpt lat="44.809734156958825" lon="16.836886625721217"><ele>362.0</ele><time>2026-05-04T13:04:18Z</time></trkpt><trkpt lat="44.80987464557484" lon="16.836745598572165"><ele>362.0</ele><time>2026-05-04T13:04:19Z</time></trkpt><trkpt lat="44.81001279080878" lon="16.83662551094236"><ele>362.0</ele><time>2026-05-04T13:04:20Z</time></trkpt><trkpt lat="44.81017814534131" lon="16.836589392625406"><ele>362.0</ele><time>2026-05-04T13:04:21Z</time></trkpt><trkpt lat="44.810353777903416" lon="16.836622782351792"><ele>365.6666666666667</ele><time>2026-05-04T13:04:22Z</time></trkpt><trkpt lat="44.81052332797041" lon="16.83666127412898"><ele>369.3333333333333</ele><time>2026-05-04T13:04:23Z</time></trkpt><trkpt lat="44.81068345765698" lon="16.83662416887753"><ele>373.0</ele><time>2026-05-04T13:04:24Z</time></trkpt><trkpt lat="44.81082993307795" lon="16.836501779565804"><ele>373.0</ele><time>2026-05-04T13:04:25Z</time></trkpt><trkpt lat="44.810975438743185" lon="16.83634150429675"><ele>373.0</ele><time>2026-05-04T13:04:26Z</time></trkpt><trkpt lat="44.81113380358579" lon="16.836195471980787"><ele>373.0</ele><time>2026-05-04T13:04:27Z</time></trkpt><trkpt lat="44.8113127972203" lon="16.836122225115844"><ele>375.66666666666663</ele><time>2026-05-04T13:04:28Z</time></trkpt><trkpt lat="44.811492887401684" lon="16.836118102290598"><ele>378.3333333333333</ele><time>2026-05-04T13:04:29Z</time></trkpt><trkpt lat="44.81165979400636" lon="16.836157510556653"><ele>381.0</ele><time>2026-05-04T13:04:30Z</time></trkpt><trkpt lat="44.81182974461593" lon="16.836234897215867"><ele>381.0</ele><time>2026-05-04T13:04:31Z</time></trkpt><trkpt lat="44.81199439569041" lon="16.836334181127015"><ele>381.0</ele><time>2026-05-04T13:04:32Z</time></trkpt><trkpt lat="44.812151646686196" lon="16.836467499136617"><ele>381.0</ele><time>2026-05-04T13:04:33Z</time></trkpt><trkpt lat="44.81229912275559" lon="16.83661728298773"><ele>381.0</ele><time>2026-05-04T13:04:34Z</time></trkpt><trkpt lat="44.8124357331516" lon="16.83677317533978"><ele>381.0</ele><time>2026-05-04T13:04:35Z</time></trkpt><trkpt lat="44.8125672251013" lon="16.836873690834583"><ele>381.0</ele><time>2026-05-04T13:04:36Z</time></trkpt><trkpt lat="44.8127040136068" lon="16.8369061833229"><ele>383.0</ele><time>2026-05-04T13:04:37Z</time></trkpt><trkpt lat="44.81283771770731" lon="16.8368782613082"><ele>385.0</ele><time>2026-05-04T13:04:38Z</time></trkpt><trkpt lat="44.81296031529294" lon="16.83680210487022"><ele>387.0</ele><time>2026-05-04T13:04:39Z</time></trkpt><trkpt lat="44.8130255910135" lon="16.836681267351956"><ele>389.0</ele><time>2026-05-04T13:04:40Z</time></trkpt><trkpt lat="44.813029941108994" lon="16.83651603639179"><ele>389.0</ele><time>2026-05-04T13:04:41Z</time></trkpt><trkpt lat="44.81299548090858" lon="16.836334255417388"><ele>389.0</ele><time>2026-05-04T13:04:42Z</time></trkpt><trkpt lat="44.81294272887599" lon="16.83611346985549"><ele>389.0</ele><time>2026-05-04T13:04:43Z</time></trkpt><trkpt lat="44.81289972777673" lon="16.83589178461178"><ele>389.3333333333333</ele><time>2026-05-04T13:04:44Z</time></trkpt><trkpt lat="44.81287253460517" lon="16.83566051797785"><ele>389.66666666666663</ele><time>2026-05-04T13:04:45Z</time></trkpt><trkpt lat="44.812869406354004" lon="16.835434526293252"><ele>390.0</ele><time>2026-05-04T13:04:46Z</time></trkpt><trkpt lat="44.812840958321644" lon="16.835234971376153"><ele>390.33333333333337</ele><time>2026-05-04T13:04:47Z</time></trkpt><trkpt lat="44.81275534536411" lon="16.835060505304547"><ele>390.6666666666667</ele><time>2026-05-04T13:04:48Z</time></trkpt><trkpt lat="44.812624419029106" lon="16.83492522046947"><ele>391.0</ele><time>2026-05-04T13:04:49Z</time></trkpt><trkpt lat="44.81247302515668" lon="16.8348069179349"><ele>391.33333333333337</ele><time>2026-05-04T13:04:50Z</time></trkpt><trkpt lat="44.81232928210432" lon="16.834660769055773"><ele>391.66666666666663</ele><time>2026-05-04T13:04:51Z</time></trkpt><trkpt lat="44.81221003896806" lon="16.834467082982773"><ele>392.0</ele><time>2026-05-04T13:04:52Z</time></trkpt><trkpt lat="44.81213734966014" lon="16.834259410122076"><ele>392.0</ele><time>2026-05-04T13:04:53Z</time></trkpt><trkpt lat="44.812088263566416" lon="16.834049713170895"><ele>392.0</ele><time>2026-05-04T13:04:54Z</time></trkpt><trkpt lat="44.81200325715406" lon="16.833874080790288"><ele>392.0</ele><time>2026-05-04T13:04:55Z</time></trkpt><trkpt lat="44.811865981161915" lon="16.83375869978541"><ele>389.0</ele><time>2026-05-04T13:04:56Z</time></trkpt><trkpt lat="44.811699953333125" lon="16.8337119909696"><ele>386.0</ele><time>2026-05-04T13:04:57Z</time></trkpt><trkpt lat="44.81154858146563" lon="16.83367888116163"><ele>383.0</ele><time>2026-05-04T13:04:58Z</time></trkpt><trkpt lat="44.81143143002419" lon="16.833590369826382"><ele>386.0</ele><time>2026-05-04T13:04:59Z</time></trkpt><trkpt lat="44.81136836305352" lon="16.833433369934212"><ele>389.0</ele><time>2026-05-04T13:05:00Z</time></trkpt><trkpt lat="44.81134198236404" lon="16.83324398765074"><ele>392.0</ele><time>2026-05-04T13:05:01Z</time></trkpt><trkpt lat="44.81134632637373" lon="16.83302630764283"><ele>395.0</ele><time>2026-05-04T13:05:02Z</time></trkpt><trkpt lat="44.81137206953062" lon="16.83278384324659"><ele>396.3333333333333</ele><time>2026-05-04T13:05:03Z</time></trkpt><trkpt lat="44.811387782702454" lon="16.832537286130318"><ele>397.66666666666663</ele><time>2026-05-04T13:05:04Z</time></trkpt><trkpt lat="44.81136120597442" lon="16.83229834970191"><ele>399.0</ele><time>2026-05-04T13:05:05Z</time></trkpt><trkpt lat="44.81128790072603" lon="16.832073016406596"><ele>399.0</ele><time>2026-05-04T13:05:06Z</time></trkpt><trkpt lat="44.811182131413986" lon="16.831858375043762"><ele>399.0</ele><time>2026-05-04T13:05:07Z</time></trkpt><trkpt lat="44.81107305072648" lon="16.831656660972772"><ele>399.0</ele><time>2026-05-04T13:05:08Z</time></trkpt><trkpt lat="44.810993084534395" lon="16.83144261734286"><ele>397.33333333333337</ele><time>2026-05-04T13:05:09Z</time></trkpt><trkpt lat="44.8109601387156" lon="16.831211325723014"><ele>395.6666666666667</ele><time>2026-05-04T13:05:10Z</time></trkpt><trkpt lat="44.81098282150752" lon="16.830978041902107"><ele>394.0</ele><time>2026-05-04T13:05:11Z</time></trkpt><trkpt lat="44.8110600700906" lon="16.83077839983856"><ele>399.0</ele><time>2026-05-04T13:05:12Z</time></trkpt><trkpt lat="44.81117302359887" lon="16.830615511806393"><ele>404.0</ele><time>2026-05-04T13:05:13Z</time></trkpt><trkpt lat="44.811310234262784" lon="16.830501125951002"><ele>409.0</ele><time>2026-05-04T13:05:14Z</time></trkpt><trkpt lat="44.81145651625831" lon="16.83040288412641"><ele>409.0</ele><time>2026-05-04T13:05:15Z</time></trkpt><trkpt lat="44.811582536215234" lon="16.830257584934017"><ele>409.0</ele><time>2026-05-04T13:05:16Z</time></trkpt><trkpt lat="44.81164300830877" lon="16.830049022544998"><ele>409.0</ele><time>2026-05-04T13:05:17Z</time></trkpt><trkpt lat="44.81167829534169" lon="16.829827664482877"><ele>408.25</ele><time>2026-05-04T13:05:18Z</time></trkpt><trkpt lat="44.81170994377405" lon="16.829627079722385"><ele>407.5</ele><time>2026-05-04T13:05:19Z</time></trkpt><trkpt lat="44.811765494406096" lon="16.829455822224105"><ele>406.75</ele><time>2026-05-04T13:05:20Z</time></trkpt><trkpt lat="44.81185981996384" lon="16.82933625373341"><ele>406.0</ele><time>2026-05-04T13:05:21Z</time></trkpt><trkpt lat="44.81197749666528" lon="16.829270050956715"><ele>405.25</ele><time>2026-05-04T13:05:22Z</time></trkpt><trkpt lat="44.81211369137842" lon="16.82923555644594"><ele>404.5</ele><time>2026-05-04T13:05:23Z</time></trkpt><trkpt lat="44.81226598175679" lon="16.82923391519686"><ele>403.75</ele><time>2026-05-04T13:05:24Z</time></trkpt><trkpt lat="44.81242228391337" lon="16.82925535974429"><ele>403.0</ele><time>2026-05-04T13:05:25Z</time></trkpt><trkpt lat="44.812587523740326" lon="16.829240020734456"><ele>405.33333333333337</ele><time>2026-05-04T13:05:26Z</time></trkpt><trkpt lat="44.81274648560803" lon="16.82916582263494"><ele>407.66666666666663</ele><time>2026-05-04T13:05:27Z</time></trkpt><trkpt lat="44.812877130102386" lon="16.8290344794633"><ele>410.0</ele><time>2026-05-04T13:05:28Z</time></trkpt><trkpt lat="44.81295062439775" lon="16.828850659714405"><ele>410.0</ele><time>2026-05-04T13:05:29Z</time></trkpt><trkpt lat="44.81298905711866" lon="16.828624093331086"><ele>410.0</ele><time>2026-05-04T13:05:30Z</time></trkpt><trkpt lat="44.813004257224044" lon="16.828376211799775"><ele>410.0</ele><time>2026-05-04T13:05:31Z</time></trkpt><trkpt lat="44.813016850190834" lon="16.82812164903528"><ele>409.0</ele><time>2026-05-04T13:05:32Z</time></trkpt><trkpt lat="44.81299161579756" lon="16.82787380546267"><ele>408.0</ele><time>2026-05-04T13:05:33Z</time></trkpt><trkpt lat="44.8129559721725" lon="16.82763685325626"><ele>407.0</ele><time>2026-05-04T13:05:34Z</time></trkpt><trkpt lat="44.81296916998593" lon="16.82740755654864"><ele>407.0</ele><time>2026-05-04T13:05:35Z</time></trkpt><trkpt lat="44.81298505172079" lon="16.82721665970435"><ele>407.0</ele><time>2026-05-04T13:05:36Z</time></trkpt><trkpt lat="44.81294411018013" lon="16.827045251436626"><ele>407.0</ele><time>2026-05-04T13:05:37Z</time></trkpt><trkpt lat="44.812840734487914" lon="16.826910348271376"><ele>407.0</ele><time>2026-05-04T13:05:38Z</time></trkpt><trkpt lat="44.81269641003399" lon="16.826811383040543"><ele>405.75</ele><time>2026-05-04T13:05:39Z</time></trkpt><trkpt lat="44.812554687327484" lon="16.82672458119792"><ele>404.5</ele><time>2026-05-04T13:05:40Z</time></trkpt><trkpt lat="44.81243219027428" lon="16.82661333392307"><ele>403.25</ele><time>2026-05-04T13:05:41Z</time></trkpt><trkpt lat="44.81233718370934" lon="16.826482045282695"><ele>402.0</ele><time>2026-05-04T13:05:42Z</time></trkpt><trkpt lat="44.81226969571492" lon="16.826318451269188"><ele>402.0</ele><time>2026-05-04T13:05:43Z</time></trkpt><trkpt lat="44.812241264685895" lon="16.826140193455895"><ele>402.0</ele><time>2026-05-04T13:05:44Z</time></trkpt><trkpt lat="44.812258894790844" lon="16.825952962971883"><ele>402.0</ele><time>2026-05-04T13:05:45Z</time></trkpt><trkpt lat="44.81231659027549" lon="16.82577710699052"><ele>402.0</ele><time>2026-05-04T13:05:46Z</time></trkpt><trkpt lat="44.81242560354661" lon="16.825628795021455"><ele>402.0</ele><time>2026-05-04T13:05:47Z</time></trkpt><trkpt lat="44.812565029327644" lon="16.825500086092205"><ele>402.0</ele><time>2026-05-04T13:05:48Z</time></trkpt><trkpt lat="44.812724859715466" lon="16.82537286769622"><ele>402.0</ele><time>2026-05-04T13:05:49Z</time></trkpt><trkpt lat="44.81288954318475" lon="16.825230510769263"><ele>400.33333333333337</ele><time>2026-05-04T13:05:50Z</time></trkpt><trkpt lat="44.81306337533131" lon="16.82508749089709"><ele>398.6666666666667</ele><time>2026-05-04T13:05:51Z</time></trkpt><trkpt lat="44.81324496974337" lon="16.82496270778442"><ele>397.0</ele><time>2026-05-04T13:05:52Z</time></trkpt><trkpt lat="44.81341873507192" lon="16.824856034756756"><ele>394.0</ele><time>2026-05-04T13:05:53Z</time></trkpt><trkpt lat="44.81357268567641" lon="16.824727865973713"><ele>391.0</ele><time>2026-05-04T13:05:54Z</time></trkpt><trkpt lat="44.8136826306496" lon="16.824542442803047"><ele>388.0</ele><time>2026-05-04T13:05:55Z</time></trkpt><trkpt lat="44.813750449446395" lon="16.8243113839716"><ele>388.0</ele><time>2026-05-04T13:05:56Z</time></trkpt><trkpt lat="44.813801668890264" lon="16.824055289465708"><ele>388.0</ele><time>2026-05-04T13:05:57Z</time></trkpt><trkpt lat="44.813861383775475" lon="16.82381342007628"><ele>388.0</ele><time>2026-05-04T13:05:58Z</time></trkpt><trkpt lat="44.81392235100996" lon="16.823575363558767"><ele>389.33333333333337</ele><time>2026-05-04T13:05:59Z</time></trkpt><trkpt lat="44.8139900568813" lon="16.823355606939458"><ele>390.66666666666663</ele><time>2026-05-04T13:06:00Z</time></trkpt><trkpt lat="44.81407975493602" lon="16.82313537307534"><ele>392.0</ele><time>2026-05-04T13:06:01Z</time></trkpt><trkpt lat="44.81419391951685" lon="16.822925616066573"><ele>391.66666666666663</ele><time>2026-05-04T13:06:02Z</time></trkpt><trkpt lat="44.8143362923384" lon="16.822724152500882"><ele>391.33333333333337</ele><time>2026-05-04T13:06:03Z</time></trkpt><trkpt lat="44.8144819540837" lon="16.822531443181678"><ele>391.0</ele><time>2026-05-04T13:06:04Z</time></trkpt><trkpt lat="44.814628083277604" lon="16.822327342483092"><ele>391.0</ele><time>2026-05-04T13:06:05Z</time></trkpt><trkpt lat="44.814772476044766" lon="16.82210968615034"><ele>391.0</ele><time>2026-05-04T13:06:06Z</time></trkpt><trkpt lat="44.81490983531746" lon="16.821884384099757"><ele>391.0</ele><time>2026-05-04T13:06:07Z</time></trkpt><trkpt lat="44.815028356304694" lon="16.821678177895198"><ele>389.6666666666667</ele><time>2026-05-04T13:06:08Z</time></trkpt><trkpt lat="44.81513594451436" lon="16.821485914805702"><ele>388.33333333333337</ele><time>2026-05-04T13:06:09Z</time></trkpt><trkpt lat="44.8152329169942" lon="16.82131588999648"><ele>387.0</ele><time>2026-05-04T13:06:10Z</time></trkpt><trkpt lat="44.8153235245019" lon="16.821154395702354"><ele>387.0</ele><time>2026-05-04T13:06:11Z</time></trkpt><trkpt lat="44.81540312986141" lon="16.821005233733676"><ele>387.0</ele><time>2026-05-04T13:06:12Z</time></trkpt><trkpt lat="44.81547668233221" lon="16.820864884754553"><ele>387.0</ele><time>2026-05-04T13:06:13Z</time></trkpt><trkpt lat="44.81554335103162" lon="16.820738062646875"><ele>387.0</ele><time>2026-05-04T13:06:14Z</time></trkpt><trkpt lat="44.81561419042854" lon="16.820633946773665"><ele>387.0</ele><time>2026-05-04T13:06:15Z</time></trkpt><trkpt lat="44.8156998580708" lon="16.820591052009423"><ele>387.0</ele><time>2026-05-04T13:06:16Z</time></trkpt><trkpt lat="44.815807839756644" lon="16.820593572532943"><ele>387.0</ele><time>2026-05-04T13:06:17Z</time></trkpt><trkpt lat="44.81593218153908" lon="16.820600141832294"><ele>387.0</ele><time>2026-05-04T13:06:18Z</time></trkpt><trkpt lat="44.81606020704779" lon="16.82056854993328"><ele>387.0</ele><time>2026-05-04T13:06:19Z</time></trkpt><trkpt lat="44.81619577753204" lon="16.82050798967394"><ele>387.0</ele><time>2026-05-04T13:06:20Z</time></trkpt><trkpt lat="44.816342463617424" lon="16.820450778403522"><ele>387.0</ele><time>2026-05-04T13:06:21Z</time></trkpt><trkpt lat="44.81650464701244" lon="16.82039296413173"><ele>387.0</ele><time>2026-05-04T13:06:22Z</time></trkpt><trkpt lat="44.8166547462561" lon="16.82031564175498"><ele>387.0</ele><time>2026-05-04T13:06:23Z</time></trkpt><trkpt lat="44.81679253555294" lon="16.820216742936864"><ele>387.0</ele><time>2026-05-04T13:06:24Z</time></trkpt><trkpt lat="44.81692380638301" lon="16.82007417678385"><ele>388.0</ele><time>2026-05-04T13:06:25Z</time></trkpt><trkpt lat="44.81704211283314" lon="16.819932007213758"><ele>389.0</ele><time>2026-05-04T13:06:26Z</time></trkpt><trkpt lat="44.81715962542457" lon="16.81981239739565"><ele>390.0</ele><time>2026-05-04T13:06:27Z</time></trkpt><trkpt lat="44.81729476961079" lon="16.81974541526353"><ele>391.0</ele><time>2026-05-04T13:06:28Z</time></trkpt><trkpt lat="44.817439901010495" lon="16.819716136833122"><ele>391.0</ele><time>2026-05-04T13:06:29Z</time></trkpt><trkpt lat="44.81758652256413" lon="16.8197319072128"><ele>391.0</ele><time>2026-05-04T13:06:30Z</time></trkpt><trkpt lat="44.817741735086685" lon="16.81978805012161"><ele>391.0</ele><time>2026-05-04T13:06:31Z</time></trkpt><trkpt lat="44.8178947909822" lon="16.81984620345261"><ele>391.33333333333337</ele><time>2026-05-04T13:06:32Z</time></trkpt><trkpt lat="44.81805757936082" lon="16.819895905047648"><ele>391.66666666666663</ele><time>2026-05-04T13:06:33Z</time></trkpt><trkpt lat="44.8182209576275" lon="16.819927030329982"><ele>392.0</ele><time>2026-05-04T13:06:34Z</time></trkpt><trkpt lat="44.818389886601786" lon="16.819957691173624"><ele>391.66666666666663</ele><time>2026-05-04T13:06:35Z</time></trkpt><trkpt lat="44.8185499144265" lon="16.82000161341432"><ele>391.33333333333337</ele><time>2026-05-04T13:06:36Z</time></trkpt><trkpt lat="44.818700843594605" lon="16.82006778616629"><ele>391.0</ele><time>2026-05-04T13:06:37Z</time></trkpt><trkpt lat="44.818843163680896" lon="16.820146064388354"><ele>386.33333333333337</ele><time>2026-05-04T13:06:38Z</time></trkpt><trkpt lat="44.81897995304737" lon="16.8202459540265"><ele>381.6666666666667</ele><time>2026-05-04T13:06:39Z</time></trkpt><trkpt lat="44.819112214409486" lon="16.82036169756381"><ele>377.0</ele><time>2026-05-04T13:06:40Z</time></trkpt><trkpt lat="44.81925375120043" lon="16.820495162666727"><ele>378.33333333333337</ele><time>2026-05-04T13:06:41Z</time></trkpt><trkpt lat="44.81939776701376" lon="16.820631782799406"><ele>379.6666666666667</ele><time>2026-05-04T13:06:42Z</time></trkpt><trkpt lat="44.81952538433736" lon="16.820767895825202"><ele>381.0</ele><time>2026-05-04T13:06:43Z</time></trkpt><trkpt lat="44.819626507530344" lon="16.820918920088513"><ele>379.3333333333333</ele><time>2026-05-04T13:06:44Z</time></trkpt><trkpt lat="44.81969143459052" lon="16.821101877536005"><ele>377.66666666666663</ele><time>2026-05-04T13:06:45Z</time></trkpt><trkpt lat="44.81974800578043" lon="16.82130910729987"><ele>376.0</ele><time>2026-05-04T13:06:46Z</time></trkpt><trkpt lat="44.81983743300019" lon="16.821527746579818"><ele>376.0</ele><time>2026-05-04T13:06:47Z</time></trkpt><trkpt lat="44.81994018211012" lon="16.821731116564195"><ele>376.0</ele><time>2026-05-04T13:06:48Z</time></trkpt><trkpt lat="44.82003990324866" lon="16.821946966017244"><ele>376.0</ele><time>2026-05-04T13:06:49Z</time></trkpt><trkpt lat="44.820117710778305" lon="16.822177075738452"><ele>372.66666666666663</ele><time>2026-05-04T13:06:50Z</time></trkpt><trkpt lat="44.820184812435706" lon="16.822402494172046"><ele>369.3333333333333</ele><time>2026-05-04T13:06:51Z</time></trkpt><trkpt lat="44.8202514750219" lon="16.822624154520025"><ele>366.0</ele><time>2026-05-04T13:06:52Z</time></trkpt><trkpt lat="44.82032156377799" lon="16.82282370488725"><ele>366.0</ele><time>2026-05-04T13:06:53Z</time></trkpt><trkpt lat="44.82039719290751" lon="16.823004551353772"><ele>366.0</ele><time>2026-05-04T13:06:54Z</time></trkpt><trkpt lat="44.8204975736722" lon="16.82316144957089"><ele>366.0</ele><time>2026-05-04T13:06:55Z</time></trkpt><trkpt lat="44.82061980418471" lon="16.823312244326747"><ele>366.0</ele><time>2026-05-04T13:06:56Z</time></trkpt><trkpt lat="44.820761848197925" lon="16.823457003772965"><ele>366.0</ele><time>2026-05-04T13:06:57Z</time></trkpt><trkpt lat="44.820911806994566" lon="16.823606023784777"><ele>366.0</ele><time>2026-05-04T13:06:58Z</time></trkpt><trkpt lat="44.8210657563419" lon="16.823749883946185"><ele>365.0</ele><time>2026-05-04T13:06:59Z</time></trkpt><trkpt lat="44.8212098977971" lon="16.82389655222925"><ele>364.0</ele><time>2026-05-04T13:07:00Z</time></trkpt><trkpt lat="44.82134217059626" lon="16.824078970236705"><ele>363.0</ele><time>2026-05-04T13:07:01Z</time></trkpt><trkpt lat="44.82146078419898" lon="16.824294131013538"><ele>362.0</ele><time>2026-05-04T13:07:02Z</time></trkpt><trkpt lat="44.82157116788416" lon="16.82450322745761"><ele>361.0</ele><time>2026-05-04T13:07:03Z</time></trkpt><trkpt lat="44.82168097955433" lon="16.824680957665834"><ele>360.0</ele><time>2026-05-04T13:07:04Z</time></trkpt><trkpt lat="44.82180231329002" lon="16.824822078074543"><ele>359.75</ele><time>2026-05-04T13:07:05Z</time></trkpt><trkpt lat="44.82191592577041" lon="16.82493419824537"><ele>359.5</ele><time>2026-05-04T13:07:06Z</time></trkpt><trkpt lat="44.82201254216699" lon="16.825035131733163"><ele>359.25</ele><time>2026-05-04T13:07:07Z</time></trkpt><trkpt lat="44.8220961287179" lon="16.82513165605327"><ele>359.0</ele><time>2026-05-04T13:07:08Z</time></trkpt><trkpt lat="44.82218126187874" lon="16.825205286931762"><ele>359.0</ele><time>2026-05-04T13:07:09Z</time></trkpt><trkpt lat="44.82227324717325" lon="16.825242993646043"><ele>359.0</ele><time>2026-05-04T13:07:10Z</time></trkpt><trkpt lat="44.822362997378626" lon="16.825223626057507"><ele>359.0</ele><time>2026-05-04T13:07:11Z</time></trkpt><trkpt lat="44.82243389849843" lon="16.825146714125534"><ele>359.0</ele><time>2026-05-04T13:07:12Z</time></trkpt><trkpt lat="44.82247289529785" lon="16.82502755053121"><ele>359.0</ele><time>2026-05-04T13:07:13Z</time></trkpt><trkpt lat="44.82248536212974" lon="16.824883234169086"><ele>359.0</ele><time>2026-05-04T13:07:14Z</time></trkpt><trkpt lat="44.82247369369172" lon="16.824722548652034"><ele>359.0</ele><time>2026-05-04T13:07:15Z</time></trkpt><trkpt lat="44.822443940207506" lon="16.824551766916436"><ele>359.0</ele><time>2026-05-04T13:07:16Z</time></trkpt><trkpt lat="44.8223782628371" lon="16.82435447327116"><ele>359.0</ele><time>2026-05-04T13:07:17Z</time></trkpt><trkpt lat="44.82228574108326" lon="16.824150349838813"><ele>357.0</ele><time>2026-05-04T13:07:18Z</time></trkpt><trkpt lat="44.822181573445384" lon="16.823948569860104"><ele>355.0</ele><time>2026-05-04T13:07:19Z</time></trkpt><trkpt lat="44.82209763934011" lon="16.82372650938356"><ele>353.0</ele><time>2026-05-04T13:07:20Z</time></trkpt><trkpt lat="44.822041372462685" lon="16.82348478560627"><ele>351.0</ele><time>2026-05-04T13:07:21Z</time></trkpt><trkpt lat="44.82197630926075" lon="16.823244168510797"><ele>349.0</ele><time>2026-05-04T13:07:22Z</time></trkpt><trkpt lat="44.82189128662373" lon="16.82302712131358"><ele>347.0</ele><time>2026-05-04T13:07:23Z</time></trkpt><trkpt lat="44.821788296138244" lon="16.82281327696008"><ele>347.6666666666667</ele><time>2026-05-04T13:07:24Z</time></trkpt><trkpt lat="44.82167714739985" lon="16.822600722111417"><ele>348.3333333333333</ele><time>2026-05-04T13:07:25Z</time></trkpt><trkpt lat="44.821581042237824" lon="16.822378045073066"><ele>349.0</ele><time>2026-05-04T13:07:26Z</time></trkpt><trkpt lat="44.8215106950615" lon="16.82215796290431"><ele>349.0</ele><time>2026-05-04T13:07:27Z</time></trkpt><trkpt lat="44.821459974509786" lon="16.821925402093065"><ele>349.0</ele><time>2026-05-04T13:07:28Z</time></trkpt><trkpt lat="44.82143273910722" lon="16.821674200407358"><ele>349.0</ele><time>2026-05-04T13:07:29Z</time></trkpt><trkpt lat="44.82141196118616" lon="16.821408757319187"><ele>346.66666666666663</ele><time>2026-05-04T13:07:30Z</time></trkpt><trkpt lat="44.821378040011446" lon="16.821134014696714"><ele>344.3333333333333</ele><time>2026-05-04T13:07:31Z</time></trkpt><trkpt lat="44.82130552968938" lon="16.82085290162013"><ele>342.0</ele><time>2026-05-04T13:07:32Z</time></trkpt><trkpt lat="44.821203388333835" lon="16.820566387651837"><ele>340.3333333333333</ele><time>2026-05-04T13:07:33Z</time></trkpt><trkpt lat="44.82111421284341" lon="16.820321397203074"><ele>338.66666666666663</ele><time>2026-05-04T13:07:34Z</time></trkpt><trkpt lat="44.82106724965163" lon="16.820084493853418"><ele>337.0</ele><time>2026-05-04T13:07:35Z</time></trkpt><trkpt lat="44.82106742547996" lon="16.8198539429286"><ele>336.3333333333333</ele><time>2026-05-04T13:07:36Z</time></trkpt><trkpt lat="44.82110007745816" lon="16.819652478481835"><ele>335.6666666666667</ele><time>2026-05-04T13:07:37Z</time></trkpt><trkpt lat="44.82115610732722" lon="16.81945162460501"><ele>335.0</ele><time>2026-05-04T13:07:38Z</time></trkpt><trkpt lat="44.8212253112579" lon="16.819252538462095"><ele>334.6666666666667</ele><time>2026-05-04T13:07:39Z</time></trkpt><trkpt lat="44.8213226174383" lon="16.819058716621683"><ele>334.3333333333333</ele><time>2026-05-04T13:07:40Z</time></trkpt><trkpt lat="44.821438479195514" lon="16.818883944045666"><ele>334.0</ele><time>2026-05-04T13:07:41Z</time></trkpt><trkpt lat="44.82155340708976" lon="16.818712485875903"><ele>334.0</ele><time>2026-05-04T13:07:42Z</time></trkpt><trkpt lat="44.82165695957631" lon="16.81854507583749"><ele>334.0</ele><time>2026-05-04T13:07:43Z</time></trkpt><trkpt lat="44.82174562965821" lon="16.818391800773867"><ele>334.0</ele><time>2026-05-04T13:07:44Z</time></trkpt><trkpt lat="44.82183068639075" lon="16.81823557006586"><ele>334.0</ele><time>2026-05-04T13:07:45Z</time></trkpt><trkpt lat="44.82191356959822" lon="16.818088341131514"><ele>332.25</ele><time>2026-05-04T13:07:46Z</time></trkpt><trkpt lat="44.82200766127258" lon="16.81795813105319"><ele>330.5</ele><time>2026-05-04T13:07:47Z</time></trkpt><trkpt lat="44.82210953288723" lon="16.817847165837907"><ele>328.75</ele><time>2026-05-04T13:07:48Z</time></trkpt><trkpt lat="44.82222188100908" lon="16.817756614830266"><ele>327.0</ele><time>2026-05-04T13:07:49Z</time></trkpt><trkpt lat="44.822346227220585" lon="16.817676563278255"><ele>327.3333333333333</ele><time>2026-05-04T13:07:50Z</time></trkpt><trkpt lat="44.82248700366678" lon="16.81759656121563"><ele>327.66666666666663</ele><time>2026-05-04T13:07:51Z</time></trkpt><trkpt lat="44.82265063239662" lon="16.81752236439705"><ele>328.0</ele><time>2026-05-04T13:07:52Z</time></trkpt><trkpt lat="44.82282863527073" lon="16.817461134469475"><ele>327.0</ele><time>2026-05-04T13:07:53Z</time></trkpt><trkpt lat="44.82301927109225" lon="16.81740696785508"><ele>326.0</ele><time>2026-05-04T13:07:54Z</time></trkpt><trkpt lat="44.82320147648643" lon="16.817362278331046"><ele>325.0</ele><time>2026-05-04T13:07:55Z</time></trkpt><trkpt lat="44.82337415519818" lon="16.817318216033712"><ele>323.66666666666663</ele><time>2026-05-04T13:07:56Z</time></trkpt><trkpt lat="44.82353056764101" lon="16.81724321124327"><ele>322.3333333333333</ele><time>2026-05-04T13:07:57Z</time></trkpt><trkpt lat="44.82367705565111" lon="16.817126318505135"><ele>321.0</ele><time>2026-05-04T13:07:58Z</time></trkpt><trkpt lat="44.82382202322056" lon="16.816985240037372"><ele>321.0</ele><time>2026-05-04T13:07:59Z</time></trkpt><trkpt lat="44.823963687919154" lon="16.81684414083369"><ele>321.0</ele><time>2026-05-04T13:08:00Z</time></trkpt><trkpt lat="44.82410941092542" lon="16.816719627367025"><ele>321.0</ele><time>2026-05-04T13:08:01Z</time></trkpt><trkpt lat="44.82426450256879" lon="16.81661253764713"><ele>322.3333333333333</ele><time>2026-05-04T13:08:02Z</time></trkpt><trkpt lat="44.82442587348939" lon="16.816520413973517"><ele>323.66666666666663</ele><time>2026-05-04T13:08:03Z</time></trkpt><trkpt lat="44.824592268548564" lon="16.816427961725523"><ele>325.0</ele><time>2026-05-04T13:08:04Z</time></trkpt><trkpt lat="44.824756379353" lon="16.816344789079633"><ele>325.0</ele><time>2026-05-04T13:08:05Z</time></trkpt><trkpt lat="44.82491651640721" lon="16.81627231129224"><ele>325.0</ele><time>2026-05-04T13:08:06Z</time></trkpt><trkpt lat="44.82506895156112" lon="16.81622872071987"><ele>325.0</ele><time>2026-05-04T13:08:07Z</time></trkpt><trkpt lat="44.825226054167345" lon="16.816215461041395"><ele>323.3333333333333</ele><time>2026-05-04T13:08:08Z</time></trkpt><trkpt lat="44.82537861840055" lon="16.81623568930018"><ele>321.6666666666667</ele><time>2026-05-04T13:08:09Z</time></trkpt><trkpt lat="44.82553907665757" lon="16.81624821557968"><ele>320.0</ele><time>2026-05-04T13:08:10Z</time></trkpt><trkpt lat="44.825699290682806" lon="16.81622761816877"><ele>320.0</ele><time>2026-05-04T13:08:11Z</time></trkpt><trkpt lat="44.825851534813104" lon="16.81616177385018"><ele>320.0</ele><time>2026-05-04T13:08:12Z</time></trkpt><trkpt lat="44.82599618654621" lon="16.816041839421864"><ele>320.0</ele><time>2026-05-04T13:08:13Z</time></trkpt><trkpt lat="44.826128880804184" lon="16.815890175506375"><ele>321.33333333333337</ele><time>2026-05-04T13:08:14Z</time></trkpt><trkpt lat="44.826259566516626" lon="16.81572564420298"><ele>322.6666666666667</ele><time>2026-05-04T13:08:15Z</time></trkpt><trkpt lat="44.82640016222782" lon="16.81556813399905"><ele>324.0</ele><time>2026-05-04T13:08:16Z</time></trkpt><trkpt lat="44.82653400609019" lon="16.81542078141566"><ele>324.0</ele><time>2026-05-04T13:08:17Z</time></trkpt><trkpt lat="44.82665488517106" lon="16.815279487334163"><ele>324.0</ele><time>2026-05-04T13:08:18Z</time></trkpt><trkpt lat="44.82675760010903" lon="16.81512046144085"><ele>324.0</ele><time>2026-05-04T13:08:19Z</time></trkpt><trkpt lat="44.82684347856275" lon="16.81494776497387"><ele>320.75</ele><time>2026-05-04T13:08:20Z</time></trkpt><trkpt lat="44.826916382810886" lon="16.814761052365704"><ele>317.5</ele><time>2026-05-04T13:08:21Z</time></trkpt><trkpt lat="44.82697192980471" lon="16.814571515983864"><ele>314.25</ele><time>2026-05-04T13:08:22Z</time></trkpt><trkpt lat="44.827005227544" lon="16.814374811744656"><ele>311.0</ele><time>2026-05-04T13:08:23Z</time></trkpt><trkpt lat="44.82703961714522" lon="16.814184867530667"><ele>308.6666666666667</ele><time>2026-05-04T13:08:24Z</time></trkpt><trkpt lat="44.827112014701854" lon="16.814006131380847"><ele>306.3333333333333</ele><time>2026-05-04T13:08:25Z</time></trkpt><trkpt lat="44.827223304883226" lon="16.81385099926767"><ele>304.0</ele><time>2026-05-04T13:08:26Z</time></trkpt><trkpt lat="44.827345731791915" lon="16.813688862662364"><ele>304.0</ele><time>2026-05-04T13:08:27Z</time></trkpt><trkpt lat="44.82747440510871" lon="16.81350949323505"><ele>304.0</ele><time>2026-05-04T13:08:28Z</time></trkpt><trkpt lat="44.82758726741227" lon="16.813326554494832"><ele>304.0</ele><time>2026-05-04T13:08:29Z</time></trkpt><trkpt lat="44.82768140587844" lon="16.813128342915217"><ele>300.66666666666663</ele><time>2026-05-04T13:08:30Z</time></trkpt><trkpt lat="44.8277499407936" lon="16.812927303031305"><ele>297.3333333333333</ele><time>2026-05-04T13:08:31Z</time></trkpt><trkpt lat="44.82780280098124" lon="16.81272072838449"><ele>294.0</ele><time>2026-05-04T13:08:32Z</time></trkpt><trkpt lat="44.827858553245804" lon="16.812519197333792"><ele>294.0</ele><time>2026-05-04T13:08:33Z</time></trkpt><trkpt lat="44.82793729158061" lon="16.812354130995733"><ele>294.0</ele><time>2026-05-04T13:08:34Z</time></trkpt><trkpt lat="44.8280491736628" lon="16.812259970347657"><ele>294.0</ele><time>2026-05-04T13:08:35Z</time></trkpt><trkpt lat="44.82817105522767" lon="16.812207229369236"><ele>294.0</ele><time>2026-05-04T13:08:36Z</time></trkpt><trkpt lat="44.828302279555956" lon="16.812220333639804"><ele>294.0</ele><time>2026-05-04T13:08:37Z</time></trkpt><trkpt lat="44.8284404020955" lon="16.812254027405682"><ele>294.0</ele><time>2026-05-04T13:08:38Z</time></trkpt><trkpt lat="44.828589424705754" lon="16.81230371525547"><ele>294.0</ele><time>2026-05-04T13:08:39Z</time></trkpt><trkpt lat="44.82874066982227" lon="16.81234169474164"><ele>294.0</ele><time>2026-05-04T13:08:40Z</time></trkpt><trkpt lat="44.82889336701077" lon="16.812354130341355"><ele>290.0</ele><time>2026-05-04T13:08:41Z</time></trkpt><trkpt lat="44.82904898843709" lon="16.812332525797615"><ele>286.0</ele><time>2026-05-04T13:08:42Z</time></trkpt><trkpt lat="44.82919411609464" lon="16.812257417023435"><ele>282.0</ele><time>2026-05-04T13:08:43Z</time></trkpt><trkpt lat="44.82933974844761" lon="16.812149283013124"><ele>279.6666666666667</ele><time>2026-05-04T13:08:44Z</time></trkpt><trkpt lat="44.829480892498104" lon="16.8120203421469"><ele>277.33333333333337</ele><time>2026-05-04T13:08:45Z</time></trkpt><trkpt lat="44.82961470222199" lon="16.811896031005762"><ele>275.0</ele><time>2026-05-04T13:08:46Z</time></trkpt><trkpt lat="44.82975200621868" lon="16.811794778477765"><ele>274.5</ele><time>2026-05-04T13:08:47Z</time></trkpt><trkpt lat="44.82988868057447" lon="16.811747297410868"><ele>274.0</ele><time>2026-05-04T13:08:48Z</time></trkpt><trkpt lat="44.83003522503905" lon="16.8117440993879"><ele>273.5</ele><time>2026-05-04T13:08:49Z</time></trkpt><trkpt lat="44.830191856629526" lon="16.811771979643698"><ele>273.0</ele><time>2026-05-04T13:08:50Z</time></trkpt><trkpt lat="44.83035398891452" lon="16.811803447687502"><ele>270.6666666666667</ele><time>2026-05-04T13:08:51Z</time></trkpt><trkpt lat="44.830518268737585" lon="16.81181259153046"><ele>268.33333333333337</ele><time>2026-05-04T13:08:52Z</time></trkpt><trkpt lat="44.83068559076243" lon="16.811785016251438"><ele>266.0</ele><time>2026-05-04T13:08:53Z</time></trkpt><trkpt lat="44.83084387851646" lon="16.811729642568157"><ele>265.6666666666667</ele><time>2026-05-04T13:08:54Z</time></trkpt><trkpt lat="44.83099157326679" lon="16.811647008451672"><ele>265.3333333333333</ele><time>2026-05-04T13:08:55Z</time></trkpt><trkpt lat="44.83113646934677" lon="16.811540160118643"><ele>265.0</ele><time>2026-05-04T13:08:56Z</time></trkpt><trkpt lat="44.83127706108603" lon="16.811416310554044"><ele>265.0</ele><time>2026-05-04T13:08:57Z</time></trkpt><trkpt lat="44.83143447423671" lon="16.81131622735168"><ele>265.0</ele><time>2026-05-04T13:08:58Z</time></trkpt><trkpt lat="44.83159488029239" lon="16.8112661414707"><ele>265.0</ele><time>2026-05-04T13:08:59Z</time></trkpt><trkpt lat="44.831756883016745" lon="16.81126081552578"><ele>261.3333333333333</ele><time>2026-05-04T13:09:00Z</time></trkpt><trkpt lat="44.83191694310248" lon="16.811301856709285"><ele>257.6666666666667</ele><time>2026-05-04T13:09:01Z</time></trkpt><trkpt lat="44.83207372911607" lon="16.81137192445883"><ele>254.0</ele><time>2026-05-04T13:09:02Z</time></trkpt><trkpt lat="44.832212073036025" lon="16.811485695879004"><ele>254.0</ele><time>2026-05-04T13:09:03Z</time></trkpt><trkpt lat="44.832340905446486" lon="16.811663713145172"><ele>254.0</ele><time>2026-05-04T13:09:04Z</time></trkpt><trkpt lat="44.83248522258961" lon="16.811747588171247"><ele>254.0</ele><time>2026-05-04T13:09:05Z</time></trkpt><trkpt lat="44.83264006667302" lon="16.811813905983996"><ele>250.0</ele><time>2026-05-04T13:09:06Z</time></trkpt><trkpt lat="44.832813239509385" lon="16.811835927874924"><ele>246.0</ele><time>2026-05-04T13:09:07Z</time></trkpt><trkpt lat="44.83299484963882" lon="16.8118595269285"><ele>242.0</ele><time>2026-05-04T13:09:08Z</time></trkpt><trkpt lat="44.833190193025864" lon="16.811876056040898"><ele>242.0</ele><time>2026-05-04T13:09:09Z</time></trkpt><trkpt lat="44.83340160741485" lon="16.811893104793768"><ele>242.0</ele><time>2026-05-04T13:09:10Z</time></trkpt><trkpt lat="44.83361700604679" lon="16.811914818557046"><ele>242.0</ele><time>2026-05-04T13:09:11Z</time></trkpt><trkpt lat="44.833825631061444" lon="16.811950800562897"><ele>242.33333333333334</ele><time>2026-05-04T13:09:12Z</time></trkpt><trkpt lat="44.83402940589425" lon="16.811989176532393"><ele>242.66666666666669</ele><time>2026-05-04T13:09:13Z</time></trkpt><trkpt lat="44.834222590136775" lon="16.812003704343766"><ele>243.0</ele><time>2026-05-04T13:09:14Z</time></trkpt><trkpt lat="44.834406027940716" lon="16.812047001916547"><ele>243.0</ele><time>2026-05-04T13:09:15Z</time></trkpt><trkpt lat="44.83459177856517" lon="16.81208821533287"><ele>243.0</ele><time>2026-05-04T13:09:16Z</time></trkpt><trkpt lat="44.834779386044296" lon="16.812150980738956"><ele>243.0</ele><time>2026-05-04T13:09:17Z</time></trkpt><trkpt lat="44.83496414115652" lon="16.812228933450903"><ele>243.0</ele><time>2026-05-04T13:09:18Z</time></trkpt><trkpt lat="44.83513226792706" lon="16.812303691977288"><ele>243.0</ele><time>2026-05-04T13:09:19Z</time></trkpt><trkpt lat="44.835295993395775" lon="16.812373172554615"><ele>243.0</ele><time>2026-05-04T13:09:20Z</time></trkpt><trkpt lat="44.835451304870986" lon="16.812430717906278"><ele>240.66666666666669</ele><time>2026-05-04T13:09:21Z</time></trkpt><trkpt lat="44.83562125583484" lon="16.8124729294737"><ele>238.33333333333334</ele><time>2026-05-04T13:09:22Z</time></trkpt><trkpt lat="44.83580449101459" lon="16.81248165333046"><ele>236.0</ele><time>2026-05-04T13:09:23Z</time></trkpt><trkpt lat="44.83599261609715" lon="16.812497875035366"><ele>233.66666666666669</ele><time>2026-05-04T13:09:24Z</time></trkpt><trkpt lat="44.83618834010928" lon="16.81245547660274"><ele>231.33333333333331</ele><time>2026-05-04T13:09:25Z</time></trkpt><trkpt lat="44.836378268790355" lon="16.81243608769757"><ele>229.0</ele><time>2026-05-04T13:09:26Z</time></trkpt><trkpt lat="44.836569259282115" lon="16.81242769325094"><ele>229.0</ele><time>2026-05-04T13:09:27Z</time></trkpt><trkpt lat="44.83675418581973" lon="16.812430010604785"><ele>229.0</ele><time>2026-05-04T13:09:28Z</time></trkpt><trkpt lat="44.836944997482654" lon="16.812430948480294"><ele>229.0</ele><time>2026-05-04T13:09:29Z</time></trkpt><trkpt lat="44.83714080217353" lon="16.812416544770766"><ele>228.33333333333331</ele><time>2026-05-04T13:09:30Z</time></trkpt><trkpt lat="44.8373335831455" lon="16.81238472615611"><ele>227.66666666666669</ele><time>2026-05-04T13:09:31Z</time></trkpt><trkpt lat="44.83751993552917" lon="16.812348162311558"><ele>227.0</ele><time>2026-05-04T13:09:32Z</time></trkpt><trkpt lat="44.83771399192633" lon="16.812306788271528"><ele>225.66666666666669</ele><time>2026-05-04T13:09:33Z</time></trkpt><trkpt lat="44.83790508936911" lon="16.812268247890607"><ele>224.33333333333331</ele><time>2026-05-04T13:09:34Z</time></trkpt><trkpt lat="44.838100785415904" lon="16.812230281966983"><ele>223.0</ele><time>2026-05-04T13:09:35Z</time></trkpt><trkpt lat="44.838290736137544" lon="16.812194409358106"><ele>223.0</ele><time>2026-05-04T13:09:36Z</time></trkpt><trkpt lat="44.838466750697876" lon="16.812159357316826"><ele>223.0</ele><time>2026-05-04T13:09:37Z</time></trkpt><trkpt lat="44.83864960293745" lon="16.812145544431182"><ele>223.0</ele><time>2026-05-04T13:09:38Z</time></trkpt><trkpt lat="44.83881871046567" lon="16.812115092562216"><ele>223.0</ele><time>2026-05-04T13:09:39Z</time></trkpt><trkpt lat="44.83900392964723" lon="16.812082048355364"><ele>223.0</ele><time>2026-05-04T13:09:40Z</time></trkpt><trkpt lat="44.83918395424169" lon="16.81205199497462"><ele>223.0</ele><time>2026-05-04T13:09:41Z</time></trkpt><trkpt lat="44.83936646713754" lon="16.812028379382546"><ele>224.33333333333331</ele><time>2026-05-04T13:09:42Z</time></trkpt><trkpt lat="44.83955179192457" lon="16.812004400025845"><ele>225.66666666666669</ele><time>2026-05-04T13:09:43Z</time></trkpt><trkpt lat="44.83972461926049" lon="16.812007970939973"><ele>227.0</ele><time>2026-05-04T13:09:44Z</time></trkpt><trkpt lat="44.83990726393181" lon="16.812011108832408"><ele>227.0</ele><time>2026-05-04T13:09:45Z</time></trkpt><trkpt lat="44.840092663605816" lon="16.812014715214175"><ele>227.0</ele><time>2026-05-04T13:09:46Z</time></trkpt><trkpt lat="44.8402689446972" lon="16.812018144191967"><ele>227.0</ele><time>2026-05-04T13:09:47Z</time></trkpt><trkpt lat="44.84045090459554" lon="16.812021683633876"><ele>229.33333333333334</ele><time>2026-05-04T13:09:48Z</time></trkpt><trkpt lat="44.84063458424159" lon="16.811919439477762"><ele>231.66666666666669</ele><time>2026-05-04T13:09:49Z</time></trkpt><trkpt lat="44.84082459988245" lon="16.811881974685285"><ele>234.0</ele><time>2026-05-04T13:09:50Z</time></trkpt><trkpt lat="44.84102030275642" lon="16.81183131014344"><ele>234.0</ele><time>2026-05-04T13:09:51Z</time></trkpt><trkpt lat="44.8412242817609" lon="16.811773500299136"><ele>234.0</ele><time>2026-05-04T13:09:52Z</time></trkpt><trkpt lat="44.84143181670682" lon="16.81173230972751"><ele>234.0</ele><time>2026-05-04T13:09:53Z</time></trkpt><trkpt lat="44.84163795313277" lon="16.811717590559326"><ele>234.0</ele><time>2026-05-04T13:09:54Z</time></trkpt><trkpt lat="44.84183220138393" lon="16.81173778155002"><ele>234.0</ele><time>2026-05-04T13:09:55Z</time></trkpt><trkpt lat="44.842022712552335" lon="16.81177949683189"><ele>234.0</ele><time>2026-05-04T13:09:56Z</time></trkpt><trkpt lat="44.84221089143401" lon="16.811844588320263"><ele>234.33333333333331</ele><time>2026-05-04T13:09:57Z</time></trkpt><trkpt lat="44.84238600561529" lon="16.811938237080135"><ele>234.66666666666666</ele><time>2026-05-04T13:09:58Z</time></trkpt><trkpt lat="44.842552254593905" lon="16.81204876304496"><ele>235.0</ele><time>2026-05-04T13:09:59Z</time></trkpt><trkpt lat="44.842727415421834" lon="16.812130340429295"><ele>235.0</ele><time>2026-05-04T13:10:00Z</time></trkpt><trkpt lat="44.84291232570321" lon="16.81218268150146"><ele>235.0</ele><time>2026-05-04T13:10:01Z</time></trkpt><trkpt lat="44.84310065144391" lon="16.812228587082302"><ele>235.0</ele><time>2026-05-04T13:10:02Z</time></trkpt><trkpt lat="44.84329056935774" lon="16.812248653698425"><ele>235.33333333333331</ele><time>2026-05-04T13:10:03Z</time></trkpt><trkpt lat="44.843476263593374" lon="16.81224577073534"><ele>235.66666666666669</ele><time>2026-05-04T13:10:04Z</time></trkpt><trkpt lat="44.84365268886212" lon="16.812222782036088"><ele>236.0</ele><time>2026-05-04T13:10:05Z</time></trkpt><trkpt lat="44.84382465174939" lon="16.8122175290609"><ele>236.0</ele><time>2026-05-04T13:10:06Z</time></trkpt><trkpt lat="44.84400234917258" lon="16.81225387807214"><ele>236.0</ele><time>2026-05-04T13:10:07Z</time></trkpt><trkpt lat="44.844170627442914" lon="16.812304855042136"><ele>236.0</ele><time>2026-05-04T13:10:08Z</time></trkpt><trkpt lat="44.844350417401834" lon="16.812338357219968"><ele>234.66666666666669</ele><time>2026-05-04T13:10:09Z</time></trkpt><trkpt lat="44.84453125141102" lon="16.81236916986254"><ele>233.33333333333331</ele><time>2026-05-04T13:10:10Z</time></trkpt><trkpt lat="44.84470468334604" lon="16.812374381557962"><ele>232.0</ele><time>2026-05-04T13:10:11Z</time></trkpt><trkpt lat="44.84488475859651" lon="16.81235287511985"><ele>232.0</ele><time>2026-05-04T13:10:12Z</time></trkpt><trkpt lat="44.84507365729447" lon="16.81231467455398"><ele>232.0</ele><time>2026-05-04T13:10:13Z</time></trkpt><trkpt lat="44.84525879865488" lon="16.812286901487568"><ele>232.0</ele><time>2026-05-04T13:10:14Z</time></trkpt><trkpt lat="44.84546167478654" lon="16.812282649072"><ele>229.33333333333331</ele><time>2026-05-04T13:10:15Z</time></trkpt><trkpt lat="44.845669553913666" lon="16.812305904194602"><ele>226.66666666666669</ele><time>2026-05-04T13:10:16Z</time></trkpt><trkpt lat="44.84588159097585" lon="16.81230013933736"><ele>224.0</ele><time>2026-05-04T13:10:17Z</time></trkpt><trkpt lat="44.8460962555189" lon="16.81225693637401"><ele>222.33333333333334</ele><time>2026-05-04T13:10:18Z</time></trkpt><trkpt lat="44.84631182812077" lon="16.812216592140704"><ele>220.66666666666669</ele><time>2026-05-04T13:10:19Z</time></trkpt><trkpt lat="44.846528093460755" lon="16.812188518016843"><ele>219.0</ele><time>2026-05-04T13:10:20Z</time></trkpt><trkpt lat="44.84674018422782" lon="16.812168056878935"><ele>218.33333333333331</ele><time>2026-05-04T13:10:21Z</time></trkpt><trkpt lat="44.84694282030335" lon="16.812156616790446"><ele>217.66666666666666</ele><time>2026-05-04T13:10:22Z</time></trkpt><trkpt lat="44.847146559716776" lon="16.81216350463748"><ele>217.0</ele><time>2026-05-04T13:10:23Z</time></trkpt><trkpt lat="44.847345119673165" lon="16.81217657714874"><ele>217.0</ele><time>2026-05-04T13:10:24Z</time></trkpt><trkpt lat="44.84754195233828" lon="16.812202273036526"><ele>217.0</ele><time>2026-05-04T13:10:25Z</time></trkpt><trkpt lat="44.847726856240655" lon="16.812244487480076"><ele>217.0</ele><time>2026-05-04T13:10:26Z</time></trkpt><trkpt lat="44.84790816001486" lon="16.81230397442158"><ele>217.0</ele><time>2026-05-04T13:10:27Z</time></trkpt><trkpt lat="44.84807564795731" lon="16.81237622159183"><ele>217.0</ele><time>2026-05-04T13:10:28Z</time></trkpt><trkpt lat="44.84823775176832" lon="16.812453125447682"><ele>217.0</ele><time>2026-05-04T13:10:29Z</time></trkpt><trkpt lat="44.84839915683003" lon="16.81252259342944"><ele>216.66666666666666</ele><time>2026-05-04T13:10:30Z</time></trkpt><trkpt lat="44.84856511593946" lon="16.812587870392274"><ele>216.33333333333331</ele><time>2026-05-04T13:10:31Z</time></trkpt><trkpt lat="44.84873636268038" lon="16.812651583996015"><ele>216.0</ele><time>2026-05-04T13:10:32Z</time></trkpt><trkpt lat="44.84890882212239" lon="16.81270970773794"><ele>215.66666666666669</ele><time>2026-05-04T13:10:33Z</time></trkpt><trkpt lat="44.849087048068306" lon="16.812754303254007"><ele>215.33333333333334</ele><time>2026-05-04T13:10:34Z</time></trkpt><trkpt lat="44.849268533198824" lon="16.812781340681724"><ele>215.0</ele><time>2026-05-04T13:10:35Z</time></trkpt><trkpt lat="44.849442126112535" lon="16.812785607701763"><ele>214.33333333333334</ele><time>2026-05-04T13:10:36Z</time></trkpt><trkpt lat="44.8496223868345" lon="16.812774818228277"><ele>213.66666666666669</ele><time>2026-05-04T13:10:37Z</time></trkpt><trkpt lat="44.84979206627488" lon="16.81276783274313"><ele>213.0</ele><time>2026-05-04T13:10:38Z</time></trkpt><trkpt lat="44.849964074355675" lon="16.812766083886928"><ele>212.33333333333331</ele><time>2026-05-04T13:10:39Z</time></trkpt><trkpt lat="44.850146965666696" lon="16.812769735639627"><ele>211.66666666666666</ele><time>2026-05-04T13:10:40Z</time></trkpt><trkpt lat="44.850331830927615" lon="16.81277266031639"><ele>211.0</ele><time>2026-05-04T13:10:41Z</time></trkpt><trkpt lat="44.85052016507303" lon="16.812767754270574"><ele>211.0</ele><time>2026-05-04T13:10:42Z</time></trkpt><trkpt lat="44.85070498780468" lon="16.812747857638687"><ele>211.0</ele><time>2026-05-04T13:10:43Z</time></trkpt><trkpt lat="44.85087028870289" lon="16.81271888762556"><ele>211.0</ele><time>2026-05-04T13:10:44Z</time></trkpt><trkpt lat="44.85101829465786" lon="16.812693134946116"><ele>209.75</ele><time>2026-05-04T13:10:45Z</time></trkpt><trkpt lat="44.851155515431415" lon="16.81267883883717"><ele>208.5</ele><time>2026-05-04T13:10:46Z</time></trkpt><trkpt lat="44.85128814485442" lon="16.812674190682824"><ele>207.25</ele><time>2026-05-04T13:10:47Z</time></trkpt><trkpt lat="44.85141989729159" lon="16.812677636176527"><ele>206.0</ele><time>2026-05-04T13:10:48Z</time></trkpt><trkpt lat="44.85154382990296" lon="16.812681067270475"><ele>206.0</ele><time>2026-05-04T13:10:49Z</time></trkpt><trkpt lat="44.851659517999686" lon="16.81269177083897"><ele>206.0</ele><time>2026-05-04T13:10:50Z</time></trkpt><trkpt lat="44.85176835024863" lon="16.81271170512405"><ele>206.0</ele><time>2026-05-04T13:10:51Z</time></trkpt><trkpt lat="44.851874541651085" lon="16.812732577010525"><ele>206.0</ele><time>2026-05-04T13:10:52Z</time></trkpt><trkpt lat="44.85197011327019" lon="16.81273522365899"><ele>206.0</ele><time>2026-05-04T13:10:53Z</time></trkpt><trkpt lat="44.852062178065545" lon="16.81270894471261"><ele>206.75</ele><time>2026-05-04T13:10:54Z</time></trkpt><trkpt lat="44.8521441390155" lon="16.81264307492111"><ele>207.5</ele><time>2026-05-04T13:10:55Z</time></trkpt><trkpt lat="44.85220872506573" lon="16.8125088131011"><ele>208.25</ele><time>2026-05-04T13:10:56Z</time></trkpt><trkpt lat="44.85225571929369" lon="16.812339289518746"><ele>209.0</ele><time>2026-05-04T13:10:57Z</time></trkpt><trkpt lat="44.85228476402611" lon="16.81213080917901"><ele>209.0</ele><time>2026-05-04T13:10:58Z</time></trkpt><trkpt lat="44.852315103013254" lon="16.811894642234908"><ele>209.0</ele><time>2026-05-04T13:10:59Z</time></trkpt><trkpt lat="44.85235592546819" lon="16.811656021260486"><ele>209.0</ele><time>2026-05-04T13:11:00Z</time></trkpt><trkpt lat="44.852401466873815" lon="16.811430781828474"><ele>208.25</ele><time>2026-05-04T13:11:01Z</time></trkpt><trkpt lat="44.85245524074194" lon="16.811228746158992"><ele>207.5</ele><time>2026-05-04T13:11:02Z</time></trkpt><trkpt lat="44.852530160072874" lon="16.81106209026422"><ele>206.75</ele><time>2026-05-04T13:11:03Z</time></trkpt><trkpt lat="44.85263876268963" lon="16.810942324631753"><ele>206.0</ele><time>2026-05-04T13:11:04Z</time></trkpt><trkpt lat="44.852777790956324" lon="16.810885477715342"><ele>204.33333333333334</ele><time>2026-05-04T13:11:05Z</time></trkpt><trkpt lat="44.85293865200842" lon="16.81086155494837"><ele>202.66666666666669</ele><time>2026-05-04T13:11:06Z</time></trkpt><trkpt lat="44.85312122229173" lon="16.810832830138732"><ele>201.0</ele><time>2026-05-04T13:11:07Z</time></trkpt><trkpt lat="44.85332623777285" lon="16.810766749046085"><ele>199.5</ele><time>2026-05-04T13:11:08Z</time></trkpt><trkpt lat="44.85355488357262" lon="16.8106647406929"><ele>198.0</ele><time>2026-05-04T13:11:09Z</time></trkpt><trkpt lat="44.85379074782855" lon="16.810555953483725"><ele>198.0</ele><time>2026-05-04T13:11:10Z</time></trkpt><trkpt lat="44.85401339590359" lon="16.810467099611426"><ele>198.0</ele><time>2026-05-04T13:11:11Z</time></trkpt><trkpt lat="44.85423754197524" lon="16.810381799820114"><ele>197.0</ele><time>2026-05-04T13:11:12Z</time></trkpt><trkpt lat="44.85447684544" lon="16.810293270794357"><ele>196.0</ele><time>2026-05-04T13:11:13Z</time></trkpt><trkpt lat="44.854725508433134" lon="16.810199048948565"><ele>196.5</ele><time>2026-05-04T13:11:14Z</time></trkpt><trkpt lat="44.85495957080655" lon="16.810108146713624"><ele>197.0</ele><time>2026-05-04T13:11:15Z</time></trkpt><trkpt lat="44.85517984561958" lon="16.81001698447593"><ele>197.33333333333334</ele><time>2026-05-04T13:11:16Z</time></trkpt><trkpt lat="44.85539059501629" lon="16.809917545293494"><ele>197.66666666666669</ele><time>2026-05-04T13:11:17Z</time></trkpt><trkpt lat="44.85558804190728" lon="16.80981530937017"><ele>198.0</ele><time>2026-05-04T13:11:18Z</time></trkpt><trkpt lat="44.8557700948271" lon="16.80971883226039"><ele>198.0</ele><time>2026-05-04T13:11:19Z</time></trkpt><trkpt lat="44.85593107175904" lon="16.80962947708494"><ele>198.0</ele><time>2026-05-04T13:11:20Z</time></trkpt><trkpt lat="44.856074596585835" lon="16.809542011349983"><ele>198.0</ele><time>2026-05-04T13:11:21Z</time></trkpt><trkpt lat="44.856194374061026" lon="16.809438716070222"><ele>197.5</ele><time>2026-05-04T13:11:22Z</time></trkpt><trkpt lat="44.85627758684267" lon="16.80930208031174"><ele>197.0</ele><time>2026-05-04T13:11:23Z</time></trkpt><trkpt lat="44.856338501138325" lon="16.80914725879434"><ele>196.5</ele><time>2026-05-04T13:11:24Z</time></trkpt><trkpt lat="44.85642561140229" lon="16.80898466429657"><ele>196.0</ele><time>2026-05-04T13:11:25Z</time></trkpt><trkpt lat="44.85654813626613" lon="16.808858330571404"><ele>196.0</ele><time>2026-05-04T13:11:26Z</time></trkpt><trkpt lat="44.85669881203574" lon="16.80877277659838"><ele>196.0</ele><time>2026-05-04T13:11:27Z</time></trkpt><trkpt lat="44.85685434011703" lon="16.808708982606163"><ele>196.0</ele><time>2026-05-04T13:11:28Z</time></trkpt><trkpt lat="44.85701236408766" lon="16.80866062673066"><ele>195.0</ele><time>2026-05-04T13:11:29Z</time></trkpt><trkpt lat="44.85717526160964" lon="16.808621673339932"><ele>194.0</ele><time>2026-05-04T13:11:30Z</time></trkpt><trkpt lat="44.85733150855848" lon="16.808595738346565"><ele>193.0</ele><time>2026-05-04T13:11:31Z</time></trkpt><trkpt lat="44.85748710070006" lon="16.808550112122898"><ele>192.66666666666666</ele><time>2026-05-04T13:11:32Z</time></trkpt><trkpt lat="44.857638218295214" lon="16.808462015595932"><ele>192.33333333333331</ele><time>2026-05-04T13:11:33Z</time></trkpt><trkpt lat="44.85779521118682" lon="16.80834232141853"><ele>192.0</ele><time>2026-05-04T13:11:34Z</time></trkpt><trkpt lat="44.85795077641658" lon="16.80821618725522"><ele>192.0</ele><time>2026-05-04T13:11:35Z</time></trkpt><trkpt lat="44.8581080068377" lon="16.808097007815633"><ele>192.0</ele><time>2026-05-04T13:11:36Z</time></trkpt><trkpt lat="44.85826176877636" lon="16.807998798135923"><ele>192.0</ele><time>2026-05-04T13:11:37Z</time></trkpt><trkpt lat="44.85842238797716" lon="16.807935265342188"><ele>191.33333333333334</ele><time>2026-05-04T13:11:38Z</time></trkpt><trkpt lat="44.85858474271685" lon="16.80788946814314"><ele>190.66666666666669</ele><time>2026-05-04T13:11:39Z</time></trkpt><trkpt lat="44.85875260921226" lon="16.807822933930932"><ele>190.0</ele><time>2026-05-04T13:11:40Z</time></trkpt><trkpt lat="44.85889831771985" lon="16.80773006475417"><ele>190.0</ele><time>2026-05-04T13:11:41Z</time></trkpt><trkpt lat="44.8590319931186" lon="16.80760407870661"><ele>190.0</ele><time>2026-05-04T13:11:42Z</time></trkpt><trkpt lat="44.85914940298043" lon="16.807441079715712"><ele>190.0</ele><time>2026-05-04T13:11:43Z</time></trkpt><trkpt lat="44.85925829261658" lon="16.80725342522921"><ele>189.66666666666669</ele><time>2026-05-04T13:11:44Z</time></trkpt><trkpt lat="44.85936055494245" lon="16.807051088984043"><ele>189.33333333333334</ele><time>2026-05-04T13:11:45Z</time></trkpt><trkpt lat="44.85946014641042" lon="16.806852175183618"><ele>189.0</ele><time>2026-05-04T13:11:46Z</time></trkpt><trkpt lat="44.8595614938487" lon="16.80664274927732"><ele>188.66666666666666</ele><time>2026-05-04T13:11:47Z</time></trkpt><trkpt lat="44.85965462396729" lon="16.806432239038173"><ele>188.33333333333331</ele><time>2026-05-04T13:11:48Z</time></trkpt><trkpt lat="44.859742212284566" lon="16.80620263597234"><ele>188.0</ele><time>2026-05-04T13:11:49Z</time></trkpt><trkpt lat="44.859826757557464" lon="16.805970058062677"><ele>188.0</ele><time>2026-05-04T13:11:50Z</time></trkpt><trkpt lat="44.85990543212288" lon="16.805721436246284"><ele>188.0</ele><time>2026-05-04T13:11:51Z</time></trkpt><trkpt lat="44.85996217785618" lon="16.805478088926222"><ele>188.0</ele><time>2026-05-04T13:11:52Z</time></trkpt><trkpt lat="44.85999708834307" lon="16.805245741760086"><ele>188.0</ele><time>2026-05-04T13:11:53Z</time></trkpt><trkpt lat="44.86002531336471" lon="16.805038214164515"><ele>188.0</ele><time>2026-05-04T13:11:54Z</time></trkpt><trkpt lat="44.86008666938676" lon="16.80487419813107"><ele>188.0</ele><time>2026-05-04T13:11:55Z</time></trkpt><trkpt lat="44.86019873957003" lon="16.804762677343703"><ele>188.0</ele><time>2026-05-04T13:11:56Z</time></trkpt><trkpt lat="44.86033756676084" lon="16.80470201819942"><ele>187.33333333333331</ele><time>2026-05-04T13:11:57Z</time></trkpt><trkpt lat="44.86049947461641" lon="16.80467732596524"><ele>186.66666666666666</ele><time>2026-05-04T13:11:58Z</time></trkpt><trkpt lat="44.86066464163961" lon="16.80466527303094"><ele>186.0</ele><time>2026-05-04T13:11:59Z</time></trkpt><trkpt lat="44.86084028258884" lon="16.804682615194984"><ele>186.33333333333334</ele><time>2026-05-04T13:12:00Z</time></trkpt><trkpt lat="44.86100595269635" lon="16.804718713445023"><ele>186.66666666666669</ele><time>2026-05-04T13:12:01Z</time></trkpt><trkpt lat="44.861150017097756" lon="16.804750690092487"><ele>187.0</ele><time>2026-05-04T13:12:02Z</time></trkpt><trkpt lat="44.86128581757279" lon="16.804732741333552"><ele>187.0</ele><time>2026-05-04T13:12:03Z</time></trkpt><trkpt lat="44.86142171743116" lon="16.80466597699305"><ele>187.0</ele><time>2026-05-04T13:12:04Z</time></trkpt><trkpt lat="44.86155182362262" lon="16.804535154752614"><ele>187.0</ele><time>2026-05-04T13:12:05Z</time></trkpt><trkpt lat="44.86167720198043" lon="16.80438257332771"><ele>186.33333333333334</ele><time>2026-05-04T13:12:06Z</time></trkpt><trkpt lat="44.86179128379709" lon="16.804215333384672"><ele>185.66666666666666</ele><time>2026-05-04T13:12:07Z</time></trkpt><trkpt lat="44.86190014973043" lon="16.804032721296284"><ele>185.0</ele><time>2026-05-04T13:12:08Z</time></trkpt><trkpt lat="44.86201569702047" lon="16.803848282272128"><ele>185.0</ele><time>2026-05-04T13:12:09Z</time></trkpt><trkpt lat="44.86213485569133" lon="16.803670775285763"><ele>185.0</ele><time>2026-05-04T13:12:10Z</time></trkpt><trkpt lat="44.86225500549408" lon="16.80348736765644"><ele>185.0</ele><time>2026-05-04T13:12:11Z</time></trkpt><trkpt lat="44.86236533353498" lon="16.80328341842524"><ele>184.33333333333331</ele><time>2026-05-04T13:12:12Z</time></trkpt><trkpt lat="44.862442811604666" lon="16.803062961278073"><ele>183.66666666666666</ele><time>2026-05-04T13:12:13Z</time></trkpt><trkpt lat="44.86249628085736" lon="16.802829080274215"><ele>183.0</ele><time>2026-05-04T13:12:14Z</time></trkpt><trkpt lat="44.86253796741526" lon="16.802583951139813"><ele>182.0</ele><time>2026-05-04T13:12:15Z</time></trkpt><trkpt lat="44.8625931741927" lon="16.802340061721978"><ele>181.0</ele><time>2026-05-04T13:12:16Z</time></trkpt><trkpt lat="44.86267697271019" lon="16.802088050102242"><ele>180.0</ele><time>2026-05-04T13:12:17Z</time></trkpt><trkpt lat="44.8627883113503" lon="16.801851048691667"><ele>178.66666666666666</ele><time>2026-05-04T13:12:18Z</time></trkpt><trkpt lat="44.86291986330944" lon="16.801621374094285"><ele>177.33333333333331</ele><time>2026-05-04T13:12:19Z</time></trkpt><trkpt lat="44.863047162714395" lon="16.801385555429857"><ele>176.0</ele><time>2026-05-04T13:12:20Z</time></trkpt><trkpt lat="44.8631631626302" lon="16.801125324033002"><ele>175.66666666666666</ele><time>2026-05-04T13:12:21Z</time></trkpt><trkpt lat="44.863267255822215" lon="16.80086050433513"><ele>175.33333333333334</ele><time>2026-05-04T13:12:22Z</time></trkpt><trkpt lat="44.863360433080224" lon="16.80060093439842"><ele>175.0</ele><time>2026-05-04T13:12:23Z</time></trkpt><trkpt lat="44.86344785580766" lon="16.800347415211466"><ele>174.0</ele><time>2026-05-04T13:12:24Z</time></trkpt><trkpt lat="44.863532760223414" lon="16.80009407262072"><ele>173.0</ele><time>2026-05-04T13:12:25Z</time></trkpt><trkpt lat="44.86360337539313" lon="16.79985295158407"><ele>172.0</ele><time>2026-05-04T13:12:26Z</time></trkpt><trkpt lat="44.86365811342999" lon="16.799623077121584"><ele>172.0</ele><time>2026-05-04T13:12:27Z</time></trkpt><trkpt lat="44.86370510594203" lon="16.79941057563514"><ele>172.0</ele><time>2026-05-04T13:12:28Z</time></trkpt><trkpt lat="44.86375185418531" lon="16.799229001722985"><ele>172.0</ele><time>2026-05-04T13:12:29Z</time></trkpt><trkpt lat="44.86379904824928" lon="16.799060348365273"><ele>172.0</ele><time>2026-05-04T13:12:30Z</time></trkpt><trkpt lat="44.86384762167073" lon="16.798891284286647"><ele>171.5</ele><time>2026-05-04T13:12:31Z</time></trkpt><trkpt lat="44.8638790061106" lon="16.798722568506403"><ele>171.0</ele><time>2026-05-04T13:12:32Z</time></trkpt><trkpt lat="44.86390177138745" lon="16.798515860327043"><ele>170.5</ele><time>2026-05-04T13:12:33Z</time></trkpt><trkpt lat="44.86392368233955" lon="16.798290602243636"><ele>170.0</ele><time>2026-05-04T13:12:34Z</time></trkpt><trkpt lat="44.86394562051063" lon="16.79804848262257"><ele>169.33333333333331</ele><time>2026-05-04T13:12:35Z</time></trkpt><trkpt lat="44.86396621517362" lon="16.797797456092663"><ele>168.66666666666666</ele><time>2026-05-04T13:12:36Z</time></trkpt><trkpt lat="44.86398750943341" lon="16.79752432886379"><ele>168.0</ele><time>2026-05-04T13:12:37Z</time></trkpt><trkpt lat="44.86400513578459" lon="16.79727666688116"><ele>167.66666666666666</ele><time>2026-05-04T13:12:38Z</time></trkpt><trkpt lat="44.8640321006563" lon="16.7970420987744"><ele>167.33333333333331</ele><time>2026-05-04T13:12:39Z</time></trkpt><trkpt lat="44.86408666143365" lon="16.79682342644172"><ele>167.0</ele><time>2026-05-04T13:12:40Z</time></trkpt><trkpt lat="44.86418482676301" lon="16.796650359661935"><ele>166.5</ele><time>2026-05-04T13:12:41Z</time></trkpt><trkpt lat="44.864293102886016" lon="16.79650636863835"><ele>166.0</ele><time>2026-05-04T13:12:42Z</time></trkpt><trkpt lat="44.86437512567746" lon="16.796353329628086"><ele>165.5</ele><time>2026-05-04T13:12:43Z</time></trkpt><trkpt lat="44.86440848804881" lon="16.79616958763854"><ele>165.0</ele><time>2026-05-04T13:12:44Z</time></trkpt><trkpt lat="44.86440968724131" lon="16.79595670290541"><ele>164.66666666666666</ele><time>2026-05-04T13:12:45Z</time></trkpt><trkpt lat="44.86440447575777" lon="16.795719005205743"><ele>164.33333333333331</ele><time>2026-05-04T13:12:46Z</time></trkpt><trkpt lat="44.86441047874668" lon="16.795446863892522"><ele>164.0</ele><time>2026-05-04T13:12:47Z</time></trkpt><trkpt lat="44.86442174583602" lon="16.795187202357003"><ele>164.25</ele><time>2026-05-04T13:12:48Z</time></trkpt><trkpt lat="44.86443048295122" lon="16.794960277445753"><ele>164.5</ele><time>2026-05-04T13:12:49Z</time></trkpt><trkpt lat="44.86443773996951" lon="16.794751694092067"><ele>164.75</ele><time>2026-05-04T13:12:50Z</time></trkpt><trkpt lat="44.86444676643334" lon="16.794557255114704"><ele>165.0</ele><time>2026-05-04T13:12:51Z</time></trkpt><trkpt lat="44.86445264757986" lon="16.794372192646573"><ele>164.4</ele><time>2026-05-04T13:12:52Z</time></trkpt><trkpt lat="44.86445477211988" lon="16.79420788828403"><ele>163.8</ele><time>2026-05-04T13:12:53Z</time></trkpt><trkpt lat="44.864456802767506" lon="16.79407928197958"><ele>163.2</ele><time>2026-05-04T13:12:54Z</time></trkpt><trkpt lat="44.86447242812413" lon="16.793931021627817"><ele>162.6</ele><time>2026-05-04T13:12:56Z</time></trkpt><trkpt lat="44.8645178053889" lon="16.793816565940407"><ele>162.0</ele><time>2026-05-04T13:12:58Z</time></trkpt><trkpt lat="44.864584259816084" lon="16.793756229233253"><ele>162.0</ele><time>2026-05-04T13:12:59Z</time></trkpt><trkpt lat="44.864680064706114" lon="16.793713469993765"><ele>162.0</ele><time>2026-05-04T13:13:00Z</time></trkpt><trkpt lat="44.86480264813047" lon="16.793651903471485"><ele>162.0</ele><time>2026-05-04T13:13:01Z</time></trkpt><trkpt lat="44.86495234313566" lon="16.79355713691372"><ele>162.0</ele><time>2026-05-04T13:13:02Z</time></trkpt><trkpt lat="44.86512153700084" lon="16.793445340584498"><ele>162.0</ele><time>2026-05-04T13:13:03Z</time></trkpt><trkpt lat="44.86529381283207" lon="16.79333695670636"><ele>162.0</ele><time>2026-05-04T13:13:04Z</time></trkpt><trkpt lat="44.86546923011327" lon="16.793228415119597"><ele>162.0</ele><time>2026-05-04T13:13:05Z</time></trkpt><trkpt lat="44.86565009973938" lon="16.79311953987136"><ele>162.0</ele><time>2026-05-04T13:13:06Z</time></trkpt><trkpt lat="44.86582601298044" lon="16.793011488781083"><ele>162.0</ele><time>2026-05-04T13:13:07Z</time></trkpt><trkpt lat="44.866006978895335" lon="16.792897009177825"><ele>162.0</ele><time>2026-05-04T13:13:08Z</time></trkpt><trkpt lat="44.866186280038406" lon="16.79278707418741"><ele>162.33333333333334</ele><time>2026-05-04T13:13:09Z</time></trkpt><trkpt lat="44.866371593668" lon="16.79267145787337"><ele>162.66666666666669</ele><time>2026-05-04T13:13:10Z</time></trkpt><trkpt lat="44.86655647948245" lon="16.7925571285262"><ele>163.0</ele><time>2026-05-04T13:13:11Z</time></trkpt><trkpt lat="44.86674087199064" lon="16.792441048012723"><ele>162.66666666666669</ele><time>2026-05-04T13:13:12Z</time></trkpt><trkpt lat="44.86692934293419" lon="16.792323324684336"><ele>162.33333333333334</ele><time>2026-05-04T13:13:13Z</time></trkpt><trkpt lat="44.867115734326234" lon="16.792207715164643"><ele>162.0</ele><time>2026-05-04T13:13:14Z</time></trkpt><trkpt lat="44.86730822192754" lon="16.79209089895347"><ele>162.0</ele><time>2026-05-04T13:13:15Z</time></trkpt><trkpt lat="44.867502028154995" lon="16.791973144447443"><ele>162.0</ele><time>2026-05-04T13:13:16Z</time></trkpt><trkpt lat="44.86770257466796" lon="16.79184936310074"><ele>162.0</ele><time>2026-05-04T13:13:17Z</time></trkpt><trkpt lat="44.86791544306172" lon="16.791728419424363"><ele>161.0</ele><time>2026-05-04T13:13:18Z</time></trkpt><trkpt lat="44.868129464108726" lon="16.791612760742478"><ele>160.0</ele><time>2026-05-04T13:13:19Z</time></trkpt><trkpt lat="44.86834206625213" lon="16.79150583255571"><ele>160.0</ele><time>2026-05-04T13:13:20Z</time></trkpt><trkpt lat="44.86855259748969" lon="16.791406925953115"><ele>160.0</ele><time>2026-05-04T13:13:21Z</time></trkpt><trkpt lat="44.868764146237346" lon="16.7913131811312"><ele>160.0</ele><time>2026-05-04T13:13:22Z</time></trkpt><trkpt lat="44.86897969023837" lon="16.791226768219264"><ele>160.0</ele><time>2026-05-04T13:13:23Z</time></trkpt><trkpt lat="44.869195729346806" lon="16.791140626498734"><ele>160.0</ele><time>2026-05-04T13:13:24Z</time></trkpt><trkpt lat="44.869411938289716" lon="16.791053916118848"><ele>160.0</ele><time>2026-05-04T13:13:25Z</time></trkpt><trkpt lat="44.86962399886568" lon="16.79097120523565"><ele>159.66666666666669</ele><time>2026-05-04T13:13:26Z</time></trkpt><trkpt lat="44.869835456562704" lon="16.790888362469925"><ele>159.33333333333334</ele><time>2026-05-04T13:13:27Z</time></trkpt><trkpt lat="44.87004722984006" lon="16.790805829131806"><ele>159.0</ele><time>2026-05-04T13:13:28Z</time></trkpt><trkpt lat="44.870260735394396" lon="16.790721668247148"><ele>159.0</ele><time>2026-05-04T13:13:29Z</time></trkpt><trkpt lat="44.870469681203176" lon="16.790632001557338"><ele>159.0</ele><time>2026-05-04T13:13:30Z</time></trkpt><trkpt lat="44.87067738322085" lon="16.790529716615417"><ele>159.0</ele><time>2026-05-04T13:13:31Z</time></trkpt><trkpt lat="44.87088413744164" lon="16.79041491760001"><ele>158.66666666666666</ele><time>2026-05-04T13:13:32Z</time></trkpt><trkpt lat="44.871088179132215" lon="16.790286673314814"><ele>158.33333333333331</ele><time>2026-05-04T13:13:33Z</time></trkpt><trkpt lat="44.87128660000076" lon="16.79014909099084"><ele>158.0</ele><time>2026-05-04T13:13:34Z</time></trkpt><trkpt lat="44.871479749532796" lon="16.78999422476785"><ele>157.33333333333331</ele><time>2026-05-04T13:13:35Z</time></trkpt><trkpt lat="44.87166754180701" lon="16.789833483772927"><ele>156.66666666666666</ele><time>2026-05-04T13:13:36Z</time></trkpt><trkpt lat="44.87185352817495" lon="16.789665935258146"><ele>156.0</ele><time>2026-05-04T13:13:37Z</time></trkpt><trkpt lat="44.87203597251548" lon="16.789490102639487"><ele>156.33333333333334</ele><time>2026-05-04T13:13:38Z</time></trkpt><trkpt lat="44.87220920477274" lon="16.78930772527539"><ele>156.66666666666669</ele><time>2026-05-04T13:13:39Z</time></trkpt><trkpt lat="44.87238359082003" lon="16.789108278215014"><ele>157.0</ele><time>2026-05-04T13:13:40Z</time></trkpt><trkpt lat="44.87255534828979" lon="16.78890001150233"><ele>157.0</ele><time>2026-05-04T13:13:41Z</time></trkpt><trkpt lat="44.87272965181065" lon="16.788680553296587"><ele>157.0</ele><time>2026-05-04T13:13:42Z</time></trkpt><trkpt lat="44.872908855646855" lon="16.788453451896064"><ele>156.5</ele><time>2026-05-04T13:13:43Z</time></trkpt><trkpt lat="44.873091975772404" lon="16.788218992028703"><ele>156.0</ele><time>2026-05-04T13:13:44Z</time></trkpt><trkpt lat="44.87327219242459" lon="16.787986878737136"><ele>156.0</ele><time>2026-05-04T13:13:45Z</time></trkpt><trkpt lat="44.8734516420231" lon="16.787753836811362"><ele>156.0</ele><time>2026-05-04T13:13:46Z</time></trkpt><trkpt lat="44.87362539421222" lon="16.78752460547079"><ele>156.0</ele><time>2026-05-04T13:13:47Z</time></trkpt><trkpt lat="44.873795681649085" lon="16.787299953226025"><ele>156.0</ele><time>2026-05-04T13:13:48Z</time></trkpt><trkpt lat="44.87396053038612" lon="16.787079741827476"><ele>156.0</ele><time>2026-05-04T13:13:49Z</time></trkpt><trkpt lat="44.874121577103764" lon="16.78686226680388"><ele>156.0</ele><time>2026-05-04T13:13:50Z</time></trkpt><trkpt lat="44.87427794108475" lon="16.78664873211032"><ele>156.0</ele><time>2026-05-04T13:13:51Z</time></trkpt><trkpt lat="44.87443224279123" lon="16.78643796574262"><ele>156.0</ele><time>2026-05-04T13:13:52Z</time></trkpt><trkpt lat="44.874576798128885" lon="16.786219262987714"><ele>156.0</ele><time>2026-05-04T13:13:53Z</time></trkpt><trkpt lat="44.874722781782836" lon="16.785994431956535"><ele>156.0</ele><time>2026-05-04T13:13:54Z</time></trkpt><trkpt lat="44.8748656212221" lon="16.785764357873685"><ele>156.66666666666666</ele><time>2026-05-04T13:13:55Z</time></trkpt><trkpt lat="44.875004775691444" lon="16.785526676001975"><ele>157.33333333333331</ele><time>2026-05-04T13:13:56Z</time></trkpt><trkpt lat="44.87513344678236" lon="16.78528527196148"><ele>158.0</ele><time>2026-05-04T13:13:57Z</time></trkpt><trkpt lat="44.875258596392236" lon="16.78502592704764"><ele>159.0</ele><time>2026-05-04T13:13:58Z</time></trkpt><trkpt lat="44.87537677780861" lon="16.784751097148646"><ele>160.0</ele><time>2026-05-04T13:13:59Z</time></trkpt><trkpt lat="44.87548686386206" lon="16.784468965853236"><ele>161.5</ele><time>2026-05-04T13:14:00Z</time></trkpt><trkpt lat="44.87558396966896" lon="16.784179373423132"><ele>163.0</ele><time>2026-05-04T13:14:01Z</time></trkpt><trkpt lat="44.87567187334066" lon="16.7838875656237"><ele>163.0</ele><time>2026-05-04T13:14:02Z</time></trkpt><trkpt lat="44.87574555299817" lon="16.783595575060975"><ele>163.0</ele><time>2026-05-04T13:14:03Z</time></trkpt><trkpt lat="44.87581254882121" lon="16.78330158788513"><ele>163.0</ele><time>2026-05-04T13:14:04Z</time></trkpt><trkpt lat="44.875872560407714" lon="16.783000760886374"><ele>162.66666666666669</ele><time>2026-05-04T13:14:05Z</time></trkpt><trkpt lat="44.8759301864558" lon="16.782701807335474"><ele>162.33333333333334</ele><time>2026-05-04T13:14:06Z</time></trkpt><trkpt lat="44.87598134118775" lon="16.782402304877746"><ele>162.0</ele><time>2026-05-04T13:14:07Z</time></trkpt><trkpt lat="44.8760301453537" lon="16.782108792693972"><ele>165.0</ele><time>2026-05-04T13:14:08Z</time></trkpt><trkpt lat="44.8760763268926" lon="16.78182091430117"><ele>168.0</ele><time>2026-05-04T13:14:09Z</time></trkpt><trkpt lat="44.876119421123676" lon="16.781528312117576"><ele>171.0</ele><time>2026-05-04T13:14:10Z</time></trkpt><trkpt lat="44.876162934293646" lon="16.78123321251097"><ele>172.33333333333334</ele><time>2026-05-04T13:14:11Z</time></trkpt><trkpt lat="44.87621455305772" lon="16.780922757280383"><ele>173.66666666666669</ele><time>2026-05-04T13:14:12Z</time></trkpt><trkpt lat="44.87626646348101" lon="16.78061747202528"><ele>175.0</ele><time>2026-05-04T13:14:13Z</time></trkpt><trkpt lat="44.87632352011425" lon="16.780310117265657"><ele>176.5</ele><time>2026-05-04T13:14:14Z</time></trkpt><trkpt lat="44.8763818714809" lon="16.780003304834395"><ele>178.0</ele><time>2026-05-04T13:14:15Z</time></trkpt><trkpt lat="44.8764504510541" lon="16.77969723296176"><ele>178.0</ele><time>2026-05-04T13:14:16Z</time></trkpt><trkpt lat="44.87653166582938" lon="16.77940382492346"><ele>178.0</ele><time>2026-05-04T13:14:17Z</time></trkpt><trkpt lat="44.87662144314495" lon="16.77911930494523"><ele>178.0</ele><time>2026-05-04T13:14:18Z</time></trkpt><trkpt lat="44.87672095415506" lon="16.778833689136565"><ele>178.5</ele><time>2026-05-04T13:14:19Z</time></trkpt><trkpt lat="44.8768266107245" lon="16.77855158049201"><ele>179.0</ele><time>2026-05-04T13:14:20Z</time></trkpt><trkpt lat="44.87694956258188" lon="16.778270413116118"><ele>179.0</ele><time>2026-05-04T13:14:21Z</time></trkpt><trkpt lat="44.87708573422458" lon="16.77799416378129"><ele>179.0</ele><time>2026-05-04T13:14:22Z</time></trkpt><trkpt lat="44.87723091295403" lon="16.777736682576666"><ele>175.5</ele><time>2026-05-04T13:14:23Z</time></trkpt><trkpt lat="44.87738841058677" lon="16.77747817967816"><ele>172.0</ele><time>2026-05-04T13:14:24Z</time></trkpt><trkpt lat="44.877556174742146" lon="16.77724485772598"><ele>170.0</ele><time>2026-05-04T13:14:25Z</time></trkpt><trkpt lat="44.87773198528372" lon="16.77701920158323"><ele>168.0</ele><time>2026-05-04T13:14:26Z</time></trkpt><trkpt lat="44.87791115362027" lon="16.776796220888826"><ele>165.0</ele><time>2026-05-04T13:14:27Z</time></trkpt><trkpt lat="44.878105104686924" lon="16.77659006444461"><ele>162.0</ele><time>2026-05-04T13:14:28Z</time></trkpt><trkpt lat="44.87830599721122" lon="16.77639908835058"><ele>162.0</ele><time>2026-05-04T13:14:29Z</time></trkpt><trkpt lat="44.878506860351855" lon="16.776214302472454"><ele>162.0</ele><time>2026-05-04T13:14:30Z</time></trkpt><trkpt lat="44.878706493425206" lon="16.776024782908415"><ele>160.5</ele><time>2026-05-04T13:14:31Z</time></trkpt><trkpt lat="44.87890463219828" lon="16.775833593062682"><ele>159.0</ele><time>2026-05-04T13:14:32Z</time></trkpt><trkpt lat="44.87910486570441" lon="16.775634183257704"><ele>159.5</ele><time>2026-05-04T13:14:33Z</time></trkpt><trkpt lat="44.87929851278938" lon="16.775444135745197"><ele>160.0</ele><time>2026-05-04T13:14:34Z</time></trkpt><trkpt lat="44.87949099810411" lon="16.7752578272612"><ele>161.5</ele><time>2026-05-04T13:14:35Z</time></trkpt><trkpt lat="44.87968406561791" lon="16.775064225472168"><ele>163.0</ele><time>2026-05-04T13:14:36Z</time></trkpt><trkpt lat="44.87987308118426" lon="16.77486669870987"><ele>163.0</ele><time>2026-05-04T13:14:37Z</time></trkpt><trkpt lat="44.88006218673916" lon="16.774665664625555"><ele>163.0</ele><time>2026-05-04T13:14:38Z</time></trkpt><trkpt lat="44.88024639511583" lon="16.77445775617173"><ele>160.5</ele><time>2026-05-04T13:14:39Z</time></trkpt><trkpt lat="44.880431621759584" lon="16.774248433637236"><ele>158.0</ele><time>2026-05-04T13:14:40Z</time></trkpt><trkpt lat="44.88061591554803" lon="16.774034240765523"><ele>158.0</ele><time>2026-05-04T13:14:41Z</time></trkpt><trkpt lat="44.88079719367624" lon="16.773812106555056"><ele>158.0</ele><time>2026-05-04T13:14:42Z</time></trkpt><trkpt lat="44.880984104380715" lon="16.7735959004757"><ele>159.0</ele><time>2026-05-04T13:14:43Z</time></trkpt><trkpt lat="44.881168820782946" lon="16.773382743693897"><ele>160.0</ele><time>2026-05-04T13:14:44Z</time></trkpt><trkpt lat="44.881357361106375" lon="16.773168845498358"><ele>160.0</ele><time>2026-05-04T13:14:45Z</time></trkpt><trkpt lat="44.88154668824493" lon="16.772959678941206"><ele>160.0</ele><time>2026-05-04T13:14:46Z</time></trkpt><trkpt lat="44.881736777216815" lon="16.772749868192793"><ele>160.0</ele><time>2026-05-04T13:14:47Z</time></trkpt><trkpt lat="44.88192771347106" lon="16.77254545875959"><ele>160.0</ele><time>2026-05-04T13:14:48Z</time></trkpt><trkpt lat="44.88212264266092" lon="16.7723546881959"><ele>160.0</ele><time>2026-05-04T13:14:49Z</time></trkpt><trkpt lat="44.88232263345507" lon="16.772177568411742"><ele>160.0</ele><time>2026-05-04T13:14:50Z</time></trkpt><trkpt lat="44.88252353198463" lon="16.772009862417494"><ele>162.0</ele><time>2026-05-04T13:14:51Z</time></trkpt><trkpt lat="44.88273594035689" lon="16.771872562771936"><ele>164.0</ele><time>2026-05-04T13:14:52Z</time></trkpt><trkpt lat="44.88294878239449" lon="16.771750950130805"><ele>164.5</ele><time>2026-05-04T13:14:53Z</time></trkpt><trkpt lat="44.88316766375832" lon="16.771641805925455"><ele>165.0</ele><time>2026-05-04T13:14:54Z</time></trkpt><trkpt lat="44.883389435542796" lon="16.7715443060685"><ele>167.5</ele><time>2026-05-04T13:14:55Z</time></trkpt><trkpt lat="44.88362086587826" lon="16.77144516026259"><ele>170.0</ele><time>2026-05-04T13:14:56Z</time></trkpt><trkpt lat="44.88385061918308" lon="16.77135590414847"><ele>170.0</ele><time>2026-05-04T13:14:57Z</time></trkpt><trkpt lat="44.88408111303637" lon="16.771273777299957"><ele>170.0</ele><time>2026-05-04T13:14:58Z</time></trkpt><trkpt lat="44.88431211591785" lon="16.771200455826957"><ele>171.0</ele><time>2026-05-04T13:14:59Z</time></trkpt><trkpt lat="44.88455226233782" lon="16.771126151295526"><ele>172.0</ele><time>2026-05-04T13:15:00Z</time></trkpt><trkpt lat="44.884787113144824" lon="16.77104354604969"><ele>171.5</ele><time>2026-05-04T13:15:01Z</time></trkpt><trkpt lat="44.88500548256246" lon="16.77096661737197"><ele>171.0</ele><time>2026-05-04T13:15:02Z</time></trkpt><trkpt lat="44.88522468635893" lon="16.770887253130766"><ele>173.0</ele><time>2026-05-04T13:15:03Z</time></trkpt><trkpt lat="44.88543979048954" lon="16.77081506605934"><ele>175.0</ele><time>2026-05-04T13:15:04Z</time></trkpt><trkpt lat="44.88565560299355" lon="16.77074034742409"><ele>177.0</ele><time>2026-05-04T13:15:05Z</time></trkpt><trkpt lat="44.885864611515" lon="16.770680808751198"><ele>179.0</ele><time>2026-05-04T13:15:06Z</time></trkpt><trkpt lat="44.88606146670257" lon="16.770640867312206"><ele>181.0</ele><time>2026-05-04T13:15:07Z</time></trkpt><trkpt lat="44.88626390324805" lon="16.77060306060565"><ele>183.0</ele><time>2026-05-04T13:15:08Z</time></trkpt><trkpt lat="44.886457702832374" lon="16.77058108118671"><ele>183.0</ele><time>2026-05-04T13:15:09Z</time></trkpt><trkpt lat="44.886648184388704" lon="16.7705653796864"><ele>183.0</ele><time>2026-05-04T13:15:10Z</time></trkpt><trkpt lat="44.88683946951187" lon="16.770559478390513"><ele>183.0</ele><time>2026-05-04T13:15:11Z</time></trkpt><trkpt lat="44.88702900379687" lon="16.77055787548475"><ele>184.66666666666666</ele><time>2026-05-04T13:15:12Z</time></trkpt><trkpt lat="44.887212309932075" lon="16.770555207195653"><ele>186.33333333333331</ele><time>2026-05-04T13:15:13Z</time></trkpt><trkpt lat="44.887399497290986" lon="16.77055197719268"><ele>188.0</ele><time>2026-05-04T13:15:14Z</time></trkpt><trkpt lat="44.88758050955617" lon="16.770553234578166"><ele>188.66666666666666</ele><time>2026-05-04T13:15:15Z</time></trkpt><trkpt lat="44.88775906932181" lon="16.770554388066813"><ele>189.33333333333334</ele><time>2026-05-04T13:15:16Z</time></trkpt><trkpt lat="44.88793852936087" lon="16.770568344570776"><ele>190.0</ele><time>2026-05-04T13:15:17Z</time></trkpt><trkpt lat="44.88812464292777" lon="16.77057423769056"><ele>190.0</ele><time>2026-05-04T13:15:18Z</time></trkpt><trkpt lat="44.88831583859817" lon="16.770560903851955"><ele>190.0</ele><time>2026-05-04T13:15:19Z</time></trkpt><trkpt lat="44.888511829413716" lon="16.770532358496887"><ele>190.0</ele><time>2026-05-04T13:15:20Z</time></trkpt><trkpt lat="44.88871412153127" lon="16.770492212387804"><ele>188.0</ele><time>2026-05-04T13:15:21Z</time></trkpt><trkpt lat="44.88892929033543" lon="16.77044096231034"><ele>186.0</ele><time>2026-05-04T13:15:22Z</time></trkpt><trkpt lat="44.88916254987379" lon="16.770372016541003"><ele>184.0</ele><time>2026-05-04T13:15:23Z</time></trkpt><trkpt lat="44.88939324112317" lon="16.77028499248394"><ele>182.0</ele><time>2026-05-04T13:15:24Z</time></trkpt><trkpt lat="44.88962069120747" lon="16.77018946740616"><ele>180.5</ele><time>2026-05-04T13:15:25Z</time></trkpt><trkpt lat="44.889848647563404" lon="16.770113896767764"><ele>179.0</ele><time>2026-05-04T13:15:26Z</time></trkpt><trkpt lat="44.890068115032165" lon="16.77000144067032"><ele>177.33333333333331</ele><time>2026-05-04T13:15:27Z</time></trkpt><trkpt lat="44.890271593191585" lon="16.7698674516671"><ele>175.66666666666666</ele><time>2026-05-04T13:15:28Z</time></trkpt><trkpt lat="44.89046938050114" lon="16.769743741167275"><ele>174.0</ele><time>2026-05-04T13:15:29Z</time></trkpt><trkpt lat="44.890655543739214" lon="16.769628537278248"><ele>174.0</ele><time>2026-05-04T13:15:30Z</time></trkpt><trkpt lat="44.89083901254581" lon="16.769500268638232"><ele>174.0</ele><time>2026-05-04T13:15:31Z</time></trkpt><trkpt lat="44.89102771690562" lon="16.769400284853138"><ele>174.0</ele><time>2026-05-04T13:15:32Z</time></trkpt><trkpt lat="44.8912156783968" lon="16.769311433537176"><ele>171.33333333333334</ele><time>2026-05-04T13:15:33Z</time></trkpt><trkpt lat="44.891414600322165" lon="16.769240084915815"><ele>168.66666666666669</ele><time>2026-05-04T13:15:34Z</time></trkpt><trkpt lat="44.89161707374298" lon="16.769176047663297"><ele>166.0</ele><time>2026-05-04T13:15:35Z</time></trkpt><trkpt lat="44.891810476434436" lon="16.769106533695613"><ele>163.66666666666669</ele><time>2026-05-04T13:15:36Z</time></trkpt><trkpt lat="44.89203077405774" lon="16.76905346152271"><ele>161.33333333333334</ele><time>2026-05-04T13:15:37Z</time></trkpt><trkpt lat="44.89224491890553" lon="16.768965528621987"><ele>159.0</ele><time>2026-05-04T13:15:38Z</time></trkpt><trkpt lat="44.892482331980545" lon="16.768924056408522"><ele>159.66666666666666</ele><time>2026-05-04T13:15:39Z</time></trkpt><trkpt lat="44.892681668718524" lon="16.7688272308898"><ele>160.33333333333331</ele><time>2026-05-04T13:15:40Z</time></trkpt><trkpt lat="44.892862944239624" lon="16.76874792923847"><ele>161.0</ele><time>2026-05-04T13:15:41Z</time></trkpt><trkpt lat="44.893044828195734" lon="16.768627719385833"><ele>161.0</ele><time>2026-05-04T13:15:42Z</time></trkpt><trkpt lat="44.89323230152205" lon="16.768511658187375"><ele>161.0</ele><time>2026-05-04T13:15:43Z</time></trkpt><trkpt lat="44.89343204915985" lon="16.768395703321048"><ele>161.0</ele><time>2026-05-04T13:15:44Z</time></trkpt><trkpt lat="44.89363835749804" lon="16.768283502199687"><ele>162.33333333333331</ele><time>2026-05-04T13:15:45Z</time></trkpt><trkpt lat="44.89384452312442" lon="16.76816294918015"><ele>163.66666666666666</ele><time>2026-05-04T13:15:46Z</time></trkpt><trkpt lat="44.894046369224384" lon="16.768046801453018"><ele>165.0</ele><time>2026-05-04T13:15:47Z</time></trkpt><trkpt lat="44.89425665905762" lon="16.7679245671077"><ele>166.0</ele><time>2026-05-04T13:15:48Z</time></trkpt><trkpt lat="44.894470604650856" lon="16.767799965563636"><ele>167.0</ele><time>2026-05-04T13:15:49Z</time></trkpt><trkpt lat="44.8946823745569" lon="16.767678856459575"><ele>168.5</ele><time>2026-05-04T13:15:50Z</time></trkpt><trkpt lat="44.89489667672361" lon="16.767559372012713"><ele>170.0</ele><time>2026-05-04T13:15:51Z</time></trkpt><trkpt lat="44.895105472591695" lon="16.767428153423726"><ele>171.0</ele><time>2026-05-04T13:15:52Z</time></trkpt><trkpt lat="44.895315828613775" lon="16.767303474547948"><ele>172.0</ele><time>2026-05-04T13:15:53Z</time></trkpt><trkpt lat="44.895522983608856" lon="16.767178815225588"><ele>172.0</ele><time>2026-05-04T13:15:54Z</time></trkpt><trkpt lat="44.89572766860386" lon="16.767058593443743"><ele>172.0</ele><time>2026-05-04T13:15:55Z</time></trkpt><trkpt lat="44.895926138751456" lon="16.76694815019114"><ele>172.0</ele><time>2026-05-04T13:15:56Z</time></trkpt><trkpt lat="44.89611830256221" lon="16.766839106255084"><ele>173.33333333333334</ele><time>2026-05-04T13:15:57Z</time></trkpt><trkpt lat="44.896312585468166" lon="16.76671942931803"><ele>174.66666666666666</ele><time>2026-05-04T13:15:58Z</time></trkpt><trkpt lat="44.896504277143" lon="16.766602142445258"><ele>176.0</ele><time>2026-05-04T13:15:59Z</time></trkpt><trkpt lat="44.89670198029399" lon="16.766483467422542"><ele>176.66666666666666</ele><time>2026-05-04T13:16:00Z</time></trkpt><trkpt lat="44.89690032002602" lon="16.766366143173233"><ele>177.33333333333334</ele><time>2026-05-04T13:16:01Z</time></trkpt><trkpt lat="44.89709535070436" lon="16.76625901336465"><ele>178.0</ele><time>2026-05-04T13:16:02Z</time></trkpt><trkpt lat="44.897283349168546" lon="16.766153316026276"><ele>178.0</ele><time>2026-05-04T13:16:03Z</time></trkpt><trkpt lat="44.8974656197088" lon="16.766051697425283"><ele>178.0</ele><time>2026-05-04T13:16:04Z</time></trkpt><trkpt lat="44.89764642483867" lon="16.76595818260205"><ele>178.0</ele><time>2026-05-04T13:16:05Z</time></trkpt><trkpt lat="44.89782790193295" lon="16.765875480688827"><ele>179.0</ele><time>2026-05-04T13:16:06Z</time></trkpt><trkpt lat="44.89800975304419" lon="16.76580460235586"><ele>180.0</ele><time>2026-05-04T13:16:07Z</time></trkpt><trkpt lat="44.898187552838785" lon="16.765752423974334"><ele>181.0</ele><time>2026-05-04T13:16:08Z</time></trkpt><trkpt lat="44.89837049678604" lon="16.765714533096734"><ele>181.0</ele><time>2026-05-04T13:16:09Z</time></trkpt><trkpt lat="44.89855972724358" lon="16.765703552854223"><ele>181.0</ele><time>2026-05-04T13:16:10Z</time></trkpt><trkpt lat="44.89874834688969" lon="16.765725012747282"><ele>181.0</ele><time>2026-05-04T13:16:11Z</time></trkpt><trkpt lat="44.89893633861365" lon="16.765771857544262"><ele>181.0</ele><time>2026-05-04T13:16:12Z</time></trkpt><trkpt lat="44.899124703113664" lon="16.765830378146816"><ele>181.0</ele><time>2026-05-04T13:16:13Z</time></trkpt><trkpt lat="44.89930910603247" lon="16.76590976160124"><ele>181.0</ele><time>2026-05-04T13:16:14Z</time></trkpt><trkpt lat="44.89948911135185" lon="16.76600739157057"><ele>181.33333333333334</ele><time>2026-05-04T13:16:15Z</time></trkpt><trkpt lat="44.89965682834443" lon="16.766138933057295"><ele>181.66666666666666</ele><time>2026-05-04T13:16:16Z</time></trkpt><trkpt lat="44.89981767851922" lon="16.76629069181011"><ele>182.0</ele><time>2026-05-04T13:16:17Z</time></trkpt><trkpt lat="44.89996562335785" lon="16.766453404590344"><ele>183.0</ele><time>2026-05-04T13:16:18Z</time></trkpt><trkpt lat="44.90010529052012" lon="16.76660823146942"><ele>184.0</ele><time>2026-05-04T13:16:19Z</time></trkpt><trkpt lat="44.9002379129748" lon="16.76677024069331"><ele>185.0</ele><time>2026-05-04T13:16:20Z</time></trkpt><trkpt lat="44.90036640997593" lon="16.766943944959788"><ele>185.0</ele><time>2026-05-04T13:16:21Z</time></trkpt><trkpt lat="44.90048964935777" lon="16.76711737603625"><ele>185.0</ele><time>2026-05-04T13:16:22Z</time></trkpt><trkpt lat="44.90061513811809" lon="16.76730684114644"><ele>185.0</ele><time>2026-05-04T13:16:23Z</time></trkpt><trkpt lat="44.900737971017435" lon="16.76749594354079"><ele>185.0</ele><time>2026-05-04T13:16:24Z</time></trkpt><trkpt lat="44.90086127098229" lon="16.76769014771887"><ele>185.0</ele><time>2026-05-04T13:16:25Z</time></trkpt><trkpt lat="44.900984340965785" lon="16.76789049339505"><ele>185.0</ele><time>2026-05-04T13:16:26Z</time></trkpt><trkpt lat="44.90110228151432" lon="16.768099490148558"><ele>184.66666666666666</ele><time>2026-05-04T13:16:27Z</time></trkpt><trkpt lat="44.901215554642654" lon="16.768313207861993"><ele>184.33333333333334</ele><time>2026-05-04T13:16:28Z</time></trkpt><trkpt lat="44.90132802159018" lon="16.76853903962083"><ele>184.0</ele><time>2026-05-04T13:16:29Z</time></trkpt><trkpt lat="44.90143670295022" lon="16.768770757456977"><ele>182.66666666666669</ele><time>2026-05-04T13:16:30Z</time></trkpt><trkpt lat="44.90154530924754" lon="16.769021128329893"><ele>181.33333333333334</ele><time>2026-05-04T13:16:31Z</time></trkpt><trkpt lat="44.90164803342586" lon="16.769274870791207"><ele>180.0</ele><time>2026-05-04T13:16:32Z</time></trkpt><trkpt lat="44.90174827426436" lon="16.769538927296097"><ele>179.66666666666666</ele><time>2026-05-04T13:16:33Z</time></trkpt><trkpt lat="44.901846235814055" lon="16.769808352431006"><ele>179.33333333333331</ele><time>2026-05-04T13:16:34Z</time></trkpt><trkpt lat="44.90193864017399" lon="16.77008099716741"><ele>179.0</ele><time>2026-05-04T13:16:35Z</time></trkpt><trkpt lat="44.90202931299097" lon="16.770362972070586"><ele>177.66666666666666</ele><time>2026-05-04T13:16:36Z</time></trkpt><trkpt lat="44.902115763330755" lon="16.770648875572416"><ele>176.33333333333334</ele><time>2026-05-04T13:16:37Z</time></trkpt><trkpt lat="44.90220155405499" lon="16.770935526058288"><ele>175.0</ele><time>2026-05-04T13:16:38Z</time></trkpt><trkpt lat="44.90229995727426" lon="16.771223463112918"><ele>174.33333333333334</ele><time>2026-05-04T13:16:39Z</time></trkpt><trkpt lat="44.90240876256869" lon="16.771496701352717"><ele>173.66666666666666</ele><time>2026-05-04T13:16:40Z</time></trkpt><trkpt lat="44.90252869518345" lon="16.77174731055072"><ele>173.0</ele><time>2026-05-04T13:16:41Z</time></trkpt><trkpt lat="44.902663163320724" lon="16.77198162124832"><ele>170.66666666666666</ele><time>2026-05-04T13:16:42Z</time></trkpt><trkpt lat="44.90281817220987" lon="16.772192963837817"><ele>168.33333333333334</ele><time>2026-05-04T13:16:43Z</time></trkpt><trkpt lat="44.90299126590714" lon="16.77237523935218"><ele>166.0</ele><time>2026-05-04T13:16:44Z</time></trkpt><trkpt lat="44.90317888984653" lon="16.77252603858813"><ele>166.0</ele><time>2026-05-04T13:16:45Z</time></trkpt><trkpt lat="44.90337805013534" lon="16.772645360038563"><ele>166.0</ele><time>2026-05-04T13:16:46Z</time></trkpt><trkpt lat="44.90359265123965" lon="16.772732916492817"><ele>166.0</ele><time>2026-05-04T13:16:47Z</time></trkpt><trkpt lat="44.90381422245975" lon="16.772784584857657"><ele>165.5</ele><time>2026-05-04T13:16:48Z</time></trkpt><trkpt lat="44.90404424145335" lon="16.77280669390187"><ele>165.0</ele><time>2026-05-04T13:16:49Z</time></trkpt><trkpt lat="44.90427624576285" lon="16.77281167920165"><ele>163.0</ele><time>2026-05-04T13:16:50Z</time></trkpt><trkpt lat="44.904505797076474" lon="16.77280978071894"><ele>161.0</ele><time>2026-05-04T13:16:51Z</time></trkpt><trkpt lat="44.904747387299814" lon="16.772808563941606"><ele>161.0</ele><time>2026-05-04T13:16:52Z</time></trkpt><trkpt lat="44.90499169854048" lon="16.772806638061194"><ele>161.0</ele><time>2026-05-04T13:16:53Z</time></trkpt><trkpt lat="44.90523842941923" lon="16.77281384428075"><ele>158.5</ele><time>2026-05-04T13:16:54Z</time></trkpt><trkpt lat="44.905492007878976" lon="16.77282427420479"><ele>156.0</ele><time>2026-05-04T13:16:55Z</time></trkpt><trkpt lat="44.905739971429725" lon="16.772844835929117"><ele>155.5</ele><time>2026-05-04T13:16:56Z</time></trkpt><trkpt lat="44.90598552687359" lon="16.772876498223315"><ele>155.0</ele><time>2026-05-04T13:16:57Z</time></trkpt><trkpt lat="44.90623243157835" lon="16.772916442280692"><ele>155.0</ele><time>2026-05-04T13:16:58Z</time></trkpt><trkpt lat="44.90647432198122" lon="16.772958362853654"><ele>155.0</ele><time>2026-05-04T13:16:59Z</time></trkpt><trkpt lat="44.906707782063954" lon="16.772999814528227"><ele>157.0</ele><time>2026-05-04T13:17:00Z</time></trkpt><trkpt lat="44.90693941754269" lon="16.77303852362346"><ele>159.0</ele><time>2026-05-04T13:17:01Z</time></trkpt><trkpt lat="44.907161498002566" lon="16.773061117260077"><ele>159.0</ele><time>2026-05-04T13:17:02Z</time></trkpt><trkpt lat="44.90737724413119" lon="16.773062390896566"><ele>159.0</ele><time>2026-05-04T13:17:03Z</time></trkpt><trkpt lat="44.90758865583221" lon="16.773032381773977"><ele>159.0</ele><time>2026-05-04T13:17:04Z</time></trkpt><trkpt lat="44.90778990561676" lon="16.772968492015135"><ele>160.0</ele><time>2026-05-04T13:17:05Z</time></trkpt><trkpt lat="44.90798122852979" lon="16.77287026184753"><ele>161.0</ele><time>2026-05-04T13:17:06Z</time></trkpt><trkpt lat="44.90816042843319" lon="16.7727467398938"><ele>162.0</ele><time>2026-05-04T13:17:07Z</time></trkpt><trkpt lat="44.90832505053314" lon="16.772598798683532"><ele>163.33333333333334</ele><time>2026-05-04T13:17:08Z</time></trkpt><trkpt lat="44.908475165018885" lon="16.77243680916577"><ele>164.66666666666669</ele><time>2026-05-04T13:17:09Z</time></trkpt><trkpt lat="44.90861143397735" lon="16.772247995893743"><ele>166.0</ele><time>2026-05-04T13:17:10Z</time></trkpt><trkpt lat="44.908727198829745" lon="16.772040539624964"><ele>167.33333333333334</ele><time>2026-05-04T13:17:11Z</time></trkpt><trkpt lat="44.908833636092986" lon="16.77181447231992"><ele>168.66666666666666</ele><time>2026-05-04T13:17:12Z</time></trkpt><trkpt lat="44.908925050449724" lon="16.771582399774775"><ele>170.0</ele><time>2026-05-04T13:17:13Z</time></trkpt><trkpt lat="44.908995966294235" lon="16.771342045362502"><ele>170.0</ele><time>2026-05-04T13:17:14Z</time></trkpt><trkpt lat="44.909048791908575" lon="16.771090573899627"><ele>170.0</ele><time>2026-05-04T13:17:15Z</time></trkpt><trkpt lat="44.909084978176566" lon="16.77082888067837"><ele>170.0</ele><time>2026-05-04T13:17:16Z</time></trkpt><trkpt lat="44.90910586837676" lon="16.770563526007273"><ele>170.66666666666666</ele><time>2026-05-04T13:17:17Z</time></trkpt><trkpt lat="44.90912002557326" lon="16.770293279169444"><ele>171.33333333333334</ele><time>2026-05-04T13:17:18Z</time></trkpt><trkpt lat="44.90913902555914" lon="16.770015178518552"><ele>172.0</ele><time>2026-05-04T13:17:19Z</time></trkpt><trkpt lat="44.90916157683682" lon="16.76973334839393"><ele>172.66666666666669</ele><time>2026-05-04T13:17:20Z</time></trkpt><trkpt lat="44.909189426783556" lon="16.769443400800732"><ele>173.33333333333334</ele><time>2026-05-04T13:17:21Z</time></trkpt><trkpt lat="44.909224730276016" lon="16.76913996217426"><ele>174.0</ele><time>2026-05-04T13:17:22Z</time></trkpt><trkpt lat="44.909280520607595" lon="16.768857095339204"><ele>172.0</ele><time>2026-05-04T13:17:23Z</time></trkpt><trkpt lat="44.90936172802638" lon="16.76858152756482"><ele>170.0</ele><time>2026-05-04T13:17:24Z</time></trkpt><trkpt lat="44.909468013690386" lon="16.768329604926286"><ele>168.0</ele><time>2026-05-04T13:17:25Z</time></trkpt><trkpt lat="44.90959065671239" lon="16.768105081717003"><ele>168.0</ele><time>2026-05-04T13:17:26Z</time></trkpt><trkpt lat="44.90972822323193" lon="16.76790960529555"><ele>168.0</ele><time>2026-05-04T13:17:27Z</time></trkpt><trkpt lat="44.90988710682978" lon="16.7677209978252"><ele>168.0</ele><time>2026-05-04T13:17:28Z</time></trkpt><trkpt lat="44.9100597583031" lon="16.767556616763397"><ele>170.33333333333334</ele><time>2026-05-04T13:17:29Z</time></trkpt><trkpt lat="44.910235336540694" lon="16.76742835782372"><ele>172.66666666666669</ele><time>2026-05-04T13:17:30Z</time></trkpt><trkpt lat="44.91042177902367" lon="16.767321235583218"><ele>175.0</ele><time>2026-05-04T13:17:31Z</time></trkpt><trkpt lat="44.91061788822994" lon="16.767250089938553"><ele>175.0</ele><time>2026-05-04T13:17:32Z</time></trkpt><trkpt lat="44.91081528903426" lon="16.767188341649394"><ele>175.0</ele><time>2026-05-04T13:17:33Z</time></trkpt><trkpt lat="44.91101887731828" lon="16.7671337955022"><ele>175.0</ele><time>2026-05-04T13:17:34Z</time></trkpt><trkpt lat="44.9112212519347" lon="16.767077794331854"><ele>174.66666666666669</ele><time>2026-05-04T13:17:35Z</time></trkpt><trkpt lat="44.91141559867428" lon="16.767016239566516"><ele>174.33333333333334</ele><time>2026-05-04T13:17:36Z</time></trkpt><trkpt lat="44.91161329604287" lon="16.76694477543391"><ele>174.0</ele><time>2026-05-04T13:17:37Z</time></trkpt><trkpt lat="44.911804373652224" lon="16.76685982684345"><ele>171.33333333333334</ele><time>2026-05-04T13:17:38Z</time></trkpt><trkpt lat="44.91199829799304" lon="16.76675353205033"><ele>168.66666666666669</ele><time>2026-05-04T13:17:39Z</time></trkpt><trkpt lat="44.91219384347124" lon="16.766632397720834"><ele>166.0</ele><time>2026-05-04T13:17:40Z</time></trkpt><trkpt lat="44.91238694884693" lon="16.766493413139436"><ele>164.5</ele><time>2026-05-04T13:17:41Z</time></trkpt><trkpt lat="44.91257872100817" lon="16.7663336080247"><ele>163.0</ele><time>2026-05-04T13:17:42Z</time></trkpt><trkpt lat="44.91276620819553" lon="16.76615086209806"><ele>162.5</ele><time>2026-05-04T13:17:43Z</time></trkpt><trkpt lat="44.9129543914816" lon="16.7659624914323"><ele>162.0</ele><time>2026-05-04T13:17:44Z</time></trkpt><trkpt lat="44.913148216702275" lon="16.76576985459299"><ele>162.0</ele><time>2026-05-04T13:17:45Z</time></trkpt><trkpt lat="44.913340620502666" lon="16.765585327410978"><ele>162.0</ele><time>2026-05-04T13:17:46Z</time></trkpt><trkpt lat="44.91353157228137" lon="16.76540837107443"><ele>161.33333333333334</ele><time>2026-05-04T13:17:47Z</time></trkpt><trkpt lat="44.913724298160616" lon="16.7652504089225"><ele>160.66666666666669</ele><time>2026-05-04T13:17:48Z</time></trkpt><trkpt lat="44.91391643716526" lon="16.76511409880346"><ele>160.0</ele><time>2026-05-04T13:17:49Z</time></trkpt><trkpt lat="44.914099825774215" lon="16.76500508098828"><ele>159.33333333333334</ele><time>2026-05-04T13:17:50Z</time></trkpt><trkpt lat="44.914289786930226" lon="16.76490904279736"><ele>158.66666666666666</ele><time>2026-05-04T13:17:51Z</time></trkpt><trkpt lat="44.914479676619635" lon="16.76482755267364"><ele>158.0</ele><time>2026-05-04T13:17:52Z</time></trkpt><trkpt lat="44.91467316739195" lon="16.764757269397442"><ele>158.0</ele><time>2026-05-04T13:17:53Z</time></trkpt><trkpt lat="44.91486199546205" lon="16.764699175218052"><ele>158.0</ele><time>2026-05-04T13:17:54Z</time></trkpt><trkpt lat="44.9150506682859" lon="16.764644313238215"><ele>158.0</ele><time>2026-05-04T13:17:55Z</time></trkpt><trkpt lat="44.91524829996342" lon="16.764582520992885"><ele>157.0</ele><time>2026-05-04T13:17:56Z</time></trkpt><trkpt lat="44.915447988753215" lon="16.764518393846007"><ele>156.0</ele><time>2026-05-04T13:17:57Z</time></trkpt><trkpt lat="44.91564827945362" lon="16.764457156821546"><ele>155.0</ele><time>2026-05-04T13:17:58Z</time></trkpt><trkpt lat="44.91585615784864" lon="16.764393703125474"><ele>155.33333333333331</ele><time>2026-05-04T13:17:59Z</time></trkpt><trkpt lat="44.916060839122295" lon="16.764329793309646"><ele>155.66666666666666</ele><time>2026-05-04T13:18:00Z</time></trkpt><trkpt lat="44.91626472190181" lon="16.764266652811777"><ele>156.0</ele><time>2026-05-04T13:18:01Z</time></trkpt><trkpt lat="44.91647386221928" lon="16.764203106802203"><ele>156.0</ele><time>2026-05-04T13:18:02Z</time></trkpt><trkpt lat="44.916677209600905" lon="16.764141333387766"><ele>156.0</ele><time>2026-05-04T13:18:03Z</time></trkpt><trkpt lat="44.91688230809304" lon="16.764080355890723"><ele>156.0</ele><time>2026-05-04T13:18:04Z</time></trkpt><trkpt lat="44.917080934985286" lon="16.764028936014935"><ele>155.0</ele><time>2026-05-04T13:18:05Z</time></trkpt><trkpt lat="44.917280569778946" lon="16.763988108920547"><ele>154.0</ele><time>2026-05-04T13:18:06Z</time></trkpt><trkpt lat="44.917482948785526" lon="16.763964872697528"><ele>153.0</ele><time>2026-05-04T13:18:07Z</time></trkpt><trkpt lat="44.91768893715343" lon="16.7639320315916"><ele>152.0</ele><time>2026-05-04T13:18:08Z</time></trkpt><trkpt lat="44.917897283976714" lon="16.763914065275152"><ele>151.0</ele><time>2026-05-04T13:18:09Z</time></trkpt><trkpt lat="44.91810912764309" lon="16.76388801221693"><ele>150.0</ele><time>2026-05-04T13:18:10Z</time></trkpt><trkpt lat="44.91832667229083" lon="16.76384979728429"><ele>150.0</ele><time>2026-05-04T13:18:11Z</time></trkpt><trkpt lat="44.91854858727191" lon="16.76379062463366"><ele>150.0</ele><time>2026-05-04T13:18:12Z</time></trkpt><trkpt lat="44.918764880523135" lon="16.76370424922264"><ele>150.0</ele><time>2026-05-04T13:18:13Z</time></trkpt><trkpt lat="44.918976500909345" lon="16.76358767855984"><ele>150.0</ele><time>2026-05-04T13:18:14Z</time></trkpt><trkpt lat="44.91917796864276" lon="16.763442464032657"><ele>151.0</ele><time>2026-05-04T13:18:15Z</time></trkpt><trkpt lat="44.91937681830053" lon="16.763285727881073"><ele>152.0</ele><time>2026-05-04T13:18:16Z</time></trkpt><trkpt lat="44.91956953159133" lon="16.763096981826273"><ele>152.0</ele><time>2026-05-04T13:18:17Z</time></trkpt><trkpt lat="44.91974934026208" lon="16.762885749928834"><ele>152.0</ele><time>2026-05-04T13:18:18Z</time></trkpt><trkpt lat="44.919919138033485" lon="16.762662119222348"><ele>152.5</ele><time>2026-05-04T13:18:19Z</time></trkpt><trkpt lat="44.920089049177584" lon="16.76242495656726"><ele>153.0</ele><time>2026-05-04T13:18:20Z</time></trkpt><trkpt lat="44.92025432417102" lon="16.762169315032487"><ele>153.0</ele><time>2026-05-04T13:18:21Z</time></trkpt><trkpt lat="44.92041122938578" lon="16.761897558807334"><ele>153.0</ele><time>2026-05-04T13:18:22Z</time></trkpt><trkpt lat="44.92056367956454" lon="16.761611010236834"><ele>152.0</ele><time>2026-05-04T13:18:23Z</time></trkpt><trkpt lat="44.9207164843511" lon="16.7613097333754"><ele>151.0</ele><time>2026-05-04T13:18:24Z</time></trkpt><trkpt lat="44.92087196084002" lon="16.76098689278384"><ele>148.5</ele><time>2026-05-04T13:18:25Z</time></trkpt><trkpt lat="44.921035096036" lon="16.7606469268879"><ele>146.0</ele><time>2026-05-04T13:18:26Z</time></trkpt><trkpt lat="44.921200113767036" lon="16.76029142144771"><ele>146.0</ele><time>2026-05-04T13:18:27Z</time></trkpt><trkpt lat="44.921362865036876" lon="16.75993857544717"><ele>146.0</ele><time>2026-05-04T13:18:28Z</time></trkpt><trkpt lat="44.921526334015546" lon="16.759589156850332"><ele>147.5</ele><time>2026-05-04T13:18:29Z</time></trkpt><trkpt lat="44.921689468376975" lon="16.759241143205653"><ele>149.0</ele><time>2026-05-04T13:18:30Z</time></trkpt><trkpt lat="44.92185018241384" lon="16.758897959908776"><ele>149.0</ele><time>2026-05-04T13:18:31Z</time></trkpt><trkpt lat="44.92200677553849" lon="16.758558497859514"><ele>149.0</ele><time>2026-05-04T13:18:32Z</time></trkpt><trkpt lat="44.92216037820326" lon="16.75822186793445"><ele>149.5</ele><time>2026-05-04T13:18:33Z</time></trkpt><trkpt lat="44.92231315085606" lon="16.75788826088323"><ele>150.0</ele><time>2026-05-04T13:18:34Z</time></trkpt><trkpt lat="44.9224638119281" lon="16.75755358496187"><ele>150.0</ele><time>2026-05-04T13:18:35Z</time></trkpt><trkpt lat="44.92261075695855" lon="16.75722023408886"><ele>150.0</ele><time>2026-05-04T13:18:36Z</time></trkpt><trkpt lat="44.92275464753751" lon="16.75688680166313"><ele>150.0</ele><time>2026-05-04T13:18:37Z</time></trkpt><trkpt lat="44.922892553612385" lon="16.756556517096392"><ele>150.0</ele><time>2026-05-04T13:18:38Z</time></trkpt><trkpt lat="44.92302356362273" lon="16.756222057244386"><ele>151.5</ele><time>2026-05-04T13:18:39Z</time></trkpt><trkpt lat="44.92314620468805" lon="16.75589079049501"><ele>153.0</ele><time>2026-05-04T13:18:40Z</time></trkpt><trkpt lat="44.923267409271645" lon="16.755562689882215"><ele>153.0</ele><time>2026-05-04T13:18:41Z</time></trkpt><trkpt lat="44.92338908884936" lon="16.755241576370594"><ele>153.0</ele><time>2026-05-04T13:18:42Z</time></trkpt><trkpt lat="44.923510920039014" lon="16.754938683573968"><ele>155.0</ele><time>2026-05-04T13:18:43Z</time></trkpt><trkpt lat="44.92363153558797" lon="16.754649923475895"><ele>157.0</ele><time>2026-05-04T13:18:44Z</time></trkpt><trkpt lat="44.923756364671064" lon="16.754376505625935"><ele>159.66666666666669</ele><time>2026-05-04T13:18:45Z</time></trkpt><trkpt lat="44.923887311910136" lon="16.754117009706903"><ele>162.33333333333334</ele><time>2026-05-04T13:18:46Z</time></trkpt><trkpt lat="44.924023982396946" lon="16.75387152326461"><ele>165.0</ele><time>2026-05-04T13:18:47Z</time></trkpt><trkpt lat="44.924163948340855" lon="16.75363809047641"><ele>164.33333333333334</ele><time>2026-05-04T13:18:48Z</time></trkpt><trkpt lat="44.92430437132104" lon="16.75341024581861"><ele>163.66666666666669</ele><time>2026-05-04T13:18:49Z</time></trkpt><trkpt lat="44.92444902462352" lon="16.753190011487277"><ele>163.0</ele><time>2026-05-04T13:18:50Z</time></trkpt><trkpt lat="44.924601874017505" lon="16.752980104200937"><ele>163.0</ele><time>2026-05-04T13:18:51Z</time></trkpt><trkpt lat="44.92475608518224" lon="16.752770068719098"><ele>163.0</ele><time>2026-05-04T13:18:52Z</time></trkpt><trkpt lat="44.9249133261604" lon="16.75256483871583"><ele>163.0</ele><time>2026-05-04T13:18:53Z</time></trkpt><trkpt lat="44.925070624290846" lon="16.752363810993536"><ele>165.0</ele><time>2026-05-04T13:18:54Z</time></trkpt><trkpt lat="44.925225429932816" lon="16.75216284270754"><ele>167.0</ele><time>2026-05-04T13:18:55Z</time></trkpt><trkpt lat="44.92537637957576" lon="16.75196038502864"><ele>169.0</ele><time>2026-05-04T13:18:56Z</time></trkpt><trkpt lat="44.92552579458083" lon="16.751759224902827"><ele>170.33333333333334</ele><time>2026-05-04T13:18:57Z</time></trkpt><trkpt lat="44.92567696024923" lon="16.751556123259736"><ele>171.66666666666666</ele><time>2026-05-04T13:18:58Z</time></trkpt><trkpt lat="44.92582514938176" lon="16.75135487235734"><ele>173.0</ele><time>2026-05-04T13:18:59Z</time></trkpt><trkpt lat="44.925972098694125" lon="16.751149268534903"><ele>173.0</ele><time>2026-05-04T13:19:00Z</time></trkpt><trkpt lat="44.92610513977446" lon="16.750936950435353"><ele>173.0</ele><time>2026-05-04T13:19:01Z</time></trkpt><trkpt lat="44.9262256574694" lon="16.750710042196992"><ele>173.0</ele><time>2026-05-04T13:19:02Z</time></trkpt><trkpt lat="44.92633345332676" lon="16.750470000760004"><ele>173.0</ele><time>2026-05-04T13:19:03Z</time></trkpt><trkpt lat="44.926425434446685" lon="16.750216937110263"><ele>173.0</ele><time>2026-05-04T13:19:04Z</time></trkpt><trkpt lat="44.92651080535259" lon="16.749966737017782"><ele>173.0</ele><time>2026-05-04T13:19:05Z</time></trkpt><trkpt lat="44.92659649223772" lon="16.749726299822953"><ele>171.66666666666666</ele><time>2026-05-04T13:19:06Z</time></trkpt><trkpt lat="44.92669001231463" lon="16.749499517881063"><ele>170.33333333333334</ele><time>2026-05-04T13:19:07Z</time></trkpt><trkpt lat="44.92679545397342" lon="16.7492892614137"><ele>169.0</ele><time>2026-05-04T13:19:08Z</time></trkpt><trkpt lat="44.926917805933556" lon="16.749087009599524"><ele>166.66666666666669</ele><time>2026-05-04T13:19:09Z</time></trkpt><trkpt lat="44.92705123023581" lon="16.74889541027099"><ele>164.33333333333334</ele><time>2026-05-04T13:19:10Z</time></trkpt><trkpt lat="44.92720190169252" lon="16.748722919284848"><ele>162.0</ele><time>2026-05-04T13:19:11Z</time></trkpt><trkpt lat="44.9273657869271" lon="16.748579961106508"><ele>163.0</ele><time>2026-05-04T13:19:12Z</time></trkpt><trkpt lat="44.92753805182625" lon="16.748440797267"><ele>164.0</ele><time>2026-05-04T13:19:13Z</time></trkpt><trkpt lat="44.927710629943995" lon="16.748309795544778"><ele>165.0</ele><time>2026-05-04T13:19:14Z</time></trkpt><trkpt lat="44.92787996961274" lon="16.74818006034386"><ele>164.33333333333334</ele><time>2026-05-04T13:19:15Z</time></trkpt><trkpt lat="44.92804499161959" lon="16.748042029941466"><ele>163.66666666666669</ele><time>2026-05-04T13:19:16Z</time></trkpt><trkpt lat="44.928205605485665" lon="16.747886629525247"><ele>163.0</ele><time>2026-05-04T13:19:17Z</time></trkpt><trkpt lat="44.92835555564918" lon="16.747697095105387"><ele>159.66666666666669</ele><time>2026-05-04T13:19:18Z</time></trkpt><trkpt lat="44.92849415205488" lon="16.74748838462153"><ele>156.33333333333334</ele><time>2026-05-04T13:19:19Z</time></trkpt><trkpt lat="44.928621109533445" lon="16.747252785053572"><ele>153.0</ele><time>2026-05-04T13:19:20Z</time></trkpt><trkpt lat="44.92874353637871" lon="16.74701151154512"><ele>151.66666666666666</ele><time>2026-05-04T13:19:21Z</time></trkpt><trkpt lat="44.92882180678595" lon="16.74673160806424"><ele>150.33333333333331</ele><time>2026-05-04T13:19:22Z</time></trkpt><trkpt lat="44.92887777884994" lon="16.746451471243716"><ele>149.0</ele><time>2026-05-04T13:19:23Z</time></trkpt><trkpt lat="44.92892078794094" lon="16.74615709894049"><ele>148.66666666666666</ele><time>2026-05-04T13:19:24Z</time></trkpt><trkpt lat="44.92896246175431" lon="16.745856370111667"><ele>148.33333333333334</ele><time>2026-05-04T13:19:25Z</time></trkpt><trkpt lat="44.928997426181205" lon="16.7455535211841"><ele>148.0</ele><time>2026-05-04T13:19:26Z</time></trkpt><trkpt lat="44.92901557286313" lon="16.74526097258927"><ele>148.33333333333334</ele><time>2026-05-04T13:19:27Z</time></trkpt><trkpt lat="44.929047036477066" lon="16.7449818339186"><ele>148.66666666666666</ele><time>2026-05-04T13:19:28Z</time></trkpt><trkpt lat="44.929078196544445" lon="16.744705261767237"><ele>149.0</ele><time>2026-05-04T13:19:29Z</time></trkpt><trkpt lat="44.92911931228768" lon="16.744438196925156"><ele>147.33333333333331</ele><time>2026-05-04T13:19:30Z</time></trkpt><trkpt lat="44.92916849253023" lon="16.744179161548395"><ele>145.66666666666666</ele><time>2026-05-04T13:19:31Z</time></trkpt><trkpt lat="44.92922800687813" lon="16.743932560329057"><ele>144.0</ele><time>2026-05-04T13:19:32Z</time></trkpt><trkpt lat="44.92930394237661" lon="16.74369261445318"><ele>143.66666666666666</ele><time>2026-05-04T13:19:33Z</time></trkpt><trkpt lat="44.92939800315224" lon="16.743475962466654"><ele>143.33333333333331</ele><time>2026-05-04T13:19:34Z</time></trkpt><trkpt lat="44.929508847408684" lon="16.743275543506748"><ele>143.0</ele><time>2026-05-04T13:19:35Z</time></trkpt><trkpt lat="44.92962973407232" lon="16.743086823262637"><ele>143.0</ele><time>2026-05-04T13:19:36Z</time></trkpt><trkpt lat="44.92975731971633" lon="16.742925658887764"><ele>143.0</ele><time>2026-05-04T13:19:37Z</time></trkpt><trkpt lat="44.92988883920639" lon="16.742786955761872"><ele>143.0</ele><time>2026-05-04T13:19:38Z</time></trkpt><trkpt lat="44.930031296169695" lon="16.742663787558318"><ele>144.0</ele><time>2026-05-04T13:19:39Z</time></trkpt><trkpt lat="44.93018117060547" lon="16.742562379866218"><ele>145.0</ele><time>2026-05-04T13:19:40Z</time></trkpt><trkpt lat="44.93033906404625" lon="16.74248342949977"><ele>146.0</ele><time>2026-05-04T13:19:41Z</time></trkpt><trkpt lat="44.93049986087311" lon="16.742415405849897"><ele>146.0</ele><time>2026-05-04T13:19:42Z</time></trkpt><trkpt lat="44.9308421849713" lon="16.74230275443872"><ele>146.0</ele><time>2026-05-04T13:19:44Z</time></trkpt><trkpt lat="44.93101926507186" lon="16.742246633654776"><ele>145.66666666666666</ele><time>2026-05-04T13:19:45Z</time></trkpt><trkpt lat="44.93120163110545" lon="16.742200221837226"><ele>145.33333333333334</ele><time>2026-05-04T13:19:46Z</time></trkpt><trkpt lat="44.93138948131229" lon="16.742149334604186"><ele>145.0</ele><time>2026-05-04T13:19:47Z</time></trkpt><trkpt lat="44.9315773384011" lon="16.742098176364273"><ele>145.33333333333334</ele><time>2026-05-04T13:19:48Z</time></trkpt><trkpt lat="44.9317674608714" lon="16.74204378820625"><ele>145.66666666666666</ele><time>2026-05-04T13:19:49Z</time></trkpt><trkpt lat="44.931960877462075" lon="16.74198154983812"><ele>146.0</ele><time>2026-05-04T13:19:50Z</time></trkpt><trkpt lat="44.93215542909115" lon="16.741917024524742"><ele>147.0</ele><time>2026-05-04T13:19:51Z</time></trkpt><trkpt lat="44.93234866327108" lon="16.74183880816613"><ele>148.0</ele><time>2026-05-04T13:19:52Z</time></trkpt><trkpt lat="44.932535978363404" lon="16.74174400890438"><ele>149.0</ele><time>2026-05-04T13:19:53Z</time></trkpt><trkpt lat="44.932716472324756" lon="16.74161663797871"><ele>149.0</ele><time>2026-05-04T13:19:54Z</time></trkpt><trkpt lat="44.93288895281241" lon="16.741464090573203"><ele>149.0</ele><time>2026-05-04T13:19:55Z</time></trkpt><trkpt lat="44.933050407936626" lon="16.74129899261529"><ele>149.0</ele><time>2026-05-04T13:19:56Z</time></trkpt><trkpt lat="44.93320622399206" lon="16.74112181007629"><ele>151.0</ele><time>2026-05-04T13:19:57Z</time></trkpt><trkpt lat="44.9333531823996" lon="16.74093512104251"><ele>153.0</ele><time>2026-05-04T13:19:58Z</time></trkpt><trkpt lat="44.933486777894885" lon="16.740734198573087"><ele>155.0</ele><time>2026-05-04T13:19:59Z</time></trkpt><trkpt lat="44.93360774364869" lon="16.74052132251352"><ele>155.0</ele><time>2026-05-04T13:20:00Z</time></trkpt><trkpt lat="44.93371186633275" lon="16.740299340566704"><ele>155.0</ele><time>2026-05-04T13:20:01Z</time></trkpt><trkpt lat="44.933812141103985" lon="16.74006227257116"><ele>155.0</ele><time>2026-05-04T13:20:02Z</time></trkpt><trkpt lat="44.93389878517963" lon="16.739821942221155"><ele>156.0</ele><time>2026-05-04T13:20:03Z</time></trkpt><trkpt lat="44.93398021853955" lon="16.739580949453515"><ele>157.0</ele><time>2026-05-04T13:20:04Z</time></trkpt><trkpt lat="44.93405351467019" lon="16.739334557027284"><ele>158.0</ele><time>2026-05-04T13:20:05Z</time></trkpt><trkpt lat="44.93411939978246" lon="16.739086723172445"><ele>158.0</ele><time>2026-05-04T13:20:06Z</time></trkpt><trkpt lat="44.93418394609636" lon="16.738842863938213"><ele>158.0</ele><time>2026-05-04T13:20:07Z</time></trkpt><trkpt lat="44.93424446332545" lon="16.738594648061447"><ele>158.0</ele><time>2026-05-04T13:20:08Z</time></trkpt><trkpt lat="44.93430597215237" lon="16.738347083322594"><ele>158.0</ele><time>2026-05-04T13:20:09Z</time></trkpt><trkpt lat="44.93436545498829" lon="16.738088644023744"><ele>158.0</ele><time>2026-05-04T13:20:10Z</time></trkpt><trkpt lat="44.934422215315145" lon="16.737823816864598"><ele>158.0</ele><time>2026-05-04T13:20:11Z</time></trkpt><trkpt lat="44.934477593312344" lon="16.737556271437533"><ele>156.66666666666666</ele><time>2026-05-04T13:20:12Z</time></trkpt><trkpt lat="44.9345324354749" lon="16.73728893357245"><ele>155.33333333333334</ele><time>2026-05-04T13:20:13Z</time></trkpt><trkpt lat="44.934584326941504" lon="16.73701073386541"><ele>154.0</ele><time>2026-05-04T13:20:14Z</time></trkpt><trkpt lat="44.93463410628152" lon="16.73672788041181"><ele>153.33333333333334</ele><time>2026-05-04T13:20:15Z</time></trkpt><trkpt lat="44.93468551851032" lon="16.73645814190231"><ele>152.66666666666666</ele><time>2026-05-04T13:20:16Z</time></trkpt><trkpt lat="44.934733652377126" lon="16.736180624013166"><ele>152.0</ele><time>2026-05-04T13:20:17Z</time></trkpt><trkpt lat="44.934780251367584" lon="16.735900247353197"><ele>151.33333333333331</ele><time>2026-05-04T13:20:18Z</time></trkpt><trkpt lat="44.93482229024118" lon="16.735621677514832"><ele>150.66666666666666</ele><time>2026-05-04T13:20:19Z</time></trkpt><trkpt lat="44.934860708065976" lon="16.735344872612753"><ele>150.0</ele><time>2026-05-04T13:20:20Z</time></trkpt><trkpt lat="44.934894862856694" lon="16.73506475373783"><ele>150.0</ele><time>2026-05-04T13:20:21Z</time></trkpt><trkpt lat="44.93492966599485" lon="16.7347873896413"><ele>150.0</ele><time>2026-05-04T13:20:22Z</time></trkpt><trkpt lat="44.93496355040144" lon="16.734509475324565"><ele>150.0</ele><time>2026-05-04T13:20:23Z</time></trkpt><trkpt lat="44.9349988168058" lon="16.734235492359147"><ele>150.0</ele><time>2026-05-04T13:20:24Z</time></trkpt><trkpt lat="44.935029685158405" lon="16.733953237690343"><ele>150.0</ele><time>2026-05-04T13:20:25Z</time></trkpt><trkpt lat="44.93506126710407" lon="16.733669579602108"><ele>150.0</ele><time>2026-05-04T13:20:26Z</time></trkpt><trkpt lat="44.93509527433094" lon="16.73338576407087"><ele>150.0</ele><time>2026-05-04T13:20:27Z</time></trkpt><trkpt lat="44.93513241908158" lon="16.73310184272487"><ele>150.0</ele><time>2026-05-04T13:20:28Z</time></trkpt><trkpt lat="44.93516875102816" lon="16.732813729152742"><ele>150.0</ele><time>2026-05-04T13:20:29Z</time></trkpt><trkpt lat="44.935211605398685" lon="16.732530102417982"><ele>150.0</ele><time>2026-05-04T13:20:30Z</time></trkpt><trkpt lat="44.93525945518932" lon="16.73224634822451"><ele>150.0</ele><time>2026-05-04T13:20:31Z</time></trkpt><trkpt lat="44.935311759944526" lon="16.73196282210106"><ele>150.0</ele><time>2026-05-04T13:20:32Z</time></trkpt><trkpt lat="44.93537223711974" lon="16.731690071904563"><ele>150.0</ele><time>2026-05-04T13:20:33Z</time></trkpt><trkpt lat="44.935442489285634" lon="16.731416105336713"><ele>150.0</ele><time>2026-05-04T13:20:34Z</time></trkpt><trkpt lat="44.93552350265852" lon="16.73114332569298"><ele>150.0</ele><time>2026-05-04T13:20:35Z</time></trkpt><trkpt lat="44.935614544284824" lon="16.730878655006492"><ele>150.0</ele><time>2026-05-04T13:20:36Z</time></trkpt><trkpt lat="44.93571379096271" lon="16.73061862901392"><ele>150.0</ele><time>2026-05-04T13:20:37Z</time></trkpt><trkpt lat="44.93581653113096" lon="16.730358581451178"><ele>150.0</ele><time>2026-05-04T13:20:38Z</time></trkpt><trkpt lat="44.935926248912565" lon="16.730102580481056"><ele>150.0</ele><time>2026-05-04T13:20:39Z</time></trkpt><trkpt lat="44.93604088522036" lon="16.729853832786187"><ele>150.0</ele><time>2026-05-04T13:20:40Z</time></trkpt><trkpt lat="44.93616182870373" lon="16.729615030741524"><ele>150.0</ele><time>2026-05-04T13:20:41Z</time></trkpt><trkpt lat="44.936288910078744" lon="16.729386259877057"><ele>150.0</ele><time>2026-05-04T13:20:42Z</time></trkpt><trkpt lat="44.93642265326802" lon="16.729170181310543"><ele>150.0</ele><time>2026-05-04T13:20:43Z</time></trkpt><trkpt lat="44.93655674692082" lon="16.728965154345527"><ele>150.0</ele><time>2026-05-04T13:20:44Z</time></trkpt><trkpt lat="44.93669678020804" lon="16.728761709329046"><ele>149.0</ele><time>2026-05-04T13:20:45Z</time></trkpt><trkpt lat="44.93684073842303" lon="16.728559026413222"><ele>148.0</ele><time>2026-05-04T13:20:46Z</time></trkpt><trkpt lat="44.93698342883213" lon="16.728363164538937"><ele>147.0</ele><time>2026-05-04T13:20:47Z</time></trkpt><trkpt lat="44.937126155600566" lon="16.728172206814936"><ele>147.0</ele><time>2026-05-04T13:20:48Z</time></trkpt><trkpt lat="44.93726694513173" lon="16.727974897173066"><ele>147.0</ele><time>2026-05-04T13:20:49Z</time></trkpt><trkpt lat="44.93740503184101" lon="16.72777465527375"><ele>147.0</ele><time>2026-05-04T13:20:50Z</time></trkpt><trkpt lat="44.937534099779825" lon="16.727570072295535"><ele>146.33333333333334</ele><time>2026-05-04T13:20:51Z</time></trkpt><trkpt lat="44.9376622727684" lon="16.727349003992792"><ele>145.66666666666669</ele><time>2026-05-04T13:20:52Z</time></trkpt><trkpt lat="44.9377823740362" lon="16.72712570629126"><ele>145.0</ele><time>2026-05-04T13:20:53Z</time></trkpt><trkpt lat="44.93789812921596" lon="16.726893061810443"><ele>145.0</ele><time>2026-05-04T13:20:54Z</time></trkpt><trkpt lat="44.938012318514545" lon="16.72665641825759"><ele>145.0</ele><time>2026-05-04T13:20:55Z</time></trkpt><trkpt lat="44.93812318990108" lon="16.72641867331693"><ele>145.0</ele><time>2026-05-04T13:20:56Z</time></trkpt><trkpt lat="44.93823150480597" lon="16.726184132829683"><ele>146.0</ele><time>2026-05-04T13:20:57Z</time></trkpt><trkpt lat="44.938336404641596" lon="16.725948123165303"><ele>147.0</ele><time>2026-05-04T13:20:58Z</time></trkpt><trkpt lat="44.93843935288887" lon="16.725712935750074"><ele>148.0</ele><time>2026-05-04T13:20:59Z</time></trkpt><trkpt lat="44.93853687907553" lon="16.725488828634106"><ele>146.33333333333334</ele><time>2026-05-04T13:21:00Z</time></trkpt><trkpt lat="44.93862921523721" lon="16.725274165345116"><ele>144.66666666666666</ele><time>2026-05-04T13:21:01Z</time></trkpt><trkpt lat="44.938718560574216" lon="16.725064091147754"><ele>143.0</ele><time>2026-05-04T13:21:02Z</time></trkpt><trkpt lat="44.93880840702839" lon="16.724851182101155"><ele>143.0</ele><time>2026-05-04T13:21:03Z</time></trkpt><trkpt lat="44.93889920312363" lon="16.724646354108327"><ele>143.0</ele><time>2026-05-04T13:21:04Z</time></trkpt><trkpt lat="44.938989539279966" lon="16.72444277463813"><ele>143.0</ele><time>2026-05-04T13:21:05Z</time></trkpt><trkpt lat="44.939073138657164" lon="16.724249751514634"><ele>143.25</ele><time>2026-05-04T13:21:06Z</time></trkpt><trkpt lat="44.939145146242474" lon="16.724103472075722"><ele>143.5</ele><time>2026-05-04T13:21:07Z</time></trkpt><trkpt lat="44.93921386704614" lon="16.723966651040342"><ele>143.75</ele><time>2026-05-04T13:21:08Z</time></trkpt><trkpt lat="44.93927589635248" lon="16.723820518561446"><ele>144.0</ele><time>2026-05-04T13:21:09Z</time></trkpt><trkpt lat="44.93932870087199" lon="16.723681808391806"><ele>143.5</ele><time>2026-05-04T13:21:10Z</time></trkpt><trkpt lat="44.93938632112205" lon="16.72353919418409"><ele>143.0</ele><time>2026-05-04T13:21:11Z</time></trkpt><trkpt lat="44.939446821760484" lon="16.723392803642877"><ele>142.5</ele><time>2026-05-04T13:21:12Z</time></trkpt><trkpt lat="44.93951292971094" lon="16.723244339735952"><ele>142.0</ele><time>2026-05-04T13:21:13Z</time></trkpt><trkpt lat="44.939580100340514" lon="16.723095399079828"><ele>142.0</ele><time>2026-05-04T13:21:14Z</time></trkpt><trkpt lat="44.939650023509" lon="16.72294927708901"><ele>142.0</ele><time>2026-05-04T13:21:15Z</time></trkpt><trkpt lat="44.93972096597437" lon="16.722800367184103"><ele>142.0</ele><time>2026-05-04T13:21:16Z</time></trkpt><trkpt lat="44.93978695781739" lon="16.722645968894124"><ele>142.0</ele><time>2026-05-04T13:21:17Z</time></trkpt><trkpt lat="44.93985191081713" lon="16.72250157329085"><ele>142.0</ele><time>2026-05-04T13:21:18Z</time></trkpt><trkpt lat="44.93991671055145" lon="16.72236415810728"><ele>142.0</ele><time>2026-05-04T13:21:19Z</time></trkpt><trkpt lat="44.93998294433651" lon="16.722234700118882"><ele>142.0</ele><time>2026-05-04T13:21:20Z</time></trkpt><trkpt lat="44.940049588878786" lon="16.722105919569564"><ele>142.0</ele><time>2026-05-04T13:21:21Z</time></trkpt><trkpt lat="44.940115495498276" lon="16.72198856812754"><ele>142.0</ele><time>2026-05-04T13:21:22Z</time></trkpt><trkpt lat="44.94018069450379" lon="16.721878093455725"><ele>141.2</ele><time>2026-05-04T13:21:23Z</time></trkpt><trkpt lat="44.940238298497235" lon="16.721774760792215"><ele>140.39999999999998</ele><time>2026-05-04T13:21:24Z</time></trkpt><trkpt lat="44.9403014105504" lon="16.721677676542516"><ele>139.60000000000002</ele><time>2026-05-04T13:21:25Z</time></trkpt><trkpt lat="44.9403678426196" lon="16.721583304178562"><ele>138.8</ele><time>2026-05-04T13:21:26Z</time></trkpt><trkpt lat="44.94042756411321" lon="16.721483169600038"><ele>138.0</ele><time>2026-05-04T13:21:27Z</time></trkpt><trkpt lat="44.94049039530726" lon="16.72137902212381"><ele>138.0</ele><time>2026-05-04T13:21:28Z</time></trkpt><trkpt lat="44.94055725635366" lon="16.721277838780907"><ele>138.0</ele><time>2026-05-04T13:21:29Z</time></trkpt><trkpt lat="44.94063082044939" lon="16.721178262747728"><ele>138.0</ele><time>2026-05-04T13:21:30Z</time></trkpt><trkpt lat="44.94070957188324" lon="16.7210752070576"><ele>138.0</ele><time>2026-05-04T13:21:31Z</time></trkpt><trkpt lat="44.940793217147636" lon="16.72097374192639"><ele>138.0</ele><time>2026-05-04T13:21:32Z</time></trkpt><trkpt lat="44.940877815205745" lon="16.720871350868084"><ele>138.5</ele><time>2026-05-04T13:21:33Z</time></trkpt><trkpt lat="44.94096526086925" lon="16.720766548893575"><ele>139.0</ele><time>2026-05-04T13:21:34Z</time></trkpt><trkpt lat="44.94105881254594" lon="16.72066150313237"><ele>139.5</ele><time>2026-05-04T13:21:35Z</time></trkpt><trkpt lat="44.94115412326712" lon="16.720556148429644"><ele>140.0</ele><time>2026-05-04T13:21:36Z</time></trkpt><trkpt lat="44.94126171119504" lon="16.720450360002843"><ele>140.0</ele><time>2026-05-04T13:21:37Z</time></trkpt><trkpt lat="44.94137419484531" lon="16.720340419296665"><ele>140.0</ele><time>2026-05-04T13:21:38Z</time></trkpt><trkpt lat="44.941497567148254" lon="16.72022731931459"><ele>140.0</ele><time>2026-05-04T13:21:39Z</time></trkpt><trkpt lat="44.94162864922068" lon="16.720121518752542"><ele>140.0</ele><time>2026-05-04T13:21:40Z</time></trkpt><trkpt lat="44.9417645151305" lon="16.7200069308091"><ele>138.66666666666666</ele><time>2026-05-04T13:21:41Z</time></trkpt><trkpt lat="44.94190827538628" lon="16.71989739752051"><ele>137.33333333333334</ele><time>2026-05-04T13:21:42Z</time></trkpt><trkpt lat="44.94206010251075" lon="16.71978914260206"><ele>136.0</ele><time>2026-05-04T13:21:43Z</time></trkpt><trkpt lat="44.94221883146934" lon="16.719676781589847"><ele>136.0</ele><time>2026-05-04T13:21:44Z</time></trkpt><trkpt lat="44.9423896603421" lon="16.719555822175582"><ele>136.0</ele><time>2026-05-04T13:21:45Z</time></trkpt><trkpt lat="44.942564138464995" lon="16.71942484564994"><ele>136.0</ele><time>2026-05-04T13:21:46Z</time></trkpt><trkpt lat="44.94273647248824" lon="16.71928669918525"><ele>135.66666666666669</ele><time>2026-05-04T13:21:47Z</time></trkpt><trkpt lat="44.94289679677064" lon="16.7191544508381"><ele>135.33333333333334</ele><time>2026-05-04T13:21:48Z</time></trkpt><trkpt lat="44.943042505394104" lon="16.71903093405302"><ele>135.0</ele><time>2026-05-04T13:21:49Z</time></trkpt><trkpt lat="44.9431840579277" lon="16.718905932761754"><ele>135.0</ele><time>2026-05-04T13:21:50Z</time></trkpt><trkpt lat="44.94331894623538" lon="16.718783746062"><ele>135.0</ele><time>2026-05-04T13:21:51Z</time></trkpt><trkpt lat="44.94344848671918" lon="16.718654558703168"><ele>135.0</ele><time>2026-05-04T13:21:52Z</time></trkpt><trkpt lat="44.94356786127493" lon="16.71851901414058"><ele>135.25</ele><time>2026-05-04T13:21:53Z</time></trkpt><trkpt lat="44.943676772536286" lon="16.718393710876118"><ele>135.5</ele><time>2026-05-04T13:21:54Z</time></trkpt><trkpt lat="44.94377624496377" lon="16.718291862211952"><ele>135.75</ele><time>2026-05-04T13:21:55Z</time></trkpt><trkpt lat="44.94386804367335" lon="16.71819635936983"><ele>136.0</ele><time>2026-05-04T13:21:56Z</time></trkpt><trkpt lat="44.94395837185831" lon="16.71810627806397"><ele>136.0</ele><time>2026-05-04T13:21:57Z</time></trkpt><trkpt lat="44.944044780988385" lon="16.718015967118138"><ele>136.0</ele><time>2026-05-04T13:21:58Z</time></trkpt><trkpt lat="44.94413286795416" lon="16.717925366508467"><ele>136.0</ele><time>2026-05-04T13:21:59Z</time></trkpt><trkpt lat="44.94422724334077" lon="16.71783498056366"><ele>136.0</ele><time>2026-05-04T13:22:00Z</time></trkpt><trkpt lat="44.94432432608793" lon="16.717744785166744"><ele>136.0</ele><time>2026-05-04T13:22:01Z</time></trkpt><trkpt lat="44.944427797288306" lon="16.717653325581384"><ele>136.25</ele><time>2026-05-04T13:22:02Z</time></trkpt><trkpt lat="44.944533412528564" lon="16.717564599855578"><ele>136.5</ele><time>2026-05-04T13:22:03Z</time></trkpt><trkpt lat="44.94463748951119" lon="16.7174809665276"><ele>136.75</ele><time>2026-05-04T13:22:04Z</time></trkpt><trkpt lat="44.944744037438674" lon="16.71739877553238"><ele>137.0</ele><time>2026-05-04T13:22:05Z</time></trkpt><trkpt lat="44.94485359844295" lon="16.71732271451346"><ele>137.0</ele><time>2026-05-04T13:22:06Z</time></trkpt><trkpt lat="44.94497052076906" lon="16.717249900170685"><ele>137.0</ele><time>2026-05-04T13:22:07Z</time></trkpt><trkpt lat="44.94509081973216" lon="16.717174094409163"><ele>137.0</ele><time>2026-05-04T13:22:08Z</time></trkpt><trkpt lat="44.945223024020514" lon="16.717106884300655"><ele>137.0</ele><time>2026-05-04T13:22:09Z</time></trkpt><trkpt lat="44.94535622929604" lon="16.71704312389342"><ele>137.0</ele><time>2026-05-04T13:22:10Z</time></trkpt><trkpt lat="44.945495576460814" lon="16.71698234602314"><ele>137.0</ele><time>2026-05-04T13:22:11Z</time></trkpt><trkpt lat="44.94563694586644" lon="16.716925861582908"><ele>137.0</ele><time>2026-05-04T13:22:12Z</time></trkpt><trkpt lat="44.945778879448916" lon="16.716880247057567"><ele>137.0</ele><time>2026-05-04T13:22:13Z</time></trkpt><trkpt lat="44.94591300727046" lon="16.716836800853585"><ele>137.0</ele><time>2026-05-04T13:22:14Z</time></trkpt><trkpt lat="44.94604068108631" lon="16.71679106291033"><ele>137.0</ele><time>2026-05-04T13:22:15Z</time></trkpt><trkpt lat="44.946166283855156" lon="16.716751695789544"><ele>137.0</ele><time>2026-05-04T13:22:16Z</time></trkpt><trkpt lat="44.94629606006445" lon="16.71670895718915"><ele>137.0</ele><time>2026-05-04T13:22:17Z</time></trkpt><trkpt lat="44.94642416121558" lon="16.716665592631397"><ele>137.0</ele><time>2026-05-04T13:22:18Z</time></trkpt><trkpt lat="44.94654949323933" lon="16.716621140625094"><ele>137.0</ele><time>2026-05-04T13:22:19Z</time></trkpt><trkpt lat="44.946678613055646" lon="16.716570279942"><ele>137.0</ele><time>2026-05-04T13:22:20Z</time></trkpt><trkpt lat="44.946811615299126" lon="16.716512938400097"><ele>137.0</ele><time>2026-05-04T13:22:21Z</time></trkpt><trkpt lat="44.94694942971278" lon="16.716449820881458"><ele>137.33333333333331</ele><time>2026-05-04T13:22:22Z</time></trkpt><trkpt lat="44.94709219641694" lon="16.71638417170738"><ele>137.66666666666666</ele><time>2026-05-04T13:22:23Z</time></trkpt><trkpt lat="44.94724182352131" lon="16.716314673429075"><ele>138.0</ele><time>2026-05-04T13:22:24Z</time></trkpt><trkpt lat="44.94739620240833" lon="16.716240383994354"><ele>137.33333333333334</ele><time>2026-05-04T13:22:25Z</time></trkpt><trkpt lat="44.94755043553457" lon="16.71616419853659"><ele>136.66666666666669</ele><time>2026-05-04T13:22:26Z</time></trkpt><trkpt lat="44.947693806139064" lon="16.716095443906944"><ele>136.0</ele><time>2026-05-04T13:22:27Z</time></trkpt><trkpt lat="44.9478340809541" lon="16.71601934334213"><ele>136.0</ele><time>2026-05-04T13:22:28Z</time></trkpt><trkpt lat="44.94797383616042" lon="16.71594026492644"><ele>136.0</ele><time>2026-05-04T13:22:29Z</time></trkpt><trkpt lat="44.948119550030526" lon="16.71585402827207"><ele>136.0</ele><time>2026-05-04T13:22:30Z</time></trkpt><trkpt lat="44.948266760919566" lon="16.71576726143003"><ele>136.33333333333334</ele><time>2026-05-04T13:22:31Z</time></trkpt><trkpt lat="44.948413170124624" lon="16.715678640184905"><ele>136.66666666666666</ele><time>2026-05-04T13:22:32Z</time></trkpt><trkpt lat="44.94855690080645" lon="16.715585741282613"><ele>137.0</ele><time>2026-05-04T13:22:33Z</time></trkpt><trkpt lat="44.94870414482924" lon="16.715490898055318"><ele>137.0</ele><time>2026-05-04T13:22:34Z</time></trkpt><trkpt lat="44.94885291840514" lon="16.71538972958248"><ele>137.0</ele><time>2026-05-04T13:22:35Z</time></trkpt><trkpt lat="44.94899965582954" lon="16.71528490389064"><ele>137.0</ele><time>2026-05-04T13:22:36Z</time></trkpt><trkpt lat="44.94914556382896" lon="16.715176820594333"><ele>136.33333333333331</ele><time>2026-05-04T13:22:37Z</time></trkpt><trkpt lat="44.949291727255975" lon="16.715061407169934"><ele>135.66666666666666</ele><time>2026-05-04T13:22:38Z</time></trkpt><trkpt lat="44.94944187266452" lon="16.714955560495298"><ele>135.0</ele><time>2026-05-04T13:22:39Z</time></trkpt><trkpt lat="44.94957816813241" lon="16.71482949931011"><ele>135.0</ele><time>2026-05-04T13:22:40Z</time></trkpt><trkpt lat="44.94970709539378" lon="16.714704398016053"><ele>135.0</ele><time>2026-05-04T13:22:41Z</time></trkpt><trkpt lat="44.9498302160511" lon="16.71457644966925"><ele>135.0</ele><time>2026-05-04T13:22:42Z</time></trkpt><trkpt lat="44.949954467341655" lon="16.714445186777112"><ele>134.66666666666666</ele><time>2026-05-04T13:22:43Z</time></trkpt><trkpt lat="44.95007755303548" lon="16.71431232564669"><ele>134.33333333333331</ele><time>2026-05-04T13:22:44Z</time></trkpt><trkpt lat="44.950197547525924" lon="16.71417378664656"><ele>134.0</ele><time>2026-05-04T13:22:45Z</time></trkpt><trkpt lat="44.950320904182384" lon="16.714042589411303"><ele>134.0</ele><time>2026-05-04T13:22:46Z</time></trkpt><trkpt lat="44.95045375348862" lon="16.713926357725384"><ele>134.0</ele><time>2026-05-04T13:22:47Z</time></trkpt><trkpt lat="44.95059140058865" lon="16.713818291061113"><ele>134.0</ele><time>2026-05-04T13:22:48Z</time></trkpt><trkpt lat="44.95073711172093" lon="16.713733901386313"><ele>134.0</ele><time>2026-05-04T13:22:49Z</time></trkpt><trkpt lat="44.9508846325917" lon="16.713653812229452"><ele>134.0</ele><time>2026-05-04T13:22:50Z</time></trkpt><trkpt lat="44.95103549143712" lon="16.713583721116287"><ele>134.0</ele><time>2026-05-04T13:22:51Z</time></trkpt><trkpt lat="44.95118776534831" lon="16.713518561203294"><ele>134.33333333333331</ele><time>2026-05-04T13:22:52Z</time></trkpt><trkpt lat="44.951341733857106" lon="16.713464496075684"><ele>134.66666666666666</ele><time>2026-05-04T13:22:53Z</time></trkpt><trkpt lat="44.9514862330682" lon="16.713420152343048"><ele>135.0</ele><time>2026-05-04T13:22:54Z</time></trkpt><trkpt lat="44.95162813126952" lon="16.7133810737761"><ele>135.25</ele><time>2026-05-04T13:22:55Z</time></trkpt><trkpt lat="44.95176591318034" lon="16.713345629517338"><ele>135.5</ele><time>2026-05-04T13:22:56Z</time></trkpt><trkpt lat="44.95190478362914" lon="16.713308229465806"><ele>135.75</ele><time>2026-05-04T13:22:57Z</time></trkpt><trkpt lat="44.952045262925935" lon="16.713268350121236"><ele>136.0</ele><time>2026-05-04T13:22:58Z</time></trkpt><trkpt lat="44.95218693824955" lon="16.713229030290496"><ele>136.0</ele><time>2026-05-04T13:22:59Z</time></trkpt><trkpt lat="44.95232750967515" lon="16.713192937909913"><ele>136.0</ele><time>2026-05-04T13:23:00Z</time></trkpt><trkpt lat="44.95246447778526" lon="16.713159927214743"><ele>136.0</ele><time>2026-05-04T13:23:01Z</time></trkpt><trkpt lat="44.95260066499191" lon="16.71312874796938"><ele>136.0</ele><time>2026-05-04T13:23:02Z</time></trkpt><trkpt lat="44.95273248560457" lon="16.713098944430993"><ele>135.75</ele><time>2026-05-04T13:23:03Z</time></trkpt><trkpt lat="44.95285656356095" lon="16.713067491793613"><ele>135.5</ele><time>2026-05-04T13:23:04Z</time></trkpt><trkpt lat="44.95297534907968" lon="16.713036584243255"><ele>135.25</ele><time>2026-05-04T13:23:05Z</time></trkpt><trkpt lat="44.95308904313198" lon="16.7130083252919"><ele>135.0</ele><time>2026-05-04T13:23:06Z</time></trkpt><trkpt lat="44.953210525482" lon="16.71297607684874"><ele>135.0</ele><time>2026-05-04T13:23:07Z</time></trkpt><trkpt lat="44.95334014374878" lon="16.712942177626076"><ele>135.0</ele><time>2026-05-04T13:23:08Z</time></trkpt><trkpt lat="44.95347340323867" lon="16.712909344977174"><ele>135.0</ele><time>2026-05-04T13:23:09Z</time></trkpt><trkpt lat="44.95360740908677" lon="16.712875071276112"><ele>135.0</ele><time>2026-05-04T13:23:10Z</time></trkpt><trkpt lat="44.95374893137546" lon="16.712835268143316"><ele>134.75</ele><time>2026-05-04T13:23:11Z</time></trkpt><trkpt lat="44.95389116784162" lon="16.71280023912366"><ele>134.5</ele><time>2026-05-04T13:23:12Z</time></trkpt><trkpt lat="44.95403686669057" lon="16.71276366455189"><ele>134.25</ele><time>2026-05-04T13:23:13Z</time></trkpt><trkpt lat="44.95418418060223" lon="16.712724832342623"><ele>134.0</ele><time>2026-05-04T13:23:14Z</time></trkpt><trkpt lat="44.954333047224154" lon="16.712684691061114"><ele>134.66666666666666</ele><time>2026-05-04T13:23:15Z</time></trkpt><trkpt lat="44.9544802661258" lon="16.712646665768617"><ele>135.33333333333334</ele><time>2026-05-04T13:23:16Z</time></trkpt><trkpt lat="44.9546321433402" lon="16.71260753062932"><ele>136.0</ele><time>2026-05-04T13:23:17Z</time></trkpt><trkpt lat="44.95477582046968" lon="16.71256999315185"><ele>136.0</ele><time>2026-05-04T13:23:18Z</time></trkpt><trkpt lat="44.95492075216237" lon="16.712531283123436"><ele>136.0</ele><time>2026-05-04T13:23:19Z</time></trkpt><trkpt lat="44.9550553782918" lon="16.712495317019513"><ele>136.0</ele><time>2026-05-04T13:23:20Z</time></trkpt><trkpt lat="44.955184340263436" lon="16.71245972794654"><ele>136.0</ele><time>2026-05-04T13:23:21Z</time></trkpt><trkpt lat="44.95530563418436" lon="16.71242566219534"><ele>135.6</ele><time>2026-05-04T13:23:22Z</time></trkpt><trkpt lat="44.95541635579257" lon="16.712395835169477"><ele>135.2</ele><time>2026-05-04T13:23:23Z</time></trkpt><trkpt lat="44.95552299229855" lon="16.712366284531605"><ele>134.8</ele><time>2026-05-04T13:23:24Z</time></trkpt><trkpt lat="44.95562702596662" lon="16.712339612885923"><ele>134.4</ele><time>2026-05-04T13:23:25Z</time></trkpt><trkpt lat="44.955736356024126" lon="16.712312908135555"><ele>134.0</ele><time>2026-05-04T13:23:26Z</time></trkpt><trkpt lat="44.95584605495957" lon="16.71228336105261"><ele>134.2</ele><time>2026-05-04T13:23:27Z</time></trkpt><trkpt lat="44.95595860853535" lon="16.71225334770816"><ele>134.4</ele><time>2026-05-04T13:23:28Z</time></trkpt><trkpt lat="44.9560688188366" lon="16.712221926008972"><ele>134.6</ele><time>2026-05-04T13:23:29Z</time></trkpt><trkpt lat="44.956168330408545" lon="16.712197627722386"><ele>134.8</ele><time>2026-05-04T13:23:30Z</time></trkpt><trkpt lat="44.95626009133756" lon="16.71217362427629"><ele>135.0</ele><time>2026-05-04T13:23:31Z</time></trkpt><trkpt lat="44.956351653799416" lon="16.712150569777624"><ele>135.0</ele><time>2026-05-04T13:23:32Z</time></trkpt><trkpt lat="44.95644425929809" lon="16.7121265724651"><ele>135.0</ele><time>2026-05-04T13:23:33Z</time></trkpt><trkpt lat="44.956541562912584" lon="16.712099427495108"><ele>135.0</ele><time>2026-05-04T13:23:34Z</time></trkpt><trkpt lat="44.95664464605525" lon="16.7120741433691"><ele>135.0</ele><time>2026-05-04T13:23:35Z</time></trkpt><trkpt lat="44.95674507873931" lon="16.712048455119703"><ele>135.0</ele><time>2026-05-04T13:23:36Z</time></trkpt><trkpt lat="44.956846489737146" lon="16.7120230179982"><ele>134.8</ele><time>2026-05-04T13:23:37Z</time></trkpt><trkpt lat="44.95695090810211" lon="16.711996001262"><ele>134.6</ele><time>2026-05-04T13:23:38Z</time></trkpt><trkpt lat="44.957056815013416" lon="16.711967883119407"><ele>134.4</ele><time>2026-05-04T13:23:39Z</time></trkpt><trkpt lat="44.95716503231214" lon="16.711938842088383"><ele>134.2</ele><time>2026-05-04T13:23:40Z</time></trkpt><trkpt lat="44.95727706393559" lon="16.711909007697926"><ele>134.0</ele><time>2026-05-04T13:23:41Z</time></trkpt><trkpt lat="44.95738773485163" lon="16.71187390736768"><ele>134.0</ele><time>2026-05-04T13:23:42Z</time></trkpt><trkpt lat="44.957500815978385" lon="16.711836498278625"><ele>134.0</ele><time>2026-05-04T13:23:43Z</time></trkpt><trkpt lat="44.957613618542936" lon="16.711800034464886"><ele>134.0</ele><time>2026-05-04T13:23:44Z</time></trkpt><trkpt lat="44.95772816358774" lon="16.711760442623838"><ele>134.0</ele><time>2026-05-04T13:23:45Z</time></trkpt><trkpt lat="44.95784477577406" lon="16.71171845728652"><ele>134.0</ele><time>2026-05-04T13:23:46Z</time></trkpt><trkpt lat="44.95796375982128" lon="16.711668837948984"><ele>134.0</ele><time>2026-05-04T13:23:47Z</time></trkpt><trkpt lat="44.95808798294133" lon="16.71161436459254"><ele>134.0</ele><time>2026-05-04T13:23:48Z</time></trkpt><trkpt lat="44.958206858909634" lon="16.711553245506686"><ele>134.0</ele><time>2026-05-04T13:23:49Z</time></trkpt><trkpt lat="44.95832304821426" lon="16.711491393875665"><ele>133.0</ele><time>2026-05-04T13:23:50Z</time></trkpt><trkpt lat="44.958442603775524" lon="16.711415796971185"><ele>132.0</ele><time>2026-05-04T13:23:51Z</time></trkpt><trkpt lat="44.95856732562227" lon="16.711329061324275"><ele>131.0</ele><time>2026-05-04T13:23:52Z</time></trkpt><trkpt lat="44.95870011755234" lon="16.711236986907817"><ele>130.0</ele><time>2026-05-04T13:23:53Z</time></trkpt><trkpt lat="44.95882903189955" lon="16.711139161576785"><ele>130.0</ele><time>2026-05-04T13:23:54Z</time></trkpt><trkpt lat="44.95895322628027" lon="16.71104203307025"><ele>130.0</ele><time>2026-05-04T13:23:55Z</time></trkpt><trkpt lat="44.95907154759483" lon="16.710941319804412"><ele>130.0</ele><time>2026-05-04T13:23:56Z</time></trkpt><trkpt lat="44.959182786808306" lon="16.710841696170476"><ele>130.0</ele><time>2026-05-04T13:23:57Z</time></trkpt><trkpt lat="44.959290226975185" lon="16.710745477788823"><ele>130.0</ele><time>2026-05-04T13:23:58Z</time></trkpt><trkpt lat="44.95939826911417" lon="16.71065011745065"><ele>130.0</ele><time>2026-05-04T13:23:59Z</time></trkpt><trkpt lat="44.95950858815105" lon="16.710549669353046"><ele>130.0</ele><time>2026-05-04T13:24:00Z</time></trkpt><trkpt lat="44.95961854959705" lon="16.71044733278323"><ele>130.0</ele><time>2026-05-04T13:24:01Z</time></trkpt><trkpt lat="44.95972841200416" lon="16.710343461714615"><ele>130.25</ele><time>2026-05-04T13:24:02Z</time></trkpt><trkpt lat="44.959837658174266" lon="16.710240252158552"><ele>130.5</ele><time>2026-05-04T13:24:03Z</time></trkpt><trkpt lat="44.95995451856425" lon="16.71013628725286"><ele>130.75</ele><time>2026-05-04T13:24:04Z</time></trkpt><trkpt lat="44.960076284958724" lon="16.71003196649699"><ele>131.0</ele><time>2026-05-04T13:24:05Z</time></trkpt><trkpt lat="44.9601967367363" lon="16.709928899623318"><ele>131.0</ele><time>2026-05-04T13:24:06Z</time></trkpt><trkpt lat="44.960317930834385" lon="16.70981978125817"><ele>131.0</ele><time>2026-05-04T13:24:07Z</time></trkpt><trkpt lat="44.96043654950816" lon="16.70970604608483"><ele>131.0</ele><time>2026-05-04T13:24:08Z</time></trkpt><trkpt lat="44.96055879505546" lon="16.709591129903973"><ele>131.0</ele><time>2026-05-04T13:24:09Z</time></trkpt><trkpt lat="44.96068281058343" lon="16.709481839065376"><ele>130.66666666666666</ele><time>2026-05-04T13:24:10Z</time></trkpt><trkpt lat="44.96080971406588" lon="16.709371900174265"><ele>130.33333333333334</ele><time>2026-05-04T13:24:11Z</time></trkpt><trkpt lat="44.960940662698775" lon="16.709254069353925"><ele>130.0</ele><time>2026-05-04T13:24:12Z</time></trkpt><trkpt lat="44.9610751380795" lon="16.709133206931998"><ele>131.0</ele><time>2026-05-04T13:24:13Z</time></trkpt><trkpt lat="44.96121456830201" lon="16.709007725436166"><ele>132.0</ele><time>2026-05-04T13:24:14Z</time></trkpt><trkpt lat="44.961359978288606" lon="16.70887656392302"><ele>133.0</ele><time>2026-05-04T13:24:15Z</time></trkpt><trkpt lat="44.96150793026925" lon="16.708744598372167"><ele>133.0</ele><time>2026-05-04T13:24:16Z</time></trkpt><trkpt lat="44.96166128182815" lon="16.70860845471454"><ele>133.0</ele><time>2026-05-04T13:24:17Z</time></trkpt><trkpt lat="44.96182195059577" lon="16.70846868897725"><ele>133.0</ele><time>2026-05-04T13:24:18Z</time></trkpt><trkpt lat="44.96198674282117" lon="16.708343412160836"><ele>132.0</ele><time>2026-05-04T13:24:19Z</time></trkpt><trkpt lat="44.96215678062885" lon="16.708237279467294"><ele>131.0</ele><time>2026-05-04T13:24:20Z</time></trkpt><trkpt lat="44.9623319654971" lon="16.708166888863943"><ele>130.0</ele><time>2026-05-04T13:24:21Z</time></trkpt><trkpt lat="44.96250182822405" lon="16.708132722363228"><ele>130.66666666666669</ele><time>2026-05-04T13:24:22Z</time></trkpt><trkpt lat="44.96266663133221" lon="16.708123574842052"><ele>131.33333333333334</ele><time>2026-05-04T13:24:23Z</time></trkpt><trkpt lat="44.962818369256034" lon="16.708124847905516"><ele>132.0</ele><time>2026-05-04T13:24:24Z</time></trkpt><trkpt lat="44.96295748723581" lon="16.70813044980671"><ele>132.0</ele><time>2026-05-04T13:24:25Z</time></trkpt><trkpt lat="44.96308432743381" lon="16.708134795404995"><ele>132.0</ele><time>2026-05-04T13:24:26Z</time></trkpt><trkpt lat="44.96319052885019" lon="16.708142386361096"><ele>132.0</ele><time>2026-05-04T13:24:27Z</time></trkpt><trkpt lat="44.963281374509116" lon="16.708146356371483"><ele>132.0</ele><time>2026-05-04T13:24:28Z</time></trkpt><trkpt lat="44.96334964440281" lon="16.70815088209741"><ele>132.0</ele><time>2026-05-04T13:24:29Z</time></trkpt><trkpt lat="44.96344209843814" lon="16.708155112703338"><ele>131.83333333333334</ele><time>2026-05-04T13:24:31Z</time></trkpt><trkpt lat="44.963519936822294" lon="16.708155201040626"><ele>131.66666666666666</ele><time>2026-05-04T13:24:33Z</time></trkpt><trkpt lat="44.96360494318684" lon="16.70815849679915"><ele>131.5</ele><time>2026-05-04T13:24:35Z</time></trkpt><trkpt lat="44.96372253163994" lon="16.708149206397756"><ele>131.33333333333331</ele><time>2026-05-04T13:24:37Z</time></trkpt><trkpt lat="44.96379038525963" lon="16.70815295898934"><ele>131.16666666666666</ele><time>2026-05-04T13:24:38Z</time></trkpt><trkpt lat="44.96386027948751" lon="16.70815804978354"><ele>131.0</ele><time>2026-05-04T13:24:39Z</time></trkpt><trkpt lat="44.96392476796246" lon="16.708164658933306"><ele>131.0</ele><time>2026-05-04T13:24:40Z</time></trkpt><trkpt lat="44.96398811451755" lon="16.708168101601384"><ele>131.0</ele><time>2026-05-04T13:24:41Z</time></trkpt><trkpt lat="44.9640760854105" lon="16.708176045910143"><ele>131.0</ele><time>2026-05-04T13:24:43Z</time></trkpt><trkpt lat="44.96416343760318" lon="16.708173105751825"><ele>131.0</ele><time>2026-05-04T13:24:45Z</time></trkpt><trkpt lat="44.964255692412905" lon="16.708173501636235"><ele>131.0</ele><time>2026-05-04T13:24:47Z</time></trkpt><trkpt lat="44.96435480475727" lon="16.708176991945752"><ele>131.0</ele><time>2026-05-04T13:24:49Z</time></trkpt><trkpt lat="44.9644703129804" lon="16.708184058228095"><ele>131.33333333333331</ele><time>2026-05-04T13:24:51Z</time></trkpt><trkpt lat="44.964535750945366" lon="16.708184443012332"><ele>131.66666666666666</ele><time>2026-05-04T13:24:52Z</time></trkpt><trkpt lat="44.964605692510546" lon="16.70817959238088"><ele>132.0</ele><time>2026-05-04T13:24:53Z</time></trkpt><trkpt lat="44.964684339559945" lon="16.708181340298392"><ele>132.33333333333334</ele><time>2026-05-04T13:24:54Z</time></trkpt><trkpt lat="44.96476897896146" lon="16.70818449395546"><ele>132.66666666666669</ele><time>2026-05-04T13:24:55Z</time></trkpt><trkpt lat="44.96485209785224" lon="16.708192536363622"><ele>133.0</ele><time>2026-05-04T13:24:56Z</time></trkpt><trkpt lat="44.96493178389058" lon="16.70820417506077"><ele>133.0</ele><time>2026-05-04T13:24:57Z</time></trkpt><trkpt lat="44.96502221119536" lon="16.708218085551525"><ele>133.0</ele><time>2026-05-04T13:24:58Z</time></trkpt><trkpt lat="44.96511750202457" lon="16.70823590755178"><ele>133.0</ele><time>2026-05-04T13:24:59Z</time></trkpt><trkpt lat="44.96521486423998" lon="16.708252151559563"><ele>133.0</ele><time>2026-05-04T13:25:00Z</time></trkpt><trkpt lat="44.96531084764388" lon="16.708270010942435"><ele>133.0</ele><time>2026-05-04T13:25:01Z</time></trkpt><trkpt lat="44.96539975974341" lon="16.70828923262516"><ele>132.83333333333334</ele><time>2026-05-04T13:25:02Z</time></trkpt><trkpt lat="44.96548448427337" lon="16.708306602372964"><ele>132.66666666666669</ele><time>2026-05-04T13:25:03Z</time></trkpt><trkpt lat="44.96556495155011" lon="16.708326592902285"><ele>132.5</ele><time>2026-05-04T13:25:04Z</time></trkpt><trkpt lat="44.96565162179538" lon="16.708348220510636"><ele>132.33333333333334</ele><time>2026-05-04T13:25:05Z</time></trkpt><trkpt lat="44.96574127911659" lon="16.70836621071993"><ele>132.16666666666666</ele><time>2026-05-04T13:25:06Z</time></trkpt><trkpt lat="44.965825397767276" lon="16.708382474203496"><ele>132.0</ele><time>2026-05-04T13:25:07Z</time></trkpt><trkpt lat="44.965895833722534" lon="16.70840184328165"><ele>132.0</ele><time>2026-05-04T13:25:08Z</time></trkpt><trkpt lat="44.96598723291884" lon="16.708418708617668"><ele>132.0</ele><time>2026-05-04T13:25:09Z</time></trkpt><trkpt lat="44.966080533748226" lon="16.708440429854818"><ele>132.0</ele><time>2026-05-04T13:25:10Z</time></trkpt><trkpt lat="44.966168996626465" lon="16.708463937881632"><ele>132.0</ele><time>2026-05-04T13:25:11Z</time></trkpt><trkpt lat="44.96626016740189" lon="16.708483098959466"><ele>132.0</ele><time>2026-05-04T13:25:12Z</time></trkpt><trkpt lat="44.96635210985546" lon="16.70850744617956"><ele>132.0</ele><time>2026-05-04T13:25:13Z</time></trkpt><trkpt lat="44.96644542670319" lon="16.708529224538463"><ele>132.0</ele><time>2026-05-04T13:25:14Z</time></trkpt><trkpt lat="44.966547293062504" lon="16.708551982395495"><ele>132.0</ele><time>2026-05-04T13:25:15Z</time></trkpt><trkpt lat="44.96665409815677" lon="16.70857493429584"><ele>132.0</ele><time>2026-05-04T13:25:16Z</time></trkpt><trkpt lat="44.966763172967596" lon="16.70859546262399"><ele>132.0</ele><time>2026-05-04T13:25:17Z</time></trkpt><trkpt lat="44.96687061931624" lon="16.70862064114424"><ele>131.6</ele><time>2026-05-04T13:25:18Z</time></trkpt><trkpt lat="44.96697197579452" lon="16.708647221168437"><ele>131.2</ele><time>2026-05-04T13:25:19Z</time></trkpt><trkpt lat="44.967065549626604" lon="16.708668344459998"><ele>130.8</ele><time>2026-05-04T13:25:20Z</time></trkpt><trkpt lat="44.967156608605016" lon="16.70868795928145"><ele>130.4</ele><time>2026-05-04T13:25:21Z</time></trkpt><trkpt lat="44.96724443524434" lon="16.708702241033755"><ele>130.0</ele><time>2026-05-04T13:25:22Z</time></trkpt><trkpt lat="44.96733658274993" lon="16.70872030180856"><ele>130.0</ele><time>2026-05-04T13:25:23Z</time></trkpt><trkpt lat="44.9674246172106" lon="16.70873899408984"><ele>130.0</ele><time>2026-05-04T13:25:24Z</time></trkpt><trkpt lat="44.967503340150905" lon="16.708757272443457"><ele>130.0</ele><time>2026-05-04T13:25:25Z</time></trkpt><trkpt lat="44.967574071431635" lon="16.708767298604545"><ele>130.0</ele><time>2026-05-04T13:25:26Z</time></trkpt><trkpt lat="44.96764037045688" lon="16.708778967572773"><ele>130.0</ele><time>2026-05-04T13:25:27Z</time></trkpt><trkpt lat="44.96770910333076" lon="16.70878917445741"><ele>130.0</ele><time>2026-05-04T13:25:28Z</time></trkpt><trkpt lat="44.96779095574458" lon="16.70880540770799"><ele>130.0</ele><time>2026-05-04T13:25:29Z</time></trkpt><trkpt lat="44.967873288082586" lon="16.70882697829584"><ele>130.0</ele><time>2026-05-04T13:25:30Z</time></trkpt><trkpt lat="44.96795497068069" lon="16.708858304084554"><ele>130.0</ele><time>2026-05-04T13:25:31Z</time></trkpt><trkpt lat="44.968044054789196" lon="16.70888233485961"><ele>130.0</ele><time>2026-05-04T13:25:32Z</time></trkpt><trkpt lat="44.968132525464256" lon="16.708910283917895"><ele>130.0</ele><time>2026-05-04T13:25:33Z</time></trkpt><trkpt lat="44.96821459140421" lon="16.708943756772566"><ele>130.0</ele><time>2026-05-04T13:25:34Z</time></trkpt><trkpt lat="44.96829260601928" lon="16.70898047514837"><ele>130.16666666666669</ele><time>2026-05-04T13:25:35Z</time></trkpt><trkpt lat="44.968368590559116" lon="16.709016784394024"><ele>130.33333333333334</ele><time>2026-05-04T13:25:36Z</time></trkpt><trkpt lat="44.96844872391456" lon="16.709052566431463"><ele>130.5</ele><time>2026-05-04T13:25:37Z</time></trkpt><trkpt lat="44.96853078716013" lon="16.70909548293415"><ele>130.66666666666666</ele><time>2026-05-04T13:25:38Z</time></trkpt><trkpt lat="44.96861492019278" lon="16.70913403247934"><ele>130.83333333333331</ele><time>2026-05-04T13:25:39Z</time></trkpt><trkpt lat="44.9687076246209" lon="16.70917019137583"><ele>131.0</ele><time>2026-05-04T13:25:40Z</time></trkpt><trkpt lat="44.96880673817796" lon="16.70920854223276"><ele>131.0</ele><time>2026-05-04T13:25:41Z</time></trkpt><trkpt lat="44.96890826827812" lon="16.70924583178387"><ele>131.0</ele><time>2026-05-04T13:25:42Z</time></trkpt><trkpt lat="44.9690151387535" lon="16.709277736187286"><ele>131.0</ele><time>2026-05-04T13:25:43Z</time></trkpt><trkpt lat="44.96911632772758" lon="16.709300786842856"><ele>131.0</ele><time>2026-05-04T13:25:44Z</time></trkpt><trkpt lat="44.96922069811463" lon="16.709315347135853"><ele>131.0</ele><time>2026-05-04T13:25:45Z</time></trkpt><trkpt lat="44.969323007135685" lon="16.70932744785965"><ele>131.2</ele><time>2026-05-04T13:25:46Z</time></trkpt><trkpt lat="44.96942581410052" lon="16.709330622075832"><ele>131.39999999999998</ele><time>2026-05-04T13:25:47Z</time></trkpt><trkpt lat="44.96953328519192" lon="16.70932882102227"><ele>131.6</ele><time>2026-05-04T13:25:48Z</time></trkpt><trkpt lat="44.9696490045059" lon="16.70932676306367"><ele>131.79999999999998</ele><time>2026-05-04T13:25:49Z</time></trkpt><trkpt lat="44.96976538815079" lon="16.709327934115493"><ele>132.0</ele><time>2026-05-04T13:25:50Z</time></trkpt><trkpt lat="44.96987211460265" lon="16.7093307960704"><ele>132.0</ele><time>2026-05-04T13:25:51Z</time></trkpt><trkpt lat="44.96997163174781" lon="16.709332775219305"><ele>132.0</ele><time>2026-05-04T13:25:52Z</time></trkpt><trkpt lat="44.97006358422884" lon="16.709336005342177"><ele>132.0</ele><time>2026-05-04T13:25:53Z</time></trkpt><trkpt lat="44.97014939552354" lon="16.709342548401022"><ele>132.0</ele><time>2026-05-04T13:25:54Z</time></trkpt><trkpt lat="44.9702267092596" lon="16.709346876246318"><ele>132.0</ele><time>2026-05-04T13:25:55Z</time></trkpt><trkpt lat="44.970298189558825" lon="16.70934325428348"><ele>132.0</ele><time>2026-05-04T13:25:56Z</time></trkpt><trkpt lat="44.970364840750925" lon="16.709343514130133"><ele>131.83333333333334</ele><time>2026-05-04T13:25:57Z</time></trkpt><trkpt lat="44.97044462299964" lon="16.709339256806363"><ele>131.66666666666666</ele><time>2026-05-04T13:25:58Z</time></trkpt><trkpt lat="44.970526284196424" lon="16.709334885390586"><ele>131.5</ele><time>2026-05-04T13:25:59Z</time></trkpt><trkpt lat="44.97060507297004" lon="16.709323746629657"><ele>131.33333333333331</ele><time>2026-05-04T13:26:00Z</time></trkpt><trkpt lat="44.97068833057618" lon="16.709302936302613"><ele>131.16666666666666</ele><time>2026-05-04T13:26:01Z</time></trkpt><trkpt lat="44.970769982460155" lon="16.709276249478343"><ele>131.0</ele><time>2026-05-04T13:26:02Z</time></trkpt><trkpt lat="44.97085130574883" lon="16.70925326772243"><ele>131.2</ele><time>2026-05-04T13:26:03Z</time></trkpt><trkpt lat="44.970938138134564" lon="16.709221654699974"><ele>131.39999999999998</ele><time>2026-05-04T13:26:04Z</time></trkpt><trkpt lat="44.97103004592248" lon="16.70918265549543"><ele>131.6</ele><time>2026-05-04T13:26:05Z</time></trkpt><trkpt lat="44.971122770644776" lon="16.709146220393574"><ele>131.79999999999998</ele><time>2026-05-04T13:26:06Z</time></trkpt><trkpt lat="44.97121348360846" lon="16.709116730349372"><ele>132.0</ele><time>2026-05-04T13:26:07Z</time></trkpt><trkpt lat="44.97129941305098" lon="16.70908521718866"><ele>132.0</ele><time>2026-05-04T13:26:08Z</time></trkpt><trkpt lat="44.97137647339355" lon="16.7090621944091"><ele>132.0</ele><time>2026-05-04T13:26:09Z</time></trkpt><trkpt lat="44.97144856298552" lon="16.709043524305184"><ele>132.0</ele><time>2026-05-04T13:26:10Z</time></trkpt><trkpt lat="44.971515000105555" lon="16.70902012021558"><ele>132.0</ele><time>2026-05-04T13:26:11Z</time></trkpt><trkpt lat="44.97157879843309" lon="16.70898883790417"><ele>132.0</ele><time>2026-05-04T13:26:12Z</time></trkpt><trkpt lat="44.97164696767721" lon="16.708952793051587"><ele>132.0</ele><time>2026-05-04T13:26:13Z</time></trkpt><trkpt lat="44.971718728368835" lon="16.708916183818605"><ele>132.0</ele><time>2026-05-04T13:26:14Z</time></trkpt><trkpt lat="44.97179051903902" lon="16.70887347662416"><ele>132.42857142857142</ele><time>2026-05-04T13:26:15Z</time></trkpt><trkpt lat="44.97185878829802" lon="16.70882889113461"><ele>132.85714285714286</ele><time>2026-05-04T13:26:16Z</time></trkpt><trkpt lat="44.971926346257185" lon="16.708783985999784"><ele>133.28571428571428</ele><time>2026-05-04T13:26:17Z</time></trkpt><trkpt lat="44.971982497379905" lon="16.708736466081337"><ele>133.71428571428572</ele><time>2026-05-04T13:26:18Z</time></trkpt><trkpt lat="44.972036380572845" lon="16.708688119621975"><ele>134.14285714285714</ele><time>2026-05-04T13:26:19Z</time></trkpt><trkpt lat="44.972099151863645" lon="16.708638853687813"><ele>134.57142857142856</ele><time>2026-05-04T13:26:20Z</time></trkpt><trkpt lat="44.9721610427524" lon="16.708590011605466"><ele>135.0</ele><time>2026-05-04T13:26:21Z</time></trkpt><trkpt lat="44.972224123160125" lon="16.70854457091031"><ele>135.0</ele><time>2026-05-04T13:26:22Z</time></trkpt><trkpt lat="44.97228990991077" lon="16.708482810756493"><ele>135.0</ele><time>2026-05-04T13:26:23Z</time></trkpt><trkpt lat="44.9723914082526" lon="16.708392641998962"><ele>135.0</ele><time>2026-05-04T13:26:25Z</time></trkpt><trkpt lat="44.97244939264626" lon="16.708335777018874"><ele>135.0</ele><time>2026-05-04T13:26:26Z</time></trkpt><trkpt lat="44.972511660310154" lon="16.708273850778152"><ele>135.0</ele><time>2026-05-04T13:26:27Z</time></trkpt><trkpt lat="44.97258420608262" lon="16.708208964198327"><ele>135.0</ele><time>2026-05-04T13:26:28Z</time></trkpt><trkpt lat="44.972662835504615" lon="16.708134700441413"><ele>134.83333333333334</ele><time>2026-05-04T13:26:29Z</time></trkpt><trkpt lat="44.972739250026216" lon="16.708061840421927"><ele>134.66666666666666</ele><time>2026-05-04T13:26:30Z</time></trkpt><trkpt lat="44.97281108413262" lon="16.707992502335227"><ele>134.5</ele><time>2026-05-04T13:26:31Z</time></trkpt><trkpt lat="44.97287288835128" lon="16.707931677818706"><ele>134.33333333333331</ele><time>2026-05-04T13:26:32Z</time></trkpt><trkpt lat="44.97293177997585" lon="16.707870712607487"><ele>134.16666666666666</ele><time>2026-05-04T13:26:33Z</time></trkpt><trkpt lat="44.972987918124254" lon="16.70782070443433"><ele>134.0</ele><time>2026-05-04T13:26:34Z</time></trkpt><trkpt lat="44.97304311388713" lon="16.707772338205945"><ele>133.8</ele><time>2026-05-04T13:26:35Z</time></trkpt><trkpt lat="44.973097971942295" lon="16.707716703259365"><ele>133.60000000000002</ele><time>2026-05-04T13:26:36Z</time></trkpt><trkpt lat="44.97319762199998" lon="16.707621858989334"><ele>133.4</ele><time>2026-05-04T13:26:38Z</time></trkpt><trkpt lat="44.973285710683925" lon="16.707533173628594"><ele>133.20000000000002</ele><time>2026-05-04T13:26:40Z</time></trkpt><trkpt lat="44.9733778485148" lon="16.707449318104512"><ele>133.0</ele><time>2026-05-04T13:26:42Z</time></trkpt><trkpt lat="44.973436432586915" lon="16.70740185640826"><ele>133.0</ele><time>2026-05-04T13:26:46Z</time></trkpt><trkpt lat="44.97349351228959" lon="16.707344997309985"><ele>133.0</ele><time>2026-05-04T13:26:58Z</time></trkpt><trkpt lat="44.97354839897521" lon="16.707277007806546"><ele>133.0</ele><time>2026-05-04T13:27:00Z</time></trkpt><trkpt lat="44.9736165439923" lon="16.707190497993125"><ele>133.0</ele><time>2026-05-04T13:27:02Z</time></trkpt><trkpt lat="44.97368065050267" lon="16.707137877831688"><ele>133.0</ele><time>2026-05-04T13:27:03Z</time></trkpt><trkpt lat="44.97374704593152" lon="16.70708529512667"><ele>133.0</ele><time>2026-05-04T13:27:04Z</time></trkpt><trkpt lat="44.973816934098586" lon="16.707018448804465"><ele>133.0</ele><time>2026-05-04T13:27:05Z</time></trkpt><trkpt lat="44.97388826293005" lon="16.70694402092161"><ele>133.0</ele><time>2026-05-04T13:27:06Z</time></trkpt><trkpt lat="44.973963579369695" lon="16.70687414503961"><ele>133.0</ele><time>2026-05-04T13:27:07Z</time></trkpt><trkpt lat="44.97403524201722" lon="16.706800081798843"><ele>133.0</ele><time>2026-05-04T13:27:08Z</time></trkpt><trkpt lat="44.974117236960936" lon="16.706731544200967"><ele>133.0</ele><time>2026-05-04T13:27:09Z</time></trkpt><trkpt lat="44.97419599629787" lon="16.706655635210137"><ele>133.6</ele><time>2026-05-04T13:27:10Z</time></trkpt><trkpt lat="44.974267489209105" lon="16.706557720184488"><ele>134.20000000000002</ele><time>2026-05-04T13:27:11Z</time></trkpt><trkpt lat="44.974356723813564" lon="16.70649284919333"><ele>134.8</ele><time>2026-05-04T13:27:12Z</time></trkpt><trkpt lat="44.97443704142923" lon="16.706398723867323"><ele>135.4</ele><time>2026-05-04T13:27:13Z</time></trkpt><trkpt lat="44.97450120438195" lon="16.70630536873857"><ele>136.0</ele><time>2026-05-04T13:27:14Z</time></trkpt><trkpt lat="44.97454946754893" lon="16.70620724342819"><ele>136.0</ele><time>2026-05-04T13:27:15Z</time></trkpt><trkpt lat="44.97458545940033" lon="16.70611427077454"><ele>136.0</ele><time>2026-05-04T13:27:16Z</time></trkpt><trkpt lat="44.974620158674604" lon="16.706038331992563"><ele>136.0</ele><time>2026-05-04T13:27:17Z</time></trkpt><trkpt lat="44.97467037333161" lon="16.705910694408367"><ele>136.0</ele><time>2026-05-04T13:27:19Z</time></trkpt><trkpt lat="44.97470861493623" lon="16.705775677794087"><ele>136.0</ele><time>2026-05-04T13:27:21Z</time></trkpt><trkpt lat="44.97479043225742" lon="16.705696594571528"><ele>136.0</ele><time>2026-05-04T13:27:23Z</time></trkpt><trkpt lat="44.974911006467266" lon="16.705799270065313"><ele>136.0</ele><time>2026-05-04T13:27:25Z</time></trkpt><trkpt lat="44.9749923476441" lon="16.705846468580216"><ele>136.0</ele><time>2026-05-04T13:27:26Z</time></trkpt><trkpt lat="44.97509233819576" lon="16.705908510279194"><ele>136.0</ele><time>2026-05-04T13:27:27Z</time></trkpt><trkpt lat="44.97519645654801" lon="16.70594719051306"><ele>136.0</ele><time>2026-05-04T13:27:28Z</time></trkpt><trkpt lat="44.975296586431796" lon="16.70599785544805"><ele>136.0</ele><time>2026-05-04T13:27:29Z</time></trkpt><trkpt lat="44.97537925192591" lon="16.706040314240475"><ele>135.8</ele><time>2026-05-04T13:27:30Z</time></trkpt><trkpt lat="44.9754495008933" lon="16.706075818383646"><ele>135.6</ele><time>2026-05-04T13:27:31Z</time></trkpt><trkpt lat="44.97553298552673" lon="16.706112360485893"><ele>135.4</ele><time>2026-05-04T13:27:32Z</time></trkpt><trkpt lat="44.97561882677664" lon="16.706154545819405"><ele>135.2</ele><time>2026-05-04T13:27:33Z</time></trkpt><trkpt lat="44.97571050067647" lon="16.70620296762211"><ele>135.0</ele><time>2026-05-04T13:27:34Z</time></trkpt><trkpt lat="44.975812010941176" lon="16.706257138519018"><ele>135.4</ele><time>2026-05-04T13:27:35Z</time></trkpt><trkpt lat="44.975913750465104" lon="16.706306930544326"><ele>135.8</ele><time>2026-05-04T13:27:36Z</time></trkpt><trkpt lat="44.976016298888894" lon="16.706359079621482"><ele>136.2</ele><time>2026-05-04T13:27:37Z</time></trkpt><trkpt lat="44.97610230933358" lon="16.706407624242296"><ele>136.6</ele><time>2026-05-04T13:27:38Z</time></trkpt><trkpt lat="44.97617659946439" lon="16.706451071430646"><ele>137.0</ele><time>2026-05-04T13:27:39Z</time></trkpt><trkpt lat="44.9762365942441" lon="16.706487283843387"><ele>137.0</ele><time>2026-05-04T13:27:40Z</time></trkpt><trkpt lat="44.97634523828019" lon="16.706536469593086"><ele>137.0</ele><time>2026-05-04T13:27:42Z</time></trkpt><trkpt lat="44.97647013060613" lon="16.706595353492354"><ele>137.0</ele><time>2026-05-04T13:27:44Z</time></trkpt><trkpt lat="44.976547940026336" lon="16.706631040581353"><ele>137.0</ele><time>2026-05-04T13:27:45Z</time></trkpt><trkpt lat="44.97662849810597" lon="16.706679942824884"><ele>137.0</ele><time>2026-05-04T13:27:46Z</time></trkpt><trkpt lat="44.97671294624404" lon="16.706737128494442"><ele>136.83333333333331</ele><time>2026-05-04T13:27:47Z</time></trkpt><trkpt lat="44.976795702851575" lon="16.706815693529467"><ele>136.66666666666666</ele><time>2026-05-04T13:27:48Z</time></trkpt><trkpt lat="44.97686891402553" lon="16.70690458329953"><ele>136.5</ele><time>2026-05-04T13:27:49Z</time></trkpt><trkpt lat="44.97692594053694" lon="16.706995689652796"><ele>136.33333333333334</ele><time>2026-05-04T13:27:50Z</time></trkpt><trkpt lat="44.97696996536486" lon="16.707070953420082"><ele>136.16666666666669</ele><time>2026-05-04T13:27:51Z</time></trkpt><trkpt lat="44.97701779668636" lon="16.707130034152136"><ele>136.0</ele><time>2026-05-04T13:27:52Z</time></trkpt><trkpt lat="44.977068386436926" lon="16.707190273463564"><ele>136.6</ele><time>2026-05-04T13:27:53Z</time></trkpt><trkpt lat="44.97712838054569" lon="16.707276673775418"><ele>137.2</ele><time>2026-05-04T13:27:54Z</time></trkpt><trkpt lat="44.97718989469492" lon="16.70737728866049"><ele>137.8</ele><time>2026-05-04T13:27:55Z</time></trkpt><trkpt lat="44.977237987197" lon="16.70746474668643"><ele>138.4</ele><time>2026-05-04T13:27:56Z</time></trkpt><trkpt lat="44.977315992858394" lon="16.707589199379374"><ele>139.0</ele><time>2026-05-04T13:27:58Z</time></trkpt><trkpt lat="44.97738472448273" lon="16.70767603706723"><ele>139.0</ele><time>2026-05-04T13:28:00Z</time></trkpt><trkpt lat="44.97744587466406" lon="16.707742811456203"><ele>139.0</ele><time>2026-05-04T13:28:02Z</time></trkpt><trkpt lat="44.977503223591846" lon="16.70783699404405"><ele>139.0</ele><time>2026-05-04T13:28:04Z</time></trkpt><trkpt lat="44.97755355538639" lon="16.707897093232557"><ele>139.0</ele><time>2026-05-04T13:28:06Z</time></trkpt><trkpt lat="44.97760784891475" lon="16.707949751810965"><ele>139.0</ele><time>2026-05-04T13:28:09Z</time></trkpt><trkpt lat="44.97765981617121" lon="16.708027393894554"><ele>139.0</ele><time>2026-05-04T13:28:11Z</time></trkpt><trkpt lat="44.9776942059082" lon="16.708126824633013"><ele>138.8</ele><time>2026-05-04T13:28:13Z</time></trkpt><trkpt lat="44.97765636122943" lon="16.70823347154251"><ele>138.60000000000002</ele><time>2026-05-04T13:28:15Z</time></trkpt><trkpt lat="44.977569670120765" lon="16.708350197754225"><ele>138.4</ele><time>2026-05-04T13:28:17Z</time></trkpt><trkpt lat="44.97750175112409" lon="16.708460268041588"><ele>138.20000000000002</ele><time>2026-05-04T13:28:19Z</time></trkpt><trkpt lat="44.9774286571421" lon="16.708593982688647"><ele>138.0</ele><time>2026-05-04T13:28:21Z</time></trkpt><trkpt lat="44.97735776938006" lon="16.708717750737865"><ele>138.0</ele><time>2026-05-04T13:28:23Z</time></trkpt><trkpt lat="44.97732520600365" lon="16.70884776551984"><ele>138.0</ele><time>2026-05-04T13:28:25Z</time></trkpt><trkpt lat="44.977345233738966" lon="16.708934367746174"><ele>138.0</ele><time>2026-05-04T13:28:26Z</time></trkpt><trkpt lat="44.97738890712905" lon="16.708999538259075"><ele>138.0</ele><time>2026-05-04T13:28:27Z</time></trkpt><trkpt lat="44.97747580071957" lon="16.709086524422418"><ele>138.0</ele><time>2026-05-04T13:28:29Z</time></trkpt><trkpt lat="44.97754377948019" lon="16.70916169960474"><ele>138.0</ele><time>2026-05-04T13:28:31Z</time></trkpt><trkpt lat="44.977594602646334" lon="16.709229116672887"><ele>138.4</ele><time>2026-05-04T13:28:34Z</time></trkpt><trkpt lat="44.97766060337064" lon="16.709300719030438"><ele>138.8</ele><time>2026-05-04T13:28:37Z</time></trkpt><trkpt lat="44.97777132233578" lon="16.70942885282596"><ele>139.2</ele><time>2026-05-04T13:28:39Z</time></trkpt><trkpt lat="44.97783500658668" lon="16.70951457028393"><ele>139.6</ele><time>2026-05-04T13:28:40Z</time></trkpt><trkpt lat="44.977898801534245" lon="16.709594420122546"><ele>140.0</ele><time>2026-05-04T13:28:41Z</time></trkpt><trkpt lat="44.977971639452186" lon="16.709674293478937"><ele>140.0</ele><time>2026-05-04T13:28:42Z</time></trkpt><trkpt lat="44.97804454188353" lon="16.709757080719047"><ele>140.0</ele><time>2026-05-04T13:28:43Z</time></trkpt><trkpt lat="44.978117676936854" lon="16.70985523152689"><ele>140.0</ele><time>2026-05-04T13:28:44Z</time></trkpt><trkpt lat="44.978212762511575" lon="16.70994674772834"><ele>140.0</ele><time>2026-05-04T13:28:45Z</time></trkpt><trkpt lat="44.978279762857014" lon="16.710021336709477"><ele>140.0</ele><time>2026-05-04T13:28:46Z</time></trkpt><trkpt lat="44.97834390407395" lon="16.71010445138129"><ele>139.83333333333331</ele><time>2026-05-04T13:28:47Z</time></trkpt><trkpt lat="44.97840354922875" lon="16.710178302858672"><ele>139.66666666666666</ele><time>2026-05-04T13:28:48Z</time></trkpt><trkpt lat="44.978457396419884" lon="16.710243357999154"><ele>139.5</ele><time>2026-05-04T13:28:49Z</time></trkpt><trkpt lat="44.9785396473925" lon="16.71033828758701"><ele>139.33333333333334</ele><time>2026-05-04T13:28:51Z</time></trkpt><trkpt lat="44.97859672430696" lon="16.710397969476375"><ele>139.16666666666669</ele><time>2026-05-04T13:28:54Z</time></trkpt><trkpt lat="44.97865689568702" lon="16.71046404182703"><ele>139.0</ele><time>2026-05-04T13:29:10Z</time></trkpt><trkpt lat="44.97874886092977" lon="16.71059879745341"><ele>139.0</ele><time>2026-05-04T13:29:12Z</time></trkpt><trkpt lat="44.97880883996618" lon="16.710684463773347"><ele>139.0</ele><time>2026-05-04T13:29:13Z</time></trkpt><trkpt lat="44.97888233180868" lon="16.71077109154197"><ele>139.0</ele><time>2026-05-04T13:29:14Z</time></trkpt><trkpt lat="44.97895849633577" lon="16.71085663711872"><ele>139.0</ele><time>2026-05-04T13:29:15Z</time></trkpt><trkpt lat="44.979037245359656" lon="16.710950707217584"><ele>139.0</ele><time>2026-05-04T13:29:16Z</time></trkpt><trkpt lat="44.979122775660144" lon="16.711049780822204"><ele>138.6</ele><time>2026-05-04T13:29:17Z</time></trkpt><trkpt lat="44.97920406208632" lon="16.71114256910068"><ele>138.2</ele><time>2026-05-04T13:29:18Z</time></trkpt><trkpt lat="44.97928731529513" lon="16.711236855891016"><ele>137.79999999999998</ele><time>2026-05-04T13:29:19Z</time></trkpt><trkpt lat="44.97936335574884" lon="16.711312833171608"><ele>137.4</ele><time>2026-05-04T13:29:20Z</time></trkpt><trkpt lat="44.97943600881844" lon="16.711391733377596"><ele>137.0</ele><time>2026-05-04T13:29:21Z</time></trkpt><trkpt lat="44.97951390986403" lon="16.711472582995082"><ele>137.0</ele><time>2026-05-04T13:29:22Z</time></trkpt><trkpt lat="44.9795904951278" lon="16.711558515080238"><ele>137.0</ele><time>2026-05-04T13:29:23Z</time></trkpt><trkpt lat="44.97966165895159" lon="16.711645072285062"><ele>137.0</ele><time>2026-05-04T13:29:24Z</time></trkpt><trkpt lat="44.97972976469161" lon="16.711730126148872"><ele>137.0</ele><time>2026-05-04T13:29:25Z</time></trkpt><trkpt lat="44.979791104248875" lon="16.711812385129132"><ele>137.0</ele><time>2026-05-04T13:29:26Z</time></trkpt><trkpt lat="44.97984660588401" lon="16.711897460766423"><ele>137.0</ele><time>2026-05-04T13:29:27Z</time></trkpt><trkpt lat="44.97988953297308" lon="16.71198036606227"><ele>137.0</ele><time>2026-05-04T13:29:28Z</time></trkpt><trkpt lat="44.97992764871438" lon="16.7120575093752"><ele>137.0</ele><time>2026-05-04T13:29:29Z</time></trkpt><trkpt lat="44.979961285774365" lon="16.712156911398488"><ele>137.0</ele><time>2026-05-04T13:29:31Z</time></trkpt><trkpt lat="44.97999503192414" lon="16.71228182797557"><ele>137.0</ele><time>2026-05-04T13:29:37Z</time></trkpt><trkpt lat="44.9800114441748" lon="16.712408254993303"><ele>137.0</ele><time>2026-05-04T13:29:39Z</time></trkpt><trkpt lat="44.98007054596918" lon="16.712499295165646"><ele>137.0</ele><time>2026-05-04T13:29:41Z</time></trkpt><trkpt lat="44.980166722124046" lon="16.712479666157222"><ele>137.16666666666666</ele><time>2026-05-04T13:29:43Z</time></trkpt><trkpt lat="44.980241553827796" lon="16.71244082856125"><ele>137.33333333333331</ele><time>2026-05-04T13:29:45Z</time></trkpt><trkpt lat="44.980194697867404" lon="16.712260033183895"><ele>137.5</ele><time>2026-05-04T13:29:46Z</time></trkpt><trkpt lat="44.980159411753846" lon="16.712182613212505"><ele>137.66666666666666</ele><time>2026-05-04T13:29:47Z</time></trkpt><trkpt lat="44.98014467492009" lon="16.712092381768134"><ele>137.83333333333334</ele><time>2026-05-04T13:29:48Z</time></trkpt><trkpt lat="44.98016451608825" lon="16.71200041833282"><ele>138.0</ele><time>2026-05-04T13:29:49Z</time></trkpt><trkpt lat="44.98021448382455" lon="16.711920874511303"><ele>138.14285714285714</ele><time>2026-05-04T13:29:50Z</time></trkpt><trkpt lat="44.980273669064545" lon="16.71185727477541"><ele>138.2857142857143</ele><time>2026-05-04T13:29:51Z</time></trkpt><trkpt lat="44.98033901709501" lon="16.71179558027681"><ele>138.42857142857144</ele><time>2026-05-04T13:29:52Z</time></trkpt><trkpt lat="44.98040216840137" lon="16.711734879344647"><ele>138.57142857142858</ele><time>2026-05-04T13:29:53Z</time></trkpt><trkpt lat="44.98046113488016" lon="16.711665221456002"><ele>138.71428571428572</ele><time>2026-05-04T13:29:54Z</time></trkpt><trkpt lat="44.98051868979115" lon="16.711607322496643"><ele>138.85714285714286</ele><time>2026-05-04T13:29:55Z</time></trkpt><trkpt lat="44.980573008418666" lon="16.711554076474826"><ele>139.0</ele><time>2026-05-04T13:29:56Z</time></trkpt><trkpt lat="44.98064804433844" lon="16.711491755031464"><ele>139.0</ele><time>2026-05-04T13:29:58Z</time></trkpt><trkpt lat="44.98070202776127" lon="16.711429370344973"><ele>139.0</ele><time>2026-05-04T13:30:01Z</time></trkpt><trkpt lat="44.980762437057024" lon="16.711366742786915"><ele>139.0</ele><time>2026-05-04T13:30:04Z</time></trkpt><trkpt lat="44.980829499188125" lon="16.711317928537408"><ele>139.0</ele><time>2026-05-04T13:30:07Z</time></trkpt><trkpt lat="44.980902485073734" lon="16.711319716568177"><ele>139.0</ele><time>2026-05-04T13:30:10Z</time></trkpt><trkpt lat="44.98100047765092" lon="16.711381978144544"><ele>139.0</ele><time>2026-05-04T13:30:12Z</time></trkpt><trkpt lat="44.98106532471717" lon="16.71135684794701"><ele>139.28571428571428</ele><time>2026-05-04T13:30:13Z</time></trkpt><trkpt lat="44.98112050493823" lon="16.711311963053923"><ele>139.57142857142858</ele><time>2026-05-04T13:30:14Z</time></trkpt><trkpt lat="44.98117970337327" lon="16.711270539661726"><ele>139.85714285714286</ele><time>2026-05-04T13:30:15Z</time></trkpt><trkpt lat="44.981246850088645" lon="16.71122867984021"><ele>140.14285714285714</ele><time>2026-05-04T13:30:16Z</time></trkpt><trkpt lat="44.981320951642466" lon="16.71117848098335"><ele>140.42857142857142</ele><time>2026-05-04T13:30:17Z</time></trkpt><trkpt lat="44.98139167287707" lon="16.71113688917785"><ele>140.71428571428572</ele><time>2026-05-04T13:30:18Z</time></trkpt><trkpt lat="44.98146124312834" lon="16.71109374381545"><ele>141.0</ele><time>2026-05-04T13:30:19Z</time></trkpt><trkpt lat="44.981528769159745" lon="16.711053198267045"><ele>140.33333333333334</ele><time>2026-05-04T13:30:20Z</time></trkpt><trkpt lat="44.98159815973079" lon="16.711012752241217"><ele>139.66666666666666</ele><time>2026-05-04T13:30:21Z</time></trkpt><trkpt lat="44.981675185187065" lon="16.710967442465606"><ele>139.0</ele><time>2026-05-04T13:30:22Z</time></trkpt><trkpt lat="44.98175383227533" lon="16.710927392181233"><ele>138.33333333333331</ele><time>2026-05-04T13:30:23Z</time></trkpt><trkpt lat="44.98183594243823" lon="16.710879121953436"><ele>137.66666666666666</ele><time>2026-05-04T13:30:24Z</time></trkpt><trkpt lat="44.981930580194806" lon="16.71081969576525"><ele>137.0</ele><time>2026-05-04T13:30:25Z</time></trkpt><trkpt lat="44.982045760224516" lon="16.710743885157495"><ele>137.0</ele><time>2026-05-04T13:30:26Z</time></trkpt><trkpt lat="44.98217154136205" lon="16.710652038238152"><ele>137.0</ele><time>2026-05-04T13:30:27Z</time></trkpt><trkpt lat="44.9823037502173" lon="16.710553412724035"><ele>137.0</ele><time>2026-05-04T13:30:28Z</time></trkpt><trkpt lat="44.982442459267155" lon="16.71043959888187"><ele>136.66666666666666</ele><time>2026-05-04T13:30:29Z</time></trkpt><trkpt lat="44.98258008264979" lon="16.710303500897346"><ele>136.33333333333334</ele><time>2026-05-04T13:30:30Z</time></trkpt><trkpt lat="44.982705722179325" lon="16.710149536885393"><ele>136.0</ele><time>2026-05-04T13:30:31Z</time></trkpt><trkpt lat="44.98282182602898" lon="16.70998287647285"><ele>136.0</ele><time>2026-05-04T13:30:32Z</time></trkpt><trkpt lat="44.982915729144835" lon="16.709812117249644"><ele>136.0</ele><time>2026-05-04T13:30:33Z</time></trkpt><trkpt lat="44.98299497168182" lon="16.709650407050148"><ele>136.0</ele><time>2026-05-04T13:30:34Z</time></trkpt><trkpt lat="44.983070559938696" lon="16.709485952062945"><ele>136.0</ele><time>2026-05-04T13:30:35Z</time></trkpt><trkpt lat="44.98313600613579" lon="16.709319207197936"><ele>135.6</ele><time>2026-05-04T13:30:36Z</time></trkpt><trkpt lat="44.983205003520865" lon="16.70916890200638"><ele>135.2</ele><time>2026-05-04T13:30:37Z</time></trkpt><trkpt lat="44.98328192446158" lon="16.70905446480437"><ele>134.8</ele><time>2026-05-04T13:30:38Z</time></trkpt><trkpt lat="44.983328718511764" lon="16.708964384274843"><ele>134.4</ele><time>2026-05-04T13:30:39Z</time></trkpt><trkpt lat="44.98336729240336" lon="16.708890207232706"><ele>134.0</ele><time>2026-05-04T13:30:40Z</time></trkpt><trkpt lat="44.983254673646485" lon="16.708692961533103"><ele>133.75</ele><time>2026-05-04T13:30:41Z</time></trkpt><trkpt lat="44.98319294328235" lon="16.708573838961644"><ele>133.5</ele><time>2026-05-04T13:30:42Z</time></trkpt><trkpt lat="44.983131431054936" lon="16.708429217725733"><ele>133.25</ele><time>2026-05-04T13:30:43Z</time></trkpt><trkpt lat="44.98307290276705" lon="16.708264913318217"><ele>133.0</ele><time>2026-05-04T13:30:44Z</time></trkpt><trkpt lat="44.98302869967915" lon="16.7080817647479"><ele>133.0</ele><time>2026-05-04T13:30:45Z</time></trkpt><trkpt lat="44.982993230655886" lon="16.707906198897685"><ele>133.0</ele><time>2026-05-04T13:30:46Z</time></trkpt><trkpt lat="44.9829994944387" lon="16.70774242863345"><ele>133.0</ele><time>2026-05-04T13:30:47Z</time></trkpt><trkpt lat="44.98300142536663" lon="16.70759374521892"><ele>133.0</ele><time>2026-05-04T13:30:48Z</time></trkpt><trkpt lat="44.98300166717595" lon="16.70746690057198"><ele>133.0</ele><time>2026-05-04T13:30:49Z</time></trkpt><trkpt lat="44.98299978511236" lon="16.707364088816902"><ele>133.20000000000002</ele><time>2026-05-04T13:30:50Z</time></trkpt><trkpt lat="44.98301443219455" lon="16.707254103245482"><ele>133.4</ele><time>2026-05-04T13:30:52Z</time></trkpt><trkpt lat="44.983051713582256" lon="16.707171722827"><ele>133.60000000000002</ele><time>2026-05-04T13:30:56Z</time></trkpt><trkpt lat="44.98315588129862" lon="16.7072422552073"><ele>133.8</ele><time>2026-05-04T13:30:57Z</time></trkpt><trkpt lat="44.98323746688218" lon="16.707333701739593"><ele>134.0</ele><time>2026-05-04T13:30:58Z</time></trkpt><trkpt lat="44.98335073350386" lon="16.707430076693722"><ele>134.0</ele><time>2026-05-04T13:30:59Z</time></trkpt><trkpt lat="44.983460621434375" lon="16.707527893346548"><ele>134.0</ele><time>2026-05-04T13:31:00Z</time></trkpt><trkpt lat="44.983569941935365" lon="16.70763058829792"><ele>134.0</ele><time>2026-05-04T13:31:01Z</time></trkpt><trkpt lat="44.98368550914342" lon="16.707737749381685"><ele>134.0</ele><time>2026-05-04T13:31:02Z</time></trkpt><trkpt lat="44.98380189348274" lon="16.707846237730774"><ele>134.5</ele><time>2026-05-04T13:31:03Z</time></trkpt><trkpt lat="44.983918699254126" lon="16.707957236634375"><ele>135.0</ele><time>2026-05-04T13:31:04Z</time></trkpt><trkpt lat="44.984042390945085" lon="16.70807234127757"><ele>135.5</ele><time>2026-05-04T13:31:05Z</time></trkpt><trkpt lat="44.984156646563754" lon="16.708176754698364"><ele>136.0</ele><time>2026-05-04T13:31:06Z</time></trkpt><trkpt lat="44.98426115736205" lon="16.708273453671858"><ele>136.0</ele><time>2026-05-04T13:31:07Z</time></trkpt><trkpt lat="44.98436631365294" lon="16.708367946824605"><ele>136.0</ele><time>2026-05-04T13:31:08Z</time></trkpt><trkpt lat="44.98447029265744" lon="16.708461902498776"><ele>136.0</ele><time>2026-05-04T13:31:09Z</time></trkpt><trkpt lat="44.98457051141686" lon="16.708556531516436"><ele>136.0</ele><time>2026-05-04T13:31:10Z</time></trkpt><trkpt lat="44.984670617191085" lon="16.70864808998559"><ele>136.2</ele><time>2026-05-04T13:31:11Z</time></trkpt><trkpt lat="44.984762681285446" lon="16.70873753248422"><ele>136.39999999999998</ele><time>2026-05-04T13:31:12Z</time></trkpt><trkpt lat="44.98484575256632" lon="16.708834620634928"><ele>136.6</ele><time>2026-05-04T13:31:13Z</time></trkpt><trkpt lat="44.984911240791284" lon="16.7089511728493"><ele>136.79999999999998</ele><time>2026-05-04T13:31:14Z</time></trkpt><trkpt lat="44.98494656901047" lon="16.709085026374957"><ele>137.0</ele><time>2026-05-04T13:31:15Z</time></trkpt><trkpt lat="44.98495656635589" lon="16.709225165490622"><ele>137.0</ele><time>2026-05-04T13:31:16Z</time></trkpt><trkpt lat="44.9849428788007" lon="16.709355531974317"><ele>137.0</ele><time>2026-05-04T13:31:17Z</time></trkpt><trkpt lat="44.984899717127526" lon="16.709475576347256"><ele>137.0</ele><time>2026-05-04T13:31:18Z</time></trkpt><trkpt lat="44.98483204762161" lon="16.709578137096585"><ele>137.0</ele><time>2026-05-04T13:31:19Z</time></trkpt><trkpt lat="44.98474388637753" lon="16.70964691375229"><ele>137.0</ele><time>2026-05-04T13:31:20Z</time></trkpt><trkpt lat="44.984643930176134" lon="16.70967308746276"><ele>137.0</ele><time>2026-05-04T13:31:21Z</time></trkpt><trkpt lat="44.98454070418297" lon="16.70966374693895"><ele>137.0</ele><time>2026-05-04T13:31:22Z</time></trkpt><trkpt lat="44.98444680904692" lon="16.709611937893033"><ele>137.0</ele><time>2026-05-04T13:31:23Z</time></trkpt><trkpt lat="44.98436495928127" lon="16.709536512242824"><ele>137.0</ele><time>2026-05-04T13:31:24Z</time></trkpt><trkpt lat="44.98430852561145" lon="16.709425782548234"><ele>137.0</ele><time>2026-05-04T13:31:25Z</time></trkpt><trkpt lat="44.984239365929575" lon="16.70934447447432"><ele>137.0</ele><time>2026-05-04T13:31:26Z</time></trkpt><trkpt lat="44.98418505845671" lon="16.709238592969168"><ele>137.0</ele><time>2026-05-04T13:31:27Z</time></trkpt><trkpt lat="44.98413905478877" lon="16.709139252104578"><ele>137.0</ele><time>2026-05-04T13:31:28Z</time></trkpt><trkpt lat="44.98409432462847" lon="16.70904612576651"><ele>137.0</ele><time>2026-05-04T13:31:29Z</time></trkpt><trkpt lat="44.98405273760842" lon="16.708969173440888"><ele>137.0</ele><time>2026-05-04T13:31:30Z</time></trkpt><trkpt lat="44.983993556683686" lon="16.708862898900865"><ele>137.0</ele><time>2026-05-04T13:31:32Z</time></trkpt><trkpt lat="44.98399962027603" lon="16.70874267394555"><ele>136.79999999999998</ele><time>2026-05-04T13:31:34Z</time></trkpt><trkpt lat="44.98404890898848" lon="16.708563942025087"><ele>136.6</ele><time>2026-05-04T13:31:36Z</time></trkpt><trkpt lat="44.984112342891336" lon="16.708455649698575"><ele>136.39999999999998</ele><time>2026-05-04T13:31:37Z</time></trkpt><trkpt lat="44.98417319405928" lon="16.70833952588649"><ele>136.2</ele><time>2026-05-04T13:31:38Z</time></trkpt><trkpt lat="44.98423083714093" lon="16.70822140244231"><ele>136.0</ele><time>2026-05-04T13:31:39Z</time></trkpt><trkpt lat="44.98428490282656" lon="16.70809068915097"><ele>136.0</ele><time>2026-05-04T13:31:40Z</time></trkpt><trkpt lat="44.984330257362714" lon="16.707950884280734"><ele>136.0</ele><time>2026-05-04T13:31:41Z</time></trkpt><trkpt lat="44.98443058274656" lon="16.70783779359829"><ele>136.0</ele><time>2026-05-04T13:31:42Z</time></trkpt><trkpt lat="44.98450424435952" lon="16.707702169410073"><ele>136.0</ele><time>2026-05-04T13:31:43Z</time></trkpt><trkpt lat="44.98458391805567" lon="16.707555475887506"><ele>136.0</ele><time>2026-05-04T13:31:44Z</time></trkpt><trkpt lat="44.984664093257514" lon="16.707407859000014"><ele>136.0</ele><time>2026-05-04T13:31:45Z</time></trkpt><trkpt lat="44.98474406800745" lon="16.70726061119615"><ele>136.0</ele><time>2026-05-04T13:31:46Z</time></trkpt><trkpt lat="44.98482009843228" lon="16.707120625592744"><ele>136.0</ele><time>2026-05-04T13:31:47Z</time></trkpt><trkpt lat="44.98489823258413" lon="16.706976802914895"><ele>135.75</ele><time>2026-05-04T13:31:48Z</time></trkpt><trkpt lat="44.984974313212334" lon="16.706837410430754"><ele>135.5</ele><time>2026-05-04T13:31:49Z</time></trkpt><trkpt lat="44.985049538762176" lon="16.70669958460298"><ele>135.25</ele><time>2026-05-04T13:31:50Z</time></trkpt><trkpt lat="44.985124128236265" lon="16.70656498323055"><ele>135.0</ele><time>2026-05-04T13:31:51Z</time></trkpt><trkpt lat="44.98518904626047" lon="16.70642064305059"><ele>135.0</ele><time>2026-05-04T13:31:52Z</time></trkpt><trkpt lat="44.98526568772799" lon="16.706281193606294"><ele>135.0</ele><time>2026-05-04T13:31:53Z</time></trkpt><trkpt lat="44.98534219173337" lon="16.706137829114585"><ele>135.0</ele><time>2026-05-04T13:31:54Z</time></trkpt><trkpt lat="44.985436668972" lon="16.706006707536492"><ele>135.0</ele><time>2026-05-04T13:31:55Z</time></trkpt><trkpt lat="44.98551853078919" lon="16.705859336031736"><ele>135.0</ele><time>2026-05-04T13:31:56Z</time></trkpt><trkpt lat="44.9855891479643" lon="16.705700861839816"><ele>135.0</ele><time>2026-05-04T13:31:57Z</time></trkpt><trkpt lat="44.9856753545387" lon="16.705552437860284"><ele>135.0</ele><time>2026-05-04T13:31:58Z</time></trkpt><trkpt lat="44.985761273295694" lon="16.705400712413837"><ele>135.0</ele><time>2026-05-04T13:31:59Z</time></trkpt><trkpt lat="44.98584720234858" lon="16.70524347436623"><ele>134.66666666666666</ele><time>2026-05-04T13:32:00Z</time></trkpt><trkpt lat="44.985938587091354" lon="16.705078831150754"><ele>134.33333333333331</ele><time>2026-05-04T13:32:01Z</time></trkpt><trkpt lat="44.98603561525346" lon="16.70490874082228"><ele>134.0</ele><time>2026-05-04T13:32:02Z</time></trkpt><trkpt lat="44.98613441108914" lon="16.70473982047843"><ele>134.0</ele><time>2026-05-04T13:32:03Z</time></trkpt><trkpt lat="44.98623775363558" lon="16.704560348189318"><ele>134.0</ele><time>2026-05-04T13:32:04Z</time></trkpt><trkpt lat="44.98634017098654" lon="16.70437743771034"><ele>134.0</ele><time>2026-05-04T13:32:05Z</time></trkpt><trkpt lat="44.98645870904078" lon="16.704205697674603"><ele>133.0</ele><time>2026-05-04T13:32:06Z</time></trkpt><trkpt lat="44.98656969593344" lon="16.70402566547526"><ele>132.0</ele><time>2026-05-04T13:32:07Z</time></trkpt><trkpt lat="44.98665165290229" lon="16.703804710898105"><ele>131.0</ele><time>2026-05-04T13:32:08Z</time></trkpt><trkpt lat="44.98675827982733" lon="16.703613558277716"><ele>131.0</ele><time>2026-05-04T13:32:09Z</time></trkpt><trkpt lat="44.98686082179229" lon="16.703428066157347"><ele>131.0</ele><time>2026-05-04T13:32:10Z</time></trkpt><trkpt lat="44.98696659531659" lon="16.703239325351937"><ele>131.0</ele><time>2026-05-04T13:32:11Z</time></trkpt><trkpt lat="44.98707062258262" lon="16.70305483048795"><ele>131.0</ele><time>2026-05-04T13:32:12Z</time></trkpt><trkpt lat="44.98717896986657" lon="16.702862663329807"><ele>131.0</ele><time>2026-05-04T13:32:13Z</time></trkpt><trkpt lat="44.987281597623124" lon="16.70267221335563"><ele>131.0</ele><time>2026-05-04T13:32:14Z</time></trkpt><trkpt lat="44.987385003885755" lon="16.702484285267964"><ele>131.33333333333331</ele><time>2026-05-04T13:32:15Z</time></trkpt><trkpt lat="44.98748703241202" lon="16.70230234699512"><ele>131.66666666666666</ele><time>2026-05-04T13:32:16Z</time></trkpt><trkpt lat="44.98758702923299" lon="16.702124882157403"><ele>132.0</ele><time>2026-05-04T13:32:17Z</time></trkpt><trkpt lat="44.98768697902589" lon="16.701944499028087"><ele>131.75</ele><time>2026-05-04T13:32:18Z</time></trkpt><trkpt lat="44.98778672562197" lon="16.701768861060017"><ele>131.5</ele><time>2026-05-04T13:32:19Z</time></trkpt><trkpt lat="44.98787962851052" lon="16.701604540725725"><ele>131.25</ele><time>2026-05-04T13:32:20Z</time></trkpt><trkpt lat="44.98796505204446" lon="16.701448565016634"><ele>131.0</ele><time>2026-05-04T13:32:21Z</time></trkpt><trkpt lat="44.98805068447915" lon="16.701289456105577"><ele>131.0</ele><time>2026-05-04T13:32:22Z</time></trkpt><trkpt lat="44.98813993431189" lon="16.701127069570564"><ele>131.0</ele><time>2026-05-04T13:32:23Z</time></trkpt><trkpt lat="44.988230578174054" lon="16.700967154620987"><ele>131.0</ele><time>2026-05-04T13:32:24Z</time></trkpt><trkpt lat="44.98832163904559" lon="16.70080374195869"><ele>131.0</ele><time>2026-05-04T13:32:25Z</time></trkpt><trkpt lat="44.98841049510117" lon="16.700642606290426"><ele>131.0</ele><time>2026-05-04T13:32:26Z</time></trkpt><trkpt lat="44.98849761388576" lon="16.700481791358847"><ele>131.0</ele><time>2026-05-04T13:32:27Z</time></trkpt><trkpt lat="44.988587893774024" lon="16.700317318784556"><ele>131.0</ele><time>2026-05-04T13:32:28Z</time></trkpt><trkpt lat="44.98868286054046" lon="16.700149863217554"><ele>131.0</ele><time>2026-05-04T13:32:29Z</time></trkpt><trkpt lat="44.988775861521546" lon="16.69998137530145"><ele>131.0</ele><time>2026-05-04T13:32:30Z</time></trkpt><trkpt lat="44.98886954917992" lon="16.699810432921325"><ele>131.0</ele><time>2026-05-04T13:32:31Z</time></trkpt><trkpt lat="44.98896647746783" lon="16.69964119602843"><ele>131.0</ele><time>2026-05-04T13:32:32Z</time></trkpt><trkpt lat="44.98906290024451" lon="16.69947346655451"><ele>131.0</ele><time>2026-05-04T13:32:33Z</time></trkpt><trkpt lat="44.98915698204266" lon="16.699307804982652"><ele>131.0</ele><time>2026-05-04T13:32:34Z</time></trkpt><trkpt lat="44.98924907829511" lon="16.699139349908357"><ele>131.0</ele><time>2026-05-04T13:32:35Z</time></trkpt><trkpt lat="44.98934415753552" lon="16.698965752544634"><ele>131.33333333333331</ele><time>2026-05-04T13:32:36Z</time></trkpt><trkpt lat="44.98943911187704" lon="16.69879171632609"><ele>131.66666666666666</ele><time>2026-05-04T13:32:37Z</time></trkpt><trkpt lat="44.98953489134398" lon="16.69862361636344"><ele>132.0</ele><time>2026-05-04T13:32:38Z</time></trkpt><trkpt lat="44.98963154269658" lon="16.698455934655843"><ele>132.0</ele><time>2026-05-04T13:32:39Z</time></trkpt><trkpt lat="44.989731731784325" lon="16.69828179436638"><ele>132.0</ele><time>2026-05-04T13:32:40Z</time></trkpt><trkpt lat="44.98982760646877" lon="16.698104521498323"><ele>132.0</ele><time>2026-05-04T13:32:41Z</time></trkpt><trkpt lat="44.98992389098692" lon="16.697933575723194"><ele>132.66666666666666</ele><time>2026-05-04T13:32:42Z</time></trkpt><trkpt lat="44.99002041845768" lon="16.697761514373827"><ele>133.33333333333331</ele><time>2026-05-04T13:32:43Z</time></trkpt><trkpt lat="44.990116191330046" lon="16.697594240799752"><ele>134.0</ele><time>2026-05-04T13:32:44Z</time></trkpt><trkpt lat="44.99021440608816" lon="16.697423814493344"><ele>134.25</ele><time>2026-05-04T13:32:45Z</time></trkpt><trkpt lat="44.990297180081186" lon="16.697269751434558"><ele>134.5</ele><time>2026-05-04T13:32:46Z</time></trkpt><trkpt lat="44.99038046599455" lon="16.69710970389957"><ele>134.75</ele><time>2026-05-04T13:32:47Z</time></trkpt><trkpt lat="44.99047411962773" lon="16.696939008552793"><ele>135.0</ele><time>2026-05-04T13:32:48Z</time></trkpt><trkpt lat="44.990576912732124" lon="16.696740049271227"><ele>134.33333333333334</ele><time>2026-05-04T13:32:49Z</time></trkpt><trkpt lat="44.990688486702794" lon="16.69651788424117"><ele>133.66666666666669</ele><time>2026-05-04T13:32:50Z</time></trkpt><trkpt lat="44.990818473874576" lon="16.696269297331074"><ele>133.0</ele><time>2026-05-04T13:32:51Z</time></trkpt><trkpt lat="44.990968204456024" lon="16.696004037924514"><ele>132.0</ele><time>2026-05-04T13:32:52Z</time></trkpt><trkpt lat="44.991131298331666" lon="16.695728389035978"><ele>131.0</ele><time>2026-05-04T13:32:53Z</time></trkpt><trkpt lat="44.991295865746046" lon="16.69546066448639"><ele>131.0</ele><time>2026-05-04T13:32:54Z</time></trkpt><trkpt lat="44.991455871862335" lon="16.695191826702874"><ele>131.0</ele><time>2026-05-04T13:32:55Z</time></trkpt><trkpt lat="44.99161313795699" lon="16.694911382658614"><ele>131.0</ele><time>2026-05-04T13:32:56Z</time></trkpt><trkpt lat="44.991757859263046" lon="16.694636876965124"><ele>131.0</ele><time>2026-05-04T13:32:57Z</time></trkpt><trkpt lat="44.99190135894388" lon="16.69437281655442"><ele>131.0</ele><time>2026-05-04T13:32:58Z</time></trkpt><trkpt lat="44.99204684055799" lon="16.69410866927632"><ele>131.0</ele><time>2026-05-04T13:32:59Z</time></trkpt><trkpt lat="44.99218762381195" lon="16.69383889764864"><ele>130.5</ele><time>2026-05-04T13:33:00Z</time></trkpt><trkpt lat="44.99232531024176" lon="16.693570522657076"><ele>130.0</ele><time>2026-05-04T13:33:01Z</time></trkpt><trkpt lat="44.99245588090165" lon="16.693310494151415"><ele>130.0</ele><time>2026-05-04T13:33:02Z</time></trkpt><trkpt lat="44.99257889636834" lon="16.69305842066991"><ele>130.0</ele><time>2026-05-04T13:33:03Z</time></trkpt><trkpt lat="44.992702269968746" lon="16.69279655817301"><ele>130.0</ele><time>2026-05-04T13:33:04Z</time></trkpt><trkpt lat="44.992821817058896" lon="16.6925302980441"><ele>130.0</ele><time>2026-05-04T13:33:05Z</time></trkpt><trkpt lat="44.99294039127909" lon="16.692257288731742"><ele>130.0</ele><time>2026-05-04T13:33:06Z</time></trkpt><trkpt lat="44.99305640934823" lon="16.691991673090545"><ele>130.0</ele><time>2026-05-04T13:33:07Z</time></trkpt><trkpt lat="44.99317155436718" lon="16.69171434130163"><ele>130.0</ele><time>2026-05-04T13:33:08Z</time></trkpt><trkpt lat="44.993281228724435" lon="16.691445341937467"><ele>130.0</ele><time>2026-05-04T13:33:09Z</time></trkpt><trkpt lat="44.993391985546566" lon="16.691170587257005"><ele>130.0</ele><time>2026-05-04T13:33:10Z</time></trkpt><trkpt lat="44.993497682294354" lon="16.690899198960434"><ele>130.33333333333334</ele><time>2026-05-04T13:33:11Z</time></trkpt><trkpt lat="44.993604232519594" lon="16.69062861398629"><ele>130.66666666666666</ele><time>2026-05-04T13:33:12Z</time></trkpt><trkpt lat="44.99371176459573" lon="16.69035253621308"><ele>131.0</ele><time>2026-05-04T13:33:13Z</time></trkpt><trkpt lat="44.993817607502834" lon="16.690083839853738"><ele>131.0</ele><time>2026-05-04T13:33:14Z</time></trkpt><trkpt lat="44.99392361716222" lon="16.68980975778898"><ele>131.0</ele><time>2026-05-04T13:33:15Z</time></trkpt><trkpt lat="44.994031336894395" lon="16.689539520990532"><ele>131.0</ele><time>2026-05-04T13:33:16Z</time></trkpt><trkpt lat="44.99413771734293" lon="16.68926629315406"><ele>131.0</ele><time>2026-05-04T13:33:17Z</time></trkpt><trkpt lat="44.994245895653314" lon="16.68899322383913"><ele>131.0</ele><time>2026-05-04T13:33:18Z</time></trkpt><trkpt lat="44.99435430547339" lon="16.688724114706186"><ele>131.0</ele><time>2026-05-04T13:33:19Z</time></trkpt><trkpt lat="44.99446358039326" lon="16.68845189333014"><ele>131.0</ele><time>2026-05-04T13:33:20Z</time></trkpt><trkpt lat="44.99457301522889" lon="16.68817213046837"><ele>131.0</ele><time>2026-05-04T13:33:21Z</time></trkpt><trkpt lat="44.99468300246774" lon="16.687892406522383"><ele>130.0</ele><time>2026-05-04T13:33:22Z</time></trkpt><trkpt lat="44.994793925029015" lon="16.687609209950313"><ele>129.0</ele><time>2026-05-04T13:33:23Z</time></trkpt><trkpt lat="44.99490552612794" lon="16.687327429302073"><ele>129.0</ele><time>2026-05-04T13:33:24Z</time></trkpt><trkpt lat="44.995016242152346" lon="16.68704626602913"><ele>129.0</ele><time>2026-05-04T13:33:25Z</time></trkpt><trkpt lat="44.99512659275153" lon="16.686767885885672"><ele>128.5</ele><time>2026-05-04T13:33:26Z</time></trkpt><trkpt lat="44.99523660109738" lon="16.686485428537956"><ele>128.0</ele><time>2026-05-04T13:33:27Z</time></trkpt><trkpt lat="44.995350697083865" lon="16.68620167055156"><ele>128.5</ele><time>2026-05-04T13:33:28Z</time></trkpt><trkpt lat="44.99546208209882" lon="16.68591877524147"><ele>129.0</ele><time>2026-05-04T13:33:29Z</time></trkpt><trkpt lat="44.99557367888437" lon="16.685633260750137"><ele>129.0</ele><time>2026-05-04T13:33:30Z</time></trkpt><trkpt lat="44.99568645398811" lon="16.68534621607427"><ele>129.0</ele><time>2026-05-04T13:33:31Z</time></trkpt><trkpt lat="44.995805266480446" lon="16.68505912117509"><ele>130.5</ele><time>2026-05-04T13:33:32Z</time></trkpt><trkpt lat="44.99592352149828" lon="16.684769190893626"><ele>132.0</ele><time>2026-05-04T13:33:33Z</time></trkpt><trkpt lat="44.996044589392575" lon="16.68448039510794"><ele>132.0</ele><time>2026-05-04T13:33:34Z</time></trkpt><trkpt lat="44.99616216847237" lon="16.68417803365863"><ele>132.0</ele><time>2026-05-04T13:33:35Z</time></trkpt><trkpt lat="44.99628193948712" lon="16.683875119215198"><ele>131.0</ele><time>2026-05-04T13:33:36Z</time></trkpt><trkpt lat="44.99640923058016" lon="16.683540911538486"><ele>130.0</ele><time>2026-05-04T13:33:37Z</time></trkpt><trkpt lat="44.996537812850406" lon="16.683206855221382"><ele>130.0</ele><time>2026-05-04T13:33:38Z</time></trkpt><trkpt lat="44.996653957086494" lon="16.682896134297955"><ele>130.0</ele><time>2026-05-04T13:33:39Z</time></trkpt><trkpt lat="44.996772965125004" lon="16.682591273422233"><ele>130.0</ele><time>2026-05-04T13:33:40Z</time></trkpt><trkpt lat="44.99689329175331" lon="16.68228637557491"><ele>130.0</ele><time>2026-05-04T13:33:41Z</time></trkpt><trkpt lat="44.99701125962426" lon="16.68198317705078"><ele>129.5</ele><time>2026-05-04T13:33:42Z</time></trkpt><trkpt lat="44.99713022411534" lon="16.681674441518414"><ele>129.0</ele><time>2026-05-04T13:33:43Z</time></trkpt><trkpt lat="44.997249002852925" lon="16.681371728918588"><ele>129.5</ele><time>2026-05-04T13:33:44Z</time></trkpt><trkpt lat="44.997366382852825" lon="16.681068620526126"><ele>130.0</ele><time>2026-05-04T13:33:45Z</time></trkpt><trkpt lat="44.99748502998603" lon="16.680768031260047"><ele>130.0</ele><time>2026-05-04T13:33:46Z</time></trkpt><trkpt lat="44.997603063188784" lon="16.680463302740222"><ele>130.0</ele><time>2026-05-04T13:33:47Z</time></trkpt><trkpt lat="44.99771920149975" lon="16.680168679398285"><ele>130.0</ele><time>2026-05-04T13:33:48Z</time></trkpt><trkpt lat="44.99782876821759" lon="16.67989211351942"><ele>130.0</ele><time>2026-05-04T13:33:49Z</time></trkpt><trkpt lat="44.997933665912704" lon="16.679628519092464"><ele>130.0</ele><time>2026-05-04T13:33:50Z</time></trkpt><trkpt lat="44.998035410415675" lon="16.679371171718593"><ele>130.33333333333334</ele><time>2026-05-04T13:33:51Z</time></trkpt><trkpt lat="44.99813430504941" lon="16.679118835429914"><ele>130.66666666666666</ele><time>2026-05-04T13:33:52Z</time></trkpt><trkpt lat="44.99823360912502" lon="16.678873171335876"><ele>131.0</ele><time>2026-05-04T13:33:53Z</time></trkpt><trkpt lat="44.998331587660864" lon="16.678632882370426"><ele>130.66666666666666</ele><time>2026-05-04T13:33:54Z</time></trkpt><trkpt lat="44.9984382266928" lon="16.678371674954573"><ele>130.33333333333334</ele><time>2026-05-04T13:33:55Z</time></trkpt><trkpt lat="44.99855357405327" lon="16.67808080137429"><ele>130.0</ele><time>2026-05-04T13:33:56Z</time></trkpt><trkpt lat="44.99867298219316" lon="16.677762048709013"><ele>131.0</ele><time>2026-05-04T13:33:57Z</time></trkpt><trkpt lat="44.99879865964114" lon="16.677420027126733"><ele>132.0</ele><time>2026-05-04T13:33:58Z</time></trkpt><trkpt lat="44.9989293648971" lon="16.67708064757853"><ele>133.0</ele><time>2026-05-04T13:33:59Z</time></trkpt><trkpt lat="44.99906579259292" lon="16.676746761475272"><ele>134.0</ele><time>2026-05-04T13:34:00Z</time></trkpt><trkpt lat="44.999197385733126" lon="16.67641476594199"><ele>133.5</ele><time>2026-05-04T13:34:01Z</time></trkpt><trkpt lat="44.99932941516695" lon="16.67607536328834"><ele>133.0</ele><time>2026-05-04T13:34:02Z</time></trkpt><trkpt lat="44.99946230180523" lon="16.6757432270917"><ele>133.0</ele><time>2026-05-04T13:34:03Z</time></trkpt><trkpt lat="44.99959280081115" lon="16.675412147305604"><ele>133.0</ele><time>2026-05-04T13:34:04Z</time></trkpt><trkpt lat="44.999718802050474" lon="16.675093321998496"><ele>132.0</ele><time>2026-05-04T13:34:05Z</time></trkpt><trkpt lat="44.99984147592119" lon="16.67478258889001"><ele>131.0</ele><time>2026-05-04T13:34:06Z</time></trkpt><trkpt lat="44.999960396128785" lon="16.67448161492793"><ele>130.5</ele><time>2026-05-04T13:34:07Z</time></trkpt><trkpt lat="45.00008137934098" lon="16.67417661293726"><ele>130.0</ele><time>2026-05-04T13:34:08Z</time></trkpt><trkpt lat="45.000195673479695" lon="16.67386786595599"><ele>129.5</ele><time>2026-05-04T13:34:09Z</time></trkpt><trkpt lat="45.00031754259532" lon="16.673561496300504"><ele>129.0</ele><time>2026-05-04T13:34:10Z</time></trkpt><trkpt lat="45.00044099332536" lon="16.673255619966113"><ele>129.0</ele><time>2026-05-04T13:34:11Z</time></trkpt><trkpt lat="45.00056318108208" lon="16.672945934133708"><ele>129.0</ele><time>2026-05-04T13:34:12Z</time></trkpt><trkpt lat="45.00068441705585" lon="16.67263552158928"><ele>129.0</ele><time>2026-05-04T13:34:13Z</time></trkpt><trkpt lat="45.000805687241034" lon="16.672325569205846"><ele>129.0</ele><time>2026-05-04T13:34:14Z</time></trkpt><trkpt lat="45.00092695133392" lon="16.67201783414116"><ele>129.0</ele><time>2026-05-04T13:34:15Z</time></trkpt><trkpt lat="45.00104514199767" lon="16.671719827003944"><ele>129.0</ele><time>2026-05-04T13:34:16Z</time></trkpt><trkpt lat="45.0011629667531" lon="16.671423798082564"><ele>129.0</ele><time>2026-05-04T13:34:17Z</time></trkpt><trkpt lat="45.00128345955605" lon="16.67112445865578"><ele>129.0</ele><time>2026-05-04T13:34:18Z</time></trkpt><trkpt lat="45.001404102784306" lon="16.670821400595308"><ele>128.0</ele><time>2026-05-04T13:34:19Z</time></trkpt><trkpt lat="45.0015228177941" lon="16.670520067927338"><ele>127.0</ele><time>2026-05-04T13:34:20Z</time></trkpt><trkpt lat="45.001641876208595" lon="16.670215322880896"><ele>128.5</ele><time>2026-05-04T13:34:21Z</time></trkpt><trkpt lat="45.00175736364189" lon="16.669915311945193"><ele>130.0</ele><time>2026-05-04T13:34:22Z</time></trkpt><trkpt lat="45.001875374022966" lon="16.669607722177673"><ele>129.0</ele><time>2026-05-04T13:34:23Z</time></trkpt><trkpt lat="45.00199198845597" lon="16.669303712835095"><ele>128.0</ele><time>2026-05-04T13:34:24Z</time></trkpt><trkpt lat="45.00211180898271" lon="16.668998918063892"><ele>128.0</ele><time>2026-05-04T13:34:25Z</time></trkpt><trkpt lat="45.0022339127401" lon="16.668690050688234"><ele>128.0</ele><time>2026-05-04T13:34:26Z</time></trkpt><trkpt lat="45.00235372724209" lon="16.66838640165351"><ele>128.0</ele><time>2026-05-04T13:34:27Z</time></trkpt><trkpt lat="45.00247487400022" lon="16.66808121775123"><ele>128.0</ele><time>2026-05-04T13:34:28Z</time></trkpt><trkpt lat="45.00259413804669" lon="16.667774550093867"><ele>128.0</ele><time>2026-05-04T13:34:29Z</time></trkpt><trkpt lat="45.00271502187007" lon="16.667468681131826"><ele>128.0</ele><time>2026-05-04T13:34:30Z</time></trkpt><trkpt lat="45.00283332078858" lon="16.667164550218594"><ele>127.0</ele><time>2026-05-04T13:34:31Z</time></trkpt><trkpt lat="45.00295388609135" lon="16.666859536561418"><ele>126.0</ele><time>2026-05-04T13:34:32Z</time></trkpt><trkpt lat="45.003074367484665" lon="16.666555823314006"><ele>126.0</ele><time>2026-05-04T13:34:33Z</time></trkpt><trkpt lat="45.003194594153385" lon="16.66625094097047"><ele>126.0</ele><time>2026-05-04T13:34:34Z</time></trkpt><trkpt lat="45.00331031844808" lon="16.66595473033748"><ele>126.66666666666666</ele><time>2026-05-04T13:34:35Z</time></trkpt><trkpt lat="45.00342118024991" lon="16.665673332351318"><ele>127.33333333333333</ele><time>2026-05-04T13:34:36Z</time></trkpt><trkpt lat="45.00352558362296" lon="16.66540716517245"><ele>128.0</ele><time>2026-05-04T13:34:37Z</time></trkpt><trkpt lat="45.00363114142568" lon="16.665145773747106"><ele>128.33333333333331</ele><time>2026-05-04T13:34:38Z</time></trkpt><trkpt lat="45.00373849989175" lon="16.66488225428671"><ele>128.66666666666666</ele><time>2026-05-04T13:34:39Z</time></trkpt><trkpt lat="45.003848308180785" lon="16.66461018416423"><ele>129.0</ele><time>2026-05-04T13:34:40Z</time></trkpt><trkpt lat="45.00395604558696" lon="16.66433763515455"><ele>129.0</ele><time>2026-05-04T13:34:41Z</time></trkpt><trkpt lat="45.0040659852207" lon="16.664066711768793"><ele>129.0</ele><time>2026-05-04T13:34:42Z</time></trkpt><trkpt lat="45.004174860594254" lon="16.663796585053475"><ele>129.0</ele><time>2026-05-04T13:34:43Z</time></trkpt><trkpt lat="45.00428144676694" lon="16.663525826765497"><ele>128.66666666666666</ele><time>2026-05-04T13:34:44Z</time></trkpt><trkpt lat="45.004384907742576" lon="16.663252135026898"><ele>128.33333333333331</ele><time>2026-05-04T13:34:45Z</time></trkpt><trkpt lat="45.00448630960267" lon="16.662979832892624"><ele>128.0</ele><time>2026-05-04T13:34:46Z</time></trkpt><trkpt lat="45.00458878386648" lon="16.662706401806528"><ele>128.0</ele><time>2026-05-04T13:34:47Z</time></trkpt><trkpt lat="45.004691861832136" lon="16.662436184943406"><ele>128.0</ele><time>2026-05-04T13:34:48Z</time></trkpt><trkpt lat="45.00479945390056" lon="16.662165645502146"><ele>128.0</ele><time>2026-05-04T13:34:49Z</time></trkpt><trkpt lat="45.00490799685873" lon="16.661894894513495"><ele>128.33333333333331</ele><time>2026-05-04T13:34:50Z</time></trkpt><trkpt lat="45.00501439894213" lon="16.661623047073114"><ele>128.66666666666666</ele><time>2026-05-04T13:34:51Z</time></trkpt><trkpt lat="45.00512261573566" lon="16.66134851967879"><ele>129.0</ele><time>2026-05-04T13:34:52Z</time></trkpt><trkpt lat="45.00523421565042" lon="16.661072439859996"><ele>129.0</ele><time>2026-05-04T13:34:53Z</time></trkpt><trkpt lat="45.00534157194412" lon="16.66080091232496"><ele>129.0</ele><time>2026-05-04T13:34:54Z</time></trkpt><trkpt lat="45.00544968744068" lon="16.660524210366038"><ele>129.0</ele><time>2026-05-04T13:34:55Z</time></trkpt><trkpt lat="45.00555859569357" lon="16.660247418369305"><ele>128.0</ele><time>2026-05-04T13:34:56Z</time></trkpt><trkpt lat="45.00566749750926" lon="16.659967708217508"><ele>127.0</ele><time>2026-05-04T13:34:57Z</time></trkpt><trkpt lat="45.005776437167576" lon="16.659690588937966"><ele>127.5</ele><time>2026-05-04T13:34:58Z</time></trkpt><trkpt lat="45.00588463962852" lon="16.659410881670986"><ele>128.0</ele><time>2026-05-04T13:34:59Z</time></trkpt><trkpt lat="45.00599155509831" lon="16.65912955413416"><ele>128.0</ele><time>2026-05-04T13:35:00Z</time></trkpt><trkpt lat="45.00610181837757" lon="16.658848405597304"><ele>128.0</ele><time>2026-05-04T13:35:01Z</time></trkpt><trkpt lat="45.00621199288271" lon="16.658570170422895"><ele>128.0</ele><time>2026-05-04T13:35:02Z</time></trkpt><trkpt lat="45.00632377986201" lon="16.658287710591775"><ele>128.0</ele><time>2026-05-04T13:35:03Z</time></trkpt><trkpt lat="45.00643609903292" lon="16.658011304441978"><ele>128.0</ele><time>2026-05-04T13:35:04Z</time></trkpt><trkpt lat="45.00654991192185" lon="16.65773181946068"><ele>128.0</ele><time>2026-05-04T13:35:05Z</time></trkpt><trkpt lat="45.00666167895899" lon="16.657455693839964"><ele>128.0</ele><time>2026-05-04T13:35:06Z</time></trkpt><trkpt lat="45.00677237921586" lon="16.657177432339267"><ele>128.0</ele><time>2026-05-04T13:35:07Z</time></trkpt><trkpt lat="45.00688345854031" lon="16.65690142930459"><ele>128.0</ele><time>2026-05-04T13:35:08Z</time></trkpt><trkpt lat="45.00699776995123" lon="16.656625198050367"><ele>128.0</ele><time>2026-05-04T13:35:09Z</time></trkpt><trkpt lat="45.00711524506792" lon="16.656353392243528"><ele>127.66666666666666</ele><time>2026-05-04T13:35:10Z</time></trkpt><trkpt lat="45.007234096995404" lon="16.65608609237586"><ele>127.33333333333334</ele><time>2026-05-04T13:35:11Z</time></trkpt><trkpt lat="45.007348759736324" lon="16.655819494138967"><ele>127.0</ele><time>2026-05-04T13:35:12Z</time></trkpt><trkpt lat="45.007465933573584" lon="16.65555227093302"><ele>127.66666666666667</ele><time>2026-05-04T13:35:13Z</time></trkpt><trkpt lat="45.00758440064136" lon="16.65528553920363"><ele>128.33333333333334</ele><time>2026-05-04T13:35:14Z</time></trkpt><trkpt lat="45.0077050808825" lon="16.655017498977408"><ele>129.0</ele><time>2026-05-04T13:35:15Z</time></trkpt><trkpt lat="45.007823182381024" lon="16.65475538492994"><ele>129.0</ele><time>2026-05-04T13:35:16Z</time></trkpt><trkpt lat="45.00794564925058" lon="16.654490956594927"><ele>129.0</ele><time>2026-05-04T13:35:17Z</time></trkpt><trkpt lat="45.00806215074179" lon="16.65423344271719"><ele>129.0</ele><time>2026-05-04T13:35:18Z</time></trkpt><trkpt lat="45.00816905978933" lon="16.654002102402075"><ele>129.66666666666666</ele><time>2026-05-04T13:35:19Z</time></trkpt><trkpt lat="45.008267163664634" lon="16.65378874147636"><ele>130.33333333333331</ele><time>2026-05-04T13:35:20Z</time></trkpt><trkpt lat="45.00835825645497" lon="16.65359059752146"><ele>131.0</ele><time>2026-05-04T13:35:21Z</time></trkpt><trkpt lat="45.00844445687577" lon="16.653402519746344"><ele>131.25</ele><time>2026-05-04T13:35:22Z</time></trkpt><trkpt lat="45.00852196509608" lon="16.653229971781073"><ele>131.5</ele><time>2026-05-04T13:35:23Z</time></trkpt><trkpt lat="45.008592950365305" lon="16.653070314679923"><ele>131.75</ele><time>2026-05-04T13:35:24Z</time></trkpt><trkpt lat="45.00866064281628" lon="16.652919664247182"><ele>132.0</ele><time>2026-05-04T13:35:25Z</time></trkpt><trkpt lat="45.00872445999138" lon="16.652778928760892"><ele>132.0</ele><time>2026-05-04T13:35:26Z</time></trkpt><trkpt lat="45.00878308708796" lon="16.65264524370234"><ele>132.0</ele><time>2026-05-04T13:35:27Z</time></trkpt><trkpt lat="45.00883924118799" lon="16.652513118842485"><ele>132.0</ele><time>2026-05-04T13:35:28Z</time></trkpt><trkpt lat="45.00889369450427" lon="16.652385776276763"><ele>132.0</ele><time>2026-05-04T13:35:29Z</time></trkpt><trkpt lat="45.00894702184725" lon="16.65225754497026"><ele>132.0</ele><time>2026-05-04T13:35:30Z</time></trkpt><trkpt lat="45.0089986089419" lon="16.652127603394913"><ele>132.0</ele><time>2026-05-04T13:35:31Z</time></trkpt><trkpt lat="45.00904993803616" lon="16.651994508186153"><ele>132.0</ele><time>2026-05-04T13:35:32Z</time></trkpt><trkpt lat="45.00909996052488" lon="16.651859415988856"><ele>132.0</ele><time>2026-05-04T13:35:33Z</time></trkpt><trkpt lat="45.009151823851376" lon="16.651724012439438"><ele>132.0</ele><time>2026-05-04T13:35:34Z</time></trkpt><trkpt lat="45.00920208226425" lon="16.651583486675143"><ele>132.0</ele><time>2026-05-04T13:35:35Z</time></trkpt><trkpt lat="45.00925134018776" lon="16.651448251461403"><ele>132.25</ele><time>2026-05-04T13:35:36Z</time></trkpt><trkpt lat="45.009304294246796" lon="16.651307320516327"><ele>132.5</ele><time>2026-05-04T13:35:37Z</time></trkpt><trkpt lat="45.00935369745399" lon="16.651164199970776"><ele>132.75</ele><time>2026-05-04T13:35:38Z</time></trkpt><trkpt lat="45.009402450572644" lon="16.65101358938081"><ele>133.0</ele><time>2026-05-04T13:35:39Z</time></trkpt><trkpt lat="45.009452683443456" lon="16.650856543760636"><ele>133.0</ele><time>2026-05-04T13:35:40Z</time></trkpt><trkpt lat="45.00950148859411" lon="16.650695814247534"><ele>133.0</ele><time>2026-05-04T13:35:41Z</time></trkpt><trkpt lat="45.00955331251566" lon="16.650528684484303"><ele>133.0</ele><time>2026-05-04T13:35:42Z</time></trkpt><trkpt lat="45.00960578067663" lon="16.65034854446528"><ele>133.0</ele><time>2026-05-04T13:35:43Z</time></trkpt><trkpt lat="45.009656158338146" lon="16.65018088940149"><ele>132.75</ele><time>2026-05-04T13:35:44Z</time></trkpt><trkpt lat="45.009701677873025" lon="16.650027704205755"><ele>132.5</ele><time>2026-05-04T13:35:45Z</time></trkpt><trkpt lat="45.00974854327318" lon="16.64988367347868"><ele>132.25</ele><time>2026-05-04T13:35:46Z</time></trkpt><trkpt lat="45.00979146694032" lon="16.64974131925355"><ele>132.0</ele><time>2026-05-04T13:35:47Z</time></trkpt><trkpt lat="45.00983558415142" lon="16.649594001283393"><ele>131.75</ele><time>2026-05-04T13:35:48Z</time></trkpt><trkpt lat="45.00988113257754" lon="16.64944693865889"><ele>131.5</ele><time>2026-05-04T13:35:49Z</time></trkpt><trkpt lat="45.00992878575705" lon="16.649293103674754"><ele>131.25</ele><time>2026-05-04T13:35:50Z</time></trkpt><trkpt lat="45.00997826448279" lon="16.649134142197855"><ele>131.0</ele><time>2026-05-04T13:35:51Z</time></trkpt><trkpt lat="45.01003179310716" lon="16.648972084314043"><ele>131.25</ele><time>2026-05-04T13:35:52Z</time></trkpt><trkpt lat="45.01008665634721" lon="16.648804480976192"><ele>131.5</ele><time>2026-05-04T13:35:53Z</time></trkpt><trkpt lat="45.01014409947501" lon="16.648637386573817"><ele>131.75</ele><time>2026-05-04T13:35:54Z</time></trkpt><trkpt lat="45.010203834494654" lon="16.64846019437832"><ele>132.0</ele><time>2026-05-04T13:35:55Z</time></trkpt><trkpt lat="45.01026525627626" lon="16.64828502782602"><ele>132.0</ele><time>2026-05-04T13:35:56Z</time></trkpt><trkpt lat="45.01033422201487" lon="16.648091863457548"><ele>132.0</ele><time>2026-05-04T13:35:57Z</time></trkpt><trkpt lat="45.010420079122945" lon="16.647869601698222"><ele>132.0</ele><time>2026-05-04T13:35:58Z</time></trkpt><trkpt lat="45.010516304076155" lon="16.64761301073746"><ele>131.0</ele><time>2026-05-04T13:35:59Z</time></trkpt><trkpt lat="45.01061474354057" lon="16.647326352260052"><ele>130.0</ele><time>2026-05-04T13:36:00Z</time></trkpt><trkpt lat="45.01073005107012" lon="16.646987378771687"><ele>130.5</ele><time>2026-05-04T13:36:01Z</time></trkpt><trkpt lat="45.01088541451281" lon="16.646617599303706"><ele>131.0</ele><time>2026-05-04T13:36:02Z</time></trkpt><trkpt lat="45.01106062343157" lon="16.646224893410135"><ele>130.0</ele><time>2026-05-04T13:36:03Z</time></trkpt><trkpt lat="45.011237221959256" lon="16.64579664220001"><ele>129.0</ele><time>2026-05-04T13:36:04Z</time></trkpt><trkpt lat="45.011401667553194" lon="16.645366827260325"><ele>130.0</ele><time>2026-05-04T13:36:05Z</time></trkpt><trkpt lat="45.0115590342787" lon="16.644958784853912"><ele>131.0</ele><time>2026-05-04T13:36:06Z</time></trkpt><trkpt lat="45.011708687954986" lon="16.644556212540316"><ele>130.0</ele><time>2026-05-04T13:36:07Z</time></trkpt><trkpt lat="45.01184341727688" lon="16.644143041990613"><ele>129.0</ele><time>2026-05-04T13:36:08Z</time></trkpt><trkpt lat="45.01195513459507" lon="16.643734179557253"><ele>129.5</ele><time>2026-05-04T13:36:09Z</time></trkpt><trkpt lat="45.01204459139496" lon="16.643323648851453"><ele>130.0</ele><time>2026-05-04T13:36:10Z</time></trkpt><trkpt lat="45.01210704731648" lon="16.64291177474097"><ele>129.5</ele><time>2026-05-04T13:36:11Z</time></trkpt><trkpt lat="45.012144737655795" lon="16.642492319605875"><ele>129.0</ele><time>2026-05-04T13:36:12Z</time></trkpt><trkpt lat="45.012161192062685" lon="16.642075630868767"><ele>129.0</ele><time>2026-05-04T13:36:13Z</time></trkpt><trkpt lat="45.012160998322685" lon="16.64166640876769"><ele>129.0</ele><time>2026-05-04T13:36:14Z</time></trkpt><trkpt lat="45.01214646938669" lon="16.641258949780593"><ele>129.5</ele><time>2026-05-04T13:36:15Z</time></trkpt><trkpt lat="45.01213917829547" lon="16.64085304884743"><ele>130.0</ele><time>2026-05-04T13:36:16Z</time></trkpt><trkpt lat="45.01214438077682" lon="16.640456288117818"><ele>130.0</ele><time>2026-05-04T13:36:17Z</time></trkpt><trkpt lat="45.01215053187265" lon="16.64006523662402"><ele>130.0</ele><time>2026-05-04T13:36:18Z</time></trkpt><trkpt lat="45.012159184045" lon="16.639685995418862"><ele>128.5</ele><time>2026-05-04T13:36:19Z</time></trkpt><trkpt lat="45.012172722646945" lon="16.63932302079561"><ele>127.0</ele><time>2026-05-04T13:36:20Z</time></trkpt><trkpt lat="45.012195991131236" lon="16.638976569704205"><ele>127.0</ele><time>2026-05-04T13:36:21Z</time></trkpt><trkpt lat="45.01223286746345" lon="16.638660850412677"><ele>127.0</ele><time>2026-05-04T13:36:22Z</time></trkpt><trkpt lat="45.01228557085675" lon="16.638366989889803"><ele>127.0</ele><time>2026-05-04T13:36:23Z</time></trkpt><trkpt lat="45.012345074802326" lon="16.638103169522502"><ele>127.0</ele><time>2026-05-04T13:36:24Z</time></trkpt><trkpt lat="45.0124125657522" lon="16.637871411765765"><ele>127.0</ele><time>2026-05-04T13:36:25Z</time></trkpt><trkpt lat="45.012483808037146" lon="16.637653587369773"><ele>127.0</ele><time>2026-05-04T13:36:26Z</time></trkpt><trkpt lat="45.01256110443734" lon="16.63742578032699"><ele>127.33333333333334</ele><time>2026-05-04T13:36:27Z</time></trkpt><trkpt lat="45.01264686393435" lon="16.63719287722807"><ele>127.66666666666666</ele><time>2026-05-04T13:36:28Z</time></trkpt><trkpt lat="45.012738273239876" lon="16.63696795189961"><ele>128.0</ele><time>2026-05-04T13:36:29Z</time></trkpt><trkpt lat="45.01283168045303" lon="16.63676547841916"><ele>128.0</ele><time>2026-05-04T13:36:30Z</time></trkpt><trkpt lat="45.012942150654595" lon="16.636559029462482"><ele>128.0</ele><time>2026-05-04T13:36:31Z</time></trkpt><trkpt lat="45.0130641670463" lon="16.63636438253239"><ele>128.0</ele><time>2026-05-04T13:36:32Z</time></trkpt><trkpt lat="45.01318801850273" lon="16.636179147306876"><ele>127.66666666666666</ele><time>2026-05-04T13:36:33Z</time></trkpt><trkpt lat="45.013318537411266" lon="16.63599471046321"><ele>127.33333333333334</ele><time>2026-05-04T13:36:34Z</time></trkpt><trkpt lat="45.013476402436844" lon="16.635790363120236"><ele>127.0</ele><time>2026-05-04T13:36:35Z</time></trkpt><trkpt lat="45.013670576435445" lon="16.63557939853016"><ele>127.0</ele><time>2026-05-04T13:36:36Z</time></trkpt><trkpt lat="45.01389396156023" lon="16.63539358378509"><ele>127.0</ele><time>2026-05-04T13:36:37Z</time></trkpt><trkpt lat="45.01413636812355" lon="16.635225517428726"><ele>127.0</ele><time>2026-05-04T13:36:38Z</time></trkpt><trkpt lat="45.014394125389074" lon="16.635067192426884"><ele>127.0</ele><time>2026-05-04T13:36:39Z</time></trkpt><trkpt lat="45.01465932472511" lon="16.63492688346304"><ele>127.0</ele><time>2026-05-04T13:36:40Z</time></trkpt><trkpt lat="45.01493716013208" lon="16.634815156921782"><ele>127.0</ele><time>2026-05-04T13:36:41Z</time></trkpt><trkpt lat="45.015231394895636" lon="16.634737428657193"><ele>127.0</ele><time>2026-05-04T13:36:42Z</time></trkpt><trkpt lat="45.01553418696286" lon="16.634699758480725"><ele>127.0</ele><time>2026-05-04T13:36:43Z</time></trkpt><trkpt lat="45.01584638837592" lon="16.634688201496626"><ele>127.5</ele><time>2026-05-04T13:36:44Z</time></trkpt><trkpt lat="45.016180583046605" lon="16.63469037368958"><ele>128.0</ele><time>2026-05-04T13:36:45Z</time></trkpt><trkpt lat="45.01653469292755" lon="16.634696778381993"><ele>128.5</ele><time>2026-05-04T13:36:46Z</time></trkpt><trkpt lat="45.01689944862815" lon="16.634707679087633"><ele>129.0</ele><time>2026-05-04T13:36:47Z</time></trkpt><trkpt lat="45.01726183601343" lon="16.634713093811374"><ele>129.0</ele><time>2026-05-04T13:36:48Z</time></trkpt><trkpt lat="45.01761167653455" lon="16.63471355350647"><ele>129.0</ele><time>2026-05-04T13:36:49Z</time></trkpt><trkpt lat="45.017948359342576" lon="16.634707550905887"><ele>129.0</ele><time>2026-05-04T13:36:50Z</time></trkpt><trkpt lat="45.018281117454656" lon="16.63469866428504"><ele>129.0</ele><time>2026-05-04T13:36:51Z</time></trkpt><trkpt lat="45.018608652262344" lon="16.63467945129495"><ele>128.5</ele><time>2026-05-04T13:36:52Z</time></trkpt><trkpt lat="45.018935214067106" lon="16.634649913444754"><ele>128.0</ele><time>2026-05-04T13:36:53Z</time></trkpt><trkpt lat="45.019261638853266" lon="16.63461365918377"><ele>130.0</ele><time>2026-05-04T13:36:54Z</time></trkpt><trkpt lat="45.019585618845475" lon="16.634567439617"><ele>132.0</ele><time>2026-05-04T13:36:55Z</time></trkpt><trkpt lat="45.01989107912264" lon="16.634519790334565"><ele>130.0</ele><time>2026-05-04T13:36:56Z</time></trkpt><trkpt lat="45.02018705493952" lon="16.634467441819165"><ele>128.0</ele><time>2026-05-04T13:36:57Z</time></trkpt><trkpt lat="45.02047315401387" lon="16.634411845852622"><ele>128.0</ele><time>2026-05-04T13:36:58Z</time></trkpt><trkpt lat="45.020754663156325" lon="16.63435411424919"><ele>128.0</ele><time>2026-05-04T13:36:59Z</time></trkpt><trkpt lat="45.02103221724894" lon="16.634296358087614"><ele>128.5</ele><time>2026-05-04T13:37:00Z</time></trkpt><trkpt lat="45.02130562480956" lon="16.63423844276152"><ele>129.0</ele><time>2026-05-04T13:37:01Z</time></trkpt><trkpt lat="45.02157738234675" lon="16.634180945228703"><ele>129.5</ele><time>2026-05-04T13:37:02Z</time></trkpt><trkpt lat="45.021843107904914" lon="16.63412377313996"><ele>130.0</ele><time>2026-05-04T13:37:03Z</time></trkpt><trkpt lat="45.02210159826935" lon="16.634065769779454"><ele>130.0</ele><time>2026-05-04T13:37:04Z</time></trkpt><trkpt lat="45.022357381576086" lon="16.6340039283478"><ele>130.0</ele><time>2026-05-04T13:37:05Z</time></trkpt><trkpt lat="45.02260590862085" lon="16.6339378983597"><ele>128.5</ele><time>2026-05-04T13:37:06Z</time></trkpt><trkpt lat="45.0228492912293" lon="16.63386164409653"><ele>127.0</ele><time>2026-05-04T13:37:07Z</time></trkpt><trkpt lat="45.02308412606412" lon="16.633764204711827"><ele>127.5</ele><time>2026-05-04T13:37:08Z</time></trkpt><trkpt lat="45.023316250093096" lon="16.633638040270498"><ele>128.0</ele><time>2026-05-04T13:37:09Z</time></trkpt><trkpt lat="45.02353937506148" lon="16.633503564166507"><ele>128.0</ele><time>2026-05-04T13:37:10Z</time></trkpt><trkpt lat="45.02373790474427" lon="16.633364038912074"><ele>128.0</ele><time>2026-05-04T13:37:11Z</time></trkpt><trkpt lat="45.02391321182739" lon="16.633236994288215"><ele>128.0</ele><time>2026-05-04T13:37:12Z</time></trkpt><trkpt lat="45.024078142854414" lon="16.633115147009725"><ele>128.33333333333331</ele><time>2026-05-04T13:37:13Z</time></trkpt><trkpt lat="45.02424315217759" lon="16.632988297256606"><ele>128.66666666666666</ele><time>2026-05-04T13:37:14Z</time></trkpt><trkpt lat="45.0244096346962" lon="16.632856586679836"><ele>129.0</ele><time>2026-05-04T13:37:15Z</time></trkpt><trkpt lat="45.02458046590063" lon="16.632724932868662"><ele>129.0</ele><time>2026-05-04T13:37:16Z</time></trkpt><trkpt lat="45.02475313685963" lon="16.63259422389594"><ele>129.0</ele><time>2026-05-04T13:37:17Z</time></trkpt><trkpt lat="45.02492921970438" lon="16.632457624175018"><ele>129.0</ele><time>2026-05-04T13:37:18Z</time></trkpt><trkpt lat="45.02510918932746" lon="16.632311851727902"><ele>128.66666666666666</ele><time>2026-05-04T13:37:19Z</time></trkpt><trkpt lat="45.02528557086426" lon="16.632151806756276"><ele>128.33333333333331</ele><time>2026-05-04T13:37:20Z</time></trkpt><trkpt lat="45.02545963941562" lon="16.63196911917172"><ele>128.0</ele><time>2026-05-04T13:37:21Z</time></trkpt><trkpt lat="45.02563088035741" lon="16.631760016715333"><ele>128.0</ele><time>2026-05-04T13:37:22Z</time></trkpt><trkpt lat="45.02579265727874" lon="16.63153344909696"><ele>128.0</ele><time>2026-05-04T13:37:23Z</time></trkpt><trkpt lat="45.02594762232072" lon="16.631289488528722"><ele>128.0</ele><time>2026-05-04T13:37:24Z</time></trkpt><trkpt lat="45.02608733026962" lon="16.631020372998794"><ele>128.0</ele><time>2026-05-04T13:37:25Z</time></trkpt><trkpt lat="45.02621882792622" lon="16.630733220508773"><ele>128.0</ele><time>2026-05-04T13:37:26Z</time></trkpt><trkpt lat="45.026331005599495" lon="16.630443224768737"><ele>128.0</ele><time>2026-05-04T13:37:27Z</time></trkpt><trkpt lat="45.026423436067326" lon="16.630136371071824"><ele>128.5</ele><time>2026-05-04T13:37:28Z</time></trkpt><trkpt lat="45.02650018802633" lon="16.62982791636875"><ele>129.0</ele><time>2026-05-04T13:37:29Z</time></trkpt><trkpt lat="45.026563111529825" lon="16.62951829700184"><ele>129.0</ele><time>2026-05-04T13:37:30Z</time></trkpt><trkpt lat="45.02660887199104" lon="16.629176647230157"><ele>129.0</ele><time>2026-05-04T13:37:31Z</time></trkpt><trkpt lat="45.026640939439304" lon="16.62884130361287"><ele>131.5</ele><time>2026-05-04T13:37:32Z</time></trkpt><trkpt lat="45.02666159554075" lon="16.628507934022068"><ele>134.0</ele><time>2026-05-04T13:37:33Z</time></trkpt><trkpt lat="45.02668445638207" lon="16.62818215188062"><ele>134.0</ele><time>2026-05-04T13:37:34Z</time></trkpt><trkpt lat="45.02670731854911" lon="16.627855029544115"><ele>134.0</ele><time>2026-05-04T13:37:35Z</time></trkpt><trkpt lat="45.02673292252368" lon="16.627541402844383"><ele>133.66666666666666</ele><time>2026-05-04T13:37:36Z</time></trkpt><trkpt lat="45.026751942466916" lon="16.62722378014435"><ele>133.33333333333334</ele><time>2026-05-04T13:37:37Z</time></trkpt><trkpt lat="45.026768137549325" lon="16.6269090259588"><ele>133.0</ele><time>2026-05-04T13:37:38Z</time></trkpt><trkpt lat="45.02678430588648" lon="16.6265927523164"><ele>132.66666666666669</ele><time>2026-05-04T13:37:39Z</time></trkpt><trkpt lat="45.02679250977476" lon="16.62627765825095"><ele>132.33333333333334</ele><time>2026-05-04T13:37:40Z</time></trkpt><trkpt lat="45.026794408033105" lon="16.62597110516143"><ele>132.0</ele><time>2026-05-04T13:37:41Z</time></trkpt><trkpt lat="45.02678776397319" lon="16.625661417027498"><ele>133.0</ele><time>2026-05-04T13:37:42Z</time></trkpt><trkpt lat="45.02678169435093" lon="16.62535564096952"><ele>134.0</ele><time>2026-05-04T13:37:43Z</time></trkpt><trkpt lat="45.026767821548326" lon="16.625044689254334"><ele>135.0</ele><time>2026-05-04T13:37:44Z</time></trkpt><trkpt lat="45.02674532048368" lon="16.62472493337229"><ele>135.5</ele><time>2026-05-04T13:37:45Z</time></trkpt><trkpt lat="45.02671606429659" lon="16.62439700355815"><ele>136.0</ele><time>2026-05-04T13:37:46Z</time></trkpt><trkpt lat="45.02667923825769" lon="16.624058432017048"><ele>132.0</ele><time>2026-05-04T13:37:47Z</time></trkpt><trkpt lat="45.02664401164941" lon="16.62371867391182"><ele>128.0</ele><time>2026-05-04T13:37:48Z</time></trkpt><trkpt lat="45.02661058127901" lon="16.623382994215497"><ele>126.5</ele><time>2026-05-04T13:37:49Z</time></trkpt><trkpt lat="45.02657597904763" lon="16.623052294300187"><ele>125.0</ele><time>2026-05-04T13:37:50Z</time></trkpt><trkpt lat="45.026539897902545" lon="16.622720025683602"><ele>125.0</ele><time>2026-05-04T13:37:51Z</time></trkpt><trkpt lat="45.02650285843445" lon="16.622391459062975"><ele>125.0</ele><time>2026-05-04T13:37:52Z</time></trkpt><trkpt lat="45.0264638417911" lon="16.622068742118994"><ele>125.5</ele><time>2026-05-04T13:37:53Z</time></trkpt><trkpt lat="45.02641986369928" lon="16.62175406540432"><ele>126.0</ele><time>2026-05-04T13:37:54Z</time></trkpt><trkpt lat="45.02636842608454" lon="16.621439817896217"><ele>126.0</ele><time>2026-05-04T13:37:55Z</time></trkpt><trkpt lat="45.02631188888732" lon="16.621139393710315"><ele>126.0</ele><time>2026-05-04T13:37:56Z</time></trkpt><trkpt lat="45.02624256332008" lon="16.62083128948502"><ele>126.0</ele><time>2026-05-04T13:37:57Z</time></trkpt><trkpt lat="45.026170922425734" lon="16.620529867995412"><ele>128.0</ele><time>2026-05-04T13:37:58Z</time></trkpt><trkpt lat="45.02608734672507" lon="16.62023224116036"><ele>130.0</ele><time>2026-05-04T13:37:59Z</time></trkpt><trkpt lat="45.025996046778495" lon="16.619940022385105"><ele>130.0</ele><time>2026-05-04T13:38:00Z</time></trkpt><trkpt lat="45.025892580378034" lon="16.619655529275075"><ele>130.0</ele><time>2026-05-04T13:38:01Z</time></trkpt><trkpt lat="45.0257831032784" lon="16.619371508644775"><ele>128.0</ele><time>2026-05-04T13:38:02Z</time></trkpt><trkpt lat="45.025666642563294" lon="16.619092162761607"><ele>126.0</ele><time>2026-05-04T13:38:03Z</time></trkpt><trkpt lat="45.02555213986951" lon="16.618817739519557"><ele>127.0</ele><time>2026-05-04T13:38:04Z</time></trkpt><trkpt lat="45.02542578731962" lon="16.61854373547234"><ele>128.0</ele><time>2026-05-04T13:38:05Z</time></trkpt><trkpt lat="45.02530007677419" lon="16.618276478688298"><ele>128.0</ele><time>2026-05-04T13:38:06Z</time></trkpt><trkpt lat="45.025173225370736" lon="16.618020317817773"><ele>128.0</ele><time>2026-05-04T13:38:07Z</time></trkpt><trkpt lat="45.025038869961875" lon="16.617757429059793"><ele>128.0</ele><time>2026-05-04T13:38:08Z</time></trkpt><trkpt lat="45.02490591327087" lon="16.617489636260277"><ele>128.0</ele><time>2026-05-04T13:38:09Z</time></trkpt><trkpt lat="45.02478393923349" lon="16.617224166675808"><ele>128.5</ele><time>2026-05-04T13:38:10Z</time></trkpt><trkpt lat="45.02466072830979" lon="16.61695807426977"><ele>129.0</ele><time>2026-05-04T13:38:11Z</time></trkpt><trkpt lat="45.02453263640112" lon="16.61669584170467"><ele>129.0</ele><time>2026-05-04T13:38:12Z</time></trkpt><trkpt lat="45.02440076518239" lon="16.616435650130082"><ele>129.0</ele><time>2026-05-04T13:38:13Z</time></trkpt><trkpt lat="45.024265084001954" lon="16.61617486914662"><ele>128.5</ele><time>2026-05-04T13:38:14Z</time></trkpt><trkpt lat="45.02412392445687" lon="16.615925304101165"><ele>128.0</ele><time>2026-05-04T13:38:15Z</time></trkpt><trkpt lat="45.02397568060273" lon="16.61568303023403"><ele>128.0</ele><time>2026-05-04T13:38:16Z</time></trkpt><trkpt lat="45.02381826889158" lon="16.615450593457606"><ele>128.0</ele><time>2026-05-04T13:38:17Z</time></trkpt><trkpt lat="45.02365479129425" lon="16.615223294854452"><ele>129.0</ele><time>2026-05-04T13:38:18Z</time></trkpt><trkpt lat="45.02348964607666" lon="16.615011936790065"><ele>130.0</ele><time>2026-05-04T13:38:19Z</time></trkpt><trkpt lat="45.02331324264152" lon="16.6148024560505"><ele>130.0</ele><time>2026-05-04T13:38:20Z</time></trkpt><trkpt lat="45.023135988358476" lon="16.614603363264123"><ele>130.0</ele><time>2026-05-04T13:38:21Z</time></trkpt><trkpt lat="45.02295390155763" lon="16.61440947426178"><ele>130.0</ele><time>2026-05-04T13:38:22Z</time></trkpt><trkpt lat="45.0227639838597" lon="16.614223092031505"><ele>130.0</ele><time>2026-05-04T13:38:23Z</time></trkpt><trkpt lat="45.02257332028733" lon="16.614051379760173"><ele>128.0</ele><time>2026-05-04T13:38:24Z</time></trkpt><trkpt lat="45.02237763016395" lon="16.613876591988458"><ele>126.0</ele><time>2026-05-04T13:38:25Z</time></trkpt><trkpt lat="45.02218674843326" lon="16.613704094813933"><ele>129.5</ele><time>2026-05-04T13:38:26Z</time></trkpt><trkpt lat="45.02199302734178" lon="16.61353173675716"><ele>133.0</ele><time>2026-05-04T13:38:27Z</time></trkpt><trkpt lat="45.0218010821913" lon="16.613364380246743"><ele>129.5</ele><time>2026-05-04T13:38:28Z</time></trkpt><trkpt lat="45.021604908188124" lon="16.61319886195115"><ele>126.0</ele><time>2026-05-04T13:38:29Z</time></trkpt><trkpt lat="45.02140755138427" lon="16.61304736714457"><ele>126.0</ele><time>2026-05-04T13:38:30Z</time></trkpt><trkpt lat="45.02118929969845" lon="16.612902603403693"><ele>126.0</ele><time>2026-05-04T13:38:31Z</time></trkpt><trkpt lat="45.02095631092904" lon="16.612791225561498"><ele>132.5</ele><time>2026-05-04T13:38:32Z</time></trkpt><trkpt lat="45.02071206368371" lon="16.612719785190563"><ele>139.0</ele><time>2026-05-04T13:38:33Z</time></trkpt><trkpt lat="45.020459880776045" lon="16.61267783799704"><ele>139.0</ele><time>2026-05-04T13:38:34Z</time></trkpt><trkpt lat="45.0202062190279" lon="16.612672872580912"><ele>139.0</ele><time>2026-05-04T13:38:35Z</time></trkpt><trkpt lat="45.01995144577204" lon="16.612695967304784"><ele>142.5</ele><time>2026-05-04T13:38:36Z</time></trkpt><trkpt lat="45.019691912207556" lon="16.612738542044976"><ele>146.0</ele><time>2026-05-04T13:38:37Z</time></trkpt><trkpt lat="45.01943789755411" lon="16.612790466547956"><ele>137.0</ele><time>2026-05-04T13:38:38Z</time></trkpt><trkpt lat="45.01918391449887" lon="16.61284336658157"><ele>128.0</ele><time>2026-05-04T13:38:39Z</time></trkpt><trkpt lat="45.018926808963094" lon="16.612879509372956"><ele>128.0</ele><time>2026-05-04T13:38:40Z</time></trkpt><trkpt lat="45.018671715952756" lon="16.612893822689117"><ele>128.0</ele><time>2026-05-04T13:38:41Z</time></trkpt><trkpt lat="45.018419227761775" lon="16.6128867406067"><ele>126.0</ele><time>2026-05-04T13:38:42Z</time></trkpt><trkpt lat="45.018165502338114" lon="16.612857064620624"><ele>124.0</ele><time>2026-05-04T13:38:43Z</time></trkpt><trkpt lat="45.01792060788076" lon="16.612794346720275"><ele>126.0</ele><time>2026-05-04T13:38:44Z</time></trkpt><trkpt lat="45.017675810990845" lon="16.612702458017232"><ele>128.0</ele><time>2026-05-04T13:38:45Z</time></trkpt><trkpt lat="45.01743859217424" lon="16.612586189129168"><ele>128.0</ele><time>2026-05-04T13:38:46Z</time></trkpt><trkpt lat="45.017205531177446" lon="16.612453103126533"><ele>128.0</ele><time>2026-05-04T13:38:47Z</time></trkpt><trkpt lat="45.01697508616412" lon="16.61231245566357"><ele>128.0</ele><time>2026-05-04T13:38:48Z</time></trkpt><trkpt lat="45.016745798446244" lon="16.612178484232153"><ele>128.0</ele><time>2026-05-04T13:38:49Z</time></trkpt><trkpt lat="45.01652514664865" lon="16.612050924749724"><ele>129.5</ele><time>2026-05-04T13:38:50Z</time></trkpt><trkpt lat="45.016307636728776" lon="16.611926044926385"><ele>131.0</ele><time>2026-05-04T13:38:51Z</time></trkpt><trkpt lat="45.01609362389643" lon="16.611807607714734"><ele>131.0</ele><time>2026-05-04T13:38:52Z</time></trkpt><trkpt lat="45.01588193419097" lon="16.6116876237498"><ele>131.0</ele><time>2026-05-04T13:38:53Z</time></trkpt><trkpt lat="45.01568011542188" lon="16.611568118273734"><ele>131.0</ele><time>2026-05-04T13:38:54Z</time></trkpt><trkpt lat="45.015476497133356" lon="16.611443897998903"><ele>130.33333333333331</ele><time>2026-05-04T13:38:55Z</time></trkpt><trkpt lat="45.015275787532396" lon="16.611318690545538"><ele>129.66666666666666</ele><time>2026-05-04T13:38:56Z</time></trkpt><trkpt lat="45.01507526273982" lon="16.611187774481987"><ele>129.0</ele><time>2026-05-04T13:38:57Z</time></trkpt><trkpt lat="45.01488039411304" lon="16.611052538677043"><ele>129.0</ele><time>2026-05-04T13:38:58Z</time></trkpt><trkpt lat="45.01468758882545" lon="16.61090858165008"><ele>129.0</ele><time>2026-05-04T13:38:59Z</time></trkpt><trkpt lat="45.014495895076315" lon="16.61076218405537"><ele>129.0</ele><time>2026-05-04T13:39:00Z</time></trkpt><trkpt lat="45.014308353008595" lon="16.610610742429397"><ele>129.0</ele><time>2026-05-04T13:39:01Z</time></trkpt><trkpt lat="45.014126890591655" lon="16.610452237400462"><ele>129.0</ele><time>2026-05-04T13:39:02Z</time></trkpt><trkpt lat="45.01394633210624" lon="16.610284752668623"><ele>129.0</ele><time>2026-05-04T13:39:03Z</time></trkpt><trkpt lat="45.01376203014757" lon="16.610103421383517"><ele>129.0</ele><time>2026-05-04T13:39:04Z</time></trkpt><trkpt lat="45.013577204166445" lon="16.609910347824524"><ele>129.0</ele><time>2026-05-04T13:39:05Z</time></trkpt><trkpt lat="45.01339399458336" lon="16.609707160820495"><ele>129.5</ele><time>2026-05-04T13:39:06Z</time></trkpt><trkpt lat="45.013211938133125" lon="16.60949076422721"><ele>130.0</ele><time>2026-05-04T13:39:07Z</time></trkpt><trkpt lat="45.013034478283934" lon="16.609268449322467"><ele>130.0</ele><time>2026-05-04T13:39:08Z</time></trkpt><trkpt lat="45.01285957506253" lon="16.609038874649144"><ele>130.0</ele><time>2026-05-04T13:39:09Z</time></trkpt><trkpt lat="45.012686153509016" lon="16.60879357268426"><ele>127.5</ele><time>2026-05-04T13:39:10Z</time></trkpt><trkpt lat="45.01252187133311" lon="16.608543177701723"><ele>125.0</ele><time>2026-05-04T13:39:11Z</time></trkpt><trkpt lat="45.0123655688102" lon="16.608281940339552"><ele>125.0</ele><time>2026-05-04T13:39:12Z</time></trkpt><trkpt lat="45.01221919874607" lon="16.60800741278776"><ele>125.0</ele><time>2026-05-04T13:39:13Z</time></trkpt><trkpt lat="45.012080963876336" lon="16.60774215758566"><ele>125.5</ele><time>2026-05-04T13:39:14Z</time></trkpt><trkpt lat="45.01194129797708" lon="16.60746611999299"><ele>126.0</ele><time>2026-05-04T13:39:15Z</time></trkpt><trkpt lat="45.01181071010113" lon="16.60717930643037"><ele>126.5</ele><time>2026-05-04T13:39:16Z</time></trkpt><trkpt lat="45.0116839523593" lon="16.606888693559767"><ele>127.0</ele><time>2026-05-04T13:39:17Z</time></trkpt><trkpt lat="45.01156508440922" lon="16.606590414667775"><ele>127.0</ele><time>2026-05-04T13:39:18Z</time></trkpt><trkpt lat="45.01145366434956" lon="16.60628234442002"><ele>127.0</ele><time>2026-05-04T13:39:19Z</time></trkpt><trkpt lat="45.011351095738526" lon="16.60596977145626"><ele>126.0</ele><time>2026-05-04T13:39:20Z</time></trkpt><trkpt lat="45.01116721520454" lon="16.605336980483404"><ele>126.5</ele><time>2026-05-04T13:39:22Z</time></trkpt><trkpt lat="45.01108812225769" lon="16.60501482708843"><ele>127.0</ele><time>2026-05-04T13:39:23Z</time></trkpt><trkpt lat="45.01102340523951" lon="16.604695402045568"><ele>127.0</ele><time>2026-05-04T13:39:24Z</time></trkpt><trkpt lat="45.01096589279808" lon="16.60437646029754"><ele>127.0</ele><time>2026-05-04T13:39:25Z</time></trkpt><trkpt lat="45.010910625277035" lon="16.60406186843718"><ele>127.0</ele><time>2026-05-04T13:39:26Z</time></trkpt><trkpt lat="45.01086247504169" lon="16.60375455850074"><ele>127.0</ele><time>2026-05-04T13:39:27Z</time></trkpt><trkpt lat="45.010818831896756" lon="16.60343895941365"><ele>125.5</ele><time>2026-05-04T13:39:28Z</time></trkpt><trkpt lat="45.010777999878975" lon="16.603116594365506"><ele>124.0</ele><time>2026-05-04T13:39:29Z</time></trkpt><trkpt lat="45.01073996613768" lon="16.602792616756577"><ele>124.0</ele><time>2026-05-04T13:39:30Z</time></trkpt><trkpt lat="45.010702338700476" lon="16.602470855102652"><ele>124.0</ele><time>2026-05-04T13:39:31Z</time></trkpt><trkpt lat="45.01066418836654" lon="16.60214786176538"><ele>125.5</ele><time>2026-05-04T13:39:32Z</time></trkpt><trkpt lat="45.01062843944" lon="16.601827578446706"><ele>127.0</ele><time>2026-05-04T13:39:33Z</time></trkpt><trkpt lat="45.010591435103315" lon="16.601509190803608"><ele>127.0</ele><time>2026-05-04T13:39:34Z</time></trkpt><trkpt lat="45.01055611201095" lon="16.60119258728582"><ele>127.0</ele><time>2026-05-04T13:39:35Z</time></trkpt><trkpt lat="45.0105191634634" lon="16.600878630438846"><ele>126.66666666666667</ele><time>2026-05-04T13:39:36Z</time></trkpt><trkpt lat="45.01048595193919" lon="16.600564699395612"><ele>126.33333333333334</ele><time>2026-05-04T13:39:37Z</time></trkpt><trkpt lat="45.010447172524586" lon="16.600252850941946"><ele>126.0</ele><time>2026-05-04T13:39:38Z</time></trkpt><trkpt lat="45.01042058396146" lon="16.59993410710551"><ele>126.0</ele><time>2026-05-04T13:39:39Z</time></trkpt><trkpt lat="45.01039013475357" lon="16.59961451112973"><ele>126.0</ele><time>2026-05-04T13:39:40Z</time></trkpt><trkpt lat="45.01035339397972" lon="16.599284808922935"><ele>126.5</ele><time>2026-05-04T13:39:41Z</time></trkpt><trkpt lat="45.01031173371805" lon="16.598934241931882"><ele>127.0</ele><time>2026-05-04T13:39:42Z</time></trkpt><trkpt lat="45.01027102639438" lon="16.598572958241657"><ele>127.5</ele><time>2026-05-04T13:39:43Z</time></trkpt><trkpt lat="45.010235007900704" lon="16.59822243844043"><ele>128.0</ele><time>2026-05-04T13:39:44Z</time></trkpt><trkpt lat="45.010198292721995" lon="16.59789101421906"><ele>128.33333333333331</ele><time>2026-05-04T13:39:45Z</time></trkpt><trkpt lat="45.01016402628864" lon="16.597576906928815"><ele>128.66666666666666</ele><time>2026-05-04T13:39:46Z</time></trkpt><trkpt lat="45.010136889346334" lon="16.59727392262615"><ele>129.0</ele><time>2026-05-04T13:39:47Z</time></trkpt><trkpt lat="45.01011161872448" lon="16.59695330540131"><ele>130.0</ele><time>2026-05-04T13:39:48Z</time></trkpt><trkpt lat="45.01009680145713" lon="16.596615387366075"><ele>131.0</ele><time>2026-05-04T13:39:49Z</time></trkpt><trkpt lat="45.01008866179045" lon="16.596244675510565"><ele>131.0</ele><time>2026-05-04T13:39:50Z</time></trkpt><trkpt lat="45.010103753005005" lon="16.59585066931249"><ele>131.0</ele><time>2026-05-04T13:39:51Z</time></trkpt><trkpt lat="45.01015017146609" lon="16.595467722442887"><ele>130.0</ele><time>2026-05-04T13:39:52Z</time></trkpt><trkpt lat="45.01020310447152" lon="16.595119566637127"><ele>129.0</ele><time>2026-05-04T13:39:53Z</time></trkpt><trkpt lat="45.01025679624342" lon="16.59477361975485"><ele>129.0</ele><time>2026-05-04T13:39:54Z</time></trkpt><trkpt lat="45.0103173423265" lon="16.594436985550566"><ele>129.0</ele><time>2026-05-04T13:39:55Z</time></trkpt><trkpt lat="45.010388885178564" lon="16.594114390195834"><ele>129.0</ele><time>2026-05-04T13:39:56Z</time></trkpt><trkpt lat="45.010471628614" lon="16.59380343131471"><ele>129.0</ele><time>2026-05-04T13:39:57Z</time></trkpt><trkpt lat="45.010566373298786" lon="16.593499681755222"><ele>129.5</ele><time>2026-05-04T13:39:58Z</time></trkpt><trkpt lat="45.01066765982493" lon="16.59319807593779"><ele>130.0</ele><time>2026-05-04T13:39:59Z</time></trkpt><trkpt lat="45.01078123708966" lon="16.592911598841763"><ele>129.0</ele><time>2026-05-04T13:40:00Z</time></trkpt><trkpt lat="45.010902786182086" lon="16.592632566447"><ele>128.0</ele><time>2026-05-04T13:40:01Z</time></trkpt><trkpt lat="45.01103484604665" lon="16.592364576988633"><ele>128.0</ele><time>2026-05-04T13:40:02Z</time></trkpt><trkpt lat="45.011175873237704" lon="16.592098929353817"><ele>128.0</ele><time>2026-05-04T13:40:03Z</time></trkpt><trkpt lat="45.01132400878627" lon="16.591847394676993"><ele>127.5</ele><time>2026-05-04T13:40:04Z</time></trkpt><trkpt lat="45.01148157475943" lon="16.591601386583427"><ele>127.0</ele><time>2026-05-04T13:40:05Z</time></trkpt><trkpt lat="45.011638298165536" lon="16.591366715249023"><ele>127.0</ele><time>2026-05-04T13:40:06Z</time></trkpt><trkpt lat="45.01180885147547" lon="16.591142046828512"><ele>127.0</ele><time>2026-05-04T13:40:07Z</time></trkpt><trkpt lat="45.011979751278695" lon="16.5909244758716"><ele>127.0</ele><time>2026-05-04T13:40:08Z</time></trkpt><trkpt lat="45.01216075548502" lon="16.590707341295396"><ele>127.0</ele><time>2026-05-04T13:40:09Z</time></trkpt><trkpt lat="45.01233265867867" lon="16.590492220834168"><ele>128.0</ele><time>2026-05-04T13:40:10Z</time></trkpt><trkpt lat="45.01250693146955" lon="16.590274439055577"><ele>129.0</ele><time>2026-05-04T13:40:11Z</time></trkpt><trkpt lat="45.01268401244042" lon="16.59005491515001"><ele>129.0</ele><time>2026-05-04T13:40:12Z</time></trkpt><trkpt lat="45.01285887944531" lon="16.589835829642453"><ele>129.0</ele><time>2026-05-04T13:40:13Z</time></trkpt><trkpt lat="45.013032457882936" lon="16.58961924606972"><ele>129.0</ele><time>2026-05-04T13:40:14Z</time></trkpt><trkpt lat="45.01321185659717" lon="16.58939434152157"><ele>129.0</ele><time>2026-05-04T13:40:15Z</time></trkpt><trkpt lat="45.01339279387827" lon="16.58916893621133"><ele>129.0</ele><time>2026-05-04T13:40:16Z</time></trkpt><trkpt lat="45.013577405352756" lon="16.588958916530753"><ele>129.0</ele><time>2026-05-04T13:40:17Z</time></trkpt><trkpt lat="45.01374736684306" lon="16.588738478129425"><ele>127.0</ele><time>2026-05-04T13:40:18Z</time></trkpt><trkpt lat="45.01391594743226" lon="16.588523763836758"><ele>125.0</ele><time>2026-05-04T13:40:19Z</time></trkpt><trkpt lat="45.0140964520172" lon="16.58830564077279"><ele>127.5</ele><time>2026-05-04T13:40:20Z</time></trkpt><trkpt lat="45.014272309369986" lon="16.588090893660073"><ele>130.0</ele><time>2026-05-04T13:40:21Z</time></trkpt><trkpt lat="45.01444664557722" lon="16.587873417635908"><ele>127.5</ele><time>2026-05-04T13:40:22Z</time></trkpt><trkpt lat="45.01462626725848" lon="16.58765203793376"><ele>125.0</ele><time>2026-05-04T13:40:23Z</time></trkpt><trkpt lat="45.0148026705354" lon="16.5874358912543"><ele>125.0</ele><time>2026-05-04T13:40:24Z</time></trkpt><trkpt lat="45.01497070001461" lon="16.587223861899318"><ele>125.0</ele><time>2026-05-04T13:40:25Z</time></trkpt><trkpt lat="45.01514244096277" lon="16.58701042724884"><ele>125.5</ele><time>2026-05-04T13:40:26Z</time></trkpt><trkpt lat="45.01531140056089" lon="16.586801388019765"><ele>126.0</ele><time>2026-05-04T13:40:27Z</time></trkpt><trkpt lat="45.01548470506561" lon="16.586593783533008"><ele>126.0</ele><time>2026-05-04T13:40:28Z</time></trkpt><trkpt lat="45.015656124093574" lon="16.586384500248254"><ele>126.0</ele><time>2026-05-04T13:40:29Z</time></trkpt><trkpt lat="45.01582711723952" lon="16.5861682303665"><ele>126.0</ele><time>2026-05-04T13:40:30Z</time></trkpt><trkpt lat="45.0159965790738" lon="16.58595308616305"><ele>126.0</ele><time>2026-05-04T13:40:31Z</time></trkpt><trkpt lat="45.01616450595527" lon="16.585747694791824"><ele>126.0</ele><time>2026-05-04T13:40:32Z</time></trkpt><trkpt lat="45.016328225645395" lon="16.58554437877246"><ele>126.0</ele><time>2026-05-04T13:40:33Z</time></trkpt><trkpt lat="45.01649307929348" lon="16.585338117979635"><ele>126.0</ele><time>2026-05-04T13:40:34Z</time></trkpt><trkpt lat="45.01665785342935" lon="16.585132395473615"><ele>125.5</ele><time>2026-05-04T13:40:35Z</time></trkpt><trkpt lat="45.01682786455497" lon="16.584921659161523"><ele>125.0</ele><time>2026-05-04T13:40:36Z</time></trkpt><trkpt lat="45.016999088578714" lon="16.584711252183304"><ele>124.0</ele><time>2026-05-04T13:40:37Z</time></trkpt><trkpt lat="45.01717381099799" lon="16.58449613759276"><ele>123.0</ele><time>2026-05-04T13:40:38Z</time></trkpt><trkpt lat="45.01735166211879" lon="16.5842758824838"><ele>124.5</ele><time>2026-05-04T13:40:39Z</time></trkpt><trkpt lat="45.017526459043545" lon="16.5840578668699"><ele>126.0</ele><time>2026-05-04T13:40:40Z</time></trkpt><trkpt lat="45.01770753426253" lon="16.583827343899618"><ele>125.5</ele><time>2026-05-04T13:40:41Z</time></trkpt><trkpt lat="45.01788617157217" lon="16.583602666610354"><ele>125.0</ele><time>2026-05-04T13:40:42Z</time></trkpt><trkpt lat="45.01806567640158" lon="16.583382001704024"><ele>125.0</ele><time>2026-05-04T13:40:43Z</time></trkpt><trkpt lat="45.018242331874774" lon="16.583164286843466"><ele>125.0</ele><time>2026-05-04T13:40:44Z</time></trkpt><trkpt lat="45.01841466383693" lon="16.582949119053225"><ele>125.0</ele><time>2026-05-04T13:40:45Z</time></trkpt><trkpt lat="45.01858733998371" lon="16.58273884993494"><ele>125.0</ele><time>2026-05-04T13:40:46Z</time></trkpt><trkpt lat="45.01875634075872" lon="16.58253191695926"><ele>125.0</ele><time>2026-05-04T13:40:47Z</time></trkpt><trkpt lat="45.0189265118195" lon="16.582321569783197"><ele>125.0</ele><time>2026-05-04T13:40:48Z</time></trkpt><trkpt lat="45.019091757190694" lon="16.58211552495736"><ele>125.0</ele><time>2026-05-04T13:40:49Z</time></trkpt><trkpt lat="45.01925806619607" lon="16.581906083549562"><ele>125.0</ele><time>2026-05-04T13:40:50Z</time></trkpt><trkpt lat="45.01942746413491" lon="16.581694823322472"><ele>125.0</ele><time>2026-05-04T13:40:51Z</time></trkpt><trkpt lat="45.01959572462622" lon="16.581485870452788"><ele>125.0</ele><time>2026-05-04T13:40:52Z</time></trkpt><trkpt lat="45.019766453553004" lon="16.58127384667933"><ele>125.0</ele><time>2026-05-04T13:40:53Z</time></trkpt><trkpt lat="45.01993745179198" lon="16.581055668729125"><ele>124.5</ele><time>2026-05-04T13:40:54Z</time></trkpt><trkpt lat="45.02011273463018" lon="16.58081950019679"><ele>124.0</ele><time>2026-05-04T13:40:55Z</time></trkpt><trkpt lat="45.020298613735605" lon="16.580570340958076"><ele>123.5</ele><time>2026-05-04T13:40:56Z</time></trkpt><trkpt lat="45.020489972125844" lon="16.580322553964585"><ele>123.0</ele><time>2026-05-04T13:40:57Z</time></trkpt><trkpt lat="45.020687821944485" lon="16.5800796436721"><ele>124.0</ele><time>2026-05-04T13:40:58Z</time></trkpt><trkpt lat="45.02088636154876" lon="16.579841999822765"><ele>125.0</ele><time>2026-05-04T13:40:59Z</time></trkpt><trkpt lat="45.021085922269485" lon="16.57960885576608"><ele>124.5</ele><time>2026-05-04T13:41:00Z</time></trkpt><trkpt lat="45.021287595925635" lon="16.57937849137707"><ele>124.0</ele><time>2026-05-04T13:41:01Z</time></trkpt><trkpt lat="45.021484158563915" lon="16.57915444296309"><ele>124.5</ele><time>2026-05-04T13:41:02Z</time></trkpt><trkpt lat="45.021678172672" lon="16.578916018146767"><ele>125.0</ele><time>2026-05-04T13:41:03Z</time></trkpt><trkpt lat="45.02186560569841" lon="16.578677198518385"><ele>125.0</ele><time>2026-05-04T13:41:04Z</time></trkpt><trkpt lat="45.02204526508356" lon="16.578441344909592"><ele>125.0</ele><time>2026-05-04T13:41:05Z</time></trkpt><trkpt lat="45.022226040815056" lon="16.57819234726945"><ele>125.0</ele><time>2026-05-04T13:41:06Z</time></trkpt><trkpt lat="45.022409280907205" lon="16.577927377557987"><ele>125.0</ele><time>2026-05-04T13:41:07Z</time></trkpt><trkpt lat="45.0225984152984" lon="16.57764126773216"><ele>125.0</ele><time>2026-05-04T13:41:08Z</time></trkpt><trkpt lat="45.02279214041129" lon="16.577341990369234"><ele>125.0</ele><time>2026-05-04T13:41:09Z</time></trkpt><trkpt lat="45.0229854568546" lon="16.577053229508543"><ele>124.0</ele><time>2026-05-04T13:41:10Z</time></trkpt><trkpt lat="45.02316322450363" lon="16.576793082345894"><ele>123.0</ele><time>2026-05-04T13:41:11Z</time></trkpt><trkpt lat="45.023314633953014" lon="16.576556033420346"><ele>124.0</ele><time>2026-05-04T13:41:12Z</time></trkpt><trkpt lat="45.02343256989699" lon="16.576340842617988"><ele>125.0</ele><time>2026-05-04T13:41:13Z</time></trkpt><trkpt lat="45.023534549521386" lon="16.576129236974577"><ele>126.0</ele><time>2026-05-04T13:41:14Z</time></trkpt><trkpt lat="45.023639515165044" lon="16.57591678005012"><ele>126.0</ele><time>2026-05-04T13:41:15Z</time></trkpt><trkpt lat="45.02374607912474" lon="16.57569099640608"><ele>126.0</ele><time>2026-05-04T13:41:16Z</time></trkpt><trkpt lat="45.02385143578689" lon="16.57546454656798"><ele>126.0</ele><time>2026-05-04T13:41:17Z</time></trkpt><trkpt lat="45.023958134510025" lon="16.575234296397245"><ele>126.66666666666666</ele><time>2026-05-04T13:41:18Z</time></trkpt><trkpt lat="45.024062193162464" lon="16.57500165189239"><ele>127.33333333333333</ele><time>2026-05-04T13:41:19Z</time></trkpt><trkpt lat="45.02416136499903" lon="16.574764526676322"><ele>128.0</ele><time>2026-05-04T13:41:20Z</time></trkpt><trkpt lat="45.02426081790399" lon="16.574519170889584"><ele>128.0</ele><time>2026-05-04T13:41:21Z</time></trkpt><trkpt lat="45.024353173860156" lon="16.574272753557246"><ele>128.0</ele><time>2026-05-04T13:41:22Z</time></trkpt><trkpt lat="45.024442474522985" lon="16.574024196003176"><ele>128.0</ele><time>2026-05-04T13:41:23Z</time></trkpt><trkpt lat="45.02453427786248" lon="16.573761968163332"><ele>126.5</ele><time>2026-05-04T13:41:24Z</time></trkpt><trkpt lat="45.02462336068519" lon="16.573475051948517"><ele>125.0</ele><time>2026-05-04T13:41:25Z</time></trkpt><trkpt lat="45.024720935820284" lon="16.5731633529742"><ele>124.0</ele><time>2026-05-04T13:41:26Z</time></trkpt><trkpt lat="45.02482145954605" lon="16.57284448780275"><ele>123.0</ele><time>2026-05-04T13:41:27Z</time></trkpt><trkpt lat="45.02493251791402" lon="16.57253110975269"><ele>124.5</ele><time>2026-05-04T13:41:28Z</time></trkpt><trkpt lat="45.02504493287854" lon="16.57221537029332"><ele>126.0</ele><time>2026-05-04T13:41:29Z</time></trkpt><trkpt lat="45.0251628877061" lon="16.571899357092494"><ele>126.0</ele><time>2026-05-04T13:41:30Z</time></trkpt><trkpt lat="45.02528477702648" lon="16.57157097747078"><ele>126.0</ele><time>2026-05-04T13:41:31Z</time></trkpt><trkpt lat="45.025405735921595" lon="16.571231123892073"><ele>126.0</ele><time>2026-05-04T13:41:32Z</time></trkpt><trkpt lat="45.02552258363581" lon="16.570875100692987"><ele>126.0</ele><time>2026-05-04T13:41:33Z</time></trkpt><trkpt lat="45.02563605397352" lon="16.57051446569992"><ele>125.0</ele><time>2026-05-04T13:41:34Z</time></trkpt><trkpt lat="45.02573922472385" lon="16.570137125356702"><ele>124.0</ele><time>2026-05-04T13:41:35Z</time></trkpt><trkpt lat="45.02583488063398" lon="16.56971222801234"><ele>128.5</ele><time>2026-05-04T13:41:36Z</time></trkpt><trkpt lat="45.02593849393861" lon="16.569240633313452"><ele>133.0</ele><time>2026-05-04T13:41:37Z</time></trkpt><trkpt lat="45.02604906771042" lon="16.568742319308676"><ele>130.0</ele><time>2026-05-04T13:41:38Z</time></trkpt><trkpt lat="45.02616337326771" lon="16.568222545618152"><ele>127.0</ele><time>2026-05-04T13:41:39Z</time></trkpt><trkpt lat="45.02627807475994" lon="16.5676775285364"><ele>126.0</ele><time>2026-05-04T13:41:40Z</time></trkpt><trkpt lat="45.02638806613037" lon="16.56711329047054"><ele>125.0</ele><time>2026-05-04T13:41:41Z</time></trkpt><trkpt lat="45.02649030611379" lon="16.5665848339778"><ele>124.0</ele><time>2026-05-04T13:41:42Z</time></trkpt><trkpt lat="45.026588274440805" lon="16.566081827038587"><ele>123.0</ele><time>2026-05-04T13:41:43Z</time></trkpt><trkpt lat="45.02668491249493" lon="16.565610643830276"><ele>125.5</ele><time>2026-05-04T13:41:44Z</time></trkpt><trkpt lat="45.026774372530014" lon="16.565165613729363"><ele>128.0</ele><time>2026-05-04T13:41:45Z</time></trkpt><trkpt lat="45.026858190326834" lon="16.564735535954128"><ele>126.5</ele><time>2026-05-04T13:41:46Z</time></trkpt><trkpt lat="45.02693526606078" lon="16.564332745936305"><ele>125.0</ele><time>2026-05-04T13:41:47Z</time></trkpt><trkpt lat="45.02699955677675" lon="16.563950691598407"><ele>124.0</ele><time>2026-05-04T13:41:48Z</time></trkpt><trkpt lat="45.02705116437046" lon="16.5635769805774"><ele>123.0</ele><time>2026-05-04T13:41:49Z</time></trkpt><trkpt lat="45.02709463406606" lon="16.563182916085335"><ele>122.5</ele><time>2026-05-04T13:41:50Z</time></trkpt><trkpt lat="45.02711999799372" lon="16.562771147101383"><ele>122.0</ele><time>2026-05-04T13:41:51Z</time></trkpt><trkpt lat="45.02713470463995" lon="16.562332843354934"><ele>123.0</ele><time>2026-05-04T13:41:52Z</time></trkpt><trkpt lat="45.027143285326915" lon="16.56188840979132"><ele>124.0</ele><time>2026-05-04T13:41:53Z</time></trkpt><trkpt lat="45.02714850984843" lon="16.561463001333735"><ele>125.0</ele><time>2026-05-04T13:41:54Z</time></trkpt><trkpt lat="45.027157831487735" lon="16.561038611539708"><ele>126.0</ele><time>2026-05-04T13:41:55Z</time></trkpt><trkpt lat="45.02717094188855" lon="16.56061900445756"><ele>125.5</ele><time>2026-05-04T13:41:56Z</time></trkpt><trkpt lat="45.02718979636132" lon="16.5602000494398"><ele>125.0</ele><time>2026-05-04T13:41:57Z</time></trkpt><trkpt lat="45.0272308259753" lon="16.559769569885265"><ele>124.0</ele><time>2026-05-04T13:41:58Z</time></trkpt><trkpt lat="45.0272975650605" lon="16.559331072186595"><ele>123.0</ele><time>2026-05-04T13:41:59Z</time></trkpt><trkpt lat="45.02739749774999" lon="16.558873593425155"><ele>126.5</ele><time>2026-05-04T13:42:00Z</time></trkpt><trkpt lat="45.027518663070104" lon="16.55842543512082"><ele>130.0</ele><time>2026-05-04T13:42:01Z</time></trkpt><trkpt lat="45.02766070369722" lon="16.557999690232986"><ele>128.0</ele><time>2026-05-04T13:42:02Z</time></trkpt><trkpt lat="45.02781879067947" lon="16.55758717023342"><ele>126.0</ele><time>2026-05-04T13:42:03Z</time></trkpt><trkpt lat="45.027995806574104" lon="16.557180425358958"><ele>124.5</ele><time>2026-05-04T13:42:04Z</time></trkpt><trkpt lat="45.028173469153266" lon="16.55677738086959"><ele>123.0</ele><time>2026-05-04T13:42:05Z</time></trkpt><trkpt lat="45.02834530614681" lon="16.556382950822005"><ele>125.0</ele><time>2026-05-04T13:42:06Z</time></trkpt><trkpt lat="45.028512920644225" lon="16.55599046478685"><ele>127.0</ele><time>2026-05-04T13:42:07Z</time></trkpt><trkpt lat="45.028690484199345" lon="16.555598618521643"><ele>125.5</ele><time>2026-05-04T13:42:08Z</time></trkpt><trkpt lat="45.02889179800366" lon="16.555202376881173"><ele>124.0</ele><time>2026-05-04T13:42:09Z</time></trkpt><trkpt lat="45.02910359319865" lon="16.55481802211248"><ele>125.0</ele><time>2026-05-04T13:42:10Z</time></trkpt><trkpt lat="45.0293291252042" lon="16.554444142710757"><ele>126.0</ele><time>2026-05-04T13:42:11Z</time></trkpt><trkpt lat="45.02958025794544" lon="16.55406090476975"><ele>125.0</ele><time>2026-05-04T13:42:12Z</time></trkpt><trkpt lat="45.0298552178296" lon="16.553671197526437"><ele>124.0</ele><time>2026-05-04T13:42:13Z</time></trkpt><trkpt lat="45.030130752519476" lon="16.55327948815252"><ele>125.5</ele><time>2026-05-04T13:42:14Z</time></trkpt><trkpt lat="45.03038564174867" lon="16.552878789613015"><ele>127.0</ele><time>2026-05-04T13:42:15Z</time></trkpt><trkpt lat="45.030612060849045" lon="16.552481548324728"><ele>127.0</ele><time>2026-05-04T13:42:16Z</time></trkpt><trkpt lat="45.03080028206519" lon="16.55208971698233"><ele>127.0</ele><time>2026-05-04T13:42:17Z</time></trkpt><trkpt lat="45.030964240778246" lon="16.551702405378887"><ele>127.5</ele><time>2026-05-04T13:42:18Z</time></trkpt><trkpt lat="45.03111194967246" lon="16.551316932541717"><ele>128.0</ele><time>2026-05-04T13:42:19Z</time></trkpt><trkpt lat="45.031229509318266" lon="16.55094092736272"><ele>126.5</ele><time>2026-05-04T13:42:20Z</time></trkpt><trkpt lat="45.03133565164132" lon="16.55056655490481"><ele>125.0</ele><time>2026-05-04T13:42:21Z</time></trkpt><trkpt lat="45.03143970123083" lon="16.550194437841615"><ele>124.5</ele><time>2026-05-04T13:42:22Z</time></trkpt><trkpt lat="45.03154083965479" lon="16.549822771088525"><ele>124.0</ele><time>2026-05-04T13:42:23Z</time></trkpt><trkpt lat="45.03164418937195" lon="16.54945293183322"><ele>124.0</ele><time>2026-05-04T13:42:24Z</time></trkpt><trkpt lat="45.03175281848316" lon="16.54908960219898"><ele>124.0</ele><time>2026-05-04T13:42:25Z</time></trkpt><trkpt lat="45.03186425472905" lon="16.548726264667696"><ele>124.0</ele><time>2026-05-04T13:42:26Z</time></trkpt><trkpt lat="45.031982501719945" lon="16.54835743759222"><ele>124.0</ele><time>2026-05-04T13:42:27Z</time></trkpt><trkpt lat="45.03210536502359" lon="16.54799551093743"><ele>124.0</ele><time>2026-05-04T13:42:28Z</time></trkpt><trkpt lat="45.032230973976525" lon="16.54762954045912"><ele>124.0</ele><time>2026-05-04T13:42:29Z</time></trkpt><trkpt lat="45.03235943663087" lon="16.547274311253044"><ele>123.5</ele><time>2026-05-04T13:42:30Z</time></trkpt><trkpt lat="45.03249182464398" lon="16.546918372306827"><ele>123.0</ele><time>2026-05-04T13:42:31Z</time></trkpt><trkpt lat="45.03262933892894" lon="16.546564380034845"><ele>123.0</ele><time>2026-05-04T13:42:32Z</time></trkpt><trkpt lat="45.03276896271608" lon="16.54621892352137"><ele>123.0</ele><time>2026-05-04T13:42:33Z</time></trkpt><trkpt lat="45.03291356279881" lon="16.545877078263466"><ele>123.5</ele><time>2026-05-04T13:42:34Z</time></trkpt><trkpt lat="45.03305912720554" lon="16.545533070674704"><ele>124.0</ele><time>2026-05-04T13:42:35Z</time></trkpt><trkpt lat="45.033204842422904" lon="16.545195462898363"><ele>124.0</ele><time>2026-05-04T13:42:36Z</time></trkpt><trkpt lat="45.03335009948153" lon="16.54485226939773"><ele>124.0</ele><time>2026-05-04T13:42:37Z</time></trkpt><trkpt lat="45.033491659095255" lon="16.5445121484223"><ele>123.5</ele><time>2026-05-04T13:42:38Z</time></trkpt><trkpt lat="45.03363028110591" lon="16.54417551000579"><ele>123.0</ele><time>2026-05-04T13:42:39Z</time></trkpt><trkpt lat="45.033760027720035" lon="16.543861259028972"><ele>123.0</ele><time>2026-05-04T13:42:40Z</time></trkpt><trkpt lat="45.03388765344396" lon="16.543551931166856"><ele>123.0</ele><time>2026-05-04T13:42:41Z</time></trkpt><trkpt lat="45.034012532612714" lon="16.54325575356775"><ele>123.0</ele><time>2026-05-04T13:42:42Z</time></trkpt><trkpt lat="45.03413354998225" lon="16.542969314364733"><ele>123.0</ele><time>2026-05-04T13:42:43Z</time></trkpt><trkpt lat="45.03425641963958" lon="16.542685405129138"><ele>123.5</ele><time>2026-05-04T13:42:44Z</time></trkpt><trkpt lat="45.03437900674972" lon="16.542394973310003"><ele>124.0</ele><time>2026-05-04T13:42:45Z</time></trkpt><trkpt lat="45.034502134764864" lon="16.542106263637095"><ele>123.0</ele><time>2026-05-04T13:42:46Z</time></trkpt><trkpt lat="45.03462640604272" lon="16.54181713439047"><ele>122.0</ele><time>2026-05-04T13:42:47Z</time></trkpt><trkpt lat="45.03475084379651" lon="16.541524036394826"><ele>122.0</ele><time>2026-05-04T13:42:48Z</time></trkpt><trkpt lat="45.0348745747272" lon="16.541235098846613"><ele>122.0</ele><time>2026-05-04T13:42:49Z</time></trkpt><trkpt lat="45.03499801352607" lon="16.540943203175654"><ele>122.5</ele><time>2026-05-04T13:42:50Z</time></trkpt><trkpt lat="45.035120579574226" lon="16.54065082495101"><ele>123.0</ele><time>2026-05-04T13:42:51Z</time></trkpt><trkpt lat="45.03524323751873" lon="16.540360299555214"><ele>123.0</ele><time>2026-05-04T13:42:52Z</time></trkpt><trkpt lat="45.03536821481388" lon="16.540066392044377"><ele>123.0</ele><time>2026-05-04T13:42:53Z</time></trkpt><trkpt lat="45.03549464227327" lon="16.539771655531734"><ele>123.0</ele><time>2026-05-04T13:42:54Z</time></trkpt><trkpt lat="45.03562218600538" lon="16.539471786548397"><ele>123.0</ele><time>2026-05-04T13:42:55Z</time></trkpt><trkpt lat="45.03574969734185" lon="16.53916894122386"><ele>123.5</ele><time>2026-05-04T13:42:56Z</time></trkpt><trkpt lat="45.035874985536566" lon="16.538873574296172"><ele>124.0</ele><time>2026-05-04T13:42:57Z</time></trkpt><trkpt lat="45.03600046855969" lon="16.538576031280215"><ele>124.0</ele><time>2026-05-04T13:42:58Z</time></trkpt><trkpt lat="45.03612587443457" lon="16.538282241920317"><ele>124.0</ele><time>2026-05-04T13:42:59Z</time></trkpt><trkpt lat="45.036250388619315" lon="16.53799322773852"><ele>123.5</ele><time>2026-05-04T13:43:00Z</time></trkpt><trkpt lat="45.03637076922531" lon="16.53770822198057"><ele>123.0</ele><time>2026-05-04T13:43:01Z</time></trkpt><trkpt lat="45.03649092093729" lon="16.537420773028348"><ele>123.0</ele><time>2026-05-04T13:43:02Z</time></trkpt><trkpt lat="45.03660948978648" lon="16.537135800651463"><ele>123.0</ele><time>2026-05-04T13:43:03Z</time></trkpt><trkpt lat="45.036723202299335" lon="16.536840919620378"><ele>124.5</ele><time>2026-05-04T13:43:04Z</time></trkpt><trkpt lat="45.03682855640793" lon="16.536555802893968"><ele>126.0</ele><time>2026-05-04T13:43:05Z</time></trkpt><trkpt lat="45.03692937767255" lon="16.536267768889683"><ele>125.0</ele><time>2026-05-04T13:43:06Z</time></trkpt><trkpt lat="45.037028803048074" lon="16.53596454584977"><ele>124.0</ele><time>2026-05-04T13:43:07Z</time></trkpt><trkpt lat="45.03711944729111" lon="16.535666118097406"><ele>123.0</ele><time>2026-05-04T13:43:08Z</time></trkpt><trkpt lat="45.03720703483549" lon="16.53536184751482"><ele>122.0</ele><time>2026-05-04T13:43:09Z</time></trkpt><trkpt lat="45.037290262532736" lon="16.535049235710094"><ele>122.0</ele><time>2026-05-04T13:43:10Z</time></trkpt><trkpt lat="45.03737031239476" lon="16.534732658102833"><ele>122.0</ele><time>2026-05-04T13:43:11Z</time></trkpt><trkpt lat="45.037447077345455" lon="16.534415202416888"><ele>123.5</ele><time>2026-05-04T13:43:12Z</time></trkpt><trkpt lat="45.03751611113279" lon="16.534103712769735"><ele>125.0</ele><time>2026-05-04T13:43:13Z</time></trkpt><trkpt lat="45.03757926442059" lon="16.53379626494651"><ele>125.0</ele><time>2026-05-04T13:43:14Z</time></trkpt><trkpt lat="45.037632583887714" lon="16.53350085303923"><ele>125.0</ele><time>2026-05-04T13:43:15Z</time></trkpt><trkpt lat="45.03767683345985" lon="16.533222536089145"><ele>125.0</ele><time>2026-05-04T13:43:16Z</time></trkpt><trkpt lat="45.03771582647891" lon="16.532945723502902"><ele>124.66666666666666</ele><time>2026-05-04T13:43:17Z</time></trkpt><trkpt lat="45.037751775520874" lon="16.532655051199196"><ele>124.33333333333334</ele><time>2026-05-04T13:43:18Z</time></trkpt><trkpt lat="45.037785375333414" lon="16.532370872200282"><ele>124.0</ele><time>2026-05-04T13:43:19Z</time></trkpt><trkpt lat="45.03781540059087" lon="16.532076077443282"><ele>124.0</ele><time>2026-05-04T13:43:20Z</time></trkpt><trkpt lat="45.03784400551668" lon="16.53177712847532"><ele>124.0</ele><time>2026-05-04T13:43:21Z</time></trkpt><trkpt lat="45.037868208796766" lon="16.53148144101096"><ele>124.0</ele><time>2026-05-04T13:43:22Z</time></trkpt><trkpt lat="45.0378840147975" lon="16.53118760304369"><ele>123.66666666666667</ele><time>2026-05-04T13:43:23Z</time></trkpt><trkpt lat="45.03789592931766" lon="16.530898331328913"><ele>123.33333333333334</ele><time>2026-05-04T13:43:24Z</time></trkpt><trkpt lat="45.03789804660988" lon="16.53061424213829"><ele>123.0</ele><time>2026-05-04T13:43:25Z</time></trkpt><trkpt lat="45.037892523447404" lon="16.530327172643272"><ele>122.66666666666666</ele><time>2026-05-04T13:43:26Z</time></trkpt><trkpt lat="45.037884325875815" lon="16.53004862340551"><ele>122.33333333333333</ele><time>2026-05-04T13:43:27Z</time></trkpt><trkpt lat="45.03787163832829" lon="16.529765367239747"><ele>122.0</ele><time>2026-05-04T13:43:28Z</time></trkpt><trkpt lat="45.03785988488127" lon="16.52948426314074"><ele>123.33333333333333</ele><time>2026-05-04T13:43:29Z</time></trkpt><trkpt lat="45.037845790231685" lon="16.52920144987464"><ele>124.66666666666666</ele><time>2026-05-04T13:43:30Z</time></trkpt><trkpt lat="45.03783302764145" lon="16.528928470788298"><ele>126.0</ele><time>2026-05-04T13:43:31Z</time></trkpt><trkpt lat="45.03781772083922" lon="16.52863646169946"><ele>126.0</ele><time>2026-05-04T13:43:32Z</time></trkpt><trkpt lat="45.03778938382779" lon="16.528354845355473"><ele>126.0</ele><time>2026-05-04T13:43:33Z</time></trkpt><trkpt lat="45.03774766153101" lon="16.52807619608307"><ele>126.0</ele><time>2026-05-04T13:43:34Z</time></trkpt><trkpt lat="45.03769937739309" lon="16.52780673111632"><ele>127.0</ele><time>2026-05-04T13:43:35Z</time></trkpt><trkpt lat="45.037651694347765" lon="16.52752553155271"><ele>128.0</ele><time>2026-05-04T13:43:36Z</time></trkpt><trkpt lat="45.037609411446745" lon="16.52724526186176"><ele>129.0</ele><time>2026-05-04T13:43:37Z</time></trkpt><trkpt lat="45.037566095270584" lon="16.52696556779056"><ele>130.0</ele><time>2026-05-04T13:43:38Z</time></trkpt><trkpt lat="45.03751903029894" lon="16.526674512630112"><ele>131.0</ele><time>2026-05-04T13:43:39Z</time></trkpt><trkpt lat="45.03747183086523" lon="16.52638943252633"><ele>132.0</ele><time>2026-05-04T13:43:40Z</time></trkpt><trkpt lat="45.037423040637286" lon="16.526094258991694"><ele>128.66666666666666</ele><time>2026-05-04T13:43:41Z</time></trkpt><trkpt lat="45.037369512109024" lon="16.525786548851467"><ele>125.33333333333333</ele><time>2026-05-04T13:43:42Z</time></trkpt><trkpt lat="45.037310901134205" lon="16.52548307880986"><ele>122.0</ele><time>2026-05-04T13:43:43Z</time></trkpt><trkpt lat="45.0372517367599" lon="16.525185074729706"><ele>121.5</ele><time>2026-05-04T13:43:44Z</time></trkpt><trkpt lat="45.03718474133319" lon="16.52487573226903"><ele>121.0</ele><time>2026-05-04T13:43:45Z</time></trkpt><trkpt lat="45.03711585828284" lon="16.524564350245864"><ele>121.5</ele><time>2026-05-04T13:43:46Z</time></trkpt><trkpt lat="45.0370450914646" lon="16.524255596163805"><ele>122.0</ele><time>2026-05-04T13:43:47Z</time></trkpt><trkpt lat="45.0369719461038" lon="16.52393931887866"><ele>123.0</ele><time>2026-05-04T13:43:48Z</time></trkpt><trkpt lat="45.036898710208284" lon="16.52362275435027"><ele>124.0</ele><time>2026-05-04T13:43:49Z</time></trkpt><trkpt lat="45.036825850207904" lon="16.52330234985509"><ele>124.0</ele><time>2026-05-04T13:43:50Z</time></trkpt><trkpt lat="45.03675164864085" lon="16.522978779778832"><ele>124.0</ele><time>2026-05-04T13:43:51Z</time></trkpt><trkpt lat="45.03667764623707" lon="16.522645759450988"><ele>124.0</ele><time>2026-05-04T13:43:52Z</time></trkpt><trkpt lat="45.03660735939158" lon="16.522312497401266"><ele>124.0</ele><time>2026-05-04T13:43:53Z</time></trkpt><trkpt lat="45.03652886463143" lon="16.521964626374615"><ele>123.0</ele><time>2026-05-04T13:43:54Z</time></trkpt><trkpt lat="45.036443481105884" lon="16.521603750723205"><ele>122.0</ele><time>2026-05-04T13:43:55Z</time></trkpt><trkpt lat="45.03635689994902" lon="16.52123579293134"><ele>122.0</ele><time>2026-05-04T13:43:56Z</time></trkpt><trkpt lat="45.03626811819459" lon="16.52085134632303"><ele>122.0</ele><time>2026-05-04T13:43:57Z</time></trkpt><trkpt lat="45.03617941670669" lon="16.52046564701923"><ele>123.0</ele><time>2026-05-04T13:43:58Z</time></trkpt><trkpt lat="45.036087383937655" lon="16.520068398594127"><ele>124.0</ele><time>2026-05-04T13:43:59Z</time></trkpt><trkpt lat="45.035999643502926" lon="16.51968126574997"><ele>125.5</ele><time>2026-05-04T13:44:00Z</time></trkpt><trkpt lat="45.03591196238351" lon="16.519275772540453"><ele>127.0</ele><time>2026-05-04T13:44:01Z</time></trkpt><trkpt lat="45.035822452745286" lon="16.518861863998357"><ele>123.0</ele><time>2026-05-04T13:44:02Z</time></trkpt><trkpt lat="45.03573440932034" lon="16.518451169528568"><ele>119.0</ele><time>2026-05-04T13:44:03Z</time></trkpt><trkpt lat="45.03564063737932" lon="16.51802333312838"><ele>120.0</ele><time>2026-05-04T13:44:04Z</time></trkpt><trkpt lat="45.03555059543688" lon="16.517598178670337"><ele>121.0</ele><time>2026-05-04T13:44:05Z</time></trkpt><trkpt lat="45.03546368263255" lon="16.51716113796549"><ele>120.5</ele><time>2026-05-04T13:44:06Z</time></trkpt><trkpt lat="45.03538468129099" lon="16.516721374487474"><ele>120.0</ele><time>2026-05-04T13:44:07Z</time></trkpt><trkpt lat="45.035316041407405" lon="16.51627655042989"><ele>119.5</ele><time>2026-05-04T13:44:08Z</time></trkpt><trkpt lat="45.03526382886202" lon="16.51583006188897"><ele>119.0</ele><time>2026-05-04T13:44:09Z</time></trkpt><trkpt lat="45.03522529473069" lon="16.515378863672076"><ele>121.0</ele><time>2026-05-04T13:44:10Z</time></trkpt><trkpt lat="45.0351981470571" lon="16.51493111747048"><ele>123.0</ele><time>2026-05-04T13:44:11Z</time></trkpt><trkpt lat="45.03518155381286" lon="16.5144893320976"><ele>123.0</ele><time>2026-05-04T13:44:12Z</time></trkpt><trkpt lat="45.03517707194116" lon="16.51404314995558"><ele>123.0</ele><time>2026-05-04T13:44:13Z</time></trkpt><trkpt lat="45.035182322256254" lon="16.51359322068159"><ele>123.5</ele><time>2026-05-04T13:44:14Z</time></trkpt><trkpt lat="45.035193305220815" lon="16.513140932976594"><ele>124.0</ele><time>2026-05-04T13:44:15Z</time></trkpt><trkpt lat="45.0352074663826" lon="16.51268938892149"><ele>124.5</ele><time>2026-05-04T13:44:16Z</time></trkpt><trkpt lat="45.035225875370585" lon="16.512239256066326"><ele>125.0</ele><time>2026-05-04T13:44:17Z</time></trkpt><trkpt lat="45.03524426781467" lon="16.511788798756157"><ele>125.0</ele><time>2026-05-04T13:44:18Z</time></trkpt><trkpt lat="45.035260705865156" lon="16.511340493334814"><ele>125.0</ele><time>2026-05-04T13:44:19Z</time></trkpt><trkpt lat="45.03527620687771" lon="16.51089310105606"><ele>124.5</ele><time>2026-05-04T13:44:20Z</time></trkpt><trkpt lat="45.03529165990765" lon="16.510444245886795"><ele>124.0</ele><time>2026-05-04T13:44:21Z</time></trkpt><trkpt lat="45.03530775247827" lon="16.509992881076272"><ele>122.5</ele><time>2026-05-04T13:44:22Z</time></trkpt><trkpt lat="45.035323291302824" lon="16.509539412690565"><ele>121.0</ele><time>2026-05-04T13:44:23Z</time></trkpt><trkpt lat="45.035339902581114" lon="16.509086935204362"><ele>120.5</ele><time>2026-05-04T13:44:24Z</time></trkpt><trkpt lat="45.035355698863185" lon="16.50863347148251"><ele>120.0</ele><time>2026-05-04T13:44:25Z</time></trkpt><trkpt lat="45.035372477018804" lon="16.508187388578186"><ele>121.0</ele><time>2026-05-04T13:44:26Z</time></trkpt><trkpt lat="45.035390975180796" lon="16.507737384520713"><ele>122.0</ele><time>2026-05-04T13:44:27Z</time></trkpt><trkpt lat="45.03540664941171" lon="16.507290163845674"><ele>123.0</ele><time>2026-05-04T13:44:28Z</time></trkpt><trkpt lat="45.035424400779675" lon="16.50684588674925"><ele>124.0</ele><time>2026-05-04T13:44:29Z</time></trkpt><trkpt lat="45.035442031594755" lon="16.50640581461157"><ele>123.5</ele><time>2026-05-04T13:44:30Z</time></trkpt><trkpt lat="45.03546335893059" lon="16.505968429844387"><ele>123.0</ele><time>2026-05-04T13:44:31Z</time></trkpt><trkpt lat="45.03548712993729" lon="16.505536036021454"><ele>122.5</ele><time>2026-05-04T13:44:32Z</time></trkpt><trkpt lat="45.035517943974384" lon="16.50510332904472"><ele>122.0</ele><time>2026-05-04T13:44:33Z</time></trkpt><trkpt lat="45.03555370651098" lon="16.504675574264017"><ele>122.0</ele><time>2026-05-04T13:44:34Z</time></trkpt><trkpt lat="45.03559254438749" lon="16.504251945715556"><ele>122.0</ele><time>2026-05-04T13:44:35Z</time></trkpt><trkpt lat="45.03563021989651" lon="16.503835685359704"><ele>122.5</ele><time>2026-05-04T13:44:36Z</time></trkpt><trkpt lat="45.03566615093427" lon="16.503426406715633"><ele>123.0</ele><time>2026-05-04T13:44:37Z</time></trkpt><trkpt lat="45.03570249643358" lon="16.50302288743364"><ele>123.0</ele><time>2026-05-04T13:44:38Z</time></trkpt><trkpt lat="45.03574084619879" lon="16.502629189632984"><ele>123.0</ele><time>2026-05-04T13:44:39Z</time></trkpt><trkpt lat="45.03578631045366" lon="16.502252259866115"><ele>127.0</ele><time>2026-05-04T13:44:40Z</time></trkpt><trkpt lat="45.03583171075195" lon="16.50189467053212"><ele>131.0</ele><time>2026-05-04T13:44:41Z</time></trkpt><trkpt lat="45.03588108614714" lon="16.50154061796052"><ele>130.0</ele><time>2026-05-04T13:44:42Z</time></trkpt><trkpt lat="45.03593383179557" lon="16.501181065331387"><ele>129.0</ele><time>2026-05-04T13:44:43Z</time></trkpt><trkpt lat="45.035981764999434" lon="16.50080774488758"><ele>127.0</ele><time>2026-05-04T13:44:44Z</time></trkpt><trkpt lat="45.0360306664024" lon="16.50040811525365"><ele>125.0</ele><time>2026-05-04T13:44:45Z</time></trkpt><trkpt lat="45.03608116729453" lon="16.49998357098773"><ele>124.5</ele><time>2026-05-04T13:44:46Z</time></trkpt><trkpt lat="45.036138744457816" lon="16.49956986492388"><ele>124.0</ele><time>2026-05-04T13:44:47Z</time></trkpt><trkpt lat="45.03619221116503" lon="16.499156972319177"><ele>124.0</ele><time>2026-05-04T13:44:48Z</time></trkpt><trkpt lat="45.036232109539085" lon="16.498759999483806"><ele>124.0</ele><time>2026-05-04T13:44:49Z</time></trkpt><trkpt lat="45.03625827641349" lon="16.498349683885536"><ele>124.5</ele><time>2026-05-04T13:44:50Z</time></trkpt><trkpt lat="45.0362771824849" lon="16.49792981498268"><ele>125.0</ele><time>2026-05-04T13:44:51Z</time></trkpt><trkpt lat="45.03628185326589" lon="16.49750934402916"><ele>124.5</ele><time>2026-05-04T13:44:52Z</time></trkpt><trkpt lat="45.03627564956886" lon="16.4970826609692"><ele>124.0</ele><time>2026-05-04T13:44:53Z</time></trkpt><trkpt lat="45.03625930253653" lon="16.496650610363897"><ele>125.0</ele><time>2026-05-04T13:44:54Z</time></trkpt><trkpt lat="45.036230742510845" lon="16.496216288709235"><ele>126.0</ele><time>2026-05-04T13:44:55Z</time></trkpt><trkpt lat="45.03619761452859" lon="16.495787671979418"><ele>126.0</ele><time>2026-05-04T13:44:56Z</time></trkpt><trkpt lat="45.036159736171925" lon="16.495362503378793"><ele>126.0</ele><time>2026-05-04T13:44:57Z</time></trkpt><trkpt lat="45.03612414435606" lon="16.494939229819376"><ele>125.5</ele><time>2026-05-04T13:44:58Z</time></trkpt><trkpt lat="45.03609891820217" lon="16.494515304801006"><ele>125.0</ele><time>2026-05-04T13:44:59Z</time></trkpt><trkpt lat="45.036090785452146" lon="16.494089987126337"><ele>124.0</ele><time>2026-05-04T13:45:00Z</time></trkpt><trkpt lat="45.03609378512615" lon="16.49366567462335"><ele>123.0</ele><time>2026-05-04T13:45:01Z</time></trkpt><trkpt lat="45.03610939077817" lon="16.493246750094197"><ele>123.5</ele><time>2026-05-04T13:45:02Z</time></trkpt><trkpt lat="45.036132558131044" lon="16.4928261500717"><ele>124.0</ele><time>2026-05-04T13:45:03Z</time></trkpt><trkpt lat="45.03615344606152" lon="16.492417367763835"><ele>124.5</ele><time>2026-05-04T13:45:04Z</time></trkpt><trkpt lat="45.036167509767054" lon="16.492005515522788"><ele>125.0</ele><time>2026-05-04T13:45:05Z</time></trkpt><trkpt lat="45.03617334817979" lon="16.49159711230765"><ele>125.0</ele><time>2026-05-04T13:45:06Z</time></trkpt><trkpt lat="45.0361740661155" lon="16.49117878723406"><ele>125.0</ele><time>2026-05-04T13:45:07Z</time></trkpt><trkpt lat="45.03616967268794" lon="16.490763135392275"><ele>125.5</ele><time>2026-05-04T13:45:08Z</time></trkpt><trkpt lat="45.036158895667505" lon="16.49035750964385"><ele>126.0</ele><time>2026-05-04T13:45:09Z</time></trkpt><trkpt lat="45.03614680327325" lon="16.489946390951523"><ele>126.0</ele><time>2026-05-04T13:45:10Z</time></trkpt><trkpt lat="45.036132795580265" lon="16.489533047351564"><ele>126.0</ele><time>2026-05-04T13:45:11Z</time></trkpt><trkpt lat="45.03611595299968" lon="16.4891120098209"><ele>125.5</ele><time>2026-05-04T13:45:12Z</time></trkpt><trkpt lat="45.03610426783113" lon="16.488695643240575"><ele>125.0</ele><time>2026-05-04T13:45:13Z</time></trkpt><trkpt lat="45.036097396179095" lon="16.4882814692092"><ele>125.0</ele><time>2026-05-04T13:45:14Z</time></trkpt><trkpt lat="45.0360904272429" lon="16.487853272257535"><ele>125.0</ele><time>2026-05-04T13:45:15Z</time></trkpt><trkpt lat="45.03608925969821" lon="16.487430689593296"><ele>124.0</ele><time>2026-05-04T13:45:16Z</time></trkpt><trkpt lat="45.036106143679284" lon="16.487015365958378"><ele>123.0</ele><time>2026-05-04T13:45:17Z</time></trkpt><trkpt lat="45.03612580257776" lon="16.486589937116513"><ele>122.5</ele><time>2026-05-04T13:45:18Z</time></trkpt><trkpt lat="45.0361525339458" lon="16.486160447498857"><ele>122.0</ele><time>2026-05-04T13:45:19Z</time></trkpt><trkpt lat="45.03618696466626" lon="16.485721321757953"><ele>121.5</ele><time>2026-05-04T13:45:20Z</time></trkpt><trkpt lat="45.036232962355136" lon="16.485294341409208"><ele>121.0</ele><time>2026-05-04T13:45:21Z</time></trkpt><trkpt lat="45.03627915248386" lon="16.48486390245608"><ele>121.0</ele><time>2026-05-04T13:45:22Z</time></trkpt><trkpt lat="45.036336266629455" lon="16.484444732724157"><ele>121.0</ele><time>2026-05-04T13:45:23Z</time></trkpt><trkpt lat="45.03639805173985" lon="16.484025113467062"><ele>120.0</ele><time>2026-05-04T13:45:24Z</time></trkpt><trkpt lat="45.03646620618055" lon="16.483601097683753"><ele>119.0</ele><time>2026-05-04T13:45:25Z</time></trkpt><trkpt lat="45.03654232404178" lon="16.48318701030369"><ele>120.0</ele><time>2026-05-04T13:45:26Z</time></trkpt><trkpt lat="45.03662666056259" lon="16.482769861370624"><ele>121.0</ele><time>2026-05-04T13:45:27Z</time></trkpt><trkpt lat="45.03672162005606" lon="16.48234749787867"><ele>122.0</ele><time>2026-05-04T13:45:28Z</time></trkpt><trkpt lat="45.03679584097286" lon="16.4819416502326"><ele>123.0</ele><time>2026-05-04T13:45:29Z</time></trkpt><trkpt lat="45.03688002584295" lon="16.48152733388814"><ele>122.0</ele><time>2026-05-04T13:45:30Z</time></trkpt><trkpt lat="45.03696224909479" lon="16.481118802961078"><ele>121.0</ele><time>2026-05-04T13:45:31Z</time></trkpt><trkpt lat="45.037045426297595" lon="16.48071226450858"><ele>120.5</ele><time>2026-05-04T13:45:32Z</time></trkpt><trkpt lat="45.03712810078122" lon="16.48030886149549"><ele>120.0</ele><time>2026-05-04T13:45:33Z</time></trkpt><trkpt lat="45.03720816657285" lon="16.479907194514617"><ele>120.5</ele><time>2026-05-04T13:45:34Z</time></trkpt><trkpt lat="45.03728890071023" lon="16.47950553158517"><ele>121.0</ele><time>2026-05-04T13:45:35Z</time></trkpt><trkpt lat="45.03736884624034" lon="16.479117433955086"><ele>120.5</ele><time>2026-05-04T13:45:36Z</time></trkpt><trkpt lat="45.037450174138975" lon="16.478731788733118"><ele>120.0</ele><time>2026-05-04T13:45:37Z</time></trkpt><trkpt lat="45.037530790121686" lon="16.4783404674492"><ele>121.0</ele><time>2026-05-04T13:45:38Z</time></trkpt><trkpt lat="45.03761099808314" lon="16.47795478857631"><ele>122.0</ele><time>2026-05-04T13:45:39Z</time></trkpt><trkpt lat="45.03768786446734" lon="16.477582517199725"><ele>122.0</ele><time>2026-05-04T13:45:40Z</time></trkpt><trkpt lat="45.03776125452086" lon="16.47721763574558"><ele>122.0</ele><time>2026-05-04T13:45:41Z</time></trkpt><trkpt lat="45.03783386909725" lon="16.476856370369216"><ele>122.0</ele><time>2026-05-04T13:45:42Z</time></trkpt><trkpt lat="45.03790126472613" lon="16.476490391469856"><ele>122.0</ele><time>2026-05-04T13:45:43Z</time></trkpt><trkpt lat="45.03796485652557" lon="16.47609749206579"><ele>121.5</ele><time>2026-05-04T13:45:44Z</time></trkpt><trkpt lat="45.03803923705591" lon="16.47569590432795"><ele>121.0</ele><time>2026-05-04T13:45:45Z</time></trkpt><trkpt lat="45.03812505809013" lon="16.475277103311615"><ele>120.5</ele><time>2026-05-04T13:45:46Z</time></trkpt><trkpt lat="45.03821253974403" lon="16.474856004523208"><ele>120.0</ele><time>2026-05-04T13:45:47Z</time></trkpt><trkpt lat="45.0383017436063" lon="16.474431189713396"><ele>122.0</ele><time>2026-05-04T13:45:48Z</time></trkpt><trkpt lat="45.03839439325543" lon="16.474002652873022"><ele>124.0</ele><time>2026-05-04T13:45:49Z</time></trkpt><trkpt lat="45.03848685081927" lon="16.473574407784223"><ele>124.0</ele><time>2026-05-04T13:45:50Z</time></trkpt><trkpt lat="45.03858126219941" lon="16.473152919485273"><ele>124.0</ele><time>2026-05-04T13:45:51Z</time></trkpt><trkpt lat="45.03867374182482" lon="16.47272339279727"><ele>123.5</ele><time>2026-05-04T13:45:52Z</time></trkpt><trkpt lat="45.03876342387642" lon="16.472299221311378"><ele>123.0</ele><time>2026-05-04T13:45:53Z</time></trkpt><trkpt lat="45.038849877359645" lon="16.471873621352206"><ele>122.5</ele><time>2026-05-04T13:45:54Z</time></trkpt><trkpt lat="45.038934620520706" lon="16.471453533028317"><ele>122.0</ele><time>2026-05-04T13:45:55Z</time></trkpt><trkpt lat="45.039021102553235" lon="16.471024234200524"><ele>122.0</ele><time>2026-05-04T13:45:56Z</time></trkpt><trkpt lat="45.039109885419506" lon="16.470603379584336"><ele>122.0</ele><time>2026-05-04T13:45:57Z</time></trkpt><trkpt lat="45.03920194169355" lon="16.47018759245958"><ele>122.5</ele><time>2026-05-04T13:45:58Z</time></trkpt><trkpt lat="45.0392898324606" lon="16.469766410944327"><ele>123.0</ele><time>2026-05-04T13:45:59Z</time></trkpt><trkpt lat="45.039373597013785" lon="16.469358423164813"><ele>123.0</ele><time>2026-05-04T13:46:00Z</time></trkpt><trkpt lat="45.03945560616223" lon="16.468955263797103"><ele>123.0</ele><time>2026-05-04T13:46:01Z</time></trkpt><trkpt lat="45.03953628695667" lon="16.46855929122876"><ele>123.0</ele><time>2026-05-04T13:46:02Z</time></trkpt><trkpt lat="45.03961516036338" lon="16.468171249021168"><ele>123.0</ele><time>2026-05-04T13:46:03Z</time></trkpt><trkpt lat="45.039695550332546" lon="16.467797589981338"><ele>123.0</ele><time>2026-05-04T13:46:04Z</time></trkpt><trkpt lat="45.03977349793218" lon="16.467426799375968"><ele>123.0</ele><time>2026-05-04T13:46:05Z</time></trkpt><trkpt lat="45.03986882022695" lon="16.467061119988816"><ele>122.5</ele><time>2026-05-04T13:46:06Z</time></trkpt><trkpt lat="45.039966215435136" lon="16.46669838032191"><ele>122.0</ele><time>2026-05-04T13:46:07Z</time></trkpt><trkpt lat="45.04006520850335" lon="16.466339070445912"><ele>122.0</ele><time>2026-05-04T13:46:08Z</time></trkpt><trkpt lat="45.04016174582559" lon="16.465984051065956"><ele>122.0</ele><time>2026-05-04T13:46:09Z</time></trkpt><trkpt lat="45.040253025322954" lon="16.465633494444102"><ele>121.0</ele><time>2026-05-04T13:46:10Z</time></trkpt><trkpt lat="45.040343760274055" lon="16.46527952166682"><ele>120.0</ele><time>2026-05-04T13:46:11Z</time></trkpt><trkpt lat="45.040435960869324" lon="16.464915133494443"><ele>119.5</ele><time>2026-05-04T13:46:12Z</time></trkpt><trkpt lat="45.04053037168047" lon="16.464535590798754"><ele>119.0</ele><time>2026-05-04T13:46:13Z</time></trkpt><trkpt lat="45.040633410975495" lon="16.46416516229412"><ele>119.0</ele><time>2026-05-04T13:46:14Z</time></trkpt><trkpt lat="45.04074172159908" lon="16.463800706427026"><ele>119.0</ele><time>2026-05-04T13:46:15Z</time></trkpt><trkpt lat="45.04084783257226" lon="16.46342495471935"><ele>122.0</ele><time>2026-05-04T13:46:16Z</time></trkpt><trkpt lat="45.04094874747031" lon="16.463045775943613"><ele>125.0</ele><time>2026-05-04T13:46:17Z</time></trkpt><trkpt lat="45.04105416306653" lon="16.46267554646997"><ele>125.0</ele><time>2026-05-04T13:46:18Z</time></trkpt><trkpt lat="45.04115833832148" lon="16.462309381742568"><ele>125.0</ele><time>2026-05-04T13:46:19Z</time></trkpt><trkpt lat="45.04125381475311" lon="16.461940391370273"><ele>124.0</ele><time>2026-05-04T13:46:20Z</time></trkpt><trkpt lat="45.04133846834906" lon="16.46156509193875"><ele>123.0</ele><time>2026-05-04T13:46:21Z</time></trkpt><trkpt lat="45.0414134207414" lon="16.46119627532821"><ele>122.0</ele><time>2026-05-04T13:46:22Z</time></trkpt><trkpt lat="45.04147736711648" lon="16.460838799731135"><ele>121.0</ele><time>2026-05-04T13:46:23Z</time></trkpt><trkpt lat="45.0415375767783" lon="16.460503067298074"><ele>120.5</ele><time>2026-05-04T13:46:24Z</time></trkpt><trkpt lat="45.041601611431375" lon="16.460167601347347"><ele>120.0</ele><time>2026-05-04T13:46:25Z</time></trkpt><trkpt lat="45.041668155063185" lon="16.459829263938403"><ele>123.0</ele><time>2026-05-04T13:46:26Z</time></trkpt><trkpt lat="45.04173305675695" lon="16.459492501414026"><ele>126.0</ele><time>2026-05-04T13:46:27Z</time></trkpt><trkpt lat="45.041794240801764" lon="16.459159337742143"><ele>126.0</ele><time>2026-05-04T13:46:28Z</time></trkpt><trkpt lat="45.041854261384664" lon="16.458829484919086"><ele>126.0</ele><time>2026-05-04T13:46:29Z</time></trkpt><trkpt lat="45.04192066349829" lon="16.458505916658616"><ele>125.0</ele><time>2026-05-04T13:46:30Z</time></trkpt><trkpt lat="45.04198394602069" lon="16.45816685906772"><ele>124.0</ele><time>2026-05-04T13:46:31Z</time></trkpt><trkpt lat="45.04204732175568" lon="16.457825357671112"><ele>123.0</ele><time>2026-05-04T13:46:32Z</time></trkpt><trkpt lat="45.04210544432506" lon="16.457474870589966"><ele>122.0</ele><time>2026-05-04T13:46:33Z</time></trkpt><trkpt lat="45.04215906645026" lon="16.457121523049924"><ele>121.0</ele><time>2026-05-04T13:46:34Z</time></trkpt><trkpt lat="45.04221343417765" lon="16.456760355171134"><ele>120.0</ele><time>2026-05-04T13:46:35Z</time></trkpt><trkpt lat="45.04226823407541" lon="16.456386417168307"><ele>118.5</ele><time>2026-05-04T13:46:36Z</time></trkpt><trkpt lat="45.042318044830736" lon="16.456004216427527"><ele>117.0</ele><time>2026-05-04T13:46:37Z</time></trkpt><trkpt lat="45.04236369065844" lon="16.45561800867095"><ele>117.0</ele><time>2026-05-04T13:46:38Z</time></trkpt><trkpt lat="45.04240026178688" lon="16.455226437635417"><ele>117.0</ele><time>2026-05-04T13:46:39Z</time></trkpt><trkpt lat="45.04243297152793" lon="16.454839401444097"><ele>117.0</ele><time>2026-05-04T13:46:40Z</time></trkpt><trkpt lat="45.04245622626091" lon="16.454455198522187"><ele>117.0</ele><time>2026-05-04T13:46:41Z</time></trkpt><trkpt lat="45.04247691801454" lon="16.454070376653377"><ele>123.5</ele><time>2026-05-04T13:46:42Z</time></trkpt><trkpt lat="45.04249429751785" lon="16.453683541569742"><ele>130.0</ele><time>2026-05-04T13:46:43Z</time></trkpt><trkpt lat="45.04250297716652" lon="16.453302173617313"><ele>131.0</ele><time>2026-05-04T13:46:44Z</time></trkpt><trkpt lat="45.04250539713127" lon="16.452919926807848"><ele>132.0</ele><time>2026-05-04T13:46:45Z</time></trkpt><trkpt lat="45.042507181759326" lon="16.45254108586109"><ele>132.0</ele><time>2026-05-04T13:46:46Z</time></trkpt><trkpt lat="45.04250553436759" lon="16.452162032101064"><ele>132.0</ele><time>2026-05-04T13:46:47Z</time></trkpt><trkpt lat="45.042502464138046" lon="16.451786053443172"><ele>132.5</ele><time>2026-05-04T13:46:48Z</time></trkpt><trkpt lat="45.04249689551976" lon="16.451412372135156"><ele>133.0</ele><time>2026-05-04T13:46:49Z</time></trkpt><trkpt lat="45.04247768428099" lon="16.45103717772596"><ele>127.0</ele><time>2026-05-04T13:46:50Z</time></trkpt><trkpt lat="45.04244882039209" lon="16.450659471416696"><ele>121.0</ele><time>2026-05-04T13:46:51Z</time></trkpt><trkpt lat="45.04241102030405" lon="16.45028570784614"><ele>121.0</ele><time>2026-05-04T13:46:52Z</time></trkpt><trkpt lat="45.04237121478559" lon="16.44990883577968"><ele>121.0</ele><time>2026-05-04T13:46:53Z</time></trkpt><trkpt lat="45.04233514088853" lon="16.449524173802516"><ele>121.5</ele><time>2026-05-04T13:46:54Z</time></trkpt><trkpt lat="45.042297678720196" lon="16.449140664455104"><ele>122.0</ele><time>2026-05-04T13:46:55Z</time></trkpt><trkpt lat="45.042260833942834" lon="16.448752374744714"><ele>120.5</ele><time>2026-05-04T13:46:56Z</time></trkpt><trkpt lat="45.04222463869594" lon="16.448370556614847"><ele>119.0</ele><time>2026-05-04T13:46:57Z</time></trkpt><trkpt lat="45.04218658439238" lon="16.447984233790013"><ele>120.5</ele><time>2026-05-04T13:46:58Z</time></trkpt><trkpt lat="45.04214580536601" lon="16.4476001234379"><ele>122.0</ele><time>2026-05-04T13:46:59Z</time></trkpt><trkpt lat="45.04210526293569" lon="16.447215070241906"><ele>122.5</ele><time>2026-05-04T13:47:00Z</time></trkpt><trkpt lat="45.04206367514006" lon="16.44683252223927"><ele>123.0</ele><time>2026-05-04T13:47:01Z</time></trkpt><trkpt lat="45.04202513180627" lon="16.446446043848624"><ele>124.5</ele><time>2026-05-04T13:47:02Z</time></trkpt><trkpt lat="45.041985871642964" lon="16.44605856383532"><ele>126.0</ele><time>2026-05-04T13:47:03Z</time></trkpt><trkpt lat="45.04194168271189" lon="16.445672406497636"><ele>128.0</ele><time>2026-05-04T13:47:04Z</time></trkpt><trkpt lat="45.04189387195387" lon="16.445286202677153"><ele>130.0</ele><time>2026-05-04T13:47:05Z</time></trkpt><trkpt lat="45.04184617444163" lon="16.44490309252772"><ele>132.5</ele><time>2026-05-04T13:47:06Z</time></trkpt><trkpt lat="45.04178696824513" lon="16.444515530679894"><ele>135.0</ele><time>2026-05-04T13:47:07Z</time></trkpt><trkpt lat="45.04172139394281" lon="16.444134970462734"><ele>137.5</ele><time>2026-05-04T13:47:08Z</time></trkpt><trkpt lat="45.0416465751276" lon="16.44375704537619"><ele>140.0</ele><time>2026-05-04T13:47:09Z</time></trkpt><trkpt lat="45.04156248270252" lon="16.443388749720476"><ele>130.5</ele><time>2026-05-04T13:47:10Z</time></trkpt><trkpt lat="45.04148025138489" lon="16.443022463990427"><ele>121.0</ele><time>2026-05-04T13:47:11Z</time></trkpt><trkpt lat="45.04138135477781" lon="16.442667813026652"><ele>121.0</ele><time>2026-05-04T13:47:12Z</time></trkpt><trkpt lat="45.04127665495928" lon="16.44231751246728"><ele>121.0</ele><time>2026-05-04T13:47:13Z</time></trkpt><trkpt lat="45.04116286684766" lon="16.44196550700986"><ele>121.5</ele><time>2026-05-04T13:47:14Z</time></trkpt><trkpt lat="45.04103770183874" lon="16.441622509605512"><ele>122.0</ele><time>2026-05-04T13:47:15Z</time></trkpt><trkpt lat="45.04091308960242" lon="16.441277707075734"><ele>120.0</ele><time>2026-05-04T13:47:16Z</time></trkpt><trkpt lat="45.04078713568286" lon="16.44093997111982"><ele>118.0</ele><time>2026-05-04T13:47:17Z</time></trkpt><trkpt lat="45.040659241345246" lon="16.44059843259229"><ele>119.5</ele><time>2026-05-04T13:47:18Z</time></trkpt><trkpt lat="45.040536947562856" lon="16.44025109560878"><ele>121.0</ele><time>2026-05-04T13:47:19Z</time></trkpt><trkpt lat="45.04042008450866" lon="16.439912754313625"><ele>123.5</ele><time>2026-05-04T13:47:20Z</time></trkpt><trkpt lat="45.040301557550876" lon="16.439567123785817"><ele>126.0</ele><time>2026-05-04T13:47:21Z</time></trkpt><trkpt lat="45.04020194494522" lon="16.439214716442454"><ele>126.0</ele><time>2026-05-04T13:47:22Z</time></trkpt><trkpt lat="45.04011239145363" lon="16.438859787175627"><ele>126.0</ele><time>2026-05-04T13:47:23Z</time></trkpt><trkpt lat="45.04003029455004" lon="16.43849861609003"><ele>122.5</ele><time>2026-05-04T13:47:24Z</time></trkpt><trkpt lat="45.03996262381105" lon="16.4381362930314"><ele>119.0</ele><time>2026-05-04T13:47:25Z</time></trkpt><trkpt lat="45.03991236589326" lon="16.437773781803404"><ele>119.0</ele><time>2026-05-04T13:47:26Z</time></trkpt><trkpt lat="45.03987110652447" lon="16.43740851924469"><ele>119.0</ele><time>2026-05-04T13:47:27Z</time></trkpt><trkpt lat="45.03982965794128" lon="16.437054148204997"><ele>119.0</ele><time>2026-05-04T13:47:28Z</time></trkpt><trkpt lat="45.039792536685695" lon="16.436725368175367"><ele>119.0</ele><time>2026-05-04T13:47:29Z</time></trkpt><trkpt lat="45.039763165098215" lon="16.436419987307506"><ele>119.66666666666666</ele><time>2026-05-04T13:47:30Z</time></trkpt><trkpt lat="45.039739258544195" lon="16.436124947825814"><ele>120.33333333333334</ele><time>2026-05-04T13:47:31Z</time></trkpt><trkpt lat="45.03971679805491" lon="16.435850746032884"><ele>121.0</ele><time>2026-05-04T13:47:32Z</time></trkpt><trkpt lat="45.039693312816446" lon="16.43557184959863"><ele>121.0</ele><time>2026-05-04T13:47:33Z</time></trkpt><trkpt lat="45.03967090195687" lon="16.435291813170597"><ele>121.0</ele><time>2026-05-04T13:47:34Z</time></trkpt><trkpt lat="45.03964562008201" lon="16.43499714865343"><ele>121.0</ele><time>2026-05-04T13:47:35Z</time></trkpt><trkpt lat="45.03961619796889" lon="16.43469515218988"><ele>121.0</ele><time>2026-05-04T13:47:36Z</time></trkpt><trkpt lat="45.039575711948935" lon="16.434358503382633"><ele>121.0</ele><time>2026-05-04T13:47:37Z</time></trkpt><trkpt lat="45.039535092802296" lon="16.43398590218378"><ele>121.0</ele><time>2026-05-04T13:47:38Z</time></trkpt><trkpt lat="45.039502013674664" lon="16.433604521130366"><ele>121.0</ele><time>2026-05-04T13:47:39Z</time></trkpt><trkpt lat="45.03947418620868" lon="16.433218489890663"><ele>121.0</ele><time>2026-05-04T13:47:40Z</time></trkpt><trkpt lat="45.03944583049526" lon="16.43283751116591"><ele>121.0</ele><time>2026-05-04T13:47:41Z</time></trkpt><trkpt lat="45.039416149381815" lon="16.432459588865466"><ele>121.5</ele><time>2026-05-04T13:47:42Z</time></trkpt><trkpt lat="45.03938516488412" lon="16.432107114467545"><ele>122.0</ele><time>2026-05-04T13:47:43Z</time></trkpt><trkpt lat="45.03935356100102" lon="16.431755668511784"><ele>122.0</ele><time>2026-05-04T13:47:44Z</time></trkpt><trkpt lat="45.03932241516957" lon="16.431397676291308"><ele>122.0</ele><time>2026-05-04T13:47:45Z</time></trkpt><trkpt lat="45.03929058416693" lon="16.43103502510661"><ele>122.0</ele><time>2026-05-04T13:47:46Z</time></trkpt><trkpt lat="45.03925082745634" lon="16.430647011419573"><ele>122.0</ele><time>2026-05-04T13:47:47Z</time></trkpt><trkpt lat="45.039194523625454" lon="16.430224020141416"><ele>122.0</ele><time>2026-05-04T13:47:48Z</time></trkpt><trkpt lat="45.03915157270178" lon="16.429788157371302"><ele>122.0</ele><time>2026-05-04T13:47:49Z</time></trkpt><trkpt lat="45.03912533567602" lon="16.429369567390836"><ele>120.5</ele><time>2026-05-04T13:47:50Z</time></trkpt><trkpt lat="45.03909662421661" lon="16.428985505552845"><ele>119.0</ele><time>2026-05-04T13:47:51Z</time></trkpt><trkpt lat="45.03906363377998" lon="16.42863002334049"><ele>119.0</ele><time>2026-05-04T13:47:52Z</time></trkpt><trkpt lat="45.03903072335597" lon="16.42830327142009"><ele>119.0</ele><time>2026-05-04T13:47:53Z</time></trkpt><trkpt lat="45.03900368132343" lon="16.428000093060117"><ele>119.0</ele><time>2026-05-04T13:47:54Z</time></trkpt><trkpt lat="45.03898141442824" lon="16.427717743973467"><ele>119.0</ele><time>2026-05-04T13:47:55Z</time></trkpt><trkpt lat="45.03896282032878" lon="16.427454774443262"><ele>119.0</ele><time>2026-05-04T13:47:56Z</time></trkpt><trkpt lat="45.038944134871734" lon="16.42719391319772"><ele>119.0</ele><time>2026-05-04T13:47:57Z</time></trkpt><trkpt lat="45.038927782585056" lon="16.42693131010188"><ele>119.0</ele><time>2026-05-04T13:47:58Z</time></trkpt><trkpt lat="45.03891210223897" lon="16.426666649584305"><ele>119.0</ele><time>2026-05-04T13:47:59Z</time></trkpt><trkpt lat="45.03889732379427" lon="16.42639535943422"><ele>119.0</ele><time>2026-05-04T13:48:00Z</time></trkpt><trkpt lat="45.03888738923301" lon="16.4260964523309"><ele>119.0</ele><time>2026-05-04T13:48:01Z</time></trkpt><trkpt lat="45.038882532696" lon="16.42577363914776"><ele>119.0</ele><time>2026-05-04T13:48:02Z</time></trkpt><trkpt lat="45.03888177639533" lon="16.425445466612757"><ele>119.0</ele><time>2026-05-04T13:48:03Z</time></trkpt><trkpt lat="45.03888853667378" lon="16.42511990155503"><ele>119.0</ele><time>2026-05-04T13:48:04Z</time></trkpt><trkpt lat="45.03889812959897" lon="16.42477384703613"><ele>118.5</ele><time>2026-05-04T13:48:05Z</time></trkpt><trkpt lat="45.03891027947964" lon="16.424425671936017"><ele>118.0</ele><time>2026-05-04T13:48:06Z</time></trkpt><trkpt lat="45.03893113392812" lon="16.424101091865587"><ele>118.33333333333334</ele><time>2026-05-04T13:48:07Z</time></trkpt><trkpt lat="45.038965999821194" lon="16.42379413114564"><ele>118.66666666666666</ele><time>2026-05-04T13:48:08Z</time></trkpt><trkpt lat="45.03900489397261" lon="16.4234784142317"><ele>119.0</ele><time>2026-05-04T13:48:09Z</time></trkpt><trkpt lat="45.03904266607114" lon="16.423169019372637"><ele>119.0</ele><time>2026-05-04T13:48:10Z</time></trkpt><trkpt lat="45.03908088052429" lon="16.422861452286636"><ele>119.0</ele><time>2026-05-04T13:48:11Z</time></trkpt><trkpt lat="45.039127247791306" lon="16.42254507456283"><ele>119.0</ele><time>2026-05-04T13:48:12Z</time></trkpt><trkpt lat="45.03918449849197" lon="16.42220993746721"><ele>121.0</ele><time>2026-05-04T13:48:13Z</time></trkpt><trkpt lat="45.039248127580095" lon="16.421850938999103"><ele>123.0</ele><time>2026-05-04T13:48:14Z</time></trkpt><trkpt lat="45.03932092659264" lon="16.421481165709764"><ele>123.0</ele><time>2026-05-04T13:48:15Z</time></trkpt><trkpt lat="45.03940267592672" lon="16.421091130608392"><ele>123.0</ele><time>2026-05-04T13:48:16Z</time></trkpt><trkpt lat="45.03948915586302" lon="16.420690525798324"><ele>122.0</ele><time>2026-05-04T13:48:17Z</time></trkpt><trkpt lat="45.03957423398575" lon="16.420271141522385"><ele>121.0</ele><time>2026-05-04T13:48:18Z</time></trkpt><trkpt lat="45.03965684413591" lon="16.41984074318402"><ele>120.0</ele><time>2026-05-04T13:48:19Z</time></trkpt><trkpt lat="45.0397415265647" lon="16.419398881722234"><ele>119.0</ele><time>2026-05-04T13:48:20Z</time></trkpt><trkpt lat="45.039827387764674" lon="16.41895621100981"><ele>118.5</ele><time>2026-05-04T13:48:21Z</time></trkpt><trkpt lat="45.03992323624898" lon="16.41851562410828"><ele>118.0</ele><time>2026-05-04T13:48:22Z</time></trkpt><trkpt lat="45.04002335161976" lon="16.418079393766238"><ele>121.0</ele><time>2026-05-04T13:48:23Z</time></trkpt><trkpt lat="45.04012555367794" lon="16.41764493083227"><ele>124.0</ele><time>2026-05-04T13:48:24Z</time></trkpt><trkpt lat="45.0402192354839" lon="16.417204216956232"><ele>123.0</ele><time>2026-05-04T13:48:25Z</time></trkpt><trkpt lat="45.04030734965875" lon="16.41677215993784"><ele>122.0</ele><time>2026-05-04T13:48:26Z</time></trkpt><trkpt lat="45.04039272886734" lon="16.416337201154793"><ele>121.5</ele><time>2026-05-04T13:48:27Z</time></trkpt><trkpt lat="45.04047899289363" lon="16.415911821440154"><ele>121.0</ele><time>2026-05-04T13:48:28Z</time></trkpt><trkpt lat="45.04056819409285" lon="16.415482270787844"><ele>121.0</ele><time>2026-05-04T13:48:29Z</time></trkpt><trkpt lat="45.040663048823205" lon="16.415043294003507"><ele>121.0</ele><time>2026-05-04T13:48:30Z</time></trkpt><trkpt lat="45.04075776907719" lon="16.414600632120525"><ele>121.5</ele><time>2026-05-04T13:48:31Z</time></trkpt><trkpt lat="45.04085015186937" lon="16.414158737609977"><ele>122.0</ele><time>2026-05-04T13:48:32Z</time></trkpt><trkpt lat="45.040941589702605" lon="16.413715577413083"><ele>122.0</ele><time>2026-05-04T13:48:33Z</time></trkpt><trkpt lat="45.04102938796964" lon="16.41327447485645"><ele>122.0</ele><time>2026-05-04T13:48:34Z</time></trkpt><trkpt lat="45.04111644130363" lon="16.412835695466594"><ele>120.5</ele><time>2026-05-04T13:48:35Z</time></trkpt><trkpt lat="45.041208296263214" lon="16.412401387789505"><ele>119.0</ele><time>2026-05-04T13:48:36Z</time></trkpt><trkpt lat="45.04130235713169" lon="16.411967301559688"><ele>118.5</ele><time>2026-05-04T13:48:37Z</time></trkpt><trkpt lat="45.041390163466914" lon="16.41154341830593"><ele>118.0</ele><time>2026-05-04T13:48:38Z</time></trkpt><trkpt lat="45.041476160897204" lon="16.41111691345882"><ele>118.0</ele><time>2026-05-04T13:48:39Z</time></trkpt><trkpt lat="45.041560762390354" lon="16.4106987451808"><ele>118.0</ele><time>2026-05-04T13:48:40Z</time></trkpt><trkpt lat="45.04164710213994" lon="16.410274377043756"><ele>122.5</ele><time>2026-05-04T13:48:41Z</time></trkpt><trkpt lat="45.04173293467596" lon="16.409859844462762"><ele>127.0</ele><time>2026-05-04T13:48:42Z</time></trkpt><trkpt lat="45.041818732334306" lon="16.409443799215122"><ele>127.0</ele><time>2026-05-04T13:48:43Z</time></trkpt><trkpt lat="45.041900343988694" lon="16.409027320924018"><ele>127.0</ele><time>2026-05-04T13:48:44Z</time></trkpt><trkpt lat="45.041983722793255" lon="16.408611250646665"><ele>125.0</ele><time>2026-05-04T13:48:45Z</time></trkpt><trkpt lat="45.04207056266993" lon="16.408205164771537"><ele>123.0</ele><time>2026-05-04T13:48:46Z</time></trkpt><trkpt lat="45.04215566386355" lon="16.407798878253253"><ele>121.5</ele><time>2026-05-04T13:48:47Z</time></trkpt><trkpt lat="45.042239525159104" lon="16.407400052240543"><ele>120.0</ele><time>2026-05-04T13:48:48Z</time></trkpt><trkpt lat="45.04232193215777" lon="16.406999153658425"><ele>119.5</ele><time>2026-05-04T13:48:49Z</time></trkpt><trkpt lat="45.042404096052636" lon="16.4065988724919"><ele>119.0</ele><time>2026-05-04T13:48:50Z</time></trkpt><trkpt lat="45.04248556640313" lon="16.406207555663762"><ele>120.0</ele><time>2026-05-04T13:48:51Z</time></trkpt><trkpt lat="45.042562085686704" lon="16.40581062717664"><ele>121.0</ele><time>2026-05-04T13:48:52Z</time></trkpt><trkpt lat="45.042641858824084" lon="16.405417384811486"><ele>121.0</ele><time>2026-05-04T13:48:53Z</time></trkpt><trkpt lat="45.04272349215915" lon="16.405023752892223"><ele>121.0</ele><time>2026-05-04T13:48:54Z</time></trkpt><trkpt lat="45.04279559989644" lon="16.404620899044993"><ele>121.0</ele><time>2026-05-04T13:48:55Z</time></trkpt><trkpt lat="45.04288205264593" lon="16.404240718896403"><ele>121.0</ele><time>2026-05-04T13:48:56Z</time></trkpt><trkpt lat="45.04296352939317" lon="16.403855710480553"><ele>120.5</ele><time>2026-05-04T13:48:57Z</time></trkpt><trkpt lat="45.04304365741551" lon="16.403467967071165"><ele>120.0</ele><time>2026-05-04T13:48:58Z</time></trkpt><trkpt lat="45.043116776158016" lon="16.403082652592897"><ele>121.0</ele><time>2026-05-04T13:48:59Z</time></trkpt><trkpt lat="45.0431984071198" lon="16.402694103326052"><ele>122.0</ele><time>2026-05-04T13:49:00Z</time></trkpt><trkpt lat="45.04327903526122" lon="16.402309775355036"><ele>122.0</ele><time>2026-05-04T13:49:01Z</time></trkpt><trkpt lat="45.04335995756352" lon="16.401922719516865"><ele>122.0</ele><time>2026-05-04T13:49:02Z</time></trkpt><trkpt lat="45.04344159166494" lon="16.401538232485265"><ele>121.5</ele><time>2026-05-04T13:49:03Z</time></trkpt><trkpt lat="45.043526461005136" lon="16.40116374295502"><ele>121.0</ele><time>2026-05-04T13:49:04Z</time></trkpt><trkpt lat="45.04361396383145" lon="16.400792987047403"><ele>120.5</ele><time>2026-05-04T13:49:05Z</time></trkpt><trkpt lat="45.04370512409115" lon="16.400431497428176"><ele>120.0</ele><time>2026-05-04T13:49:06Z</time></trkpt><trkpt lat="45.04381049158313" lon="16.400074922719345"><ele>120.0</ele><time>2026-05-04T13:49:07Z</time></trkpt><trkpt lat="45.043929440320426" lon="16.399719472233475"><ele>120.0</ele><time>2026-05-04T13:49:08Z</time></trkpt><trkpt lat="45.04406314100536" lon="16.399360157011966"><ele>121.0</ele><time>2026-05-04T13:49:09Z</time></trkpt><trkpt lat="45.044194188138135" lon="16.398999175037627"><ele>122.0</ele><time>2026-05-04T13:49:10Z</time></trkpt><trkpt lat="45.04432231979258" lon="16.398632711702387"><ele>122.0</ele><time>2026-05-04T13:49:11Z</time></trkpt><trkpt lat="45.044455132615404" lon="16.39826689369234"><ele>122.0</ele><time>2026-05-04T13:49:12Z</time></trkpt><trkpt lat="45.044600640980704" lon="16.397913279482847"><ele>121.5</ele><time>2026-05-04T13:49:13Z</time></trkpt><trkpt lat="45.04475093091045" lon="16.397568256162515"><ele>121.0</ele><time>2026-05-04T13:49:14Z</time></trkpt><trkpt lat="45.0449016388764" lon="16.397219021422057"><ele>122.5</ele><time>2026-05-04T13:49:15Z</time></trkpt><trkpt lat="45.045050830592224" lon="16.396863478079094"><ele>124.0</ele><time>2026-05-04T13:49:16Z</time></trkpt><trkpt lat="45.04519145018571" lon="16.39650521858492"><ele>123.0</ele><time>2026-05-04T13:49:17Z</time></trkpt><trkpt lat="45.045331852196135" lon="16.396138554272795"><ele>122.0</ele><time>2026-05-04T13:49:18Z</time></trkpt><trkpt lat="45.045471058981185" lon="16.395774087629597"><ele>121.5</ele><time>2026-05-04T13:49:19Z</time></trkpt><trkpt lat="45.045608805999876" lon="16.395412910783346"><ele>121.0</ele><time>2026-05-04T13:49:20Z</time></trkpt><trkpt lat="45.04574824524301" lon="16.395051687650664"><ele>122.0</ele><time>2026-05-04T13:49:21Z</time></trkpt><trkpt lat="45.04588218142852" lon="16.39471253308847"><ele>123.0</ele><time>2026-05-04T13:49:22Z</time></trkpt><trkpt lat="45.04600994153569" lon="16.394397509563007"><ele>123.0</ele><time>2026-05-04T13:49:23Z</time></trkpt><trkpt lat="45.04613006823237" lon="16.3940860422277"><ele>123.0</ele><time>2026-05-04T13:49:24Z</time></trkpt><trkpt lat="45.04624687917709" lon="16.393794398539953"><ele>122.0</ele><time>2026-05-04T13:49:25Z</time></trkpt><trkpt lat="45.046355964222315" lon="16.393526027568544"><ele>121.0</ele><time>2026-05-04T13:49:26Z</time></trkpt><trkpt lat="45.04646515193446" lon="16.39327438449077"><ele>120.0</ele><time>2026-05-04T13:49:27Z</time></trkpt><trkpt lat="45.046575345430384" lon="16.39304760291566"><ele>120.33333333333334</ele><time>2026-05-04T13:49:28Z</time></trkpt><trkpt lat="45.04669729012451" lon="16.392854032341067"><ele>120.66666666666667</ele><time>2026-05-04T13:49:29Z</time></trkpt><trkpt lat="45.04683854829249" lon="16.392698697387083"><ele>121.0</ele><time>2026-05-04T13:49:30Z</time></trkpt><trkpt lat="45.046996041581345" lon="16.39258513625104"><ele>121.0</ele><time>2026-05-04T13:49:31Z</time></trkpt><trkpt lat="45.047153917335216" lon="16.392487537386085"><ele>121.0</ele><time>2026-05-04T13:49:32Z</time></trkpt><trkpt lat="45.0472961883654" lon="16.392395011067343"><ele>121.0</ele><time>2026-05-04T13:49:33Z</time></trkpt><trkpt lat="45.04742637303638" lon="16.392299958619066"><ele>122.25</ele><time>2026-05-04T13:49:34Z</time></trkpt><trkpt lat="45.047554236637744" lon="16.392194898377"><ele>123.5</ele><time>2026-05-04T13:49:35Z</time></trkpt><trkpt lat="45.047672573648285" lon="16.392074185366273"><ele>124.75</ele><time>2026-05-04T13:49:36Z</time></trkpt><trkpt lat="45.04777864153746" lon="16.39193992770032"><ele>126.0</ele><time>2026-05-04T13:49:37Z</time></trkpt><trkpt lat="45.04786469875601" lon="16.391780188372596"><ele>126.0</ele><time>2026-05-04T13:49:38Z</time></trkpt><trkpt lat="45.047926942122714" lon="16.391605503046264"><ele>126.0</ele><time>2026-05-04T13:49:39Z</time></trkpt><trkpt lat="45.04797044135707" lon="16.3914400002744"><ele>126.0</ele><time>2026-05-04T13:49:40Z</time></trkpt><trkpt lat="45.047999885354265" lon="16.391272008411107"><ele>126.0</ele><time>2026-05-04T13:49:41Z</time></trkpt><trkpt lat="45.04800437269203" lon="16.391095871238548"><ele>125.0</ele><time>2026-05-04T13:49:42Z</time></trkpt><trkpt lat="45.047994433906865" lon="16.390930687687362"><ele>124.0</ele><time>2026-05-04T13:49:43Z</time></trkpt><trkpt lat="45.047978501224094" lon="16.390782414608505"><ele>123.0</ele><time>2026-05-04T13:49:44Z</time></trkpt><trkpt lat="45.047958286231" lon="16.39065097101642"><ele>122.0</ele><time>2026-05-04T13:49:45Z</time></trkpt><trkpt lat="45.04792712310362" lon="16.390528220486576"><ele>121.0</ele><time>2026-05-04T13:49:46Z</time></trkpt><trkpt lat="45.04789467296846" lon="16.39039717814636"><ele>121.0</ele><time>2026-05-04T13:49:47Z</time></trkpt><trkpt lat="45.047864029707604" lon="16.390265730189917"><ele>121.0</ele><time>2026-05-04T13:49:48Z</time></trkpt><trkpt lat="45.047833717608746" lon="16.390130420113508"><ele>121.0</ele><time>2026-05-04T13:49:49Z</time></trkpt><trkpt lat="45.04780882377292" lon="16.389985760099187"><ele>121.0</ele><time>2026-05-04T13:49:50Z</time></trkpt><trkpt lat="45.04779222217757" lon="16.389831046866927"><ele>121.0</ele><time>2026-05-04T13:49:51Z</time></trkpt><trkpt lat="45.047787312006655" lon="16.389662872180676"><ele>121.0</ele><time>2026-05-04T13:49:52Z</time></trkpt><trkpt lat="45.04778934215326" lon="16.389490370444946"><ele>121.0</ele><time>2026-05-04T13:49:53Z</time></trkpt><trkpt lat="45.04779323864205" lon="16.389309890841012"><ele>121.0</ele><time>2026-05-04T13:49:54Z</time></trkpt><trkpt lat="45.047797419977094" lon="16.38911912280742"><ele>121.0</ele><time>2026-05-04T13:49:55Z</time></trkpt><trkpt lat="45.04779705635738" lon="16.388919695327925"><ele>120.5</ele><time>2026-05-04T13:49:56Z</time></trkpt><trkpt lat="45.04779540959337" lon="16.388711448431792"><ele>120.0</ele><time>2026-05-04T13:49:57Z</time></trkpt><trkpt lat="45.04779589152638" lon="16.388503927535375"><ele>119.5</ele><time>2026-05-04T13:49:58Z</time></trkpt><trkpt lat="45.04779875882221" lon="16.38830380784735"><ele>119.0</ele><time>2026-05-04T13:49:59Z</time></trkpt><trkpt lat="45.04780224949079" lon="16.388108372778113"><ele>118.5</ele><time>2026-05-04T13:50:00Z</time></trkpt><trkpt lat="45.047807048524284" lon="16.387909865592004"><ele>118.0</ele><time>2026-05-04T13:50:01Z</time></trkpt><trkpt lat="45.04781420829276" lon="16.387710375430213"><ele>117.5</ele><time>2026-05-04T13:50:02Z</time></trkpt><trkpt lat="45.04782720352605" lon="16.38751562675456"><ele>117.0</ele><time>2026-05-04T13:50:03Z</time></trkpt><trkpt lat="45.04784543684692" lon="16.387328614759348"><ele>117.0</ele><time>2026-05-04T13:50:04Z</time></trkpt><trkpt lat="45.04786950276262" lon="16.38715319150069"><ele>117.0</ele><time>2026-05-04T13:50:05Z</time></trkpt><trkpt lat="45.04790058350622" lon="16.38697941366723"><ele>117.0</ele><time>2026-05-04T13:50:06Z</time></trkpt><trkpt lat="45.04793774971201" lon="16.386805390240724"><ele>117.0</ele><time>2026-05-04T13:50:07Z</time></trkpt><trkpt lat="45.04798505828501" lon="16.386650578883643"><ele>117.0</ele><time>2026-05-04T13:50:08Z</time></trkpt><trkpt lat="45.04803899504556" lon="16.38650249928383"><ele>116.99999999999999</ele><time>2026-05-04T13:50:09Z</time></trkpt><trkpt lat="45.04809482354681" lon="16.38636931426409"><ele>116.99999999999999</ele><time>2026-05-04T13:50:10Z</time></trkpt><trkpt lat="45.048152661713544" lon="16.38624577071466"><ele>117.0</ele><time>2026-05-04T13:50:11Z</time></trkpt><trkpt lat="45.04821286719792" lon="16.386131890783126"><ele>117.0</ele><time>2026-05-04T13:50:12Z</time></trkpt><trkpt lat="45.04827774388963" lon="16.386017148828675"><ele>117.16666666666667</ele><time>2026-05-04T13:50:13Z</time></trkpt><trkpt lat="45.048348560336514" lon="16.38590915303616"><ele>117.33333333333334</ele><time>2026-05-04T13:50:14Z</time></trkpt><trkpt lat="45.04841625859704" lon="16.385822244646555"><ele>117.5</ele><time>2026-05-04T13:50:15Z</time></trkpt><trkpt lat="45.0484827001342" lon="16.38574751818541"><ele>117.66666666666667</ele><time>2026-05-04T13:50:16Z</time></trkpt><trkpt lat="45.04854019572772" lon="16.385686718545646"><ele>117.83333333333334</ele><time>2026-05-04T13:50:17Z</time></trkpt><trkpt lat="45.0486028163072" lon="16.38562437209158"><ele>118.0</ele><time>2026-05-04T13:50:18Z</time></trkpt><trkpt lat="45.04866870272548" lon="16.385559355828484"><ele>118.2</ele><time>2026-05-04T13:50:19Z</time></trkpt><trkpt lat="45.04874838075414" lon="16.385484398874066"><ele>118.4</ele><time>2026-05-04T13:50:20Z</time></trkpt><trkpt lat="45.048835613433745" lon="16.385409239846634"><ele>118.60000000000001</ele><time>2026-05-04T13:50:21Z</time></trkpt><trkpt lat="45.048926227604795" lon="16.38532824752844"><ele>118.80000000000001</ele><time>2026-05-04T13:50:22Z</time></trkpt><trkpt lat="45.04900334944301" lon="16.385260351257127"><ele>119.0</ele><time>2026-05-04T13:50:23Z</time></trkpt><trkpt lat="45.04907603166287" lon="16.385198304589444"><ele>118.99999999999999</ele><time>2026-05-04T13:50:24Z</time></trkpt><trkpt lat="45.04914002895711" lon="16.385143684759324"><ele>119.0</ele><time>2026-05-04T13:50:25Z</time></trkpt><trkpt lat="45.04919539884375" lon="16.38509609175058"><ele>119.0</ele><time>2026-05-04T13:50:26Z</time></trkpt><trkpt lat="45.04927106660974" lon="16.385023277708154"><ele>119.0</ele><time>2026-05-04T13:50:28Z</time></trkpt><trkpt lat="45.04934807569299" lon="16.3849652485157"><ele>118.99999999999999</ele><time>2026-05-04T13:50:35Z</time></trkpt><trkpt lat="45.04940174712735" lon="16.38491768652178"><ele>119.0</ele><time>2026-05-04T13:50:37Z</time></trkpt><trkpt lat="45.04947982888119" lon="16.384822101026277"><ele>119.0</ele><time>2026-05-04T13:50:40Z</time></trkpt><trkpt lat="45.049578877415314" lon="16.3847392545812"><ele>119.0</ele><time>2026-05-04T13:50:42Z</time></trkpt><trkpt lat="45.049681174415014" lon="16.384649936114492"><ele>119.0</ele><time>2026-05-04T13:50:44Z</time></trkpt><trkpt lat="45.04972983037951" lon="16.384584350162353"><ele>119.0</ele><time>2026-05-04T13:50:45Z</time></trkpt><trkpt lat="45.04976340702702" lon="16.384444751890957"><ele>119.0</ele><time>2026-05-04T13:50:47Z</time></trkpt><trkpt lat="45.04973331310339" lon="16.384321946704983"><ele>118.80000000000001</ele><time>2026-05-04T13:50:49Z</time></trkpt><trkpt lat="45.04968426185631" lon="16.384228715565357"><ele>118.60000000000001</ele><time>2026-05-04T13:50:51Z</time></trkpt><trkpt lat="45.04963017229426" lon="16.384121108160542"><ele>118.4</ele><time>2026-05-04T13:50:53Z</time></trkpt><trkpt lat="45.04957221149143" lon="16.383991520390577"><ele>118.2</ele><time>2026-05-04T13:50:55Z</time></trkpt><trkpt lat="45.04953758472632" lon="16.383915586609422"><ele>118.0</ele><time>2026-05-04T13:50:56Z</time></trkpt><trkpt lat="45.04947746235938" lon="16.383776691148363"><ele>118.33333333333334</ele><time>2026-05-04T13:50:58Z</time></trkpt><trkpt lat="45.04943090816477" lon="16.383676730599436"><ele>118.66666666666667</ele><time>2026-05-04T13:51:00Z</time></trkpt><trkpt lat="45.049394491762826" lon="16.3835986951857"><ele>119.0</ele><time>2026-05-04T13:51:03Z</time></trkpt><trkpt lat="45.049353601818176" lon="16.383508274479144"><ele>119.33333333333334</ele><time>2026-05-04T13:51:22Z</time></trkpt><trkpt lat="45.04930958190507" lon="16.383410440056387"><ele>119.66666666666667</ele><time>2026-05-04T13:51:24Z</time></trkpt><trkpt lat="45.049259882050954" lon="16.383303747094267"><ele>120.0</ele><time>2026-05-04T13:51:26Z</time></trkpt><trkpt lat="45.049215699729" lon="16.383202185384874"><ele>120.0</ele><time>2026-05-04T13:51:28Z</time></trkpt><trkpt lat="45.049166717517174" lon="16.383101597986368"><ele>120.0</ele><time>2026-05-04T13:51:30Z</time></trkpt><trkpt lat="45.04910384628476" lon="16.382939383497966"><ele>120.0</ele><time>2026-05-04T13:51:32Z</time></trkpt><trkpt lat="45.04907403853074" lon="16.38283380388799"><ele>120.0</ele><time>2026-05-04T13:51:33Z</time></trkpt><trkpt lat="45.04904154503896" lon="16.38272270299737"><ele>120.0</ele><time>2026-05-04T13:51:34Z</time></trkpt><trkpt lat="45.04900962009919" lon="16.382599508723565"><ele>120.4</ele><time>2026-05-04T13:51:35Z</time></trkpt><trkpt lat="45.04897653262246" lon="16.382471131449453"><ele>120.8</ele><time>2026-05-04T13:51:36Z</time></trkpt><trkpt lat="45.048945895161204" lon="16.382345673234056"><ele>121.19999999999999</ele><time>2026-05-04T13:51:37Z</time></trkpt><trkpt lat="45.04891898785945" lon="16.382218947654067"><ele>121.6</ele><time>2026-05-04T13:51:38Z</time></trkpt><trkpt lat="45.04888645499058" lon="16.382096822417612"><ele>122.0</ele><time>2026-05-04T13:51:39Z</time></trkpt><trkpt lat="45.0488582031559" lon="16.381974264321638"><ele>122.33333333333333</ele><time>2026-05-04T13:51:40Z</time></trkpt><trkpt lat="45.04883078868742" lon="16.381855069982546"><ele>122.66666666666666</ele><time>2026-05-04T13:51:41Z</time></trkpt><trkpt lat="45.048805397850195" lon="16.38174040436041"><ele>123.0</ele><time>2026-05-04T13:51:42Z</time></trkpt><trkpt lat="45.04878555247186" lon="16.381625554766885"><ele>123.33333333333334</ele><time>2026-05-04T13:51:43Z</time></trkpt><trkpt lat="45.04876385638279" lon="16.381518078130103"><ele>123.66666666666667</ele><time>2026-05-04T13:51:44Z</time></trkpt><trkpt lat="45.04874564083008" lon="16.38140672779356"><ele>124.0</ele><time>2026-05-04T13:51:45Z</time></trkpt><trkpt lat="45.04871644440509" lon="16.381303619422816"><ele>124.66666666666667</ele><time>2026-05-04T13:51:46Z</time></trkpt><trkpt lat="45.048663084604684" lon="16.381208612425187"><ele>125.33333333333334</ele><time>2026-05-04T13:51:47Z</time></trkpt><trkpt lat="45.048596409989905" lon="16.381138820711694"><ele>126.0</ele><time>2026-05-04T13:51:48Z</time></trkpt><trkpt lat="45.04850769577678" lon="16.38108789139936"><ele>126.66666666666666</ele><time>2026-05-04T13:51:49Z</time></trkpt><trkpt lat="45.04841845682094" lon="16.38103884711327"><ele>127.33333333333333</ele><time>2026-05-04T13:51:50Z</time></trkpt><trkpt lat="45.04833774310737" lon="16.38100989408975"><ele>128.0</ele><time>2026-05-04T13:51:51Z</time></trkpt><trkpt lat="45.04824989654219" lon="16.380974383993156"><ele>127.99999999999999</ele><time>2026-05-04T13:51:52Z</time></trkpt><trkpt lat="45.048168159225" lon="16.38094155128285"><ele>128.0</ele><time>2026-05-04T13:51:53Z</time></trkpt><trkpt lat="45.048091426806536" lon="16.380900064120958"><ele>128.0</ele><time>2026-05-04T13:51:54Z</time></trkpt><trkpt lat="45.04801191436092" lon="16.380864949301024"><ele>128.0</ele><time>2026-05-04T13:51:55Z</time></trkpt><trkpt lat="45.04792942957241" lon="16.380823721599167"><ele>127.99999999999999</ele><time>2026-05-04T13:51:56Z</time></trkpt><trkpt lat="45.047848069065815" lon="16.38077723687548"><ele>128.0</ele><time>2026-05-04T13:51:57Z</time></trkpt><trkpt lat="45.04776462910464" lon="16.380723470694008"><ele>128.0</ele><time>2026-05-04T13:51:58Z</time></trkpt><trkpt lat="45.047683348538364" lon="16.380669508240963"><ele>128.0</ele><time>2026-05-04T13:51:59Z</time></trkpt><trkpt lat="45.04760648098674" lon="16.380590047584377"><ele>128.0</ele><time>2026-05-04T13:52:00Z</time></trkpt><trkpt lat="45.047523625732424" lon="16.380505283153184"><ele>128.0</ele><time>2026-05-04T13:52:01Z</time></trkpt><trkpt lat="45.047447614460694" lon="16.38039933307029"><ele>128.0</ele><time>2026-05-04T13:52:02Z</time></trkpt><trkpt lat="45.047383034564746" lon="16.38027276569075"><ele>129.20000000000002</ele><time>2026-05-04T13:52:03Z</time></trkpt><trkpt lat="45.04733759201082" lon="16.38013961075847"><ele>130.4</ele><time>2026-05-04T13:52:04Z</time></trkpt><trkpt lat="45.047290497501905" lon="16.38000480930106"><ele>131.60000000000002</ele><time>2026-05-04T13:52:05Z</time></trkpt><trkpt lat="45.0472423650966" lon="16.379856322334042"><ele>132.8</ele><time>2026-05-04T13:52:06Z</time></trkpt><trkpt lat="45.04719334938729" lon="16.379714775359016"><ele>134.0</ele><time>2026-05-04T13:52:07Z</time></trkpt><trkpt lat="45.04714325540775" lon="16.37955544979163"><ele>134.75</ele><time>2026-05-04T13:52:08Z</time></trkpt><trkpt lat="45.04709794105638" lon="16.37940576353376"><ele>135.5</ele><time>2026-05-04T13:52:09Z</time></trkpt><trkpt lat="45.047051308974" lon="16.379262239097237"><ele>136.25</ele><time>2026-05-04T13:52:10Z</time></trkpt><trkpt lat="45.04700423435363" lon="16.379116589953643"><ele>137.0</ele><time>2026-05-04T13:52:11Z</time></trkpt><trkpt lat="45.04695445153006" lon="16.37896365286648"><ele>136.75</ele><time>2026-05-04T13:52:12Z</time></trkpt><trkpt lat="45.04690681897329" lon="16.378807316423828"><ele>136.5</ele><time>2026-05-04T13:52:13Z</time></trkpt><trkpt lat="45.046861400143655" lon="16.37864198235489"><ele>136.25</ele><time>2026-05-04T13:52:14Z</time></trkpt><trkpt lat="45.04681886770847" lon="16.378470159553203"><ele>136.0</ele><time>2026-05-04T13:52:15Z</time></trkpt><trkpt lat="45.04677690796613" lon="16.378305914152804"><ele>136.0</ele><time>2026-05-04T13:52:16Z</time></trkpt><trkpt lat="45.04673648080473" lon="16.378153680845642"><ele>136.0</ele><time>2026-05-04T13:52:17Z</time></trkpt><trkpt lat="45.04670105328853" lon="16.378012529764323"><ele>136.0</ele><time>2026-05-04T13:52:18Z</time></trkpt><trkpt lat="45.046670767616334" lon="16.377883543746087"><ele>136.0</ele><time>2026-05-04T13:52:19Z</time></trkpt><trkpt lat="45.04663903234276" lon="16.377756141279274"><ele>136.0</ele><time>2026-05-04T13:52:20Z</time></trkpt><trkpt lat="45.046607995181276" lon="16.377633576120513"><ele>136.33333333333334</ele><time>2026-05-04T13:52:21Z</time></trkpt><trkpt lat="45.04658132781391" lon="16.3775225041744"><ele>136.66666666666669</ele><time>2026-05-04T13:52:22Z</time></trkpt><trkpt lat="45.04655798966064" lon="16.37743579925358"><ele>137.0</ele><time>2026-05-04T13:52:23Z</time></trkpt><trkpt lat="45.04652824257587" lon="16.377309432053"><ele>137.33333333333334</ele><time>2026-05-04T13:52:25Z</time></trkpt><trkpt lat="45.04649797833298" lon="16.37721726939787"><ele>137.66666666666666</ele><time>2026-05-04T13:52:41Z</time></trkpt><trkpt lat="45.04646243957449" lon="16.377101684300925"><ele>138.0</ele><time>2026-05-04T13:52:43Z</time></trkpt><trkpt lat="45.046414238408204" lon="16.37696997707517"><ele>136.66666666666666</ele><time>2026-05-04T13:52:45Z</time></trkpt><trkpt lat="45.04636557918818" lon="16.376811719091794"><ele>135.33333333333334</ele><time>2026-05-04T13:52:47Z</time></trkpt><trkpt lat="45.046372545734634" lon="16.376716840398107"><ele>134.0</ele><time>2026-05-04T13:52:48Z</time></trkpt><trkpt lat="45.04639447382597" lon="16.37662460266938"><ele>132.66666666666669</ele><time>2026-05-04T13:52:49Z</time></trkpt><trkpt lat="45.04644243172338" lon="16.376545403398737"><ele>131.33333333333334</ele><time>2026-05-04T13:52:50Z</time></trkpt><trkpt lat="45.04651536093665" lon="16.376486645180233"><ele>130.0</ele><time>2026-05-04T13:52:51Z</time></trkpt><trkpt lat="45.046604123170525" lon="16.37645002949126"><ele>128.2</ele><time>2026-05-04T13:52:52Z</time></trkpt><trkpt lat="45.04670137384427" lon="16.37642109688699"><ele>126.4</ele><time>2026-05-04T13:52:53Z</time></trkpt><trkpt lat="45.04680257990147" lon="16.376393776448808"><ele>124.6</ele><time>2026-05-04T13:52:54Z</time></trkpt><trkpt lat="45.04690942720824" lon="16.37636595448857"><ele>122.8</ele><time>2026-05-04T13:52:55Z</time></trkpt><trkpt lat="45.04702034417851" lon="16.376345130368613"><ele>121.0</ele><time>2026-05-04T13:52:56Z</time></trkpt><trkpt lat="45.04713552353562" lon="16.376338543562465"><ele>121.0</ele><time>2026-05-04T13:52:57Z</time></trkpt><trkpt lat="45.04725464572918" lon="16.376333204163082"><ele>121.0</ele><time>2026-05-04T13:52:58Z</time></trkpt><trkpt lat="45.047370473879596" lon="16.37631041352343"><ele>121.0</ele><time>2026-05-04T13:52:59Z</time></trkpt><trkpt lat="45.04748180691523" lon="16.37626745643169"><ele>121.0</ele><time>2026-05-04T13:53:00Z</time></trkpt><trkpt lat="45.04758933753556" lon="16.376212917001073"><ele>121.0</ele><time>2026-05-04T13:53:01Z</time></trkpt><trkpt lat="45.047695527989056" lon="16.376142019649855"><ele>121.0</ele><time>2026-05-04T13:53:02Z</time></trkpt><trkpt lat="45.047799407901955" lon="16.376053004514837"><ele>121.0</ele><time>2026-05-04T13:53:03Z</time></trkpt><trkpt lat="45.04790047214443" lon="16.37595437682241"><ele>121.0</ele><time>2026-05-04T13:53:04Z</time></trkpt><trkpt lat="45.0479944397939" lon="16.375832799786068"><ele>121.0</ele><time>2026-05-04T13:53:05Z</time></trkpt><trkpt lat="45.04808766334947" lon="16.37570577238294"><ele>121.0</ele><time>2026-05-04T13:53:06Z</time></trkpt><trkpt lat="45.048178166082145" lon="16.375574273297815"><ele>121.0</ele><time>2026-05-04T13:53:07Z</time></trkpt><trkpt lat="45.0482667301774" lon="16.375451444792414"><ele>121.0</ele><time>2026-05-04T13:53:08Z</time></trkpt><trkpt lat="45.04835387071245" lon="16.375339741703442"><ele>121.0</ele><time>2026-05-04T13:53:09Z</time></trkpt><trkpt lat="45.0484390457034" lon="16.375233156171515"><ele>121.0</ele><time>2026-05-04T13:53:10Z</time></trkpt><trkpt lat="45.048512120855264" lon="16.375130217779766"><ele>121.0</ele><time>2026-05-04T13:53:11Z</time></trkpt><trkpt lat="45.0485856122796" lon="16.375041698659416"><ele>121.0</ele><time>2026-05-04T13:53:12Z</time></trkpt><trkpt lat="45.04865512823271" lon="16.374967959490014"><ele>121.0</ele><time>2026-05-04T13:53:13Z</time></trkpt><trkpt lat="45.04872301378783" lon="16.374882573450336"><ele>121.0</ele><time>2026-05-04T13:53:14Z</time></trkpt><trkpt lat="45.04877545939751" lon="16.374797210787964"><ele>120.99999999999999</ele><time>2026-05-04T13:53:15Z</time></trkpt><trkpt lat="45.0488133009021" lon="16.374715631344905"><ele>121.0</ele><time>2026-05-04T13:53:16Z</time></trkpt><trkpt lat="45.048852649192554" lon="16.374637072220633"><ele>121.0</ele><time>2026-05-04T13:53:17Z</time></trkpt><trkpt lat="45.04889680061058" lon="16.374555720107725"><ele>120.99999999999999</ele><time>2026-05-04T13:53:18Z</time></trkpt><trkpt lat="45.04894085942628" lon="16.374471123971635"><ele>121.0</ele><time>2026-05-04T13:53:19Z</time></trkpt><trkpt lat="45.04898579361895" lon="16.37439102072031"><ele>121.0</ele><time>2026-05-04T13:53:20Z</time></trkpt><trkpt lat="45.049033894990465" lon="16.374312063971246"><ele>121.0</ele><time>2026-05-04T13:53:21Z</time></trkpt><trkpt lat="45.049080769626514" lon="16.37422960727048"><ele>120.99999999999999</ele><time>2026-05-04T13:53:22Z</time></trkpt><trkpt lat="45.049123871111824" lon="16.374143123572384"><ele>121.0</ele><time>2026-05-04T13:53:23Z</time></trkpt><trkpt lat="45.04915989429455" lon="16.374055078539723"><ele>121.0</ele><time>2026-05-04T13:53:24Z</time></trkpt><trkpt lat="45.0492014018542" lon="16.373968729250148"><ele>120.99999999999999</ele><time>2026-05-04T13:53:25Z</time></trkpt><trkpt lat="45.0492323500085" lon="16.37388933391892"><ele>121.0</ele><time>2026-05-04T13:53:26Z</time></trkpt><trkpt lat="45.049259462489864" lon="16.37380181640009"><ele>121.0</ele><time>2026-05-04T13:53:27Z</time></trkpt><trkpt lat="45.04929776226736" lon="16.373728005408605"><ele>121.00000000000001</ele><time>2026-05-04T13:53:28Z</time></trkpt><trkpt lat="45.049333605154104" lon="16.37365131771265"><ele>121.0</ele><time>2026-05-04T13:53:29Z</time></trkpt><trkpt lat="45.049363279333264" lon="16.37356975211223"><ele>121.0</ele><time>2026-05-04T13:53:30Z</time></trkpt><trkpt lat="45.04939252621732" lon="16.373488341971466"><ele>121.0</ele><time>2026-05-04T13:53:31Z</time></trkpt><trkpt lat="45.04945198168712" lon="16.37336897553527"><ele>121.00000000000001</ele><time>2026-05-04T13:53:33Z</time></trkpt><trkpt lat="45.04950464842906" lon="16.37324451552688"><ele>121.0</ele><time>2026-05-04T13:53:35Z</time></trkpt><trkpt lat="45.04956857551648" lon="16.373100517892365"><ele>120.33333333333334</ele><time>2026-05-04T13:53:37Z</time></trkpt><trkpt lat="45.049605324778796" lon="16.373012996671815"><ele>119.66666666666667</ele><time>2026-05-04T13:53:38Z</time></trkpt><trkpt lat="45.04964312912947" lon="16.372926541162805"><ele>119.0</ele><time>2026-05-04T13:53:39Z</time></trkpt><trkpt lat="45.04967729458191" lon="16.372843697177753"><ele>118.33333333333334</ele><time>2026-05-04T13:53:40Z</time></trkpt><trkpt lat="45.049710598936656" lon="16.37276666574776"><ele>117.66666666666667</ele><time>2026-05-04T13:53:41Z</time></trkpt><trkpt lat="45.04976851281387" lon="16.372634746467376"><ele>117.0</ele><time>2026-05-04T13:53:43Z</time></trkpt><trkpt lat="45.049822634799334" lon="16.372502366610743"><ele>117.0</ele><time>2026-05-04T13:53:45Z</time></trkpt><trkpt lat="45.049862896700134" lon="16.372418385476937"><ele>117.0</ele><time>2026-05-04T13:53:47Z</time></trkpt><trkpt lat="45.049907887355815" lon="16.372340259519614"><ele>117.0</ele><time>2026-05-04T13:54:35Z</time></trkpt><trkpt lat="45.04995619113212" lon="16.37226973511364"><ele>117.0</ele><time>2026-05-04T13:54:38Z</time></trkpt><trkpt lat="45.04999115834826" lon="16.372193809073444"><ele>117.0</ele><time>2026-05-04T13:55:44Z</time></trkpt><trkpt lat="45.050022231297774" lon="16.372112326550777"><ele>117.0</ele><time>2026-05-04T13:57:11Z</time></trkpt><trkpt lat="45.050064517161154" lon="16.371958334426747"><ele>117.33333333333333</ele><time>2026-05-04T14:01:23Z</time></trkpt><trkpt lat="45.050091545587534" lon="16.371874340207427"><ele>117.66666666666666</ele><time>2026-05-04T14:01:25Z</time></trkpt><trkpt lat="45.050135194663206" lon="16.371704955217805"><ele>118.0</ele><time>2026-05-04T14:01:27Z</time></trkpt><trkpt lat="45.050169273409615" lon="16.371618833752557"><ele>118.33333333333333</ele><time>2026-05-04T14:01:28Z</time></trkpt><trkpt lat="45.05024442599919" lon="16.371569741010173"><ele>118.66666666666666</ele><time>2026-05-04T14:01:29Z</time></trkpt><trkpt lat="45.050293598151896" lon="16.371487991351472"><ele>119.0</ele><time>2026-05-04T14:01:30Z</time></trkpt><trkpt lat="45.0503467108183" lon="16.371408658433268"><ele>119.2</ele><time>2026-05-04T14:01:31Z</time></trkpt><trkpt lat="45.050405542889514" lon="16.371330200736715"><ele>119.4</ele><time>2026-05-04T14:01:32Z</time></trkpt><trkpt lat="45.05047798413763" lon="16.37124321956148"><ele>119.6</ele><time>2026-05-04T14:01:33Z</time></trkpt><trkpt lat="45.05055524364442" lon="16.37115692075847"><ele>119.8</ele><time>2026-05-04T14:01:34Z</time></trkpt><trkpt lat="45.050629198112496" lon="16.37107436281199"><ele>120.0</ele><time>2026-05-04T14:01:35Z</time></trkpt><trkpt lat="45.0506969671536" lon="16.370997199651715"><ele>120.0</ele><time>2026-05-04T14:01:36Z</time></trkpt><trkpt lat="45.05076597215594" lon="16.37092106413722"><ele>120.0</ele><time>2026-05-04T14:01:37Z</time></trkpt><trkpt lat="45.05082977763552" lon="16.370852271953442"><ele>120.0</ele><time>2026-05-04T14:01:38Z</time></trkpt><trkpt lat="45.05088992979931" lon="16.37078710358568"><ele>120.0</ele><time>2026-05-04T14:01:39Z</time></trkpt><trkpt lat="45.05094633976023" lon="16.370726719967234"><ele>120.0</ele><time>2026-05-04T14:01:40Z</time></trkpt><trkpt lat="45.05100126112234" lon="16.3706677827859"><ele>120.0</ele><time>2026-05-04T14:01:41Z</time></trkpt><trkpt lat="45.05107550938585" lon="16.37058695849807"><ele>120.2</ele><time>2026-05-04T14:01:43Z</time></trkpt><trkpt lat="45.051162497428685" lon="16.370563443288834"><ele>120.4</ele><time>2026-05-04T14:15:20Z</time></trkpt><trkpt lat="45.051221029600185" lon="16.370493806531766"><ele>120.6</ele><time>2026-05-04T14:15:22Z</time></trkpt><trkpt lat="45.051304893146806" lon="16.370325536249634"><ele>120.8</ele><time>2026-05-04T14:15:24Z</time></trkpt><trkpt lat="45.051354734153605" lon="16.3702369326217"><ele>121.0</ele><time>2026-05-04T14:15:25Z</time></trkpt><trkpt lat="45.05144972533855" lon="16.37016239257088"><ele>121.19999999999999</ele><time>2026-05-04T14:15:27Z</time></trkpt><trkpt lat="45.051541595064286" lon="16.370076129846726"><ele>121.39999999999999</ele><time>2026-05-04T14:15:29Z</time></trkpt><trkpt lat="45.05165210361502" lon="16.37002413513941"><ele>121.6</ele><time>2026-05-04T14:15:31Z</time></trkpt><trkpt lat="45.05177269208414" lon="16.370043426433504"><ele>121.8</ele><time>2026-05-04T14:15:33Z</time></trkpt><trkpt lat="45.05183343309243" lon="16.37008923336753"><ele>122.0</ele><time>2026-05-04T14:15:34Z</time></trkpt><trkpt lat="45.05189618949483" lon="16.370152830652152"><ele>122.16666666666666</ele><time>2026-05-04T14:15:35Z</time></trkpt><trkpt lat="45.0519460035783" lon="16.370247635318297"><ele>122.33333333333333</ele><time>2026-05-04T14:15:36Z</time></trkpt><trkpt lat="45.05197850303143" lon="16.37035067244023"><ele>122.5</ele><time>2026-05-04T14:15:37Z</time></trkpt><trkpt lat="45.05200466553955" lon="16.370463430097765"><ele>122.66666666666666</ele><time>2026-05-04T14:15:38Z</time></trkpt><trkpt lat="45.05203705694337" lon="16.370574861366293"><ele>122.83333333333333</ele><time>2026-05-04T14:15:39Z</time></trkpt><trkpt lat="45.05207595102058" lon="16.370671148816122"><ele>123.0</ele><time>2026-05-04T14:15:40Z</time></trkpt><trkpt lat="45.05211958541624" lon="16.37076240310247"><ele>123.0</ele><time>2026-05-04T14:15:41Z</time></trkpt><trkpt lat="45.052161404232926" lon="16.3708578651053"><ele>123.0</ele><time>2026-05-04T14:15:42Z</time></trkpt><trkpt lat="45.052206141150236" lon="16.37094890483539"><ele>123.0</ele><time>2026-05-04T14:15:43Z</time></trkpt><trkpt lat="45.05225137102655" lon="16.371043141289313"><ele>123.0</ele><time>2026-05-04T14:15:44Z</time></trkpt><trkpt lat="45.05229804276519" lon="16.371137459607397"><ele>123.0</ele><time>2026-05-04T14:15:45Z</time></trkpt><trkpt lat="45.05234288933424" lon="16.371229033966575"><ele>123.0</ele><time>2026-05-04T14:15:46Z</time></trkpt><trkpt lat="45.05238991697303" lon="16.37131491870634"><ele>122.83333333333333</ele><time>2026-05-04T14:15:47Z</time></trkpt><trkpt lat="45.05243622120425" lon="16.37140796438709"><ele>122.66666666666666</ele><time>2026-05-04T14:15:48Z</time></trkpt><trkpt lat="45.05248398182398" lon="16.371503698425872"><ele>122.5</ele><time>2026-05-04T14:15:49Z</time></trkpt><trkpt lat="45.05253517291335" lon="16.37160384163425"><ele>122.33333333333333</ele><time>2026-05-04T14:15:50Z</time></trkpt><trkpt lat="45.052592117261135" lon="16.371708826933364"><ele>122.16666666666666</ele><time>2026-05-04T14:15:51Z</time></trkpt><trkpt lat="45.0526513737221" lon="16.371823335325544"><ele>122.0</ele><time>2026-05-04T14:15:52Z</time></trkpt><trkpt lat="45.052724281172196" lon="16.371928906430497"><ele>122.0</ele><time>2026-05-04T14:15:53Z</time></trkpt><trkpt lat="45.052804979392235" lon="16.372034154675987"><ele>121.99999999999999</ele><time>2026-05-04T14:15:54Z</time></trkpt><trkpt lat="45.05288955207519" lon="16.372135721640703"><ele>121.99999999999999</ele><time>2026-05-04T14:15:55Z</time></trkpt><trkpt lat="45.05297495034725" lon="16.37223312224144"><ele>122.0</ele><time>2026-05-04T14:15:56Z</time></trkpt><trkpt lat="45.053064949618545" lon="16.372325523594963"><ele>122.0</ele><time>2026-05-04T14:15:57Z</time></trkpt><trkpt lat="45.05315518468584" lon="16.372418599090903"><ele>121.25</ele><time>2026-05-04T14:15:58Z</time></trkpt><trkpt lat="45.05325214721666" lon="16.372505147219123"><ele>120.5</ele><time>2026-05-04T14:15:59Z</time></trkpt><trkpt lat="45.05335095864145" lon="16.37258828163823"><ele>119.75</ele><time>2026-05-04T14:16:00Z</time></trkpt><trkpt lat="45.05345078096307" lon="16.37267229181057"><ele>119.0</ele><time>2026-05-04T14:16:01Z</time></trkpt><trkpt lat="45.05355736528736" lon="16.37275290898639"><ele>119.0</ele><time>2026-05-04T14:16:02Z</time></trkpt><trkpt lat="45.05367067649129" lon="16.37283626476836"><ele>119.0</ele><time>2026-05-04T14:16:03Z</time></trkpt><trkpt lat="45.05378101764154" lon="16.372918273963997"><ele>119.0</ele><time>2026-05-04T14:16:04Z</time></trkpt><trkpt lat="45.053897395771905" lon="16.3730005867308"><ele>119.0</ele><time>2026-05-04T14:16:05Z</time></trkpt><trkpt lat="45.054014606609705" lon="16.373065983396742"><ele>120.0</ele><time>2026-05-04T14:16:06Z</time></trkpt><trkpt lat="45.054140713078496" lon="16.37312025592303"><ele>121.0</ele><time>2026-05-04T14:16:07Z</time></trkpt><trkpt lat="45.05427320816398" lon="16.373161170809354"><ele>122.0</ele><time>2026-05-04T14:16:08Z</time></trkpt><trkpt lat="45.054415405481684" lon="16.37319457322721"><ele>123.0</ele><time>2026-05-04T14:16:09Z</time></trkpt><trkpt lat="45.05456561518801" lon="16.37321040176191"><ele>123.0</ele><time>2026-05-04T14:16:10Z</time></trkpt><trkpt lat="45.05471992808288" lon="16.373229682435785"><ele>123.0</ele><time>2026-05-04T14:16:11Z</time></trkpt><trkpt lat="45.0548775275242" lon="16.37325279061821"><ele>123.0</ele><time>2026-05-04T14:16:12Z</time></trkpt><trkpt lat="45.05504729733713" lon="16.373249981188152"><ele>124.0</ele><time>2026-05-04T14:16:13Z</time></trkpt><trkpt lat="45.05521871372395" lon="16.373227501684717"><ele>125.0</ele><time>2026-05-04T14:16:14Z</time></trkpt><trkpt lat="45.055390640572874" lon="16.37319238931235"><ele>126.0</ele><time>2026-05-04T14:16:15Z</time></trkpt><trkpt lat="45.055572325372246" lon="16.373148428114714"><ele>126.0</ele><time>2026-05-04T14:16:16Z</time></trkpt><trkpt lat="45.055757808040084" lon="16.37310938618578"><ele>126.0</ele><time>2026-05-04T14:16:17Z</time></trkpt><trkpt lat="45.05593872433403" lon="16.373077959721844"><ele>126.0</ele><time>2026-05-04T14:16:18Z</time></trkpt><trkpt lat="45.056119964139306" lon="16.37306329518339"><ele>126.33333333333334</ele><time>2026-05-04T14:16:19Z</time></trkpt><trkpt lat="45.05630925441005" lon="16.37313672425035"><ele>126.66666666666667</ele><time>2026-05-04T14:16:20Z</time></trkpt><trkpt lat="45.05650023227755" lon="16.373203745934973"><ele>127.0</ele><time>2026-05-04T14:16:21Z</time></trkpt><trkpt lat="45.05669306671607" lon="16.373261412305993"><ele>129.33333333333334</ele><time>2026-05-04T14:16:22Z</time></trkpt><trkpt lat="45.05688873018742" lon="16.373325719038185"><ele>131.66666666666666</ele><time>2026-05-04T14:16:23Z</time></trkpt><trkpt lat="45.05708264795108" lon="16.37340116796678"><ele>134.0</ele><time>2026-05-04T14:16:24Z</time></trkpt><trkpt lat="45.0572797139696" lon="16.373474827636656"><ele>136.0</ele><time>2026-05-04T14:16:25Z</time></trkpt><trkpt lat="45.0574767841762" lon="16.373549187324837"><ele>138.0</ele><time>2026-05-04T14:16:26Z</time></trkpt><trkpt lat="45.05767380689216" lon="16.37362842778788"><ele>140.0</ele><time>2026-05-04T14:16:27Z</time></trkpt><trkpt lat="45.057864337121835" lon="16.373720173663138"><ele>140.0</ele><time>2026-05-04T14:16:28Z</time></trkpt><trkpt lat="45.05804429083053" lon="16.373823128452095"><ele>140.0</ele><time>2026-05-04T14:16:29Z</time></trkpt><trkpt lat="45.05822530325143" lon="16.373923573123218"><ele>140.0</ele><time>2026-05-04T14:16:30Z</time></trkpt><trkpt lat="45.058412703799334" lon="16.374010776745276"><ele>137.0</ele><time>2026-05-04T14:16:31Z</time></trkpt><trkpt lat="45.05860717882809" lon="16.374073627939442"><ele>134.0</ele><time>2026-05-04T14:16:32Z</time></trkpt><trkpt lat="45.058801877236355" lon="16.374111036619546"><ele>131.0</ele><time>2026-05-04T14:16:33Z</time></trkpt><trkpt lat="45.05899479165021" lon="16.374130195071285"><ele>132.0</ele><time>2026-05-04T14:16:34Z</time></trkpt><trkpt lat="45.059185070014166" lon="16.374149370719987"><ele>133.0</ele><time>2026-05-04T14:16:35Z</time></trkpt><trkpt lat="45.05937773493834" lon="16.3741798596797"><ele>134.0</ele><time>2026-05-04T14:16:36Z</time></trkpt><trkpt lat="45.05957046403328" lon="16.374207706615554"><ele>134.0</ele><time>2026-05-04T14:16:37Z</time></trkpt><trkpt lat="45.05976520962979" lon="16.374234493329425"><ele>134.0</ele><time>2026-05-04T14:16:38Z</time></trkpt><trkpt lat="45.059962669456944" lon="16.374266456736805"><ele>134.0</ele><time>2026-05-04T14:16:39Z</time></trkpt><trkpt lat="45.06015889412097" lon="16.37431613069239"><ele>135.33333333333331</ele><time>2026-05-04T14:16:40Z</time></trkpt><trkpt lat="45.06035307692864" lon="16.374402350275833"><ele>136.66666666666666</ele><time>2026-05-04T14:16:41Z</time></trkpt><trkpt lat="45.06054080584289" lon="16.374504216438844"><ele>138.0</ele><time>2026-05-04T14:16:42Z</time></trkpt><trkpt lat="45.06072112393148" lon="16.3746022550103"><ele>135.0</ele><time>2026-05-04T14:16:43Z</time></trkpt><trkpt lat="45.06089750200348" lon="16.37469109177827"><ele>132.0</ele><time>2026-05-04T14:16:44Z</time></trkpt><trkpt lat="45.06107567793677" lon="16.3747725345586"><ele>129.0</ele><time>2026-05-04T14:16:45Z</time></trkpt><trkpt lat="45.06123643590993" lon="16.374849869926187"><ele>129.0</ele><time>2026-05-04T14:16:46Z</time></trkpt><trkpt lat="45.06140016251297" lon="16.374921325759118"><ele>129.0</ele><time>2026-05-04T14:16:47Z</time></trkpt><trkpt lat="45.06157257211377" lon="16.374982142975217"><ele>129.0</ele><time>2026-05-04T14:16:48Z</time></trkpt><trkpt lat="45.061747680835595" lon="16.37502300133017"><ele>129.33333333333334</ele><time>2026-05-04T14:16:49Z</time></trkpt><trkpt lat="45.06193138477307" lon="16.375053746790663"><ele>129.66666666666669</ele><time>2026-05-04T14:16:50Z</time></trkpt><trkpt lat="45.06211599739708" lon="16.37506009890757"><ele>130.0</ele><time>2026-05-04T14:16:51Z</time></trkpt><trkpt lat="45.062305086346676" lon="16.37506103659975"><ele>128.66666666666669</ele><time>2026-05-04T14:16:52Z</time></trkpt><trkpt lat="45.062494333921634" lon="16.37504856041483"><ele>127.33333333333334</ele><time>2026-05-04T14:16:53Z</time></trkpt><trkpt lat="45.0626831330173" lon="16.37501077092089"><ele>126.0</ele><time>2026-05-04T14:16:54Z</time></trkpt><trkpt lat="45.06286770987138" lon="16.374939297442044"><ele>126.0</ele><time>2026-05-04T14:16:55Z</time></trkpt><trkpt lat="45.06305150099035" lon="16.37485023742089"><ele>126.0</ele><time>2026-05-04T14:16:56Z</time></trkpt><trkpt lat="45.06323474867599" lon="16.374764369079386"><ele>126.0</ele><time>2026-05-04T14:16:57Z</time></trkpt><trkpt lat="45.0634167724365" lon="16.374684501462625"><ele>128.0</ele><time>2026-05-04T14:16:58Z</time></trkpt><trkpt lat="45.06359911787422" lon="16.374595633940576"><ele>130.0</ele><time>2026-05-04T14:16:59Z</time></trkpt><trkpt lat="45.06377855351772" lon="16.374484553845544"><ele>132.0</ele><time>2026-05-04T14:17:00Z</time></trkpt><trkpt lat="45.06394297525562" lon="16.37434781239467"><ele>132.0</ele><time>2026-05-04T14:17:01Z</time></trkpt><trkpt lat="45.06409453568374" lon="16.37417713301142"><ele>132.0</ele><time>2026-05-04T14:17:02Z</time></trkpt><trkpt lat="45.06424172663808" lon="16.373987051400345"><ele>132.0</ele><time>2026-05-04T14:17:03Z</time></trkpt><trkpt lat="45.064386042320656" lon="16.373792248132816"><ele>134.66666666666666</ele><time>2026-05-04T14:17:04Z</time></trkpt><trkpt lat="45.064527850619605" lon="16.373604378650988"><ele>137.33333333333331</ele><time>2026-05-04T14:17:05Z</time></trkpt><trkpt lat="45.06467501494067" lon="16.373414301248012"><ele>140.0</ele><time>2026-05-04T14:17:06Z</time></trkpt><trkpt lat="45.06482544459357" lon="16.373225486552084"><ele>139.66666666666666</ele><time>2026-05-04T14:17:07Z</time></trkpt><trkpt lat="45.064969523696" lon="16.37304002745215"><ele>139.33333333333334</ele><time>2026-05-04T14:17:08Z</time></trkpt><trkpt lat="45.065115648231625" lon="16.37284718043428"><ele>139.0</ele><time>2026-05-04T14:17:09Z</time></trkpt><trkpt lat="45.065261588441786" lon="16.37266244768696"><ele>139.0</ele><time>2026-05-04T14:17:10Z</time></trkpt><trkpt lat="45.06540338172281" lon="16.372483099328768"><ele>139.0</ele><time>2026-05-04T14:17:11Z</time></trkpt><trkpt lat="45.06554831180079" lon="16.37230414762213"><ele>139.0</ele><time>2026-05-04T14:17:12Z</time></trkpt><trkpt lat="45.0657084761709" lon="16.37214428217008"><ele>138.0</ele><time>2026-05-04T14:17:13Z</time></trkpt><trkpt lat="45.06588022499262" lon="16.372022392795415"><ele>137.0</ele><time>2026-05-04T14:17:14Z</time></trkpt><trkpt lat="45.06606280807012" lon="16.37194332742633"><ele>136.0</ele><time>2026-05-04T14:17:15Z</time></trkpt><trkpt lat="45.06625207138737" lon="16.37189431499252"><ele>136.0</ele><time>2026-05-04T14:17:16Z</time></trkpt><trkpt lat="45.06643464399655" lon="16.371882957778976"><ele>136.0</ele><time>2026-05-04T14:17:17Z</time></trkpt><trkpt lat="45.06660176860747" lon="16.3718788614123"><ele>136.0</ele><time>2026-05-04T14:17:18Z</time></trkpt><trkpt lat="45.06675195826903" lon="16.37187507968154"><ele>131.75</ele><time>2026-05-04T14:17:19Z</time></trkpt><trkpt lat="45.06689394189452" lon="16.37187755241981"><ele>127.5</ele><time>2026-05-04T14:17:20Z</time></trkpt><trkpt lat="45.06702382616652" lon="16.371919842862685"><ele>123.25</ele><time>2026-05-04T14:17:21Z</time></trkpt><trkpt lat="45.06713730903205" lon="16.372018533338636"><ele>119.0</ele><time>2026-05-04T14:17:22Z</time></trkpt><trkpt lat="45.067227170693954" lon="16.37216176808873"><ele>118.75</ele><time>2026-05-04T14:17:23Z</time></trkpt><trkpt lat="45.06729295598362" lon="16.372331380467813"><ele>118.5</ele><time>2026-05-04T14:17:24Z</time></trkpt><trkpt lat="45.06734378618737" lon="16.372509705161917"><ele>118.25</ele><time>2026-05-04T14:17:25Z</time></trkpt><trkpt lat="45.06739861277844" lon="16.37268581623378"><ele>118.0</ele><time>2026-05-04T14:17:26Z</time></trkpt><trkpt lat="45.06745973028932" lon="16.37286017819212"><ele>119.0</ele><time>2026-05-04T14:17:27Z</time></trkpt><trkpt lat="45.0675305201191" lon="16.373044252493127"><ele>120.0</ele><time>2026-05-04T14:17:28Z</time></trkpt><trkpt lat="45.067608929690586" lon="16.373233444444445"><ele>121.0</ele><time>2026-05-04T14:17:29Z</time></trkpt><trkpt lat="45.067688917265656" lon="16.37343234749184"><ele>121.0</ele><time>2026-05-04T14:17:30Z</time></trkpt><trkpt lat="45.06776936992991" lon="16.373639098690195"><ele>121.0</ele><time>2026-05-04T14:17:31Z</time></trkpt><trkpt lat="45.067851815861864" lon="16.373854633474057"><ele>121.0</ele><time>2026-05-04T14:17:32Z</time></trkpt><trkpt lat="45.06793235750159" lon="16.374072376109645"><ele>121.0</ele><time>2026-05-04T14:17:33Z</time></trkpt><trkpt lat="45.06800899713754" lon="16.374262781283857"><ele>121.0</ele><time>2026-05-04T14:17:34Z</time></trkpt><trkpt lat="45.068083827382495" lon="16.37445066667124"><ele>121.0</ele><time>2026-05-04T14:17:35Z</time></trkpt><trkpt lat="45.06815963886956" lon="16.374643318945807"><ele>121.25</ele><time>2026-05-04T14:17:36Z</time></trkpt><trkpt lat="45.06823299987389" lon="16.37483595598546"><ele>121.5</ele><time>2026-05-04T14:17:37Z</time></trkpt><trkpt lat="45.06830603392204" lon="16.375021677240813"><ele>121.75</ele><time>2026-05-04T14:17:38Z</time></trkpt><trkpt lat="45.06837249409865" lon="16.37519057787245"><ele>122.0</ele><time>2026-05-04T14:17:39Z</time></trkpt><trkpt lat="45.0684342561204" lon="16.37534991474238"><ele>122.0</ele><time>2026-05-04T14:17:40Z</time></trkpt><trkpt lat="45.06848926322163" lon="16.375496884742514"><ele>121.99999999999999</ele><time>2026-05-04T14:17:41Z</time></trkpt><trkpt lat="45.06854159869954" lon="16.375636015705705"><ele>121.99999999999999</ele><time>2026-05-04T14:17:42Z</time></trkpt><trkpt lat="45.06859455714154" lon="16.375761785810738"><ele>122.0</ele><time>2026-05-04T14:17:43Z</time></trkpt><trkpt lat="45.06865089371878" lon="16.375866009071473"><ele>122.0</ele><time>2026-05-04T14:17:44Z</time></trkpt><trkpt lat="45.06871570055718" lon="16.375933870650805"><ele>121.8</ele><time>2026-05-04T14:17:45Z</time></trkpt><trkpt lat="45.06883552844346" lon="16.37589594793138"><ele>121.6</ele><time>2026-05-04T14:17:47Z</time></trkpt><trkpt lat="45.06888983400805" lon="16.375802051869286"><ele>121.39999999999999</ele><time>2026-05-04T14:17:48Z</time></trkpt><trkpt lat="45.06893840974686" lon="16.375674357745297"><ele>121.19999999999999</ele><time>2026-05-04T14:17:49Z</time></trkpt><trkpt lat="45.06901873671622" lon="16.375559201152353"><ele>121.0</ele><time>2026-05-04T14:17:50Z</time></trkpt><trkpt lat="45.0691350463881" lon="16.375467926630243"><ele>121.66666666666667</ele><time>2026-05-04T14:17:51Z</time></trkpt><trkpt lat="45.06926558107227" lon="16.375372582762285"><ele>122.33333333333334</ele><time>2026-05-04T14:17:52Z</time></trkpt><trkpt lat="45.069397086885076" lon="16.375258164289384"><ele>123.0</ele><time>2026-05-04T14:17:53Z</time></trkpt><trkpt lat="45.06952737359691" lon="16.375120638738114"><ele>123.0</ele><time>2026-05-04T14:17:54Z</time></trkpt><trkpt lat="45.06964655636298" lon="16.374957685087413"><ele>123.0</ele><time>2026-05-04T14:17:55Z</time></trkpt><trkpt lat="45.06975579817402" lon="16.374763378802815"><ele>123.0</ele><time>2026-05-04T14:17:56Z</time></trkpt><trkpt lat="45.06984975441194" lon="16.37453991229574"><ele>123.33333333333334</ele><time>2026-05-04T14:17:57Z</time></trkpt><trkpt lat="45.069938496988364" lon="16.374298344676795"><ele>123.66666666666667</ele><time>2026-05-04T14:17:58Z</time></trkpt><trkpt lat="45.07002057087928" lon="16.37404135283496"><ele>124.0</ele><time>2026-05-04T14:17:59Z</time></trkpt><trkpt lat="45.07008792808464" lon="16.37378091870434"><ele>124.0</ele><time>2026-05-04T14:18:00Z</time></trkpt><trkpt lat="45.07013383106116" lon="16.37352830569263"><ele>124.0</ele><time>2026-05-04T14:18:01Z</time></trkpt><trkpt lat="45.070158294763665" lon="16.373287909302164"><ele>124.0</ele><time>2026-05-04T14:18:02Z</time></trkpt><trkpt lat="45.07016678376305" lon="16.373037464489897"><ele>124.33333333333334</ele><time>2026-05-04T14:18:03Z</time></trkpt><trkpt lat="45.07017151812056" lon="16.372782899492265"><ele>124.66666666666666</ele><time>2026-05-04T14:18:04Z</time></trkpt><trkpt lat="45.070162481162086" lon="16.372522038482607"><ele>125.0</ele><time>2026-05-04T14:18:05Z</time></trkpt><trkpt lat="45.07014357714658" lon="16.372253631955914"><ele>124.33333333333333</ele><time>2026-05-04T14:18:06Z</time></trkpt><trkpt lat="45.070122692052635" lon="16.3719821751708"><ele>123.66666666666666</ele><time>2026-05-04T14:18:07Z</time></trkpt><trkpt lat="45.07011266618677" lon="16.37170138491769"><ele>123.0</ele><time>2026-05-04T14:18:08Z</time></trkpt><trkpt lat="45.070107946154394" lon="16.371415853913415"><ele>123.0</ele><time>2026-05-04T14:18:09Z</time></trkpt><trkpt lat="45.07010815841071" lon="16.371136909340418"><ele>123.0</ele><time>2026-05-04T14:18:10Z</time></trkpt><trkpt lat="45.070110876352594" lon="16.370847443828005"><ele>123.0</ele><time>2026-05-04T14:18:11Z</time></trkpt><trkpt lat="45.07012683457231" lon="16.37055394720175"><ele>123.33333333333334</ele><time>2026-05-04T14:18:12Z</time></trkpt><trkpt lat="45.07016830193393" lon="16.37025425114036"><ele>123.66666666666667</ele><time>2026-05-04T14:18:13Z</time></trkpt><trkpt lat="45.07023074017968" lon="16.369961277581016"><ele>124.0</ele><time>2026-05-04T14:18:14Z</time></trkpt><trkpt lat="45.07030205202452" lon="16.369668710756944"><ele>123.0</ele><time>2026-05-04T14:18:15Z</time></trkpt><trkpt lat="45.07036421402071" lon="16.369374317100316"><ele>122.0</ele><time>2026-05-04T14:18:16Z</time></trkpt><trkpt lat="45.07042536202459" lon="16.369089973567025"><ele>121.0</ele><time>2026-05-04T14:18:17Z</time></trkpt><trkpt lat="45.07048451582903" lon="16.36879779917773"><ele>120.66666666666667</ele><time>2026-05-04T14:18:18Z</time></trkpt><trkpt lat="45.07055150395047" lon="16.36851786878494"><ele>120.33333333333334</ele><time>2026-05-04T14:18:19Z</time></trkpt><trkpt lat="45.070641496154636" lon="16.368240751727022"><ele>120.0</ele><time>2026-05-04T14:18:20Z</time></trkpt><trkpt lat="45.070751186343614" lon="16.36797914527119"><ele>120.66666666666666</ele><time>2026-05-04T14:18:21Z</time></trkpt><trkpt lat="45.070881624385926" lon="16.367734684414064"><ele>121.33333333333333</ele><time>2026-05-04T14:18:22Z</time></trkpt><trkpt lat="45.071031873903365" lon="16.367500893266268"><ele>122.0</ele><time>2026-05-04T14:18:23Z</time></trkpt><trkpt lat="45.07117905463479" lon="16.367277913829046"><ele>121.0</ele><time>2026-05-04T14:18:24Z</time></trkpt><trkpt lat="45.071329075863126" lon="16.36703996959382"><ele>120.0</ele><time>2026-05-04T14:18:25Z</time></trkpt><trkpt lat="45.07147080101415" lon="16.366798995327844"><ele>119.0</ele><time>2026-05-04T14:18:26Z</time></trkpt><trkpt lat="45.07159558392753" lon="16.366538873023288"><ele>119.33333333333333</ele><time>2026-05-04T14:18:27Z</time></trkpt><trkpt lat="45.071708653561394" lon="16.36626933277561"><ele>119.66666666666666</ele><time>2026-05-04T14:18:28Z</time></trkpt><trkpt lat="45.071821681074404" lon="16.365999853521185"><ele>120.0</ele><time>2026-05-04T14:18:29Z</time></trkpt><trkpt lat="45.07195307424507" lon="16.365735597887607"><ele>118.5</ele><time>2026-05-04T14:18:30Z</time></trkpt><trkpt lat="45.072100047437125" lon="16.36547566575868"><ele>117.0</ele><time>2026-05-04T14:18:31Z</time></trkpt><trkpt lat="45.07224649832921" lon="16.365193904814717"><ele>117.0</ele><time>2026-05-04T14:18:32Z</time></trkpt><trkpt lat="45.07237092342536" lon="16.364895334717357"><ele>117.0</ele><time>2026-05-04T14:18:33Z</time></trkpt><trkpt lat="45.07247283011476" lon="16.364561128429685"><ele>119.5</ele><time>2026-05-04T14:18:34Z</time></trkpt><trkpt lat="45.0725652734753" lon="16.36420874478882"><ele>122.0</ele><time>2026-05-04T14:18:35Z</time></trkpt><trkpt lat="45.072659670474046" lon="16.36385677742435"><ele>122.0</ele><time>2026-05-04T14:18:36Z</time></trkpt><trkpt lat="45.07275283952739" lon="16.363505632716976"><ele>122.0</ele><time>2026-05-04T14:18:37Z</time></trkpt><trkpt lat="45.07284540054133" lon="16.36316282377916"><ele>120.5</ele><time>2026-05-04T14:18:38Z</time></trkpt><trkpt lat="45.072935711174836" lon="16.362827370468285"><ele>119.0</ele><time>2026-05-04T14:18:39Z</time></trkpt><trkpt lat="45.07303323504226" lon="16.362503739465552"><ele>118.5</ele><time>2026-05-04T14:18:40Z</time></trkpt><trkpt lat="45.07314329299267" lon="16.362185026391305"><ele>118.0</ele><time>2026-05-04T14:18:41Z</time></trkpt><trkpt lat="45.073257869038976" lon="16.361868332079588"><ele>119.5</ele><time>2026-05-04T14:18:42Z</time></trkpt><trkpt lat="45.07336729403607" lon="16.361550414973777"><ele>121.0</ele><time>2026-05-04T14:18:43Z</time></trkpt><trkpt lat="45.07347127774643" lon="16.361244059176737"><ele>121.0</ele><time>2026-05-04T14:18:44Z</time></trkpt><trkpt lat="45.07356723473147" lon="16.360949323751196"><ele>121.0</ele><time>2026-05-04T14:18:45Z</time></trkpt><trkpt lat="45.073659185691994" lon="16.36065711950078"><ele>120.66666666666667</ele><time>2026-05-04T14:18:46Z</time></trkpt><trkpt lat="45.07373356175336" lon="16.36036799161992"><ele>120.33333333333334</ele><time>2026-05-04T14:18:47Z</time></trkpt><trkpt lat="45.07377974910159" lon="16.36005566988517"><ele>120.0</ele><time>2026-05-04T14:18:48Z</time></trkpt><trkpt lat="45.073786648121995" lon="16.359735481611313"><ele>120.0</ele><time>2026-05-04T14:18:49Z</time></trkpt><trkpt lat="45.07379252463583" lon="16.359401277982172"><ele>120.0</ele><time>2026-05-04T14:18:50Z</time></trkpt><trkpt lat="45.07380370929039" lon="16.359067434772808"><ele>120.0</ele><time>2026-05-04T14:18:51Z</time></trkpt><trkpt lat="45.07383513050206" lon="16.35872507585267"><ele>120.0</ele><time>2026-05-04T14:18:52Z</time></trkpt><trkpt lat="45.07388589492402" lon="16.358382193395343"><ele>120.0</ele><time>2026-05-04T14:18:53Z</time></trkpt><trkpt lat="45.073948260982625" lon="16.358054257161623"><ele>120.0</ele><time>2026-05-04T14:18:54Z</time></trkpt><trkpt lat="45.074016050557454" lon="16.35774237297082"><ele>119.66666666666666</ele><time>2026-05-04T14:18:55Z</time></trkpt><trkpt lat="45.07408647522973" lon="16.35743881922174"><ele>119.33333333333333</ele><time>2026-05-04T14:18:56Z</time></trkpt><trkpt lat="45.074149549627755" lon="16.357140151974246"><ele>119.0</ele><time>2026-05-04T14:18:57Z</time></trkpt><trkpt lat="45.07419861708057" lon="16.356841167461006"><ele>120.66666666666666</ele><time>2026-05-04T14:18:58Z</time></trkpt><trkpt lat="45.074227418708375" lon="16.356542972221607"><ele>122.33333333333334</ele><time>2026-05-04T14:18:59Z</time></trkpt><trkpt lat="45.07421622454137" lon="16.356264287092934"><ele>124.0</ele><time>2026-05-04T14:19:00Z</time></trkpt><trkpt lat="45.074154741080136" lon="16.35601995201479"><ele>122.66666666666667</ele><time>2026-05-04T14:19:01Z</time></trkpt><trkpt lat="45.074069720768755" lon="16.355803222621226"><ele>121.33333333333334</ele><time>2026-05-04T14:19:02Z</time></trkpt><trkpt lat="45.07399944591322" lon="16.355587841931914"><ele>120.0</ele><time>2026-05-04T14:19:03Z</time></trkpt><trkpt lat="45.073969215237696" lon="16.355362468458033"><ele>120.0</ele><time>2026-05-04T14:19:04Z</time></trkpt><trkpt lat="45.07399195472995" lon="16.35514233415286"><ele>120.0</ele><time>2026-05-04T14:19:05Z</time></trkpt><trkpt lat="45.074046953830454" lon="16.3549120149852"><ele>120.0</ele><time>2026-05-04T14:19:06Z</time></trkpt><trkpt lat="45.07411764922537" lon="16.354672983257856"><ele>121.0</ele><time>2026-05-04T14:19:07Z</time></trkpt><trkpt lat="45.07419910628245" lon="16.354434863787944"><ele>122.0</ele><time>2026-05-04T14:19:08Z</time></trkpt><trkpt lat="45.074282442877866" lon="16.35418099261537"><ele>123.0</ele><time>2026-05-04T14:19:09Z</time></trkpt><trkpt lat="45.07435944344896" lon="16.353908144963896"><ele>122.5</ele><time>2026-05-04T14:19:10Z</time></trkpt><trkpt lat="45.074435041966225" lon="16.35361325034948"><ele>122.0</ele><time>2026-05-04T14:19:11Z</time></trkpt><trkpt lat="45.07452301375774" lon="16.35329214021362"><ele>121.0</ele><time>2026-05-04T14:19:12Z</time></trkpt><trkpt lat="45.074617764347146" lon="16.352959003365843"><ele>120.0</ele><time>2026-05-04T14:19:13Z</time></trkpt><trkpt lat="45.07470973371498" lon="16.352624587142248"><ele>120.0</ele><time>2026-05-04T14:19:14Z</time></trkpt><trkpt lat="45.074801098033014" lon="16.352291777101417"><ele>120.0</ele><time>2026-05-04T14:19:15Z</time></trkpt><trkpt lat="45.07490129898345" lon="16.351961844568606"><ele>120.0</ele><time>2026-05-04T14:19:16Z</time></trkpt><trkpt lat="45.07502014535498" lon="16.351635691742768"><ele>120.0</ele><time>2026-05-04T14:19:17Z</time></trkpt><trkpt lat="45.07515932208933" lon="16.351316400641426"><ele>120.0</ele><time>2026-05-04T14:19:18Z</time></trkpt><trkpt lat="45.07530387293102" lon="16.35101659116489"><ele>120.0</ele><time>2026-05-04T14:19:19Z</time></trkpt><trkpt lat="45.07544390757464" lon="16.35070365160882"><ele>120.5</ele><time>2026-05-04T14:19:20Z</time></trkpt><trkpt lat="45.0755828418536" lon="16.350393688675748"><ele>121.0</ele><time>2026-05-04T14:19:21Z</time></trkpt><trkpt lat="45.075719001425206" lon="16.350082345781885"><ele>120.5</ele><time>2026-05-04T14:19:22Z</time></trkpt><trkpt lat="45.07585592605335" lon="16.34977215385156"><ele>120.0</ele><time>2026-05-04T14:19:23Z</time></trkpt><trkpt lat="45.07599174036898" lon="16.349462704277816"><ele>120.0</ele><time>2026-05-04T14:19:24Z</time></trkpt><trkpt lat="45.07612361800668" lon="16.349155789831197"><ele>120.0</ele><time>2026-05-04T14:19:25Z</time></trkpt><trkpt lat="45.076256000572315" lon="16.348853093323502"><ele>120.0</ele><time>2026-05-04T14:19:26Z</time></trkpt><trkpt lat="45.076387699665396" lon="16.348548157373983"><ele>120.0</ele><time>2026-05-04T14:19:27Z</time></trkpt><trkpt lat="45.076518168330665" lon="16.34824889108931"><ele>121.5</ele><time>2026-05-04T14:19:28Z</time></trkpt><trkpt lat="45.07664642848598" lon="16.347957052996854"><ele>123.0</ele><time>2026-05-04T14:19:29Z</time></trkpt><trkpt lat="45.07677321795867" lon="16.347668344598905"><ele>123.0</ele><time>2026-05-04T14:19:30Z</time></trkpt><trkpt lat="45.076899231036634" lon="16.347401601619868"><ele>123.0</ele><time>2026-05-04T14:19:31Z</time></trkpt><trkpt lat="45.07703385494763" lon="16.34714315460903"><ele>122.66666666666666</ele><time>2026-05-04T14:19:32Z</time></trkpt><trkpt lat="45.077169386483064" lon="16.346899768184535"><ele>122.33333333333333</ele><time>2026-05-04T14:19:33Z</time></trkpt><trkpt lat="45.077304642760176" lon="16.346688076261863"><ele>122.0</ele><time>2026-05-04T14:19:34Z</time></trkpt><trkpt lat="45.07745461056959" lon="16.346518942047886"><ele>122.0</ele><time>2026-05-04T14:19:35Z</time></trkpt><trkpt lat="45.07761745220725" lon="16.34638491207385"><ele>122.0</ele><time>2026-05-04T14:19:36Z</time></trkpt><trkpt lat="45.077765758998915" lon="16.34627173824662"><ele>122.0</ele><time>2026-05-04T14:19:37Z</time></trkpt><trkpt lat="45.07788334785777" lon="16.346136424124435"><ele>122.0</ele><time>2026-05-04T14:19:38Z</time></trkpt><trkpt lat="45.07796074199051" lon="16.3459505263292"><ele>122.0</ele><time>2026-05-04T14:19:39Z</time></trkpt><trkpt lat="45.0780066932577" lon="16.34573548493727"><ele>122.0</ele><time>2026-05-04T14:19:40Z</time></trkpt><trkpt lat="45.07804482527264" lon="16.345491610759805"><ele>122.0</ele><time>2026-05-04T14:19:41Z</time></trkpt><trkpt lat="45.07808433578079" lon="16.345241575492814"><ele>122.0</ele><time>2026-05-04T14:19:42Z</time></trkpt><trkpt lat="45.07812853862383" lon="16.34498502291141"><ele>122.0</ele><time>2026-05-04T14:19:43Z</time></trkpt><trkpt lat="45.078169356579686" lon="16.344750791406543"><ele>121.75</ele><time>2026-05-04T14:19:44Z</time></trkpt><trkpt lat="45.07821003484514" lon="16.344535225008286"><ele>121.5</ele><time>2026-05-04T14:19:45Z</time></trkpt><trkpt lat="45.0782644751443" lon="16.344357636600943"><ele>121.25</ele><time>2026-05-04T14:19:46Z</time></trkpt><trkpt lat="45.07835988006058" lon="16.344231720175447"><ele>121.0</ele><time>2026-05-04T14:19:47Z</time></trkpt><trkpt lat="45.07848863824939" lon="16.344177611146975"><ele>121.66666666666667</ele><time>2026-05-04T14:19:48Z</time></trkpt><trkpt lat="45.07863646930655" lon="16.344196865176798"><ele>122.33333333333334</ele><time>2026-05-04T14:19:49Z</time></trkpt><trkpt lat="45.07879339337796" lon="16.344233469579077"><ele>123.0</ele><time>2026-05-04T14:19:50Z</time></trkpt><trkpt lat="45.07895878085669" lon="16.344264230531472"><ele>123.66666666666666</ele><time>2026-05-04T14:19:51Z</time></trkpt><trkpt lat="45.07913476670707" lon="16.34426923011944"><ele>124.33333333333333</ele><time>2026-05-04T14:19:52Z</time></trkpt><trkpt lat="45.079323458034686" lon="16.344241853271097"><ele>125.0</ele><time>2026-05-04T14:19:53Z</time></trkpt><trkpt lat="45.0795131895161" lon="16.344179198225984"><ele>125.0</ele><time>2026-05-04T14:19:54Z</time></trkpt><trkpt lat="45.079700142474714" lon="16.3440778387999"><ele>125.0</ele><time>2026-05-04T14:19:55Z</time></trkpt><trkpt lat="45.07988589191418" lon="16.343934881940225"><ele>125.0</ele><time>2026-05-04T14:19:56Z</time></trkpt><trkpt lat="45.08006823225531" lon="16.3437690665993"><ele>126.0</ele><time>2026-05-04T14:19:57Z</time></trkpt><trkpt lat="45.08024261080258" lon="16.343602451464598"><ele>127.0</ele><time>2026-05-04T14:19:58Z</time></trkpt><trkpt lat="45.080405057307644" lon="16.34343342850252"><ele>128.0</ele><time>2026-05-04T14:19:59Z</time></trkpt><trkpt lat="45.08053830985913" lon="16.343232875301695"><ele>127.33333333333333</ele><time>2026-05-04T14:20:00Z</time></trkpt><trkpt lat="45.080640358399684" lon="16.34298594089308"><ele>126.66666666666666</ele><time>2026-05-04T14:20:01Z</time></trkpt><trkpt lat="45.08072497128797" lon="16.34270457871368"><ele>126.0</ele><time>2026-05-04T14:20:02Z</time></trkpt><trkpt lat="45.08079869637939" lon="16.342402929154815"><ele>126.5</ele><time>2026-05-04T14:20:03Z</time></trkpt><trkpt lat="45.08086963492275" lon="16.34208249245991"><ele>127.0</ele><time>2026-05-04T14:20:04Z</time></trkpt><trkpt lat="45.08094365582661" lon="16.341739880093012"><ele>127.0</ele><time>2026-05-04T14:20:05Z</time></trkpt><trkpt lat="45.08101751116661" lon="16.341405023202768"><ele>127.0</ele><time>2026-05-04T14:20:06Z</time></trkpt><trkpt lat="45.08109336776782" lon="16.341086122854133"><ele>127.33333333333334</ele><time>2026-05-04T14:20:07Z</time></trkpt><trkpt lat="45.081174459039225" lon="16.340782359266825"><ele>127.66666666666666</ele><time>2026-05-04T14:20:08Z</time></trkpt><trkpt lat="45.08125992966316" lon="16.34049912067293"><ele>128.0</ele><time>2026-05-04T14:20:09Z</time></trkpt><trkpt lat="45.081362805078086" lon="16.34022887615617"><ele>128.33333333333331</ele><time>2026-05-04T14:20:10Z</time></trkpt><trkpt lat="45.08148777295215" lon="16.33996069733861"><ele>128.66666666666666</ele><time>2026-05-04T14:20:11Z</time></trkpt><trkpt lat="45.08162435499772" lon="16.339721827830104"><ele>129.0</ele><time>2026-05-04T14:20:12Z</time></trkpt><trkpt lat="45.08176313108688" lon="16.33949601003259"><ele>129.0</ele><time>2026-05-04T14:20:13Z</time></trkpt><trkpt lat="45.081890475885885" lon="16.33925253541149"><ele>129.0</ele><time>2026-05-04T14:20:14Z</time></trkpt><trkpt lat="45.08198982739729" lon="16.339013409699053"><ele>129.0</ele><time>2026-05-04T14:20:15Z</time></trkpt><trkpt lat="45.082064521398024" lon="16.338757701792677"><ele>129.0</ele><time>2026-05-04T14:20:16Z</time></trkpt><trkpt lat="45.082110613437244" lon="16.338509962867615"><ele>129.0</ele><time>2026-05-04T14:20:17Z</time></trkpt><trkpt lat="45.082137718290454" lon="16.338285966241987"><ele>129.0</ele><time>2026-05-04T14:20:18Z</time></trkpt><trkpt lat="45.082130718674115" lon="16.338061282642812"><ele>128.66666666666666</ele><time>2026-05-04T14:20:19Z</time></trkpt><trkpt lat="45.0820825812547" lon="16.337845232378424"><ele>128.33333333333331</ele><time>2026-05-04T14:20:20Z</time></trkpt><trkpt lat="45.08199578486542" lon="16.337632790901253"><ele>128.0</ele><time>2026-05-04T14:20:21Z</time></trkpt><trkpt lat="45.081902995124565" lon="16.337399737171197"><ele>127.66666666666666</ele><time>2026-05-04T14:20:22Z</time></trkpt><trkpt lat="45.08181796627244" lon="16.33716170660206"><ele>127.33333333333334</ele><time>2026-05-04T14:20:23Z</time></trkpt><trkpt lat="45.08173979281634" lon="16.33692697340113"><ele>127.0</ele><time>2026-05-04T14:20:24Z</time></trkpt><trkpt lat="45.08166369835151" lon="16.33669962769381"><ele>126.33333333333334</ele><time>2026-05-04T14:20:25Z</time></trkpt><trkpt lat="45.08158686055601" lon="16.33647105707302"><ele>125.66666666666666</ele><time>2026-05-04T14:20:26Z</time></trkpt><trkpt lat="45.081510226981884" lon="16.336242973597084"><ele>125.0</ele><time>2026-05-04T14:20:27Z</time></trkpt><trkpt lat="45.08143011825722" lon="16.33600776988681"><ele>125.0</ele><time>2026-05-04T14:20:28Z</time></trkpt><trkpt lat="45.081344977485585" lon="16.335760847323087"><ele>125.0</ele><time>2026-05-04T14:20:29Z</time></trkpt><trkpt lat="45.08125863791542" lon="16.335513569245"><ele>125.0</ele><time>2026-05-04T14:20:30Z</time></trkpt><trkpt lat="45.081167401087164" lon="16.335266040925465"><ele>125.33333333333333</ele><time>2026-05-04T14:20:31Z</time></trkpt><trkpt lat="45.08107325822465" lon="16.335011403602913"><ele>125.66666666666666</ele><time>2026-05-04T14:20:32Z</time></trkpt><trkpt lat="45.08098234134293" lon="16.33476577430913"><ele>126.0</ele><time>2026-05-04T14:20:33Z</time></trkpt><trkpt lat="45.080898854770695" lon="16.334511190245482"><ele>126.0</ele><time>2026-05-04T14:20:34Z</time></trkpt><trkpt lat="45.080852797682795" lon="16.33424296564093"><ele>126.0</ele><time>2026-05-04T14:20:35Z</time></trkpt><trkpt lat="45.0808801171097" lon="16.33396943653845"><ele>126.0</ele><time>2026-05-04T14:20:36Z</time></trkpt><trkpt lat="45.08091669321637" lon="16.333704109275622"><ele>125.33333333333334</ele><time>2026-05-04T14:20:37Z</time></trkpt><trkpt lat="45.0809221358883" lon="16.333458747281387"><ele>124.66666666666667</ele><time>2026-05-04T14:20:38Z</time></trkpt><trkpt lat="45.0808776379236" lon="16.333226664868068"><ele>124.0</ele><time>2026-05-04T14:20:39Z</time></trkpt><trkpt lat="45.08079382583872" lon="16.33300960382031"><ele>123.66666666666667</ele><time>2026-05-04T14:20:40Z</time></trkpt><trkpt lat="45.08067311986994" lon="16.332793766644055"><ele>123.33333333333334</ele><time>2026-05-04T14:20:41Z</time></trkpt><trkpt lat="45.0805553173224" lon="16.332572893749557"><ele>123.0</ele><time>2026-05-04T14:20:42Z</time></trkpt><trkpt lat="45.080440166485296" lon="16.33233322660239"><ele>123.66666666666666</ele><time>2026-05-04T14:20:43Z</time></trkpt><trkpt lat="45.080322118884986" lon="16.332082131653955"><ele>124.33333333333333</ele><time>2026-05-04T14:20:44Z</time></trkpt><trkpt lat="45.080198843586714" lon="16.331821933365312"><ele>125.0</ele><time>2026-05-04T14:20:45Z</time></trkpt><trkpt lat="45.08007001882685" lon="16.331549041255826"><ele>125.33333333333333</ele><time>2026-05-04T14:20:46Z</time></trkpt><trkpt lat="45.079947854149864" lon="16.331281464228436"><ele>125.66666666666666</ele><time>2026-05-04T14:20:47Z</time></trkpt><trkpt lat="45.079830334440956" lon="16.331014761994748"><ele>126.0</ele><time>2026-05-04T14:20:48Z</time></trkpt><trkpt lat="45.079721819606895" lon="16.33072394243238"><ele>125.0</ele><time>2026-05-04T14:20:49Z</time></trkpt><trkpt lat="45.079638097640434" lon="16.33041600246845"><ele>124.0</ele><time>2026-05-04T14:20:50Z</time></trkpt><trkpt lat="45.079562566754454" lon="16.330074901571315"><ele>124.5</ele><time>2026-05-04T14:20:51Z</time></trkpt><trkpt lat="45.07948642585677" lon="16.32970823731874"><ele>125.0</ele><time>2026-05-04T14:20:52Z</time></trkpt><trkpt lat="45.07940389774455" lon="16.329346365943547"><ele>125.0</ele><time>2026-05-04T14:20:53Z</time></trkpt><trkpt lat="45.07929111693881" lon="16.329004373244974"><ele>125.0</ele><time>2026-05-04T14:20:54Z</time></trkpt><trkpt lat="45.07913230251621" lon="16.328677630676044"><ele>125.0</ele><time>2026-05-04T14:20:55Z</time></trkpt><trkpt lat="45.07897216362761" lon="16.328388140495445"><ele>125.0</ele><time>2026-05-04T14:20:56Z</time></trkpt><trkpt lat="45.078835110063665" lon="16.328114505321537"><ele>127.0</ele><time>2026-05-04T14:20:57Z</time></trkpt><trkpt lat="45.07872199547836" lon="16.32786690558886"><ele>129.0</ele><time>2026-05-04T14:20:58Z</time></trkpt><trkpt lat="45.07863185709286" lon="16.32762572878073"><ele>131.0</ele><time>2026-05-04T14:20:59Z</time></trkpt><trkpt lat="45.07858795486616" lon="16.327381666597162"><ele>134.0</ele><time>2026-05-04T14:21:00Z</time></trkpt><trkpt lat="45.078577481854815" lon="16.327109194140537"><ele>137.0</ele><time>2026-05-04T14:21:01Z</time></trkpt><trkpt lat="45.07858517321857" lon="16.326830285326697"><ele>140.0</ele><time>2026-05-04T14:21:02Z</time></trkpt><trkpt lat="45.07859066099889" lon="16.326550823287945"><ele>142.66666666666666</ele><time>2026-05-04T14:21:03Z</time></trkpt><trkpt lat="45.07859055670829" lon="16.32627206523736"><ele>145.33333333333334</ele><time>2026-05-04T14:21:04Z</time></trkpt><trkpt lat="45.0785875823865" lon="16.326002834726044"><ele>148.0</ele><time>2026-05-04T14:21:05Z</time></trkpt><trkpt lat="45.078584334963686" lon="16.325742581641475"><ele>148.0</ele><time>2026-05-04T14:21:06Z</time></trkpt><trkpt lat="45.07858141451773" lon="16.325500484091076"><ele>148.0</ele><time>2026-05-04T14:21:07Z</time></trkpt><trkpt lat="45.078575791896434" lon="16.325260963789553"><ele>148.0</ele><time>2026-05-04T14:21:08Z</time></trkpt><trkpt lat="45.07857382517535" lon="16.325025806268282"><ele>148.0</ele><time>2026-05-04T14:21:09Z</time></trkpt><trkpt lat="45.07858905316762" lon="16.324792687736707"><ele>148.0</ele><time>2026-05-04T14:21:10Z</time></trkpt><trkpt lat="45.07865542404951" lon="16.324557845712153"><ele>148.0</ele><time>2026-05-04T14:21:11Z</time></trkpt><trkpt lat="45.07875461668984" lon="16.324343569368548"><ele>144.33333333333334</ele><time>2026-05-04T14:21:12Z</time></trkpt><trkpt lat="45.07887167437529" lon="16.32412995936688"><ele>140.66666666666666</ele><time>2026-05-04T14:21:13Z</time></trkpt><trkpt lat="45.07898437136063" lon="16.323910367149693"><ele>137.0</ele><time>2026-05-04T14:21:14Z</time></trkpt><trkpt lat="45.079094066327265" lon="16.323674965054206"><ele>136.33333333333331</ele><time>2026-05-04T14:21:15Z</time></trkpt><trkpt lat="45.079204223682" lon="16.323429396927697"><ele>135.66666666666666</ele><time>2026-05-04T14:21:16Z</time></trkpt><trkpt lat="45.07931763589387" lon="16.32318206121868"><ele>135.0</ele><time>2026-05-04T14:21:17Z</time></trkpt><trkpt lat="45.07943408289979" lon="16.322935181242844"><ele>132.66666666666666</ele><time>2026-05-04T14:21:18Z</time></trkpt><trkpt lat="45.07954830227759" lon="16.32268405168741"><ele>130.33333333333331</ele><time>2026-05-04T14:21:19Z</time></trkpt><trkpt lat="45.07966488902875" lon="16.3224417167743"><ele>128.0</ele><time>2026-05-04T14:21:20Z</time></trkpt><trkpt lat="45.0797836656217" lon="16.322191252301952"><ele>127.66666666666666</ele><time>2026-05-04T14:21:21Z</time></trkpt><trkpt lat="45.0799055196241" lon="16.321940292105957"><ele>127.33333333333334</ele><time>2026-05-04T14:21:22Z</time></trkpt><trkpt lat="45.08002867018405" lon="16.321690116508584"><ele>127.0</ele><time>2026-05-04T14:21:23Z</time></trkpt><trkpt lat="45.08014503968168" lon="16.321433520085385"><ele>128.33333333333334</ele><time>2026-05-04T14:21:24Z</time></trkpt><trkpt lat="45.080259988311255" lon="16.32117309239107"><ele>129.66666666666666</ele><time>2026-05-04T14:21:25Z</time></trkpt><trkpt lat="45.08037595888404" lon="16.320915273234736"><ele>131.0</ele><time>2026-05-04T14:21:26Z</time></trkpt><trkpt lat="45.080484658344005" lon="16.320656625930674"><ele>130.66666666666666</ele><time>2026-05-04T14:21:27Z</time></trkpt><trkpt lat="45.080589921647054" lon="16.320395927603837"><ele>130.33333333333334</ele><time>2026-05-04T14:21:28Z</time></trkpt><trkpt lat="45.08068158030756" lon="16.32012422382317"><ele>130.0</ele><time>2026-05-04T14:21:29Z</time></trkpt><trkpt lat="45.080774241169614" lon="16.319850235259597"><ele>131.66666666666669</ele><time>2026-05-04T14:21:30Z</time></trkpt><trkpt lat="45.08086558084449" lon="16.319578441141992"><ele>133.33333333333334</ele><time>2026-05-04T14:21:31Z</time></trkpt><trkpt lat="45.080961224253684" lon="16.31930672037549"><ele>135.0</ele><time>2026-05-04T14:21:32Z</time></trkpt><trkpt lat="45.08106071883907" lon="16.31903849149232"><ele>134.33333333333334</ele><time>2026-05-04T14:21:33Z</time></trkpt><trkpt lat="45.08115762940281" lon="16.318775471876013"><ele>133.66666666666669</ele><time>2026-05-04T14:21:34Z</time></trkpt><trkpt lat="45.08125753157283" lon="16.31851737543368"><ele>133.0</ele><time>2026-05-04T14:21:35Z</time></trkpt><trkpt lat="45.081363124456956" lon="16.318271271941413"><ele>133.66666666666669</ele><time>2026-05-04T14:21:36Z</time></trkpt><trkpt lat="45.081485913930116" lon="16.318031778444357"><ele>134.33333333333334</ele><time>2026-05-04T14:21:37Z</time></trkpt><trkpt lat="45.08162920008775" lon="16.31780134530424"><ele>135.0</ele><time>2026-05-04T14:21:38Z</time></trkpt><trkpt lat="45.081772516469194" lon="16.31757376770633"><ele>135.0</ele><time>2026-05-04T14:21:39Z</time></trkpt><trkpt lat="45.081922004178864" lon="16.317352229439344"><ele>135.0</ele><time>2026-05-04T14:21:40Z</time></trkpt><trkpt lat="45.08206931913985" lon="16.317117214239442"><ele>135.0</ele><time>2026-05-04T14:21:41Z</time></trkpt><trkpt lat="45.08221646817427" lon="16.31688840379237"><ele>134.33333333333334</ele><time>2026-05-04T14:21:42Z</time></trkpt><trkpt lat="45.082368662844836" lon="16.31666317793"><ele>133.66666666666669</ele><time>2026-05-04T14:21:43Z</time></trkpt><trkpt lat="45.08252058732817" lon="16.316455074472024"><ele>133.0</ele><time>2026-05-04T14:21:44Z</time></trkpt><trkpt lat="45.08267578212676" lon="16.316250906986905"><ele>134.33333333333334</ele><time>2026-05-04T14:21:45Z</time></trkpt><trkpt lat="45.082843699991095" lon="16.316078125605003"><ele>135.66666666666666</ele><time>2026-05-04T14:21:46Z</time></trkpt><trkpt lat="45.08302622162337" lon="16.31593978109408"><ele>137.0</ele><time>2026-05-04T14:21:47Z</time></trkpt><trkpt lat="45.083214210204325" lon="16.31579155843786"><ele>136.33333333333331</ele><time>2026-05-04T14:21:48Z</time></trkpt><trkpt lat="45.0834002568411" lon="16.315628221802072"><ele>135.66666666666666</ele><time>2026-05-04T14:21:49Z</time></trkpt><trkpt lat="45.08359102075899" lon="16.315455597018882"><ele>135.0</ele><time>2026-05-04T14:21:50Z</time></trkpt><trkpt lat="45.083781661149715" lon="16.315282003065633"><ele>135.0</ele><time>2026-05-04T14:21:51Z</time></trkpt><trkpt lat="45.08397533769167" lon="16.315104156449276"><ele>135.0</ele><time>2026-05-04T14:21:52Z</time></trkpt><trkpt lat="45.08417138881468" lon="16.314926260741256"><ele>136.0</ele><time>2026-05-04T14:21:53Z</time></trkpt><trkpt lat="45.08436951423243" lon="16.314748446095873"><ele>137.0</ele><time>2026-05-04T14:21:54Z</time></trkpt><trkpt lat="45.084568780699236" lon="16.314569294753973"><ele>138.5</ele><time>2026-05-04T14:21:55Z</time></trkpt><trkpt lat="45.08477255891462" lon="16.314375447354976"><ele>140.0</ele><time>2026-05-04T14:21:56Z</time></trkpt><trkpt lat="45.08496961316954" lon="16.3141662693012"><ele>140.0</ele><time>2026-05-04T14:21:57Z</time></trkpt><trkpt lat="45.08515720601155" lon="16.313944248624445"><ele>140.0</ele><time>2026-05-04T14:21:58Z</time></trkpt><trkpt lat="45.08533255950304" lon="16.313698779011975"><ele>136.5</ele><time>2026-05-04T14:21:59Z</time></trkpt><trkpt lat="45.08548674875974" lon="16.31344086830368"><ele>133.0</ele><time>2026-05-04T14:22:00Z</time></trkpt><trkpt lat="45.08563229132782" lon="16.3131655455429"><ele>135.0</ele><time>2026-05-04T14:22:01Z</time></trkpt><trkpt lat="45.08577081283224" lon="16.312893139779966"><ele>137.0</ele><time>2026-05-04T14:22:02Z</time></trkpt><trkpt lat="45.08590508344957" lon="16.312617713784817"><ele>137.0</ele><time>2026-05-04T14:22:03Z</time></trkpt><trkpt lat="45.08603917135235" lon="16.312337297330508"><ele>137.0</ele><time>2026-05-04T14:22:04Z</time></trkpt><trkpt lat="45.08617498381703" lon="16.312056141184275"><ele>135.0</ele><time>2026-05-04T14:22:05Z</time></trkpt><trkpt lat="45.08630957429978" lon="16.311777679695854"><ele>133.0</ele><time>2026-05-04T14:22:06Z</time></trkpt><trkpt lat="45.086460277572534" lon="16.311510975307577"><ele>134.0</ele><time>2026-05-04T14:22:07Z</time></trkpt><trkpt lat="45.08663397490248" lon="16.311256617948082"><ele>135.0</ele><time>2026-05-04T14:22:08Z</time></trkpt><trkpt lat="45.08682204910983" lon="16.31102147226575"><ele>135.0</ele><time>2026-05-04T14:22:09Z</time></trkpt><trkpt lat="45.087011631100076" lon="16.310769550762856"><ele>135.0</ele><time>2026-05-04T14:22:10Z</time></trkpt><trkpt lat="45.087190380667565" lon="16.31050679645128"><ele>133.5</ele><time>2026-05-04T14:22:11Z</time></trkpt><trkpt lat="45.087356181763816" lon="16.310228989373424"><ele>132.0</ele><time>2026-05-04T14:22:12Z</time></trkpt><trkpt lat="45.08751361966842" lon="16.309941724305617"><ele>133.0</ele><time>2026-05-04T14:22:13Z</time></trkpt><trkpt lat="45.08766379931392" lon="16.309671912323598"><ele>134.0</ele><time>2026-05-04T14:22:14Z</time></trkpt><trkpt lat="45.08780971027857" lon="16.30939417384844"><ele>134.0</ele><time>2026-05-04T14:22:15Z</time></trkpt><trkpt lat="45.087944258165734" lon="16.309107584490917"><ele>134.0</ele><time>2026-05-04T14:22:16Z</time></trkpt><trkpt lat="45.088062394751546" lon="16.30881317299233"><ele>133.0</ele><time>2026-05-04T14:22:17Z</time></trkpt><trkpt lat="45.088177645874225" lon="16.308515610446484"><ele>132.0</ele><time>2026-05-04T14:22:18Z</time></trkpt><trkpt lat="45.0883098503006" lon="16.308250656023837"><ele>133.33333333333334</ele><time>2026-05-04T14:22:19Z</time></trkpt><trkpt lat="45.08845820525309" lon="16.3080378986331"><ele>134.66666666666669</ele><time>2026-05-04T14:22:20Z</time></trkpt><trkpt lat="45.088592389527136" lon="16.30783901043557"><ele>136.0</ele><time>2026-05-04T14:22:21Z</time></trkpt><trkpt lat="45.088695715390955" lon="16.307615917445094"><ele>136.0</ele><time>2026-05-04T14:22:22Z</time></trkpt><trkpt lat="45.08876694034437" lon="16.30734010197421"><ele>136.0</ele><time>2026-05-04T14:22:23Z</time></trkpt><trkpt lat="45.0888308580767" lon="16.307034226749142"><ele>136.0</ele><time>2026-05-04T14:22:24Z</time></trkpt><trkpt lat="45.08889455712913" lon="16.306690820330882"><ele>134.5</ele><time>2026-05-04T14:22:25Z</time></trkpt><trkpt lat="45.08897367150353" lon="16.306341355484903"><ele>133.0</ele><time>2026-05-04T14:22:26Z</time></trkpt><trkpt lat="45.089047864121845" lon="16.30597855150087"><ele>134.0</ele><time>2026-05-04T14:22:27Z</time></trkpt><trkpt lat="45.08912568853373" lon="16.30560961462265"><ele>135.0</ele><time>2026-05-04T14:22:28Z</time></trkpt><trkpt lat="45.089204718704565" lon="16.305238945440447"><ele>135.0</ele><time>2026-05-04T14:22:29Z</time></trkpt><trkpt lat="45.089289414439214" lon="16.304855278151088"><ele>135.0</ele><time>2026-05-04T14:22:30Z</time></trkpt><trkpt lat="45.089378782133295" lon="16.304470636879003"><ele>134.5</ele><time>2026-05-04T14:22:31Z</time></trkpt><trkpt lat="45.08947319814556" lon="16.3040875701347"><ele>134.0</ele><time>2026-05-04T14:22:32Z</time></trkpt><trkpt lat="45.08956477883318" lon="16.303709999261685"><ele>133.0</ele><time>2026-05-04T14:22:33Z</time></trkpt><trkpt lat="45.089649496374115" lon="16.303327453577356"><ele>132.0</ele><time>2026-05-04T14:22:34Z</time></trkpt><trkpt lat="45.08973157005114" lon="16.302940102543545"><ele>132.0</ele><time>2026-05-04T14:22:35Z</time></trkpt><trkpt lat="45.08981120117995" lon="16.30255676017904"><ele>132.0</ele><time>2026-05-04T14:22:36Z</time></trkpt><trkpt lat="45.08989153553608" lon="16.302168811379953"><ele>132.0</ele><time>2026-05-04T14:22:37Z</time></trkpt><trkpt lat="45.08998378259157" lon="16.301785110531164"><ele>132.0</ele><time>2026-05-04T14:22:38Z</time></trkpt><trkpt lat="45.090093191122406" lon="16.30141490792348"><ele>132.0</ele><time>2026-05-04T14:22:39Z</time></trkpt><trkpt lat="45.090218700360765" lon="16.301063808922972"><ele>132.0</ele><time>2026-05-04T14:22:40Z</time></trkpt><trkpt lat="45.09036961446281" lon="16.300733638198576"><ele>131.5</ele><time>2026-05-04T14:22:41Z</time></trkpt><trkpt lat="45.09054499663771" lon="16.300432409267955"><ele>131.0</ele><time>2026-05-04T14:22:42Z</time></trkpt><trkpt lat="45.09074864185072" lon="16.3001701496466"><ele>130.5</ele><time>2026-05-04T14:22:43Z</time></trkpt><trkpt lat="45.090972483156776" lon="16.299946486760735"><ele>130.0</ele><time>2026-05-04T14:22:44Z</time></trkpt><trkpt lat="45.091211139960194" lon="16.29973256752818"><ele>130.0</ele><time>2026-05-04T14:22:45Z</time></trkpt><trkpt lat="45.09144652208639" lon="16.2995012741148"><ele>130.0</ele><time>2026-05-04T14:22:46Z</time></trkpt><trkpt lat="45.09167218954694" lon="16.299241707465765"><ele>130.5</ele><time>2026-05-04T14:22:47Z</time></trkpt><trkpt lat="45.09188957658888" lon="16.298969728771418"><ele>131.0</ele><time>2026-05-04T14:22:48Z</time></trkpt><trkpt lat="45.09211342601548" lon="16.298697134914516"><ele>132.0</ele><time>2026-05-04T14:22:49Z</time></trkpt><trkpt lat="45.09233553151541" lon="16.2984284697954"><ele>133.0</ele><time>2026-05-04T14:22:50Z</time></trkpt><trkpt lat="45.092556250409714" lon="16.298161382304038"><ele>133.0</ele><time>2026-05-04T14:22:51Z</time></trkpt><trkpt lat="45.09277167709254" lon="16.29790886731718"><ele>133.0</ele><time>2026-05-04T14:22:52Z</time></trkpt><trkpt lat="45.09298903310091" lon="16.297677476472074"><ele>133.0</ele><time>2026-05-04T14:22:53Z</time></trkpt><trkpt lat="45.093219546589864" lon="16.2974737000803"><ele>133.0</ele><time>2026-05-04T14:22:54Z</time></trkpt><trkpt lat="45.09346918066063" lon="16.297314149875344"><ele>133.5</ele><time>2026-05-04T14:22:55Z</time></trkpt><trkpt lat="45.093713795706016" lon="16.297163028278934"><ele>134.0</ele><time>2026-05-04T14:22:56Z</time></trkpt><trkpt lat="45.093956298675245" lon="16.297001760441827"><ele>134.5</ele><time>2026-05-04T14:22:57Z</time></trkpt><trkpt lat="45.094192489540525" lon="16.29683218442676"><ele>135.0</ele><time>2026-05-04T14:22:58Z</time></trkpt><trkpt lat="45.09442734858631" lon="16.296664317664735"><ele>135.0</ele><time>2026-05-04T14:22:59Z</time></trkpt><trkpt lat="45.09465741135522" lon="16.296501911614975"><ele>135.0</ele><time>2026-05-04T14:23:00Z</time></trkpt><trkpt lat="45.09488133090168" lon="16.296343808774647"><ele>135.33333333333334</ele><time>2026-05-04T14:23:01Z</time></trkpt><trkpt lat="45.09508702414946" lon="16.296200684532412"><ele>135.66666666666669</ele><time>2026-05-04T14:23:02Z</time></trkpt><trkpt lat="45.09527806536114" lon="16.29606882436076"><ele>136.0</ele><time>2026-05-04T14:23:03Z</time></trkpt><trkpt lat="45.09545988471612" lon="16.295944395186044"><ele>136.0</ele><time>2026-05-04T14:23:04Z</time></trkpt><trkpt lat="45.095633654378936" lon="16.29582755110242"><ele>136.0</ele><time>2026-05-04T14:23:05Z</time></trkpt><trkpt lat="45.09580681701043" lon="16.295706317145086"><ele>136.0</ele><time>2026-05-04T14:23:06Z</time></trkpt><trkpt lat="45.09598941979644" lon="16.295571492300848"><ele>135.66666666666669</ele><time>2026-05-04T14:23:07Z</time></trkpt><trkpt lat="45.096175593849786" lon="16.295423659147772"><ele>135.33333333333334</ele><time>2026-05-04T14:23:08Z</time></trkpt><trkpt lat="45.096358364375305" lon="16.29525839591551"><ele>135.0</ele><time>2026-05-04T14:23:09Z</time></trkpt><trkpt lat="45.09654123514671" lon="16.29507104023224"><ele>135.0</ele><time>2026-05-04T14:23:10Z</time></trkpt><trkpt lat="45.096729708808724" lon="16.294888335239694"><ele>135.0</ele><time>2026-05-04T14:23:11Z</time></trkpt><trkpt lat="45.09692388078715" lon="16.294704690294594"><ele>135.0</ele><time>2026-05-04T14:23:12Z</time></trkpt><trkpt lat="45.09712090664186" lon="16.29451700789643"><ele>135.0</ele><time>2026-05-04T14:23:13Z</time></trkpt><trkpt lat="45.097309393605286" lon="16.294329755284316"><ele>136.0</ele><time>2026-05-04T14:23:14Z</time></trkpt><trkpt lat="45.097505141397065" lon="16.29414390633454"><ele>137.0</ele><time>2026-05-04T14:23:15Z</time></trkpt><trkpt lat="45.09770233107694" lon="16.293956992062874"><ele>136.5</ele><time>2026-05-04T14:23:16Z</time></trkpt><trkpt lat="45.09789637930808" lon="16.293776535032638"><ele>136.0</ele><time>2026-05-04T14:23:17Z</time></trkpt><trkpt lat="45.098091271857854" lon="16.293594884513233"><ele>136.5</ele><time>2026-05-04T14:23:18Z</time></trkpt><trkpt lat="45.09829095517588" lon="16.29340926656629"><ele>137.0</ele><time>2026-05-04T14:23:19Z</time></trkpt><trkpt lat="45.098486837282515" lon="16.29322521727815"><ele>137.0</ele><time>2026-05-04T14:23:20Z</time></trkpt><trkpt lat="45.098686933201066" lon="16.293031935852213"><ele>137.0</ele><time>2026-05-04T14:23:21Z</time></trkpt><trkpt lat="45.09888398061907" lon="16.292844407753435"><ele>137.5</ele><time>2026-05-04T14:23:22Z</time></trkpt><trkpt lat="45.099084425252414" lon="16.29265585552394"><ele>138.0</ele><time>2026-05-04T14:23:23Z</time></trkpt><trkpt lat="45.09929123516425" lon="16.292461108599195"><ele>138.0</ele><time>2026-05-04T14:23:24Z</time></trkpt><trkpt lat="45.099488818720694" lon="16.29226770613804"><ele>138.0</ele><time>2026-05-04T14:23:25Z</time></trkpt><trkpt lat="45.09968504929771" lon="16.2920727987914"><ele>137.5</ele><time>2026-05-04T14:23:26Z</time></trkpt><trkpt lat="45.099871144274566" lon="16.291884257435896"><ele>137.0</ele><time>2026-05-04T14:23:27Z</time></trkpt><trkpt lat="45.10006154276858" lon="16.29168678358443"><ele>138.5</ele><time>2026-05-04T14:23:28Z</time></trkpt><trkpt lat="45.10025084062332" lon="16.291488478160616"><ele>140.0</ele><time>2026-05-04T14:23:29Z</time></trkpt><trkpt lat="45.10043379956212" lon="16.291285468408315"><ele>141.0</ele><time>2026-05-04T14:23:30Z</time></trkpt><trkpt lat="45.10060117660643" lon="16.291062614134116"><ele>142.0</ele><time>2026-05-04T14:23:31Z</time></trkpt><trkpt lat="45.100762464296" lon="16.29083016511003"><ele>144.0</ele><time>2026-05-04T14:23:32Z</time></trkpt><trkpt lat="45.100939104686205" lon="16.290609531985613"><ele>146.0</ele><time>2026-05-04T14:23:33Z</time></trkpt><trkpt lat="45.10112074411662" lon="16.290404062892193"><ele>147.0</ele><time>2026-05-04T14:23:34Z</time></trkpt><trkpt lat="45.1013226154696" lon="16.290195189551074"><ele>148.0</ele><time>2026-05-04T14:23:35Z</time></trkpt><trkpt lat="45.10154773646773" lon="16.289984933566235"><ele>150.5</ele><time>2026-05-04T14:23:36Z</time></trkpt><trkpt lat="45.10178275499333" lon="16.28978009145442"><ele>153.0</ele><time>2026-05-04T14:23:37Z</time></trkpt><trkpt lat="45.1020262305586" lon="16.28957583168888"><ele>156.0</ele><time>2026-05-04T14:23:38Z</time></trkpt><trkpt lat="45.10250931557117" lon="16.28916863123064"><ele>156.0</ele><time>2026-05-04T14:23:40Z</time></trkpt><trkpt lat="45.102748464609434" lon="16.288962426909812"><ele>156.0</ele><time>2026-05-04T14:23:41Z</time></trkpt><trkpt lat="45.102982538957406" lon="16.288770658636082"><ele>156.5</ele><time>2026-05-04T14:23:42Z</time></trkpt><trkpt lat="45.10321174435447" lon="16.28857687503264"><ele>157.0</ele><time>2026-05-04T14:23:43Z</time></trkpt><trkpt lat="45.103418203099835" lon="16.28839736640017"><ele>157.0</ele><time>2026-05-04T14:23:44Z</time></trkpt><trkpt lat="45.10360857293914" lon="16.288229360646174"><ele>157.0</ele><time>2026-05-04T14:23:45Z</time></trkpt><trkpt lat="45.10380105536454" lon="16.28806579481678"><ele>157.0</ele><time>2026-05-04T14:23:46Z</time></trkpt><trkpt lat="45.10399915706797" lon="16.287900116132004"><ele>156.5</ele><time>2026-05-04T14:23:47Z</time></trkpt><trkpt lat="45.104208870135025" lon="16.287749885718775"><ele>156.0</ele><time>2026-05-04T14:23:48Z</time></trkpt><trkpt lat="45.10444573871472" lon="16.287605775302673"><ele>156.0</ele><time>2026-05-04T14:23:49Z</time></trkpt><trkpt lat="45.10469266623959" lon="16.287444590158994"><ele>156.0</ele><time>2026-05-04T14:23:50Z</time></trkpt><trkpt lat="45.10494553696722" lon="16.287278022469955"><ele>151.5</ele><time>2026-05-04T14:23:51Z</time></trkpt><trkpt lat="45.10521939106363" lon="16.28709707841151"><ele>147.0</ele><time>2026-05-04T14:23:52Z</time></trkpt><trkpt lat="45.10549909094147" lon="16.286910113556395"><ele>147.5</ele><time>2026-05-04T14:23:53Z</time></trkpt><trkpt lat="45.10576195566257" lon="16.286736742926475"><ele>148.0</ele><time>2026-05-04T14:23:54Z</time></trkpt><trkpt lat="45.106003240619756" lon="16.286580772744887"><ele>148.0</ele><time>2026-05-04T14:23:55Z</time></trkpt><trkpt lat="45.1062319349018" lon="16.286428328768515"><ele>148.0</ele><time>2026-05-04T14:23:56Z</time></trkpt><trkpt lat="45.10645199286794" lon="16.286277950831806"><ele>147.5</ele><time>2026-05-04T14:23:57Z</time></trkpt><trkpt lat="45.10666927537671" lon="16.28613421655089"><ele>147.0</ele><time>2026-05-04T14:23:58Z</time></trkpt><trkpt lat="45.106881046829095" lon="16.28598066304288"><ele>147.0</ele><time>2026-05-04T14:23:59Z</time></trkpt><trkpt lat="45.107085644741666" lon="16.28581482286136"><ele>147.0</ele><time>2026-05-04T14:24:00Z</time></trkpt><trkpt lat="45.1072800314664" lon="16.285646397964555"><ele>146.0</ele><time>2026-05-04T14:24:01Z</time></trkpt><trkpt lat="45.10747744754196" lon="16.2854798675772"><ele>145.0</ele><time>2026-05-04T14:24:02Z</time></trkpt><trkpt lat="45.107659320846075" lon="16.285284799951405"><ele>145.0</ele><time>2026-05-04T14:24:03Z</time></trkpt><trkpt lat="45.107836799316146" lon="16.28506573367596"><ele>145.0</ele><time>2026-05-04T14:24:04Z</time></trkpt><trkpt lat="45.10801249329095" lon="16.28483477889261"><ele>144.5</ele><time>2026-05-04T14:24:05Z</time></trkpt><trkpt lat="45.10818096850001" lon="16.284615924609003"><ele>144.0</ele><time>2026-05-04T14:24:06Z</time></trkpt><trkpt lat="45.10835816868551" lon="16.284399707251588"><ele>144.0</ele><time>2026-05-04T14:24:07Z</time></trkpt><trkpt lat="45.10853236723147" lon="16.284187557778736"><ele>144.0</ele><time>2026-05-04T14:24:08Z</time></trkpt><trkpt lat="45.10870168852166" lon="16.283978725354235"><ele>143.0</ele><time>2026-05-04T14:24:09Z</time></trkpt><trkpt lat="45.108871628117804" lon="16.283761979981016"><ele>142.0</ele><time>2026-05-04T14:24:10Z</time></trkpt><trkpt lat="45.10902986351124" lon="16.283527609805375"><ele>142.5</ele><time>2026-05-04T14:24:11Z</time></trkpt><trkpt lat="45.109167824933714" lon="16.283266371896442"><ele>143.0</ele><time>2026-05-04T14:24:12Z</time></trkpt><trkpt lat="45.109281217961026" lon="16.28297757640651"><ele>143.0</ele><time>2026-05-04T14:24:13Z</time></trkpt><trkpt lat="45.10937601520519" lon="16.28268249746053"><ele>143.0</ele><time>2026-05-04T14:24:14Z</time></trkpt><trkpt lat="45.1094741409465" lon="16.282368844974908"><ele>142.5</ele><time>2026-05-04T14:24:15Z</time></trkpt><trkpt lat="45.10957798171967" lon="16.28204352278458"><ele>142.0</ele><time>2026-05-04T14:24:16Z</time></trkpt><trkpt lat="45.10968148554712" lon="16.28170153808483"><ele>141.5</ele><time>2026-05-04T14:24:17Z</time></trkpt><trkpt lat="45.10977486120414" lon="16.281377860895695"><ele>141.0</ele><time>2026-05-04T14:24:18Z</time></trkpt><trkpt lat="45.1098654472748" lon="16.2810622652228"><ele>141.5</ele><time>2026-05-04T14:24:19Z</time></trkpt><trkpt lat="45.109965661213536" lon="16.28074495513397"><ele>142.0</ele><time>2026-05-04T14:24:20Z</time></trkpt><trkpt lat="45.11008783117412" lon="16.28044393404539"><ele>142.0</ele><time>2026-05-04T14:24:21Z</time></trkpt><trkpt lat="45.11024612096222" lon="16.280130586260864"><ele>142.0</ele><time>2026-05-04T14:24:22Z</time></trkpt><trkpt lat="45.11042431612536" lon="16.279836748186924"><ele>142.0</ele><time>2026-05-04T14:24:23Z</time></trkpt><trkpt lat="45.11060936928954" lon="16.279540142875234"><ele>142.0</ele><time>2026-05-04T14:24:24Z</time></trkpt><trkpt lat="45.11079994925703" lon="16.279258628695302"><ele>142.0</ele><time>2026-05-04T14:24:25Z</time></trkpt><trkpt lat="45.11100036784742" lon="16.279002634001806"><ele>142.0</ele><time>2026-05-04T14:24:26Z</time></trkpt><trkpt lat="45.11120366212173" lon="16.278757733485644"><ele>142.5</ele><time>2026-05-04T14:24:27Z</time></trkpt><trkpt lat="45.11141910982956" lon="16.27852031273085"><ele>143.0</ele><time>2026-05-04T14:24:28Z</time></trkpt><trkpt lat="45.111631788641795" lon="16.278281158512172"><ele>143.0</ele><time>2026-05-04T14:24:29Z</time></trkpt><trkpt lat="45.11185374841538" lon="16.27805403605308"><ele>143.0</ele><time>2026-05-04T14:24:30Z</time></trkpt><trkpt lat="45.112074490888574" lon="16.27782691920971"><ele>143.0</ele><time>2026-05-04T14:24:31Z</time></trkpt><trkpt lat="45.11229876009315" lon="16.277587923688603"><ele>143.0</ele><time>2026-05-04T14:24:32Z</time></trkpt><trkpt lat="45.11252294316833" lon="16.27735021301418"><ele>142.5</ele><time>2026-05-04T14:24:33Z</time></trkpt><trkpt lat="45.11273387417878" lon="16.277133379655037"><ele>142.0</ele><time>2026-05-04T14:24:34Z</time></trkpt><trkpt lat="45.11293527095499" lon="16.27691568678941"><ele>142.0</ele><time>2026-05-04T14:24:35Z</time></trkpt><trkpt lat="45.11313441949239" lon="16.27670320890136"><ele>142.0</ele><time>2026-05-04T14:24:36Z</time></trkpt><trkpt lat="45.113324780000525" lon="16.276498209119435"><ele>142.33333333333334</ele><time>2026-05-04T14:24:37Z</time></trkpt><trkpt lat="45.11350392945824" lon="16.276310502917642"><ele>142.66666666666666</ele><time>2026-05-04T14:24:38Z</time></trkpt><trkpt lat="45.11367817663025" lon="16.276126456182645"><ele>143.0</ele><time>2026-05-04T14:24:39Z</time></trkpt><trkpt lat="45.113853177722824" lon="16.275936372921255"><ele>143.0</ele><time>2026-05-04T14:24:40Z</time></trkpt><trkpt lat="45.114024103008276" lon="16.275743824806753"><ele>143.0</ele><time>2026-05-04T14:24:41Z</time></trkpt><trkpt lat="45.11418779885515" lon="16.275552783084745"><ele>143.0</ele><time>2026-05-04T14:24:42Z</time></trkpt><trkpt lat="45.114345543181884" lon="16.275371643411066"><ele>143.66666666666666</ele><time>2026-05-04T14:24:43Z</time></trkpt><trkpt lat="45.114490297325275" lon="16.27520579065865"><ele>144.33333333333334</ele><time>2026-05-04T14:24:44Z</time></trkpt><trkpt lat="45.11462462927664" lon="16.275047812298617"><ele>145.0</ele><time>2026-05-04T14:24:45Z</time></trkpt><trkpt lat="45.11474680422297" lon="16.274883232652375"><ele>145.0</ele><time>2026-05-04T14:24:46Z</time></trkpt><trkpt lat="45.114853521167085" lon="16.27469768382968"><ele>145.0</ele><time>2026-05-04T14:24:47Z</time></trkpt><trkpt lat="45.11495183001312" lon="16.2744905787079"><ele>145.0</ele><time>2026-05-04T14:24:48Z</time></trkpt><trkpt lat="45.11504934828085" lon="16.274286051966637"><ele>145.0</ele><time>2026-05-04T14:24:49Z</time></trkpt><trkpt lat="45.11514400430508" lon="16.274075350242082"><ele>145.0</ele><time>2026-05-04T14:24:50Z</time></trkpt><trkpt lat="45.11523292964557" lon="16.273839940236936"><ele>145.0</ele><time>2026-05-04T14:24:51Z</time></trkpt><trkpt lat="45.115289550763" lon="16.273598841740732"><ele>145.33333333333334</ele><time>2026-05-04T14:24:52Z</time></trkpt><trkpt lat="45.11531918542493" lon="16.27333974717619"><ele>145.66666666666666</ele><time>2026-05-04T14:24:53Z</time></trkpt><trkpt lat="45.11534744789814" lon="16.273071570222278"><ele>146.0</ele><time>2026-05-04T14:24:54Z</time></trkpt><trkpt lat="45.11537602399287" lon="16.27278567143208"><ele>146.0</ele><time>2026-05-04T14:24:55Z</time></trkpt><trkpt lat="45.11540390722012" lon="16.272489208803943"><ele>146.0</ele><time>2026-05-04T14:24:56Z</time></trkpt><trkpt lat="45.11542411555511" lon="16.272179610465926"><ele>146.0</ele><time>2026-05-04T14:24:57Z</time></trkpt><trkpt lat="45.115446222517825" lon="16.27184436196947"><ele>146.0</ele><time>2026-05-04T14:24:58Z</time></trkpt><trkpt lat="45.11547100178921" lon="16.27150245155473"><ele>146.0</ele><time>2026-05-04T14:24:59Z</time></trkpt><trkpt lat="45.11549571059455" lon="16.27115139589271"><ele>146.0</ele><time>2026-05-04T14:25:00Z</time></trkpt><trkpt lat="45.115521332421004" lon="16.270792648180713"><ele>146.0</ele><time>2026-05-04T14:25:01Z</time></trkpt><trkpt lat="45.11554873861983" lon="16.270426506958156"><ele>146.0</ele><time>2026-05-04T14:25:02Z</time></trkpt><trkpt lat="45.115579691137974" lon="16.270066942325013"><ele>146.0</ele><time>2026-05-04T14:25:03Z</time></trkpt><trkpt lat="45.115618075057846" lon="16.26969777920872"><ele>146.0</ele><time>2026-05-04T14:25:04Z</time></trkpt><trkpt lat="45.115674674053054" lon="16.269349759041557"><ele>146.0</ele><time>2026-05-04T14:25:05Z</time></trkpt><trkpt lat="45.115762729002846" lon="16.269002150603168"><ele>145.5</ele><time>2026-05-04T14:25:06Z</time></trkpt><trkpt lat="45.11587928619246" lon="16.268674350531022"><ele>145.0</ele><time>2026-05-04T14:25:07Z</time></trkpt><trkpt lat="45.1160099552727" lon="16.268355010607088"><ele>145.0</ele><time>2026-05-04T14:25:08Z</time></trkpt><trkpt lat="45.11614763312418" lon="16.268038973353946"><ele>145.0</ele><time>2026-05-04T14:25:09Z</time></trkpt><trkpt lat="45.116287161475164" lon="16.26770880388487"><ele>145.0</ele><time>2026-05-04T14:25:10Z</time></trkpt><trkpt lat="45.116427528521314" lon="16.267374185892265"><ele>145.0</ele><time>2026-05-04T14:25:11Z</time></trkpt><trkpt lat="45.116570324555866" lon="16.267035159964966"><ele>146.0</ele><time>2026-05-04T14:25:12Z</time></trkpt><trkpt lat="45.116714497365656" lon="16.26669716145133"><ele>147.0</ele><time>2026-05-04T14:25:13Z</time></trkpt><trkpt lat="45.11685898742466" lon="16.266362768099754"><ele>147.0</ele><time>2026-05-04T14:25:14Z</time></trkpt><trkpt lat="45.11700041805442" lon="16.2660263835444"><ele>147.0</ele><time>2026-05-04T14:25:15Z</time></trkpt><trkpt lat="45.117141399591816" lon="16.26568766120084"><ele>146.5</ele><time>2026-05-04T14:25:16Z</time></trkpt><trkpt lat="45.117284897767085" lon="16.26535233056984"><ele>146.0</ele><time>2026-05-04T14:25:17Z</time></trkpt><trkpt lat="45.117432360904495" lon="16.265015760788774"><ele>147.0</ele><time>2026-05-04T14:25:18Z</time></trkpt><trkpt lat="45.11758781642589" lon="16.264687386493385"><ele>148.0</ele><time>2026-05-04T14:25:19Z</time></trkpt><trkpt lat="45.11775138067119" lon="16.264371771413067"><ele>148.0</ele><time>2026-05-04T14:25:20Z</time></trkpt><trkpt lat="45.11792075126917" lon="16.264060567099342"><ele>148.0</ele><time>2026-05-04T14:25:21Z</time></trkpt><trkpt lat="45.11808420918993" lon="16.263751312590692"><ele>148.0</ele><time>2026-05-04T14:25:22Z</time></trkpt><trkpt lat="45.11824404372906" lon="16.26344625930719"><ele>148.0</ele><time>2026-05-04T14:25:23Z</time></trkpt><trkpt lat="45.11840334423759" lon="16.26314419242003"><ele>148.0</ele><time>2026-05-04T14:25:24Z</time></trkpt><trkpt lat="45.11856317976181" lon="16.262841910185717"><ele>148.0</ele><time>2026-05-04T14:25:25Z</time></trkpt><trkpt lat="45.11872526259628" lon="16.26253286933649"><ele>148.0</ele><time>2026-05-04T14:25:26Z</time></trkpt><trkpt lat="45.11888704922185" lon="16.26222937828442"><ele>148.0</ele><time>2026-05-04T14:25:27Z</time></trkpt><trkpt lat="45.119044915469146" lon="16.26192231003283"><ele>148.0</ele><time>2026-05-04T14:25:28Z</time></trkpt><trkpt lat="45.11920639708235" lon="16.261609007717926"><ele>148.0</ele><time>2026-05-04T14:25:29Z</time></trkpt><trkpt lat="45.119368111404164" lon="16.261299534640322"><ele>148.0</ele><time>2026-05-04T14:25:30Z</time></trkpt><trkpt lat="45.11952521456696" lon="16.260993423754304"><ele>148.0</ele><time>2026-05-04T14:25:31Z</time></trkpt><trkpt lat="45.11967378239226" lon="16.260680263007103"><ele>148.0</ele><time>2026-05-04T14:25:32Z</time></trkpt><trkpt lat="45.11981269844531" lon="16.260352966386797"><ele>148.0</ele><time>2026-05-04T14:25:33Z</time></trkpt><trkpt lat="45.1199439682793" lon="16.260011203168276"><ele>149.5</ele><time>2026-05-04T14:25:34Z</time></trkpt><trkpt lat="45.12007661832139" lon="16.259659298612362"><ele>151.0</ele><time>2026-05-04T14:25:35Z</time></trkpt><trkpt lat="45.12021167315807" lon="16.259310570921535"><ele>151.0</ele><time>2026-05-04T14:25:36Z</time></trkpt><trkpt lat="45.1203484925432" lon="16.25896199043052"><ele>151.0</ele><time>2026-05-04T14:25:37Z</time></trkpt><trkpt lat="45.12048979434499" lon="16.25861187657316"><ele>151.0</ele><time>2026-05-04T14:25:38Z</time></trkpt><trkpt lat="45.12063631621133" lon="16.258269285108906"><ele>151.0</ele><time>2026-05-04T14:25:39Z</time></trkpt><trkpt lat="45.12079479956568" lon="16.25793786713817"><ele>151.0</ele><time>2026-05-04T14:25:40Z</time></trkpt><trkpt lat="45.12097385479486" lon="16.257622811826472"><ele>151.0</ele><time>2026-05-04T14:25:41Z</time></trkpt><trkpt lat="45.12116155927165" lon="16.257327731730932"><ele>150.5</ele><time>2026-05-04T14:25:42Z</time></trkpt><trkpt lat="45.121355640154164" lon="16.25703104194882"><ele>150.0</ele><time>2026-05-04T14:25:43Z</time></trkpt><trkpt lat="45.12154266534829" lon="16.256746529485355"><ele>152.0</ele><time>2026-05-04T14:25:44Z</time></trkpt><trkpt lat="45.121730668742714" lon="16.256452290766134"><ele>154.0</ele><time>2026-05-04T14:25:45Z</time></trkpt><trkpt lat="45.12191733782038" lon="16.25615188540576"><ele>154.0</ele><time>2026-05-04T14:25:46Z</time></trkpt><trkpt lat="45.12210320820566" lon="16.25585701079135"><ele>154.0</ele><time>2026-05-04T14:25:47Z</time></trkpt><trkpt lat="45.122281433686624" lon="16.25557470852814"><ele>154.5</ele><time>2026-05-04T14:25:48Z</time></trkpt><trkpt lat="45.1224625888864" lon="16.25530175333698"><ele>155.0</ele><time>2026-05-04T14:25:49Z</time></trkpt><trkpt lat="45.12263411095388" lon="16.255030206545452"><ele>153.5</ele><time>2026-05-04T14:25:50Z</time></trkpt><trkpt lat="45.12280418022337" lon="16.25476440391477"><ele>152.0</ele><time>2026-05-04T14:25:51Z</time></trkpt><trkpt lat="45.122971009093675" lon="16.254506369831837"><ele>152.0</ele><time>2026-05-04T14:25:52Z</time></trkpt><trkpt lat="45.12313745603198" lon="16.254252527134327"><ele>152.0</ele><time>2026-05-04T14:25:53Z</time></trkpt><trkpt lat="45.1232982618974" lon="16.254002742775477"><ele>153.0</ele><time>2026-05-04T14:25:54Z</time></trkpt><trkpt lat="45.12345560266448" lon="16.253757492896625"><ele>154.0</ele><time>2026-05-04T14:25:55Z</time></trkpt><trkpt lat="45.123614015966965" lon="16.253518051773824"><ele>154.0</ele><time>2026-05-04T14:25:56Z</time></trkpt><trkpt lat="45.123767089949354" lon="16.253281862643682"><ele>154.0</ele><time>2026-05-04T14:25:57Z</time></trkpt><trkpt lat="45.12391990749254" lon="16.25306628303628"><ele>154.0</ele><time>2026-05-04T14:25:58Z</time></trkpt><trkpt lat="45.12407598695284" lon="16.252864254558148"><ele>154.0</ele><time>2026-05-04T14:25:59Z</time></trkpt><trkpt lat="45.124245366399954" lon="16.252728843597936"><ele>154.0</ele><time>2026-05-04T14:26:00Z</time></trkpt><trkpt lat="45.12442400973621" lon="16.25265678399698"><ele>154.0</ele><time>2026-05-04T14:26:01Z</time></trkpt><trkpt lat="45.12461810468773" lon="16.252610322354368"><ele>154.0</ele><time>2026-05-04T14:26:02Z</time></trkpt><trkpt lat="45.124820783655366" lon="16.252564023123842"><ele>154.0</ele><time>2026-05-04T14:26:03Z</time></trkpt><trkpt lat="45.125020839230544" lon="16.252523203997598"><ele>154.0</ele><time>2026-05-04T14:26:04Z</time></trkpt><trkpt lat="45.1252215105018" lon="16.25248021769649"><ele>154.33333333333334</ele><time>2026-05-04T14:26:05Z</time></trkpt><trkpt lat="45.12541981702711" lon="16.252418826297657"><ele>154.66666666666666</ele><time>2026-05-04T14:26:06Z</time></trkpt><trkpt lat="45.12561486984667" lon="16.252334656969104"><ele>155.0</ele><time>2026-05-04T14:26:07Z</time></trkpt><trkpt lat="45.125809497917615" lon="16.25222877214838"><ele>155.0</ele><time>2026-05-04T14:26:08Z</time></trkpt><trkpt lat="45.12601572392611" lon="16.252088531674037"><ele>155.0</ele><time>2026-05-04T14:26:09Z</time></trkpt><trkpt lat="45.12622256465578" lon="16.251934985386548"><ele>155.0</ele><time>2026-05-04T14:26:10Z</time></trkpt><trkpt lat="45.126432329049514" lon="16.25177008877506"><ele>155.0</ele><time>2026-05-04T14:26:11Z</time></trkpt><trkpt lat="45.12665510220814" lon="16.251584224885256"><ele>155.0</ele><time>2026-05-04T14:26:12Z</time></trkpt><trkpt lat="45.126882418769455" lon="16.25139217587839"><ele>155.0</ele><time>2026-05-04T14:26:13Z</time></trkpt><trkpt lat="45.127120787008224" lon="16.251201030790014"><ele>155.0</ele><time>2026-05-04T14:26:14Z</time></trkpt><trkpt lat="45.12735305211426" lon="16.251005576114565"><ele>155.0</ele><time>2026-05-04T14:26:15Z</time></trkpt><trkpt lat="45.127571755619" lon="16.25079326085673"><ele>155.5</ele><time>2026-05-04T14:26:16Z</time></trkpt><trkpt lat="45.12777995860227" lon="16.250553492862963"><ele>156.0</ele><time>2026-05-04T14:26:17Z</time></trkpt><trkpt lat="45.127970158275325" lon="16.250290260425544"><ele>156.0</ele><time>2026-05-04T14:26:18Z</time></trkpt><trkpt lat="45.12813788864555" lon="16.250008158900112"><ele>156.0</ele><time>2026-05-04T14:26:19Z</time></trkpt><trkpt lat="45.12829027272293" lon="16.249703653760537"><ele>156.5</ele><time>2026-05-04T14:26:20Z</time></trkpt><trkpt lat="45.12842208912519" lon="16.249384675147557"><ele>157.0</ele><time>2026-05-04T14:26:21Z</time></trkpt><trkpt lat="45.12854922671793" lon="16.24905981610167"><ele>157.0</ele><time>2026-05-04T14:26:22Z</time></trkpt><trkpt lat="45.12867053526231" lon="16.248738226848953"><ele>157.0</ele><time>2026-05-04T14:26:23Z</time></trkpt><trkpt lat="45.1287949865192" lon="16.24841474484081"><ele>157.0</ele><time>2026-05-04T14:26:24Z</time></trkpt><trkpt lat="45.12891972421224" lon="16.24808630194691"><ele>157.0</ele><time>2026-05-04T14:26:25Z</time></trkpt><trkpt lat="45.12904427914612" lon="16.247756639959434"><ele>157.0</ele><time>2026-05-04T14:26:26Z</time></trkpt><trkpt lat="45.12916571138948" lon="16.247434620128324"><ele>157.0</ele><time>2026-05-04T14:26:27Z</time></trkpt><trkpt lat="45.12928649046083" lon="16.247115476721305"><ele>157.0</ele><time>2026-05-04T14:26:28Z</time></trkpt><trkpt lat="45.12940241756263" lon="16.246799037052593"><ele>157.0</ele><time>2026-05-04T14:26:29Z</time></trkpt><trkpt lat="45.12950690326095" lon="16.246514136115564"><ele>156.66666666666669</ele><time>2026-05-04T14:26:30Z</time></trkpt><trkpt lat="45.12960440426345" lon="16.24625101778058"><ele>156.33333333333334</ele><time>2026-05-04T14:26:31Z</time></trkpt><trkpt lat="45.12970541809119" lon="16.245984933267643"><ele>156.0</ele><time>2026-05-04T14:26:32Z</time></trkpt><trkpt lat="45.12980893607559" lon="16.245702170628"><ele>157.5</ele><time>2026-05-04T14:26:33Z</time></trkpt><trkpt lat="45.12992441409289" lon="16.245383162387398"><ele>159.0</ele><time>2026-05-04T14:26:34Z</time></trkpt><trkpt lat="45.13005275676119" lon="16.24502850831521"><ele>158.0</ele><time>2026-05-04T14:26:35Z</time></trkpt><trkpt lat="45.130192851127084" lon="16.24466479836865"><ele>157.0</ele><time>2026-05-04T14:26:36Z</time></trkpt><trkpt lat="45.13033417776024" lon="16.244306890652936"><ele>157.0</ele><time>2026-05-04T14:26:37Z</time></trkpt><trkpt lat="45.13048232252947" lon="16.24395088204046"><ele>157.0</ele><time>2026-05-04T14:26:38Z</time></trkpt><trkpt lat="45.13062982679712" lon="16.243624505193075"><ele>156.5</ele><time>2026-05-04T14:26:39Z</time></trkpt><trkpt lat="45.130776983200754" lon="16.243310100333918"><ele>156.0</ele><time>2026-05-04T14:26:40Z</time></trkpt><trkpt lat="45.13093340856695" lon="16.242976545254994"><ele>156.0</ele><time>2026-05-04T14:26:41Z</time></trkpt><trkpt lat="45.131085585955766" lon="16.24265020615003"><ele>156.0</ele><time>2026-05-04T14:26:42Z</time></trkpt><trkpt lat="45.13122917121902" lon="16.24234933913858"><ele>155.5</ele><time>2026-05-04T14:26:43Z</time></trkpt><trkpt lat="45.131365654913445" lon="16.242064165187767"><ele>155.0</ele><time>2026-05-04T14:26:44Z</time></trkpt><trkpt lat="45.13150522883303" lon="16.241811663036774"><ele>155.66666666666666</ele><time>2026-05-04T14:26:45Z</time></trkpt><trkpt lat="45.131654674530466" lon="16.24161303139588"><ele>156.33333333333334</ele><time>2026-05-04T14:26:46Z</time></trkpt><trkpt lat="45.13181880381137" lon="16.2414509624254"><ele>157.0</ele><time>2026-05-04T14:26:47Z</time></trkpt><trkpt lat="45.131992964863684" lon="16.241329363208706"><ele>157.0</ele><time>2026-05-04T14:26:48Z</time></trkpt><trkpt lat="45.13219315088866" lon="16.24123844424305"><ele>157.0</ele><time>2026-05-04T14:26:49Z</time></trkpt><trkpt lat="45.13240737845285" lon="16.24117188323491"><ele>157.0</ele><time>2026-05-04T14:26:50Z</time></trkpt><trkpt lat="45.13261787904358" lon="16.24116101819762"><ele>157.66666666666669</ele><time>2026-05-04T14:26:51Z</time></trkpt><trkpt lat="45.13281453597225" lon="16.24120190065629"><ele>158.33333333333334</ele><time>2026-05-04T14:26:52Z</time></trkpt><trkpt lat="45.133001501736885" lon="16.241270431652207"><ele>159.0</ele><time>2026-05-04T14:26:53Z</time></trkpt><trkpt lat="45.13316798431594" lon="16.241349962595198"><ele>159.25</ele><time>2026-05-04T14:26:54Z</time></trkpt><trkpt lat="45.13330642227137" lon="16.241432492637244"><ele>159.5</ele><time>2026-05-04T14:26:55Z</time></trkpt><trkpt lat="45.133445394937986" lon="16.24149997850598"><ele>159.75</ele><time>2026-05-04T14:26:56Z</time></trkpt><trkpt lat="45.13358082496356" lon="16.24150954658711"><ele>160.0</ele><time>2026-05-04T14:26:57Z</time></trkpt><trkpt lat="45.133701350004166" lon="16.241458441663024"><ele>160.0</ele><time>2026-05-04T14:26:58Z</time></trkpt><trkpt lat="45.133844904500826" lon="16.241367174226614"><ele>160.0</ele><time>2026-05-04T14:26:59Z</time></trkpt><trkpt lat="45.13395520080198" lon="16.241249377876848"><ele>160.0</ele><time>2026-05-04T14:27:00Z</time></trkpt><trkpt lat="45.13404875359295" lon="16.24110557264258"><ele>160.0</ele><time>2026-05-04T14:27:01Z</time></trkpt><trkpt lat="45.134130931747855" lon="16.24096511471082"><ele>160.0</ele><time>2026-05-04T14:27:02Z</time></trkpt><trkpt lat="45.134200785793944" lon="16.240846202730744"><ele>160.0</ele><time>2026-05-04T14:27:03Z</time></trkpt><trkpt lat="45.134267370724594" lon="16.240743198831886"><ele>160.0</ele><time>2026-05-04T14:27:04Z</time></trkpt><trkpt lat="45.134334055778" lon="16.24064605477017"><ele>160.0</ele><time>2026-05-04T14:27:05Z</time></trkpt><trkpt lat="45.13439712315716" lon="16.240549346873586"><ele>160.0</ele><time>2026-05-04T14:27:06Z</time></trkpt><trkpt lat="45.13446073827789" lon="16.240449859838375"><ele>159.8</ele><time>2026-05-04T14:27:07Z</time></trkpt><trkpt lat="45.13452290988834" lon="16.240352646456206"><ele>159.6</ele><time>2026-05-04T14:27:08Z</time></trkpt><trkpt lat="45.13458495394554" lon="16.24025189570568"><ele>159.4</ele><time>2026-05-04T14:27:09Z</time></trkpt><trkpt lat="45.13465300174124" lon="16.240146215982"><ele>159.2</ele><time>2026-05-04T14:27:10Z</time></trkpt><trkpt lat="45.1347227702151" lon="16.240040728738993"><ele>159.0</ele><time>2026-05-04T14:27:11Z</time></trkpt><trkpt lat="45.13479891028664" lon="16.23993143471046"><ele>159.0</ele><time>2026-05-04T14:27:12Z</time></trkpt><trkpt lat="45.134873494765145" lon="16.239826025705778"><ele>159.0</ele><time>2026-05-04T14:27:13Z</time></trkpt><trkpt lat="45.134942149908994" lon="16.239725679150006"><ele>159.0</ele><time>2026-05-04T14:27:14Z</time></trkpt><trkpt lat="45.13501442725088" lon="16.239638364187616"><ele>159.0</ele><time>2026-05-04T14:27:15Z</time></trkpt><trkpt lat="45.13509169892923" lon="16.23952574454032"><ele>159.0</ele><time>2026-05-04T14:27:16Z</time></trkpt><trkpt lat="45.13517663801027" lon="16.23940110608151"><ele>159.0</ele><time>2026-05-04T14:27:17Z</time></trkpt><trkpt lat="45.13526606172194" lon="16.239268103483408"><ele>159.0</ele><time>2026-05-04T14:27:18Z</time></trkpt><trkpt lat="45.13535975937104" lon="16.23912436460837"><ele>159.0</ele><time>2026-05-04T14:27:19Z</time></trkpt><trkpt lat="45.13545866043965" lon="16.23896754047454"><ele>159.0</ele><time>2026-05-04T14:27:20Z</time></trkpt><trkpt lat="45.135562165052924" lon="16.238813743144853"><ele>159.0</ele><time>2026-05-04T14:27:21Z</time></trkpt><trkpt lat="45.135669793721995" lon="16.238659182133212"><ele>159.0</ele><time>2026-05-04T14:27:22Z</time></trkpt><trkpt lat="45.1357667189727" lon="16.23851310572195"><ele>159.0</ele><time>2026-05-04T14:27:23Z</time></trkpt><trkpt lat="45.135862873864994" lon="16.238369437404117"><ele>159.0</ele><time>2026-05-04T14:27:24Z</time></trkpt><trkpt lat="45.13595418738067" lon="16.23823629871147"><ele>159.25</ele><time>2026-05-04T14:27:25Z</time></trkpt><trkpt lat="45.13603946537713" lon="16.238108746447995"><ele>159.5</ele><time>2026-05-04T14:27:26Z</time></trkpt><trkpt lat="45.13612042520708" lon="16.23797807613916"><ele>159.75</ele><time>2026-05-04T14:27:27Z</time></trkpt><trkpt lat="45.13619214893922" lon="16.2378670611251"><ele>160.0</ele><time>2026-05-04T14:27:28Z</time></trkpt><trkpt lat="45.13625977112548" lon="16.23776372346021"><ele>160.0</ele><time>2026-05-04T14:27:29Z</time></trkpt><trkpt lat="45.13632615694188" lon="16.23766293834495"><ele>160.0</ele><time>2026-05-04T14:27:30Z</time></trkpt><trkpt lat="45.136390466705045" lon="16.23756386673281"><ele>160.0</ele><time>2026-05-04T14:27:31Z</time></trkpt><trkpt lat="45.13645565161958" lon="16.23745416865041"><ele>160.0</ele><time>2026-05-04T14:27:32Z</time></trkpt><trkpt lat="45.13652109770316" lon="16.237333667799042"><ele>160.0</ele><time>2026-05-04T14:27:33Z</time></trkpt><trkpt lat="45.13658820836521" lon="16.237199367653336"><ele>160.4</ele><time>2026-05-04T14:27:34Z</time></trkpt><trkpt lat="45.1366507045079" lon="16.23706590941014"><ele>160.8</ele><time>2026-05-04T14:27:35Z</time></trkpt><trkpt lat="45.13670448844123" lon="16.236937023267014"><ele>161.2</ele><time>2026-05-04T14:27:36Z</time></trkpt><trkpt lat="45.1367566501637" lon="16.236815391812385"><ele>161.6</ele><time>2026-05-04T14:27:37Z</time></trkpt><trkpt lat="45.136807642564435" lon="16.236694061326485"><ele>162.0</ele><time>2026-05-04T14:27:38Z</time></trkpt><trkpt lat="45.13685913880808" lon="16.23657111004006"><ele>161.6</ele><time>2026-05-04T14:27:39Z</time></trkpt><trkpt lat="45.13690678832563" lon="16.236449664211246"><ele>161.2</ele><time>2026-05-04T14:27:40Z</time></trkpt><trkpt lat="45.13695687901726" lon="16.2363270504349"><ele>160.8</ele><time>2026-05-04T14:27:41Z</time></trkpt><trkpt lat="45.1370070149346" lon="16.236208552125476"><ele>160.4</ele><time>2026-05-04T14:27:42Z</time></trkpt><trkpt lat="45.13705910134581" lon="16.23608934543055"><ele>160.0</ele><time>2026-05-04T14:27:43Z</time></trkpt><trkpt lat="45.137111564021566" lon="16.235963447933074"><ele>160.0</ele><time>2026-05-04T14:27:44Z</time></trkpt><trkpt lat="45.13716255255142" lon="16.23583535376927"><ele>160.0</ele><time>2026-05-04T14:27:45Z</time></trkpt><trkpt lat="45.13721897946393" lon="16.23570475886877"><ele>160.0</ele><time>2026-05-04T14:27:46Z</time></trkpt><trkpt lat="45.137274715751595" lon="16.23556114241192"><ele>160.0</ele><time>2026-05-04T14:27:47Z</time></trkpt><trkpt lat="45.137338709794996" lon="16.23541474288772"><ele>160.0</ele><time>2026-05-04T14:27:48Z</time></trkpt><trkpt lat="45.13740789308291" lon="16.23525296005413"><ele>160.33333333333334</ele><time>2026-05-04T14:27:49Z</time></trkpt><trkpt lat="45.137479651095425" lon="16.23507943389437"><ele>160.66666666666666</ele><time>2026-05-04T14:27:50Z</time></trkpt><trkpt lat="45.1375611138589" lon="16.234897255558277"><ele>161.0</ele><time>2026-05-04T14:27:51Z</time></trkpt><trkpt lat="45.13764274549719" lon="16.234703185225907"><ele>161.0</ele><time>2026-05-04T14:27:52Z</time></trkpt><trkpt lat="45.13772587469621" lon="16.234497292942933"><ele>161.0</ele><time>2026-05-04T14:27:53Z</time></trkpt><trkpt lat="45.137808910203354" lon="16.23427834628731"><ele>161.0</ele><time>2026-05-04T14:27:54Z</time></trkpt><trkpt lat="45.13788293132388" lon="16.234057616774106"><ele>160.66666666666666</ele><time>2026-05-04T14:27:55Z</time></trkpt><trkpt lat="45.137957918327665" lon="16.233826620959462"><ele>160.33333333333334</ele><time>2026-05-04T14:27:56Z</time></trkpt><trkpt lat="45.13802691957192" lon="16.233578737681807"><ele>160.0</ele><time>2026-05-04T14:27:57Z</time></trkpt><trkpt lat="45.13808871455487" lon="16.23331944817144"><ele>161.0</ele><time>2026-05-04T14:27:58Z</time></trkpt><trkpt lat="45.13813935609426" lon="16.233045137881042"><ele>162.0</ele><time>2026-05-04T14:27:59Z</time></trkpt><trkpt lat="45.13817561840831" lon="16.232767287059485"><ele>163.0</ele><time>2026-05-04T14:28:00Z</time></trkpt><trkpt lat="45.138198739331656" lon="16.232493143752663"><ele>163.0</ele><time>2026-05-04T14:28:01Z</time></trkpt><trkpt lat="45.138214469452855" lon="16.232227844600718"><ele>163.0</ele><time>2026-05-04T14:28:02Z</time></trkpt><trkpt lat="45.13822063492244" lon="16.2319532558187"><ele>163.0</ele><time>2026-05-04T14:28:03Z</time></trkpt><trkpt lat="45.13822645199168" lon="16.231674536393424"><ele>163.0</ele><time>2026-05-04T14:28:04Z</time></trkpt><trkpt lat="45.13823060018063" lon="16.231400992960815"><ele>163.0</ele><time>2026-05-04T14:28:05Z</time></trkpt><trkpt lat="45.13823708429575" lon="16.231116489367913"><ele>163.0</ele><time>2026-05-04T14:28:06Z</time></trkpt><trkpt lat="45.13823960430454" lon="16.230828527173724"><ele>162.66666666666669</ele><time>2026-05-04T14:28:07Z</time></trkpt><trkpt lat="45.13824669094003" lon="16.23054482792417"><ele>162.33333333333334</ele><time>2026-05-04T14:28:08Z</time></trkpt><trkpt lat="45.13825513824236" lon="16.23025918220372"><ele>162.0</ele><time>2026-05-04T14:28:09Z</time></trkpt><trkpt lat="45.13826857557769" lon="16.229977558172155"><ele>163.0</ele><time>2026-05-04T14:28:10Z</time></trkpt><trkpt lat="45.1382846318117" lon="16.229694179579294"><ele>164.0</ele><time>2026-05-04T14:28:11Z</time></trkpt><trkpt lat="45.13830114693558" lon="16.22941234146348"><ele>165.0</ele><time>2026-05-04T14:28:12Z</time></trkpt><trkpt lat="45.13832795246685" lon="16.229125313369696"><ele>165.0</ele><time>2026-05-04T14:28:13Z</time></trkpt><trkpt lat="45.13836472984994" lon="16.228846260054596"><ele>165.0</ele><time>2026-05-04T14:28:14Z</time></trkpt><trkpt lat="45.138417035648864" lon="16.228570412855646"><ele>165.0</ele><time>2026-05-04T14:28:15Z</time></trkpt><trkpt lat="45.13847403657441" lon="16.22830284681102"><ele>164.66666666666666</ele><time>2026-05-04T14:28:16Z</time></trkpt><trkpt lat="45.138541443249665" lon="16.228041081424887"><ele>164.33333333333331</ele><time>2026-05-04T14:28:17Z</time></trkpt><trkpt lat="45.13861924486183" lon="16.22778917262456"><ele>164.0</ele><time>2026-05-04T14:28:18Z</time></trkpt><trkpt lat="45.138711587749604" lon="16.227541953980737"><ele>164.0</ele><time>2026-05-04T14:28:19Z</time></trkpt><trkpt lat="45.13881953657647" lon="16.227294185866878"><ele>164.0</ele><time>2026-05-04T14:28:20Z</time></trkpt><trkpt lat="45.13893769169119" lon="16.227026837615067"><ele>164.0</ele><time>2026-05-04T14:28:21Z</time></trkpt><trkpt lat="45.13905365592262" lon="16.22675702335774"><ele>165.5</ele><time>2026-05-04T14:28:22Z</time></trkpt><trkpt lat="45.13917292302704" lon="16.226472507116178"><ele>167.0</ele><time>2026-05-04T14:28:23Z</time></trkpt><trkpt lat="45.13928751718504" lon="16.226176820740218"><ele>167.0</ele><time>2026-05-04T14:28:24Z</time></trkpt><trkpt lat="45.139389991466366" lon="16.225878116289316"><ele>167.0</ele><time>2026-05-04T14:28:25Z</time></trkpt><trkpt lat="45.13948195498668" lon="16.22555737897895"><ele>166.5</ele><time>2026-05-04T14:28:26Z</time></trkpt><trkpt lat="45.1395589622414" lon="16.22523406932047"><ele>166.0</ele><time>2026-05-04T14:28:27Z</time></trkpt><trkpt lat="45.13962977964168" lon="16.22492555206689"><ele>166.0</ele><time>2026-05-04T14:28:28Z</time></trkpt><trkpt lat="45.139700530627785" lon="16.224635508873252"><ele>166.0</ele><time>2026-05-04T14:28:29Z</time></trkpt><trkpt lat="45.139773038746185" lon="16.224340362487638"><ele>166.0</ele><time>2026-05-04T14:28:30Z</time></trkpt><trkpt lat="45.139842241704116" lon="16.224057441558028"><ele>168.0</ele><time>2026-05-04T14:28:31Z</time></trkpt><trkpt lat="45.13990470867443" lon="16.223777286932684"><ele>170.0</ele><time>2026-05-04T14:28:32Z</time></trkpt><trkpt lat="45.13994578659482" lon="16.223528409963244"><ele>172.0</ele><time>2026-05-04T14:28:33Z</time></trkpt><trkpt lat="45.139942416290275" lon="16.22326713888003"><ele>170.33333333333334</ele><time>2026-05-04T14:28:34Z</time></trkpt><trkpt lat="45.139871784239155" lon="16.22300324727395"><ele>168.66666666666666</ele><time>2026-05-04T14:28:35Z</time></trkpt><trkpt lat="45.13975901295591" lon="16.222735083479407"><ele>167.0</ele><time>2026-05-04T14:28:36Z</time></trkpt><trkpt lat="45.13964588725297" lon="16.22246739000819"><ele>166.66666666666666</ele><time>2026-05-04T14:28:37Z</time></trkpt><trkpt lat="45.13955463498637" lon="16.222178805548264"><ele>166.33333333333334</ele><time>2026-05-04T14:28:38Z</time></trkpt><trkpt lat="45.13948411466693" lon="16.221876032498173"><ele>166.0</ele><time>2026-05-04T14:28:39Z</time></trkpt><trkpt lat="45.139420651859595" lon="16.221572219535744"><ele>168.0</ele><time>2026-05-04T14:28:40Z</time></trkpt><trkpt lat="45.139332745780806" lon="16.22127401180427"><ele>170.0</ele><time>2026-05-04T14:28:41Z</time></trkpt><trkpt lat="45.139212748382" lon="16.221002525602763"><ele>170.0</ele><time>2026-05-04T14:28:42Z</time></trkpt><trkpt lat="45.139064493205744" lon="16.22076367565905"><ele>170.0</ele><time>2026-05-04T14:28:43Z</time></trkpt><trkpt lat="45.13889901350723" lon="16.220561030773915"><ele>170.0</ele><time>2026-05-04T14:28:44Z</time></trkpt><trkpt lat="45.138723400868734" lon="16.2204030169268"><ele>169.0</ele><time>2026-05-04T14:28:45Z</time></trkpt><trkpt lat="45.13854968622815" lon="16.220263044351327"><ele>168.0</ele><time>2026-05-04T14:28:46Z</time></trkpt><trkpt lat="45.13839691812541" lon="16.220131545690187"><ele>167.0</ele><time>2026-05-04T14:28:47Z</time></trkpt><trkpt lat="45.13827320985265" lon="16.2199691357717"><ele>170.66666666666666</ele><time>2026-05-04T14:28:48Z</time></trkpt><trkpt lat="45.138168696693505" lon="16.21975889953591"><ele>174.33333333333334</ele><time>2026-05-04T14:28:49Z</time></trkpt><trkpt lat="45.13809187865806" lon="16.219513881091338"><ele>178.0</ele><time>2026-05-04T14:28:50Z</time></trkpt><trkpt lat="45.138019444789904" lon="16.21925012296945"><ele>177.33333333333334</ele><time>2026-05-04T14:28:51Z</time></trkpt><trkpt lat="45.13794281899328" lon="16.218967275462248"><ele>176.66666666666666</ele><time>2026-05-04T14:28:52Z</time></trkpt><trkpt lat="45.13786002070782" lon="16.21867302789636"><ele>176.0</ele><time>2026-05-04T14:28:53Z</time></trkpt><trkpt lat="45.13778096772773" lon="16.218378270100956"><ele>173.0</ele><time>2026-05-04T14:28:54Z</time></trkpt><trkpt lat="45.13771262035028" lon="16.21806931248836"><ele>170.0</ele><time>2026-05-04T14:28:55Z</time></trkpt><trkpt lat="45.137658332338624" lon="16.217753539981075"><ele>170.0</ele><time>2026-05-04T14:28:56Z</time></trkpt><trkpt lat="45.137608649711694" lon="16.217434846125677"><ele>170.0</ele><time>2026-05-04T14:28:57Z</time></trkpt><trkpt lat="45.137549738080466" lon="16.21712197288797"><ele>169.66666666666666</ele><time>2026-05-04T14:28:58Z</time></trkpt><trkpt lat="45.137473586600066" lon="16.216824832749623"><ele>169.33333333333334</ele><time>2026-05-04T14:28:59Z</time></trkpt><trkpt lat="45.137391262353205" lon="16.216547634353102"><ele>169.0</ele><time>2026-05-04T14:29:00Z</time></trkpt><trkpt lat="45.13730295239417" lon="16.216281092867018"><ele>169.0</ele><time>2026-05-04T14:29:01Z</time></trkpt><trkpt lat="45.137215010544885" lon="16.216028508313602"><ele>169.0</ele><time>2026-05-04T14:29:02Z</time></trkpt><trkpt lat="45.137111960226626" lon="16.21579838611894"><ele>169.0</ele><time>2026-05-04T14:29:03Z</time></trkpt><trkpt lat="45.13699285729594" lon="16.215584192590754"><ele>169.0</ele><time>2026-05-04T14:29:04Z</time></trkpt><trkpt lat="45.13685700387417" lon="16.215379443499106"><ele>169.0</ele><time>2026-05-04T14:29:05Z</time></trkpt><trkpt lat="45.13671910563263" lon="16.215177927905717"><ele>169.0</ele><time>2026-05-04T14:29:06Z</time></trkpt><trkpt lat="45.136589511683184" lon="16.2149796114547"><ele>169.33333333333334</ele><time>2026-05-04T14:29:07Z</time></trkpt><trkpt lat="45.136461156129826" lon="16.2147782914787"><ele>169.66666666666666</ele><time>2026-05-04T14:29:08Z</time></trkpt><trkpt lat="45.13633442143132" lon="16.214569214852695"><ele>170.0</ele><time>2026-05-04T14:29:09Z</time></trkpt><trkpt lat="45.13621080933396" lon="16.21436594727976"><ele>170.0</ele><time>2026-05-04T14:29:10Z</time></trkpt><trkpt lat="45.136090152636" lon="16.214166499644328"><ele>170.0</ele><time>2026-05-04T14:29:11Z</time></trkpt><trkpt lat="45.1359742338013" lon="16.213971155542232"><ele>170.0</ele><time>2026-05-04T14:29:12Z</time></trkpt><trkpt lat="45.13587076094792" lon="16.213798489431817"><ele>170.0</ele><time>2026-05-04T14:29:13Z</time></trkpt><trkpt lat="45.13577870485786" lon="16.213642633922777"><ele>170.0</ele><time>2026-05-04T14:29:14Z</time></trkpt><trkpt lat="45.13568854957706" lon="16.213501436159998"><ele>170.0</ele><time>2026-05-04T14:29:15Z</time></trkpt><trkpt lat="45.13559510112552" lon="16.21335132534489"><ele>170.0</ele><time>2026-05-04T14:29:16Z</time></trkpt><trkpt lat="45.13549379968175" lon="16.213187331401613"><ele>170.25</ele><time>2026-05-04T14:29:17Z</time></trkpt><trkpt lat="45.135399017984284" lon="16.213028899307197"><ele>170.5</ele><time>2026-05-04T14:29:18Z</time></trkpt><trkpt lat="45.13532996792609" lon="16.212869576657262"><ele>170.75</ele><time>2026-05-04T14:29:19Z</time></trkpt><trkpt lat="45.13529661147874" lon="16.212688851410164"><ele>171.0</ele><time>2026-05-04T14:29:20Z</time></trkpt><trkpt lat="45.13529906865223" lon="16.212479579140954"><ele>171.0</ele><time>2026-05-04T14:29:21Z</time></trkpt><trkpt lat="45.13532639230236" lon="16.21227838782323"><ele>171.0</ele><time>2026-05-04T14:29:22Z</time></trkpt><trkpt lat="45.1354001715944" lon="16.212080783913557"><ele>171.0</ele><time>2026-05-04T14:29:23Z</time></trkpt><trkpt lat="45.135482139667424" lon="16.211906962853167"><ele>171.0</ele><time>2026-05-04T14:29:24Z</time></trkpt><trkpt lat="45.13556590697681" lon="16.211723103255153"><ele>171.0</ele><time>2026-05-04T14:29:25Z</time></trkpt><trkpt lat="45.135625678250776" lon="16.211516909618144"><ele>171.0</ele><time>2026-05-04T14:29:26Z</time></trkpt><trkpt lat="45.135657846016855" lon="16.211286538368203"><ele>171.0</ele><time>2026-05-04T14:29:27Z</time></trkpt><trkpt lat="45.13566499745155" lon="16.211049348685325"><ele>171.0</ele><time>2026-05-04T14:29:28Z</time></trkpt><trkpt lat="45.13564172849678" lon="16.2108153056054"><ele>171.0</ele><time>2026-05-04T14:29:29Z</time></trkpt><trkpt lat="45.13559060931265" lon="16.210593492245316"><ele>171.0</ele><time>2026-05-04T14:29:30Z</time></trkpt><trkpt lat="45.1355049596578" lon="16.21039141694404"><ele>171.0</ele><time>2026-05-04T14:29:31Z</time></trkpt><trkpt lat="45.13539526979907" lon="16.21021364714744"><ele>171.0</ele><time>2026-05-04T14:29:32Z</time></trkpt><trkpt lat="45.135259672040455" lon="16.21006756614629"><ele>171.0</ele><time>2026-05-04T14:29:33Z</time></trkpt><trkpt lat="45.13511348730158" lon="16.20993632061301"><ele>171.0</ele><time>2026-05-04T14:29:34Z</time></trkpt><trkpt lat="45.134973690727186" lon="16.209810488458867"><ele>171.0</ele><time>2026-05-04T14:29:35Z</time></trkpt><trkpt lat="45.134836275901776" lon="16.209679846857323"><ele>171.33333333333334</ele><time>2026-05-04T14:29:36Z</time></trkpt><trkpt lat="45.13470272943839" lon="16.209538331814933"><ele>171.66666666666669</ele><time>2026-05-04T14:29:37Z</time></trkpt><trkpt lat="45.13457352926589" lon="16.209385341571284"><ele>172.0</ele><time>2026-05-04T14:29:38Z</time></trkpt><trkpt lat="45.134458303220484" lon="16.209235347574793"><ele>172.0</ele><time>2026-05-04T14:29:39Z</time></trkpt><trkpt lat="45.1343552576688" lon="16.209095012511156"><ele>172.0</ele><time>2026-05-04T14:29:40Z</time></trkpt><trkpt lat="45.13425283254137" lon="16.208956388559603"><ele>172.0</ele><time>2026-05-04T14:29:41Z</time></trkpt><trkpt lat="45.13414733441019" lon="16.208813894021045"><ele>172.0</ele><time>2026-05-04T14:29:42Z</time></trkpt><trkpt lat="45.13404477184687" lon="16.208667064952184"><ele>172.25</ele><time>2026-05-04T14:29:43Z</time></trkpt><trkpt lat="45.1339381146849" lon="16.20852576995898"><ele>172.5</ele><time>2026-05-04T14:29:44Z</time></trkpt><trkpt lat="45.13383095351001" lon="16.20837943479568"><ele>172.75</ele><time>2026-05-04T14:29:45Z</time></trkpt><trkpt lat="45.13372673650432" lon="16.20822195981493"><ele>173.0</ele><time>2026-05-04T14:29:46Z</time></trkpt><trkpt lat="45.13362606821577" lon="16.20805405121643"><ele>174.0</ele><time>2026-05-04T14:29:47Z</time></trkpt><trkpt lat="45.133536984015045" lon="16.207871185762237"><ele>175.0</ele><time>2026-05-04T14:29:48Z</time></trkpt><trkpt lat="45.13346041990655" lon="16.20767203718235"><ele>176.0</ele><time>2026-05-04T14:29:49Z</time></trkpt><trkpt lat="45.13339857586816" lon="16.207459062828594"><ele>175.33333333333331</ele><time>2026-05-04T14:29:50Z</time></trkpt><trkpt lat="45.13336038139696" lon="16.20722825815476"><ele>174.66666666666666</ele><time>2026-05-04T14:29:51Z</time></trkpt><trkpt lat="45.13334456072063" lon="16.206992855862794"><ele>174.0</ele><time>2026-05-04T14:29:52Z</time></trkpt><trkpt lat="45.13334803488131" lon="16.206747718563804"><ele>174.0</ele><time>2026-05-04T14:29:53Z</time></trkpt><trkpt lat="45.13335735577044" lon="16.206492360569403"><ele>174.0</ele><time>2026-05-04T14:29:54Z</time></trkpt><trkpt lat="45.133366909250384" lon="16.206226109882124"><ele>174.0</ele><time>2026-05-04T14:29:55Z</time></trkpt><trkpt lat="45.13337635025961" lon="16.205938813153725"><ele>174.0</ele><time>2026-05-04T14:29:56Z</time></trkpt><trkpt lat="45.13339005537973" lon="16.20563680707366"><ele>174.0</ele><time>2026-05-04T14:29:57Z</time></trkpt><trkpt lat="45.133385689419256" lon="16.205342334166946"><ele>174.0</ele><time>2026-05-04T14:29:58Z</time></trkpt><trkpt lat="45.133369222636006" lon="16.205045062775334"><ele>174.33333333333334</ele><time>2026-05-04T14:29:59Z</time></trkpt><trkpt lat="45.133340619671465" lon="16.204744317735887"><ele>174.66666666666669</ele><time>2026-05-04T14:30:00Z</time></trkpt><trkpt lat="45.13330576399347" lon="16.20444681196038"><ele>175.0</ele><time>2026-05-04T14:30:01Z</time></trkpt><trkpt lat="45.133259746010765" lon="16.204145318905034"><ele>176.33333333333334</ele><time>2026-05-04T14:30:02Z</time></trkpt><trkpt lat="45.133197294477085" lon="16.203850732207815"><ele>177.66666666666666</ele><time>2026-05-04T14:30:03Z</time></trkpt><trkpt lat="45.1331244774384" lon="16.203564497897887"><ele>179.0</ele><time>2026-05-04T14:30:04Z</time></trkpt><trkpt lat="45.13304576087069" lon="16.203273528501015"><ele>178.0</ele><time>2026-05-04T14:30:05Z</time></trkpt><trkpt lat="45.13297369225991" lon="16.203008790204183"><ele>177.0</ele><time>2026-05-04T14:30:06Z</time></trkpt><trkpt lat="45.13290333181308" lon="16.20275268236604"><ele>176.0</ele><time>2026-05-04T14:30:07Z</time></trkpt><trkpt lat="45.13283450385772" lon="16.202495869310486"><ele>176.66666666666666</ele><time>2026-05-04T14:30:08Z</time></trkpt><trkpt lat="45.13276418314442" lon="16.202242005505685"><ele>177.33333333333334</ele><time>2026-05-04T14:30:09Z</time></trkpt><trkpt lat="45.13269599155782" lon="16.20199283905878"><ele>178.0</ele><time>2026-05-04T14:30:10Z</time></trkpt><trkpt lat="45.132627039288906" lon="16.20174581095501"><ele>178.0</ele><time>2026-05-04T14:30:11Z</time></trkpt><trkpt lat="45.13256276742303" lon="16.201522056582306"><ele>178.0</ele><time>2026-05-04T14:30:12Z</time></trkpt><trkpt lat="45.13249388771941" lon="16.201301452205666"><ele>178.0</ele><time>2026-05-04T14:30:13Z</time></trkpt><trkpt lat="45.13240490969281" lon="16.201110268350213"><ele>178.0</ele><time>2026-05-04T14:30:14Z</time></trkpt><trkpt lat="45.13229428289042" lon="16.200953908095403"><ele>178.0</ele><time>2026-05-04T14:30:15Z</time></trkpt><trkpt lat="45.132171335811975" lon="16.200813483421847"><ele>178.0</ele><time>2026-05-04T14:30:16Z</time></trkpt><trkpt lat="45.13206013335501" lon="16.200659633087934"><ele>178.0</ele><time>2026-05-04T14:30:17Z</time></trkpt><trkpt lat="45.131973049883" lon="16.200488313247188"><ele>178.0</ele><time>2026-05-04T14:30:18Z</time></trkpt><trkpt lat="45.13190509314389" lon="16.20031327903784"><ele>178.0</ele><time>2026-05-04T14:30:19Z</time></trkpt><trkpt lat="45.13184881876404" lon="16.200124155403305"><ele>178.0</ele><time>2026-05-04T14:30:20Z</time></trkpt><trkpt lat="45.13182093573891" lon="16.19992277876804"><ele>177.75</ele><time>2026-05-04T14:30:21Z</time></trkpt><trkpt lat="45.13181674679518" lon="16.199718211344432"><ele>177.5</ele><time>2026-05-04T14:30:22Z</time></trkpt><trkpt lat="45.13184176872352" lon="16.199515750321954"><ele>177.25</ele><time>2026-05-04T14:30:23Z</time></trkpt><trkpt lat="45.13189796110922" lon="16.19931877452818"><ele>177.0</ele><time>2026-05-04T14:30:24Z</time></trkpt><trkpt lat="45.13199154595989" lon="16.199162751974267"><ele>177.0</ele><time>2026-05-04T14:30:25Z</time></trkpt><trkpt lat="45.132097217414454" lon="16.199017908659272"><ele>177.0</ele><time>2026-05-04T14:30:26Z</time></trkpt><trkpt lat="45.132198496934784" lon="16.198864584617123"><ele>177.0</ele><time>2026-05-04T14:30:27Z</time></trkpt><trkpt lat="45.13227566370557" lon="16.198670455173083"><ele>176.33333333333334</ele><time>2026-05-04T14:30:28Z</time></trkpt><trkpt lat="45.13233164193539" lon="16.198457752817305"><ele>175.66666666666669</ele><time>2026-05-04T14:30:29Z</time></trkpt><trkpt lat="45.132383900129334" lon="16.198237082412952"><ele>175.0</ele><time>2026-05-04T14:30:30Z</time></trkpt><trkpt lat="45.13243438865589" lon="16.198023564460698"><ele>177.33333333333334</ele><time>2026-05-04T14:30:31Z</time></trkpt><trkpt lat="45.13248781371883" lon="16.197820693721482"><ele>179.66666666666666</ele><time>2026-05-04T14:30:32Z</time></trkpt><trkpt lat="45.13254194740368" lon="16.197611269721573"><ele>182.0</ele><time>2026-05-04T14:30:33Z</time></trkpt><trkpt lat="45.13259361045898" lon="16.197391192853054"><ele>181.33333333333331</ele><time>2026-05-04T14:30:34Z</time></trkpt><trkpt lat="45.13263724556512" lon="16.19716525673449"><ele>180.66666666666666</ele><time>2026-05-04T14:30:35Z</time></trkpt><trkpt lat="45.13266929773648" lon="16.196938850483267"><ele>180.0</ele><time>2026-05-04T14:30:36Z</time></trkpt><trkpt lat="45.132688462397304" lon="16.19670612830509"><ele>180.33333333333334</ele><time>2026-05-04T14:30:37Z</time></trkpt><trkpt lat="45.13268833466976" lon="16.19646716668733"><ele>180.66666666666669</ele><time>2026-05-04T14:30:38Z</time></trkpt><trkpt lat="45.1326728076129" lon="16.196228685560254"><ele>181.0</ele><time>2026-05-04T14:30:39Z</time></trkpt><trkpt lat="45.13267419684431" lon="16.19599212991365"><ele>181.0</ele><time>2026-05-04T14:30:40Z</time></trkpt><trkpt lat="45.132640431240546" lon="16.195754999139528"><ele>181.0</ele><time>2026-05-04T14:30:41Z</time></trkpt><trkpt lat="45.13262023772485" lon="16.195508914558896"><ele>181.0</ele><time>2026-05-04T14:30:42Z</time></trkpt><trkpt lat="45.132595833697366" lon="16.195259340564494"><ele>182.0</ele><time>2026-05-04T14:30:43Z</time></trkpt><trkpt lat="45.13257692812202" lon="16.195005946002585"><ele>183.0</ele><time>2026-05-04T14:30:44Z</time></trkpt><trkpt lat="45.13257945463617" lon="16.19473988959546"><ele>184.0</ele><time>2026-05-04T14:30:45Z</time></trkpt><trkpt lat="45.13255655675561" lon="16.194483211247487"><ele>184.0</ele><time>2026-05-04T14:30:46Z</time></trkpt><trkpt lat="45.132577014100576" lon="16.194236331678287"><ele>184.0</ele><time>2026-05-04T14:30:47Z</time></trkpt><trkpt lat="45.13259829248222" lon="16.193993180118515"><ele>184.0</ele><time>2026-05-04T14:30:48Z</time></trkpt><trkpt lat="45.132635124296826" lon="16.193743584592692"><ele>184.0</ele><time>2026-05-04T14:30:49Z</time></trkpt><trkpt lat="45.13268306143055" lon="16.19348886271019"><ele>184.0</ele><time>2026-05-04T14:30:50Z</time></trkpt><trkpt lat="45.13273988251785" lon="16.193235490583472"><ele>184.0</ele><time>2026-05-04T14:30:51Z</time></trkpt><trkpt lat="45.1327965418223" lon="16.192985994631925"><ele>183.66666666666669</ele><time>2026-05-04T14:30:52Z</time></trkpt><trkpt lat="45.13285398775901" lon="16.192741702074088"><ele>183.33333333333334</ele><time>2026-05-04T14:30:53Z</time></trkpt><trkpt lat="45.132897993951275" lon="16.192489764691917"><ele>183.0</ele><time>2026-05-04T14:30:54Z</time></trkpt><trkpt lat="45.13290099699046" lon="16.192221689272316"><ele>182.66666666666666</ele><time>2026-05-04T14:30:55Z</time></trkpt><trkpt lat="45.132899867514325" lon="16.191954810573705"><ele>182.33333333333331</ele><time>2026-05-04T14:30:56Z</time></trkpt><trkpt lat="45.132880189246556" lon="16.19167958756168"><ele>182.0</ele><time>2026-05-04T14:30:57Z</time></trkpt><trkpt lat="45.13285292944139" lon="16.191409779257466"><ele>182.0</ele><time>2026-05-04T14:30:58Z</time></trkpt><trkpt lat="45.132837579500354" lon="16.191135028673816"><ele>182.0</ele><time>2026-05-04T14:30:59Z</time></trkpt><trkpt lat="45.13280909386473" lon="16.190861260600432"><ele>182.0</ele><time>2026-05-04T14:31:00Z</time></trkpt><trkpt lat="45.13276678921238" lon="16.19060807485117"><ele>182.66666666666666</ele><time>2026-05-04T14:31:01Z</time></trkpt><trkpt lat="45.13274281811099" lon="16.190350674942323"><ele>183.33333333333334</ele><time>2026-05-04T14:31:02Z</time></trkpt><trkpt lat="45.13271854819394" lon="16.190094944879906"><ele>184.0</ele><time>2026-05-04T14:31:03Z</time></trkpt><trkpt lat="45.13269632931396" lon="16.18983953487046"><ele>184.33333333333334</ele><time>2026-05-04T14:31:04Z</time></trkpt><trkpt lat="45.132678453068195" lon="16.189591753648934"><ele>184.66666666666666</ele><time>2026-05-04T14:31:05Z</time></trkpt><trkpt lat="45.1326630951543" lon="16.189353246236607"><ele>185.0</ele><time>2026-05-04T14:31:06Z</time></trkpt><trkpt lat="45.13264844235513" lon="16.189113688830403"><ele>185.66666666666666</ele><time>2026-05-04T14:31:07Z</time></trkpt><trkpt lat="45.132636968114554" lon="16.188874867131556"><ele>186.33333333333334</ele><time>2026-05-04T14:31:08Z</time></trkpt><trkpt lat="45.13262678392798" lon="16.188640415943183"><ele>187.0</ele><time>2026-05-04T14:31:09Z</time></trkpt><trkpt lat="45.13262297678559" lon="16.188417267452888"><ele>187.0</ele><time>2026-05-04T14:31:10Z</time></trkpt><trkpt lat="45.13263647658153" lon="16.188208608957353"><ele>187.0</ele><time>2026-05-04T14:31:11Z</time></trkpt><trkpt lat="45.13269377290696" lon="16.18803662581218"><ele>187.0</ele><time>2026-05-04T14:31:12Z</time></trkpt><trkpt lat="45.13275193843259" lon="16.18787767396583"><ele>187.0</ele><time>2026-05-04T14:31:13Z</time></trkpt><trkpt lat="45.132839485797774" lon="16.187747129593404"><ele>187.33333333333334</ele><time>2026-05-04T14:31:14Z</time></trkpt><trkpt lat="45.132949377580594" lon="16.18762695192802"><ele>187.66666666666666</ele><time>2026-05-04T14:31:15Z</time></trkpt><trkpt lat="45.133062785550706" lon="16.187484994009665"><ele>188.0</ele><time>2026-05-04T14:31:16Z</time></trkpt><trkpt lat="45.13319822010458" lon="16.18735202945488"><ele>188.33333333333331</ele><time>2026-05-04T14:31:17Z</time></trkpt><trkpt lat="45.133334099790964" lon="16.187198051328256"><ele>188.66666666666666</ele><time>2026-05-04T14:31:18Z</time></trkpt><trkpt lat="45.133474919190554" lon="16.187022771400486"><ele>189.0</ele><time>2026-05-04T14:31:19Z</time></trkpt><trkpt lat="45.133603785307585" lon="16.186819838010937"><ele>189.0</ele><time>2026-05-04T14:31:20Z</time></trkpt><trkpt lat="45.13373284719203" lon="16.186604456666917"><ele>189.0</ele><time>2026-05-04T14:31:21Z</time></trkpt><trkpt lat="45.13384972701165" lon="16.186400989825483"><ele>189.0</ele><time>2026-05-04T14:31:22Z</time></trkpt><trkpt lat="45.13395960034168" lon="16.186213747185743"><ele>189.0</ele><time>2026-05-04T14:31:23Z</time></trkpt><trkpt lat="45.134059318299535" lon="16.186044895180103"><ele>189.0</ele><time>2026-05-04T14:31:24Z</time></trkpt><trkpt lat="45.13414906539901" lon="16.185887935859306"><ele>189.0</ele><time>2026-05-04T14:31:25Z</time></trkpt><trkpt lat="45.134242804127624" lon="16.185764174493155"><ele>189.0</ele><time>2026-05-04T14:31:26Z</time></trkpt><trkpt lat="45.13431467959211" lon="16.18561821220878"><ele>189.0</ele><time>2026-05-04T14:31:27Z</time></trkpt><trkpt lat="45.134392875482376" lon="16.185501716004005"><ele>189.0</ele><time>2026-05-04T14:31:28Z</time></trkpt><trkpt lat="45.13447091268312" lon="16.185383787455372"><ele>189.0</ele><time>2026-05-04T14:31:29Z</time></trkpt><trkpt lat="45.13454159407774" lon="16.185268382214524"><ele>189.0</ele><time>2026-05-04T14:31:30Z</time></trkpt><trkpt lat="45.134606123028234" lon="16.1851637500822"><ele>189.0</ele><time>2026-05-04T14:31:31Z</time></trkpt><trkpt lat="45.13466694220909" lon="16.18507229673171"><ele>189.0</ele><time>2026-05-04T14:31:32Z</time></trkpt><trkpt lat="45.13471645952244" lon="16.184995899882402"><ele>189.0</ele><time>2026-05-04T14:31:33Z</time></trkpt><trkpt lat="45.13476523157218" lon="16.18491947257664"><ele>189.0</ele><time>2026-05-04T14:31:35Z</time></trkpt><trkpt lat="45.1348784395807" lon="16.184736818015153"><ele>189.0</ele><time>2026-05-04T14:32:42Z</time></trkpt><trkpt lat="45.13489439286132" lon="16.18464818508165"><ele>189.0</ele><time>2026-05-04T14:32:43Z</time></trkpt><trkpt lat="45.134926687657746" lon="16.18447345185818"><ele>190.33333333333331</ele><time>2026-05-04T14:32:44Z</time></trkpt><trkpt lat="45.134987873534946" lon="16.18429077032822"><ele>191.66666666666666</ele><time>2026-05-04T14:32:45Z</time></trkpt><trkpt lat="45.135038479969616" lon="16.18408450081248"><ele>193.0</ele><time>2026-05-04T14:32:46Z</time></trkpt><trkpt lat="45.13503791788257" lon="16.183842015455927"><ele>193.0</ele><time>2026-05-04T14:32:47Z</time></trkpt><trkpt lat="45.135073227130924" lon="16.183606347048197"><ele>193.0</ele><time>2026-05-04T14:32:48Z</time></trkpt><trkpt lat="45.13511233149853" lon="16.18336320236948"><ele>193.0</ele><time>2026-05-04T14:32:49Z</time></trkpt><trkpt lat="45.13515372810245" lon="16.18311228696484"><ele>192.66666666666666</ele><time>2026-05-04T14:32:50Z</time></trkpt><trkpt lat="45.135187261807125" lon="16.1828537221749"><ele>192.33333333333331</ele><time>2026-05-04T14:32:51Z</time></trkpt><trkpt lat="45.13521512784642" lon="16.182597129626892"><ele>192.0</ele><time>2026-05-04T14:32:52Z</time></trkpt><trkpt lat="45.1352258431689" lon="16.182338986825535"><ele>191.0</ele><time>2026-05-04T14:32:53Z</time></trkpt><trkpt lat="45.13523092117272" lon="16.18208586216278"><ele>190.0</ele><time>2026-05-04T14:32:54Z</time></trkpt><trkpt lat="45.13525321529996" lon="16.18184867461294"><ele>189.0</ele><time>2026-05-04T14:32:55Z</time></trkpt><trkpt lat="45.13530946244265" lon="16.18162864775949"><ele>188.66666666666666</ele><time>2026-05-04T14:32:56Z</time></trkpt><trkpt lat="45.13541046537326" lon="16.18142825300724"><ele>188.33333333333331</ele><time>2026-05-04T14:32:57Z</time></trkpt><trkpt lat="45.135542073709466" lon="16.181252215429623"><ele>188.0</ele><time>2026-05-04T14:32:58Z</time></trkpt><trkpt lat="45.135695530569286" lon="16.181093277236677"><ele>189.33333333333331</ele><time>2026-05-04T14:32:59Z</time></trkpt><trkpt lat="45.13584507352221" lon="16.18092653491036"><ele>190.66666666666666</ele><time>2026-05-04T14:33:00Z</time></trkpt><trkpt lat="45.13597186632202" lon="16.180743597093024"><ele>192.0</ele><time>2026-05-04T14:33:01Z</time></trkpt><trkpt lat="45.136061675348465" lon="16.180547244782293"><ele>192.0</ele><time>2026-05-04T14:33:02Z</time></trkpt><trkpt lat="45.136108793998396" lon="16.18033331458886"><ele>192.0</ele><time>2026-05-04T14:33:03Z</time></trkpt><trkpt lat="45.13611455861898" lon="16.1801064237273"><ele>192.0</ele><time>2026-05-04T14:33:04Z</time></trkpt><trkpt lat="45.13609013230701" lon="16.179858492166044"><ele>191.0</ele><time>2026-05-04T14:33:05Z</time></trkpt><trkpt lat="45.13602300252398" lon="16.179598120039394"><ele>190.0</ele><time>2026-05-04T14:33:06Z</time></trkpt><trkpt lat="45.13598407552347" lon="16.179342689593128"><ele>189.0</ele><time>2026-05-04T14:33:07Z</time></trkpt><trkpt lat="45.13596189436951" lon="16.17908559231056"><ele>189.33333333333334</ele><time>2026-05-04T14:33:08Z</time></trkpt><trkpt lat="45.135951881567664" lon="16.178812072265064"><ele>189.66666666666669</ele><time>2026-05-04T14:33:09Z</time></trkpt><trkpt lat="45.135974121212705" lon="16.17854770979464"><ele>190.0</ele><time>2026-05-04T14:33:10Z</time></trkpt><trkpt lat="45.13603482262717" lon="16.17827854425752"><ele>191.66666666666669</ele><time>2026-05-04T14:33:11Z</time></trkpt><trkpt lat="45.136100650840554" lon="16.17801169673359"><ele>193.33333333333334</ele><time>2026-05-04T14:33:12Z</time></trkpt><trkpt lat="45.1361709633171" lon="16.17773957346492"><ele>195.0</ele><time>2026-05-04T14:33:13Z</time></trkpt><trkpt lat="45.136235385950876" lon="16.177461023901248"><ele>196.66666666666669</ele><time>2026-05-04T14:33:14Z</time></trkpt><trkpt lat="45.136295116475594" lon="16.177176774421678"><ele>198.33333333333334</ele><time>2026-05-04T14:33:15Z</time></trkpt><trkpt lat="45.136348359812146" lon="16.17689655921227"><ele>200.0</ele><time>2026-05-04T14:33:16Z</time></trkpt><trkpt lat="45.136382479159494" lon="16.176628621938754"><ele>198.33333333333334</ele><time>2026-05-04T14:33:17Z</time></trkpt><trkpt lat="45.13642377108812" lon="16.17639539535494"><ele>196.66666666666669</ele><time>2026-05-04T14:33:18Z</time></trkpt><trkpt lat="45.13649333097242" lon="16.17619388646565"><ele>195.0</ele><time>2026-05-04T14:33:19Z</time></trkpt><trkpt lat="45.136592686853525" lon="16.176009905039727"><ele>195.0</ele><time>2026-05-04T14:33:20Z</time></trkpt><trkpt lat="45.136722278814" lon="16.17586810520749"><ele>195.0</ele><time>2026-05-04T14:33:21Z</time></trkpt><trkpt lat="45.13685854951796" lon="16.175743938078366"><ele>195.0</ele><time>2026-05-04T14:33:22Z</time></trkpt><trkpt lat="45.1369868203665" lon="16.17561878775127"><ele>195.0</ele><time>2026-05-04T14:33:23Z</time></trkpt><trkpt lat="45.13709808962974" lon="16.17546084688729"><ele>195.0</ele><time>2026-05-04T14:33:24Z</time></trkpt><trkpt lat="45.137173550340336" lon="16.17525514037967"><ele>195.0</ele><time>2026-05-04T14:33:25Z</time></trkpt><trkpt lat="45.13720820563254" lon="16.175037372632556"><ele>195.5</ele><time>2026-05-04T14:33:26Z</time></trkpt><trkpt lat="45.137191538630546" lon="16.174841590285624"><ele>196.0</ele><time>2026-05-04T14:33:27Z</time></trkpt><trkpt lat="45.137141383649634" lon="16.174656998583814"><ele>196.5</ele><time>2026-05-04T14:33:28Z</time></trkpt><trkpt lat="45.13706356683365" lon="16.17448199431872"><ele>197.0</ele><time>2026-05-04T14:33:29Z</time></trkpt><trkpt lat="45.136961440879354" lon="16.174326300494094"><ele>197.0</ele><time>2026-05-04T14:33:30Z</time></trkpt><trkpt lat="45.1368550598046" lon="16.17417722989801"><ele>197.0</ele><time>2026-05-04T14:33:31Z</time></trkpt><trkpt lat="45.13677142767196" lon="16.173998942059054"><ele>197.0</ele><time>2026-05-04T14:33:32Z</time></trkpt><trkpt lat="45.136727395784355" lon="16.17381729659867"><ele>197.0</ele><time>2026-05-04T14:33:33Z</time></trkpt><trkpt lat="45.136716043942855" lon="16.173621721873324"><ele>197.0</ele><time>2026-05-04T14:33:34Z</time></trkpt><trkpt lat="45.13673329827355" lon="16.173417162538833"><ele>197.0</ele><time>2026-05-04T14:33:35Z</time></trkpt><trkpt lat="45.13676587918945" lon="16.1732087518421"><ele>197.0</ele><time>2026-05-04T14:33:36Z</time></trkpt><trkpt lat="45.13679900853214" lon="16.172968786913096"><ele>197.0</ele><time>2026-05-04T14:33:37Z</time></trkpt><trkpt lat="45.136826602726" lon="16.17270258773841"><ele>197.0</ele><time>2026-05-04T14:33:38Z</time></trkpt><trkpt lat="45.13685291232243" lon="16.17242006815911"><ele>197.0</ele><time>2026-05-04T14:33:39Z</time></trkpt><trkpt lat="45.1368842294095" lon="16.172128271912186"><ele>197.0</ele><time>2026-05-04T14:33:40Z</time></trkpt><trkpt lat="45.13692316251517" lon="16.171831210321415"><ele>197.0</ele><time>2026-05-04T14:33:41Z</time></trkpt><trkpt lat="45.1369684143262" lon="16.171550400073855"><ele>197.0</ele><time>2026-05-04T14:33:42Z</time></trkpt><trkpt lat="45.1370227835695" lon="16.171308423810334"><ele>196.33333333333334</ele><time>2026-05-04T14:33:43Z</time></trkpt><trkpt lat="45.13711050906745" lon="16.17108347144498"><ele>195.66666666666669</ele><time>2026-05-04T14:33:44Z</time></trkpt><trkpt lat="45.13722901700645" lon="16.170893500055907"><ele>195.0</ele><time>2026-05-04T14:33:45Z</time></trkpt><trkpt lat="45.13737707135684" lon="16.17069587551764"><ele>195.0</ele><time>2026-05-04T14:33:46Z</time></trkpt><trkpt lat="45.13753495060038" lon="16.17049707199828"><ele>195.0</ele><time>2026-05-04T14:33:47Z</time></trkpt><trkpt lat="45.13769542972181" lon="16.17029845747706"><ele>195.0</ele><time>2026-05-04T14:33:48Z</time></trkpt><trkpt lat="45.137859927656535" lon="16.170096792495272"><ele>195.0</ele><time>2026-05-04T14:33:49Z</time></trkpt><trkpt lat="45.13802211617459" lon="16.169894630348935"><ele>195.0</ele><time>2026-05-04T14:33:50Z</time></trkpt><trkpt lat="45.13817718959047" lon="16.169697362395333"><ele>195.0</ele><time>2026-05-04T14:33:51Z</time></trkpt><trkpt lat="45.1383294904446" lon="16.169495292106568"><ele>195.33333333333331</ele><time>2026-05-04T14:33:52Z</time></trkpt><trkpt lat="45.138471560095255" lon="16.169299540851593"><ele>195.66666666666666</ele><time>2026-05-04T14:33:53Z</time></trkpt><trkpt lat="45.13861328750143" lon="16.169107842701813"><ele>196.0</ele><time>2026-05-04T14:33:54Z</time></trkpt><trkpt lat="45.13876098781264" lon="16.1689072645551"><ele>196.0</ele><time>2026-05-04T14:33:55Z</time></trkpt><trkpt lat="45.13890784927544" lon="16.16870128907414"><ele>196.0</ele><time>2026-05-04T14:33:56Z</time></trkpt><trkpt lat="45.139056486598136" lon="16.168488124132118"><ele>196.0</ele><time>2026-05-04T14:33:57Z</time></trkpt><trkpt lat="45.139201076814594" lon="16.16826812886533"><ele>196.66666666666666</ele><time>2026-05-04T14:33:58Z</time></trkpt><trkpt lat="45.139326078867335" lon="16.16804024698368"><ele>197.33333333333331</ele><time>2026-05-04T14:33:59Z</time></trkpt><trkpt lat="45.139420886277" lon="16.167778251668498"><ele>198.0</ele><time>2026-05-04T14:34:00Z</time></trkpt><trkpt lat="45.13947244507569" lon="16.16749086839001"><ele>197.66666666666669</ele><time>2026-05-04T14:34:01Z</time></trkpt><trkpt lat="45.139479594600765" lon="16.16719739523226"><ele>197.33333333333334</ele><time>2026-05-04T14:34:02Z</time></trkpt><trkpt lat="45.139469932759084" lon="16.166926121631363"><ele>197.0</ele><time>2026-05-04T14:34:03Z</time></trkpt><trkpt lat="45.13947520641152" lon="16.166684459286955"><ele>196.33333333333334</ele><time>2026-05-04T14:34:04Z</time></trkpt><trkpt lat="45.139508912590806" lon="16.166467316890987"><ele>195.66666666666669</ele><time>2026-05-04T14:34:05Z</time></trkpt><trkpt lat="45.13958154547043" lon="16.166264047929015"><ele>195.0</ele><time>2026-05-04T14:34:06Z</time></trkpt><trkpt lat="45.139687640729" lon="16.166069884160077"><ele>195.0</ele><time>2026-05-04T14:34:07Z</time></trkpt><trkpt lat="45.139796238273355" lon="16.165859716939945"><ele>195.0</ele><time>2026-05-04T14:34:08Z</time></trkpt><trkpt lat="45.13989937389539" lon="16.16565257970417"><ele>195.0</ele><time>2026-05-04T14:34:09Z</time></trkpt><trkpt lat="45.14000151052996" lon="16.16545651067449"><ele>195.0</ele><time>2026-05-04T14:34:10Z</time></trkpt><trkpt lat="45.140106578538145" lon="16.165259383876815"><ele>195.0</ele><time>2026-05-04T14:34:11Z</time></trkpt><trkpt lat="45.14021655678329" lon="16.165061453977703"><ele>195.0</ele><time>2026-05-04T14:34:12Z</time></trkpt><trkpt lat="45.14033622957624" lon="16.164835484131128"><ele>195.0</ele><time>2026-05-04T14:34:13Z</time></trkpt><trkpt lat="45.14044965072316" lon="16.164603171294555"><ele>195.0</ele><time>2026-05-04T14:34:14Z</time></trkpt><trkpt lat="45.14056704587875" lon="16.16436002811208"><ele>195.0</ele><time>2026-05-04T14:34:15Z</time></trkpt><trkpt lat="45.14067065591332" lon="16.16409969141635"><ele>197.0</ele><time>2026-05-04T14:34:16Z</time></trkpt><trkpt lat="45.14075035265192" lon="16.163820706999328"><ele>199.0</ele><time>2026-05-04T14:34:17Z</time></trkpt><trkpt lat="45.140801119351956" lon="16.163558201064358"><ele>201.0</ele><time>2026-05-04T14:34:18Z</time></trkpt><trkpt lat="45.14083596552929" lon="16.1633231904057"><ele>200.75</ele><time>2026-05-04T14:34:19Z</time></trkpt><trkpt lat="45.14088207301007" lon="16.163114511114422"><ele>200.5</ele><time>2026-05-04T14:34:20Z</time></trkpt><trkpt lat="45.14094803749453" lon="16.16294068346596"><ele>200.25</ele><time>2026-05-04T14:34:21Z</time></trkpt><trkpt lat="45.14104050666781" lon="16.162805541086968"><ele>200.0</ele><time>2026-05-04T14:34:22Z</time></trkpt><trkpt lat="45.14115658551964" lon="16.16273612790147"><ele>200.0</ele><time>2026-05-04T14:34:23Z</time></trkpt><trkpt lat="45.14130003939139" lon="16.162706636158934"><ele>200.0</ele><time>2026-05-04T14:34:24Z</time></trkpt><trkpt lat="45.141453257125825" lon="16.16268794523774"><ele>200.0</ele><time>2026-05-04T14:34:25Z</time></trkpt><trkpt lat="45.14162051451681" lon="16.16267203113857"><ele>202.0</ele><time>2026-05-04T14:34:26Z</time></trkpt><trkpt lat="45.14179305937911" lon="16.162664964743843"><ele>204.0</ele><time>2026-05-04T14:34:27Z</time></trkpt><trkpt lat="45.14196967115416" lon="16.162676158077822"><ele>206.0</ele><time>2026-05-04T14:34:28Z</time></trkpt><trkpt lat="45.142155362495615" lon="16.162683130396523"><ele>206.0</ele><time>2026-05-04T14:34:29Z</time></trkpt><trkpt lat="45.14234520617796" lon="16.162668105403345"><ele>206.0</ele><time>2026-05-04T14:34:30Z</time></trkpt><trkpt lat="45.14252285441474" lon="16.162640454750264"><ele>206.0</ele><time>2026-05-04T14:34:31Z</time></trkpt><trkpt lat="45.14268939256567" lon="16.16260915832232"><ele>206.33333333333334</ele><time>2026-05-04T14:34:32Z</time></trkpt><trkpt lat="45.1428463129361" lon="16.16256917038827"><ele>206.66666666666669</ele><time>2026-05-04T14:34:33Z</time></trkpt><trkpt lat="45.142989165385494" lon="16.162518408581544"><ele>207.0</ele><time>2026-05-04T14:34:34Z</time></trkpt><trkpt lat="45.14312119778993" lon="16.16243396700891"><ele>207.0</ele><time>2026-05-04T14:34:35Z</time></trkpt><trkpt lat="45.14323744891479" lon="16.162291846454018"><ele>207.0</ele><time>2026-05-04T14:34:36Z</time></trkpt><trkpt lat="45.14331088453379" lon="16.16209102903712"><ele>207.0</ele><time>2026-05-04T14:34:37Z</time></trkpt><trkpt lat="45.143328480326" lon="16.16187896664874"><ele>207.0</ele><time>2026-05-04T14:34:38Z</time></trkpt><trkpt lat="45.143303393788" lon="16.161672378615826"><ele>207.0</ele><time>2026-05-04T14:34:39Z</time></trkpt><trkpt lat="45.1432455020657" lon="16.16149629952868"><ele>207.0</ele><time>2026-05-04T14:34:40Z</time></trkpt><trkpt lat="45.143146706268915" lon="16.161360067592824"><ele>207.0</ele><time>2026-05-04T14:34:41Z</time></trkpt><trkpt lat="45.14302262251414" lon="16.161254445269766"><ele>209.0</ele><time>2026-05-04T14:34:42Z</time></trkpt><trkpt lat="45.1428673041468" lon="16.16118621969838"><ele>211.0</ele><time>2026-05-04T14:34:43Z</time></trkpt><trkpt lat="45.14269558749463" lon="16.161114076804317"><ele>213.0</ele><time>2026-05-04T14:34:44Z</time></trkpt><trkpt lat="45.14252910945261" lon="16.160986621772704"><ele>211.0</ele><time>2026-05-04T14:34:45Z</time></trkpt><trkpt lat="45.14238018281859" lon="16.16082226008699"><ele>209.0</ele><time>2026-05-04T14:34:46Z</time></trkpt><trkpt lat="45.14224821167535" lon="16.1606488085559"><ele>207.0</ele><time>2026-05-04T14:34:47Z</time></trkpt><trkpt lat="45.14213630908349" lon="16.160476250814924"><ele>207.0</ele><time>2026-05-04T14:34:48Z</time></trkpt><trkpt lat="45.142058280052495" lon="16.16027132574574"><ele>207.0</ele><time>2026-05-04T14:34:49Z</time></trkpt><trkpt lat="45.14201771669047" lon="16.160053036826056"><ele>207.0</ele><time>2026-05-04T14:34:50Z</time></trkpt><trkpt lat="45.14199861436952" lon="16.159872657296038"><ele>206.39999999999998</ele><time>2026-05-04T14:34:51Z</time></trkpt><trkpt lat="45.14201292372658" lon="16.159736773126856"><ele>205.79999999999998</ele><time>2026-05-04T14:34:52Z</time></trkpt><trkpt lat="45.14207761635732" lon="16.15965899696396"><ele>205.2</ele><time>2026-05-04T14:34:53Z</time></trkpt><trkpt lat="45.14216757184278" lon="16.15963092841572"><ele>204.6</ele><time>2026-05-04T14:34:54Z</time></trkpt><trkpt lat="45.14226743711441" lon="16.159672235170643"><ele>204.0</ele><time>2026-05-04T14:34:55Z</time></trkpt><trkpt lat="45.142365398017105" lon="16.159775183461885"><ele>206.75</ele><time>2026-05-04T14:34:56Z</time></trkpt><trkpt lat="45.14245831522211" lon="16.159918878471093"><ele>209.5</ele><time>2026-05-04T14:34:57Z</time></trkpt><trkpt lat="45.14255909247397" lon="16.160071685278076"><ele>212.25</ele><time>2026-05-04T14:34:58Z</time></trkpt><trkpt lat="45.14267107144826" lon="16.160193769940854"><ele>215.0</ele><time>2026-05-04T14:34:59Z</time></trkpt><trkpt lat="45.14279762033709" lon="16.16027463739727"><ele>215.0</ele><time>2026-05-04T14:35:00Z</time></trkpt><trkpt lat="45.14293376295774" lon="16.160299826700523"><ele>215.0</ele><time>2026-05-04T14:35:01Z</time></trkpt><trkpt lat="45.14306136651085" lon="16.16026324419553"><ele>215.0</ele><time>2026-05-04T14:35:02Z</time></trkpt><trkpt lat="45.143161090337536" lon="16.160163375332218"><ele>215.0</ele><time>2026-05-04T14:35:03Z</time></trkpt><trkpt lat="45.14322832227687" lon="16.16001123054057"><ele>217.33333333333334</ele><time>2026-05-04T14:35:04Z</time></trkpt><trkpt lat="45.14327412585118" lon="16.15980689339628"><ele>219.66666666666669</ele><time>2026-05-04T14:35:05Z</time></trkpt><trkpt lat="45.14331692847862" lon="16.159566371668046"><ele>222.0</ele><time>2026-05-04T14:35:06Z</time></trkpt><trkpt lat="45.143362942351075" lon="16.15928439125533"><ele>223.33333333333331</ele><time>2026-05-04T14:35:07Z</time></trkpt><trkpt lat="45.14341377269915" lon="16.15899341911474"><ele>224.66666666666666</ele><time>2026-05-04T14:35:08Z</time></trkpt><trkpt lat="45.1434588223406" lon="16.15874616960438"><ele>226.0</ele><time>2026-05-04T14:35:09Z</time></trkpt><trkpt lat="45.14349364673452" lon="16.158532427029165"><ele>226.0</ele><time>2026-05-04T14:35:10Z</time></trkpt><trkpt lat="45.143522439079376" lon="16.158350541858695"><ele>226.0</ele><time>2026-05-04T14:35:11Z</time></trkpt><trkpt lat="45.143573998835926" lon="16.158196992462916"><ele>226.0</ele><time>2026-05-04T14:35:12Z</time></trkpt><trkpt lat="45.143677776567635" lon="16.158097794147128"><ele>226.0</ele><time>2026-05-04T14:35:13Z</time></trkpt><trkpt lat="45.143796887025296" lon="16.158054562514117"><ele>225.0</ele><time>2026-05-04T14:35:14Z</time></trkpt><trkpt lat="45.143926781067016" lon="16.158040153583194"><ele>224.0</ele><time>2026-05-04T14:35:15Z</time></trkpt><trkpt lat="45.14405058668432" lon="16.157971464128135"><ele>223.0</ele><time>2026-05-04T14:35:16Z</time></trkpt><trkpt lat="45.14415852939385" lon="16.15782225782941"><ele>222.0</ele><time>2026-05-04T14:35:17Z</time></trkpt><trkpt lat="45.14424788872165" lon="16.15765406663072"><ele>224.0</ele><time>2026-05-04T14:35:18Z</time></trkpt><trkpt lat="45.14434500058096" lon="16.15752359583444"><ele>226.0</ele><time>2026-05-04T14:35:19Z</time></trkpt><trkpt lat="45.14445750634405" lon="16.157467346229794"><ele>228.0</ele><time>2026-05-04T14:35:20Z</time></trkpt><trkpt lat="45.144580160601464" lon="16.15748990024732"><ele>230.0</ele><time>2026-05-04T14:35:21Z</time></trkpt><trkpt lat="45.14470759846782" lon="16.15756891313358"><ele>230.0</ele><time>2026-05-04T14:35:22Z</time></trkpt><trkpt lat="45.14483752772132" lon="16.15766224982044"><ele>230.0</ele><time>2026-05-04T14:35:23Z</time></trkpt><trkpt lat="45.14497049634058" lon="16.157732354753268"><ele>230.0</ele><time>2026-05-04T14:35:24Z</time></trkpt><trkpt lat="45.14511400017965" lon="16.15775834770706"><ele>230.0</ele><time>2026-05-04T14:35:25Z</time></trkpt><trkpt lat="45.145270759272606" lon="16.157714696840408"><ele>231.66666666666669</ele><time>2026-05-04T14:35:26Z</time></trkpt><trkpt lat="45.14543093921104" lon="16.157625596179"><ele>233.33333333333331</ele><time>2026-05-04T14:35:27Z</time></trkpt><trkpt lat="45.145603567148" lon="16.1575390383007"><ele>235.0</ele><time>2026-05-04T14:35:28Z</time></trkpt><trkpt lat="45.14578464160177" lon="16.157459964248904"><ele>236.66666666666666</ele><time>2026-05-04T14:35:29Z</time></trkpt><trkpt lat="45.14595325796119" lon="16.157359493203106"><ele>238.33333333333331</ele><time>2026-05-04T14:35:30Z</time></trkpt><trkpt lat="45.14611666324162" lon="16.157207683277882"><ele>240.0</ele><time>2026-05-04T14:35:31Z</time></trkpt><trkpt lat="45.14626865918622" lon="16.157028577814618"><ele>240.0</ele><time>2026-05-04T14:35:32Z</time></trkpt><trkpt lat="45.14640799708024" lon="16.156835702144612"><ele>240.0</ele><time>2026-05-04T14:35:33Z</time></trkpt><trkpt lat="45.146545407322535" lon="16.15667479595102"><ele>240.0</ele><time>2026-05-04T14:35:34Z</time></trkpt><trkpt lat="45.14671556901293" lon="16.15657918350079"><ele>242.0</ele><time>2026-05-04T14:35:35Z</time></trkpt><trkpt lat="45.14690392621041" lon="16.15654475021216"><ele>244.0</ele><time>2026-05-04T14:35:36Z</time></trkpt><trkpt lat="45.147099958574124" lon="16.156505365298784"><ele>246.0</ele><time>2026-05-04T14:35:37Z</time></trkpt><trkpt lat="45.14729824276454" lon="16.15645119529886"><ele>247.66666666666669</ele><time>2026-05-04T14:35:38Z</time></trkpt><trkpt lat="45.1474920209235" lon="16.15642383595"><ele>249.33333333333334</ele><time>2026-05-04T14:35:39Z</time></trkpt><trkpt lat="45.14769955209974" lon="16.15645081180412"><ele>251.0</ele><time>2026-05-04T14:35:40Z</time></trkpt><trkpt lat="45.14791420353734" lon="16.156537807289546"><ele>253.0</ele><time>2026-05-04T14:35:41Z</time></trkpt><trkpt lat="45.14812665023174" lon="16.156634712340093"><ele>255.0</ele><time>2026-05-04T14:35:42Z</time></trkpt><trkpt lat="45.14832848718988" lon="16.15668147071041"><ele>257.0</ele><time>2026-05-04T14:35:43Z</time></trkpt><trkpt lat="45.148516606421836" lon="16.156679113771105"><ele>257.25</ele><time>2026-05-04T14:35:44Z</time></trkpt><trkpt lat="45.14867501730258" lon="16.156654286000467"><ele>257.5</ele><time>2026-05-04T14:35:45Z</time></trkpt><trkpt lat="45.14880093260505" lon="16.156614415944357"><ele>257.75</ele><time>2026-05-04T14:35:46Z</time></trkpt><trkpt lat="45.14888778171695" lon="16.15654613029534"><ele>258.0</ele><time>2026-05-04T14:35:47Z</time></trkpt><trkpt lat="45.14894110002618" lon="16.156414886592433"><ele>258.0</ele><time>2026-05-04T14:35:48Z</time></trkpt><trkpt lat="45.14896240839837" lon="16.156225822069615"><ele>258.0</ele><time>2026-05-04T14:35:49Z</time></trkpt><trkpt lat="45.14897449969246" lon="16.15597270545829"><ele>258.0</ele><time>2026-05-04T14:35:50Z</time></trkpt><trkpt lat="45.148995094759876" lon="16.15566826582954"><ele>257.0</ele><time>2026-05-04T14:35:51Z</time></trkpt><trkpt lat="45.149025570976825" lon="16.155373940304145"><ele>256.0</ele><time>2026-05-04T14:35:52Z</time></trkpt><trkpt lat="45.14903863524023" lon="16.15505777001195"><ele>255.0</ele><time>2026-05-04T14:35:53Z</time></trkpt><trkpt lat="45.14901837712085" lon="16.154731327584813"><ele>258.0</ele><time>2026-05-04T14:35:54Z</time></trkpt><trkpt lat="45.14896228599194" lon="16.15441810416733"><ele>261.0</ele><time>2026-05-04T14:35:55Z</time></trkpt><trkpt lat="45.148886114952845" lon="16.154140725927558"><ele>264.0</ele><time>2026-05-04T14:35:56Z</time></trkpt><trkpt lat="45.14878521743216" lon="16.15389662665012"><ele>267.3333333333333</ele><time>2026-05-04T14:35:57Z</time></trkpt><trkpt lat="45.14865998885073" lon="16.15366947513637"><ele>270.66666666666663</ele><time>2026-05-04T14:35:58Z</time></trkpt><trkpt lat="45.148521761875905" lon="16.15345604876626"><ele>274.0</ele><time>2026-05-04T14:35:59Z</time></trkpt><trkpt lat="45.14839945915768" lon="16.153254293128267"><ele>275.25</ele><time>2026-05-04T14:36:00Z</time></trkpt><trkpt lat="45.148292450565684" lon="16.153067470553548"><ele>276.5</ele><time>2026-05-04T14:36:01Z</time></trkpt><trkpt lat="45.14819528365758" lon="16.152910323025008"><ele>277.75</ele><time>2026-05-04T14:36:02Z</time></trkpt><trkpt lat="45.14811369504218" lon="16.15278710760254"><ele>279.0</ele><time>2026-05-04T14:36:03Z</time></trkpt><trkpt lat="45.14807566942706" lon="16.152671426209146"><ele>279.25</ele><time>2026-05-04T14:36:04Z</time></trkpt><trkpt lat="45.14809195776316" lon="16.152546895316423"><ele>279.5</ele><time>2026-05-04T14:36:05Z</time></trkpt><trkpt lat="45.14816091712264" lon="16.152410161796162"><ele>279.75</ele><time>2026-05-04T14:36:06Z</time></trkpt><trkpt lat="45.148248848403014" lon="16.152235077315265"><ele>280.0</ele><time>2026-05-04T14:36:07Z</time></trkpt><trkpt lat="45.14835649377132" lon="16.152025126802535"><ele>280.0</ele><time>2026-05-04T14:36:08Z</time></trkpt><trkpt lat="45.148486697478766" lon="16.151798413477547"><ele>280.0</ele><time>2026-05-04T14:36:09Z</time></trkpt><trkpt lat="45.1486318678434" lon="16.1515719505742"><ele>280.0</ele><time>2026-05-04T14:36:10Z</time></trkpt><trkpt lat="45.14877867192375" lon="16.15135756355733"><ele>280.3333333333333</ele><time>2026-05-04T14:36:11Z</time></trkpt><trkpt lat="45.1489168217297" lon="16.15113535200019"><ele>280.6666666666667</ele><time>2026-05-04T14:36:12Z</time></trkpt><trkpt lat="45.14902800962451" lon="16.150860108685485"><ele>281.0</ele><time>2026-05-04T14:36:13Z</time></trkpt><trkpt lat="45.14911439791425" lon="16.150541969530146"><ele>287.0</ele><time>2026-05-04T14:36:14Z</time></trkpt><trkpt lat="45.149201969607205" lon="16.150227186560485"><ele>293.0</ele><time>2026-05-04T14:36:15Z</time></trkpt><trkpt lat="45.14928660441082" lon="16.14992328935617"><ele>293.33333333333337</ele><time>2026-05-04T14:36:16Z</time></trkpt><trkpt lat="45.14937742046509" lon="16.14964431674614"><ele>293.6666666666667</ele><time>2026-05-04T14:36:17Z</time></trkpt><trkpt lat="45.14947052847947" lon="16.149380142313913"><ele>294.0</ele><time>2026-05-04T14:36:18Z</time></trkpt><trkpt lat="45.14956885826927" lon="16.14912611799411"><ele>293.6666666666667</ele><time>2026-05-04T14:36:19Z</time></trkpt><trkpt lat="45.149657319245456" lon="16.148869800144364"><ele>293.33333333333337</ele><time>2026-05-04T14:36:20Z</time></trkpt><trkpt lat="45.14974030137063" lon="16.148600057904982"><ele>293.0</ele><time>2026-05-04T14:36:21Z</time></trkpt><trkpt lat="45.14981598669196" lon="16.14830869385403"><ele>294.0</ele><time>2026-05-04T14:36:22Z</time></trkpt><trkpt lat="45.14987214710566" lon="16.1480128501259"><ele>295.0</ele><time>2026-05-04T14:36:23Z</time></trkpt><trkpt lat="45.14992119388356" lon="16.147715302372074"><ele>296.0</ele><time>2026-05-04T14:36:24Z</time></trkpt><trkpt lat="45.149970099849185" lon="16.14742796176825"><ele>298.33333333333337</ele><time>2026-05-04T14:36:25Z</time></trkpt><trkpt lat="45.15002288077869" lon="16.147159812536607"><ele>300.6666666666667</ele><time>2026-05-04T14:36:26Z</time></trkpt><trkpt lat="45.15008743215393" lon="16.146904369048656"><ele>303.0</ele><time>2026-05-04T14:36:27Z</time></trkpt><trkpt lat="45.15015093034503" lon="16.146692821134064"><ele>302.3333333333333</ele><time>2026-05-04T14:36:28Z</time></trkpt><trkpt lat="45.15024291163467" lon="16.146529476858735"><ele>301.66666666666663</ele><time>2026-05-04T14:36:29Z</time></trkpt><trkpt lat="45.15034748661627" lon="16.146385558872755"><ele>301.0</ele><time>2026-05-04T14:36:30Z</time></trkpt><trkpt lat="45.15047024138692" lon="16.146232525734714"><ele>301.0</ele><time>2026-05-04T14:36:31Z</time></trkpt><trkpt lat="45.15058231076925" lon="16.1460428155324"><ele>301.0</ele><time>2026-05-04T14:36:32Z</time></trkpt><trkpt lat="45.15065487391407" lon="16.14581994424199"><ele>301.0</ele><time>2026-05-04T14:36:33Z</time></trkpt><trkpt lat="45.15070055159502" lon="16.14558532191992"><ele>304.66666666666663</ele><time>2026-05-04T14:36:34Z</time></trkpt><trkpt lat="45.15072062300791" lon="16.14534098849707"><ele>308.3333333333333</ele><time>2026-05-04T14:36:35Z</time></trkpt><trkpt lat="45.15072509311285" lon="16.14509810382849"><ele>312.0</ele><time>2026-05-04T14:36:36Z</time></trkpt><trkpt lat="45.15075182163228" lon="16.14486053692785"><ele>312.0</ele><time>2026-05-04T14:36:37Z</time></trkpt><trkpt lat="45.15082450033071" lon="16.14463636966635"><ele>312.0</ele><time>2026-05-04T14:36:38Z</time></trkpt><trkpt lat="45.15091796398303" lon="16.144408644358457"><ele>312.0</ele><time>2026-05-04T14:36:39Z</time></trkpt><trkpt lat="45.1510033429625" lon="16.144162427112803"><ele>311.3333333333333</ele><time>2026-05-04T14:36:40Z</time></trkpt><trkpt lat="45.1510779784876" lon="16.143898081502616"><ele>310.66666666666663</ele><time>2026-05-04T14:36:41Z</time></trkpt><trkpt lat="45.151136357759235" lon="16.143629339027605"><ele>310.0</ele><time>2026-05-04T14:36:42Z</time></trkpt><trkpt lat="45.15117410359896" lon="16.143381746739017"><ele>310.5</ele><time>2026-05-04T14:36:43Z</time></trkpt><trkpt lat="45.15120631486739" lon="16.143166694970503"><ele>311.0</ele><time>2026-05-04T14:36:44Z</time></trkpt><trkpt lat="45.151237645433476" lon="16.14299293387544"><ele>311.5</ele><time>2026-05-04T14:36:45Z</time></trkpt><trkpt lat="45.15128635081682" lon="16.142856005577613"><ele>312.0</ele><time>2026-05-04T14:36:46Z</time></trkpt><trkpt lat="45.15137264731192" lon="16.14278371963168"><ele>312.0</ele><time>2026-05-04T14:36:47Z</time></trkpt><trkpt lat="45.151469835245855" lon="16.142779379049408"><ele>312.0</ele><time>2026-05-04T14:36:48Z</time></trkpt><trkpt lat="45.15156280655652" lon="16.14284105486769"><ele>312.0</ele><time>2026-05-04T14:36:49Z</time></trkpt><trkpt lat="45.15163506796626" lon="16.142968852140477"><ele>312.0</ele><time>2026-05-04T14:36:50Z</time></trkpt><trkpt lat="45.151662720099715" lon="16.143135620415542"><ele>312.0</ele><time>2026-05-04T14:36:51Z</time></trkpt><trkpt lat="45.15165100573987" lon="16.143339927159662"><ele>312.0</ele><time>2026-05-04T14:36:52Z</time></trkpt><trkpt lat="45.1516113146299" lon="16.143597939469927"><ele>312.0</ele><time>2026-05-04T14:36:53Z</time></trkpt><trkpt lat="45.15157061552933" lon="16.143898950082487"><ele>312.0</ele><time>2026-05-04T14:36:54Z</time></trkpt><trkpt lat="45.151537370229015" lon="16.144227514188863"><ele>312.0</ele><time>2026-05-04T14:36:55Z</time></trkpt><trkpt lat="45.15150984359693" lon="16.14455012374123"><ele>312.0</ele><time>2026-05-04T14:36:56Z</time></trkpt><trkpt lat="45.15148807555254" lon="16.144891515472136"><ele>312.5</ele><time>2026-05-04T14:36:57Z</time></trkpt><trkpt lat="45.15146095816863" lon="16.145231153887273"><ele>313.0</ele><time>2026-05-04T14:36:58Z</time></trkpt><trkpt lat="45.15143072998779" lon="16.145566486720355"><ele>313.0</ele><time>2026-05-04T14:36:59Z</time></trkpt><trkpt lat="45.151396331875745" lon="16.145925409204548"><ele>313.0</ele><time>2026-05-04T14:37:00Z</time></trkpt><trkpt lat="45.151361954898135" lon="16.14628832058205"><ele>314.0</ele><time>2026-05-04T14:37:01Z</time></trkpt><trkpt lat="45.15132622616553" lon="16.146664759440846"><ele>315.0</ele><time>2026-05-04T14:37:02Z</time></trkpt><trkpt lat="45.15129256086424" lon="16.14706061353683"><ele>315.5</ele><time>2026-05-04T14:37:03Z</time></trkpt><trkpt lat="45.151257398915504" lon="16.147459731319657"><ele>316.0</ele><time>2026-05-04T14:37:04Z</time></trkpt><trkpt lat="45.151223438214274" lon="16.14784720033144"><ele>318.0</ele><time>2026-05-04T14:37:05Z</time></trkpt><trkpt lat="45.15119146733309" lon="16.14821409627842"><ele>320.0</ele><time>2026-05-04T14:37:06Z</time></trkpt><trkpt lat="45.15116612577903" lon="16.148548397719566"><ele>320.0</ele><time>2026-05-04T14:37:07Z</time></trkpt><trkpt lat="45.15115802752322" lon="16.148864798031497"><ele>320.0</ele><time>2026-05-04T14:37:08Z</time></trkpt><trkpt lat="45.15118751345516" lon="16.149177493868507"><ele>320.0</ele><time>2026-05-04T14:37:09Z</time></trkpt><trkpt lat="45.15125408248774" lon="16.14950043620348"><ele>320.5</ele><time>2026-05-04T14:37:10Z</time></trkpt><trkpt lat="45.15133348618223" lon="16.149833393176998"><ele>321.0</ele><time>2026-05-04T14:37:11Z</time></trkpt><trkpt lat="45.151394651653376" lon="16.15015281066512"><ele>321.0</ele><time>2026-05-04T14:37:12Z</time></trkpt><trkpt lat="45.15142601571393" lon="16.15044799951554"><ele>321.0</ele><time>2026-05-04T14:37:13Z</time></trkpt><trkpt lat="45.15142547821185" lon="16.150736477996965"><ele>321.0</ele><time>2026-05-04T14:37:14Z</time></trkpt><trkpt lat="45.15139882130746" lon="16.15103024664166"><ele>322.3333333333333</ele><time>2026-05-04T14:37:15Z</time></trkpt><trkpt lat="45.151369096050026" lon="16.15132428200036"><ele>323.66666666666663</ele><time>2026-05-04T14:37:16Z</time></trkpt><trkpt lat="45.15138319114725" lon="16.15161726617281"><ele>325.0</ele><time>2026-05-04T14:37:17Z</time></trkpt><trkpt lat="45.151428679661635" lon="16.151902150940987"><ele>325.0</ele><time>2026-05-04T14:37:18Z</time></trkpt><trkpt lat="45.151467161320106" lon="16.152158398816294"><ele>325.0</ele><time>2026-05-04T14:37:19Z</time></trkpt><trkpt lat="45.151460172034405" lon="16.15242517982997"><ele>325.0</ele><time>2026-05-04T14:37:20Z</time></trkpt><trkpt lat="45.151442548557405" lon="16.152707003260304"><ele>324.66666666666663</ele><time>2026-05-04T14:37:21Z</time></trkpt><trkpt lat="45.15146113411365" lon="16.152980608664556"><ele>324.3333333333333</ele><time>2026-05-04T14:37:22Z</time></trkpt><trkpt lat="45.151535165579034" lon="16.153230828711663"><ele>324.0</ele><time>2026-05-04T14:37:23Z</time></trkpt><trkpt lat="45.15160538256353" lon="16.15347028277356"><ele>323.0</ele><time>2026-05-04T14:37:24Z</time></trkpt><trkpt lat="45.15161634413913" lon="16.15373474241343"><ele>322.0</ele><time>2026-05-04T14:37:25Z</time></trkpt><trkpt lat="45.151581288307646" lon="16.154009838168374"><ele>321.0</ele><time>2026-05-04T14:37:26Z</time></trkpt><trkpt lat="45.15153713658412" lon="16.15426488200801"><ele>331.0</ele><time>2026-05-04T14:37:27Z</time></trkpt><trkpt lat="45.15155482422324" lon="16.15449413479056"><ele>341.0</ele><time>2026-05-04T14:37:28Z</time></trkpt><trkpt lat="45.15163428518707" lon="16.154703400758894"><ele>351.0</ele><time>2026-05-04T14:37:29Z</time></trkpt><trkpt lat="45.151765456465405" lon="16.154894291813175"><ele>351.0</ele><time>2026-05-04T14:37:30Z</time></trkpt><trkpt lat="45.151914055264164" lon="16.155086755245982"><ele>351.0</ele><time>2026-05-04T14:37:31Z</time></trkpt><trkpt lat="45.152044627866466" lon="16.155303888312126"><ele>351.0</ele><time>2026-05-04T14:37:32Z</time></trkpt><trkpt lat="45.152137164648884" lon="16.155531876266117"><ele>349.25</ele><time>2026-05-04T14:37:33Z</time></trkpt><trkpt lat="45.15218598786194" lon="16.15576053422366"><ele>347.5</ele><time>2026-05-04T14:37:34Z</time></trkpt><trkpt lat="45.15220478904271" lon="16.155963764767883"><ele>345.75</ele><time>2026-05-04T14:37:35Z</time></trkpt><trkpt lat="45.15223002610221" lon="16.156133330408398"><ele>344.0</ele><time>2026-05-04T14:37:36Z</time></trkpt><trkpt lat="45.15228490514519" lon="16.156264694076192"><ele>348.0</ele><time>2026-05-04T14:37:37Z</time></trkpt><trkpt lat="45.15237646530738" lon="16.156352878456886"><ele>352.0</ele><time>2026-05-04T14:37:38Z</time></trkpt><trkpt lat="45.15247191420191" lon="16.15638706022162"><ele>356.0</ele><time>2026-05-04T14:37:39Z</time></trkpt><trkpt lat="45.15256942203448" lon="16.15638210786745"><ele>360.0</ele><time>2026-05-04T14:37:40Z</time></trkpt><trkpt lat="45.15266209871381" lon="16.156337166219984"><ele>364.0</ele><time>2026-05-04T14:37:41Z</time></trkpt><trkpt lat="45.15273693204716" lon="16.156247994395386"><ele>364.0</ele><time>2026-05-04T14:37:42Z</time></trkpt><trkpt lat="45.15277964843158" lon="16.15611101780809"><ele>364.0</ele><time>2026-05-04T14:37:43Z</time></trkpt><trkpt lat="45.152806724755195" lon="16.155934046211684"><ele>364.0</ele><time>2026-05-04T14:37:44Z</time></trkpt><trkpt lat="45.15280484991626" lon="16.155716221221624"><ele>364.0</ele><time>2026-05-04T14:37:45Z</time></trkpt><trkpt lat="45.152770962636666" lon="16.155458968230974"><ele>365.0</ele><time>2026-05-04T14:37:46Z</time></trkpt><trkpt lat="45.15269541149787" lon="16.15518361066753"><ele>366.0</ele><time>2026-05-04T14:37:47Z</time></trkpt><trkpt lat="45.15261874756218" lon="16.154927981593772"><ele>367.0</ele><time>2026-05-04T14:37:48Z</time></trkpt><trkpt lat="45.152546549779274" lon="16.154676031256272"><ele>368.3333333333333</ele><time>2026-05-04T14:37:49Z</time></trkpt><trkpt lat="45.152490696680005" lon="16.154437579249862"><ele>369.6666666666667</ele><time>2026-05-04T14:37:50Z</time></trkpt><trkpt lat="45.15244688290016" lon="16.154224816128682"><ele>371.0</ele><time>2026-05-04T14:37:51Z</time></trkpt><trkpt lat="45.15241924068184" lon="16.15402651678215"><ele>372.25</ele><time>2026-05-04T14:37:52Z</time></trkpt><trkpt lat="45.15243835163852" lon="16.153855569989357"><ele>373.5</ele><time>2026-05-04T14:37:53Z</time></trkpt><trkpt lat="45.15250550882094" lon="16.153697477369764"><ele>374.75</ele><time>2026-05-04T14:37:54Z</time></trkpt><trkpt lat="45.152628317761476" lon="16.15355251688773"><ele>376.0</ele><time>2026-05-04T14:37:55Z</time></trkpt><trkpt lat="45.152796599389646" lon="16.153412945462907"><ele>376.0</ele><time>2026-05-04T14:37:56Z</time></trkpt><trkpt lat="45.15297016282734" lon="16.153275843335326"><ele>376.0</ele><time>2026-05-04T14:37:57Z</time></trkpt><trkpt lat="45.15312921837775" lon="16.153153195303283"><ele>376.0</ele><time>2026-05-04T14:37:58Z</time></trkpt><trkpt lat="45.15326337905499" lon="16.153060600304"><ele>380.75</ele><time>2026-05-04T14:37:59Z</time></trkpt><trkpt lat="45.15340439618613" lon="16.153047090383723"><ele>385.5</ele><time>2026-05-04T14:38:00Z</time></trkpt><trkpt lat="45.15354724943231" lon="16.153055194195094"><ele>390.25</ele><time>2026-05-04T14:38:01Z</time></trkpt><trkpt lat="45.15366550050654" lon="16.153029490599906"><ele>395.0</ele><time>2026-05-04T14:38:02Z</time></trkpt><trkpt lat="45.15373733134588" lon="16.152926222077422"><ele>395.0</ele><time>2026-05-04T14:38:03Z</time></trkpt><trkpt lat="45.15377665820728" lon="16.152785021472823"><ele>395.0</ele><time>2026-05-04T14:38:04Z</time></trkpt><trkpt lat="45.15376991284211" lon="16.152616581961283"><ele>395.0</ele><time>2026-05-04T14:38:05Z</time></trkpt><trkpt lat="45.15374004125359" lon="16.152445745687242"><ele>395.0</ele><time>2026-05-04T14:38:06Z</time></trkpt><trkpt lat="45.15372276851101" lon="16.15228070062364"><ele>398.25</ele><time>2026-05-04T14:38:07Z</time></trkpt><trkpt lat="45.153739424300184" lon="16.15213621512641"><ele>401.5</ele><time>2026-05-04T14:38:08Z</time></trkpt><trkpt lat="45.15379173494968" lon="16.15199378809331"><ele>404.75</ele><time>2026-05-04T14:38:09Z</time></trkpt><trkpt lat="45.153887063625504" lon="16.151850072248532"><ele>408.0</ele><time>2026-05-04T14:38:10Z</time></trkpt><trkpt lat="45.15403103356795" lon="16.151722355921798"><ele>409.0</ele><time>2026-05-04T14:38:11Z</time></trkpt><trkpt lat="45.15419069651771" lon="16.151587370862153"><ele>410.0</ele><time>2026-05-04T14:38:12Z</time></trkpt><trkpt lat="45.15433712787487" lon="16.151441534563713"><ele>411.0</ele><time>2026-05-04T14:38:13Z</time></trkpt><trkpt lat="45.15445824642215" lon="16.15129226043805"><ele>411.0</ele><time>2026-05-04T14:38:14Z</time></trkpt><trkpt lat="45.15454776085378" lon="16.151115544538087"><ele>411.0</ele><time>2026-05-04T14:38:15Z</time></trkpt><trkpt lat="45.15461774436328" lon="16.150930911125155"><ele>411.0</ele><time>2026-05-04T14:38:16Z</time></trkpt><trkpt lat="45.15466441800937" lon="16.15073735742059"><ele>411.0</ele><time>2026-05-04T14:38:17Z</time></trkpt><trkpt lat="45.15468990669194" lon="16.150522025534475"><ele>417.66666666666663</ele><time>2026-05-04T14:38:18Z</time></trkpt><trkpt lat="45.154675797512" lon="16.150285819597638"><ele>424.3333333333333</ele><time>2026-05-04T14:38:19Z</time></trkpt><trkpt lat="45.15463625364545" lon="16.150075140930664"><ele>431.0</ele><time>2026-05-04T14:38:20Z</time></trkpt><trkpt lat="45.15458477092212" lon="16.14990429247058"><ele>433.6</ele><time>2026-05-04T14:38:21Z</time></trkpt><trkpt lat="45.15458460899238" lon="16.149763928724806"><ele>436.20000000000005</ele><time>2026-05-04T14:38:22Z</time></trkpt><trkpt lat="45.15460602875339" lon="16.14965288012669"><ele>438.79999999999995</ele><time>2026-05-04T14:38:23Z</time></trkpt><trkpt lat="45.15467543856006" lon="16.149567895873098"><ele>441.4</ele><time>2026-05-04T14:38:24Z</time></trkpt><trkpt lat="45.15478245017467" lon="16.1495216859323"><ele>444.0</ele><time>2026-05-04T14:38:25Z</time></trkpt><trkpt lat="45.1549046247041" lon="16.14943209144519"><ele>436.25</ele><time>2026-05-04T14:38:26Z</time></trkpt><trkpt lat="45.155034134640715" lon="16.14934619834215"><ele>428.5</ele><time>2026-05-04T14:38:27Z</time></trkpt><trkpt lat="45.155131217224756" lon="16.149222925735003"><ele>420.75</ele><time>2026-05-04T14:38:28Z</time></trkpt><trkpt lat="45.155195952410054" lon="16.149055068646682"><ele>413.0</ele><time>2026-05-04T14:38:29Z</time></trkpt><trkpt lat="45.15521422636424" lon="16.148867418819336"><ele>413.0</ele><time>2026-05-04T14:38:30Z</time></trkpt><trkpt lat="45.15518397992473" lon="16.14868192007009"><ele>413.0</ele><time>2026-05-04T14:38:31Z</time></trkpt><trkpt lat="45.15512200388455" lon="16.14851477008621"><ele>413.0</ele><time>2026-05-04T14:38:32Z</time></trkpt><trkpt lat="45.15503559094394" lon="16.14837910432898"><ele>413.0</ele><time>2026-05-04T14:38:33Z</time></trkpt><trkpt lat="45.154969156434454" lon="16.1482367443618"><ele>416.0</ele><time>2026-05-04T14:38:34Z</time></trkpt><trkpt lat="45.154955173365465" lon="16.148070100059982"><ele>419.0</ele><time>2026-05-04T14:38:35Z</time></trkpt><trkpt lat="45.15502738332934" lon="16.147910174616037"><ele>422.0</ele><time>2026-05-04T14:38:36Z</time></trkpt><trkpt lat="45.155082409834044" lon="16.147727598675615"><ele>425.0</ele><time>2026-05-04T14:38:37Z</time></trkpt><trkpt lat="45.15514190307952" lon="16.14752713306494"><ele>429.0</ele><time>2026-05-04T14:38:38Z</time></trkpt><trkpt lat="45.15521484013735" lon="16.14733550102577"><ele>433.0</ele><time>2026-05-04T14:38:39Z</time></trkpt><trkpt lat="45.15528552858009" lon="16.147152598777158"><ele>437.0</ele><time>2026-05-04T14:38:40Z</time></trkpt><trkpt lat="45.15541481676083" lon="16.147050352802054"><ele>441.0</ele><time>2026-05-04T14:38:41Z</time></trkpt><trkpt lat="45.155528323935876" lon="16.146922405185272"><ele>441.0</ele><time>2026-05-04T14:38:42Z</time></trkpt><trkpt lat="45.155627369463865" lon="16.146777025201988"><ele>441.0</ele><time>2026-05-04T14:38:43Z</time></trkpt><trkpt lat="45.155687665338824" lon="16.146570316942654"><ele>441.0</ele><time>2026-05-04T14:38:44Z</time></trkpt><trkpt lat="45.15569922221763" lon="16.146321208131514"><ele>440.66666666666663</ele><time>2026-05-04T14:38:45Z</time></trkpt><trkpt lat="45.15565654178383" lon="16.146087899732034"><ele>440.3333333333333</ele><time>2026-05-04T14:38:46Z</time></trkpt><trkpt lat="45.15556529323403" lon="16.14586607673254"><ele>440.0</ele><time>2026-05-04T14:38:47Z</time></trkpt><trkpt lat="45.15544496722" lon="16.145653345535997"><ele>440.0</ele><time>2026-05-04T14:38:48Z</time></trkpt><trkpt lat="45.15533775064111" lon="16.145437188933364"><ele>440.0</ele><time>2026-05-04T14:38:49Z</time></trkpt><trkpt lat="45.155275345615344" lon="16.14520910947921"><ele>440.0</ele><time>2026-05-04T14:38:50Z</time></trkpt><trkpt lat="45.15524752448799" lon="16.144974391552505"><ele>440.66666666666663</ele><time>2026-05-04T14:38:51Z</time></trkpt><trkpt lat="45.1552643917587" lon="16.144719128044866"><ele>441.33333333333337</ele><time>2026-05-04T14:38:52Z</time></trkpt><trkpt lat="45.15529992060358" lon="16.144448806835378"><ele>442.0</ele><time>2026-05-04T14:38:53Z</time></trkpt><trkpt lat="45.15533622862047" lon="16.144179032278902"><ele>442.33333333333337</ele><time>2026-05-04T14:38:54Z</time></trkpt><trkpt lat="45.15536663074191" lon="16.143890900094963"><ele>442.66666666666663</ele><time>2026-05-04T14:38:55Z</time></trkpt><trkpt lat="45.15539198033702" lon="16.143599292417367"><ele>443.0</ele><time>2026-05-04T14:38:56Z</time></trkpt><trkpt lat="45.15540914684407" lon="16.143332828031422"><ele>444.3333333333333</ele><time>2026-05-04T14:38:57Z</time></trkpt><trkpt lat="45.15540177080441" lon="16.143086315374184"><ele>445.66666666666663</ele><time>2026-05-04T14:38:58Z</time></trkpt><trkpt lat="45.15536593976669" lon="16.14284483860503"><ele>447.0</ele><time>2026-05-04T14:38:59Z</time></trkpt><trkpt lat="45.15533014329248" lon="16.142645421549147"><ele>447.0</ele><time>2026-05-04T14:39:00Z</time></trkpt><trkpt lat="45.15532857765537" lon="16.142491617415487"><ele>447.0</ele><time>2026-05-04T14:39:01Z</time></trkpt><trkpt lat="45.155358366048574" lon="16.142396906931232"><ele>447.0</ele><time>2026-05-04T14:39:02Z</time></trkpt><trkpt lat="45.15541603787357" lon="16.142359578326456"><ele>447.0</ele><time>2026-05-04T14:39:03Z</time></trkpt><trkpt lat="45.155495610615944" lon="16.1423655062459"><ele>447.0</ele><time>2026-05-04T14:39:04Z</time></trkpt><trkpt lat="45.15559647400303" lon="16.142433441973665"><ele>447.0</ele><time>2026-05-04T14:39:05Z</time></trkpt><trkpt lat="45.15569748525108" lon="16.142511038461492"><ele>442.6</ele><time>2026-05-04T14:39:06Z</time></trkpt><trkpt lat="45.15579881810996" lon="16.142533851945878"><ele>438.20000000000005</ele><time>2026-05-04T14:39:07Z</time></trkpt><trkpt lat="45.155889194532435" lon="16.142477447920893"><ele>433.8</ele><time>2026-05-04T14:39:08Z</time></trkpt><trkpt lat="45.155957538359004" lon="16.142360730674575"><ele>429.4</ele><time>2026-05-04T14:39:09Z</time></trkpt><trkpt lat="45.15600074861872" lon="16.142199964491315"><ele>425.0</ele><time>2026-05-04T14:39:10Z</time></trkpt><trkpt lat="45.15602114329317" lon="16.14200810368419"><ele>425.0</ele><time>2026-05-04T14:39:11Z</time></trkpt><trkpt lat="45.15604976466194" lon="16.141823764866384"><ele>425.0</ele><time>2026-05-04T14:39:12Z</time></trkpt><trkpt lat="45.15611057921557" lon="16.14166081767963"><ele>425.0</ele><time>2026-05-04T14:39:13Z</time></trkpt><trkpt lat="45.15621208621601" lon="16.141544593103294"><ele>425.0</ele><time>2026-05-04T14:39:14Z</time></trkpt><trkpt lat="45.156342490545754" lon="16.141481860856345"><ele>426.0</ele><time>2026-05-04T14:39:15Z</time></trkpt><trkpt lat="45.156477754552704" lon="16.14143237250187"><ele>427.0</ele><time>2026-05-04T14:39:16Z</time></trkpt><trkpt lat="45.15662044263425" lon="16.141370562641175"><ele>428.0</ele><time>2026-05-04T14:39:17Z</time></trkpt><trkpt lat="45.1567718807448" lon="16.141304731831728"><ele>429.0</ele><time>2026-05-04T14:39:18Z</time></trkpt><trkpt lat="45.15692921898622" lon="16.141218197761678"><ele>429.0</ele><time>2026-05-04T14:39:19Z</time></trkpt><trkpt lat="45.15707873902774" lon="16.14107456756852"><ele>429.0</ele><time>2026-05-04T14:39:20Z</time></trkpt><trkpt lat="45.15719114362153" lon="16.1408877366553"><ele>429.0</ele><time>2026-05-04T14:39:21Z</time></trkpt><trkpt lat="45.15731308570228" lon="16.14072182681104"><ele>432.66666666666663</ele><time>2026-05-04T14:39:22Z</time></trkpt><trkpt lat="45.15747259312697" lon="16.14063854025596"><ele>436.3333333333333</ele><time>2026-05-04T14:39:23Z</time></trkpt><trkpt lat="45.15766161176837" lon="16.14060845882853"><ele>440.0</ele><time>2026-05-04T14:39:24Z</time></trkpt><trkpt lat="45.15785074169431" lon="16.140566050935494"><ele>440.0</ele><time>2026-05-04T14:39:25Z</time></trkpt><trkpt lat="45.15801602702315" lon="16.14047642958231"><ele>440.0</ele><time>2026-05-04T14:39:26Z</time></trkpt><trkpt lat="45.15817597195021" lon="16.140349337740645"><ele>440.0</ele><time>2026-05-04T14:39:27Z</time></trkpt><trkpt lat="45.15832196751271" lon="16.140193427255316"><ele>436.3333333333333</ele><time>2026-05-04T14:39:28Z</time></trkpt><trkpt lat="45.158443080921245" lon="16.14001407814802"><ele>432.66666666666663</ele><time>2026-05-04T14:39:29Z</time></trkpt><trkpt lat="45.15856221912462" lon="16.139839679868533"><ele>429.0</ele><time>2026-05-04T14:39:30Z</time></trkpt><trkpt lat="45.158685184002174" lon="16.139718535697625"><ele>429.33333333333337</ele><time>2026-05-04T14:39:31Z</time></trkpt><trkpt lat="45.15882655734544" lon="16.139646737447165"><ele>429.6666666666667</ele><time>2026-05-04T14:39:32Z</time></trkpt><trkpt lat="45.15898719432145" lon="16.139613443346988"><ele>430.0</ele><time>2026-05-04T14:39:33Z</time></trkpt><trkpt lat="45.15915132921477" lon="16.139598471168988"><ele>430.0</ele><time>2026-05-04T14:39:34Z</time></trkpt><trkpt lat="45.15929840321236" lon="16.13958301666687"><ele>430.0</ele><time>2026-05-04T14:39:35Z</time></trkpt><trkpt lat="45.15943849401053" lon="16.13955130863102"><ele>430.0</ele><time>2026-05-04T14:39:36Z</time></trkpt><trkpt lat="45.159574101096645" lon="16.1394858772091"><ele>430.0</ele><time>2026-05-04T14:39:37Z</time></trkpt><trkpt lat="45.15969325039724" lon="16.13938301263224"><ele>430.0</ele><time>2026-05-04T14:39:38Z</time></trkpt><trkpt lat="45.15980419458958" lon="16.13926117303994"><ele>430.0</ele><time>2026-05-04T14:39:39Z</time></trkpt><trkpt lat="45.159912135530995" lon="16.13914988323795"><ele>430.0</ele><time>2026-05-04T14:39:40Z</time></trkpt><trkpt lat="45.16002361282778" lon="16.13906010086706"><ele>430.0</ele><time>2026-05-04T14:39:41Z</time></trkpt><trkpt lat="45.160144589386086" lon="16.138977291539206"><ele>427.75</ele><time>2026-05-04T14:39:42Z</time></trkpt><trkpt lat="45.160270852989285" lon="16.13889655026545"><ele>425.5</ele><time>2026-05-04T14:39:43Z</time></trkpt><trkpt lat="45.16040073945226" lon="16.138812482285637"><ele>423.25</ele><time>2026-05-04T14:39:44Z</time></trkpt><trkpt lat="45.1605268300704" lon="16.138731726371596"><ele>421.0</ele><time>2026-05-04T14:39:45Z</time></trkpt><trkpt lat="45.160656884672505" lon="16.13869114162715"><ele>418.5</ele><time>2026-05-04T14:39:46Z</time></trkpt><trkpt lat="45.160797186202174" lon="16.1387345921621"><ele>416.0</ele><time>2026-05-04T14:39:47Z</time></trkpt><trkpt lat="45.160942642818945" lon="16.138824462094423"><ele>413.5</ele><time>2026-05-04T14:39:48Z</time></trkpt><trkpt lat="45.161081045955605" lon="16.138892156506646"><ele>411.0</ele><time>2026-05-04T14:39:49Z</time></trkpt><trkpt lat="45.16122638326002" lon="16.138876976534426"><ele>411.0</ele><time>2026-05-04T14:39:50Z</time></trkpt><trkpt lat="45.16137451919212" lon="16.13878501674819"><ele>411.0</ele><time>2026-05-04T14:39:51Z</time></trkpt><trkpt lat="45.16152317874495" lon="16.138663514620518"><ele>411.0</ele><time>2026-05-04T14:39:52Z</time></trkpt><trkpt lat="45.161667883274035" lon="16.138556573961043"><ele>409.75</ele><time>2026-05-04T14:39:53Z</time></trkpt><trkpt lat="45.16180725541096" lon="16.138478006937994"><ele>408.5</ele><time>2026-05-04T14:39:54Z</time></trkpt><trkpt lat="45.16195264360154" lon="16.138449158830362"><ele>407.25</ele><time>2026-05-04T14:39:55Z</time></trkpt><trkpt lat="45.16209410891009" lon="16.138506322830157"><ele>406.0</ele><time>2026-05-04T14:39:56Z</time></trkpt><trkpt lat="45.1622009229835" lon="16.138641603780105"><ele>406.0</ele><time>2026-05-04T14:39:57Z</time></trkpt><trkpt lat="45.16230369227907" lon="16.13878775028398"><ele>406.0</ele><time>2026-05-04T14:39:58Z</time></trkpt><trkpt lat="45.16243702207017" lon="16.13888672271496"><ele>406.0</ele><time>2026-05-04T14:39:59Z</time></trkpt><trkpt lat="45.162599518959645" lon="16.138919522048848"><ele>404.6666666666667</ele><time>2026-05-04T14:40:00Z</time></trkpt><trkpt lat="45.16276861588716" lon="16.13890192938819"><ele>403.33333333333337</ele><time>2026-05-04T14:40:01Z</time></trkpt><trkpt lat="45.162926589956925" lon="16.13886662101566"><ele>402.0</ele><time>2026-05-04T14:40:02Z</time></trkpt><trkpt lat="45.16307430971071" lon="16.138837954115363"><ele>400.33333333333337</ele><time>2026-05-04T14:40:03Z</time></trkpt><trkpt lat="45.16321933740461" lon="16.138805259949173"><ele>398.6666666666667</ele><time>2026-05-04T14:40:04Z</time></trkpt><trkpt lat="45.16336321467557" lon="16.13872919443746"><ele>397.0</ele><time>2026-05-04T14:40:05Z</time></trkpt><trkpt lat="45.16348319021508" lon="16.13859102208285"><ele>397.0</ele><time>2026-05-04T14:40:06Z</time></trkpt><trkpt lat="45.16357516992004" lon="16.13842032783054"><ele>397.0</ele><time>2026-05-04T14:40:07Z</time></trkpt><trkpt lat="45.163660771427544" lon="16.138262833332327"><ele>397.0</ele><time>2026-05-04T14:40:08Z</time></trkpt><trkpt lat="45.163770118970895" lon="16.13815421201032"><ele>397.0</ele><time>2026-05-04T14:40:09Z</time></trkpt><trkpt lat="45.16390597292341" lon="16.138113459669956"><ele>395.25</ele><time>2026-05-04T14:40:10Z</time></trkpt><trkpt lat="45.16404487726717" lon="16.138173533355253"><ele>393.5</ele><time>2026-05-04T14:40:11Z</time></trkpt><trkpt lat="45.164179503634735" lon="16.138260435938964"><ele>391.75</ele><time>2026-05-04T14:40:12Z</time></trkpt><trkpt lat="45.16432038846176" lon="16.13831819874275"><ele>390.0</ele><time>2026-05-04T14:40:13Z</time></trkpt><trkpt lat="45.164470824706925" lon="16.13833201076172"><ele>390.0</ele><time>2026-05-04T14:40:14Z</time></trkpt><trkpt lat="45.164614479323966" lon="16.138315720835347"><ele>390.0</ele><time>2026-05-04T14:40:15Z</time></trkpt><trkpt lat="45.16475774945437" lon="16.138298079405033"><ele>390.0</ele><time>2026-05-04T14:40:16Z</time></trkpt><trkpt lat="45.16488944042779" lon="16.13830543710692"><ele>390.0</ele><time>2026-05-04T14:40:17Z</time></trkpt><trkpt lat="45.165012543778644" lon="16.138375231627357"><ele>388.25</ele><time>2026-05-04T14:40:18Z</time></trkpt><trkpt lat="45.165112266533285" lon="16.13850207037332"><ele>386.5</ele><time>2026-05-04T14:40:19Z</time></trkpt><trkpt lat="45.165190643176196" lon="16.1386375633798"><ele>384.75</ele><time>2026-05-04T14:40:20Z</time></trkpt><trkpt lat="45.16526566187094" lon="16.138760951909678"><ele>383.0</ele><time>2026-05-04T14:40:21Z</time></trkpt><trkpt lat="45.16534869404899" lon="16.138850908152396"><ele>383.0</ele><time>2026-05-04T14:40:22Z</time></trkpt><trkpt lat="45.16544070626975" lon="16.138860484181205"><ele>383.0</ele><time>2026-05-04T14:40:23Z</time></trkpt><trkpt lat="45.16552738476764" lon="16.13879029447004"><ele>383.0</ele><time>2026-05-04T14:40:24Z</time></trkpt><trkpt lat="45.16558204335561" lon="16.138662929238155"><ele>383.0</ele><time>2026-05-04T14:40:25Z</time></trkpt><trkpt lat="45.16559166142016" lon="16.138499602005947"><ele>383.0</ele><time>2026-05-04T14:40:26Z</time></trkpt><trkpt lat="45.165543602012306" lon="16.138329097505018"><ele>380.33333333333337</ele><time>2026-05-04T14:40:27Z</time></trkpt><trkpt lat="45.1654472798526" lon="16.138183424483046"><ele>377.6666666666667</ele><time>2026-05-04T14:40:28Z</time></trkpt><trkpt lat="45.16531979536666" lon="16.13804558623034"><ele>375.0</ele><time>2026-05-04T14:40:29Z</time></trkpt><trkpt lat="45.165183224809866" lon="16.137910749575088"><ele>375.0</ele><time>2026-05-04T14:40:30Z</time></trkpt><trkpt lat="45.16504164393765" lon="16.13779627696066"><ele>375.0</ele><time>2026-05-04T14:40:31Z</time></trkpt><trkpt lat="45.16490177975091" lon="16.137693039923324"><ele>375.0</ele><time>2026-05-04T14:40:32Z</time></trkpt><trkpt lat="45.164777463884604" lon="16.13759461516021"><ele>374.4</ele><time>2026-05-04T14:40:33Z</time></trkpt><trkpt lat="45.16466598224399" lon="16.137503965096382"><ele>373.8</ele><time>2026-05-04T14:40:34Z</time></trkpt><trkpt lat="45.16458563117619" lon="16.13740976755734"><ele>373.20000000000005</ele><time>2026-05-04T14:40:35Z</time></trkpt><trkpt lat="45.16455172443435" lon="16.13728116315036"><ele>372.6</ele><time>2026-05-04T14:40:36Z</time></trkpt><trkpt lat="45.164569644812474" lon="16.13714987345173"><ele>372.0</ele><time>2026-05-04T14:40:37Z</time></trkpt><trkpt lat="45.16463834127423" lon="16.13705156646644"><ele>372.0</ele><time>2026-05-04T14:40:38Z</time></trkpt><trkpt lat="45.164746068981906" lon="16.137023259727286"><ele>372.0</ele><time>2026-05-04T14:40:39Z</time></trkpt><trkpt lat="45.16486343831409" lon="16.137058240329896"><ele>372.0</ele><time>2026-05-04T14:40:40Z</time></trkpt><trkpt lat="45.1649830251422" lon="16.13714024766302"><ele>372.0</ele><time>2026-05-04T14:40:41Z</time></trkpt><trkpt lat="45.16511168759302" lon="16.137214566803074"><ele>373.0</ele><time>2026-05-04T14:40:42Z</time></trkpt><trkpt lat="45.16526307361253" lon="16.13726122230544"><ele>374.0</ele><time>2026-05-04T14:40:43Z</time></trkpt><trkpt lat="45.16542274260018" lon="16.137325778754686"><ele>375.0</ele><time>2026-05-04T14:40:44Z</time></trkpt><trkpt lat="45.16557583182563" lon="16.137428331985735"><ele>371.6666666666667</ele><time>2026-05-04T14:40:45Z</time></trkpt><trkpt lat="45.16572264899765" lon="16.13751986678903"><ele>368.33333333333337</ele><time>2026-05-04T14:40:46Z</time></trkpt><trkpt lat="45.165888731289655" lon="16.137543612302995"><ele>365.0</ele><time>2026-05-04T14:40:47Z</time></trkpt><trkpt lat="45.16605307528648" lon="16.137494746573946"><ele>365.0</ele><time>2026-05-04T14:40:48Z</time></trkpt><trkpt lat="45.166197082168765" lon="16.137386767590844"><ele>365.0</ele><time>2026-05-04T14:40:49Z</time></trkpt><trkpt lat="45.16634613495489" lon="16.13729113157363"><ele>365.0</ele><time>2026-05-04T14:40:50Z</time></trkpt><trkpt lat="45.16652165188271" lon="16.13726975109822"><ele>362.0</ele><time>2026-05-04T14:40:51Z</time></trkpt><trkpt lat="45.166707894122226" lon="16.137308674099657"><ele>359.0</ele><time>2026-05-04T14:40:52Z</time></trkpt><trkpt lat="45.16687346472726" lon="16.137360682777782"><ele>356.0</ele><time>2026-05-04T14:40:53Z</time></trkpt><trkpt lat="45.16701064616253" lon="16.13738893082702"><ele>353.8</ele><time>2026-05-04T14:40:54Z</time></trkpt><trkpt lat="45.16711805608965" lon="16.13738461820777"><ele>351.6</ele><time>2026-05-04T14:40:55Z</time></trkpt><trkpt lat="45.16720458167941" lon="16.137339957701574"><ele>349.4</ele><time>2026-05-04T14:40:56Z</time></trkpt><trkpt lat="45.16726518155282" lon="16.137244469391135"><ele>347.2</ele><time>2026-05-04T14:40:57Z</time></trkpt><trkpt lat="45.16728465885723" lon="16.13712757646047"><ele>345.0</ele><time>2026-05-04T14:40:58Z</time></trkpt><trkpt lat="45.16727714916931" lon="16.137011075367457"><ele>345.0</ele><time>2026-05-04T14:40:59Z</time></trkpt><trkpt lat="45.16723832123902" lon="16.136889200754805"><ele>345.0</ele><time>2026-05-04T14:41:00Z</time></trkpt><trkpt lat="45.16715315503845" lon="16.136776728695605"><ele>345.0</ele><time>2026-05-04T14:41:01Z</time></trkpt><trkpt lat="45.167029935316144" lon="16.136685874656703"><ele>345.0</ele><time>2026-05-04T14:41:02Z</time></trkpt><trkpt lat="45.166888745122975" lon="16.13660278961722"><ele>344.3333333333333</ele><time>2026-05-04T14:41:03Z</time></trkpt><trkpt lat="45.16673872401046" lon="16.13650184177714"><ele>343.66666666666663</ele><time>2026-05-04T14:41:04Z</time></trkpt><trkpt lat="45.166589318887034" lon="16.136374803636347"><ele>343.0</ele><time>2026-05-04T14:41:05Z</time></trkpt><trkpt lat="45.16644760931585" lon="16.1362191684392"><ele>343.0</ele><time>2026-05-04T14:41:06Z</time></trkpt><trkpt lat="45.16632581731895" lon="16.136028100360512"><ele>343.0</ele><time>2026-05-04T14:41:07Z</time></trkpt><trkpt lat="45.1662141951077" lon="16.135825010198054"><ele>343.0</ele><time>2026-05-04T14:41:08Z</time></trkpt><trkpt lat="45.16610528650816" lon="16.135655952387978"><ele>342.5</ele><time>2026-05-04T14:41:09Z</time></trkpt><trkpt lat="45.1659724110126" lon="16.135536990224733"><ele>342.0</ele><time>2026-05-04T14:41:10Z</time></trkpt><trkpt lat="45.165833918947854" lon="16.135469530506118"><ele>341.5</ele><time>2026-05-04T14:41:11Z</time></trkpt><trkpt lat="45.16570772095564" lon="16.135428487724273"><ele>341.0</ele><time>2026-05-04T14:41:12Z</time></trkpt><trkpt lat="45.16561808577461" lon="16.135364472953498"><ele>341.0</ele><time>2026-05-04T14:41:13Z</time></trkpt><trkpt lat="45.16556557239328" lon="16.135252108159428"><ele>341.0</ele><time>2026-05-04T14:41:14Z</time></trkpt><trkpt lat="45.16556602104558" lon="16.13511214582193"><ele>341.0</ele><time>2026-05-04T14:41:15Z</time></trkpt><trkpt lat="45.16561893379337" lon="16.13499021598879"><ele>341.0</ele><time>2026-05-04T14:41:16Z</time></trkpt><trkpt lat="45.16571515588653" lon="16.134918486801617"><ele>341.0</ele><time>2026-05-04T14:41:17Z</time></trkpt><trkpt lat="45.16584082646527" lon="16.13491945859569"><ele>338.6666666666667</ele><time>2026-05-04T14:41:18Z</time></trkpt><trkpt lat="45.165987206292705" lon="16.134977765473423"><ele>336.3333333333333</ele><time>2026-05-04T14:41:19Z</time></trkpt><trkpt lat="45.16615169532962" lon="16.135032394763968"><ele>334.0</ele><time>2026-05-04T14:41:20Z</time></trkpt><trkpt lat="45.16632648951049" lon="16.135019074691147"><ele>334.0</ele><time>2026-05-04T14:41:21Z</time></trkpt><trkpt lat="45.166517237701605" lon="16.13495142573694"><ele>334.0</ele><time>2026-05-04T14:41:22Z</time></trkpt><trkpt lat="45.1667096058176" lon="16.134878334002728"><ele>334.0</ele><time>2026-05-04T14:41:23Z</time></trkpt><trkpt lat="45.16690591532435" lon="16.134819741543875"><ele>329.66666666666663</ele><time>2026-05-04T14:41:24Z</time></trkpt><trkpt lat="45.16709221737846" lon="16.13478577050906"><ele>325.3333333333333</ele><time>2026-05-04T14:41:25Z</time></trkpt><trkpt lat="45.16727893902926" lon="16.13479073303519"><ele>321.0</ele><time>2026-05-04T14:41:26Z</time></trkpt><trkpt lat="45.16747053156138" lon="16.13484211438862"><ele>321.0</ele><time>2026-05-04T14:41:27Z</time></trkpt><trkpt lat="45.16766704763221" lon="16.13490635909782"><ele>321.0</ele><time>2026-05-04T14:41:28Z</time></trkpt><trkpt lat="45.16787256428996" lon="16.134962940017918"><ele>321.0</ele><time>2026-05-04T14:41:29Z</time></trkpt><trkpt lat="45.16808354741426" lon="16.13501260563819"><ele>318.3333333333333</ele><time>2026-05-04T14:41:30Z</time></trkpt><trkpt lat="45.16829929005321" lon="16.13506723857775"><ele>315.66666666666663</ele><time>2026-05-04T14:41:31Z</time></trkpt><trkpt lat="45.16851639474325" lon="16.135131854579758"><ele>313.0</ele><time>2026-05-04T14:41:32Z</time></trkpt><trkpt lat="45.16872585161873" lon="16.13521157712653"><ele>313.0</ele><time>2026-05-04T14:41:33Z</time></trkpt><trkpt lat="45.16891929552301" lon="16.135288881706487"><ele>313.0</ele><time>2026-05-04T14:41:34Z</time></trkpt><trkpt lat="45.16911456970294" lon="16.135379111821447"><ele>313.0</ele><time>2026-05-04T14:41:35Z</time></trkpt><trkpt lat="45.16930830413256" lon="16.13549297479719"><ele>311.66666666666663</ele><time>2026-05-04T14:41:36Z</time></trkpt><trkpt lat="45.16948981689618" lon="16.135619684619655"><ele>310.3333333333333</ele><time>2026-05-04T14:41:37Z</time></trkpt><trkpt lat="45.16968307464174" lon="16.135748345838827"><ele>309.0</ele><time>2026-05-04T14:41:38Z</time></trkpt><trkpt lat="45.1698825598219" lon="16.135852796852706"><ele>307.0</ele><time>2026-05-04T14:41:39Z</time></trkpt><trkpt lat="45.170081952899906" lon="16.13589222487646"><ele>305.0</ele><time>2026-05-04T14:41:40Z</time></trkpt><trkpt lat="45.17028213588062" lon="16.135844980894028"><ele>303.0</ele><time>2026-05-04T14:41:41Z</time></trkpt><trkpt lat="45.17048697792293" lon="16.13576310283803"><ele>301.6666666666667</ele><time>2026-05-04T14:41:42Z</time></trkpt><trkpt lat="45.170695618329816" lon="16.135669309654006"><ele>300.33333333333337</ele><time>2026-05-04T14:41:43Z</time></trkpt><trkpt lat="45.170906821982676" lon="16.135581190056875"><ele>299.0</ele><time>2026-05-04T14:41:44Z</time></trkpt><trkpt lat="45.171117695665714" lon="16.135492259123478"><ele>299.0</ele><time>2026-05-04T14:41:45Z</time></trkpt><trkpt lat="45.171311493323294" lon="16.135419167078588"><ele>299.0</ele><time>2026-05-04T14:41:46Z</time></trkpt><trkpt lat="45.17149173375995" lon="16.135364731846355"><ele>299.0</ele><time>2026-05-04T14:41:47Z</time></trkpt><trkpt lat="45.17168511378218" lon="16.135326389091144"><ele>297.6666666666667</ele><time>2026-05-04T14:41:48Z</time></trkpt><trkpt lat="45.171894076697924" lon="16.13532116369211"><ele>296.3333333333333</ele><time>2026-05-04T14:41:49Z</time></trkpt><trkpt lat="45.17211238264083" lon="16.135341076688707"><ele>295.0</ele><time>2026-05-04T14:41:50Z</time></trkpt><trkpt lat="45.17233644927173" lon="16.13537961050591"><ele>293.5</ele><time>2026-05-04T14:41:51Z</time></trkpt><trkpt lat="45.17256261416457" lon="16.13542739355356"><ele>292.0</ele><time>2026-05-04T14:41:52Z</time></trkpt><trkpt lat="45.17279086210541" lon="16.13548834877204"><ele>292.0</ele><time>2026-05-04T14:41:53Z</time></trkpt><trkpt lat="45.17301427687348" lon="16.135565284718652"><ele>292.0</ele><time>2026-05-04T14:41:54Z</time></trkpt><trkpt lat="45.17324832569292" lon="16.13564963161217"><ele>292.5</ele><time>2026-05-04T14:41:55Z</time></trkpt><trkpt lat="45.17348696936303" lon="16.135729487005857"><ele>293.0</ele><time>2026-05-04T14:41:56Z</time></trkpt><trkpt lat="45.17373285063559" lon="16.135797959811473"><ele>293.0</ele><time>2026-05-04T14:41:57Z</time></trkpt><trkpt lat="45.17396903891026" lon="16.135858118483767"><ele>293.0</ele><time>2026-05-04T14:41:58Z</time></trkpt><trkpt lat="45.17419101744778" lon="16.135928919625634"><ele>292.0</ele><time>2026-05-04T14:41:59Z</time></trkpt><trkpt lat="45.17441092354255" lon="16.13604589089273"><ele>291.0</ele><time>2026-05-04T14:42:00Z</time></trkpt><trkpt lat="45.174609284174664" lon="16.136209071371947"><ele>291.0</ele><time>2026-05-04T14:42:01Z</time></trkpt><trkpt lat="45.17479451563624" lon="16.136369446161464"><ele>291.0</ele><time>2026-05-04T14:42:02Z</time></trkpt><trkpt lat="45.17499444935713" lon="16.13647937393352"><ele>291.0</ele><time>2026-05-04T14:42:03Z</time></trkpt><trkpt lat="45.175191500854375" lon="16.13650938703348"><ele>289.3333333333333</ele><time>2026-05-04T14:42:04Z</time></trkpt><trkpt lat="45.17539571506498" lon="16.136469862772437"><ele>287.66666666666663</ele><time>2026-05-04T14:42:05Z</time></trkpt><trkpt lat="45.17561361956047" lon="16.136409258799297"><ele>286.0</ele><time>2026-05-04T14:42:06Z</time></trkpt><trkpt lat="45.175843328664655" lon="16.136363831034036"><ele>285.0</ele><time>2026-05-04T14:42:07Z</time></trkpt><trkpt lat="45.176075473403394" lon="16.136330629085062"><ele>284.0</ele><time>2026-05-04T14:42:08Z</time></trkpt><trkpt lat="45.17630813957554" lon="16.136293760680886"><ele>281.0</ele><time>2026-05-04T14:42:09Z</time></trkpt><trkpt lat="45.176546464940415" lon="16.136256798929274"><ele>278.0</ele><time>2026-05-04T14:42:10Z</time></trkpt><trkpt lat="45.17677692151407" lon="16.136223202813696"><ele>278.0</ele><time>2026-05-04T14:42:11Z</time></trkpt><trkpt lat="45.17700293320174" lon="16.136190405809113"><ele>278.0</ele><time>2026-05-04T14:42:12Z</time></trkpt><trkpt lat="45.177236249321496" lon="16.136159655545413"><ele>277.0</ele><time>2026-05-04T14:42:13Z</time></trkpt><trkpt lat="45.17747688493539" lon="16.13612509080491"><ele>276.0</ele><time>2026-05-04T14:42:14Z</time></trkpt><trkpt lat="45.17771723014858" lon="16.136070164008988"><ele>276.0</ele><time>2026-05-04T14:42:15Z</time></trkpt><trkpt lat="45.17795664081353" lon="16.135986232376975"><ele>276.0</ele><time>2026-05-04T14:42:16Z</time></trkpt><trkpt lat="45.17818706160569" lon="16.13585954236596"><ele>275.0</ele><time>2026-05-04T14:42:17Z</time></trkpt><trkpt lat="45.17841013448269" lon="16.13570788744478"><ele>274.0</ele><time>2026-05-04T14:42:18Z</time></trkpt><trkpt lat="45.17862942451735" lon="16.135558509473615"><ele>274.0</ele><time>2026-05-04T14:42:19Z</time></trkpt><trkpt lat="45.1788464306195" lon="16.13542114416263"><ele>274.0</ele><time>2026-05-04T14:42:20Z</time></trkpt><trkpt lat="45.179062324372" lon="16.135290337603767"><ele>271.5</ele><time>2026-05-04T14:42:21Z</time></trkpt><trkpt lat="45.179275288158244" lon="16.135159829513125"><ele>269.0</ele><time>2026-05-04T14:42:22Z</time></trkpt><trkpt lat="45.1794894737022" lon="16.135031039417573"><ele>269.0</ele><time>2026-05-04T14:42:23Z</time></trkpt><trkpt lat="45.17970563214944" lon="16.134895473607607"><ele>269.0</ele><time>2026-05-04T14:42:24Z</time></trkpt><trkpt lat="45.17990997462115" lon="16.134757210095977"><ele>269.5</ele><time>2026-05-04T14:42:25Z</time></trkpt><trkpt lat="45.18011172282245" lon="16.13460213799924"><ele>270.0</ele><time>2026-05-04T14:42:26Z</time></trkpt><trkpt lat="45.18029841509832" lon="16.134417047146137"><ele>270.0</ele><time>2026-05-04T14:42:27Z</time></trkpt><trkpt lat="45.18048762319214" lon="16.1342237985634"><ele>270.0</ele><time>2026-05-04T14:42:28Z</time></trkpt><trkpt lat="45.180646204882805" lon="16.133958910705687"><ele>268.5</ele><time>2026-05-04T14:42:29Z</time></trkpt><trkpt lat="45.180799041083226" lon="16.13369531333501"><ele>267.0</ele><time>2026-05-04T14:42:30Z</time></trkpt><trkpt lat="45.180955413299614" lon="16.133419118259468"><ele>268.5</ele><time>2026-05-04T14:42:31Z</time></trkpt><trkpt lat="45.181108643955085" lon="16.133148989933304"><ele>270.0</ele><time>2026-05-04T14:42:32Z</time></trkpt><trkpt lat="45.18126158716142" lon="16.13287894660698"><ele>270.0</ele><time>2026-05-04T14:42:33Z</time></trkpt><trkpt lat="45.18141282161213" lon="16.132612041572134"><ele>270.0</ele><time>2026-05-04T14:42:34Z</time></trkpt><trkpt lat="45.18155829433218" lon="16.132354088206924"><ele>268.3333333333333</ele><time>2026-05-04T14:42:35Z</time></trkpt><trkpt lat="45.18170187369287" lon="16.132104987514815"><ele>266.66666666666663</ele><time>2026-05-04T14:42:36Z</time></trkpt><trkpt lat="45.18185232575044" lon="16.131873064706728"><ele>265.0</ele><time>2026-05-04T14:42:37Z</time></trkpt><trkpt lat="45.18201999297096" lon="16.131661205958412"><ele>264.0</ele><time>2026-05-04T14:42:38Z</time></trkpt><trkpt lat="45.18220870468859" lon="16.13146256215818"><ele>263.0</ele><time>2026-05-04T14:42:39Z</time></trkpt><trkpt lat="45.18241123694896" lon="16.13127311552178"><ele>263.0</ele><time>2026-05-04T14:42:40Z</time></trkpt><trkpt lat="45.18261180152587" lon="16.131089737168633"><ele>263.0</ele><time>2026-05-04T14:42:41Z</time></trkpt><trkpt lat="45.182813836992715" lon="16.130907125910973"><ele>263.0</ele><time>2026-05-04T14:42:42Z</time></trkpt><trkpt lat="45.183016097158074" lon="16.130727137637383"><ele>263.0</ele><time>2026-05-04T14:42:43Z</time></trkpt><trkpt lat="45.18321984955729" lon="16.130542328736528"><ele>262.0</ele><time>2026-05-04T14:42:44Z</time></trkpt><trkpt lat="45.18342508790386" lon="16.130357754713092"><ele>261.0</ele><time>2026-05-04T14:42:45Z</time></trkpt><trkpt lat="45.183621137635384" lon="16.130153598094157"><ele>261.0</ele><time>2026-05-04T14:42:46Z</time></trkpt><trkpt lat="45.18382945402732" lon="16.12997865842645"><ele>261.0</ele><time>2026-05-04T14:42:47Z</time></trkpt><trkpt lat="45.1840385078141" lon="16.12981500091306"><ele>261.5</ele><time>2026-05-04T14:42:48Z</time></trkpt><trkpt lat="45.184247987763676" lon="16.12966447511603"><ele>262.0</ele><time>2026-05-04T14:42:49Z</time></trkpt><trkpt lat="45.1844649488777" lon="16.129538182621754"><ele>262.0</ele><time>2026-05-04T14:42:50Z</time></trkpt><trkpt lat="45.18468658141575" lon="16.129442516848545"><ele>262.0</ele><time>2026-05-04T14:42:51Z</time></trkpt><trkpt lat="45.184909516226504" lon="16.12936086414027"><ele>261.0</ele><time>2026-05-04T14:42:52Z</time></trkpt><trkpt lat="45.18514131436449" lon="16.129279878277043"><ele>260.0</ele><time>2026-05-04T14:42:53Z</time></trkpt><trkpt lat="45.18536506027384" lon="16.129194018561346"><ele>260.0</ele><time>2026-05-04T14:42:54Z</time></trkpt><trkpt lat="45.18557668693949" lon="16.1290871367951"><ele>260.0</ele><time>2026-05-04T14:42:55Z</time></trkpt><trkpt lat="45.18578650820321" lon="16.128968034058882"><ele>260.0</ele><time>2026-05-04T14:42:56Z</time></trkpt><trkpt lat="45.18599443317179" lon="16.128845166010155"><ele>260.0</ele><time>2026-05-04T14:42:57Z</time></trkpt><trkpt lat="45.1861949892953" lon="16.12870676467558"><ele>260.0</ele><time>2026-05-04T14:42:58Z</time></trkpt><trkpt lat="45.18638757143546" lon="16.128531240170975"><ele>259.0</ele><time>2026-05-04T14:42:59Z</time></trkpt><trkpt lat="45.18655972354559" lon="16.12832825043676"><ele>258.0</ele><time>2026-05-04T14:43:00Z</time></trkpt><trkpt lat="45.186733647608726" lon="16.128104089517663"><ele>257.5</ele><time>2026-05-04T14:43:01Z</time></trkpt><trkpt lat="45.18690727702079" lon="16.1278902355043"><ele>257.0</ele><time>2026-05-04T14:43:02Z</time></trkpt><trkpt lat="45.18709146947518" lon="16.127684808272768"><ele>257.0</ele><time>2026-05-04T14:43:03Z</time></trkpt><trkpt lat="45.18728066357046" lon="16.127493001975626"><ele>257.0</ele><time>2026-05-04T14:43:04Z</time></trkpt><trkpt lat="45.18747343479394" lon="16.127314070471087"><ele>256.0</ele><time>2026-05-04T14:43:05Z</time></trkpt><trkpt lat="45.18766623826692" lon="16.127128789759624"><ele>255.0</ele><time>2026-05-04T14:43:06Z</time></trkpt><trkpt lat="45.18785486318319" lon="16.126933256027435"><ele>255.0</ele><time>2026-05-04T14:43:07Z</time></trkpt><trkpt lat="45.18803537842432" lon="16.126729818270412"><ele>255.0</ele><time>2026-05-04T14:43:08Z</time></trkpt><trkpt lat="45.18819972713638" lon="16.126525164084644"><ele>255.0</ele><time>2026-05-04T14:43:09Z</time></trkpt><trkpt lat="45.188348842454964" lon="16.126320619803586"><ele>254.33333333333331</ele><time>2026-05-04T14:43:10Z</time></trkpt><trkpt lat="45.188482263341236" lon="16.12612266833576"><ele>253.66666666666666</ele><time>2026-05-04T14:43:11Z</time></trkpt><trkpt lat="45.188615815616" lon="16.12594928468982"><ele>253.0</ele><time>2026-05-04T14:43:12Z</time></trkpt><trkpt lat="45.1887690811325" lon="16.125851904503158"><ele>253.0</ele><time>2026-05-04T14:43:13Z</time></trkpt><trkpt lat="45.188953958906545" lon="16.125808834385843"><ele>253.0</ele><time>2026-05-04T14:43:14Z</time></trkpt><trkpt lat="45.18916095949751" lon="16.12581213156179"><ele>253.0</ele><time>2026-05-04T14:43:15Z</time></trkpt><trkpt lat="45.18938832211361" lon="16.125824098750243"><ele>252.33333333333331</ele><time>2026-05-04T14:43:16Z</time></trkpt><trkpt lat="45.189612020153284" lon="16.12583199580031"><ele>251.66666666666669</ele><time>2026-05-04T14:43:17Z</time></trkpt><trkpt lat="45.18983730638741" lon="16.125829995797137"><ele>251.0</ele><time>2026-05-04T14:43:18Z</time></trkpt><trkpt lat="45.1900669007671" lon="16.125823806561947"><ele>249.5</ele><time>2026-05-04T14:43:19Z</time></trkpt><trkpt lat="45.19030630472813" lon="16.125823719752926"><ele>248.0</ele><time>2026-05-04T14:43:20Z</time></trkpt><trkpt lat="45.190549015012714" lon="16.125839576394128"><ele>248.0</ele><time>2026-05-04T14:43:21Z</time></trkpt><trkpt lat="45.1907866016915" lon="16.125885587816008"><ele>248.0</ele><time>2026-05-04T14:43:22Z</time></trkpt><trkpt lat="45.191024233696304" lon="16.125967013093906"><ele>248.0</ele><time>2026-05-04T14:43:23Z</time></trkpt><trkpt lat="45.19125511566853" lon="16.126080939596914"><ele>248.0</ele><time>2026-05-04T14:43:24Z</time></trkpt><trkpt lat="45.191478006150476" lon="16.12622148882059"><ele>249.5</ele><time>2026-05-04T14:43:25Z</time></trkpt><trkpt lat="45.19169860924973" lon="16.12636637582753"><ele>251.0</ele><time>2026-05-04T14:43:26Z</time></trkpt><trkpt lat="45.191914168755225" lon="16.126508997253637"><ele>250.0</ele><time>2026-05-04T14:43:27Z</time></trkpt><trkpt lat="45.19212827047435" lon="16.1266573774191"><ele>249.0</ele><time>2026-05-04T14:43:28Z</time></trkpt><trkpt lat="45.19234018067928" lon="16.126816255588963"><ele>249.0</ele><time>2026-05-04T14:43:29Z</time></trkpt><trkpt lat="45.19255235096335" lon="16.126972971815324"><ele>249.0</ele><time>2026-05-04T14:43:30Z</time></trkpt><trkpt lat="45.19276358679051" lon="16.12712360891763"><ele>249.0</ele><time>2026-05-04T14:43:31Z</time></trkpt><trkpt lat="45.19297951624833" lon="16.12726686168091"><ele>249.0</ele><time>2026-05-04T14:43:32Z</time></trkpt><trkpt lat="45.193198242840076" lon="16.127412106982913"><ele>248.0</ele><time>2026-05-04T14:43:33Z</time></trkpt><trkpt lat="45.193417167193026" lon="16.12755364351957"><ele>247.0</ele><time>2026-05-04T14:43:34Z</time></trkpt><trkpt lat="45.19363486192219" lon="16.127692635108694"><ele>247.0</ele><time>2026-05-04T14:43:35Z</time></trkpt><trkpt lat="45.1938467863328" lon="16.12783698128098"><ele>247.0</ele><time>2026-05-04T14:43:36Z</time></trkpt><trkpt lat="45.19404635117459" lon="16.128013856692736"><ele>246.66666666666666</ele><time>2026-05-04T14:43:37Z</time></trkpt><trkpt lat="45.19420977112945" lon="16.128234476917836"><ele>246.33333333333331</ele><time>2026-05-04T14:43:38Z</time></trkpt><trkpt lat="45.19434262215692" lon="16.12845909241665"><ele>246.0</ele><time>2026-05-04T14:43:39Z</time></trkpt><trkpt lat="45.19448696499084" lon="16.128629471997783"><ele>246.0</ele><time>2026-05-04T14:43:40Z</time></trkpt><trkpt lat="45.19464386653328" lon="16.128720345784263"><ele>246.0</ele><time>2026-05-04T14:43:41Z</time></trkpt><trkpt lat="45.19481702717288" lon="16.12876474038066"><ele>246.0</ele><time>2026-05-04T14:43:42Z</time></trkpt><trkpt lat="45.194994677141" lon="16.12876024054925"><ele>249.66666666666669</ele><time>2026-05-04T14:43:43Z</time></trkpt><trkpt lat="45.19517108319261" lon="16.12870122241079"><ele>253.33333333333334</ele><time>2026-05-04T14:43:44Z</time></trkpt><trkpt lat="45.19534490394217" lon="16.128589125840637"><ele>257.0</ele><time>2026-05-04T14:43:45Z</time></trkpt><trkpt lat="45.19552407222874" lon="16.128457160821856"><ele>258.33333333333337</ele><time>2026-05-04T14:43:46Z</time></trkpt><trkpt lat="45.19570674332212" lon="16.12831198542645"><ele>259.6666666666667</ele><time>2026-05-04T14:43:47Z</time></trkpt><trkpt lat="45.19587949432678" lon="16.128163540804124"><ele>261.0</ele><time>2026-05-04T14:43:48Z</time></trkpt><trkpt lat="45.19606103140207" lon="16.128014248566885"><ele>261.0</ele><time>2026-05-04T14:43:49Z</time></trkpt><trkpt lat="45.196244199453524" lon="16.127857470918972"><ele>261.0</ele><time>2026-05-04T14:43:50Z</time></trkpt><trkpt lat="45.19642732380647" lon="16.12767325879147"><ele>261.0</ele><time>2026-05-04T14:43:51Z</time></trkpt><trkpt lat="45.196605757578034" lon="16.127465761982847"><ele>255.5</ele><time>2026-05-04T14:43:52Z</time></trkpt><trkpt lat="45.196786793292844" lon="16.127222719170526"><ele>250.0</ele><time>2026-05-04T14:43:53Z</time></trkpt><trkpt lat="45.19697186727686" lon="16.126970737516487"><ele>250.0</ele><time>2026-05-04T14:43:54Z</time></trkpt><trkpt lat="45.197142167207545" lon="16.12672673969697"><ele>250.0</ele><time>2026-05-04T14:43:55Z</time></trkpt><trkpt lat="45.197301726357175" lon="16.126492316740357"><ele>247.66666666666666</ele><time>2026-05-04T14:43:56Z</time></trkpt><trkpt lat="45.19746265127461" lon="16.126281394562003"><ele>245.33333333333331</ele><time>2026-05-04T14:43:57Z</time></trkpt><trkpt lat="45.19762564542732" lon="16.12609939591711"><ele>243.0</ele><time>2026-05-04T14:43:58Z</time></trkpt><trkpt lat="45.19779643265204" lon="16.125964661421456"><ele>243.0</ele><time>2026-05-04T14:43:59Z</time></trkpt><trkpt lat="45.19796989122085" lon="16.125890183601346"><ele>243.0</ele><time>2026-05-04T14:44:00Z</time></trkpt><trkpt lat="45.1981567707615" lon="16.125889329956163"><ele>243.0</ele><time>2026-05-04T14:44:01Z</time></trkpt><trkpt lat="45.198357010460846" lon="16.125927610045082"><ele>238.5</ele><time>2026-05-04T14:44:02Z</time></trkpt><trkpt lat="45.19856780166201" lon="16.125994699050963"><ele>234.0</ele><time>2026-05-04T14:44:03Z</time></trkpt><trkpt lat="45.19880619292795" lon="16.126078656788838"><ele>233.0</ele><time>2026-05-04T14:44:04Z</time></trkpt><trkpt lat="45.19907197728189" lon="16.12616687625509"><ele>232.0</ele><time>2026-05-04T14:44:05Z</time></trkpt><trkpt lat="45.19935450927263" lon="16.126248867423175"><ele>232.0</ele><time>2026-05-04T14:44:06Z</time></trkpt><trkpt lat="45.1996576155591" lon="16.126336082232147"><ele>232.0</ele><time>2026-05-04T14:44:07Z</time></trkpt><trkpt lat="45.19997539353633" lon="16.126435445961192"><ele>232.0</ele><time>2026-05-04T14:44:08Z</time></trkpt><trkpt lat="45.200305622295545" lon="16.126540026683298"><ele>232.0</ele><time>2026-05-04T14:44:09Z</time></trkpt><trkpt lat="45.200640179614666" lon="16.126640285815657"><ele>231.0</ele><time>2026-05-04T14:44:10Z</time></trkpt><trkpt lat="45.20098593312782" lon="16.126742415584115"><ele>230.0</ele><time>2026-05-04T14:44:11Z</time></trkpt><trkpt lat="45.20134308104633" lon="16.126850704510662"><ele>229.5</ele><time>2026-05-04T14:44:12Z</time></trkpt><trkpt lat="45.20171181447818" lon="16.12696368254895"><ele>229.0</ele><time>2026-05-04T14:44:13Z</time></trkpt><trkpt lat="45.202091487463335" lon="16.12707559965275"><ele>230.0</ele><time>2026-05-04T14:44:14Z</time></trkpt><trkpt lat="45.20246463888408" lon="16.127192895907"><ele>231.0</ele><time>2026-05-04T14:44:15Z</time></trkpt><trkpt lat="45.2028014137017" lon="16.127293417962072"><ele>231.0</ele><time>2026-05-04T14:44:16Z</time></trkpt><trkpt lat="45.20310658869748" lon="16.12738734244666"><ele>231.0</ele><time>2026-05-04T14:44:17Z</time></trkpt><trkpt lat="45.20338838522489" lon="16.12747537899169"><ele>229.5</ele><time>2026-05-04T14:44:18Z</time></trkpt><trkpt lat="45.20364946212812" lon="16.127557704684794"><ele>228.0</ele><time>2026-05-04T14:44:19Z</time></trkpt><trkpt lat="45.20389226317326" lon="16.127636791833776"><ele>231.5</ele><time>2026-05-04T14:44:20Z</time></trkpt><trkpt lat="45.204120291880024" lon="16.127708448713438"><ele>235.0</ele><time>2026-05-04T14:44:21Z</time></trkpt><trkpt lat="45.204332856685966" lon="16.127771589951045"><ele>235.0</ele><time>2026-05-04T14:44:22Z</time></trkpt><trkpt lat="45.204532034408764" lon="16.127823484704926"><ele>235.0</ele><time>2026-05-04T14:44:23Z</time></trkpt><trkpt lat="45.20472865555958" lon="16.12787841772434"><ele>235.0</ele><time>2026-05-04T14:44:24Z</time></trkpt><trkpt lat="45.20492670578314" lon="16.12795071458059"><ele>233.66666666666666</ele><time>2026-05-04T14:44:25Z</time></trkpt><trkpt lat="45.20512169428895" lon="16.12804948289354"><ele>232.33333333333331</ele><time>2026-05-04T14:44:26Z</time></trkpt><trkpt lat="45.20530551323663" lon="16.128199343065983"><ele>231.0</ele><time>2026-05-04T14:44:27Z</time></trkpt><trkpt lat="45.205468047657725" lon="16.12838807859859"><ele>231.0</ele><time>2026-05-04T14:44:28Z</time></trkpt><trkpt lat="45.20561526668162" lon="16.12860436845098"><ele>231.0</ele><time>2026-05-04T14:44:29Z</time></trkpt><trkpt lat="45.20574867136004" lon="16.12882973146688"><ele>231.0</ele><time>2026-05-04T14:44:30Z</time></trkpt><trkpt lat="45.20589240181866" lon="16.12905642115204"><ele>231.0</ele><time>2026-05-04T14:44:31Z</time></trkpt><trkpt lat="45.206041666715926" lon="16.129284949176427"><ele>231.0</ele><time>2026-05-04T14:44:32Z</time></trkpt><trkpt lat="45.206189094630126" lon="16.129511173091643"><ele>231.0</ele><time>2026-05-04T14:44:33Z</time></trkpt><trkpt lat="45.20632876608413" lon="16.1297257238521"><ele>232.0</ele><time>2026-05-04T14:44:34Z</time></trkpt><trkpt lat="45.20646530586704" lon="16.129935786888673"><ele>233.0</ele><time>2026-05-04T14:44:35Z</time></trkpt><trkpt lat="45.206610122209646" lon="16.130127481348527"><ele>234.0</ele><time>2026-05-04T14:44:36Z</time></trkpt><trkpt lat="45.206767367402584" lon="16.130263610209045"><ele>234.0</ele><time>2026-05-04T14:44:37Z</time></trkpt><trkpt lat="45.20694878559428" lon="16.130334466024124"><ele>234.0</ele><time>2026-05-04T14:44:38Z</time></trkpt><trkpt lat="45.20714793447179" lon="16.13036503938716"><ele>234.0</ele><time>2026-05-04T14:44:39Z</time></trkpt><trkpt lat="45.20735840397317" lon="16.13039275343907"><ele>236.0</ele><time>2026-05-04T14:44:40Z</time></trkpt><trkpt lat="45.20757999165508" lon="16.130430384970165"><ele>238.0</ele><time>2026-05-04T14:44:41Z</time></trkpt><trkpt lat="45.20781141206013" lon="16.13046659191518"><ele>238.0</ele><time>2026-05-04T14:44:42Z</time></trkpt><trkpt lat="45.20805090670632" lon="16.13047653372264"><ele>238.0</ele><time>2026-05-04T14:44:43Z</time></trkpt><trkpt lat="45.208298641334046" lon="16.130451694498877"><ele>236.0</ele><time>2026-05-04T14:44:44Z</time></trkpt><trkpt lat="45.20855789092134" lon="16.13039837219873"><ele>234.0</ele><time>2026-05-04T14:44:45Z</time></trkpt><trkpt lat="45.20882071129529" lon="16.130344173797365"><ele>230.5</ele><time>2026-05-04T14:44:46Z</time></trkpt><trkpt lat="45.209088662375244" lon="16.130302042645074"><ele>227.0</ele><time>2026-05-04T14:44:47Z</time></trkpt><trkpt lat="45.209358743524014" lon="16.130266483691237"><ele>227.0</ele><time>2026-05-04T14:44:48Z</time></trkpt><trkpt lat="45.2096275449337" lon="16.130235631024632"><ele>227.0</ele><time>2026-05-04T14:44:49Z</time></trkpt><trkpt lat="45.20989274784343" lon="16.130201443461186"><ele>225.5</ele><time>2026-05-04T14:44:50Z</time></trkpt><trkpt lat="45.21015171184035" lon="16.13016087212033"><ele>224.0</ele><time>2026-05-04T14:44:51Z</time></trkpt><trkpt lat="45.21041661184006" lon="16.13012136491691"><ele>222.5</ele><time>2026-05-04T14:44:52Z</time></trkpt><trkpt lat="45.21066643665489" lon="16.130086162693605"><ele>221.0</ele><time>2026-05-04T14:44:53Z</time></trkpt><trkpt lat="45.210912088758164" lon="16.130055068315688"><ele>221.0</ele><time>2026-05-04T14:44:54Z</time></trkpt><trkpt lat="45.21115383303137" lon="16.13003044944811"><ele>221.0</ele><time>2026-05-04T14:44:55Z</time></trkpt><trkpt lat="45.21138853887931" lon="16.130031422612547"><ele>221.0</ele><time>2026-05-04T14:44:56Z</time></trkpt><trkpt lat="45.21162239577954" lon="16.130076564435306"><ele>221.0</ele><time>2026-05-04T14:44:57Z</time></trkpt><trkpt lat="45.21184779843386" lon="16.130171077729138"><ele>221.0</ele><time>2026-05-04T14:44:58Z</time></trkpt><trkpt lat="45.21207048185926" lon="16.13029502754104"><ele>221.0</ele><time>2026-05-04T14:44:59Z</time></trkpt><trkpt lat="45.21229449576183" lon="16.130406316109664"><ele>223.5</ele><time>2026-05-04T14:45:00Z</time></trkpt><trkpt lat="45.212520672336815" lon="16.130513063796542"><ele>226.0</ele><time>2026-05-04T14:45:01Z</time></trkpt><trkpt lat="45.21274347930302" lon="16.130618090636535"><ele>222.5</ele><time>2026-05-04T14:45:02Z</time></trkpt><trkpt lat="45.21296796794051" lon="16.130727603662532"><ele>219.0</ele><time>2026-05-04T14:45:03Z</time></trkpt><trkpt lat="45.2131965420944" lon="16.130844218518824"><ele>218.0</ele><time>2026-05-04T14:45:04Z</time></trkpt><trkpt lat="45.213424458974316" lon="16.13095629704574"><ele>217.0</ele><time>2026-05-04T14:45:05Z</time></trkpt><trkpt lat="45.21365204115261" lon="16.13105041850262"><ele>217.0</ele><time>2026-05-04T14:45:06Z</time></trkpt><trkpt lat="45.213889450600675" lon="16.13111083086197"><ele>217.0</ele><time>2026-05-04T14:45:07Z</time></trkpt><trkpt lat="45.21413153043291" lon="16.131112989839654"><ele>219.0</ele><time>2026-05-04T14:45:08Z</time></trkpt><trkpt lat="45.21437892353209" lon="16.131073689922747"><ele>221.0</ele><time>2026-05-04T14:45:09Z</time></trkpt><trkpt lat="45.214624888558724" lon="16.131024695839557"><ele>220.5</ele><time>2026-05-04T14:45:10Z</time></trkpt><trkpt lat="45.21487193840719" lon="16.130972262985523"><ele>220.0</ele><time>2026-05-04T14:45:11Z</time></trkpt><trkpt lat="45.21511749942736" lon="16.130926529010484"><ele>220.0</ele><time>2026-05-04T14:45:12Z</time></trkpt><trkpt lat="45.21536595447734" lon="16.13088411888109"><ele>220.0</ele><time>2026-05-04T14:45:13Z</time></trkpt><trkpt lat="45.21559913514808" lon="16.130851768068307"><ele>218.0</ele><time>2026-05-04T14:45:14Z</time></trkpt><trkpt lat="45.21582639940655" lon="16.13082099114313"><ele>216.0</ele><time>2026-05-04T14:45:15Z</time></trkpt><trkpt lat="45.21605396106584" lon="16.130774798909453"><ele>216.0</ele><time>2026-05-04T14:45:16Z</time></trkpt><trkpt lat="45.21627657175066" lon="16.130690029464404"><ele>216.0</ele><time>2026-05-04T14:45:17Z</time></trkpt><trkpt lat="45.21649733443564" lon="16.130571677288533"><ele>216.0</ele><time>2026-05-04T14:45:18Z</time></trkpt><trkpt lat="45.21671474040537" lon="16.130442704663302"><ele>216.0</ele><time>2026-05-04T14:45:19Z</time></trkpt><trkpt lat="45.21692256015646" lon="16.130322704369046"><ele>216.0</ele><time>2026-05-04T14:45:20Z</time></trkpt><trkpt lat="45.217116751818" lon="16.130213057170145"><ele>216.0</ele><time>2026-05-04T14:45:21Z</time></trkpt><trkpt lat="45.21730212203034" lon="16.130122149230267"><ele>216.0</ele><time>2026-05-04T14:45:22Z</time></trkpt><trkpt lat="45.21747976751109" lon="16.13003844983372"><ele>213.0</ele><time>2026-05-04T14:45:23Z</time></trkpt><trkpt lat="45.21764943341871" lon="16.12997777223803"><ele>210.0</ele><time>2026-05-04T14:45:24Z</time></trkpt><trkpt lat="45.21783082356908" lon="16.129979581171046"><ele>207.0</ele><time>2026-05-04T14:45:25Z</time></trkpt><trkpt lat="45.21800739761913" lon="16.130052854400972"><ele>208.33333333333331</ele><time>2026-05-04T14:45:26Z</time></trkpt><trkpt lat="45.21819721313562" lon="16.130196561688134"><ele>209.66666666666666</ele><time>2026-05-04T14:45:27Z</time></trkpt><trkpt lat="45.21839601771167" lon="16.130350044076913"><ele>211.0</ele><time>2026-05-04T14:45:28Z</time></trkpt><trkpt lat="45.21860733986885" lon="16.130493293884644"><ele>211.0</ele><time>2026-05-04T14:45:29Z</time></trkpt><trkpt lat="45.218814323501135" lon="16.130628988325704"><ele>211.0</ele><time>2026-05-04T14:45:30Z</time></trkpt><trkpt lat="45.21902226901429" lon="16.13077523362194"><ele>211.0</ele><time>2026-05-04T14:45:31Z</time></trkpt><trkpt lat="45.21922303285595" lon="16.13093341533561"><ele>211.0</ele><time>2026-05-04T14:45:32Z</time></trkpt><trkpt lat="45.219420168486224" lon="16.13111633088104"><ele>211.0</ele><time>2026-05-04T14:45:33Z</time></trkpt><trkpt lat="45.21961544879977" lon="16.131316351963104"><ele>211.0</ele><time>2026-05-04T14:45:34Z</time></trkpt><trkpt lat="45.21980488318733" lon="16.131524018968186"><ele>212.0</ele><time>2026-05-04T14:45:35Z</time></trkpt><trkpt lat="45.2199869228588" lon="16.13173620714255"><ele>213.0</ele><time>2026-05-04T14:45:36Z</time></trkpt><trkpt lat="45.22017125874123" lon="16.131962614664154"><ele>213.0</ele><time>2026-05-04T14:45:37Z</time></trkpt><trkpt lat="45.220351237512546" lon="16.132167674746917"><ele>213.0</ele><time>2026-05-04T14:45:38Z</time></trkpt><trkpt lat="45.22051935653524" lon="16.132348813960398"><ele>213.0</ele><time>2026-05-04T14:45:39Z</time></trkpt><trkpt lat="45.220688524973234" lon="16.13250488330897"><ele>212.66666666666669</ele><time>2026-05-04T14:45:40Z</time></trkpt><trkpt lat="45.2208470349892" lon="16.132600871844627"><ele>212.33333333333334</ele><time>2026-05-04T14:45:41Z</time></trkpt><trkpt lat="45.221004533816" lon="16.132630176489876"><ele>212.0</ele><time>2026-05-04T14:45:42Z</time></trkpt><trkpt lat="45.221181050172554" lon="16.132593761233466"><ele>212.0</ele><time>2026-05-04T14:45:43Z</time></trkpt><trkpt lat="45.22137460418409" lon="16.132500480392075"><ele>212.0</ele><time>2026-05-04T14:45:44Z</time></trkpt><trkpt lat="45.22157575262286" lon="16.13238336088068"><ele>212.0</ele><time>2026-05-04T14:45:45Z</time></trkpt><trkpt lat="45.221780387103706" lon="16.13229247923895"><ele>214.0</ele><time>2026-05-04T14:45:46Z</time></trkpt><trkpt lat="45.221978448453285" lon="16.132220198401175"><ele>216.0</ele><time>2026-05-04T14:45:47Z</time></trkpt><trkpt lat="45.22218212905638" lon="16.1321680151851"><ele>218.0</ele><time>2026-05-04T14:45:48Z</time></trkpt><trkpt lat="45.222399599452515" lon="16.132190939919884"><ele>218.0</ele><time>2026-05-04T14:45:49Z</time></trkpt><trkpt lat="45.22263686297507" lon="16.13226665638163"><ele>218.0</ele><time>2026-05-04T14:45:50Z</time></trkpt><trkpt lat="45.22287098721024" lon="16.132357640753167"><ele>212.5</ele><time>2026-05-04T14:45:51Z</time></trkpt><trkpt lat="45.223097021417466" lon="16.13243659881696"><ele>207.0</ele><time>2026-05-04T14:45:52Z</time></trkpt><trkpt lat="45.22331214243482" lon="16.1324861977049"><ele>207.0</ele><time>2026-05-04T14:45:53Z</time></trkpt><trkpt lat="45.22351159985709" lon="16.132496665898056"><ele>207.0</ele><time>2026-05-04T14:45:54Z</time></trkpt><trkpt lat="45.223693659151" lon="16.132505793814847"><ele>207.0</ele><time>2026-05-04T14:45:55Z</time></trkpt><trkpt lat="45.223861014010275" lon="16.13256361667998"><ele>209.0</ele><time>2026-05-04T14:45:56Z</time></trkpt><trkpt lat="45.22402246708903" lon="16.13270399908212"><ele>211.0</ele><time>2026-05-04T14:45:57Z</time></trkpt><trkpt lat="45.22414755039144" lon="16.132881103401825"><ele>213.0</ele><time>2026-05-04T14:45:58Z</time></trkpt><trkpt lat="45.224224189601365" lon="16.133093259412515"><ele>210.66666666666669</ele><time>2026-05-04T14:45:59Z</time></trkpt><trkpt lat="45.22427413294369" lon="16.133339870113698"><ele>208.33333333333334</ele><time>2026-05-04T14:46:00Z</time></trkpt><trkpt lat="45.224300893946904" lon="16.133619483559347"><ele>206.0</ele><time>2026-05-04T14:46:01Z</time></trkpt><trkpt lat="45.224335900998156" lon="16.13390275935677"><ele>204.66666666666669</ele><time>2026-05-04T14:46:02Z</time></trkpt><trkpt lat="45.224392409796536" lon="16.134170656911227"><ele>203.33333333333331</ele><time>2026-05-04T14:46:03Z</time></trkpt><trkpt lat="45.224471016233295" lon="16.134434357739732"><ele>202.0</ele><time>2026-05-04T14:46:04Z</time></trkpt><trkpt lat="45.22457336195826" lon="16.13470169596897"><ele>203.0</ele><time>2026-05-04T14:46:05Z</time></trkpt><trkpt lat="45.22468886971469" lon="16.134964842232183"><ele>204.0</ele><time>2026-05-04T14:46:06Z</time></trkpt><trkpt lat="45.22481244524039" lon="16.135230453738476"><ele>205.0</ele><time>2026-05-04T14:46:07Z</time></trkpt><trkpt lat="45.22493765903262" lon="16.135482452494596"><ele>206.0</ele><time>2026-05-04T14:46:08Z</time></trkpt><trkpt lat="45.225088104758775" lon="16.135703883265656"><ele>207.0</ele><time>2026-05-04T14:46:09Z</time></trkpt><trkpt lat="45.22527121085312" lon="16.13584986811149"><ele>208.0</ele><time>2026-05-04T14:46:10Z</time></trkpt><trkpt lat="45.22549930850352" lon="16.135955909517406"><ele>209.5</ele><time>2026-05-04T14:46:11Z</time></trkpt><trkpt lat="45.225756039342826" lon="16.136042860362984"><ele>211.0</ele><time>2026-05-04T14:46:12Z</time></trkpt><trkpt lat="45.226004181780716" lon="16.13612476960275"><ele>211.0</ele><time>2026-05-04T14:46:13Z</time></trkpt><trkpt lat="45.226221666790224" lon="16.136213120755002"><ele>211.0</ele><time>2026-05-04T14:46:14Z</time></trkpt><trkpt lat="45.22642788570203" lon="16.136278439275138"><ele>211.0</ele><time>2026-05-04T14:46:15Z</time></trkpt><trkpt lat="45.22664052840413" lon="16.136264463221615"><ele>212.0</ele><time>2026-05-04T14:46:16Z</time></trkpt><trkpt lat="45.22685607622145" lon="16.136201735632934"><ele>213.0</ele><time>2026-05-04T14:46:17Z</time></trkpt><trkpt lat="45.227070346705915" lon="16.136148424405533"><ele>214.0</ele><time>2026-05-04T14:46:18Z</time></trkpt><trkpt lat="45.227290744063986" lon="16.13614653848313"><ele>211.66666666666666</ele><time>2026-05-04T14:46:19Z</time></trkpt><trkpt lat="45.227503906425916" lon="16.136239356493224"><ele>209.33333333333331</ele><time>2026-05-04T14:46:20Z</time></trkpt><trkpt lat="45.2276759443208" lon="16.13637229141965"><ele>207.0</ele><time>2026-05-04T14:46:21Z</time></trkpt><trkpt lat="45.227801757977836" lon="16.136544205944528"><ele>204.66666666666669</ele><time>2026-05-04T14:46:22Z</time></trkpt><trkpt lat="45.22788784020302" lon="16.13678521782571"><ele>202.33333333333334</ele><time>2026-05-04T14:46:23Z</time></trkpt><trkpt lat="45.227971799472385" lon="16.137035694421982"><ele>200.0</ele><time>2026-05-04T14:46:24Z</time></trkpt><trkpt lat="45.228059176829355" lon="16.137307991377078"><ele>201.33333333333334</ele><time>2026-05-04T14:46:25Z</time></trkpt><trkpt lat="45.228159702429224" lon="16.137584553484018"><ele>202.66666666666669</ele><time>2026-05-04T14:46:26Z</time></trkpt><trkpt lat="45.228264734633456" lon="16.1378604362234"><ele>204.0</ele><time>2026-05-04T14:46:27Z</time></trkpt><trkpt lat="45.228371590940476" lon="16.138138065548162"><ele>202.0</ele><time>2026-05-04T14:46:28Z</time></trkpt><trkpt lat="45.2284729561074" lon="16.13841659631965"><ele>200.0</ele><time>2026-05-04T14:46:29Z</time></trkpt><trkpt lat="45.22855993801156" lon="16.138711122481332"><ele>198.0</ele><time>2026-05-04T14:46:30Z</time></trkpt><trkpt lat="45.22862584550602" lon="16.13904294020419"><ele>198.5</ele><time>2026-05-04T14:46:31Z</time></trkpt><trkpt lat="45.22868647862518" lon="16.139389945876477"><ele>199.0</ele><time>2026-05-04T14:46:32Z</time></trkpt><trkpt lat="45.228763709322266" lon="16.139723312738774"><ele>199.0</ele><time>2026-05-04T14:46:33Z</time></trkpt><trkpt lat="45.2288579039622" lon="16.140031715607076"><ele>199.0</ele><time>2026-05-04T14:46:34Z</time></trkpt><trkpt lat="45.22894333475599" lon="16.140340763537015"><ele>199.0</ele><time>2026-05-04T14:46:35Z</time></trkpt><trkpt lat="45.228957739739045" lon="16.14068148719099"><ele>199.0</ele><time>2026-05-04T14:46:36Z</time></trkpt><trkpt lat="45.22895038695023" lon="16.141002649748845"><ele>200.0</ele><time>2026-05-04T14:46:37Z</time></trkpt><trkpt lat="45.22898425529449" lon="16.141307604770784"><ele>201.0</ele><time>2026-05-04T14:46:38Z</time></trkpt><trkpt lat="45.22904191174946" lon="16.141624684444558"><ele>202.0</ele><time>2026-05-04T14:46:39Z</time></trkpt><trkpt lat="45.22908961583677" lon="16.14195405530694"><ele>202.0</ele><time>2026-05-04T14:46:40Z</time></trkpt><trkpt lat="45.2291236060026" lon="16.142287126471743"><ele>202.0</ele><time>2026-05-04T14:46:41Z</time></trkpt><trkpt lat="45.229138899736405" lon="16.142638352204685"><ele>201.5</ele><time>2026-05-04T14:46:42Z</time></trkpt><trkpt lat="45.22913222625071" lon="16.14300109484342"><ele>201.0</ele><time>2026-05-04T14:46:43Z</time></trkpt><trkpt lat="45.22910760271562" lon="16.14337523113185"><ele>200.0</ele><time>2026-05-04T14:46:44Z</time></trkpt><trkpt lat="45.22907549605779" lon="16.143748964080842"><ele>199.0</ele><time>2026-05-04T14:46:45Z</time></trkpt><trkpt lat="45.22906139958031" lon="16.144123491825493"><ele>196.5</ele><time>2026-05-04T14:46:46Z</time></trkpt><trkpt lat="45.229088756887656" lon="16.144498183963037"><ele>194.0</ele><time>2026-05-04T14:46:47Z</time></trkpt><trkpt lat="45.22917346467353" lon="16.1448773053466"><ele>190.0</ele><time>2026-05-04T14:46:48Z</time></trkpt><trkpt lat="45.22930026054156" lon="16.145266661226657"><ele>186.0</ele><time>2026-05-04T14:46:49Z</time></trkpt><trkpt lat="45.229451028886096" lon="16.145696811932982"><ele>185.5</ele><time>2026-05-04T14:46:50Z</time></trkpt><trkpt lat="45.22959637916945" lon="16.146132247724093"><ele>185.0</ele><time>2026-05-04T14:46:51Z</time></trkpt><trkpt lat="45.22973708238874" lon="16.14656611715043"><ele>187.5</ele><time>2026-05-04T14:46:52Z</time></trkpt><trkpt lat="45.22986100198172" lon="16.146955272846736"><ele>190.0</ele><time>2026-05-04T14:46:53Z</time></trkpt><trkpt lat="45.22997592854507" lon="16.147302386469086"><ele>189.5</ele><time>2026-05-04T14:46:54Z</time></trkpt><trkpt lat="45.23009893432827" lon="16.14760427720758"><ele>189.0</ele><time>2026-05-04T14:46:55Z</time></trkpt><trkpt lat="45.230253017309316" lon="16.14786624984685"><ele>189.0</ele><time>2026-05-04T14:46:56Z</time></trkpt><trkpt lat="45.23042416644002" lon="16.148098675023235"><ele>189.0</ele><time>2026-05-04T14:46:57Z</time></trkpt><trkpt lat="45.230605556309214" lon="16.148310710249852"><ele>197.0</ele><time>2026-05-04T14:46:58Z</time></trkpt><trkpt lat="45.23078409868717" lon="16.148527336431727"><ele>205.0</ele><time>2026-05-04T14:46:59Z</time></trkpt><trkpt lat="45.23094688392865" lon="16.148739905903586"><ele>205.0</ele><time>2026-05-04T14:47:00Z</time></trkpt><trkpt lat="45.23110059175677" lon="16.148942853442875"><ele>205.0</ele><time>2026-05-04T14:47:01Z</time></trkpt><trkpt lat="45.23124589213261" lon="16.14910929792472"><ele>205.0</ele><time>2026-05-04T14:47:02Z</time></trkpt><trkpt lat="45.231398020973664" lon="16.14924226496302"><ele>210.66666666666666</ele><time>2026-05-04T14:47:03Z</time></trkpt><trkpt lat="45.23155062835026" lon="16.14933143830801"><ele>216.33333333333331</ele><time>2026-05-04T14:47:04Z</time></trkpt><trkpt lat="45.23170718484025" lon="16.149367905281814"><ele>222.0</ele><time>2026-05-04T14:47:05Z</time></trkpt><trkpt lat="45.23186961749876" lon="16.149341145142998"><ele>222.0</ele><time>2026-05-04T14:47:06Z</time></trkpt><trkpt lat="45.23202987029792" lon="16.149266565822167"><ele>222.0</ele><time>2026-05-04T14:47:07Z</time></trkpt><trkpt lat="45.23218693815365" lon="16.149179031550645"><ele>222.0</ele><time>2026-05-04T14:47:08Z</time></trkpt><trkpt lat="45.23235554000359" lon="16.14909361235703"><ele>223.33333333333331</ele><time>2026-05-04T14:47:09Z</time></trkpt><trkpt lat="45.232530038107114" lon="16.14899634313557"><ele>224.66666666666666</ele><time>2026-05-04T14:47:10Z</time></trkpt><trkpt lat="45.232704720198015" lon="16.148857013625822"><ele>226.0</ele><time>2026-05-04T14:47:11Z</time></trkpt><trkpt lat="45.232874136059564" lon="16.148674685605055"><ele>226.0</ele><time>2026-05-04T14:47:12Z</time></trkpt><trkpt lat="45.233024001380656" lon="16.148448057463167"><ele>226.0</ele><time>2026-05-04T14:47:13Z</time></trkpt><trkpt lat="45.23315830446805" lon="16.14817953166132"><ele>217.0</ele><time>2026-05-04T14:47:14Z</time></trkpt><trkpt lat="45.233293160097496" lon="16.147908408702403"><ele>208.0</ele><time>2026-05-04T14:47:15Z</time></trkpt><trkpt lat="45.233411010790235" lon="16.147643898085526"><ele>208.0</ele><time>2026-05-04T14:47:16Z</time></trkpt><trkpt lat="45.23353294657288" lon="16.14740024267304"><ele>208.0</ele><time>2026-05-04T14:47:17Z</time></trkpt><trkpt lat="45.23365238405879" lon="16.147168127462212"><ele>208.0</ele><time>2026-05-04T14:47:18Z</time></trkpt><trkpt lat="45.233789594158786" lon="16.14695008763188"><ele>209.66666666666666</ele><time>2026-05-04T14:47:19Z</time></trkpt><trkpt lat="45.233961109445055" lon="16.146778799535614"><ele>211.33333333333331</ele><time>2026-05-04T14:47:20Z</time></trkpt><trkpt lat="45.234142320832" lon="16.146653276500565"><ele>213.0</ele><time>2026-05-04T14:47:21Z</time></trkpt><trkpt lat="45.23430761275989" lon="16.146550731943467"><ele>210.60000000000002</ele><time>2026-05-04T14:47:22Z</time></trkpt><trkpt lat="45.23444758487251" lon="16.14647312585867"><ele>208.20000000000002</ele><time>2026-05-04T14:47:23Z</time></trkpt><trkpt lat="45.23456603496068" lon="16.146451315570335"><ele>205.8</ele><time>2026-05-04T14:47:24Z</time></trkpt><trkpt lat="45.23465436990793" lon="16.146498862456347"><ele>203.4</ele><time>2026-05-04T14:47:25Z</time></trkpt><trkpt lat="45.23470760677506" lon="16.146580122652594"><ele>201.0</ele><time>2026-05-04T14:47:26Z</time></trkpt><trkpt lat="45.234733044263436" lon="16.14669782246682"><ele>197.75</ele><time>2026-05-04T14:47:27Z</time></trkpt><trkpt lat="45.23473977600127" lon="16.146848021415295"><ele>194.5</ele><time>2026-05-04T14:47:28Z</time></trkpt><trkpt lat="45.234694892218265" lon="16.147017079711134"><ele>191.25</ele><time>2026-05-04T14:47:29Z</time></trkpt><trkpt lat="45.23461709623825" lon="16.147193772206382"><ele>188.0</ele><time>2026-05-04T14:47:30Z</time></trkpt><trkpt lat="45.234522342795366" lon="16.147391758793283"><ele>187.33333333333331</ele><time>2026-05-04T14:47:31Z</time></trkpt><trkpt lat="45.23442196610797" lon="16.14760313696879"><ele>186.66666666666666</ele><time>2026-05-04T14:47:32Z</time></trkpt><trkpt lat="45.234315066429694" lon="16.14783791105737"><ele>186.0</ele><time>2026-05-04T14:47:33Z</time></trkpt><trkpt lat="45.23421316213287" lon="16.148087618423084"><ele>186.33333333333334</ele><time>2026-05-04T14:47:34Z</time></trkpt><trkpt lat="45.234109009801" lon="16.14835818773647"><ele>186.66666666666669</ele><time>2026-05-04T14:47:35Z</time></trkpt><trkpt lat="45.23400910252357" lon="16.148636152507095"><ele>187.0</ele><time>2026-05-04T14:47:36Z</time></trkpt><trkpt lat="45.233918904964966" lon="16.148945129662213"><ele>187.0</ele><time>2026-05-04T14:47:37Z</time></trkpt><trkpt lat="45.233832608469434" lon="16.149287796990283"><ele>187.0</ele><time>2026-05-04T14:47:38Z</time></trkpt><trkpt lat="45.23375486838138" lon="16.149663626812067"><ele>186.0</ele><time>2026-05-04T14:47:39Z</time></trkpt><trkpt lat="45.23368963515426" lon="16.150065021839183"><ele>185.0</ele><time>2026-05-04T14:47:40Z</time></trkpt><trkpt lat="45.23362765184212" lon="16.150489977625114"><ele>183.5</ele><time>2026-05-04T14:47:41Z</time></trkpt><trkpt lat="45.23356537065197" lon="16.15088328362375"><ele>182.0</ele><time>2026-05-04T14:47:42Z</time></trkpt><trkpt lat="45.23350272193616" lon="16.151273692264777"><ele>181.0</ele><time>2026-05-04T14:47:43Z</time></trkpt><trkpt lat="45.23344105508228" lon="16.151664033125936"><ele>180.0</ele><time>2026-05-04T14:47:44Z</time></trkpt><trkpt lat="45.23338370001705" lon="16.152048527361107"><ele>180.5</ele><time>2026-05-04T14:47:45Z</time></trkpt><trkpt lat="45.23332987796217" lon="16.152422290923166"><ele>181.0</ele><time>2026-05-04T14:47:46Z</time></trkpt><trkpt lat="45.23327844840173" lon="16.15277187545064"><ele>181.0</ele><time>2026-05-04T14:47:47Z</time></trkpt><trkpt lat="45.23323247271864" lon="16.153097166887775"><ele>181.0</ele><time>2026-05-04T14:47:48Z</time></trkpt><trkpt lat="45.233205877240096" lon="16.153417521521597"><ele>181.0</ele><time>2026-05-04T14:47:49Z</time></trkpt><trkpt lat="45.23321245978875" lon="16.153739007037306"><ele>181.0</ele><time>2026-05-04T14:47:50Z</time></trkpt><trkpt lat="45.23326197985265" lon="16.15405990331322"><ele>180.0</ele><time>2026-05-04T14:47:51Z</time></trkpt><trkpt lat="45.23333988728777" lon="16.154382249076907"><ele>179.0</ele><time>2026-05-04T14:47:52Z</time></trkpt><trkpt lat="45.23342948438214" lon="16.154716328064232"><ele>178.5</ele><time>2026-05-04T14:47:53Z</time></trkpt><trkpt lat="45.23353056863356" lon="16.155063535304148"><ele>178.0</ele><time>2026-05-04T14:47:54Z</time></trkpt><trkpt lat="45.23364272014926" lon="16.15544386825391"><ele>176.5</ele><time>2026-05-04T14:47:55Z</time></trkpt><trkpt lat="45.23375297607232" lon="16.15582559616316"><ele>175.0</ele><time>2026-05-04T14:47:56Z</time></trkpt><trkpt lat="45.23385386446011" lon="16.15618391884041"><ele>175.0</ele><time>2026-05-04T14:47:57Z</time></trkpt><trkpt lat="45.23395259355888" lon="16.156532969259043"><ele>175.0</ele><time>2026-05-04T14:47:58Z</time></trkpt><trkpt lat="45.23404712123293" lon="16.15687474216536"><ele>174.5</ele><time>2026-05-04T14:47:59Z</time></trkpt><trkpt lat="45.23413607582045" lon="16.15720446187182"><ele>174.0</ele><time>2026-05-04T14:48:00Z</time></trkpt><trkpt lat="45.234211598363125" lon="16.15753672852222"><ele>173.0</ele><time>2026-05-04T14:48:01Z</time></trkpt><trkpt lat="45.23424057180698" lon="16.15785655226705"><ele>172.0</ele><time>2026-05-04T14:48:02Z</time></trkpt><trkpt lat="45.23420460387595" lon="16.15817355172216"><ele>171.5</ele><time>2026-05-04T14:48:03Z</time></trkpt><trkpt lat="45.234135095788794" lon="16.158496998345008"><ele>171.0</ele><time>2026-05-04T14:48:04Z</time></trkpt><trkpt lat="45.23402918442792" lon="16.15883968174751"><ele>171.5</ele><time>2026-05-04T14:48:05Z</time></trkpt><trkpt lat="45.233926558791175" lon="16.159206862817"><ele>172.0</ele><time>2026-05-04T14:48:06Z</time></trkpt><trkpt lat="45.23382211112074" lon="16.159630510875115"><ele>171.5</ele><time>2026-05-04T14:48:07Z</time></trkpt><trkpt lat="45.233716620173674" lon="16.16006472227079"><ele>171.0</ele><time>2026-05-04T14:48:08Z</time></trkpt><trkpt lat="45.233612525244894" lon="16.160489772476936"><ele>170.5</ele><time>2026-05-04T14:48:09Z</time></trkpt><trkpt lat="45.23351080129313" lon="16.160887805479344"><ele>170.0</ele><time>2026-05-04T14:48:10Z</time></trkpt><trkpt lat="45.233414171669395" lon="16.16128938286257"><ele>170.0</ele><time>2026-05-04T14:48:11Z</time></trkpt><trkpt lat="45.233330830658154" lon="16.161691104048458"><ele>170.0</ele><time>2026-05-04T14:48:12Z</time></trkpt><trkpt lat="45.23327420208731" lon="16.162100791477116"><ele>170.0</ele><time>2026-05-04T14:48:13Z</time></trkpt><trkpt lat="45.233254301470964" lon="16.16252722251156"><ele>170.0</ele><time>2026-05-04T14:48:14Z</time></trkpt><trkpt lat="45.2332646293429" lon="16.16294914067167"><ele>170.0</ele><time>2026-05-04T14:48:15Z</time></trkpt><trkpt lat="45.233280359700004" lon="16.16334572601986"><ele>170.0</ele><time>2026-05-04T14:48:16Z</time></trkpt><trkpt lat="45.233285339840826" lon="16.163712670937127"><ele>168.5</ele><time>2026-05-04T14:48:17Z</time></trkpt><trkpt lat="45.23328183473542" lon="16.164056452252847"><ele>167.0</ele><time>2026-05-04T14:48:18Z</time></trkpt><trkpt lat="45.233283896434884" lon="16.16437799010653"><ele>167.0</ele><time>2026-05-04T14:48:19Z</time></trkpt><trkpt lat="45.2333053942149" lon="16.16469084737478"><ele>167.0</ele><time>2026-05-04T14:48:20Z</time></trkpt><trkpt lat="45.23337789508151" lon="16.16498600979864"><ele>167.0</ele><time>2026-05-04T14:48:21Z</time></trkpt><trkpt lat="45.23350283557194" lon="16.165281059991976"><ele>166.0</ele><time>2026-05-04T14:48:22Z</time></trkpt><trkpt lat="45.23367205570894" lon="16.165548978483198"><ele>165.0</ele><time>2026-05-04T14:48:23Z</time></trkpt><trkpt lat="45.23385742144792" lon="16.165823991999382"><ele>165.5</ele><time>2026-05-04T14:48:24Z</time></trkpt><trkpt lat="45.23403531378606" lon="16.166101393117042"><ele>166.0</ele><time>2026-05-04T14:48:25Z</time></trkpt><trkpt lat="45.23421565005542" lon="16.166396974990825"><ele>165.0</ele><time>2026-05-04T14:48:26Z</time></trkpt><trkpt lat="45.234399006446466" lon="16.166699234935347"><ele>164.0</ele><time>2026-05-04T14:48:27Z</time></trkpt><trkpt lat="45.23457927624701" lon="16.167002493004762"><ele>164.0</ele><time>2026-05-04T14:48:28Z</time></trkpt><trkpt lat="45.23476689611182" lon="16.167308237518405"><ele>164.0</ele><time>2026-05-04T14:48:29Z</time></trkpt><trkpt lat="45.23496333344446" lon="16.16762769605825"><ele>163.5</ele><time>2026-05-04T14:48:30Z</time></trkpt><trkpt lat="45.23516328731123" lon="16.167955255944"><ele>163.0</ele><time>2026-05-04T14:48:31Z</time></trkpt><trkpt lat="45.2353617982589" lon="16.168284279703926"><ele>161.0</ele><time>2026-05-04T14:48:32Z</time></trkpt><trkpt lat="45.235557098162865" lon="16.16860392569769"><ele>159.0</ele><time>2026-05-04T14:48:33Z</time></trkpt><trkpt lat="45.2357595900611" lon="16.16891591261825"><ele>160.5</ele><time>2026-05-04T14:48:34Z</time></trkpt><trkpt lat="45.235968520900514" lon="16.169207101602748"><ele>162.0</ele><time>2026-05-04T14:48:35Z</time></trkpt><trkpt lat="45.23618212267466" lon="16.16946615652797"><ele>162.0</ele><time>2026-05-04T14:48:36Z</time></trkpt><trkpt lat="45.23641278041642" lon="16.169690885671933"><ele>162.0</ele><time>2026-05-04T14:48:37Z</time></trkpt><trkpt lat="45.23665580799442" lon="16.169897777894956"><ele>162.0</ele><time>2026-05-04T14:48:38Z</time></trkpt><trkpt lat="45.23690102769493" lon="16.17009284628416"><ele>162.0</ele><time>2026-05-04T14:48:39Z</time></trkpt><trkpt lat="45.23713869447884" lon="16.17028019548183"><ele>166.5</ele><time>2026-05-04T14:48:40Z</time></trkpt><trkpt lat="45.23737418585628" lon="16.170473135138398"><ele>171.0</ele><time>2026-05-04T14:48:41Z</time></trkpt><trkpt lat="45.23760617783115" lon="16.17066255230179"><ele>165.0</ele><time>2026-05-04T14:48:42Z</time></trkpt><trkpt lat="45.237838244617635" lon="16.170852151099172"><ele>159.0</ele><time>2026-05-04T14:48:43Z</time></trkpt><trkpt lat="45.23805844132525" lon="16.171036105362827"><ele>163.5</ele><time>2026-05-04T14:48:44Z</time></trkpt><trkpt lat="45.238286818386825" lon="16.171231840781505"><ele>168.0</ele><time>2026-05-04T14:48:45Z</time></trkpt><trkpt lat="45.23850696764287" lon="16.17140853082266"><ele>164.0</ele><time>2026-05-04T14:48:46Z</time></trkpt><trkpt lat="45.23871776198684" lon="16.171579065300268"><ele>160.0</ele><time>2026-05-04T14:48:47Z</time></trkpt><trkpt lat="45.23891853035776" lon="16.171757134654396"><ele>164.5</ele><time>2026-05-04T14:48:48Z</time></trkpt><trkpt lat="45.239114943762104" lon="16.171955604359518"><ele>169.0</ele><time>2026-05-04T14:48:49Z</time></trkpt><trkpt lat="45.23930447726816" lon="16.172198231596074"><ele>165.0</ele><time>2026-05-04T14:48:50Z</time></trkpt><trkpt lat="45.23948205133546" lon="16.172465682639842"><ele>161.0</ele><time>2026-05-04T14:48:51Z</time></trkpt><trkpt lat="45.23964383976301" lon="16.172730872489065"><ele>161.5</ele><time>2026-05-04T14:48:52Z</time></trkpt><trkpt lat="45.23980439185179" lon="16.17300431513314"><ele>162.0</ele><time>2026-05-04T14:48:53Z</time></trkpt><trkpt lat="45.23996583389049" lon="16.17325997568299"><ele>162.0</ele><time>2026-05-04T14:48:54Z</time></trkpt><trkpt lat="45.240142861157075" lon="16.173509156194616"><ele>162.0</ele><time>2026-05-04T14:48:55Z</time></trkpt><trkpt lat="45.240327282426" lon="16.173761999493536"><ele>162.5</ele><time>2026-05-04T14:48:56Z</time></trkpt><trkpt lat="45.24051496183744" lon="16.174023230208228"><ele>163.0</ele><time>2026-05-04T14:48:57Z</time></trkpt><trkpt lat="45.24071446810097" lon="16.174299645467098"><ele>163.0</ele><time>2026-05-04T14:48:58Z</time></trkpt><trkpt lat="45.24092114552444" lon="16.174589050543563"><ele>163.0</ele><time>2026-05-04T14:48:59Z</time></trkpt><trkpt lat="45.24113306594631" lon="16.17488193265827"><ele>162.0</ele><time>2026-05-04T14:49:00Z</time></trkpt><trkpt lat="45.241347606527654" lon="16.175185941926486"><ele>161.0</ele><time>2026-05-04T14:49:01Z</time></trkpt><trkpt lat="45.24156002992662" lon="16.175501995272313"><ele>157.5</ele><time>2026-05-04T14:49:02Z</time></trkpt><trkpt lat="45.2417504157294" lon="16.175850410148172"><ele>154.0</ele><time>2026-05-04T14:49:03Z</time></trkpt><trkpt lat="45.24190034166577" lon="16.17621880118398"><ele>153.0</ele><time>2026-05-04T14:49:04Z</time></trkpt><trkpt lat="45.24204742547921" lon="16.17658297280252"><ele>152.0</ele><time>2026-05-04T14:49:05Z</time></trkpt><trkpt lat="45.24222006409505" lon="16.176930645003477"><ele>152.0</ele><time>2026-05-04T14:49:06Z</time></trkpt><trkpt lat="45.242424564418876" lon="16.177258190437712"><ele>152.0</ele><time>2026-05-04T14:49:07Z</time></trkpt><trkpt lat="45.2426567192739" lon="16.17756965985636"><ele>152.0</ele><time>2026-05-04T14:49:08Z</time></trkpt><trkpt lat="45.24290016658559" lon="16.177878043921563"><ele>152.0</ele><time>2026-05-04T14:49:09Z</time></trkpt><trkpt lat="45.24314852498917" lon="16.178185710306053"><ele>152.5</ele><time>2026-05-04T14:49:10Z</time></trkpt><trkpt lat="45.24339320217695" lon="16.178482353674795"><ele>153.0</ele><time>2026-05-04T14:49:11Z</time></trkpt><trkpt lat="45.24363366318207" lon="16.17876881654847"><ele>152.5</ele><time>2026-05-04T14:49:12Z</time></trkpt><trkpt lat="45.24387378295331" lon="16.17906084750161"><ele>152.0</ele><time>2026-05-04T14:49:13Z</time></trkpt><trkpt lat="45.244104423673285" lon="16.179349776571662"><ele>152.0</ele><time>2026-05-04T14:49:14Z</time></trkpt><trkpt lat="45.244327581766285" lon="16.17962830174054"><ele>152.0</ele><time>2026-05-04T14:49:15Z</time></trkpt><trkpt lat="45.244542201896145" lon="16.179885839014492"><ele>152.0</ele><time>2026-05-04T14:49:16Z</time></trkpt><trkpt lat="45.244745073977086" lon="16.18008206382497"><ele>152.0</ele><time>2026-05-04T14:49:17Z</time></trkpt><trkpt lat="45.24496474076145" lon="16.180216203570172"><ele>151.5</ele><time>2026-05-04T14:49:18Z</time></trkpt><trkpt lat="45.24521390355305" lon="16.18028075764684"><ele>151.0</ele><time>2026-05-04T14:49:19Z</time></trkpt><trkpt lat="45.24548460473476" lon="16.18032119518231"><ele>150.0</ele><time>2026-05-04T14:49:20Z</time></trkpt><trkpt lat="45.24574756614366" lon="16.18037888702126"><ele>149.0</ele><time>2026-05-04T14:49:21Z</time></trkpt><trkpt lat="45.24599941145193" lon="16.180449695933675"><ele>149.0</ele><time>2026-05-04T14:49:22Z</time></trkpt><trkpt lat="45.24622534457916" lon="16.180539300861668"><ele>149.0</ele><time>2026-05-04T14:49:23Z</time></trkpt><trkpt lat="45.24642974962021" lon="16.18064327209297"><ele>149.0</ele><time>2026-05-04T14:49:24Z</time></trkpt><trkpt lat="45.246612508133545" lon="16.180739707418265"><ele>149.0</ele><time>2026-05-04T14:49:25Z</time></trkpt><trkpt lat="45.24678445132114" lon="16.18082790946059"><ele>149.0</ele><time>2026-05-04T14:49:26Z</time></trkpt><trkpt lat="45.24693538325349" lon="16.18091582788212"><ele>149.0</ele><time>2026-05-04T14:49:27Z</time></trkpt><trkpt lat="45.247069937143756" lon="16.18101982740415"><ele>149.0</ele><time>2026-05-04T14:49:28Z</time></trkpt><trkpt lat="45.2471831599657" lon="16.18114943897748"><ele>149.0</ele><time>2026-05-04T14:49:29Z</time></trkpt><trkpt lat="45.24726857461294" lon="16.181296092874653"><ele>149.0</ele><time>2026-05-04T14:49:30Z</time></trkpt><trkpt lat="45.24734506563989" lon="16.181446622649545"><ele>149.25</ele><time>2026-05-04T14:49:31Z</time></trkpt><trkpt lat="45.24742929260313" lon="16.18159166871906"><ele>149.5</ele><time>2026-05-04T14:49:32Z</time></trkpt><trkpt lat="45.24752219879444" lon="16.18172395358767"><ele>149.75</ele><time>2026-05-04T14:49:33Z</time></trkpt><trkpt lat="45.247633745742775" lon="16.18184831408417"><ele>150.0</ele><time>2026-05-04T14:49:34Z</time></trkpt><trkpt lat="45.2477683654058" lon="16.18194906091417"><ele>150.0</ele><time>2026-05-04T14:49:35Z</time></trkpt><trkpt lat="45.24792147912255" lon="16.181999920198187"><ele>150.0</ele><time>2026-05-04T14:49:36Z</time></trkpt><trkpt lat="45.24807960895439" lon="16.181999967986414"><ele>150.0</ele><time>2026-05-04T14:49:37Z</time></trkpt><trkpt lat="45.24824216709726" lon="16.18194968389937"><ele>149.66666666666666</ele><time>2026-05-04T14:49:38Z</time></trkpt><trkpt lat="45.24840125929482" lon="16.181872360316273"><ele>149.33333333333331</ele><time>2026-05-04T14:49:39Z</time></trkpt><trkpt lat="45.2485651945069" lon="16.181793971554246"><ele>149.0</ele><time>2026-05-04T14:49:40Z</time></trkpt><trkpt lat="45.248737176853616" lon="16.18172418199207"><ele>149.0</ele><time>2026-05-04T14:49:41Z</time></trkpt><trkpt lat="45.2489162281105" lon="16.181658566747714"><ele>149.0</ele><time>2026-05-04T14:49:42Z</time></trkpt><trkpt lat="45.24909137429222" lon="16.18159252670819"><ele>149.0</ele><time>2026-05-04T14:49:43Z</time></trkpt><trkpt lat="45.24925893962218" lon="16.181536648344853"><ele>149.25</ele><time>2026-05-04T14:49:44Z</time></trkpt><trkpt lat="45.24940886813746" lon="16.18151406678491"><ele>149.5</ele><time>2026-05-04T14:49:45Z</time></trkpt><trkpt lat="45.24955062590157" lon="16.181517792111585"><ele>149.75</ele><time>2026-05-04T14:49:46Z</time></trkpt><trkpt lat="45.24968248241349" lon="16.181532757432564"><ele>150.0</ele><time>2026-05-04T14:49:47Z</time></trkpt><trkpt lat="45.24980194202953" lon="16.18154615675342"><ele>150.0</ele><time>2026-05-04T14:49:48Z</time></trkpt><trkpt lat="45.249931819828014" lon="16.181560599764342"><ele>150.0</ele><time>2026-05-04T14:49:49Z</time></trkpt><trkpt lat="45.25007679354278" lon="16.18156938956766"><ele>150.0</ele><time>2026-05-04T14:49:50Z</time></trkpt><trkpt lat="45.25022376694759" lon="16.181567609921494"><ele>150.0</ele><time>2026-05-04T14:49:51Z</time></trkpt><trkpt lat="45.25036518170045" lon="16.18157331989651"><ele>150.0</ele><time>2026-05-04T14:49:52Z</time></trkpt><trkpt lat="45.25050845573305" lon="16.181590295465657"><ele>150.0</ele><time>2026-05-04T14:49:53Z</time></trkpt><trkpt lat="45.250654144490255" lon="16.181612168008545"><ele>150.0</ele><time>2026-05-04T14:49:54Z</time></trkpt><trkpt lat="45.25080425762302" lon="16.181633690553287"><ele>150.0</ele><time>2026-05-04T14:49:55Z</time></trkpt><trkpt lat="45.250956565129805" lon="16.181652868691728"><ele>150.0</ele><time>2026-05-04T14:49:56Z</time></trkpt><trkpt lat="45.25111233786488" lon="16.181674618585806"><ele>150.0</ele><time>2026-05-04T14:49:57Z</time></trkpt><trkpt lat="45.25128272732273" lon="16.18169700695689"><ele>150.0</ele><time>2026-05-04T14:49:58Z</time></trkpt><trkpt lat="45.2514628855645" lon="16.181721882782742"><ele>149.66666666666666</ele><time>2026-05-04T14:49:59Z</time></trkpt><trkpt lat="45.25164605639898" lon="16.181746048375686"><ele>149.33333333333331</ele><time>2026-05-04T14:50:00Z</time></trkpt><trkpt lat="45.251833884150926" lon="16.181777110895073"><ele>149.0</ele><time>2026-05-04T14:50:01Z</time></trkpt><trkpt lat="45.252031977821304" lon="16.181811189565476"><ele>149.0</ele><time>2026-05-04T14:50:02Z</time></trkpt><trkpt lat="45.252233560483404" lon="16.181850693034537"><ele>149.0</ele><time>2026-05-04T14:50:03Z</time></trkpt><trkpt lat="45.2524440424697" lon="16.181883347208725"><ele>149.0</ele><time>2026-05-04T14:50:04Z</time></trkpt><trkpt lat="45.25265205598378" lon="16.181906731005906"><ele>149.0</ele><time>2026-05-04T14:50:05Z</time></trkpt><trkpt lat="45.25286459863941" lon="16.181914967817526"><ele>149.0</ele><time>2026-05-04T14:50:06Z</time></trkpt><trkpt lat="45.2530759754081" lon="16.18193224164794"><ele>149.0</ele><time>2026-05-04T14:50:07Z</time></trkpt><trkpt lat="45.253279094056985" lon="16.18196899930392"><ele>149.33333333333331</ele><time>2026-05-04T14:50:08Z</time></trkpt><trkpt lat="45.25347498441298" lon="16.18200649792279"><ele>149.66666666666666</ele><time>2026-05-04T14:50:09Z</time></trkpt><trkpt lat="45.25365608350998" lon="16.182038103802455"><ele>150.0</ele><time>2026-05-04T14:50:10Z</time></trkpt><trkpt lat="45.25382282544819" lon="16.18206887355758"><ele>150.0</ele><time>2026-05-04T14:50:11Z</time></trkpt><trkpt lat="45.253980485294925" lon="16.182104425345802"><ele>150.0</ele><time>2026-05-04T14:50:12Z</time></trkpt><trkpt lat="45.254117173037386" lon="16.18216383537157"><ele>150.0</ele><time>2026-05-04T14:50:13Z</time></trkpt><trkpt lat="45.254239554583954" lon="16.18225583577736"><ele>150.0</ele><time>2026-05-04T14:50:14Z</time></trkpt><trkpt lat="45.25433925234584" lon="16.182367768416352"><ele>151.5</ele><time>2026-05-04T14:50:15Z</time></trkpt><trkpt lat="45.254429846653686" lon="16.18248181302909"><ele>153.0</ele><time>2026-05-04T14:50:16Z</time></trkpt><trkpt lat="45.254518703251634" lon="16.182595090718962"><ele>154.5</ele><time>2026-05-04T14:50:17Z</time></trkpt><trkpt lat="45.25461462424137" lon="16.182691575489795"><ele>156.0</ele><time>2026-05-04T14:50:18Z</time></trkpt><trkpt lat="45.254725707425365" lon="16.18275198261841"><ele>156.75</ele><time>2026-05-04T14:50:19Z</time></trkpt><trkpt lat="45.25484912522198" lon="16.182757398201126"><ele>157.5</ele><time>2026-05-04T14:50:20Z</time></trkpt><trkpt lat="45.25498473413025" lon="16.18272016400399"><ele>158.25</ele><time>2026-05-04T14:50:21Z</time></trkpt><trkpt lat="45.25513641797816" lon="16.18263116877685"><ele>159.0</ele><time>2026-05-04T14:50:22Z</time></trkpt><trkpt lat="45.255286756853316" lon="16.18251387557281"><ele>159.0</ele><time>2026-05-04T14:50:23Z</time></trkpt><trkpt lat="45.25544490201553" lon="16.18238066667963"><ele>159.0</ele><time>2026-05-04T14:50:24Z</time></trkpt><trkpt lat="45.25560945619406" lon="16.18223752097469"><ele>159.0</ele><time>2026-05-04T14:50:25Z</time></trkpt><trkpt lat="45.25577018179483" lon="16.18207752198343"><ele>159.66666666666666</ele><time>2026-05-04T14:50:26Z</time></trkpt><trkpt lat="45.25590316410985" lon="16.181908743108785"><ele>160.33333333333331</ele><time>2026-05-04T14:50:27Z</time></trkpt><trkpt lat="45.25600855007733" lon="16.181702870491964"><ele>161.0</ele><time>2026-05-04T14:50:28Z</time></trkpt><trkpt lat="45.25610639629967" lon="16.181467049292756"><ele>158.66666666666666</ele><time>2026-05-04T14:50:29Z</time></trkpt><trkpt lat="45.25618992233177" lon="16.18120895225717"><ele>156.33333333333334</ele><time>2026-05-04T14:50:30Z</time></trkpt><trkpt lat="45.25626723110953" lon="16.18093465354095"><ele>154.0</ele><time>2026-05-04T14:50:31Z</time></trkpt><trkpt lat="45.25634507953019" lon="16.180667241483444"><ele>153.0</ele><time>2026-05-04T14:50:32Z</time></trkpt><trkpt lat="45.25643740176421" lon="16.180418804182022"><ele>152.0</ele><time>2026-05-04T14:50:33Z</time></trkpt><trkpt lat="45.256536272559366" lon="16.18017217927237"><ele>151.0</ele><time>2026-05-04T14:50:34Z</time></trkpt><trkpt lat="45.2566149657151" lon="16.179903235985964"><ele>151.66666666666669</ele><time>2026-05-04T14:50:35Z</time></trkpt><trkpt lat="45.25667074387513" lon="16.17961362134707"><ele>152.33333333333334</ele><time>2026-05-04T14:50:36Z</time></trkpt><trkpt lat="45.25672724502338" lon="16.17929850152047"><ele>153.0</ele><time>2026-05-04T14:50:37Z</time></trkpt><trkpt lat="45.25681822352758" lon="16.178998416832698"><ele>153.0</ele><time>2026-05-04T14:50:38Z</time></trkpt><trkpt lat="45.256942267963446" lon="16.17870259018074"><ele>153.0</ele><time>2026-05-04T14:50:39Z</time></trkpt><trkpt lat="45.25707895509036" lon="16.17839304194015"><ele>154.0</ele><time>2026-05-04T14:50:40Z</time></trkpt><trkpt lat="45.25721480486676" lon="16.17807126939967"><ele>155.0</ele><time>2026-05-04T14:50:41Z</time></trkpt><trkpt lat="45.25733665597932" lon="16.177756585343385"><ele>155.0</ele><time>2026-05-04T14:50:42Z</time></trkpt><trkpt lat="45.25745484754852" lon="16.177443639476312"><ele>155.0</ele><time>2026-05-04T14:50:43Z</time></trkpt><trkpt lat="45.25756928322886" lon="16.17714008328785"><ele>153.5</ele><time>2026-05-04T14:50:44Z</time></trkpt><trkpt lat="45.25768051978799" lon="16.17685223269837"><ele>152.0</ele><time>2026-05-04T14:50:45Z</time></trkpt><trkpt lat="45.25779763009437" lon="16.176570155666862"><ele>153.0</ele><time>2026-05-04T14:50:46Z</time></trkpt><trkpt lat="45.25791923804141" lon="16.176296488183144"><ele>154.0</ele><time>2026-05-04T14:50:47Z</time></trkpt><trkpt lat="45.258062135620605" lon="16.176064016802552"><ele>155.0</ele><time>2026-05-04T14:50:48Z</time></trkpt><trkpt lat="45.258229477523315" lon="16.175905738146792"><ele>155.0</ele><time>2026-05-04T14:50:49Z</time></trkpt><trkpt lat="45.258427985906856" lon="16.175803591008172"><ele>155.0</ele><time>2026-05-04T14:50:50Z</time></trkpt><trkpt lat="45.25863535521753" lon="16.1757530232931"><ele>155.0</ele><time>2026-05-04T14:50:51Z</time></trkpt><trkpt lat="45.25885602782159" lon="16.175698463742552"><ele>152.5</ele><time>2026-05-04T14:50:52Z</time></trkpt><trkpt lat="45.25910151441956" lon="16.17562390855309"><ele>150.0</ele><time>2026-05-04T14:50:53Z</time></trkpt><trkpt lat="45.25937014672738" lon="16.17552472321079"><ele>150.0</ele><time>2026-05-04T14:50:54Z</time></trkpt><trkpt lat="45.25964725481292" lon="16.175429291624482"><ele>150.0</ele><time>2026-05-04T14:50:55Z</time></trkpt><trkpt lat="45.25993140336429" lon="16.175332608990466"><ele>150.0</ele><time>2026-05-04T14:50:56Z</time></trkpt><trkpt lat="45.2602201565967" lon="16.17522977604557"><ele>150.0</ele><time>2026-05-04T14:50:57Z</time></trkpt><trkpt lat="45.26050638485071" lon="16.175131814624823"><ele>150.5</ele><time>2026-05-04T14:50:58Z</time></trkpt><trkpt lat="45.26079224825293" lon="16.175030900300467"><ele>151.0</ele><time>2026-05-04T14:50:59Z</time></trkpt><trkpt lat="45.26108280456105" lon="16.174931090393855"><ele>150.0</ele><time>2026-05-04T14:51:00Z</time></trkpt><trkpt lat="45.261367372419755" lon="16.174834739882883"><ele>149.0</ele><time>2026-05-04T14:51:01Z</time></trkpt><trkpt lat="45.26166741506942" lon="16.174730317800044"><ele>148.5</ele><time>2026-05-04T14:51:02Z</time></trkpt><trkpt lat="45.26196637428235" lon="16.174623624675913"><ele>148.0</ele><time>2026-05-04T14:51:03Z</time></trkpt><trkpt lat="45.262261436495784" lon="16.17452306007203"><ele>148.5</ele><time>2026-05-04T14:51:04Z</time></trkpt><trkpt lat="45.26255066151772" lon="16.17441702901175"><ele>149.0</ele><time>2026-05-04T14:51:05Z</time></trkpt><trkpt lat="45.262837961513746" lon="16.174311691877197"><ele>148.5</ele><time>2026-05-04T14:51:06Z</time></trkpt><trkpt lat="45.26312324736439" lon="16.174209523025795"><ele>148.0</ele><time>2026-05-04T14:51:07Z</time></trkpt><trkpt lat="45.26340527383484" lon="16.17411100785696"><ele>147.5</ele><time>2026-05-04T14:51:08Z</time></trkpt><trkpt lat="45.26367799326629" lon="16.174012662857855"><ele>147.0</ele><time>2026-05-04T14:51:09Z</time></trkpt><trkpt lat="45.2639412905928" lon="16.17391676933378"><ele>147.0</ele><time>2026-05-04T14:51:10Z</time></trkpt><trkpt lat="45.26420982527701" lon="16.173808443844045"><ele>147.0</ele><time>2026-05-04T14:51:11Z</time></trkpt><trkpt lat="45.26448074483858" lon="16.173680837315132"><ele>147.0</ele><time>2026-05-04T14:51:12Z</time></trkpt><trkpt lat="45.26476081864191" lon="16.173516710830718"><ele>147.0</ele><time>2026-05-04T14:51:13Z</time></trkpt><trkpt lat="45.265040119185834" lon="16.17332886587767"><ele>146.0</ele><time>2026-05-04T14:51:14Z</time></trkpt><trkpt lat="45.265347120456504" lon="16.17311633467748"><ele>145.0</ele><time>2026-05-04T14:51:15Z</time></trkpt><trkpt lat="45.26567029783273" lon="16.172903870576018"><ele>145.0</ele><time>2026-05-04T14:51:16Z</time></trkpt><trkpt lat="45.26599059920924" lon="16.172695086566502"><ele>145.0</ele><time>2026-05-04T14:51:17Z</time></trkpt><trkpt lat="45.26630995824694" lon="16.17248326796642"><ele>144.0</ele><time>2026-05-04T14:51:18Z</time></trkpt><trkpt lat="45.26664672048572" lon="16.17226263618846"><ele>143.0</ele><time>2026-05-04T14:51:19Z</time></trkpt><trkpt lat="45.26699793173783" lon="16.172026908128473"><ele>143.5</ele><time>2026-05-04T14:51:20Z</time></trkpt><trkpt lat="45.267352551099655" lon="16.171804817670374"><ele>144.0</ele><time>2026-05-04T14:51:21Z</time></trkpt><trkpt lat="45.26769038439703" lon="16.17158408451523"><ele>143.5</ele><time>2026-05-04T14:51:22Z</time></trkpt><trkpt lat="45.267997403241566" lon="16.171385628408583"><ele>143.0</ele><time>2026-05-04T14:51:23Z</time></trkpt><trkpt lat="45.26828661568544" lon="16.17119803268052"><ele>143.0</ele><time>2026-05-04T14:51:24Z</time></trkpt><trkpt lat="45.26857211155029" lon="16.171011252424904"><ele>143.0</ele><time>2026-05-04T14:51:25Z</time></trkpt><trkpt lat="45.26884626305494" lon="16.17082927659444"><ele>143.0</ele><time>2026-05-04T14:51:26Z</time></trkpt><trkpt lat="45.269103082996054" lon="16.17063537378296"><ele>143.0</ele><time>2026-05-04T14:51:27Z</time></trkpt><trkpt lat="45.26934368708136" lon="16.1704030617739"><ele>143.0</ele><time>2026-05-04T14:51:28Z</time></trkpt><trkpt lat="45.269550284847675" lon="16.17012726373184"><ele>143.0</ele><time>2026-05-04T14:51:29Z</time></trkpt><trkpt lat="45.26975328501429" lon="16.16980844819489"><ele>143.0</ele><time>2026-05-04T14:51:30Z</time></trkpt><trkpt lat="45.26994456322579" lon="16.169487079131617"><ele>143.0</ele><time>2026-05-04T14:51:31Z</time></trkpt><trkpt lat="45.27014698268987" lon="16.16916654602263"><ele>142.0</ele><time>2026-05-04T14:51:32Z</time></trkpt><trkpt lat="45.27035856602542" lon="16.168839936669695"><ele>141.0</ele><time>2026-05-04T14:51:33Z</time></trkpt><trkpt lat="45.270578621434005" lon="16.16850827805221"><ele>142.5</ele><time>2026-05-04T14:51:34Z</time></trkpt><trkpt lat="45.27080270762336" lon="16.16816865797725"><ele>144.0</ele><time>2026-05-04T14:51:35Z</time></trkpt><trkpt lat="45.27102747970643" lon="16.167830310751008"><ele>144.0</ele><time>2026-05-04T14:51:36Z</time></trkpt><trkpt lat="45.271258212625426" lon="16.167475660885852"><ele>144.0</ele><time>2026-05-04T14:51:37Z</time></trkpt><trkpt lat="45.271489585346856" lon="16.167120130104994"><ele>143.5</ele><time>2026-05-04T14:51:38Z</time></trkpt><trkpt lat="45.27172951263972" lon="16.16675741069478"><ele>143.0</ele><time>2026-05-04T14:51:39Z</time></trkpt><trkpt lat="45.27196720698709" lon="16.166402814661346"><ele>142.0</ele><time>2026-05-04T14:51:40Z</time></trkpt><trkpt lat="45.27220227263357" lon="16.166040600514563"><ele>141.0</ele><time>2026-05-04T14:51:41Z</time></trkpt><trkpt lat="45.272435767859584" lon="16.16568324436889"><ele>140.5</ele><time>2026-05-04T14:51:42Z</time></trkpt><trkpt lat="45.2726712019221" lon="16.16532289628438"><ele>140.0</ele><time>2026-05-04T14:51:43Z</time></trkpt><trkpt lat="45.27290308602743" lon="16.164970650631137"><ele>140.5</ele><time>2026-05-04T14:51:44Z</time></trkpt><trkpt lat="45.27313728959608" lon="16.164618768288822"><ele>141.0</ele><time>2026-05-04T14:51:45Z</time></trkpt><trkpt lat="45.27336939722268" lon="16.164267020068497"><ele>140.0</ele><time>2026-05-04T14:51:46Z</time></trkpt><trkpt lat="45.273601944534605" lon="16.163911743349278"><ele>139.0</ele><time>2026-05-04T14:51:47Z</time></trkpt><trkpt lat="45.27383312487121" lon="16.1635598040997"><ele>139.0</ele><time>2026-05-04T14:51:48Z</time></trkpt><trkpt lat="45.274068588134604" lon="16.16320724037927"><ele>139.0</ele><time>2026-05-04T14:51:49Z</time></trkpt><trkpt lat="45.27430737785267" lon="16.162849539698353"><ele>138.0</ele><time>2026-05-04T14:51:50Z</time></trkpt><trkpt lat="45.27454498589508" lon="16.16249326707301"><ele>137.0</ele><time>2026-05-04T14:51:51Z</time></trkpt><trkpt lat="45.27478905742508" lon="16.162125732629956"><ele>137.0</ele><time>2026-05-04T14:51:52Z</time></trkpt><trkpt lat="45.27504835334497" lon="16.16173647869517"><ele>137.0</ele><time>2026-05-04T14:51:53Z</time></trkpt><trkpt lat="45.275315189611234" lon="16.161335652766915"><ele>137.0</ele><time>2026-05-04T14:51:54Z</time></trkpt><trkpt lat="45.27556970861121" lon="16.160949484557435"><ele>137.0</ele><time>2026-05-04T14:51:55Z</time></trkpt><trkpt lat="45.27582447139439" lon="16.16056819973904"><ele>136.0</ele><time>2026-05-04T14:51:56Z</time></trkpt><trkpt lat="45.27607356550084" lon="16.160197124427203"><ele>135.0</ele><time>2026-05-04T14:51:57Z</time></trkpt><trkpt lat="45.276335183370904" lon="16.159806361436743"><ele>134.5</ele><time>2026-05-04T14:51:58Z</time></trkpt><trkpt lat="45.27661361860376" lon="16.159389881199193"><ele>134.0</ele><time>2026-05-04T14:51:59Z</time></trkpt><trkpt lat="45.276900105777145" lon="16.158958218964603"><ele>134.0</ele><time>2026-05-04T14:52:00Z</time></trkpt><trkpt lat="45.277190629127965" lon="16.15851640683047"><ele>134.0</ele><time>2026-05-04T14:52:01Z</time></trkpt><trkpt lat="45.27747355525361" lon="16.15808354815076"><ele>133.5</ele><time>2026-05-04T14:52:02Z</time></trkpt><trkpt lat="45.27773550700534" lon="16.1576867180312"><ele>133.0</ele><time>2026-05-04T14:52:03Z</time></trkpt><trkpt lat="45.277955792455" lon="16.157344436636485"><ele>133.5</ele><time>2026-05-04T14:52:04Z</time></trkpt><trkpt lat="45.27813819002165" lon="16.157046631138233"><ele>134.0</ele><time>2026-05-04T14:52:05Z</time></trkpt><trkpt lat="45.27827363331547" lon="16.156781586098273"><ele>134.5</ele><time>2026-05-04T14:52:06Z</time></trkpt><trkpt lat="45.27837065136924" lon="16.15649881732977"><ele>135.0</ele><time>2026-05-04T14:52:07Z</time></trkpt><trkpt lat="45.27844584971649" lon="16.156169723728237"><ele>135.0</ele><time>2026-05-04T14:52:08Z</time></trkpt><trkpt lat="45.27850773790002" lon="16.155788382855643"><ele>135.0</ele><time>2026-05-04T14:52:09Z</time></trkpt><trkpt lat="45.278569072313786" lon="16.15538258634897"><ele>134.5</ele><time>2026-05-04T14:52:10Z</time></trkpt><trkpt lat="45.27864225861653" lon="16.15498465956047"><ele>134.0</ele><time>2026-05-04T14:52:11Z</time></trkpt><trkpt lat="45.27872094876701" lon="16.154580443296318"><ele>133.5</ele><time>2026-05-04T14:52:12Z</time></trkpt><trkpt lat="45.27880127480559" lon="16.154172192195187"><ele>133.0</ele><time>2026-05-04T14:52:13Z</time></trkpt><trkpt lat="45.278881432276236" lon="16.153757819573443"><ele>133.0</ele><time>2026-05-04T14:52:14Z</time></trkpt><trkpt lat="45.27896058999964" lon="16.153348192555523"><ele>133.0</ele><time>2026-05-04T14:52:15Z</time></trkpt><trkpt lat="45.279037482238316" lon="16.15295082500503"><ele>133.0</ele><time>2026-05-04T14:52:16Z</time></trkpt><trkpt lat="45.27911252848666" lon="16.152548889054874"><ele>133.0</ele><time>2026-05-04T14:52:17Z</time></trkpt><trkpt lat="45.279185288672785" lon="16.152156894012055"><ele>133.0</ele><time>2026-05-04T14:52:18Z</time></trkpt><trkpt lat="45.279260370180914" lon="16.151755944851043"><ele>133.0</ele><time>2026-05-04T14:52:19Z</time></trkpt><trkpt lat="45.27933628751693" lon="16.151361042697324"><ele>132.5</ele><time>2026-05-04T14:52:20Z</time></trkpt><trkpt lat="45.27941166792542" lon="16.15096650985083"><ele>132.0</ele><time>2026-05-04T14:52:21Z</time></trkpt><trkpt lat="45.279486985181464" lon="16.15058280827759"><ele>132.0</ele><time>2026-05-04T14:52:22Z</time></trkpt><trkpt lat="45.27956120706558" lon="16.150198605009958"><ele>132.0</ele><time>2026-05-04T14:52:23Z</time></trkpt><trkpt lat="45.27963954563788" lon="16.149823782433348"><ele>132.0</ele><time>2026-05-04T14:52:24Z</time></trkpt><trkpt lat="45.27973034900644" lon="16.149451526548226"><ele>132.0</ele><time>2026-05-04T14:52:25Z</time></trkpt><trkpt lat="45.27983832031898" lon="16.149091907946936"><ele>131.5</ele><time>2026-05-04T14:52:26Z</time></trkpt><trkpt lat="45.27994871069948" lon="16.148740943099067"><ele>131.0</ele><time>2026-05-04T14:52:27Z</time></trkpt><trkpt lat="45.280058748764866" lon="16.14838340304326"><ele>131.0</ele><time>2026-05-04T14:52:28Z</time></trkpt><trkpt lat="45.2801741536192" lon="16.14800953196193"><ele>131.0</ele><time>2026-05-04T14:52:29Z</time></trkpt><trkpt lat="45.28029123741299" lon="16.14763813904683"><ele>131.0</ele><time>2026-05-04T14:52:30Z</time></trkpt><trkpt lat="45.28041451902068" lon="16.147263795522303"><ele>131.0</ele><time>2026-05-04T14:52:31Z</time></trkpt><trkpt lat="45.28054373066344" lon="16.14688765100568"><ele>131.5</ele><time>2026-05-04T14:52:32Z</time></trkpt><trkpt lat="45.280675999256104" lon="16.14650206452072"><ele>132.0</ele><time>2026-05-04T14:52:33Z</time></trkpt><trkpt lat="45.28081355848593" lon="16.146110392583886"><ele>132.0</ele><time>2026-05-04T14:52:34Z</time></trkpt><trkpt lat="45.28094129268472" lon="16.145719850536477"><ele>132.0</ele><time>2026-05-04T14:52:35Z</time></trkpt><trkpt lat="45.28106332373284" lon="16.14533247495988"><ele>131.0</ele><time>2026-05-04T14:52:36Z</time></trkpt><trkpt lat="45.28118386142177" lon="16.144948339226435"><ele>130.0</ele><time>2026-05-04T14:52:37Z</time></trkpt><trkpt lat="45.28130390309488" lon="16.144570986315525"><ele>130.0</ele><time>2026-05-04T14:52:38Z</time></trkpt><trkpt lat="45.28142590514964" lon="16.144187838588827"><ele>130.0</ele><time>2026-05-04T14:52:39Z</time></trkpt><trkpt lat="45.28154556703189" lon="16.143811454600684"><ele>130.0</ele><time>2026-05-04T14:52:40Z</time></trkpt><trkpt lat="45.28165922493717" lon="16.143448533932123"><ele>130.0</ele><time>2026-05-04T14:52:41Z</time></trkpt><trkpt lat="45.28177420310369" lon="16.14309356686204"><ele>129.5</ele><time>2026-05-04T14:52:42Z</time></trkpt><trkpt lat="45.281884213733356" lon="16.142730681524164"><ele>129.0</ele><time>2026-05-04T14:52:43Z</time></trkpt><trkpt lat="45.28198604388005" lon="16.142377094940716"><ele>128.5</ele><time>2026-05-04T14:52:44Z</time></trkpt><trkpt lat="45.282073514353755" lon="16.14205477367116"><ele>128.0</ele><time>2026-05-04T14:52:45Z</time></trkpt><trkpt lat="45.28215603867641" lon="16.141748910284477"><ele>128.33333333333331</ele><time>2026-05-04T14:52:46Z</time></trkpt><trkpt lat="45.28223090627101" lon="16.14146713609205"><ele>128.66666666666666</ele><time>2026-05-04T14:52:47Z</time></trkpt><trkpt lat="45.28230339498223" lon="16.141194662011305"><ele>129.0</ele><time>2026-05-04T14:52:48Z</time></trkpt><trkpt lat="45.28236857324008" lon="16.140937500479428"><ele>129.33333333333334</ele><time>2026-05-04T14:52:49Z</time></trkpt><trkpt lat="45.282432210557" lon="16.14069439088101"><ele>129.66666666666669</ele><time>2026-05-04T14:52:50Z</time></trkpt><trkpt lat="45.2824909103331" lon="16.140467809466745"><ele>130.0</ele><time>2026-05-04T14:52:51Z</time></trkpt><trkpt lat="45.282548958572505" lon="16.140254726378934"><ele>130.0</ele><time>2026-05-04T14:52:52Z</time></trkpt><trkpt lat="45.28261144241596" lon="16.14005806300442"><ele>130.0</ele><time>2026-05-04T14:52:53Z</time></trkpt><trkpt lat="45.28269426831974" lon="16.139895686091865"><ele>130.0</ele><time>2026-05-04T14:52:54Z</time></trkpt><trkpt lat="45.2828159959061" lon="16.13978004274145"><ele>130.0</ele><time>2026-05-04T14:52:55Z</time></trkpt><trkpt lat="45.28297890651631" lon="16.139710580029497"><ele>129.66666666666669</ele><time>2026-05-04T14:52:56Z</time></trkpt><trkpt lat="45.28316798804484" lon="16.13968265346127"><ele>129.33333333333334</ele><time>2026-05-04T14:52:57Z</time></trkpt><trkpt lat="45.28338231794875" lon="16.1396343538467"><ele>129.0</ele><time>2026-05-04T14:52:58Z</time></trkpt><trkpt lat="45.283625375744876" lon="16.13956636591984"><ele>129.0</ele><time>2026-05-04T14:52:59Z</time></trkpt><trkpt lat="45.283898711161854" lon="16.139484913978933"><ele>129.0</ele><time>2026-05-04T14:53:00Z</time></trkpt><trkpt lat="45.28420765373758" lon="16.139392726541946"><ele>129.0</ele><time>2026-05-04T14:53:01Z</time></trkpt><trkpt lat="45.28453783361089" lon="16.1392989937226"><ele>129.0</ele><time>2026-05-04T14:53:02Z</time></trkpt><trkpt lat="45.28489257798088" lon="16.139196672579136"><ele>129.0</ele><time>2026-05-04T14:53:03Z</time></trkpt><trkpt lat="45.28526068714595" lon="16.139095737708928"><ele>129.0</ele><time>2026-05-04T14:53:04Z</time></trkpt><trkpt lat="45.28563837741699" lon="16.138989624262763"><ele>128.0</ele><time>2026-05-04T14:53:05Z</time></trkpt><trkpt lat="45.28601987526394" lon="16.13888188055497"><ele>127.0</ele><time>2026-05-04T14:53:06Z</time></trkpt><trkpt lat="45.286419430226964" lon="16.13876632089908"><ele>127.5</ele><time>2026-05-04T14:53:07Z</time></trkpt><trkpt lat="45.286832672710744" lon="16.138643633876846"><ele>128.0</ele><time>2026-05-04T14:53:08Z</time></trkpt><trkpt lat="45.287256429370515" lon="16.138517156423063"><ele>127.0</ele><time>2026-05-04T14:53:09Z</time></trkpt><trkpt lat="45.287673935687266" lon="16.1383923960896"><ele>126.0</ele><time>2026-05-04T14:53:10Z</time></trkpt><trkpt lat="45.28808868744734" lon="16.138278703534905"><ele>126.0</ele><time>2026-05-04T14:53:11Z</time></trkpt><trkpt lat="45.28849694949081" lon="16.138161242655563"><ele>126.0</ele><time>2026-05-04T14:53:12Z</time></trkpt><trkpt lat="45.28890340526022" lon="16.138046021254944"><ele>126.5</ele><time>2026-05-04T14:53:13Z</time></trkpt><trkpt lat="45.28929854986939" lon="16.137930318415457"><ele>127.0</ele><time>2026-05-04T14:53:14Z</time></trkpt><trkpt lat="45.289670496628524" lon="16.13782022893561"><ele>126.5</ele><time>2026-05-04T14:53:15Z</time></trkpt><trkpt lat="45.290013914336484" lon="16.137721121432016"><ele>126.0</ele><time>2026-05-04T14:53:16Z</time></trkpt><trkpt lat="45.29034817235929" lon="16.137626808451575"><ele>126.5</ele><time>2026-05-04T14:53:17Z</time></trkpt><trkpt lat="45.29068978393671" lon="16.13752815077286"><ele>127.0</ele><time>2026-05-04T14:53:18Z</time></trkpt><trkpt lat="45.291029919159065" lon="16.137427668547218"><ele>126.0</ele><time>2026-05-04T14:53:19Z</time></trkpt><trkpt lat="45.29136176139716" lon="16.13732995650593"><ele>125.0</ele><time>2026-05-04T14:53:20Z</time></trkpt><trkpt lat="45.29169713448058" lon="16.137231536599703"><ele>125.0</ele><time>2026-05-04T14:53:21Z</time></trkpt><trkpt lat="45.29203615601403" lon="16.137129217283594"><ele>125.0</ele><time>2026-05-04T14:53:22Z</time></trkpt><trkpt lat="45.29236539405574" lon="16.137032362490345"><ele>125.0</ele><time>2026-05-04T14:53:23Z</time></trkpt><trkpt lat="45.29267614772857" lon="16.136943159530716"><ele>125.0</ele><time>2026-05-04T14:53:24Z</time></trkpt><trkpt lat="45.29295737270791" lon="16.136860406391378"><ele>125.5</ele><time>2026-05-04T14:53:25Z</time></trkpt><trkpt lat="45.293223415951815" lon="16.13678371286994"><ele>126.0</ele><time>2026-05-04T14:53:26Z</time></trkpt><trkpt lat="45.293475028173454" lon="16.13670915256277"><ele>126.0</ele><time>2026-05-04T14:53:27Z</time></trkpt><trkpt lat="45.29371237880376" lon="16.13664036023274"><ele>126.0</ele><time>2026-05-04T14:53:28Z</time></trkpt><trkpt lat="45.2939338093855" lon="16.13657284800976"><ele>125.33333333333334</ele><time>2026-05-04T14:53:29Z</time></trkpt><trkpt lat="45.294144738183995" lon="16.13650473478283"><ele>124.66666666666667</ele><time>2026-05-04T14:53:30Z</time></trkpt><trkpt lat="45.294354585156015" lon="16.13642953113208"><ele>124.0</ele><time>2026-05-04T14:53:31Z</time></trkpt><trkpt lat="45.294558077642385" lon="16.136347073533987"><ele>123.66666666666667</ele><time>2026-05-04T14:53:32Z</time></trkpt><trkpt lat="45.29475712108376" lon="16.13624960803329"><ele>123.33333333333334</ele><time>2026-05-04T14:53:33Z</time></trkpt><trkpt lat="45.29495468722866" lon="16.13613588310037"><ele>123.0</ele><time>2026-05-04T14:53:34Z</time></trkpt><trkpt lat="45.29515802890491" lon="16.13599839240413"><ele>123.0</ele><time>2026-05-04T14:53:35Z</time></trkpt><trkpt lat="45.29536529105968" lon="16.135841566723077"><ele>123.0</ele><time>2026-05-04T14:53:36Z</time></trkpt><trkpt lat="45.2955837002504" lon="16.135661873689113"><ele>123.5</ele><time>2026-05-04T14:53:37Z</time></trkpt><trkpt lat="45.29580975703406" lon="16.135459906374486"><ele>124.0</ele><time>2026-05-04T14:53:38Z</time></trkpt><trkpt lat="45.29604173013551" lon="16.135237235296444"><ele>124.0</ele><time>2026-05-04T14:53:39Z</time></trkpt><trkpt lat="45.29627078555606" lon="16.135010918355828"><ele>124.0</ele><time>2026-05-04T14:53:40Z</time></trkpt><trkpt lat="45.29649395305593" lon="16.134786806702014"><ele>125.0</ele><time>2026-05-04T14:53:41Z</time></trkpt><trkpt lat="45.296721198250886" lon="16.13458099649537"><ele>126.0</ele><time>2026-05-04T14:53:42Z</time></trkpt><trkpt lat="45.29695805720685" lon="16.134373103769175"><ele>126.0</ele><time>2026-05-04T14:53:43Z</time></trkpt><trkpt lat="45.297194889882995" lon="16.134161676392047"><ele>126.0</ele><time>2026-05-04T14:53:44Z</time></trkpt><trkpt lat="45.297443052125274" lon="16.13394110145671"><ele>125.0</ele><time>2026-05-04T14:53:45Z</time></trkpt><trkpt lat="45.297695325377745" lon="16.133708888397393"><ele>124.0</ele><time>2026-05-04T14:53:46Z</time></trkpt><trkpt lat="45.29795510094002" lon="16.13344900861718"><ele>123.5</ele><time>2026-05-04T14:53:47Z</time></trkpt><trkpt lat="45.2982261999706" lon="16.133165173052056"><ele>123.0</ele><time>2026-05-04T14:53:48Z</time></trkpt><trkpt lat="45.298499682140005" lon="16.13287986511418"><ele>123.0</ele><time>2026-05-04T14:53:49Z</time></trkpt><trkpt lat="45.298778473184385" lon="16.132590095926535"><ele>123.0</ele><time>2026-05-04T14:53:50Z</time></trkpt><trkpt lat="45.299057000500476" lon="16.13230138249576"><ele>123.0</ele><time>2026-05-04T14:53:51Z</time></trkpt><trkpt lat="45.29932580893249" lon="16.1320150941989"><ele>123.0</ele><time>2026-05-04T14:53:52Z</time></trkpt><trkpt lat="45.29958369531962" lon="16.131743155601228"><ele>122.5</ele><time>2026-05-04T14:53:53Z</time></trkpt><trkpt lat="45.29982786058618" lon="16.131482666573916"><ele>122.0</ele><time>2026-05-04T14:53:54Z</time></trkpt><trkpt lat="45.30007051522125" lon="16.1312232187779"><ele>122.0</ele><time>2026-05-04T14:53:55Z</time></trkpt><trkpt lat="45.300304198148766" lon="16.130972471052917"><ele>122.0</ele><time>2026-05-04T14:53:56Z</time></trkpt><trkpt lat="45.30053612414983" lon="16.13073604396502"><ele>121.0</ele><time>2026-05-04T14:53:57Z</time></trkpt><trkpt lat="45.30076871790771" lon="16.130497241992106"><ele>120.0</ele><time>2026-05-04T14:53:58Z</time></trkpt><trkpt lat="45.301004914542844" lon="16.13025842201872"><ele>120.0</ele><time>2026-05-04T14:53:59Z</time></trkpt><trkpt lat="45.30123553508221" lon="16.13001892551298"><ele>120.0</ele><time>2026-05-04T14:54:00Z</time></trkpt><trkpt lat="45.301460646579244" lon="16.1297764134732"><ele>122.5</ele><time>2026-05-04T14:54:01Z</time></trkpt><trkpt lat="45.30168408546325" lon="16.129517014038438"><ele>125.0</ele><time>2026-05-04T14:54:02Z</time></trkpt><trkpt lat="45.301901251067214" lon="16.12924269483233"><ele>123.5</ele><time>2026-05-04T14:54:03Z</time></trkpt><trkpt lat="45.302107324971466" lon="16.128960888845334"><ele>122.0</ele><time>2026-05-04T14:54:04Z</time></trkpt><trkpt lat="45.30229355613967" lon="16.12870292994907"><ele>121.5</ele><time>2026-05-04T14:54:05Z</time></trkpt><trkpt lat="45.30247404305025" lon="16.128441117506473"><ele>121.0</ele><time>2026-05-04T14:54:06Z</time></trkpt><trkpt lat="45.30263465519278" lon="16.128142101436666"><ele>120.5</ele><time>2026-05-04T14:54:07Z</time></trkpt><trkpt lat="45.302768080037104" lon="16.12780479511519"><ele>120.0</ele><time>2026-05-04T14:54:08Z</time></trkpt><trkpt lat="45.302891440308606" lon="16.12743565507029"><ele>120.0</ele><time>2026-05-04T14:54:09Z</time></trkpt><trkpt lat="45.30302567351939" lon="16.127059060411934"><ele>120.0</ele><time>2026-05-04T14:54:10Z</time></trkpt><trkpt lat="45.30316348350486" lon="16.126676087322036"><ele>121.5</ele><time>2026-05-04T14:54:11Z</time></trkpt><trkpt lat="45.30331310005585" lon="16.126276535690202"><ele>123.0</ele><time>2026-05-04T14:54:12Z</time></trkpt><trkpt lat="45.30347704906653" lon="16.1258567863822"><ele>122.0</ele><time>2026-05-04T14:54:13Z</time></trkpt><trkpt lat="45.303641903054555" lon="16.125437331688637"><ele>121.0</ele><time>2026-05-04T14:54:14Z</time></trkpt><trkpt lat="45.30381490997773" lon="16.125014572491192"><ele>121.5</ele><time>2026-05-04T14:54:15Z</time></trkpt><trkpt lat="45.30398904072783" lon="16.124598920764274"><ele>122.0</ele><time>2026-05-04T14:54:16Z</time></trkpt><trkpt lat="45.30417273620541" lon="16.124163279734063"><ele>122.0</ele><time>2026-05-04T14:54:17Z</time></trkpt><trkpt lat="45.30435869601003" lon="16.123717826050164"><ele>122.0</ele><time>2026-05-04T14:54:18Z</time></trkpt><trkpt lat="45.30453722294759" lon="16.12329188089398"><ele>121.5</ele><time>2026-05-04T14:54:19Z</time></trkpt><trkpt lat="45.30470525462656" lon="16.12288992088854"><ele>121.0</ele><time>2026-05-04T14:54:20Z</time></trkpt><trkpt lat="45.30485919794049" lon="16.122518294813926"><ele>121.0</ele><time>2026-05-04T14:54:21Z</time></trkpt><trkpt lat="45.30500858762298" lon="16.122165125117885"><ele>121.0</ele><time>2026-05-04T14:54:22Z</time></trkpt><trkpt lat="45.305154685678865" lon="16.121818975183444"><ele>121.0</ele><time>2026-05-04T14:54:23Z</time></trkpt><trkpt lat="45.30530358450263" lon="16.121468395036047"><ele>121.0</ele><time>2026-05-04T14:54:24Z</time></trkpt><trkpt lat="45.305474604976" lon="16.12112152935926"><ele>122.0</ele><time>2026-05-04T14:54:25Z</time></trkpt><trkpt lat="45.30567558204587" lon="16.120805862772347"><ele>123.0</ele><time>2026-05-04T14:54:26Z</time></trkpt><trkpt lat="45.30592256518357" lon="16.120526209690784"><ele>123.0</ele><time>2026-05-04T14:54:27Z</time></trkpt><trkpt lat="45.306192797619" lon="16.1202428612479"><ele>123.0</ele><time>2026-05-04T14:54:28Z</time></trkpt><trkpt lat="45.306475862531514" lon="16.119951290923847"><ele>121.5</ele><time>2026-05-04T14:54:29Z</time></trkpt><trkpt lat="45.306772277174204" lon="16.119634687544355"><ele>120.0</ele><time>2026-05-04T14:54:30Z</time></trkpt><trkpt lat="45.307079395507714" lon="16.11929925454814"><ele>119.5</ele><time>2026-05-04T14:54:31Z</time></trkpt><trkpt lat="45.30738739285665" lon="16.118965180817796"><ele>119.0</ele><time>2026-05-04T14:54:32Z</time></trkpt><trkpt lat="45.30769394023657" lon="16.118637122948186"><ele>119.0</ele><time>2026-05-04T14:54:33Z</time></trkpt><trkpt lat="45.3080065976159" lon="16.11830321150411"><ele>119.0</ele><time>2026-05-04T14:54:34Z</time></trkpt><trkpt lat="45.30832569939654" lon="16.117960405040066"><ele>119.0</ele><time>2026-05-04T14:54:35Z</time></trkpt><trkpt lat="45.30865637094349" lon="16.11760730252808"><ele>119.0</ele><time>2026-05-04T14:54:36Z</time></trkpt><trkpt lat="45.308988633482656" lon="16.11725272018637"><ele>119.0</ele><time>2026-05-04T14:54:37Z</time></trkpt><trkpt lat="45.309327060148114" lon="16.116896745418845"><ele>119.0</ele><time>2026-05-04T14:54:38Z</time></trkpt><trkpt lat="45.30965887453122" lon="16.116539975899734"><ele>118.5</ele><time>2026-05-04T14:54:39Z</time></trkpt><trkpt lat="45.30996337207099" lon="16.11621735447125"><ele>118.0</ele><time>2026-05-04T14:54:40Z</time></trkpt><trkpt lat="45.31024832212708" lon="16.115911476533157"><ele>119.0</ele><time>2026-05-04T14:54:41Z</time></trkpt><trkpt lat="45.31052227003929" lon="16.115622401317054"><ele>120.0</ele><time>2026-05-04T14:54:42Z</time></trkpt><trkpt lat="45.3107857814887" lon="16.115334868231965"><ele>120.0</ele><time>2026-05-04T14:54:43Z</time></trkpt><trkpt lat="45.31105395778466" lon="16.115047060856863"><ele>120.0</ele><time>2026-05-04T14:54:44Z</time></trkpt><trkpt lat="45.31132510851019" lon="16.114765221636432"><ele>120.0</ele><time>2026-05-04T14:54:45Z</time></trkpt><trkpt lat="45.311597219172526" lon="16.114492067121233"><ele>120.0</ele><time>2026-05-04T14:54:46Z</time></trkpt><trkpt lat="45.31187314295222" lon="16.114226245231762"><ele>120.0</ele><time>2026-05-04T14:54:47Z</time></trkpt><trkpt lat="45.31214142264049" lon="16.11397288819573"><ele>120.0</ele><time>2026-05-04T14:54:48Z</time></trkpt><trkpt lat="45.31239806063174" lon="16.113740037390116"><ele>120.0</ele><time>2026-05-04T14:54:49Z</time></trkpt><trkpt lat="45.31264456069365" lon="16.11352299390711"><ele>120.0</ele><time>2026-05-04T14:54:50Z</time></trkpt><trkpt lat="45.312890455440744" lon="16.113313257632562"><ele>121.0</ele><time>2026-05-04T14:54:51Z</time></trkpt><trkpt lat="45.31314525110487" lon="16.11312328702792"><ele>122.0</ele><time>2026-05-04T14:54:52Z</time></trkpt><trkpt lat="45.31342928851437" lon="16.112954534838355"><ele>122.0</ele><time>2026-05-04T14:54:53Z</time></trkpt><trkpt lat="45.31374064308614" lon="16.112830057356838"><ele>122.0</ele><time>2026-05-04T14:54:54Z</time></trkpt><trkpt lat="45.31406988031658" lon="16.112735391120395"><ele>122.5</ele><time>2026-05-04T14:54:55Z</time></trkpt><trkpt lat="45.31440326133131" lon="16.112643192366384"><ele>123.0</ele><time>2026-05-04T14:54:56Z</time></trkpt><trkpt lat="45.31472136108673" lon="16.1125480612084"><ele>121.5</ele><time>2026-05-04T14:54:57Z</time></trkpt><trkpt lat="45.31503494540958" lon="16.112452728401323"><ele>120.0</ele><time>2026-05-04T14:54:58Z</time></trkpt><trkpt lat="45.31533351440918" lon="16.11235971970821"><ele>128.0</ele><time>2026-05-04T14:54:59Z</time></trkpt><trkpt lat="45.3156031923346" lon="16.112276307561594"><ele>136.0</ele><time>2026-05-04T14:55:00Z</time></trkpt><trkpt lat="45.31585016753531" lon="16.1121973673092"><ele>136.0</ele><time>2026-05-04T14:55:01Z</time></trkpt><trkpt lat="45.3160798878863" lon="16.11212085901214"><ele>136.0</ele><time>2026-05-04T14:55:02Z</time></trkpt><trkpt lat="45.316290202767455" lon="16.112049388590236"><ele>131.33333333333334</ele><time>2026-05-04T14:55:03Z</time></trkpt><trkpt lat="45.31649477572776" lon="16.1119630563223"><ele>126.66666666666666</ele><time>2026-05-04T14:55:04Z</time></trkpt><trkpt lat="45.31670284041306" lon="16.111837995552296"><ele>122.0</ele><time>2026-05-04T14:55:05Z</time></trkpt><trkpt lat="45.31690873967589" lon="16.111688537521697"><ele>120.0</ele><time>2026-05-04T14:55:06Z</time></trkpt><trkpt lat="45.317118049877344" lon="16.111520002593995"><ele>118.0</ele><time>2026-05-04T14:55:07Z</time></trkpt><trkpt lat="45.31734506588615" lon="16.11134979874408"><ele>118.0</ele><time>2026-05-04T14:55:08Z</time></trkpt><trkpt lat="45.31759179637351" lon="16.111164116359955"><ele>118.0</ele><time>2026-05-04T14:55:09Z</time></trkpt><trkpt lat="45.3178516103064" lon="16.11096448145729"><ele>117.0</ele><time>2026-05-04T14:55:10Z</time></trkpt><trkpt lat="45.318133307737035" lon="16.11074722724164"><ele>116.0</ele><time>2026-05-04T14:55:11Z</time></trkpt><trkpt lat="45.31841861886141" lon="16.110531207050396"><ele>115.5</ele><time>2026-05-04T14:55:12Z</time></trkpt><trkpt lat="45.31868842800415" lon="16.1103290035036"><ele>115.0</ele><time>2026-05-04T14:55:13Z</time></trkpt><trkpt lat="45.31894875723155" lon="16.11013254150735"><ele>115.0</ele><time>2026-05-04T14:55:14Z</time></trkpt><trkpt lat="45.3191992350286" lon="16.109942507354248"><ele>115.0</ele><time>2026-05-04T14:55:15Z</time></trkpt><trkpt lat="45.31943815908315" lon="16.10976474587704"><ele>116.0</ele><time>2026-05-04T14:55:16Z</time></trkpt><trkpt lat="45.319656386506225" lon="16.10960092756242"><ele>117.0</ele><time>2026-05-04T14:55:17Z</time></trkpt><trkpt lat="45.31987053218878" lon="16.109433710944433"><ele>117.0</ele><time>2026-05-04T14:55:18Z</time></trkpt><trkpt lat="45.32006545885481" lon="16.109282727441173"><ele>117.0</ele><time>2026-05-04T14:55:19Z</time></trkpt><trkpt lat="45.32025161048334" lon="16.109149480941532"><ele>117.0</ele><time>2026-05-04T14:55:20Z</time></trkpt><trkpt lat="45.32044436059621" lon="16.10902351311308"><ele>116.5</ele><time>2026-05-04T14:55:21Z</time></trkpt><trkpt lat="45.320641547438605" lon="16.108881162677374"><ele>116.0</ele><time>2026-05-04T14:55:22Z</time></trkpt><trkpt lat="45.32084731257465" lon="16.1087186900169"><ele>116.0</ele><time>2026-05-04T14:55:23Z</time></trkpt><trkpt lat="45.321065251367514" lon="16.108552686664332"><ele>116.0</ele><time>2026-05-04T14:55:24Z</time></trkpt><trkpt lat="45.32129515417363" lon="16.108385278975717"><ele>116.0</ele><time>2026-05-04T14:55:25Z</time></trkpt><trkpt lat="45.32153395861103" lon="16.108207011395297"><ele>116.0</ele><time>2026-05-04T14:55:26Z</time></trkpt><trkpt lat="45.3217797505764" lon="16.1080202406371"><ele>116.0</ele><time>2026-05-04T14:55:27Z</time></trkpt><trkpt lat="45.32202999126589" lon="16.107829914815973"><ele>116.0</ele><time>2026-05-04T14:55:28Z</time></trkpt><trkpt lat="45.32228414156683" lon="16.107633790947045"><ele>116.0</ele><time>2026-05-04T14:55:29Z</time></trkpt><trkpt lat="45.322539407317294" lon="16.107434724919877"><ele>116.0</ele><time>2026-05-04T14:55:30Z</time></trkpt><trkpt lat="45.32279333053623" lon="16.10724213195595"><ele>116.0</ele><time>2026-05-04T14:55:31Z</time></trkpt><trkpt lat="45.3230448288385" lon="16.10705449325502"><ele>116.0</ele><time>2026-05-04T14:55:32Z</time></trkpt><trkpt lat="45.32329251421669" lon="16.106870528433888"><ele>116.0</ele><time>2026-05-04T14:55:33Z</time></trkpt><trkpt lat="45.3235378811126" lon="16.10668897977696"><ele>116.0</ele><time>2026-05-04T14:55:34Z</time></trkpt><trkpt lat="45.3237821448359" lon="16.106503381854214"><ele>115.5</ele><time>2026-05-04T14:55:35Z</time></trkpt><trkpt lat="45.324030637286846" lon="16.106316423601314"><ele>115.0</ele><time>2026-05-04T14:55:36Z</time></trkpt><trkpt lat="45.3242790485285" lon="16.106126523803532"><ele>115.0</ele><time>2026-05-04T14:55:37Z</time></trkpt><trkpt lat="45.32452509928819" lon="16.10594070536349"><ele>115.0</ele><time>2026-05-04T14:55:38Z</time></trkpt><trkpt lat="45.32477357575965" lon="16.10575625926321"><ele>115.5</ele><time>2026-05-04T14:55:39Z</time></trkpt><trkpt lat="45.32502460595846" lon="16.10557045111676"><ele>116.0</ele><time>2026-05-04T14:55:40Z</time></trkpt><trkpt lat="45.325279699696736" lon="16.105383150023155"><ele>116.0</ele><time>2026-05-04T14:55:41Z</time></trkpt><trkpt lat="45.32553479448508" lon="16.105188161313514"><ele>116.0</ele><time>2026-05-04T14:55:42Z</time></trkpt><trkpt lat="45.32578985218464" lon="16.104990095330024"><ele>115.5</ele><time>2026-05-04T14:55:43Z</time></trkpt><trkpt lat="45.326047352010036" lon="16.104791112970815"><ele>115.0</ele><time>2026-05-04T14:55:44Z</time></trkpt><trkpt lat="45.326299115045835" lon="16.104593713338243"><ele>115.0</ele><time>2026-05-04T14:55:45Z</time></trkpt><trkpt lat="45.326549795418856" lon="16.104401379612646"><ele>115.0</ele><time>2026-05-04T14:55:46Z</time></trkpt><trkpt lat="45.32679775419942" lon="16.104209993191052"><ele>115.0</ele><time>2026-05-04T14:55:47Z</time></trkpt><trkpt lat="45.327040033783646" lon="16.104025070355107"><ele>115.0</ele><time>2026-05-04T14:55:48Z</time></trkpt><trkpt lat="45.32727166834601" lon="16.10384570153253"><ele>114.0</ele><time>2026-05-04T14:55:49Z</time></trkpt><trkpt lat="45.327499466725634" lon="16.103667533236536"><ele>113.0</ele><time>2026-05-04T14:55:50Z</time></trkpt><trkpt lat="45.32772722188646" lon="16.103494658690437"><ele>113.0</ele><time>2026-05-04T14:55:51Z</time></trkpt><trkpt lat="45.32795631291949" lon="16.103322298952445"><ele>113.0</ele><time>2026-05-04T14:55:52Z</time></trkpt><trkpt lat="45.32818057722387" lon="16.103151903565642"><ele>113.0</ele><time>2026-05-04T14:55:53Z</time></trkpt><trkpt lat="45.328394431657195" lon="16.10297335808087"><ele>113.0</ele><time>2026-05-04T14:55:54Z</time></trkpt><trkpt lat="45.32859693346209" lon="16.102774080530722"><ele>113.0</ele><time>2026-05-04T14:55:55Z</time></trkpt><trkpt lat="45.32879898094318" lon="16.102556090801507"><ele>113.0</ele><time>2026-05-04T14:55:56Z</time></trkpt><trkpt lat="45.32901571116933" lon="16.102342328096274"><ele>113.0</ele><time>2026-05-04T14:55:57Z</time></trkpt><trkpt lat="45.3292402828996" lon="16.102121485751482"><ele>113.0</ele><time>2026-05-04T14:55:58Z</time></trkpt><trkpt lat="45.32948120951388" lon="16.101889496141983"><ele>114.0</ele><time>2026-05-04T14:55:59Z</time></trkpt><trkpt lat="45.329741664630085" lon="16.10163177227585"><ele>115.0</ele><time>2026-05-04T14:56:00Z</time></trkpt><trkpt lat="45.33001230158833" lon="16.101356887985204"><ele>115.0</ele><time>2026-05-04T14:56:01Z</time></trkpt><trkpt lat="45.330274514803" lon="16.101092519955614"><ele>115.0</ele><time>2026-05-04T14:56:02Z</time></trkpt><trkpt lat="45.3305191392406" lon="16.100837464703375"><ele>113.0</ele><time>2026-05-04T14:56:03Z</time></trkpt><trkpt lat="45.33075849759864" lon="16.100577161251433"><ele>111.0</ele><time>2026-05-04T14:56:04Z</time></trkpt><trkpt lat="45.33101410318913" lon="16.100311011334977"><ele>111.0</ele><time>2026-05-04T14:56:05Z</time></trkpt><trkpt lat="45.33127121716103" lon="16.10004725063574"><ele>111.0</ele><time>2026-05-04T14:56:06Z</time></trkpt><trkpt lat="45.3315359899799" lon="16.099788015189155"><ele>112.5</ele><time>2026-05-04T14:56:07Z</time></trkpt><trkpt lat="45.331799836757924" lon="16.099540195378133"><ele>114.0</ele><time>2026-05-04T14:56:08Z</time></trkpt><trkpt lat="45.33205884948336" lon="16.099291851678128"><ele>114.5</ele><time>2026-05-04T14:56:09Z</time></trkpt><trkpt lat="45.332294866657584" lon="16.09904746666507"><ele>115.0</ele><time>2026-05-04T14:56:10Z</time></trkpt><trkpt lat="45.332507920371754" lon="16.098820259475783"><ele>115.0</ele><time>2026-05-04T14:56:11Z</time></trkpt><trkpt lat="45.33269402076485" lon="16.09860653492397"><ele>115.0</ele><time>2026-05-04T14:56:12Z</time></trkpt><trkpt lat="45.33287444510142" lon="16.09841442828706"><ele>115.0</ele><time>2026-05-04T14:56:13Z</time></trkpt><trkpt lat="45.33304637021725" lon="16.098223561851064"><ele>115.0</ele><time>2026-05-04T14:56:14Z</time></trkpt><trkpt lat="45.33320812139921" lon="16.09803966606497"><ele>115.0</ele><time>2026-05-04T14:56:15Z</time></trkpt><trkpt lat="45.33336112671973" lon="16.097866578628405"><ele>115.0</ele><time>2026-05-04T14:56:16Z</time></trkpt><trkpt lat="45.33350971131503" lon="16.097694172243987"><ele>115.0</ele><time>2026-05-04T14:56:17Z</time></trkpt><trkpt lat="45.333644512620076" lon="16.097533780247257"><ele>115.0</ele><time>2026-05-04T14:56:18Z</time></trkpt><trkpt lat="45.33377573562006" lon="16.097381231758597"><ele>115.0</ele><time>2026-05-04T14:56:19Z</time></trkpt><trkpt lat="45.333909537292314" lon="16.09722617622697"><ele>115.0</ele><time>2026-05-04T14:56:20Z</time></trkpt><trkpt lat="45.33404642526615" lon="16.097067592247683"><ele>115.0</ele><time>2026-05-04T14:56:21Z</time></trkpt><trkpt lat="45.33418332548225" lon="16.09690957338035"><ele>115.0</ele><time>2026-05-04T14:56:22Z</time></trkpt><trkpt lat="45.33432291356708" lon="16.09674679186244"><ele>115.0</ele><time>2026-05-04T14:56:23Z</time></trkpt><trkpt lat="45.33445836002947" lon="16.096591257088093"><ele>115.0</ele><time>2026-05-04T14:56:24Z</time></trkpt><trkpt lat="45.334591826063" lon="16.09643967025144"><ele>115.0</ele><time>2026-05-04T14:56:25Z</time></trkpt><trkpt lat="45.334709698555194" lon="16.09629952897699"><ele>115.0</ele><time>2026-05-04T14:56:26Z</time></trkpt><trkpt lat="45.33482171780051" lon="16.096169466936754"><ele>115.0</ele><time>2026-05-04T14:56:27Z</time></trkpt><trkpt lat="45.334921191132324" lon="16.096048825614815"><ele>115.0</ele><time>2026-05-04T14:56:28Z</time></trkpt><trkpt lat="45.33501991918138" lon="16.09593605891498"><ele>114.75</ele><time>2026-05-04T14:56:29Z</time></trkpt><trkpt lat="45.33512016841793" lon="16.095819341865614"><ele>114.5</ele><time>2026-05-04T14:56:30Z</time></trkpt><trkpt lat="45.33522514101881" lon="16.09570305887901"><ele>114.25</ele><time>2026-05-04T14:56:31Z</time></trkpt><trkpt lat="45.335338907141136" lon="16.095582470102894"><ele>114.0</ele><time>2026-05-04T14:56:32Z</time></trkpt><trkpt lat="45.335453849309715" lon="16.09545990503381"><ele>113.75</ele><time>2026-05-04T14:56:33Z</time></trkpt><trkpt lat="45.33556382237076" lon="16.09533685417748"><ele>113.5</ele><time>2026-05-04T14:56:34Z</time></trkpt><trkpt lat="45.335675049229145" lon="16.095209706543454"><ele>113.25</ele><time>2026-05-04T14:56:35Z</time></trkpt><trkpt lat="45.33579108941481" lon="16.095079755735334"><ele>113.0</ele><time>2026-05-04T14:56:36Z</time></trkpt><trkpt lat="45.335915328482066" lon="16.094936597502517"><ele>113.33333333333333</ele><time>2026-05-04T14:56:37Z</time></trkpt><trkpt lat="45.33606240311562" lon="16.094778063086476"><ele>113.66666666666666</ele><time>2026-05-04T14:56:38Z</time></trkpt><trkpt lat="45.33624581540876" lon="16.0945718460204"><ele>114.0</ele><time>2026-05-04T14:56:39Z</time></trkpt><trkpt lat="45.33646069999846" lon="16.094334787532535"><ele>113.5</ele><time>2026-05-04T14:56:40Z</time></trkpt><trkpt lat="45.33669108205881" lon="16.09407808096579"><ele>113.0</ele><time>2026-05-04T14:56:41Z</time></trkpt><trkpt lat="45.33691987713107" lon="16.093829015006282"><ele>113.0</ele><time>2026-05-04T14:56:42Z</time></trkpt><trkpt lat="45.33713161877914" lon="16.09359479210982"><ele>113.0</ele><time>2026-05-04T14:56:43Z</time></trkpt><trkpt lat="45.337318002538616" lon="16.093384792967743"><ele>113.0</ele><time>2026-05-04T14:56:44Z</time></trkpt><trkpt lat="45.337495598084494" lon="16.093185720884907"><ele>113.0</ele><time>2026-05-04T14:56:45Z</time></trkpt><trkpt lat="45.337662959662175" lon="16.09300272075842"><ele>113.0</ele><time>2026-05-04T14:56:46Z</time></trkpt><trkpt lat="45.33781745103106" lon="16.09283164463394"><ele>113.0</ele><time>2026-05-04T14:56:47Z</time></trkpt><trkpt lat="45.33796953349465" lon="16.092672214531433"><ele>113.0</ele><time>2026-05-04T14:56:48Z</time></trkpt><trkpt lat="45.338106786057544" lon="16.0925258354166"><ele>113.0</ele><time>2026-05-04T14:56:49Z</time></trkpt><trkpt lat="45.33823188701351" lon="16.092383735994467"><ele>113.0</ele><time>2026-05-04T14:56:50Z</time></trkpt><trkpt lat="45.33835252378096" lon="16.092250525204527"><ele>113.0</ele><time>2026-05-04T14:56:51Z</time></trkpt><trkpt lat="45.338474523764184" lon="16.09211935944584"><ele>113.0</ele><time>2026-05-04T14:56:52Z</time></trkpt><trkpt lat="45.338594712767616" lon="16.09199531747981"><ele>113.0</ele><time>2026-05-04T14:56:53Z</time></trkpt><trkpt lat="45.338721459923526" lon="16.09187030592683"><ele>113.0</ele><time>2026-05-04T14:56:54Z</time></trkpt><trkpt lat="45.338840247235865" lon="16.0917434229887"><ele>113.0</ele><time>2026-05-04T14:56:55Z</time></trkpt><trkpt lat="45.33895985543252" lon="16.091619812064756"><ele>113.0</ele><time>2026-05-04T14:56:56Z</time></trkpt><trkpt lat="45.3390821024683" lon="16.091509710836743"><ele>113.0</ele><time>2026-05-04T14:56:57Z</time></trkpt><trkpt lat="45.3392103015296" lon="16.091401428153493"><ele>113.0</ele><time>2026-05-04T14:56:58Z</time></trkpt><trkpt lat="45.33933417960998" lon="16.091295991931194"><ele>113.0</ele><time>2026-05-04T14:56:59Z</time></trkpt><trkpt lat="45.33945404816403" lon="16.09118393504296"><ele>113.0</ele><time>2026-05-04T14:57:00Z</time></trkpt><trkpt lat="45.339575702514416" lon="16.0910707241964"><ele>113.0</ele><time>2026-05-04T14:57:01Z</time></trkpt><trkpt lat="45.33969565632643" lon="16.090957225389847"><ele>113.0</ele><time>2026-05-04T14:57:02Z</time></trkpt><trkpt lat="45.33981300577831" lon="16.090843892745948"><ele>113.0</ele><time>2026-05-04T14:57:03Z</time></trkpt><trkpt lat="45.33992925517078" lon="16.090736504679175"><ele>113.0</ele><time>2026-05-04T14:57:04Z</time></trkpt><trkpt lat="45.340055180200665" lon="16.090628621917432"><ele>113.0</ele><time>2026-05-04T14:57:05Z</time></trkpt><trkpt lat="45.34018426060017" lon="16.090521084819486"><ele>113.0</ele><time>2026-05-04T14:57:06Z</time></trkpt><trkpt lat="45.34029821788784" lon="16.09039251536462"><ele>113.0</ele><time>2026-05-04T14:57:07Z</time></trkpt><trkpt lat="45.3404140601797" lon="16.09027549875284"><ele>113.0</ele><time>2026-05-04T14:57:08Z</time></trkpt><trkpt lat="45.340527500047955" lon="16.090155528792234"><ele>113.0</ele><time>2026-05-04T14:57:09Z</time></trkpt><trkpt lat="45.34065349075856" lon="16.090027881594132"><ele>113.0</ele><time>2026-05-04T14:57:10Z</time></trkpt><trkpt lat="45.34075914127769" lon="16.089916817269486"><ele>113.0</ele><time>2026-05-04T14:57:11Z</time></trkpt><trkpt lat="45.340872445243285" lon="16.08981438063281"><ele>113.5</ele><time>2026-05-04T14:57:12Z</time></trkpt><trkpt lat="45.340988288396886" lon="16.089700046470554"><ele>114.0</ele><time>2026-05-04T14:57:13Z</time></trkpt><trkpt lat="45.34110287222231" lon="16.08957911711141"><ele>114.5</ele><time>2026-05-04T14:57:14Z</time></trkpt><trkpt lat="45.34121642149824" lon="16.08945877996569"><ele>115.0</ele><time>2026-05-04T14:57:15Z</time></trkpt><trkpt lat="45.34132857358231" lon="16.089343264635907"><ele>115.5</ele><time>2026-05-04T14:57:16Z</time></trkpt><trkpt lat="45.34145194904202" lon="16.089243675692742"><ele>116.0</ele><time>2026-05-04T14:57:17Z</time></trkpt><trkpt lat="45.3415556743199" lon="16.089123699143663"><ele>116.5</ele><time>2026-05-04T14:57:18Z</time></trkpt><trkpt lat="45.34166806269389" lon="16.088986047152094"><ele>117.0</ele><time>2026-05-04T14:57:19Z</time></trkpt><trkpt lat="45.3417946554869" lon="16.088846723403496"><ele>117.33333333333334</ele><time>2026-05-04T14:57:20Z</time></trkpt><trkpt lat="45.34192969562994" lon="16.088707702094386"><ele>117.66666666666667</ele><time>2026-05-04T14:57:21Z</time></trkpt><trkpt lat="45.3420594350511" lon="16.088571255406894"><ele>118.0</ele><time>2026-05-04T14:57:22Z</time></trkpt><trkpt lat="45.34217693476301" lon="16.08846666476453"><ele>116.80000000000001</ele><time>2026-05-04T14:57:23Z</time></trkpt><trkpt lat="45.34227384690719" lon="16.08837515100194"><ele>115.60000000000001</ele><time>2026-05-04T14:57:24Z</time></trkpt><trkpt lat="45.342362012592815" lon="16.08829136269108"><ele>114.39999999999999</ele><time>2026-05-04T14:57:25Z</time></trkpt><trkpt lat="45.342447246707486" lon="16.088222500258222"><ele>113.19999999999999</ele><time>2026-05-04T14:57:26Z</time></trkpt><trkpt lat="45.342541282679434" lon="16.088188349421994"><ele>112.0</ele><time>2026-05-04T14:57:27Z</time></trkpt><trkpt lat="45.34262686357736" lon="16.08821009293309"><ele>112.0</ele><time>2026-05-04T14:57:28Z</time></trkpt><trkpt lat="45.342712470818384" lon="16.08828089515166"><ele>111.99999999999999</ele><time>2026-05-04T14:57:29Z</time></trkpt><trkpt lat="45.34278994575161" lon="16.08839278785817"><ele>111.99999999999999</ele><time>2026-05-04T14:57:30Z</time></trkpt><trkpt lat="45.34285820852983" lon="16.0885244168221"><ele>112.0</ele><time>2026-05-04T14:57:31Z</time></trkpt><trkpt lat="45.34292819791197" lon="16.08864735809074"><ele>112.0</ele><time>2026-05-04T14:57:32Z</time></trkpt><trkpt lat="45.343001772867076" lon="16.088753488619858"><ele>111.5</ele><time>2026-05-04T14:57:33Z</time></trkpt><trkpt lat="45.343079245965264" lon="16.08885724487465"><ele>111.0</ele><time>2026-05-04T14:57:34Z</time></trkpt><trkpt lat="45.34315550810066" lon="16.08896375875732"><ele>110.5</ele><time>2026-05-04T14:57:35Z</time></trkpt><trkpt lat="45.343243999547894" lon="16.089078126567248"><ele>110.0</ele><time>2026-05-04T14:57:36Z</time></trkpt><trkpt lat="45.34334057309917" lon="16.089204182506684"><ele>110.0</ele><time>2026-05-04T14:57:37Z</time></trkpt><trkpt lat="45.34344916998442" lon="16.089336840319202"><ele>110.0</ele><time>2026-05-04T14:57:38Z</time></trkpt><trkpt lat="45.34357776128903" lon="16.08948646101085"><ele>110.0</ele><time>2026-05-04T14:57:39Z</time></trkpt><trkpt lat="45.34372036209668" lon="16.089678681597892"><ele>110.5</ele><time>2026-05-04T14:57:40Z</time></trkpt><trkpt lat="45.34387252695642" lon="16.089932487977457"><ele>111.0</ele><time>2026-05-04T14:57:41Z</time></trkpt><trkpt lat="45.344042580048594" lon="16.090213174924795"><ele>111.0</ele><time>2026-05-04T14:57:42Z</time></trkpt><trkpt lat="45.344236168755195" lon="16.090506129122637"><ele>111.0</ele><time>2026-05-04T14:57:43Z</time></trkpt><trkpt lat="45.34444549262268" lon="16.090798489711116"><ele>111.5</ele><time>2026-05-04T14:57:44Z</time></trkpt><trkpt lat="45.34465354778326" lon="16.091081259531236"><ele>112.0</ele><time>2026-05-04T14:57:45Z</time></trkpt><trkpt lat="45.344852710499964" lon="16.09133759379485"><ele>111.0</ele><time>2026-05-04T14:57:46Z</time></trkpt><trkpt lat="45.34503259907144" lon="16.09157495647257"><ele>110.0</ele><time>2026-05-04T14:57:47Z</time></trkpt><trkpt lat="45.3452042257994" lon="16.091801909995656"><ele>110.0</ele><time>2026-05-04T14:57:48Z</time></trkpt><trkpt lat="45.345370696537636" lon="16.092017191665956"><ele>110.0</ele><time>2026-05-04T14:57:49Z</time></trkpt><trkpt lat="45.34552606345643" lon="16.09221289350374"><ele>110.0</ele><time>2026-05-04T14:57:50Z</time></trkpt><trkpt lat="45.3456694324564" lon="16.092396966557185"><ele>110.33333333333333</ele><time>2026-05-04T14:57:51Z</time></trkpt><trkpt lat="45.34579897506822" lon="16.09256364132943"><ele>110.66666666666666</ele><time>2026-05-04T14:57:52Z</time></trkpt><trkpt lat="45.34591919667612" lon="16.092718383262156"><ele>111.0</ele><time>2026-05-04T14:57:53Z</time></trkpt><trkpt lat="45.34603142969883" lon="16.09286180903392"><ele>111.0</ele><time>2026-05-04T14:57:54Z</time></trkpt><trkpt lat="45.346136244251234" lon="16.092995369367834"><ele>111.0</ele><time>2026-05-04T14:57:55Z</time></trkpt><trkpt lat="45.34623843939251" lon="16.09312879040047"><ele>111.0</ele><time>2026-05-04T14:57:56Z</time></trkpt><trkpt lat="45.34634074605159" lon="16.09326286527021"><ele>111.0</ele><time>2026-05-04T14:57:57Z</time></trkpt><trkpt lat="45.34644207244877" lon="16.093392038359198"><ele>110.75</ele><time>2026-05-04T14:57:58Z</time></trkpt><trkpt lat="45.346543922480016" lon="16.093527819998826"><ele>110.5</ele><time>2026-05-04T14:57:59Z</time></trkpt><trkpt lat="45.346650338069736" lon="16.09366817065008"><ele>110.25</ele><time>2026-05-04T14:58:00Z</time></trkpt><trkpt lat="45.34675653973751" lon="16.09381176263427"><ele>110.0</ele><time>2026-05-04T14:58:01Z</time></trkpt><trkpt lat="45.34685663141047" lon="16.093946277469048"><ele>110.0</ele><time>2026-05-04T14:58:02Z</time></trkpt><trkpt lat="45.34695977924486" lon="16.09407795255939"><ele>110.0</ele><time>2026-05-04T14:58:03Z</time></trkpt><trkpt lat="45.3470611592143" lon="16.094206241682315"><ele>110.0</ele><time>2026-05-04T14:58:04Z</time></trkpt><trkpt lat="45.34716186934047" lon="16.094338353228824"><ele>110.0</ele><time>2026-05-04T14:58:05Z</time></trkpt><trkpt lat="45.347255132059274" lon="16.094459102582302"><ele>109.75</ele><time>2026-05-04T14:58:06Z</time></trkpt><trkpt lat="45.34735072917658" lon="16.094580550824194"><ele>109.5</ele><time>2026-05-04T14:58:07Z</time></trkpt><trkpt lat="45.34744953255165" lon="16.0946985088854"><ele>109.25</ele><time>2026-05-04T14:58:08Z</time></trkpt><trkpt lat="45.34754652007248" lon="16.094828623160964"><ele>109.0</ele><time>2026-05-04T14:58:09Z</time></trkpt><trkpt lat="45.3476464093227" lon="16.094960083059654"><ele>109.5</ele><time>2026-05-04T14:58:10Z</time></trkpt><trkpt lat="45.34774633298085" lon="16.09508410480887"><ele>110.0</ele><time>2026-05-04T14:58:11Z</time></trkpt><trkpt lat="45.34784684633851" lon="16.095208879984582"><ele>110.5</ele><time>2026-05-04T14:58:12Z</time></trkpt><trkpt lat="45.34794500746132" lon="16.095331840142617"><ele>111.0</ele><time>2026-05-04T14:58:13Z</time></trkpt><trkpt lat="45.348038011956135" lon="16.09545312226792"><ele>110.75</ele><time>2026-05-04T14:58:14Z</time></trkpt><trkpt lat="45.34813440011652" lon="16.095575838525082"><ele>110.5</ele><time>2026-05-04T14:58:15Z</time></trkpt><trkpt lat="45.34823709272615" lon="16.09570844697158"><ele>110.25</ele><time>2026-05-04T14:58:16Z</time></trkpt><trkpt lat="45.34834605341937" lon="16.095850297675533"><ele>110.0</ele><time>2026-05-04T14:58:17Z</time></trkpt><trkpt lat="45.348463082558524" lon="16.09599669866415"><ele>109.66666666666666</ele><time>2026-05-04T14:58:18Z</time></trkpt><trkpt lat="45.34857729329408" lon="16.096146805049546"><ele>109.33333333333334</ele><time>2026-05-04T14:58:19Z</time></trkpt><trkpt lat="45.34869349793849" lon="16.096299527469007"><ele>109.0</ele><time>2026-05-04T14:58:20Z</time></trkpt><trkpt lat="45.348814712036656" lon="16.096458188430358"><ele>109.0</ele><time>2026-05-04T14:58:21Z</time></trkpt><trkpt lat="45.3489403980795" lon="16.096619853713143"><ele>109.0</ele><time>2026-05-04T14:58:22Z</time></trkpt><trkpt lat="45.34906880321931" lon="16.09679698111566"><ele>109.0</ele><time>2026-05-04T14:58:23Z</time></trkpt><trkpt lat="45.349194348062746" lon="16.09696254112392"><ele>109.0</ele><time>2026-05-04T14:58:24Z</time></trkpt><trkpt lat="45.34933221489974" lon="16.097138747056338"><ele>109.0</ele><time>2026-05-04T14:58:25Z</time></trkpt><trkpt lat="45.349471187268364" lon="16.09731695889664"><ele>109.0</ele><time>2026-05-04T14:58:26Z</time></trkpt><trkpt lat="45.34959632996337" lon="16.09748187980388"><ele>109.33333333333334</ele><time>2026-05-04T14:58:27Z</time></trkpt><trkpt lat="45.34971783131419" lon="16.0976356810096"><ele>109.66666666666666</ele><time>2026-05-04T14:58:28Z</time></trkpt><trkpt lat="45.349840231001295" lon="16.097795758855543"><ele>110.0</ele><time>2026-05-04T14:58:29Z</time></trkpt><trkpt lat="45.349962474928105" lon="16.097954669198906"><ele>110.0</ele><time>2026-05-04T14:58:30Z</time></trkpt><trkpt lat="45.350092059518424" lon="16.098118146704376"><ele>110.0</ele><time>2026-05-04T14:58:31Z</time></trkpt><trkpt lat="45.35023072719744" lon="16.098291716811026"><ele>110.0</ele><time>2026-05-04T14:58:32Z</time></trkpt><trkpt lat="45.350374975322026" lon="16.098477260298793"><ele>110.0</ele><time>2026-05-04T14:58:33Z</time></trkpt><trkpt lat="45.35053565603716" lon="16.098672831395284"><ele>110.0</ele><time>2026-05-04T14:58:34Z</time></trkpt><trkpt lat="45.35071022053081" lon="16.098896367133957"><ele>110.0</ele><time>2026-05-04T14:58:35Z</time></trkpt><trkpt lat="45.3509076737256" lon="16.099150636002726"><ele>110.0</ele><time>2026-05-04T14:58:36Z</time></trkpt><trkpt lat="45.351112917506605" lon="16.09941183522914"><ele>110.0</ele><time>2026-05-04T14:58:37Z</time></trkpt><trkpt lat="45.351309965884866" lon="16.099666183441062"><ele>109.5</ele><time>2026-05-04T14:58:38Z</time></trkpt><trkpt lat="45.3514860066679" lon="16.099903785554158"><ele>109.0</ele><time>2026-05-04T14:58:39Z</time></trkpt><trkpt lat="45.35165207107954" lon="16.100124780732592"><ele>109.0</ele><time>2026-05-04T14:58:40Z</time></trkpt><trkpt lat="45.35181061714036" lon="16.100333265642227"><ele>109.0</ele><time>2026-05-04T14:58:41Z</time></trkpt><trkpt lat="45.35198716280323" lon="16.100550454429847"><ele>109.0</ele><time>2026-05-04T14:58:42Z</time></trkpt><trkpt lat="45.35218372986813" lon="16.100783245155593"><ele>110.0</ele><time>2026-05-04T14:58:43Z</time></trkpt><trkpt lat="45.352387825762136" lon="16.10102787046476"><ele>111.0</ele><time>2026-05-04T14:58:44Z</time></trkpt><trkpt lat="45.35260067281629" lon="16.101297747460283"><ele>110.5</ele><time>2026-05-04T14:58:45Z</time></trkpt><trkpt lat="45.35282267966311" lon="16.101597858176266"><ele>110.0</ele><time>2026-05-04T14:58:46Z</time></trkpt><trkpt lat="45.3530439768633" lon="16.10190625127764"><ele>109.5</ele><time>2026-05-04T14:58:47Z</time></trkpt><trkpt lat="45.35326633831764" lon="16.102203022430153"><ele>109.0</ele><time>2026-05-04T14:58:48Z</time></trkpt><trkpt lat="45.353495414181204" lon="16.102499927420542"><ele>109.0</ele><time>2026-05-04T14:58:49Z</time></trkpt><trkpt lat="45.353726420175065" lon="16.10280143416029"><ele>109.0</ele><time>2026-05-04T14:58:50Z</time></trkpt><trkpt lat="45.35395903702832" lon="16.103103866266796"><ele>110.0</ele><time>2026-05-04T14:58:51Z</time></trkpt><trkpt lat="45.35419291573153" lon="16.103406123876187"><ele>111.0</ele><time>2026-05-04T14:58:52Z</time></trkpt><trkpt lat="45.354434334053494" lon="16.103715459055827"><ele>111.0</ele><time>2026-05-04T14:58:53Z</time></trkpt><trkpt lat="45.35469637603015" lon="16.104051497687113"><ele>111.0</ele><time>2026-05-04T14:58:54Z</time></trkpt><trkpt lat="45.354943013636195" lon="16.104369828616992"><ele>110.5</ele><time>2026-05-04T14:58:55Z</time></trkpt><trkpt lat="45.355181238062805" lon="16.10467702428706"><ele>110.0</ele><time>2026-05-04T14:58:56Z</time></trkpt><trkpt lat="45.35541943713616" lon="16.10498805214626"><ele>109.0</ele><time>2026-05-04T14:58:57Z</time></trkpt><trkpt lat="45.355662408301626" lon="16.105302159051515"><ele>108.0</ele><time>2026-05-04T14:58:58Z</time></trkpt><trkpt lat="45.355907492663185" lon="16.105625681767087"><ele>108.5</ele><time>2026-05-04T14:58:59Z</time></trkpt><trkpt lat="45.35615086944682" lon="16.105941782126834"><ele>109.0</ele><time>2026-05-04T14:59:00Z</time></trkpt><trkpt lat="45.35638853086747" lon="16.106250759211036"><ele>109.0</ele><time>2026-05-04T14:59:01Z</time></trkpt><trkpt lat="45.356628161086974" lon="16.106557767934447"><ele>109.0</ele><time>2026-05-04T14:59:02Z</time></trkpt><trkpt lat="45.35685727936738" lon="16.106853542106503"><ele>109.0</ele><time>2026-05-04T14:59:03Z</time></trkpt><trkpt lat="45.35706053785166" lon="16.10712169203162"><ele>109.0</ele><time>2026-05-04T14:59:04Z</time></trkpt><trkpt lat="45.35723829934889" lon="16.10735145748459"><ele>108.33333333333334</ele><time>2026-05-04T14:59:05Z</time></trkpt><trkpt lat="45.35739997530323" lon="16.10756135054299"><ele>107.66666666666666</ele><time>2026-05-04T14:59:06Z</time></trkpt><trkpt lat="45.35755425018398" lon="16.10776410010195"><ele>107.0</ele><time>2026-05-04T14:59:07Z</time></trkpt><trkpt lat="45.35770205281275" lon="16.10795794063132"><ele>107.0</ele><time>2026-05-04T14:59:08Z</time></trkpt><trkpt lat="45.35784274874534" lon="16.10814022335726"><ele>107.0</ele><time>2026-05-04T14:59:09Z</time></trkpt><trkpt lat="45.3579745328139" lon="16.108311754126525"><ele>107.0</ele><time>2026-05-04T14:59:10Z</time></trkpt><trkpt lat="45.358098204523266" lon="16.10847414096154"><ele>107.25</ele><time>2026-05-04T14:59:11Z</time></trkpt><trkpt lat="45.35821454904004" lon="16.108622614756836"><ele>107.5</ele><time>2026-05-04T14:59:12Z</time></trkpt><trkpt lat="45.35832156021504" lon="16.108768260641497"><ele>107.75</ele><time>2026-05-04T14:59:13Z</time></trkpt><trkpt lat="45.35842160318228" lon="16.108905442659815"><ele>108.0</ele><time>2026-05-04T14:59:14Z</time></trkpt><trkpt lat="45.35851312355281" lon="16.109045946003246"><ele>108.0</ele><time>2026-05-04T14:59:15Z</time></trkpt><trkpt lat="45.35861405079272" lon="16.109185150509685"><ele>108.0</ele><time>2026-05-04T14:59:16Z</time></trkpt><trkpt lat="45.35871760024572" lon="16.109338894590703"><ele>108.0</ele><time>2026-05-04T14:59:17Z</time></trkpt><trkpt lat="45.35882097888395" lon="16.10948769663353"><ele>108.0</ele><time>2026-05-04T14:59:18Z</time></trkpt><trkpt lat="45.35891466633679" lon="16.109632929504656"><ele>108.0</ele><time>2026-05-04T14:59:19Z</time></trkpt><trkpt lat="45.35900530810003" lon="16.109767762684992"><ele>108.0</ele><time>2026-05-04T14:59:20Z</time></trkpt><trkpt lat="45.3590990449193" lon="16.109914055839504"><ele>108.0</ele><time>2026-05-04T14:59:21Z</time></trkpt><trkpt lat="45.35918990020107" lon="16.110063160037274"><ele>108.0</ele><time>2026-05-04T14:59:22Z</time></trkpt><trkpt lat="45.35928307587292" lon="16.110212483167874"><ele>108.0</ele><time>2026-05-04T14:59:23Z</time></trkpt><trkpt lat="45.35938026692615" lon="16.110366977441792"><ele>108.0</ele><time>2026-05-04T14:59:24Z</time></trkpt><trkpt lat="45.359480536957804" lon="16.110513639431584"><ele>108.0</ele><time>2026-05-04T14:59:25Z</time></trkpt><trkpt lat="45.35957981020944" lon="16.110658054948573"><ele>108.0</ele><time>2026-05-04T14:59:26Z</time></trkpt><trkpt lat="45.359669671885946" lon="16.11079640748168"><ele>108.25</ele><time>2026-05-04T14:59:27Z</time></trkpt><trkpt lat="45.35975433285393" lon="16.110929855395117"><ele>108.5</ele><time>2026-05-04T14:59:28Z</time></trkpt><trkpt lat="45.359835772110614" lon="16.111055004868568"><ele>108.75</ele><time>2026-05-04T14:59:29Z</time></trkpt><trkpt lat="45.35992213492637" lon="16.111185105796533"><ele>109.0</ele><time>2026-05-04T14:59:30Z</time></trkpt><trkpt lat="45.36001861174736" lon="16.111333529148183"><ele>109.0</ele><time>2026-05-04T14:59:31Z</time></trkpt><trkpt lat="45.36012384993298" lon="16.111489872383107"><ele>109.0</ele><time>2026-05-04T14:59:32Z</time></trkpt><trkpt lat="45.360223641684115" lon="16.11163277182291"><ele>109.0</ele><time>2026-05-04T14:59:33Z</time></trkpt><trkpt lat="45.36031466051135" lon="16.1117648478887"><ele>109.0</ele><time>2026-05-04T14:59:34Z</time></trkpt><trkpt lat="45.36039707388882" lon="16.11188987470713"><ele>109.0</ele><time>2026-05-04T14:59:35Z</time></trkpt><trkpt lat="45.36048100978786" lon="16.112017380009807"><ele>109.0</ele><time>2026-05-04T14:59:36Z</time></trkpt><trkpt lat="45.36057117275569" lon="16.11215604904497"><ele>109.0</ele><time>2026-05-04T14:59:37Z</time></trkpt><trkpt lat="45.36065930051425" lon="16.112290976293817"><ele>109.0</ele><time>2026-05-04T14:59:38Z</time></trkpt><trkpt lat="45.36074313940665" lon="16.11241501259612"><ele>108.5</ele><time>2026-05-04T14:59:39Z</time></trkpt><trkpt lat="45.36082200042629" lon="16.112532944150317"><ele>108.0</ele><time>2026-05-04T14:59:40Z</time></trkpt><trkpt lat="45.3609026633537" lon="16.11265009933477"><ele>107.5</ele><time>2026-05-04T14:59:41Z</time></trkpt><trkpt lat="45.36098670354948" lon="16.112771073768965"><ele>107.0</ele><time>2026-05-04T14:59:42Z</time></trkpt><trkpt lat="45.36107249725499" lon="16.112895285368808"><ele>107.0</ele><time>2026-05-04T14:59:43Z</time></trkpt><trkpt lat="45.36115778145127" lon="16.113016883379814"><ele>107.0</ele><time>2026-05-04T14:59:44Z</time></trkpt><trkpt lat="45.36124309316599" lon="16.11313826335562"><ele>107.0</ele><time>2026-05-04T14:59:45Z</time></trkpt><trkpt lat="45.36132609235898" lon="16.113262519849524"><ele>107.0</ele><time>2026-05-04T14:59:46Z</time></trkpt><trkpt lat="45.3614036210637" lon="16.113381234742477"><ele>107.25</ele><time>2026-05-04T14:59:47Z</time></trkpt><trkpt lat="45.36147937399374" lon="16.11349204525923"><ele>107.5</ele><time>2026-05-04T14:59:48Z</time></trkpt><trkpt lat="45.36156085307824" lon="16.113606012380167"><ele>107.75</ele><time>2026-05-04T14:59:49Z</time></trkpt><trkpt lat="45.36164506779676" lon="16.11372506163196"><ele>108.0</ele><time>2026-05-04T14:59:50Z</time></trkpt><trkpt lat="45.36172576588647" lon="16.113856104173216"><ele>108.0</ele><time>2026-05-04T14:59:51Z</time></trkpt><trkpt lat="45.361804961118295" lon="16.113990948665148"><ele>108.0</ele><time>2026-05-04T14:59:52Z</time></trkpt><trkpt lat="45.36188612630008" lon="16.11412728795094"><ele>108.0</ele><time>2026-05-04T14:59:53Z</time></trkpt><trkpt lat="45.36197023227568" lon="16.114259418071967"><ele>108.0</ele><time>2026-05-04T14:59:54Z</time></trkpt><trkpt lat="45.36205710224172" lon="16.114392345222292"><ele>107.75</ele><time>2026-05-04T14:59:55Z</time></trkpt><trkpt lat="45.362144385205156" lon="16.114524779202515"><ele>107.5</ele><time>2026-05-04T14:59:56Z</time></trkpt><trkpt lat="45.362229257672894" lon="16.114652330084162"><ele>107.25</ele><time>2026-05-04T14:59:57Z</time></trkpt><trkpt lat="45.3623141354727" lon="16.11477939953418"><ele>107.0</ele><time>2026-05-04T14:59:58Z</time></trkpt><trkpt lat="45.36239893207593" lon="16.11491226782951"><ele>106.75</ele><time>2026-05-04T14:59:59Z</time></trkpt><trkpt lat="45.36248762788028" lon="16.115053802899816"><ele>106.5</ele><time>2026-05-04T15:00:00Z</time></trkpt><trkpt lat="45.36257782337772" lon="16.115197575137923"><ele>106.25</ele><time>2026-05-04T15:00:01Z</time></trkpt><trkpt lat="45.362671289094806" lon="16.11534374200432"><ele>106.0</ele><time>2026-05-04T15:00:02Z</time></trkpt><trkpt lat="45.36276950717756" lon="16.11549274759452"><ele>106.0</ele><time>2026-05-04T15:00:03Z</time></trkpt><trkpt lat="45.36286842688173" lon="16.115639590696528"><ele>106.0</ele><time>2026-05-04T15:00:04Z</time></trkpt><trkpt lat="45.36296759460257" lon="16.11578331659013"><ele>106.0</ele><time>2026-05-04T15:00:05Z</time></trkpt><trkpt lat="45.36306376021555" lon="16.115924173540876"><ele>106.0</ele><time>2026-05-04T15:00:06Z</time></trkpt><trkpt lat="45.36316014652928" lon="16.116069277559077"><ele>106.0</ele><time>2026-05-04T15:00:07Z</time></trkpt><trkpt lat="45.36325845857734" lon="16.116221942832603"><ele>106.0</ele><time>2026-05-04T15:00:08Z</time></trkpt><trkpt lat="45.36335766305103" lon="16.116375898180415"><ele>106.0</ele><time>2026-05-04T15:00:09Z</time></trkpt><trkpt lat="45.36346030246893" lon="16.11653322457084"><ele>106.0</ele><time>2026-05-04T15:00:10Z</time></trkpt><trkpt lat="45.363564166559776" lon="16.11668959631787"><ele>106.33333333333334</ele><time>2026-05-04T15:00:11Z</time></trkpt><trkpt lat="45.36366725665385" lon="16.116850360357137"><ele>106.66666666666666</ele><time>2026-05-04T15:00:12Z</time></trkpt><trkpt lat="45.36377397081764" lon="16.117013108196872"><ele>107.0</ele><time>2026-05-04T15:00:13Z</time></trkpt><trkpt lat="45.36388590655177" lon="16.117175526290954"><ele>107.0</ele><time>2026-05-04T15:00:14Z</time></trkpt><trkpt lat="45.36399171345143" lon="16.117336508208393"><ele>107.0</ele><time>2026-05-04T15:00:15Z</time></trkpt><trkpt lat="45.36409133766454" lon="16.11749433192048"><ele>107.0</ele><time>2026-05-04T15:00:16Z</time></trkpt><trkpt lat="45.36418872039859" lon="16.1176514724997"><ele>107.0</ele><time>2026-05-04T15:00:17Z</time></trkpt><trkpt lat="45.364282103470984" lon="16.11781135064195"><ele>107.0</ele><time>2026-05-04T15:00:18Z</time></trkpt><trkpt lat="45.36437920500181" lon="16.117976190901434"><ele>107.0</ele><time>2026-05-04T15:00:19Z</time></trkpt><trkpt lat="45.364472648827764" lon="16.118139770610746"><ele>107.0</ele><time>2026-05-04T15:00:20Z</time></trkpt><trkpt lat="45.364557214818525" lon="16.118294004256306"><ele>107.0</ele><time>2026-05-04T15:00:21Z</time></trkpt><trkpt lat="45.36464337611449" lon="16.118455915038723"><ele>107.0</ele><time>2026-05-04T15:00:22Z</time></trkpt><trkpt lat="45.36473865307084" lon="16.118630954213216"><ele>107.0</ele><time>2026-05-04T15:00:23Z</time></trkpt><trkpt lat="45.36483618961912" lon="16.118809831783928"><ele>107.0</ele><time>2026-05-04T15:00:24Z</time></trkpt><trkpt lat="45.364931165851154" lon="16.118984965047684"><ele>107.0</ele><time>2026-05-04T15:00:25Z</time></trkpt><trkpt lat="45.365029347161254" lon="16.11916189738436"><ele>107.0</ele><time>2026-05-04T15:00:26Z</time></trkpt><trkpt lat="45.36512705739684" lon="16.119335054467108"><ele>107.33333333333333</ele><time>2026-05-04T15:00:27Z</time></trkpt><trkpt lat="45.365221093149586" lon="16.119507976692315"><ele>107.66666666666666</ele><time>2026-05-04T15:00:28Z</time></trkpt><trkpt lat="45.3653214625977" lon="16.1196871978165"><ele>108.0</ele><time>2026-05-04T15:00:29Z</time></trkpt><trkpt lat="45.36542069489688" lon="16.119868287086554"><ele>108.0</ele><time>2026-05-04T15:00:30Z</time></trkpt><trkpt lat="45.365518373477165" lon="16.12004642755679"><ele>108.0</ele><time>2026-05-04T15:00:31Z</time></trkpt><trkpt lat="45.36561589379508" lon="16.12022675796636"><ele>108.0</ele><time>2026-05-04T15:00:32Z</time></trkpt><trkpt lat="45.36571586429854" lon="16.120413934477327"><ele>108.0</ele><time>2026-05-04T15:00:33Z</time></trkpt><trkpt lat="45.3658211005052" lon="16.120610193556644"><ele>108.0</ele><time>2026-05-04T15:00:34Z</time></trkpt><trkpt lat="45.36593158408834" lon="16.120807614529294"><ele>108.0</ele><time>2026-05-04T15:00:35Z</time></trkpt><trkpt lat="45.36603804566775" lon="16.120996770394235"><ele>108.0</ele><time>2026-05-04T15:00:36Z</time></trkpt><trkpt lat="45.366141771883825" lon="16.1211705031176"><ele>108.0</ele><time>2026-05-04T15:00:37Z</time></trkpt><trkpt lat="45.36624030047598" lon="16.121338112386038"><ele>108.0</ele><time>2026-05-04T15:00:38Z</time></trkpt><trkpt lat="45.36632898330219" lon="16.121500003780127"><ele>108.0</ele><time>2026-05-04T15:00:39Z</time></trkpt><trkpt lat="45.36640803147713" lon="16.121655835228495"><ele>108.00000000000001</ele><time>2026-05-04T15:00:40Z</time></trkpt><trkpt lat="45.36647843032873" lon="16.12178431784182"><ele>108.00000000000001</ele><time>2026-05-04T15:00:41Z</time></trkpt><trkpt lat="45.36652896563444" lon="16.1218638333932"><ele>108.0</ele><time>2026-05-04T15:00:42Z</time></trkpt><trkpt lat="45.36663602595325" lon="16.121864166850127"><ele>108.0</ele><time>2026-05-04T15:00:44Z</time></trkpt><trkpt lat="45.366709150973826" lon="16.121809758951205"><ele>108.0</ele><time>2026-05-04T15:00:45Z</time></trkpt><trkpt lat="45.366812777265245" lon="16.121707935182226"><ele>108.0</ele><time>2026-05-04T15:00:46Z</time></trkpt><trkpt lat="45.36694741331835" lon="16.12157614467892"><ele>108.0</ele><time>2026-05-04T15:00:47Z</time></trkpt><trkpt lat="45.36710795661431" lon="16.121441631637083"><ele>107.66666666666666</ele><time>2026-05-04T15:00:48Z</time></trkpt><trkpt lat="45.367277415555456" lon="16.121293495025117"><ele>107.33333333333333</ele><time>2026-05-04T15:00:49Z</time></trkpt><trkpt lat="45.36745150534624" lon="16.12113120265256"><ele>107.0</ele><time>2026-05-04T15:00:50Z</time></trkpt><trkpt lat="45.3676147127582" lon="16.12097756379904"><ele>107.0</ele><time>2026-05-04T15:00:51Z</time></trkpt><trkpt lat="45.367770551366036" lon="16.120825246028446"><ele>107.0</ele><time>2026-05-04T15:00:52Z</time></trkpt><trkpt lat="45.36792424076242" lon="16.120673971254913"><ele>107.0</ele><time>2026-05-04T15:00:53Z</time></trkpt><trkpt lat="45.36807309596863" lon="16.120521050109986"><ele>106.66666666666666</ele><time>2026-05-04T15:00:54Z</time></trkpt><trkpt lat="45.36821882857254" lon="16.12033281993196"><ele>106.33333333333334</ele><time>2026-05-04T15:00:55Z</time></trkpt><trkpt lat="45.36834980533574" lon="16.120113101804346"><ele>106.0</ele><time>2026-05-04T15:00:56Z</time></trkpt><trkpt lat="45.3684747144136" lon="16.119876467913546"><ele>106.0</ele><time>2026-05-04T15:00:57Z</time></trkpt><trkpt lat="45.36860160595918" lon="16.119634736682986"><ele>106.0</ele><time>2026-05-04T15:00:58Z</time></trkpt><trkpt lat="45.36873581131951" lon="16.119393483473647"><ele>106.0</ele><time>2026-05-04T15:00:59Z</time></trkpt><trkpt lat="45.36887173722381" lon="16.119149456748076"><ele>106.0</ele><time>2026-05-04T15:01:00Z</time></trkpt><trkpt lat="45.36900268280685" lon="16.118910088804068"><ele>106.0</ele><time>2026-05-04T15:01:01Z</time></trkpt><trkpt lat="45.36912522837565" lon="16.118700789258572"><ele>106.0</ele><time>2026-05-04T15:01:02Z</time></trkpt><trkpt lat="45.36925715454942" lon="16.11852356261276"><ele>106.0</ele><time>2026-05-04T15:01:03Z</time></trkpt><trkpt lat="45.369411244710626" lon="16.118416477705786"><ele>106.0</ele><time>2026-05-04T15:01:04Z</time></trkpt><trkpt lat="45.369592881543774" lon="16.118362375422876"><ele>106.0</ele><time>2026-05-04T15:01:05Z</time></trkpt><trkpt lat="45.36979015075514" lon="16.11833307912799"><ele>105.33333333333334</ele><time>2026-05-04T15:01:06Z</time></trkpt><trkpt lat="45.36998100181747" lon="16.118293616224282"><ele>104.66666666666666</ele><time>2026-05-04T15:01:07Z</time></trkpt><trkpt lat="45.370164347860594" lon="16.118231701199708"><ele>104.0</ele><time>2026-05-04T15:01:08Z</time></trkpt><trkpt lat="45.37032321230546" lon="16.118140993282648"><ele>104.0</ele><time>2026-05-04T15:01:09Z</time></trkpt><trkpt lat="45.37046548789595" lon="16.11798245746244"><ele>104.0</ele><time>2026-05-04T15:01:10Z</time></trkpt><trkpt lat="45.37058423752637" lon="16.117771547042754"><ele>104.0</ele><time>2026-05-04T15:01:11Z</time></trkpt><trkpt lat="45.3706961971963" lon="16.11755340721018"><ele>104.33333333333333</ele><time>2026-05-04T15:01:12Z</time></trkpt><trkpt lat="45.37083764712157" lon="16.11737806827506"><ele>104.66666666666666</ele><time>2026-05-04T15:01:13Z</time></trkpt><trkpt lat="45.371025013447316" lon="16.117267298315568"><ele>105.0</ele><time>2026-05-04T15:01:14Z</time></trkpt><trkpt lat="45.37124656335851" lon="16.117202749430056"><ele>105.5</ele><time>2026-05-04T15:01:15Z</time></trkpt><trkpt lat="45.37148263950184" lon="16.117128529448745"><ele>106.0</ele><time>2026-05-04T15:01:16Z</time></trkpt><trkpt lat="45.37172589054078" lon="16.117035745192247"><ele>106.0</ele><time>2026-05-04T15:01:17Z</time></trkpt><trkpt lat="45.37197644352061" lon="16.116934357368983"><ele>106.0</ele><time>2026-05-04T15:01:18Z</time></trkpt><trkpt lat="45.37224005224933" lon="16.116823967726944"><ele>107.0</ele><time>2026-05-04T15:01:19Z</time></trkpt><trkpt lat="45.372509557172485" lon="16.11671076373695"><ele>108.0</ele><time>2026-05-04T15:01:20Z</time></trkpt><trkpt lat="45.37275151806787" lon="16.116605078362895"><ele>108.0</ele><time>2026-05-04T15:01:21Z</time></trkpt><trkpt lat="45.37296580528176" lon="16.116514257208657"><ele>108.0</ele><time>2026-05-04T15:01:22Z</time></trkpt><trkpt lat="45.37315293835815" lon="16.116439391775675"><ele>108.0</ele><time>2026-05-04T15:01:23Z</time></trkpt><trkpt lat="45.373314856555545" lon="16.116378299379473"><ele>110.5</ele><time>2026-05-04T15:01:24Z</time></trkpt><trkpt lat="45.37346019480613" lon="16.116345076310207"><ele>113.0</ele><time>2026-05-04T15:01:25Z</time></trkpt><trkpt lat="45.37359032461763" lon="16.116351730848063"><ele>115.5</ele><time>2026-05-04T15:01:26Z</time></trkpt><trkpt lat="45.37371024180002" lon="16.11641509345177"><ele>118.0</ele><time>2026-05-04T15:01:27Z</time></trkpt><trkpt lat="45.37383013900689" lon="16.116543657371277"><ele>120.33333333333334</ele><time>2026-05-04T15:01:28Z</time></trkpt><trkpt lat="45.37396652456727" lon="16.11670409629777"><ele>122.66666666666666</ele><time>2026-05-04T15:01:29Z</time></trkpt><trkpt lat="45.37413832278084" lon="16.116863058364363"><ele>125.0</ele><time>2026-05-04T15:01:30Z</time></trkpt><trkpt lat="45.37433133549495" lon="16.11702112894472"><ele>125.0</ele><time>2026-05-04T15:01:31Z</time></trkpt><trkpt lat="45.37453171668815" lon="16.11716607400601"><ele>125.0</ele><time>2026-05-04T15:01:32Z</time></trkpt><trkpt lat="45.37472693077464" lon="16.117290063135258"><ele>125.0</ele><time>2026-05-04T15:01:33Z</time></trkpt><trkpt lat="45.374915907631" lon="16.117399389923985"><ele>126.0</ele><time>2026-05-04T15:01:34Z</time></trkpt><trkpt lat="45.37510317114544" lon="16.117493469015"><ele>127.0</ele><time>2026-05-04T15:01:35Z</time></trkpt><trkpt lat="45.37529021768816" lon="16.117591769480974"><ele>128.0</ele><time>2026-05-04T15:01:36Z</time></trkpt><trkpt lat="45.37545645573137" lon="16.11769354811733"><ele>129.75</ele><time>2026-05-04T15:01:37Z</time></trkpt><trkpt lat="45.37560255115154" lon="16.11778015173368"><ele>131.5</ele><time>2026-05-04T15:01:38Z</time></trkpt><trkpt lat="45.37574016612086" lon="16.11782223307558"><ele>133.25</ele><time>2026-05-04T15:01:39Z</time></trkpt><trkpt lat="45.375861682839236" lon="16.11780217995703"><ele>135.0</ele><time>2026-05-04T15:01:40Z</time></trkpt><trkpt lat="45.37597015904733" lon="16.117725087062404"><ele>135.0</ele><time>2026-05-04T15:01:41Z</time></trkpt><trkpt lat="45.37607485883047" lon="16.117658007708016"><ele>135.0</ele><time>2026-05-04T15:01:42Z</time></trkpt><trkpt lat="45.37617440035023" lon="16.11765680999096"><ele>135.0</ele><time>2026-05-04T15:01:43Z</time></trkpt><trkpt lat="45.37626365431475" lon="16.11773333605536"><ele>135.0</ele><time>2026-05-04T15:01:44Z</time></trkpt><trkpt lat="45.37635202255903" lon="16.11785144581232"><ele>135.0</ele><time>2026-05-04T15:01:45Z</time></trkpt><trkpt lat="45.37644403046519" lon="16.11798572743296"><ele>137.25</ele><time>2026-05-04T15:01:46Z</time></trkpt><trkpt lat="45.3765459404543" lon="16.118123382696677"><ele>139.5</ele><time>2026-05-04T15:01:47Z</time></trkpt><trkpt lat="45.376669174049" lon="16.11823755235235"><ele>141.75</ele><time>2026-05-04T15:01:48Z</time></trkpt><trkpt lat="45.37681159576601" lon="16.1183115304641"><ele>144.0</ele><time>2026-05-04T15:01:49Z</time></trkpt><trkpt lat="45.3769657994343" lon="16.118369534784108"><ele>144.0</ele><time>2026-05-04T15:01:50Z</time></trkpt><trkpt lat="45.37711576411631" lon="16.118421557220135"><ele>144.0</ele><time>2026-05-04T15:01:51Z</time></trkpt><trkpt lat="45.37728079937752" lon="16.11847553404481"><ele>144.0</ele><time>2026-05-04T15:01:52Z</time></trkpt><trkpt lat="45.37747052949191" lon="16.118526666069364"><ele>145.33333333333334</ele><time>2026-05-04T15:01:53Z</time></trkpt><trkpt lat="45.37765177716711" lon="16.118559986832967"><ele>146.66666666666669</ele><time>2026-05-04T15:01:54Z</time></trkpt><trkpt lat="45.37783861785097" lon="16.11860400682099"><ele>148.0</ele><time>2026-05-04T15:01:55Z</time></trkpt><trkpt lat="45.37801325417695" lon="16.118667420062334"><ele>147.33333333333334</ele><time>2026-05-04T15:01:56Z</time></trkpt><trkpt lat="45.378167838747764" lon="16.118810685957673"><ele>146.66666666666666</ele><time>2026-05-04T15:01:57Z</time></trkpt><trkpt lat="45.3782918705684" lon="16.119012857548498"><ele>146.0</ele><time>2026-05-04T15:01:58Z</time></trkpt><trkpt lat="45.378385230696594" lon="16.119199557679213"><ele>147.33333333333331</ele><time>2026-05-04T15:01:59Z</time></trkpt><trkpt lat="45.37851525067618" lon="16.119338994928412"><ele>148.66666666666666</ele><time>2026-05-04T15:02:00Z</time></trkpt><trkpt lat="45.37868909664099" lon="16.11944900985502"><ele>150.0</ele><time>2026-05-04T15:02:01Z</time></trkpt><trkpt lat="45.37888364433258" lon="16.11955552152446"><ele>150.66666666666666</ele><time>2026-05-04T15:02:02Z</time></trkpt><trkpt lat="45.379084392556315" lon="16.11965460876638"><ele>151.33333333333331</ele><time>2026-05-04T15:02:03Z</time></trkpt><trkpt lat="45.37929431376607" lon="16.1197249275419"><ele>152.0</ele><time>2026-05-04T15:02:04Z</time></trkpt><trkpt lat="45.379513731219916" lon="16.119748161237506"><ele>153.66666666666666</ele><time>2026-05-04T15:02:05Z</time></trkpt><trkpt lat="45.37971889766243" lon="16.119737254953783"><ele>155.33333333333334</ele><time>2026-05-04T15:02:06Z</time></trkpt><trkpt lat="45.379912752345184" lon="16.11972631452795"><ele>157.0</ele><time>2026-05-04T15:02:07Z</time></trkpt><trkpt lat="45.38008823221567" lon="16.1197145949828"><ele>157.0</ele><time>2026-05-04T15:02:08Z</time></trkpt><trkpt lat="45.38025467907504" lon="16.1197059147004"><ele>157.0</ele><time>2026-05-04T15:02:09Z</time></trkpt><trkpt lat="45.380403445152474" lon="16.119715393838984"><ele>157.0</ele><time>2026-05-04T15:02:10Z</time></trkpt><trkpt lat="45.38053666185212" lon="16.11970952188457"><ele>157.0</ele><time>2026-05-04T15:02:11Z</time></trkpt><trkpt lat="45.38066032727626" lon="16.11963300269793"><ele>157.5</ele><time>2026-05-04T15:02:12Z</time></trkpt><trkpt lat="45.38077623209183" lon="16.119480066536113"><ele>158.0</ele><time>2026-05-04T15:02:13Z</time></trkpt><trkpt lat="45.380875547961715" lon="16.11932238986489"><ele>158.5</ele><time>2026-05-04T15:02:14Z</time></trkpt><trkpt lat="45.38099040569339" lon="16.1192228814381"><ele>159.0</ele><time>2026-05-04T15:02:15Z</time></trkpt><trkpt lat="45.38111479205131" lon="16.11920070874193"><ele>159.0</ele><time>2026-05-04T15:02:16Z</time></trkpt><trkpt lat="45.38124728147033" lon="16.119263712357107"><ele>159.0</ele><time>2026-05-04T15:02:17Z</time></trkpt><trkpt lat="45.381369324602225" lon="16.119349127830596"><ele>159.0</ele><time>2026-05-04T15:02:18Z</time></trkpt><trkpt lat="45.38148896035421" lon="16.119439996864177"><ele>159.0</ele><time>2026-05-04T15:02:19Z</time></trkpt><trkpt lat="45.38161169307702" lon="16.119516530614334"><ele>160.8</ele><time>2026-05-04T15:02:20Z</time></trkpt><trkpt lat="45.381708780003564" lon="16.119564343970243"><ele>162.60000000000002</ele><time>2026-05-04T15:02:21Z</time></trkpt><trkpt lat="45.38180230991106" lon="16.119577134002853"><ele>164.4</ele><time>2026-05-04T15:02:22Z</time></trkpt><trkpt lat="45.38189793110138" lon="16.119524993683573"><ele>166.20000000000002</ele><time>2026-05-04T15:02:23Z</time></trkpt><trkpt lat="45.38196861435981" lon="16.119410277922096"><ele>168.0</ele><time>2026-05-04T15:02:24Z</time></trkpt><trkpt lat="45.38201058998628" lon="16.119230835454093"><ele>167.33333333333334</ele><time>2026-05-04T15:02:25Z</time></trkpt><trkpt lat="45.38206067137211" lon="16.118993716434222"><ele>166.66666666666669</ele><time>2026-05-04T15:02:26Z</time></trkpt><trkpt lat="45.38212890190655" lon="16.118744060664433"><ele>166.0</ele><time>2026-05-04T15:02:27Z</time></trkpt><trkpt lat="45.382187345025116" lon="16.11849599204672"><ele>167.33333333333334</ele><time>2026-05-04T15:02:28Z</time></trkpt><trkpt lat="45.3822203537689" lon="16.118224853997088"><ele>168.66666666666666</ele><time>2026-05-04T15:02:29Z</time></trkpt><trkpt lat="45.38224664244004" lon="16.117969335655044"><ele>170.0</ele><time>2026-05-04T15:02:30Z</time></trkpt><trkpt lat="45.38232559511343" lon="16.117749436354085"><ele>170.0</ele><time>2026-05-04T15:02:31Z</time></trkpt><trkpt lat="45.382464698211855" lon="16.117571145289176"><ele>170.0</ele><time>2026-05-04T15:02:32Z</time></trkpt><trkpt lat="45.382620340500225" lon="16.1173958829108"><ele>170.0</ele><time>2026-05-04T15:02:33Z</time></trkpt><trkpt lat="45.38276271048769" lon="16.11719905899654"><ele>170.66666666666666</ele><time>2026-05-04T15:02:34Z</time></trkpt><trkpt lat="45.38288847462819" lon="16.116999988710216"><ele>171.33333333333334</ele><time>2026-05-04T15:02:35Z</time></trkpt><trkpt lat="45.38298856944916" lon="16.11680864371688"><ele>172.0</ele><time>2026-05-04T15:02:36Z</time></trkpt><trkpt lat="45.38307043659557" lon="16.11660266619556"><ele>169.66666666666669</ele><time>2026-05-04T15:02:37Z</time></trkpt><trkpt lat="45.383144912306754" lon="16.116363117490273"><ele>167.33333333333334</ele><time>2026-05-04T15:02:38Z</time></trkpt><trkpt lat="45.383213245610456" lon="16.11610413250031"><ele>165.0</ele><time>2026-05-04T15:02:39Z</time></trkpt><trkpt lat="45.383276725968315" lon="16.115849862872597"><ele>163.66666666666666</ele><time>2026-05-04T15:02:40Z</time></trkpt><trkpt lat="45.38332634860989" lon="16.115585527009788"><ele>162.33333333333331</ele><time>2026-05-04T15:02:41Z</time></trkpt><trkpt lat="45.38335132766709" lon="16.115313541767232"><ele>161.0</ele><time>2026-05-04T15:02:42Z</time></trkpt><trkpt lat="45.38337371604036" lon="16.11501435027447"><ele>160.0</ele><time>2026-05-04T15:02:43Z</time></trkpt><trkpt lat="45.38339244221031" lon="16.1147015425396"><ele>159.0</ele><time>2026-05-04T15:02:44Z</time></trkpt><trkpt lat="45.38340792372851" lon="16.114413680706033"><ele>158.0</ele><time>2026-05-04T15:02:45Z</time></trkpt><trkpt lat="45.38342373227238" lon="16.114140934046677"><ele>159.0</ele><time>2026-05-04T15:02:46Z</time></trkpt><trkpt lat="45.38344359438532" lon="16.113874601323662"><ele>160.0</ele><time>2026-05-04T15:02:47Z</time></trkpt><trkpt lat="45.38347825900322" lon="16.11364218096722"><ele>161.0</ele><time>2026-05-04T15:02:48Z</time></trkpt><trkpt lat="45.38355159731737" lon="16.11344670924931"><ele>161.0</ele><time>2026-05-04T15:02:49Z</time></trkpt><trkpt lat="45.38366905435735" lon="16.113263209388496"><ele>161.0</ele><time>2026-05-04T15:02:50Z</time></trkpt><trkpt lat="45.38379982102763" lon="16.113068544811057"><ele>161.0</ele><time>2026-05-04T15:02:51Z</time></trkpt><trkpt lat="45.38393579602299" lon="16.112858628517525"><ele>160.0</ele><time>2026-05-04T15:02:52Z</time></trkpt><trkpt lat="45.38405770790949" lon="16.112630125027735"><ele>159.0</ele><time>2026-05-04T15:02:53Z</time></trkpt><trkpt lat="45.38416830580592" lon="16.11237629670846"><ele>158.0</ele><time>2026-05-04T15:02:54Z</time></trkpt><trkpt lat="45.38425889039699" lon="16.112082147317945"><ele>158.0</ele><time>2026-05-04T15:02:55Z</time></trkpt><trkpt lat="45.38433223372413" lon="16.111756655041887"><ele>158.0</ele><time>2026-05-04T15:02:56Z</time></trkpt><trkpt lat="45.38441708213297" lon="16.11143039991179"><ele>158.0</ele><time>2026-05-04T15:02:57Z</time></trkpt><trkpt lat="45.38449781031928" lon="16.11111780861383"><ele>158.0</ele><time>2026-05-04T15:02:58Z</time></trkpt><trkpt lat="45.38456103734786" lon="16.110834289697923"><ele>158.0</ele><time>2026-05-04T15:02:59Z</time></trkpt><trkpt lat="45.384611781483144" lon="16.11057269780996"><ele>157.33333333333331</ele><time>2026-05-04T15:03:00Z</time></trkpt><trkpt lat="45.384653360149706" lon="16.11033708251773"><ele>156.66666666666666</ele><time>2026-05-04T15:03:01Z</time></trkpt><trkpt lat="45.38472269393732" lon="16.110170576323952"><ele>156.0</ele><time>2026-05-04T15:03:02Z</time></trkpt><trkpt lat="45.38484200667887" lon="16.110008058459787"><ele>158.0</ele><time>2026-05-04T15:03:03Z</time></trkpt><trkpt lat="45.38501034359221" lon="16.109863193711465"><ele>160.0</ele><time>2026-05-04T15:03:04Z</time></trkpt><trkpt lat="45.385179523475465" lon="16.109722490840763"><ele>162.0</ele><time>2026-05-04T15:03:05Z</time></trkpt><trkpt lat="45.38531579886569" lon="16.109563390672722"><ele>162.0</ele><time>2026-05-04T15:03:06Z</time></trkpt><trkpt lat="45.38545722762542" lon="16.109361250131553"><ele>162.0</ele><time>2026-05-04T15:03:07Z</time></trkpt><trkpt lat="45.38560384138349" lon="16.109097993937375"><ele>162.0</ele><time>2026-05-04T15:03:08Z</time></trkpt><trkpt lat="45.38573838659269" lon="16.10880637706831"><ele>161.0</ele><time>2026-05-04T15:03:09Z</time></trkpt><trkpt lat="45.38587279956858" lon="16.10852710500124"><ele>160.0</ele><time>2026-05-04T15:03:10Z</time></trkpt><trkpt lat="45.386045190888744" lon="16.108296865499586"><ele>159.33333333333334</ele><time>2026-05-04T15:03:11Z</time></trkpt><trkpt lat="45.38624241520561" lon="16.108123356774662"><ele>158.66666666666666</ele><time>2026-05-04T15:03:12Z</time></trkpt><trkpt lat="45.386420043262625" lon="16.107982274865364"><ele>158.0</ele><time>2026-05-04T15:03:13Z</time></trkpt><trkpt lat="45.386557308187825" lon="16.107819418792992"><ele>160.33333333333331</ele><time>2026-05-04T15:03:14Z</time></trkpt><trkpt lat="45.38665230092984" lon="16.10758770572698"><ele>162.66666666666666</ele><time>2026-05-04T15:03:15Z</time></trkpt><trkpt lat="45.386703919977336" lon="16.107342118511728"><ele>165.0</ele><time>2026-05-04T15:03:16Z</time></trkpt><trkpt lat="45.38675459829088" lon="16.107116084271166"><ele>165.0</ele><time>2026-05-04T15:03:17Z</time></trkpt><trkpt lat="45.38682524570475" lon="16.106883476261135"><ele>165.0</ele><time>2026-05-04T15:03:18Z</time></trkpt><trkpt lat="45.38692450791715" lon="16.106612268288103"><ele>165.0</ele><time>2026-05-04T15:03:19Z</time></trkpt><trkpt lat="45.387038414418896" lon="16.10629598904948"><ele>163.5</ele><time>2026-05-04T15:03:20Z</time></trkpt><trkpt lat="45.38716948906104" lon="16.105961988980354"><ele>162.0</ele><time>2026-05-04T15:03:21Z</time></trkpt><trkpt lat="45.3873150562344" lon="16.105636834612483"><ele>158.0</ele><time>2026-05-04T15:03:22Z</time></trkpt><trkpt lat="45.38748228965619" lon="16.105322013423308"><ele>154.0</ele><time>2026-05-04T15:03:23Z</time></trkpt><trkpt lat="45.387657341213306" lon="16.105029694686177"><ele>152.0</ele><time>2026-05-04T15:03:24Z</time></trkpt><trkpt lat="45.38782567597502" lon="16.104772625598567"><ele>150.0</ele><time>2026-05-04T15:03:25Z</time></trkpt><trkpt lat="45.38797047739559" lon="16.104543200842997"><ele>150.0</ele><time>2026-05-04T15:03:26Z</time></trkpt><trkpt lat="45.38806540951134" lon="16.10433456434753"><ele>150.0</ele><time>2026-05-04T15:03:27Z</time></trkpt><trkpt lat="45.38811474867049" lon="16.10412427282806"><ele>150.0</ele><time>2026-05-04T15:03:28Z</time></trkpt><trkpt lat="45.38816087535326" lon="16.103864799610847"><ele>150.0</ele><time>2026-05-04T15:03:29Z</time></trkpt><trkpt lat="45.38820913488079" lon="16.10356035039576"><ele>150.0</ele><time>2026-05-04T15:03:30Z</time></trkpt><trkpt lat="45.388275135135316" lon="16.10323142351574"><ele>148.0</ele><time>2026-05-04T15:03:31Z</time></trkpt><trkpt lat="45.388360611878184" lon="16.102899123423523"><ele>146.0</ele><time>2026-05-04T15:03:32Z</time></trkpt><trkpt lat="45.38844336661546" lon="16.102566393387406"><ele>147.0</ele><time>2026-05-04T15:03:33Z</time></trkpt><trkpt lat="45.38850693405489" lon="16.102255381980182"><ele>148.0</ele><time>2026-05-04T15:03:34Z</time></trkpt><trkpt lat="45.388579399960804" lon="16.10197348914431"><ele>149.0</ele><time>2026-05-04T15:03:35Z</time></trkpt><trkpt lat="45.38867992453473" lon="16.10172430259595"><ele>151.0</ele><time>2026-05-04T15:03:36Z</time></trkpt><trkpt lat="45.38879573374595" lon="16.101506473743523"><ele>153.0</ele><time>2026-05-04T15:03:37Z</time></trkpt><trkpt lat="45.38891088405954" lon="16.10130850674801"><ele>155.0</ele><time>2026-05-04T15:03:38Z</time></trkpt><trkpt lat="45.38901027823046" lon="16.101121071641852"><ele>155.0</ele><time>2026-05-04T15:03:39Z</time></trkpt><trkpt lat="45.38910116295183" lon="16.10095631957031"><ele>155.0</ele><time>2026-05-04T15:03:40Z</time></trkpt><trkpt lat="45.38918700630997" lon="16.100799839133085"><ele>155.0</ele><time>2026-05-04T15:03:41Z</time></trkpt><trkpt lat="45.3892767294302" lon="16.100637828568047"><ele>155.0</ele><time>2026-05-04T15:03:42Z</time></trkpt><trkpt lat="45.389382344319394" lon="16.100467003872666"><ele>156.75</ele><time>2026-05-04T15:03:43Z</time></trkpt><trkpt lat="45.38950317285632" lon="16.100324809850406"><ele>158.5</ele><time>2026-05-04T15:03:44Z</time></trkpt><trkpt lat="45.3896176716856" lon="16.100203202006504"><ele>160.25</ele><time>2026-05-04T15:03:45Z</time></trkpt><trkpt lat="45.38973645139814" lon="16.100078041539255"><ele>162.0</ele><time>2026-05-04T15:03:46Z</time></trkpt><trkpt lat="45.38983251122534" lon="16.0999395769693"><ele>163.6</ele><time>2026-05-04T15:03:47Z</time></trkpt><trkpt lat="45.38989418267405" lon="16.099815046320682"><ele>165.2</ele><time>2026-05-04T15:03:48Z</time></trkpt><trkpt lat="45.38992368082038" lon="16.09968636807069"><ele>166.8</ele><time>2026-05-04T15:03:49Z</time></trkpt><trkpt lat="45.38992525143751" lon="16.099548791972346"><ele>168.4</ele><time>2026-05-04T15:03:50Z</time></trkpt><trkpt lat="45.389898524402824" lon="16.09939962766454"><ele>170.0</ele><time>2026-05-04T15:03:51Z</time></trkpt><trkpt lat="45.38984165611631" lon="16.099222217102202"><ele>171.66666666666666</ele><time>2026-05-04T15:03:52Z</time></trkpt><trkpt lat="45.38976846641278" lon="16.099004081867403"><ele>173.33333333333334</ele><time>2026-05-04T15:03:53Z</time></trkpt><trkpt lat="45.38969607169226" lon="16.09875748510148"><ele>175.0</ele><time>2026-05-04T15:03:54Z</time></trkpt><trkpt lat="45.38961908133057" lon="16.09853047821398"><ele>175.5</ele><time>2026-05-04T15:03:55Z</time></trkpt><trkpt lat="45.38960793998462" lon="16.098297443445112"><ele>176.0</ele><time>2026-05-04T15:03:56Z</time></trkpt><trkpt lat="45.389543724304175" lon="16.098107994189647"><ele>176.5</ele><time>2026-05-04T15:03:57Z</time></trkpt><trkpt lat="45.38951424144298" lon="16.09793669625292"><ele>177.0</ele><time>2026-05-04T15:03:58Z</time></trkpt><trkpt lat="45.389481236270434" lon="16.097773386101853"><ele>177.0</ele><time>2026-05-04T15:03:59Z</time></trkpt><trkpt lat="45.38946825453862" lon="16.09763998006313"><ele>177.0</ele><time>2026-05-04T15:04:00Z</time></trkpt><trkpt lat="45.389517317500264" lon="16.097534413900625"><ele>177.0</ele><time>2026-05-04T15:04:01Z</time></trkpt><trkpt lat="45.38964081331883" lon="16.097514937751075"><ele>177.0</ele><time>2026-05-04T15:04:02Z</time></trkpt><trkpt lat="45.38975650842289" lon="16.097389655173036"><ele>178.33333333333334</ele><time>2026-05-04T15:04:03Z</time></trkpt><trkpt lat="45.38987810837918" lon="16.097237626688166"><ele>179.66666666666669</ele><time>2026-05-04T15:04:04Z</time></trkpt><trkpt lat="45.39001273422973" lon="16.09709402904824"><ele>181.0</ele><time>2026-05-04T15:04:05Z</time></trkpt><trkpt lat="45.39018542874969" lon="16.09700623613074"><ele>181.0</ele><time>2026-05-04T15:04:06Z</time></trkpt><trkpt lat="45.39038617207072" lon="16.096940646701412"><ele>181.0</ele><time>2026-05-04T15:04:07Z</time></trkpt><trkpt lat="45.39056251639338" lon="16.09689066717948"><ele>181.0</ele><time>2026-05-04T15:04:08Z</time></trkpt><trkpt lat="45.3907153846162" lon="16.096834449963165"><ele>180.66666666666669</ele><time>2026-05-04T15:04:09Z</time></trkpt><trkpt lat="45.39086440088788" lon="16.096757736448023"><ele>180.33333333333334</ele><time>2026-05-04T15:04:10Z</time></trkpt><trkpt lat="45.391010592484676" lon="16.096628393779767"><ele>180.0</ele><time>2026-05-04T15:04:11Z</time></trkpt><trkpt lat="45.39116913964457" lon="16.096454660963524"><ele>180.0</ele><time>2026-05-04T15:04:12Z</time></trkpt><trkpt lat="45.3913334003597" lon="16.09625770669808"><ele>180.0</ele><time>2026-05-04T15:04:13Z</time></trkpt><trkpt lat="45.391499951435236" lon="16.0960484579566"><ele>180.0</ele><time>2026-05-04T15:04:14Z</time></trkpt><trkpt lat="45.3916436323119" lon="16.095774279172133"><ele>178.5</ele><time>2026-05-04T15:04:15Z</time></trkpt><trkpt lat="45.39176646589671" lon="16.09550495012164"><ele>177.0</ele><time>2026-05-04T15:04:16Z</time></trkpt><trkpt lat="45.39189871241747" lon="16.095215320447497"><ele>177.0</ele><time>2026-05-04T15:04:17Z</time></trkpt><trkpt lat="45.39202652277819" lon="16.094962311113786"><ele>177.0</ele><time>2026-05-04T15:04:18Z</time></trkpt><trkpt lat="45.39215014150981" lon="16.094767556746547"><ele>177.0</ele><time>2026-05-04T15:04:19Z</time></trkpt><trkpt lat="45.39227931378849" lon="16.09463705990832"><ele>177.66666666666666</ele><time>2026-05-04T15:04:20Z</time></trkpt><trkpt lat="45.392410737199384" lon="16.094529818600627"><ele>178.33333333333331</ele><time>2026-05-04T15:04:21Z</time></trkpt><trkpt lat="45.39256499066922" lon="16.094419085607104"><ele>179.0</ele><time>2026-05-04T15:04:22Z</time></trkpt><trkpt lat="45.392749255721306" lon="16.094291724864597"><ele>179.0</ele><time>2026-05-04T15:04:23Z</time></trkpt><trkpt lat="45.392926591086336" lon="16.094138810949072"><ele>179.0</ele><time>2026-05-04T15:04:24Z</time></trkpt><trkpt lat="45.39306699633169" lon="16.093948700347095"><ele>179.0</ele><time>2026-05-04T15:04:25Z</time></trkpt><trkpt lat="45.393142009503876" lon="16.093674484406176"><ele>179.33333333333331</ele><time>2026-05-04T15:04:26Z</time></trkpt><trkpt lat="45.39324269965317" lon="16.093414390326014"><ele>179.66666666666666</ele><time>2026-05-04T15:04:27Z</time></trkpt><trkpt lat="45.39337718579571" lon="16.093168567305913"><ele>180.0</ele><time>2026-05-04T15:04:28Z</time></trkpt><trkpt lat="45.393471681086176" lon="16.092849905914353"><ele>180.0</ele><time>2026-05-04T15:04:29Z</time></trkpt><trkpt lat="45.3936278299745" lon="16.092623640782698"><ele>180.0</ele><time>2026-05-04T15:04:30Z</time></trkpt><trkpt lat="45.39379315845898" lon="16.092414151101686"><ele>180.0</ele><time>2026-05-04T15:04:31Z</time></trkpt><trkpt lat="45.39399171563239" lon="16.092247042546077"><ele>185.0</ele><time>2026-05-04T15:04:32Z</time></trkpt><trkpt lat="45.39422141424277" lon="16.092199588367734"><ele>190.0</ele><time>2026-05-04T15:04:33Z</time></trkpt><trkpt lat="45.39443794648749" lon="16.09215246113754"><ele>190.0</ele><time>2026-05-04T15:04:34Z</time></trkpt><trkpt lat="45.394658213257095" lon="16.09213331389013"><ele>190.0</ele><time>2026-05-04T15:04:35Z</time></trkpt><trkpt lat="45.394849399752154" lon="16.092129695787648"><ele>190.0</ele><time>2026-05-04T15:04:36Z</time></trkpt><trkpt lat="45.39504664654074" lon="16.092122607814407"><ele>187.66666666666669</ele><time>2026-05-04T15:04:37Z</time></trkpt><trkpt lat="45.395259050193296" lon="16.092076663194845"><ele>185.33333333333334</ele><time>2026-05-04T15:04:38Z</time></trkpt><trkpt lat="45.39548923110297" lon="16.092013379044314"><ele>183.0</ele><time>2026-05-04T15:04:39Z</time></trkpt><trkpt lat="45.395738596267584" lon="16.09195784974844"><ele>181.0</ele><time>2026-05-04T15:04:40Z</time></trkpt><trkpt lat="45.39600331075215" lon="16.09193110654935"><ele>179.0</ele><time>2026-05-04T15:04:41Z</time></trkpt><trkpt lat="45.39627552169372" lon="16.09191783727616"><ele>179.0</ele><time>2026-05-04T15:04:42Z</time></trkpt><trkpt lat="45.396522027351615" lon="16.091899125690524"><ele>179.0</ele><time>2026-05-04T15:04:43Z</time></trkpt><trkpt lat="45.396753362906836" lon="16.091882839580848"><ele>179.0</ele><time>2026-05-04T15:04:44Z</time></trkpt><trkpt lat="45.39696332213855" lon="16.091867249264016"><ele>179.0</ele><time>2026-05-04T15:04:45Z</time></trkpt><trkpt lat="45.39715235747248" lon="16.091844756164356"><ele>179.0</ele><time>2026-05-04T15:04:46Z</time></trkpt><trkpt lat="45.397321853362534" lon="16.091804961445053"><ele>179.33333333333331</ele><time>2026-05-04T15:04:47Z</time></trkpt><trkpt lat="45.39748148778898" lon="16.09168859235041"><ele>179.66666666666666</ele><time>2026-05-04T15:04:48Z</time></trkpt><trkpt lat="45.39764196148336" lon="16.09155557347925"><ele>180.0</ele><time>2026-05-04T15:04:49Z</time></trkpt><trkpt lat="45.39779086723239" lon="16.091328475017654"><ele>180.0</ele><time>2026-05-04T15:04:50Z</time></trkpt><trkpt lat="45.397976117990105" lon="16.091084994630855"><ele>180.0</ele><time>2026-05-04T15:04:51Z</time></trkpt><trkpt lat="45.39815560616125" lon="16.090812186054855"><ele>180.0</ele><time>2026-05-04T15:04:52Z</time></trkpt><trkpt lat="45.39833140451467" lon="16.09053186206566"><ele>180.0</ele><time>2026-05-04T15:04:53Z</time></trkpt><trkpt lat="45.39849310541922" lon="16.090269801730923"><ele>180.0</ele><time>2026-05-04T15:04:54Z</time></trkpt><trkpt lat="45.39864181216132" lon="16.09002670503513"><ele>180.0</ele><time>2026-05-04T15:04:55Z</time></trkpt><trkpt lat="45.39878220259609" lon="16.089780115390433"><ele>180.0</ele><time>2026-05-04T15:04:56Z</time></trkpt><trkpt lat="45.398937018935435" lon="16.089552727251665"><ele>179.66666666666666</ele><time>2026-05-04T15:04:57Z</time></trkpt><trkpt lat="45.39908916034053" lon="16.089335211880027"><ele>179.33333333333331</ele><time>2026-05-04T15:04:58Z</time></trkpt><trkpt lat="45.39925216630479" lon="16.089143675346442"><ele>179.0</ele><time>2026-05-04T15:04:59Z</time></trkpt><trkpt lat="45.39942709792874" lon="16.088981854331642"><ele>180.66666666666666</ele><time>2026-05-04T15:05:00Z</time></trkpt><trkpt lat="45.39960314022458" lon="16.088836714289943"><ele>182.33333333333334</ele><time>2026-05-04T15:05:01Z</time></trkpt><trkpt lat="45.399776794209046" lon="16.08870640718389"><ele>184.0</ele><time>2026-05-04T15:05:02Z</time></trkpt><trkpt lat="45.399964927501685" lon="16.088606708647003"><ele>184.0</ele><time>2026-05-04T15:05:03Z</time></trkpt><trkpt lat="45.40016710990598" lon="16.088537147872746"><ele>184.0</ele><time>2026-05-04T15:05:04Z</time></trkpt><trkpt lat="45.40036370512007" lon="16.08850420203818"><ele>184.0</ele><time>2026-05-04T15:05:05Z</time></trkpt><trkpt lat="45.4005629209444" lon="16.088506319432557"><ele>184.0</ele><time>2026-05-04T15:05:06Z</time></trkpt><trkpt lat="45.40076500600199" lon="16.088555124444248"><ele>184.0</ele><time>2026-05-04T15:05:07Z</time></trkpt><trkpt lat="45.4009748139857" lon="16.08863015866459"><ele>184.0</ele><time>2026-05-04T15:05:08Z</time></trkpt><trkpt lat="45.40119049967147" lon="16.088701811776513"><ele>184.0</ele><time>2026-05-04T15:05:09Z</time></trkpt><trkpt lat="45.40143080145794" lon="16.088791893475303"><ele>184.0</ele><time>2026-05-04T15:05:10Z</time></trkpt><trkpt lat="45.40170685009403" lon="16.088889482445538"><ele>184.0</ele><time>2026-05-04T15:05:11Z</time></trkpt><trkpt lat="45.402011141617095" lon="16.08899368671687"><ele>184.0</ele><time>2026-05-04T15:05:12Z</time></trkpt><trkpt lat="45.402298999685456" lon="16.08909312363994"><ele>184.0</ele><time>2026-05-04T15:05:13Z</time></trkpt><trkpt lat="45.40255401147548" lon="16.08917730281711"><ele>184.0</ele><time>2026-05-04T15:05:14Z</time></trkpt><trkpt lat="45.40277856316705" lon="16.08925722444696"><ele>184.0</ele><time>2026-05-04T15:05:15Z</time></trkpt><trkpt lat="45.402987100978656" lon="16.089326058196004"><ele>184.0</ele><time>2026-05-04T15:05:16Z</time></trkpt><trkpt lat="45.403192843209986" lon="16.089362193125986"><ele>184.0</ele><time>2026-05-04T15:05:17Z</time></trkpt><trkpt lat="45.40341379037734" lon="16.089369519547855"><ele>184.0</ele><time>2026-05-04T15:05:18Z</time></trkpt><trkpt lat="45.403642393920784" lon="16.089358380433968"><ele>184.0</ele><time>2026-05-04T15:05:19Z</time></trkpt><trkpt lat="45.403856883672724" lon="16.089332470673007"><ele>184.0</ele><time>2026-05-04T15:05:20Z</time></trkpt><trkpt lat="45.404054964870696" lon="16.089263989577653"><ele>184.0</ele><time>2026-05-04T15:05:21Z</time></trkpt><trkpt lat="45.40423720970288" lon="16.089150389761684"><ele>184.0</ele><time>2026-05-04T15:05:22Z</time></trkpt><trkpt lat="45.404416660639164" lon="16.08900597842808"><ele>184.0</ele><time>2026-05-04T15:05:23Z</time></trkpt><trkpt lat="45.40459216555863" lon="16.088843872528017"><ele>183.0</ele><time>2026-05-04T15:05:24Z</time></trkpt><trkpt lat="45.40476673048916" lon="16.088689855460238"><ele>182.0</ele><time>2026-05-04T15:05:25Z</time></trkpt><trkpt lat="45.40493852947628" lon="16.0885486277902"><ele>181.0</ele><time>2026-05-04T15:05:26Z</time></trkpt><trkpt lat="45.40511086624923" lon="16.08840908744803"><ele>181.0</ele><time>2026-05-04T15:05:27Z</time></trkpt><trkpt lat="45.40527093736478" lon="16.0882776046846"><ele>181.0</ele><time>2026-05-04T15:05:28Z</time></trkpt><trkpt lat="45.405413492928865" lon="16.0881472605543"><ele>181.0</ele><time>2026-05-04T15:05:29Z</time></trkpt><trkpt lat="45.40552083380114" lon="16.087995235187343"><ele>180.75</ele><time>2026-05-04T15:05:30Z</time></trkpt><trkpt lat="45.40562114695699" lon="16.087835669480114"><ele>180.5</ele><time>2026-05-04T15:05:31Z</time></trkpt><trkpt lat="45.40570705763099" lon="16.087682888974772"><ele>180.25</ele><time>2026-05-04T15:05:32Z</time></trkpt><trkpt lat="45.405795321588386" lon="16.08754702476086"><ele>180.0</ele><time>2026-05-04T15:05:33Z</time></trkpt><trkpt lat="45.405890102110234" lon="16.087422643904826"><ele>180.0</ele><time>2026-05-04T15:05:34Z</time></trkpt><trkpt lat="45.40598592485123" lon="16.08731270368902"><ele>180.0</ele><time>2026-05-04T15:05:35Z</time></trkpt><trkpt lat="45.406070372012984" lon="16.087227899555796"><ele>180.0</ele><time>2026-05-04T15:05:36Z</time></trkpt><trkpt lat="45.40614499699134" lon="16.087203212576814"><ele>180.0</ele><time>2026-05-04T15:05:37Z</time></trkpt><trkpt lat="45.40620460209151" lon="16.08724155609656"><ele>180.0</ele><time>2026-05-04T15:05:38Z</time></trkpt><trkpt lat="45.40624564079831" lon="16.087328829454588"><ele>180.0</ele><time>2026-05-04T15:05:39Z</time></trkpt><trkpt lat="45.406284449744255" lon="16.087453855010544"><ele>180.25</ele><time>2026-05-04T15:05:40Z</time></trkpt><trkpt lat="45.40632021817726" lon="16.087592029339103"><ele>180.5</ele><time>2026-05-04T15:05:41Z</time></trkpt><trkpt lat="45.406371873225474" lon="16.087753845179783"><ele>180.75</ele><time>2026-05-04T15:05:42Z</time></trkpt><trkpt lat="45.40640787287584" lon="16.08795106868113"><ele>181.0</ele><time>2026-05-04T15:05:43Z</time></trkpt><trkpt lat="45.40645084587401" lon="16.088190166647664"><ele>180.0</ele><time>2026-05-04T15:05:44Z</time></trkpt><trkpt lat="45.406494345292636" lon="16.08843131179946"><ele>179.0</ele><time>2026-05-04T15:05:45Z</time></trkpt><trkpt lat="45.40656671253353" lon="16.08865222577254"><ele>178.0</ele><time>2026-05-04T15:05:46Z</time></trkpt><trkpt lat="45.406656605252024" lon="16.088817308172118"><ele>178.0</ele><time>2026-05-04T15:05:47Z</time></trkpt><trkpt lat="45.40677019058226" lon="16.0889195630814"><ele>178.0</ele><time>2026-05-04T15:05:48Z</time></trkpt><trkpt lat="45.40689736254995" lon="16.088960542034233"><ele>178.0</ele><time>2026-05-04T15:05:49Z</time></trkpt><trkpt lat="45.40702422069178" lon="16.088961115769013"><ele>178.0</ele><time>2026-05-04T15:05:50Z</time></trkpt><trkpt lat="45.40714895467194" lon="16.089011368875234"><ele>173.5</ele><time>2026-05-04T15:05:51Z</time></trkpt><trkpt lat="45.407227109017974" lon="16.089120303016752"><ele>169.0</ele><time>2026-05-04T15:05:52Z</time></trkpt><trkpt lat="45.407298819165256" lon="16.089296288759886"><ele>164.5</ele><time>2026-05-04T15:05:53Z</time></trkpt><trkpt lat="45.40733174492787" lon="16.089496801482873"><ele>160.0</ele><time>2026-05-04T15:05:54Z</time></trkpt><trkpt lat="45.40731224288461" lon="16.08967737203772"><ele>160.0</ele><time>2026-05-04T15:05:55Z</time></trkpt><trkpt lat="45.40726470682704" lon="16.089813380876866"><ele>160.0</ele><time>2026-05-04T15:05:56Z</time></trkpt><trkpt lat="45.40716661478755" lon="16.089914478859953"><ele>160.0</ele><time>2026-05-04T15:05:57Z</time></trkpt><trkpt lat="45.40708336241485" lon="16.09004049102686"><ele>160.0</ele><time>2026-05-04T15:05:58Z</time></trkpt><trkpt lat="45.40702068779704" lon="16.090209520538245"><ele>159.0</ele><time>2026-05-04T15:05:59Z</time></trkpt><trkpt lat="45.4070043723001" lon="16.090414369705023"><ele>158.0</ele><time>2026-05-04T15:06:00Z</time></trkpt><trkpt lat="45.407017835169356" lon="16.090645734885374"><ele>157.0</ele><time>2026-05-04T15:06:01Z</time></trkpt><trkpt lat="45.40702846306556" lon="16.09088700831806"><ele>157.0</ele><time>2026-05-04T15:06:02Z</time></trkpt><trkpt lat="45.40703468385267" lon="16.091150469091943"><ele>157.0</ele><time>2026-05-04T15:06:03Z</time></trkpt><trkpt lat="45.407066676751114" lon="16.091425538925836"><ele>157.0</ele><time>2026-05-04T15:06:04Z</time></trkpt><trkpt lat="45.40710903250512" lon="16.0916959840806"><ele>155.33333333333334</ele><time>2026-05-04T15:06:05Z</time></trkpt><trkpt lat="45.40714091102568" lon="16.091933721254073"><ele>153.66666666666666</ele><time>2026-05-04T15:06:06Z</time></trkpt><trkpt lat="45.40717922693333" lon="16.092124752169234"><ele>152.0</ele><time>2026-05-04T15:06:07Z</time></trkpt><trkpt lat="45.40726486546841" lon="16.092292068789178"><ele>149.66666666666666</ele><time>2026-05-04T15:06:08Z</time></trkpt><trkpt lat="45.407401905737316" lon="16.092417234719306"><ele>147.33333333333334</ele><time>2026-05-04T15:06:09Z</time></trkpt><trkpt lat="45.40757874392157" lon="16.09253253128966"><ele>145.0</ele><time>2026-05-04T15:06:10Z</time></trkpt><trkpt lat="45.40779365304184" lon="16.09266460137429"><ele>138.5</ele><time>2026-05-04T15:06:11Z</time></trkpt><trkpt lat="45.40802020386442" lon="16.09281356257258"><ele>132.0</ele><time>2026-05-04T15:06:12Z</time></trkpt><trkpt lat="45.40824059028044" lon="16.09295087874684"><ele>132.0</ele><time>2026-05-04T15:06:13Z</time></trkpt><trkpt lat="45.40844095088509" lon="16.093049304857164"><ele>132.0</ele><time>2026-05-04T15:06:14Z</time></trkpt><trkpt lat="45.408606885699335" lon="16.0930954277513"><ele>132.0</ele><time>2026-05-04T15:06:15Z</time></trkpt><trkpt lat="45.408779865034155" lon="16.093090557810477"><ele>131.66666666666666</ele><time>2026-05-04T15:06:16Z</time></trkpt><trkpt lat="45.408982432530436" lon="16.093055558940208"><ele>131.33333333333331</ele><time>2026-05-04T15:06:17Z</time></trkpt><trkpt lat="45.409207346394425" lon="16.093045501613577"><ele>131.0</ele><time>2026-05-04T15:06:18Z</time></trkpt><trkpt lat="45.409446544573115" lon="16.093101430820024"><ele>132.33333333333331</ele><time>2026-05-04T15:06:19Z</time></trkpt><trkpt lat="45.40967534587851" lon="16.09318967427572"><ele>133.66666666666666</ele><time>2026-05-04T15:06:20Z</time></trkpt><trkpt lat="45.4098818134859" lon="16.093258488707082"><ele>135.0</ele><time>2026-05-04T15:06:21Z</time></trkpt><trkpt lat="45.41006359442997" lon="16.093304123447062"><ele>135.0</ele><time>2026-05-04T15:06:22Z</time></trkpt><trkpt lat="45.410239074857195" lon="16.093360397285274"><ele>135.0</ele><time>2026-05-04T15:06:23Z</time></trkpt><trkpt lat="45.41038785703052" lon="16.09347793572016"><ele>135.0</ele><time>2026-05-04T15:06:24Z</time></trkpt><trkpt lat="45.410508685956636" lon="16.093614813811058"><ele>135.75</ele><time>2026-05-04T15:06:25Z</time></trkpt><trkpt lat="45.410622929118745" lon="16.093718325221698"><ele>136.5</ele><time>2026-05-04T15:06:26Z</time></trkpt><trkpt lat="45.41074382699795" lon="16.09377468100408"><ele>137.25</ele><time>2026-05-04T15:06:27Z</time></trkpt><trkpt lat="45.410864178208314" lon="16.093797078888436"><ele>138.0</ele><time>2026-05-04T15:06:28Z</time></trkpt><trkpt lat="45.41099381638421" lon="16.093813302983868"><ele>138.0</ele><time>2026-05-04T15:06:29Z</time></trkpt><trkpt lat="45.41114883845531" lon="16.09378999933139"><ele>138.0</ele><time>2026-05-04T15:06:30Z</time></trkpt><trkpt lat="45.41133733496688" lon="16.0937577351805"><ele>138.0</ele><time>2026-05-04T15:06:31Z</time></trkpt><trkpt lat="45.411558617540976" lon="16.09377284040099"><ele>141.0</ele><time>2026-05-04T15:06:32Z</time></trkpt><trkpt lat="45.41180795265448" lon="16.09382387190879"><ele>144.0</ele><time>2026-05-04T15:06:33Z</time></trkpt><trkpt lat="45.412091326547674" lon="16.09387955273286"><ele>144.5</ele><time>2026-05-04T15:06:34Z</time></trkpt><trkpt lat="45.41238739043633" lon="16.09393260868476"><ele>145.0</ele><time>2026-05-04T15:06:35Z</time></trkpt><trkpt lat="45.41269998209239" lon="16.093976399421077"><ele>145.0</ele><time>2026-05-04T15:06:36Z</time></trkpt><trkpt lat="45.41298392069047" lon="16.09401698505457"><ele>145.0</ele><time>2026-05-04T15:06:37Z</time></trkpt><trkpt lat="45.41326493229395" lon="16.094020410346317"><ele>146.0</ele><time>2026-05-04T15:06:38Z</time></trkpt><trkpt lat="45.413534377304636" lon="16.093983773847008"><ele>147.0</ele><time>2026-05-04T15:06:39Z</time></trkpt><trkpt lat="45.413791862210815" lon="16.09395949893129"><ele>147.0</ele><time>2026-05-04T15:06:40Z</time></trkpt><trkpt lat="45.414022109482644" lon="16.09396239024769"><ele>147.0</ele><time>2026-05-04T15:06:41Z</time></trkpt><trkpt lat="45.41422225203294" lon="16.093966882175618"><ele>147.0</ele><time>2026-05-04T15:06:42Z</time></trkpt><trkpt lat="45.41439345580321" lon="16.093968050152867"><ele>147.0</ele><time>2026-05-04T15:06:43Z</time></trkpt><trkpt lat="45.41453503839785" lon="16.09398833070865"><ele>147.0</ele><time>2026-05-04T15:06:44Z</time></trkpt><trkpt lat="45.41462878958973" lon="16.094037900451532"><ele>147.0</ele><time>2026-05-04T15:06:45Z</time></trkpt><trkpt lat="45.4146998870115" lon="16.0940901283691"><ele>147.0</ele><time>2026-05-04T15:06:46Z</time></trkpt><trkpt lat="45.41475652385283" lon="16.094176233541962"><ele>147.0</ele><time>2026-05-04T15:06:47Z</time></trkpt><trkpt lat="45.414827669318704" lon="16.09429761421337"><ele>144.33333333333334</ele><time>2026-05-04T15:06:48Z</time></trkpt><trkpt lat="45.41493134321517" lon="16.09449435318855"><ele>141.66666666666669</ele><time>2026-05-04T15:06:49Z</time></trkpt><trkpt lat="45.415065641558755" lon="16.094709038930024"><ele>139.0</ele><time>2026-05-04T15:06:50Z</time></trkpt><trkpt lat="45.4152025775387" lon="16.09491980294458"><ele>138.33333333333334</ele><time>2026-05-04T15:06:51Z</time></trkpt><trkpt lat="45.415336712423596" lon="16.09511897611061"><ele>137.66666666666666</ele><time>2026-05-04T15:06:52Z</time></trkpt><trkpt lat="45.415489785711145" lon="16.0953082334639"><ele>137.0</ele><time>2026-05-04T15:06:53Z</time></trkpt><trkpt lat="45.41566751001336" lon="16.095505092288036"><ele>137.5</ele><time>2026-05-04T15:06:54Z</time></trkpt><trkpt lat="45.41587570821403" lon="16.095691869961183"><ele>138.0</ele><time>2026-05-04T15:06:55Z</time></trkpt><trkpt lat="45.416104584011606" lon="16.095896268879727"><ele>142.0</ele><time>2026-05-04T15:06:56Z</time></trkpt><trkpt lat="45.41635422462664" lon="16.09612609095075"><ele>146.0</ele><time>2026-05-04T15:06:57Z</time></trkpt><trkpt lat="45.416606395015414" lon="16.096371012256856"><ele>142.5</ele><time>2026-05-04T15:06:58Z</time></trkpt><trkpt lat="45.41685130645377" lon="16.096625934863564"><ele>139.0</ele><time>2026-05-04T15:06:59Z</time></trkpt><trkpt lat="45.41709642841322" lon="16.096898878546472"><ele>139.5</ele><time>2026-05-04T15:07:00Z</time></trkpt><trkpt lat="45.417336994420175" lon="16.097187789267416"><ele>140.0</ele><time>2026-05-04T15:07:01Z</time></trkpt><trkpt lat="45.41754596158931" lon="16.097454633396175"><ele>140.0</ele><time>2026-05-04T15:07:02Z</time></trkpt><trkpt lat="45.41771751296182" lon="16.09767313648285"><ele>140.0</ele><time>2026-05-04T15:07:03Z</time></trkpt><trkpt lat="45.417853144322265" lon="16.09783761420338"><ele>140.0</ele><time>2026-05-04T15:07:04Z</time></trkpt><trkpt lat="45.417976832854805" lon="16.097967342198096"><ele>142.0</ele><time>2026-05-04T15:07:05Z</time></trkpt><trkpt lat="45.41812294377758" lon="16.098054679771288"><ele>144.0</ele><time>2026-05-04T15:07:06Z</time></trkpt><trkpt lat="45.41829197139428" lon="16.09813443340835"><ele>146.0</ele><time>2026-05-04T15:07:07Z</time></trkpt><trkpt lat="45.41844783939698" lon="16.098249020891014"><ele>147.0</ele><time>2026-05-04T15:07:08Z</time></trkpt><trkpt lat="45.41857202257733" lon="16.098406691032128"><ele>148.0</ele><time>2026-05-04T15:07:09Z</time></trkpt><trkpt lat="45.41870329203933" lon="16.09858359486275"><ele>149.0</ele><time>2026-05-04T15:07:10Z</time></trkpt><trkpt lat="45.418854367120495" lon="16.098762571301577"><ele>149.0</ele><time>2026-05-04T15:07:11Z</time></trkpt><trkpt lat="45.41898880272102" lon="16.09892009102909"><ele>149.0</ele><time>2026-05-04T15:07:12Z</time></trkpt><trkpt lat="45.419101802254865" lon="16.099041762329062"><ele>149.0</ele><time>2026-05-04T15:07:13Z</time></trkpt><trkpt lat="45.41921565152448" lon="16.099106359218204"><ele>149.0</ele><time>2026-05-04T15:07:14Z</time></trkpt><trkpt lat="45.41934364936957" lon="16.099098535262037"><ele>149.0</ele><time>2026-05-04T15:07:15Z</time></trkpt><trkpt lat="45.41949560606777" lon="16.099019640833557"><ele>149.0</ele><time>2026-05-04T15:07:16Z</time></trkpt><trkpt lat="45.41966330520139" lon="16.09893280822446"><ele>149.0</ele><time>2026-05-04T15:07:17Z</time></trkpt><trkpt lat="45.41983230786701" lon="16.098807171248485"><ele>148.33333333333331</ele><time>2026-05-04T15:07:18Z</time></trkpt><trkpt lat="45.419979615164806" lon="16.098643079615147"><ele>147.66666666666666</ele><time>2026-05-04T15:07:19Z</time></trkpt><trkpt lat="45.42011511683408" lon="16.098425884968208"><ele>147.0</ele><time>2026-05-04T15:07:20Z</time></trkpt><trkpt lat="45.420221645113855" lon="16.098186832214978"><ele>151.0</ele><time>2026-05-04T15:07:21Z</time></trkpt><trkpt lat="45.42034027188449" lon="16.097888795679335"><ele>155.0</ele><time>2026-05-04T15:07:22Z</time></trkpt><trkpt lat="45.42046714811106" lon="16.097554107286648"><ele>157.0</ele><time>2026-05-04T15:07:23Z</time></trkpt><trkpt lat="45.42059601757392" lon="16.097250375575197"><ele>159.0</ele><time>2026-05-04T15:07:24Z</time></trkpt><trkpt lat="45.42069083831538" lon="16.097010165807564"><ele>161.0</ele><time>2026-05-04T15:07:25Z</time></trkpt><trkpt lat="45.42076547169029" lon="16.096841328433612"><ele>161.0</ele><time>2026-05-04T15:07:26Z</time></trkpt><trkpt lat="45.4208287403002" lon="16.096733814829165"><ele>161.0</ele><time>2026-05-04T15:07:27Z</time></trkpt><trkpt lat="45.420891665847726" lon="16.096681593885222"><ele>161.0</ele><time>2026-05-04T15:07:28Z</time></trkpt><trkpt lat="45.42098834927087" lon="16.09668507241453"><ele>161.0</ele><time>2026-05-04T15:07:30Z</time></trkpt><trkpt lat="45.421049417146975" lon="16.09672510148531"><ele>161.0</ele><time>2026-05-04T15:07:31Z</time></trkpt><trkpt lat="45.4211093454491" lon="16.096791895629753"><ele>161.0</ele><time>2026-05-04T15:07:32Z</time></trkpt><trkpt lat="45.421151152434206" lon="16.096883400969563"><ele>161.0</ele><time>2026-05-04T15:07:33Z</time></trkpt><trkpt lat="45.42117548512562" lon="16.096993483659837"><ele>161.0</ele><time>2026-05-04T15:07:34Z</time></trkpt><trkpt lat="45.421180737830944" lon="16.09709726126564"><ele>161.0</ele><time>2026-05-04T15:07:35Z</time></trkpt><trkpt lat="45.421179712172325" lon="16.0972009131808"><ele>161.0</ele><time>2026-05-04T15:07:36Z</time></trkpt><trkpt lat="45.421181004977996" lon="16.097301666161027"><ele>161.0</ele><time>2026-05-04T15:07:37Z</time></trkpt><trkpt lat="45.42118108013461" lon="16.097394152979717"><ele>161.0</ele><time>2026-05-04T15:07:38Z</time></trkpt><trkpt lat="45.421220368620205" lon="16.097558514853098"><ele>161.33333333333331</ele><time>2026-05-04T15:07:40Z</time></trkpt><trkpt lat="45.421263045195296" lon="16.097628479869496"><ele>161.66666666666666</ele><time>2026-05-04T15:07:41Z</time></trkpt><trkpt lat="45.421322949799446" lon="16.097692536897586"><ele>162.0</ele><time>2026-05-04T15:07:42Z</time></trkpt><trkpt lat="45.421401425393405" lon="16.09774274299739"><ele>162.33333333333334</ele><time>2026-05-04T15:07:43Z</time></trkpt><trkpt lat="45.421493780495545" lon="16.09776225536357"><ele>162.66666666666669</ele><time>2026-05-04T15:07:44Z</time></trkpt><trkpt lat="45.421563941383674" lon="16.097763834425187"><ele>163.0</ele><time>2026-05-04T15:07:45Z</time></trkpt><trkpt lat="45.42163119851705" lon="16.097732643444026"><ele>163.0</ele><time>2026-05-04T15:07:46Z</time></trkpt><trkpt lat="45.42172487239208" lon="16.097670570127576"><ele>163.0</ele><time>2026-05-04T15:07:47Z</time></trkpt><trkpt lat="45.42183814400895" lon="16.097587997325764"><ele>163.0</ele><time>2026-05-04T15:07:48Z</time></trkpt><trkpt lat="45.42192555448378" lon="16.097513974014994"><ele>163.0</ele><time>2026-05-04T15:07:49Z</time></trkpt><trkpt lat="45.421988705716956" lon="16.097454557035984"><ele>163.0</ele><time>2026-05-04T15:07:50Z</time></trkpt><trkpt lat="45.4220364189601" lon="16.09737600725423"><ele>164.33333333333334</ele><time>2026-05-04T15:07:51Z</time></trkpt><trkpt lat="45.4220745103896" lon="16.097268945996635"><ele>165.66666666666669</ele><time>2026-05-04T15:07:52Z</time></trkpt><trkpt lat="45.422103767384364" lon="16.097126174131883"><ele>167.0</ele><time>2026-05-04T15:07:53Z</time></trkpt><trkpt lat="45.42213676713982" lon="16.096995263968257"><ele>168.33333333333334</ele><time>2026-05-04T15:07:54Z</time></trkpt><trkpt lat="45.422183033250704" lon="16.096903990877713"><ele>169.66666666666666</ele><time>2026-05-04T15:07:55Z</time></trkpt><trkpt lat="45.4222480223602" lon="16.096859975586128"><ele>171.0</ele><time>2026-05-04T15:07:56Z</time></trkpt><trkpt lat="45.42231835366289" lon="16.096840020622377"><ele>172.4</ele><time>2026-05-04T15:07:57Z</time></trkpt><trkpt lat="45.42238767835313" lon="16.096860753857758"><ele>173.8</ele><time>2026-05-04T15:07:58Z</time></trkpt><trkpt lat="45.42245310732928" lon="16.096937342195652"><ele>175.20000000000002</ele><time>2026-05-04T15:07:59Z</time></trkpt><trkpt lat="45.4225061335407" lon="16.0970679240706"><ele>176.60000000000002</ele><time>2026-05-04T15:08:00Z</time></trkpt><trkpt lat="45.42252804459728" lon="16.097255460752965"><ele>178.0</ele><time>2026-05-04T15:08:01Z</time></trkpt><trkpt lat="45.42254380185829" lon="16.097415500115687"><ele>176.66666666666669</ele><time>2026-05-04T15:08:02Z</time></trkpt><trkpt lat="45.42255961118646" lon="16.097547831737778"><ele>175.33333333333334</ele><time>2026-05-04T15:08:03Z</time></trkpt><trkpt lat="45.422586664495476" lon="16.097672299093297"><ele>174.0</ele><time>2026-05-04T15:08:04Z</time></trkpt><trkpt lat="45.42262823977815" lon="16.097771286322683"><ele>172.66666666666666</ele><time>2026-05-04T15:08:05Z</time></trkpt><trkpt lat="45.422679280549104" lon="16.097838434696136"><ele>171.33333333333331</ele><time>2026-05-04T15:08:06Z</time></trkpt><trkpt lat="45.42274126928573" lon="16.097888293946085"><ele>170.0</ele><time>2026-05-04T15:08:07Z</time></trkpt><trkpt lat="45.42281120292497" lon="16.097951367674508"><ele>170.0</ele><time>2026-05-04T15:08:08Z</time></trkpt><trkpt lat="45.42287506539701" lon="16.09802854360644"><ele>170.0</ele><time>2026-05-04T15:08:09Z</time></trkpt><trkpt lat="45.422928344029295" lon="16.09812101524541"><ele>170.0</ele><time>2026-05-04T15:08:10Z</time></trkpt><trkpt lat="45.422968013772426" lon="16.098237219639167"><ele>170.0</ele><time>2026-05-04T15:08:11Z</time></trkpt><trkpt lat="45.42300537310497" lon="16.098343048096364"><ele>170.0</ele><time>2026-05-04T15:08:12Z</time></trkpt><trkpt lat="45.423051657123125" lon="16.098422088226023"><ele>170.0</ele><time>2026-05-04T15:08:13Z</time></trkpt><trkpt lat="45.423108837566375" lon="16.09847108677963"><ele>169.8</ele><time>2026-05-04T15:08:14Z</time></trkpt><trkpt lat="45.423221594382746" lon="16.098490047887413"><ele>169.6</ele><time>2026-05-04T15:08:16Z</time></trkpt><trkpt lat="45.423320471984205" lon="16.09838216061275"><ele>169.39999999999998</ele><time>2026-05-04T15:08:18Z</time></trkpt><trkpt lat="45.4233615728544" lon="16.09829884142984"><ele>169.2</ele><time>2026-05-04T15:08:19Z</time></trkpt><trkpt lat="45.42339330736797" lon="16.0982120535356"><ele>169.0</ele><time>2026-05-04T15:08:20Z</time></trkpt><trkpt lat="45.423424651026146" lon="16.098114985541272"><ele>169.33333333333334</ele><time>2026-05-04T15:08:21Z</time></trkpt><trkpt lat="45.42344110856668" lon="16.098009020534427"><ele>169.66666666666669</ele><time>2026-05-04T15:08:22Z</time></trkpt><trkpt lat="45.423429545627265" lon="16.097890589795004"><ele>170.0</ele><time>2026-05-04T15:08:23Z</time></trkpt><trkpt lat="45.42341930032524" lon="16.09777684814492"><ele>170.33333333333334</ele><time>2026-05-04T15:08:24Z</time></trkpt><trkpt lat="45.423413294806664" lon="16.097657988811143"><ele>170.66666666666666</ele><time>2026-05-04T15:08:25Z</time></trkpt><trkpt lat="45.423401650296135" lon="16.097545693750803"><ele>171.0</ele><time>2026-05-04T15:08:26Z</time></trkpt><trkpt lat="45.4233883991043" lon="16.097406700694833"><ele>171.4</ele><time>2026-05-04T15:08:27Z</time></trkpt><trkpt lat="45.42338638820519" lon="16.09724638965825"><ele>171.8</ele><time>2026-05-04T15:08:28Z</time></trkpt><trkpt lat="45.42341054136047" lon="16.09711789762001"><ele>172.20000000000002</ele><time>2026-05-04T15:08:29Z</time></trkpt><trkpt lat="45.42345220624" lon="16.09696559088853"><ele>172.60000000000002</ele><time>2026-05-04T15:08:30Z</time></trkpt><trkpt lat="45.42346789264075" lon="16.096817424845387"><ele>173.0</ele><time>2026-05-04T15:08:31Z</time></trkpt><trkpt lat="45.42345679362567" lon="16.09667723947722"><ele>172.60000000000002</ele><time>2026-05-04T15:08:32Z</time></trkpt><trkpt lat="45.42342332422637" lon="16.096538429931083"><ele>172.20000000000002</ele><time>2026-05-04T15:08:33Z</time></trkpt><trkpt lat="45.42338461590381" lon="16.09640758774343"><ele>171.8</ele><time>2026-05-04T15:08:34Z</time></trkpt><trkpt lat="45.42337064344585" lon="16.09626364295682"><ele>171.4</ele><time>2026-05-04T15:08:35Z</time></trkpt><trkpt lat="45.423375063324336" lon="16.096116062808342"><ele>171.0</ele><time>2026-05-04T15:08:36Z</time></trkpt><trkpt lat="45.423382636067444" lon="16.095969256397545"><ele>171.0</ele><time>2026-05-04T15:08:37Z</time></trkpt><trkpt lat="45.423397002552726" lon="16.095836449676426"><ele>171.0</ele><time>2026-05-04T15:08:38Z</time></trkpt><trkpt lat="45.423424688972425" lon="16.09569760717382"><ele>171.0</ele><time>2026-05-04T15:08:39Z</time></trkpt><trkpt lat="45.42351161045073" lon="16.095602452240964"><ele>171.0</ele><time>2026-05-04T15:08:40Z</time></trkpt><trkpt lat="45.42354133118798" lon="16.095487659578296"><ele>171.0</ele><time>2026-05-04T15:08:41Z</time></trkpt><trkpt lat="45.4235590702849" lon="16.095386989675745"><ele>171.20000000000002</ele><time>2026-05-04T15:08:42Z</time></trkpt><trkpt lat="45.42355914523022" lon="16.09527166586849"><ele>171.4</ele><time>2026-05-04T15:08:43Z</time></trkpt><trkpt lat="45.42352481756328" lon="16.09516243370447"><ele>171.6</ele><time>2026-05-04T15:08:44Z</time></trkpt><trkpt lat="45.42349936913864" lon="16.095068355296"><ele>171.8</ele><time>2026-05-04T15:08:45Z</time></trkpt><trkpt lat="45.42349243889838" lon="16.094924248530667"><ele>172.0</ele><time>2026-05-04T15:08:47Z</time></trkpt><trkpt lat="45.42365449495753" lon="16.094880511463188"><ele>172.0</ele><time>2026-05-04T15:08:49Z</time></trkpt><trkpt lat="45.42375173800564" lon="16.09483847093932"><ele>172.0</ele><time>2026-05-04T15:08:50Z</time></trkpt><trkpt lat="45.42385304378649" lon="16.09477902056313"><ele>172.0</ele><time>2026-05-04T15:08:51Z</time></trkpt><trkpt lat="45.423945027769086" lon="16.09471043315947"><ele>172.0</ele><time>2026-05-04T15:08:52Z</time></trkpt><trkpt lat="45.423998473009036" lon="16.094651334992637"><ele>172.0</ele><time>2026-05-04T15:08:53Z</time></trkpt><trkpt lat="45.42403181362033" lon="16.0945705649423"><ele>172.0</ele><time>2026-05-04T15:08:54Z</time></trkpt><trkpt lat="45.424036181475266" lon="16.0944561727049"><ele>172.33333333333334</ele><time>2026-05-04T15:08:55Z</time></trkpt><trkpt lat="45.42403354524672" lon="16.09435668503897"><ele>172.66666666666669</ele><time>2026-05-04T15:08:56Z</time></trkpt><trkpt lat="45.42400396062311" lon="16.094252366687083"><ele>173.0</ele><time>2026-05-04T15:08:57Z</time></trkpt><trkpt lat="45.4239554285489" lon="16.09414964263872"><ele>173.33333333333334</ele><time>2026-05-04T15:08:58Z</time></trkpt><trkpt lat="45.42388655824772" lon="16.094040806971115"><ele>173.66666666666666</ele><time>2026-05-04T15:08:59Z</time></trkpt><trkpt lat="45.42383068783133" lon="16.09396812763095"><ele>174.0</ele><time>2026-05-04T15:09:00Z</time></trkpt><trkpt lat="45.42378274801734" lon="16.093889350931804"><ele>174.0</ele><time>2026-05-04T15:09:01Z</time></trkpt><trkpt lat="45.423743951855954" lon="16.093783649078905"><ele>174.0</ele><time>2026-05-04T15:09:03Z</time></trkpt><trkpt lat="45.423778866717846" lon="16.093667374200415"><ele>174.0</ele><time>2026-05-04T15:09:05Z</time></trkpt><trkpt lat="45.42388654927022" lon="16.09364258000946"><ele>174.0</ele><time>2026-05-04T15:09:06Z</time></trkpt><trkpt lat="45.42398537553854" lon="16.093623104948907"><ele>174.0</ele><time>2026-05-04T15:09:07Z</time></trkpt><trkpt lat="45.42408704257092" lon="16.093621132918265"><ele>169.79999999999998</ele><time>2026-05-04T15:09:08Z</time></trkpt><trkpt lat="45.424180183331295" lon="16.093646773783952"><ele>165.6</ele><time>2026-05-04T15:09:09Z</time></trkpt><trkpt lat="45.42427108983615" lon="16.09365973739292"><ele>161.4</ele><time>2026-05-04T15:09:10Z</time></trkpt><trkpt lat="45.42439013079985" lon="16.093619501414633"><ele>157.2</ele><time>2026-05-04T15:09:12Z</time></trkpt><trkpt lat="45.424432737283" lon="16.09352717667161"><ele>153.0</ele><time>2026-05-04T15:09:13Z</time></trkpt><trkpt lat="45.42445565301665" lon="16.09342556102875"><ele>153.0</ele><time>2026-05-04T15:09:14Z</time></trkpt><trkpt lat="45.42445903932972" lon="16.09329895080831"><ele>153.0</ele><time>2026-05-04T15:09:15Z</time></trkpt><trkpt lat="45.42447123308425" lon="16.093185717888456"><ele>153.0</ele><time>2026-05-04T15:09:16Z</time></trkpt><trkpt lat="45.424507987722954" lon="16.09307990889539"><ele>153.0</ele><time>2026-05-04T15:09:17Z</time></trkpt><trkpt lat="45.424592083626216" lon="16.093001100285065"><ele>153.0</ele><time>2026-05-04T15:09:18Z</time></trkpt><trkpt lat="45.42466055100602" lon="16.092871265334505"><ele>151.66666666666666</ele><time>2026-05-04T15:09:20Z</time></trkpt><trkpt lat="45.42465152168064" lon="16.092745855047305"><ele>150.33333333333334</ele><time>2026-05-04T15:09:21Z</time></trkpt><trkpt lat="45.42465484028514" lon="16.092613208112585"><ele>149.0</ele><time>2026-05-04T15:09:22Z</time></trkpt><trkpt lat="45.42466027423831" lon="16.092484567048643"><ele>147.66666666666669</ele><time>2026-05-04T15:09:23Z</time></trkpt><trkpt lat="45.42467417668074" lon="16.092386758244913"><ele>146.33333333333334</ele><time>2026-05-04T15:09:24Z</time></trkpt><trkpt lat="45.424696282813656" lon="16.092296866244443"><ele>145.0</ele><time>2026-05-04T15:09:25Z</time></trkpt><trkpt lat="45.424769079936496" lon="16.09224963317683"><ele>145.0</ele><time>2026-05-04T15:09:26Z</time></trkpt><trkpt lat="45.42481481105634" lon="16.092174348704496"><ele>145.0</ele><time>2026-05-04T15:09:27Z</time></trkpt><trkpt lat="45.424885993106905" lon="16.092154491465678"><ele>145.0</ele><time>2026-05-04T15:09:28Z</time></trkpt><trkpt lat="45.42496473590872" lon="16.09219707781576"><ele>145.0</ele><time>2026-05-04T15:09:29Z</time></trkpt><trkpt lat="45.42505889062074" lon="16.092200938960257"><ele>145.0</ele><time>2026-05-04T15:09:30Z</time></trkpt><trkpt lat="45.42515386123219" lon="16.092240791171136"><ele>145.0</ele><time>2026-05-04T15:09:31Z</time></trkpt><trkpt lat="45.42524854498155" lon="16.092237004164943"><ele>145.0</ele><time>2026-05-04T15:09:32Z</time></trkpt><trkpt lat="45.425334648120995" lon="16.09218551986126"><ele>145.0</ele><time>2026-05-04T15:09:33Z</time></trkpt><trkpt lat="45.42539995186781" lon="16.09210077025511"><ele>145.0</ele><time>2026-05-04T15:09:34Z</time></trkpt><trkpt lat="45.42544089047237" lon="16.091983300561893"><ele>145.0</ele><time>2026-05-04T15:09:35Z</time></trkpt><trkpt lat="45.425480469718465" lon="16.091837006155096"><ele>145.0</ele><time>2026-05-04T15:09:36Z</time></trkpt><trkpt lat="45.42551652828247" lon="16.091666499962027"><ele>141.0</ele><time>2026-05-04T15:09:37Z</time></trkpt><trkpt lat="45.425601569502184" lon="16.091547645119277"><ele>137.0</ele><time>2026-05-04T15:09:38Z</time></trkpt><trkpt lat="45.425695597996835" lon="16.091439072803883"><ele>133.0</ele><time>2026-05-04T15:09:39Z</time></trkpt><trkpt lat="45.42580085297207" lon="16.09133058747312"><ele>129.0</ele><time>2026-05-04T15:09:40Z</time></trkpt><trkpt lat="45.425934491898374" lon="16.091215453039304"><ele>129.0</ele><time>2026-05-04T15:09:41Z</time></trkpt><trkpt lat="45.426075455304115" lon="16.09111629698385"><ele>129.0</ele><time>2026-05-04T15:09:42Z</time></trkpt><trkpt lat="45.426234953575644" lon="16.091017279238745"><ele>129.0</ele><time>2026-05-04T15:09:43Z</time></trkpt><trkpt lat="45.426402183229925" lon="16.090892274502668"><ele>126.66666666666666</ele><time>2026-05-04T15:09:44Z</time></trkpt><trkpt lat="45.426560697455145" lon="16.090720616965626"><ele>124.33333333333333</ele><time>2026-05-04T15:09:45Z</time></trkpt><trkpt lat="45.42672668078635" lon="16.090555936955113"><ele>122.0</ele><time>2026-05-04T15:09:46Z</time></trkpt><trkpt lat="45.42688394475688" lon="16.090411941635242"><ele>122.0</ele><time>2026-05-04T15:09:47Z</time></trkpt><trkpt lat="45.42702522597598" lon="16.090299647306445"><ele>122.0</ele><time>2026-05-04T15:09:48Z</time></trkpt><trkpt lat="45.42714934937604" lon="16.090215017802453"><ele>122.0</ele><time>2026-05-04T15:09:49Z</time></trkpt><trkpt lat="45.42727150060212" lon="16.09015371884149"><ele>122.0</ele><time>2026-05-04T15:09:50Z</time></trkpt><trkpt lat="45.42739654261704" lon="16.090107236195784"><ele>120.75</ele><time>2026-05-04T15:09:51Z</time></trkpt><trkpt lat="45.427518408520996" lon="16.090068059939703"><ele>119.5</ele><time>2026-05-04T15:09:52Z</time></trkpt><trkpt lat="45.427631953745774" lon="16.090021775097043"><ele>118.25</ele><time>2026-05-04T15:09:53Z</time></trkpt><trkpt lat="45.42771826920034" lon="16.089926104660407"><ele>117.0</ele><time>2026-05-04T15:09:54Z</time></trkpt><trkpt lat="45.42780160931753" lon="16.089854634702785"><ele>117.0</ele><time>2026-05-04T15:09:55Z</time></trkpt><trkpt lat="45.427882681280224" lon="16.0897662035726"><ele>117.0</ele><time>2026-05-04T15:09:56Z</time></trkpt><trkpt lat="45.42798415972198" lon="16.08968138382421"><ele>117.0</ele><time>2026-05-04T15:09:57Z</time></trkpt><trkpt lat="45.42806472073588" lon="16.089557471692487"><ele>117.0</ele><time>2026-05-04T15:09:58Z</time></trkpt><trkpt lat="45.42817016932714" lon="16.089452796504354"><ele>116.25</ele><time>2026-05-04T15:09:59Z</time></trkpt><trkpt lat="45.428273281936974" lon="16.089318682872275"><ele>115.5</ele><time>2026-05-04T15:10:00Z</time></trkpt><trkpt lat="45.428382690110084" lon="16.089195545468243"><ele>114.75</ele><time>2026-05-04T15:10:01Z</time></trkpt><trkpt lat="45.4285061714386" lon="16.08907752715904"><ele>114.0</ele><time>2026-05-04T15:10:02Z</time></trkpt><trkpt lat="45.428647143658154" lon="16.088987046591292"><ele>114.0</ele><time>2026-05-04T15:10:03Z</time></trkpt><trkpt lat="45.428804226940734" lon="16.088914031986103"><ele>114.0</ele><time>2026-05-04T15:10:04Z</time></trkpt><trkpt lat="45.42896802541867" lon="16.088836444967363"><ele>114.0</ele><time>2026-05-04T15:10:05Z</time></trkpt><trkpt lat="45.42913702681208" lon="16.08875695683069"><ele>113.0</ele><time>2026-05-04T15:10:06Z</time></trkpt><trkpt lat="45.42930291415667" lon="16.088640939812883"><ele>112.0</ele><time>2026-05-04T15:10:07Z</time></trkpt><trkpt lat="45.42947635761505" lon="16.088560163732428"><ele>111.0</ele><time>2026-05-04T15:10:08Z</time></trkpt><trkpt lat="45.429634575045526" lon="16.08846884914733"><ele>111.0</ele><time>2026-05-04T15:10:09Z</time></trkpt><trkpt lat="45.42979420982744" lon="16.088376707399622"><ele>111.0</ele><time>2026-05-04T15:10:10Z</time></trkpt><trkpt lat="45.429881017434425" lon="16.088043251335556"><ele>111.0</ele><time>2026-05-04T15:10:11Z</time></trkpt><trkpt lat="45.43000107853644" lon="16.087825030063822"><ele>111.0</ele><time>2026-05-04T15:10:12Z</time></trkpt><trkpt lat="45.43013235533945" lon="16.087588411165456"><ele>111.0</ele><time>2026-05-04T15:10:13Z</time></trkpt><trkpt lat="45.4302714798021" lon="16.0873237063272"><ele>111.0</ele><time>2026-05-04T15:10:14Z</time></trkpt><trkpt lat="45.43042195703831" lon="16.087019503668593"><ele>111.0</ele><time>2026-05-04T15:10:15Z</time></trkpt><trkpt lat="45.430569397685346" lon="16.08672454790376"><ele>111.0</ele><time>2026-05-04T15:10:16Z</time></trkpt><trkpt lat="45.430709607932215" lon="16.086462970958763"><ele>111.0</ele><time>2026-05-04T15:10:17Z</time></trkpt><trkpt lat="45.430841502202156" lon="16.086225252132667"><ele>111.0</ele><time>2026-05-04T15:10:18Z</time></trkpt><trkpt lat="45.43095570324957" lon="16.086003482842287"><ele>111.0</ele><time>2026-05-04T15:10:19Z</time></trkpt><trkpt lat="45.43106461315309" lon="16.08578835274127"><ele>110.66666666666666</ele><time>2026-05-04T15:10:20Z</time></trkpt><trkpt lat="45.4311660972687" lon="16.085567754195175"><ele>110.33333333333333</ele><time>2026-05-04T15:10:21Z</time></trkpt><trkpt lat="45.4312475209838" lon="16.085358213739934"><ele>110.0</ele><time>2026-05-04T15:10:22Z</time></trkpt><trkpt lat="45.43131958578349" lon="16.085157789105452"><ele>109.33333333333333</ele><time>2026-05-04T15:10:23Z</time></trkpt><trkpt lat="45.43137367576462" lon="16.084961465676805"><ele>108.66666666666666</ele><time>2026-05-04T15:10:24Z</time></trkpt><trkpt lat="45.4314074009236" lon="16.08474343499036"><ele>108.0</ele><time>2026-05-04T15:10:25Z</time></trkpt><trkpt lat="45.431443758770904" lon="16.084512701927373"><ele>108.0</ele><time>2026-05-04T15:10:26Z</time></trkpt><trkpt lat="45.431478539579885" lon="16.084293405729646"><ele>108.0</ele><time>2026-05-04T15:10:27Z</time></trkpt><trkpt lat="45.431507558349715" lon="16.084074037075226"><ele>108.0</ele><time>2026-05-04T15:10:28Z</time></trkpt><trkpt lat="45.43154992903892" lon="16.083863667123236"><ele>109.33333333333334</ele><time>2026-05-04T15:10:29Z</time></trkpt><trkpt lat="45.43162435822283" lon="16.08364556068248"><ele>110.66666666666667</ele><time>2026-05-04T15:10:30Z</time></trkpt><trkpt lat="45.431722056702256" lon="16.083436317817448"><ele>112.0</ele><time>2026-05-04T15:10:31Z</time></trkpt><trkpt lat="45.4318321539525" lon="16.08321935413455"><ele>112.33333333333334</ele><time>2026-05-04T15:10:32Z</time></trkpt><trkpt lat="45.431965824663955" lon="16.08300764105534"><ele>112.66666666666666</ele><time>2026-05-04T15:10:33Z</time></trkpt><trkpt lat="45.4321026218115" lon="16.08284313507249"><ele>113.0</ele><time>2026-05-04T15:10:34Z</time></trkpt><trkpt lat="45.43224413849435" lon="16.082698222286012"><ele>113.0</ele><time>2026-05-04T15:10:35Z</time></trkpt><trkpt lat="45.432382250877275" lon="16.08256121947481"><ele>113.0</ele><time>2026-05-04T15:10:36Z</time></trkpt><trkpt lat="45.432512800866974" lon="16.08241442085274"><ele>113.0</ele><time>2026-05-04T15:10:37Z</time></trkpt><trkpt lat="45.43263754783595" lon="16.08224781957363"><ele>113.33333333333333</ele><time>2026-05-04T15:10:38Z</time></trkpt><trkpt lat="45.43276095092578" lon="16.082049277020296"><ele>113.66666666666666</ele><time>2026-05-04T15:10:39Z</time></trkpt><trkpt lat="45.43288217676272" lon="16.08182647831113"><ele>114.0</ele><time>2026-05-04T15:10:40Z</time></trkpt><trkpt lat="45.43301064036629" lon="16.08155733060716"><ele>114.0</ele><time>2026-05-04T15:10:41Z</time></trkpt><trkpt lat="45.43316285832064" lon="16.0812481468679"><ele>114.0</ele><time>2026-05-04T15:10:42Z</time></trkpt><trkpt lat="45.43333862623972" lon="16.080901133046787"><ele>116.0</ele><time>2026-05-04T15:10:43Z</time></trkpt><trkpt lat="45.43350164017717" lon="16.08057373651819"><ele>118.0</ele><time>2026-05-04T15:10:44Z</time></trkpt><trkpt lat="45.43366174698357" lon="16.0802331032667"><ele>116.5</ele><time>2026-05-04T15:10:45Z</time></trkpt><trkpt lat="45.4338018930488" lon="16.079910623781217"><ele>115.0</ele><time>2026-05-04T15:10:46Z</time></trkpt><trkpt lat="45.43392211795782" lon="16.07959795446723"><ele>115.0</ele><time>2026-05-04T15:10:47Z</time></trkpt><trkpt lat="45.434030235190136" lon="16.079303853628076"><ele>115.0</ele><time>2026-05-04T15:10:48Z</time></trkpt><trkpt lat="45.434153369445866" lon="16.078991997475978"><ele>116.0</ele><time>2026-05-04T15:10:49Z</time></trkpt><trkpt lat="45.4343091220321" lon="16.078708105871435"><ele>117.0</ele><time>2026-05-04T15:10:50Z</time></trkpt><trkpt lat="45.43447278931567" lon="16.07847584200262"><ele>117.0</ele><time>2026-05-04T15:10:51Z</time></trkpt><trkpt lat="45.434609867982765" lon="16.07829062800271"><ele>117.0</ele><time>2026-05-04T15:10:52Z</time></trkpt><trkpt lat="45.434735479793105" lon="16.078147458192475"><ele>117.0</ele><time>2026-05-04T15:10:53Z</time></trkpt><trkpt lat="45.43487621878829" lon="16.07804073469191"><ele>117.66666666666666</ele><time>2026-05-04T15:10:54Z</time></trkpt><trkpt lat="45.435043760674446" lon="16.07798672209038"><ele>118.33333333333333</ele><time>2026-05-04T15:10:55Z</time></trkpt><trkpt lat="45.43521802548228" lon="16.077923451591598"><ele>119.0</ele><time>2026-05-04T15:10:56Z</time></trkpt><trkpt lat="45.43539619956478" lon="16.077776495042812"><ele>120.0</ele><time>2026-05-04T15:10:57Z</time></trkpt><trkpt lat="45.43558798101733" lon="16.077559384895256"><ele>121.0</ele><time>2026-05-04T15:10:58Z</time></trkpt><trkpt lat="45.43579403750304" lon="16.07733326117089"><ele>121.0</ele><time>2026-05-04T15:10:59Z</time></trkpt><trkpt lat="45.43599460133424" lon="16.077165462758384"><ele>121.0</ele><time>2026-05-04T15:11:00Z</time></trkpt><trkpt lat="45.43618622374723" lon="16.077042909897365"><ele>121.0</ele><time>2026-05-04T15:11:01Z</time></trkpt><trkpt lat="45.436374901665" lon="16.076936904177625"><ele>118.33333333333334</ele><time>2026-05-04T15:11:02Z</time></trkpt><trkpt lat="45.43655100671184" lon="16.076830765793954"><ele>115.66666666666666</ele><time>2026-05-04T15:11:03Z</time></trkpt><trkpt lat="45.436715694859274" lon="16.076700433532036"><ele>113.0</ele><time>2026-05-04T15:11:04Z</time></trkpt><trkpt lat="45.43685131311953" lon="16.076528976342885"><ele>113.0</ele><time>2026-05-04T15:11:05Z</time></trkpt><trkpt lat="45.436958542977216" lon="16.07633596927337"><ele>113.0</ele><time>2026-05-04T15:11:06Z</time></trkpt><trkpt lat="45.43705284163723" lon="16.0760882876801"><ele>113.0</ele><time>2026-05-04T15:11:07Z</time></trkpt><trkpt lat="45.437144064891946" lon="16.075833477617266"><ele>109.33333333333333</ele><time>2026-05-04T15:11:08Z</time></trkpt><trkpt lat="45.437249624731514" lon="16.07557861077871"><ele>105.66666666666666</ele><time>2026-05-04T15:11:09Z</time></trkpt><trkpt lat="45.4374126201671" lon="16.075372936737057"><ele>102.0</ele><time>2026-05-04T15:11:10Z</time></trkpt><trkpt lat="45.43758936156972" lon="16.07519641434998"><ele>102.0</ele><time>2026-05-04T15:11:11Z</time></trkpt><trkpt lat="45.43775882584846" lon="16.075002178053914"><ele>102.0</ele><time>2026-05-04T15:11:12Z</time></trkpt><trkpt lat="45.437896120329434" lon="16.07478548643535"><ele>102.0</ele><time>2026-05-04T15:11:13Z</time></trkpt><trkpt lat="45.438021489043535" lon="16.0745957311288"><ele>102.75</ele><time>2026-05-04T15:11:14Z</time></trkpt><trkpt lat="45.43814402666103" lon="16.074500044760317"><ele>103.5</ele><time>2026-05-04T15:11:15Z</time></trkpt><trkpt lat="45.438272463040136" lon="16.074500196566827"><ele>104.25</ele><time>2026-05-04T15:11:16Z</time></trkpt><trkpt lat="45.438410065479914" lon="16.074559763735444"><ele>105.0</ele><time>2026-05-04T15:11:17Z</time></trkpt><trkpt lat="45.43857288847086" lon="16.074630127300843"><ele>105.0</ele><time>2026-05-04T15:11:18Z</time></trkpt><trkpt lat="45.43878423492504" lon="16.07467193852333"><ele>105.0</ele><time>2026-05-04T15:11:19Z</time></trkpt><trkpt lat="45.439035255321244" lon="16.074688547874594"><ele>105.0</ele><time>2026-05-04T15:11:20Z</time></trkpt><trkpt lat="45.43928339244234" lon="16.074695012451503"><ele>105.0</ele><time>2026-05-04T15:11:21Z</time></trkpt><trkpt lat="45.43950109509733" lon="16.0747017156018"><ele>105.33333333333334</ele><time>2026-05-04T15:11:22Z</time></trkpt><trkpt lat="45.439699445110584" lon="16.074685721577755"><ele>105.66666666666667</ele><time>2026-05-04T15:11:23Z</time></trkpt><trkpt lat="45.4399038139468" lon="16.07460835248204"><ele>106.0</ele><time>2026-05-04T15:11:24Z</time></trkpt><trkpt lat="45.44012826427914" lon="16.074476708871195"><ele>106.0</ele><time>2026-05-04T15:11:25Z</time></trkpt><trkpt lat="45.440359228302256" lon="16.07432166684454"><ele>106.0</ele><time>2026-05-04T15:11:26Z</time></trkpt><trkpt lat="45.44058833276328" lon="16.074181939960226"><ele>106.0</ele><time>2026-05-04T15:11:27Z</time></trkpt><trkpt lat="45.440817840952505" lon="16.074040804018633"><ele>106.0</ele><time>2026-05-04T15:11:28Z</time></trkpt><trkpt lat="45.441044972647575" lon="16.073852708954426"><ele>106.0</ele><time>2026-05-04T15:11:29Z</time></trkpt><trkpt lat="45.44128268433491" lon="16.073620865632176"><ele>106.0</ele><time>2026-05-04T15:11:30Z</time></trkpt><trkpt lat="45.44152249868032" lon="16.073403792159333"><ele>107.5</ele><time>2026-05-04T15:11:31Z</time></trkpt><trkpt lat="45.44175728517932" lon="16.07323228312444"><ele>109.0</ele><time>2026-05-04T15:11:32Z</time></trkpt><trkpt lat="45.44198506857576" lon="16.073107418091336"><ele>107.0</ele><time>2026-05-04T15:11:33Z</time></trkpt><trkpt lat="45.4422121661589" lon="16.073027688530637"><ele>105.0</ele><time>2026-05-04T15:11:34Z</time></trkpt><trkpt lat="45.44242443135181" lon="16.072962444899368"><ele>105.0</ele><time>2026-05-04T15:11:35Z</time></trkpt><trkpt lat="45.442618965902355" lon="16.07284976098123"><ele>105.0</ele><time>2026-05-04T15:11:36Z</time></trkpt><trkpt lat="45.44279394411456" lon="16.072666327779714"><ele>105.0</ele><time>2026-05-04T15:11:37Z</time></trkpt><trkpt lat="45.44296433480945" lon="16.07243081549745"><ele>106.5</ele><time>2026-05-04T15:11:38Z</time></trkpt><trkpt lat="45.443147806211286" lon="16.072183032343432"><ele>108.0</ele><time>2026-05-04T15:11:39Z</time></trkpt><trkpt lat="45.44335241969147" lon="16.071977649816105"><ele>108.0</ele><time>2026-05-04T15:11:40Z</time></trkpt><trkpt lat="45.44358071788143" lon="16.071834601988222"><ele>108.0</ele><time>2026-05-04T15:11:41Z</time></trkpt><trkpt lat="45.443820747011266" lon="16.07173449508998"><ele>108.5</ele><time>2026-05-04T15:11:42Z</time></trkpt><trkpt lat="45.44406380745567" lon="16.07158461975143"><ele>109.0</ele><time>2026-05-04T15:11:43Z</time></trkpt><trkpt lat="45.444318600564365" lon="16.07134627070085"><ele>109.0</ele><time>2026-05-04T15:11:44Z</time></trkpt><trkpt lat="45.44458015473519" lon="16.07107451389008"><ele>109.0</ele><time>2026-05-04T15:11:45Z</time></trkpt><trkpt lat="45.444830804816505" lon="16.07081289529565"><ele>108.5</ele><time>2026-05-04T15:11:46Z</time></trkpt><trkpt lat="45.445076301717556" lon="16.070567814738897"><ele>108.0</ele><time>2026-05-04T15:11:47Z</time></trkpt><trkpt lat="45.44534307206777" lon="16.07038914632957"><ele>107.5</ele><time>2026-05-04T15:11:48Z</time></trkpt><trkpt lat="45.445605251503295" lon="16.070244263727353"><ele>107.0</ele><time>2026-05-04T15:11:49Z</time></trkpt><trkpt lat="45.44584301896168" lon="16.070057944477632"><ele>107.0</ele><time>2026-05-04T15:11:50Z</time></trkpt><trkpt lat="45.4460661597636" lon="16.069832802338368"><ele>107.0</ele><time>2026-05-04T15:11:51Z</time></trkpt><trkpt lat="45.4463049013354" lon="16.06960521548438"><ele>107.0</ele><time>2026-05-04T15:11:52Z</time></trkpt><trkpt lat="45.44657310321994" lon="16.069408513268254"><ele>107.0</ele><time>2026-05-04T15:11:53Z</time></trkpt><trkpt lat="45.446842073385085" lon="16.069228998927734"><ele>108.5</ele><time>2026-05-04T15:11:54Z</time></trkpt><trkpt lat="45.44710096817817" lon="16.069042517664446"><ele>110.0</ele><time>2026-05-04T15:11:55Z</time></trkpt><trkpt lat="45.44734707042064" lon="16.068855378472097"><ele>110.0</ele><time>2026-05-04T15:11:56Z</time></trkpt><trkpt lat="45.44757928367211" lon="16.068668206908935"><ele>110.0</ele><time>2026-05-04T15:11:57Z</time></trkpt><trkpt lat="45.44779002135942" lon="16.06846550727625"><ele>110.0</ele><time>2026-05-04T15:11:58Z</time></trkpt><trkpt lat="45.44798078379389" lon="16.068252899913244"><ele>110.0</ele><time>2026-05-04T15:11:59Z</time></trkpt><trkpt lat="45.44817024413365" lon="16.068051856650385"><ele>110.0</ele><time>2026-05-04T15:12:00Z</time></trkpt><trkpt lat="45.448356025407044" lon="16.067859144474344"><ele>110.0</ele><time>2026-05-04T15:12:01Z</time></trkpt><trkpt lat="45.44854699600967" lon="16.067686350889897"><ele>110.0</ele><time>2026-05-04T15:12:02Z</time></trkpt><trkpt lat="45.44876368110151" lon="16.067557028973336"><ele>110.0</ele><time>2026-05-04T15:12:03Z</time></trkpt><trkpt lat="45.44898538211238" lon="16.06746358956237"><ele>109.0</ele><time>2026-05-04T15:12:04Z</time></trkpt><trkpt lat="45.44920723000599" lon="16.06735283374867"><ele>108.0</ele><time>2026-05-04T15:12:05Z</time></trkpt><trkpt lat="45.44942636603972" lon="16.067202336450666"><ele>108.5</ele><time>2026-05-04T15:12:06Z</time></trkpt><trkpt lat="45.449637400764516" lon="16.06701511665103"><ele>109.0</ele><time>2026-05-04T15:12:07Z</time></trkpt><trkpt lat="45.44984407433528" lon="16.066794520536856"><ele>109.5</ele><time>2026-05-04T15:12:08Z</time></trkpt><trkpt lat="45.45004740120812" lon="16.066563852317746"><ele>110.0</ele><time>2026-05-04T15:12:09Z</time></trkpt><trkpt lat="45.45025373581979" lon="16.066342801291814"><ele>110.0</ele><time>2026-05-04T15:12:10Z</time></trkpt><trkpt lat="45.45046902665253" lon="16.066145708754956"><ele>110.0</ele><time>2026-05-04T15:12:11Z</time></trkpt><trkpt lat="45.45068589984917" lon="16.065980264134616"><ele>110.0</ele><time>2026-05-04T15:12:12Z</time></trkpt><trkpt lat="45.450892337573876" lon="16.065855878034473"><ele>110.0</ele><time>2026-05-04T15:12:13Z</time></trkpt><trkpt lat="45.45110530609794" lon="16.065778888094716"><ele>110.0</ele><time>2026-05-04T15:12:14Z</time></trkpt><trkpt lat="45.45133239459774" lon="16.06571095393651"><ele>109.5</ele><time>2026-05-04T15:12:15Z</time></trkpt><trkpt lat="45.451581787443544" lon="16.065635251250168"><ele>109.0</ele><time>2026-05-04T15:12:16Z</time></trkpt><trkpt lat="45.45183109059213" lon="16.065518975210946"><ele>109.0</ele><time>2026-05-04T15:12:17Z</time></trkpt><trkpt lat="45.45207630985187" lon="16.06536583053837"><ele>109.0</ele><time>2026-05-04T15:12:18Z</time></trkpt><trkpt lat="45.452315223784524" lon="16.06519855678408"><ele>109.0</ele><time>2026-05-04T15:12:19Z</time></trkpt><trkpt lat="45.45255292091151" lon="16.065059780279235"><ele>109.0</ele><time>2026-05-04T15:12:20Z</time></trkpt><trkpt lat="45.452811983973106" lon="16.064978679739117"><ele>109.0</ele><time>2026-05-04T15:12:21Z</time></trkpt><trkpt lat="45.4530786842911" lon="16.06491897800206"><ele>109.0</ele><time>2026-05-04T15:12:22Z</time></trkpt><trkpt lat="45.4533228173298" lon="16.06485631166515"><ele>109.0</ele><time>2026-05-04T15:12:23Z</time></trkpt><trkpt lat="45.45354796249193" lon="16.06475966294249"><ele>109.0</ele><time>2026-05-04T15:12:24Z</time></trkpt><trkpt lat="45.45376536034786" lon="16.06459949733885"><ele>108.5</ele><time>2026-05-04T15:12:25Z</time></trkpt><trkpt lat="45.45396564480941" lon="16.06440107661811"><ele>108.0</ele><time>2026-05-04T15:12:26Z</time></trkpt><trkpt lat="45.454138550726746" lon="16.064206417551933"><ele>108.0</ele><time>2026-05-04T15:12:27Z</time></trkpt><trkpt lat="45.454300240333396" lon="16.0640433616715"><ele>108.0</ele><time>2026-05-04T15:12:28Z</time></trkpt><trkpt lat="45.454427398358305" lon="16.063857349024463"><ele>108.0</ele><time>2026-05-04T15:12:29Z</time></trkpt><trkpt lat="45.45451376235578" lon="16.06364913311808"><ele>108.0</ele><time>2026-05-04T15:12:30Z</time></trkpt><trkpt lat="45.45460685419671" lon="16.06345711289246"><ele>108.0</ele><time>2026-05-04T15:12:31Z</time></trkpt><trkpt lat="45.454742393538204" lon="16.063306285166057"><ele>108.0</ele><time>2026-05-04T15:12:32Z</time></trkpt><trkpt lat="45.454942656644775" lon="16.063201996226333"><ele>108.33333333333334</ele><time>2026-05-04T15:12:33Z</time></trkpt><trkpt lat="45.45513536238057" lon="16.06311191371377"><ele>108.66666666666667</ele><time>2026-05-04T15:12:34Z</time></trkpt><trkpt lat="45.45530458564051" lon="16.06302246382803"><ele>109.0</ele><time>2026-05-04T15:12:35Z</time></trkpt><trkpt lat="45.455457322690044" lon="16.06293342974334"><ele>109.0</ele><time>2026-05-04T15:12:36Z</time></trkpt><trkpt lat="45.455597461543555" lon="16.06281657123661"><ele>109.0</ele><time>2026-05-04T15:12:37Z</time></trkpt><trkpt lat="45.45571493764089" lon="16.062628532562687"><ele>109.0</ele><time>2026-05-04T15:12:38Z</time></trkpt><trkpt lat="45.455789452472324" lon="16.062400654228966"><ele>109.33333333333334</ele><time>2026-05-04T15:12:39Z</time></trkpt><trkpt lat="45.45582745299771" lon="16.06218571318963"><ele>109.66666666666666</ele><time>2026-05-04T15:12:40Z</time></trkpt><trkpt lat="45.45585718861435" lon="16.06194953774676"><ele>110.0</ele><time>2026-05-04T15:12:41Z</time></trkpt><trkpt lat="45.45588668186802" lon="16.061727681224777"><ele>109.66666666666666</ele><time>2026-05-04T15:12:42Z</time></trkpt><trkpt lat="45.45593853552143" lon="16.06153482107658"><ele>109.33333333333334</ele><time>2026-05-04T15:12:43Z</time></trkpt><trkpt lat="45.45602246340276" lon="16.061351251517156"><ele>109.0</ele><time>2026-05-04T15:12:44Z</time></trkpt><trkpt lat="45.456129795555775" lon="16.061153464115375"><ele>109.0</ele><time>2026-05-04T15:12:45Z</time></trkpt><trkpt lat="45.45623998909448" lon="16.060928852291063"><ele>109.0</ele><time>2026-05-04T15:12:46Z</time></trkpt><trkpt lat="45.45633765808061" lon="16.060685252133307"><ele>109.0</ele><time>2026-05-04T15:12:47Z</time></trkpt><trkpt lat="45.45642026679872" lon="16.06046917604164"><ele>108.66666666666667</ele><time>2026-05-04T15:12:48Z</time></trkpt><trkpt lat="45.45651382570127" lon="16.060287870793122"><ele>108.33333333333334</ele><time>2026-05-04T15:12:49Z</time></trkpt><trkpt lat="45.45664866470836" lon="16.06015341438899"><ele>108.0</ele><time>2026-05-04T15:12:50Z</time></trkpt><trkpt lat="45.456824874343475" lon="16.060047167833577"><ele>108.0</ele><time>2026-05-04T15:12:51Z</time></trkpt><trkpt lat="45.45703007677012" lon="16.059911593316937"><ele>108.0</ele><time>2026-05-04T15:12:52Z</time></trkpt><trkpt lat="45.457230393979444" lon="16.05973655066287"><ele>108.0</ele><time>2026-05-04T15:12:53Z</time></trkpt><trkpt lat="45.45740496705501" lon="16.059573916182405"><ele>108.0</ele><time>2026-05-04T15:12:54Z</time></trkpt><trkpt lat="45.457558458891796" lon="16.059426925353517"><ele>108.0</ele><time>2026-05-04T15:12:55Z</time></trkpt><trkpt lat="45.45768682942489" lon="16.059274224229448"><ele>108.0</ele><time>2026-05-04T15:12:56Z</time></trkpt><trkpt lat="45.45779176387657" lon="16.05911754637362"><ele>108.0</ele><time>2026-05-04T15:12:57Z</time></trkpt><trkpt lat="45.457877567876864" lon="16.058948435521252"><ele>108.0</ele><time>2026-05-04T15:12:58Z</time></trkpt><trkpt lat="45.45793718821185" lon="16.05873846803136"><ele>107.0</ele><time>2026-05-04T15:12:59Z</time></trkpt><trkpt lat="45.45796467582858" lon="16.058499663892082"><ele>106.0</ele><time>2026-05-04T15:13:00Z</time></trkpt><trkpt lat="45.457993455647895" lon="16.058238846369306"><ele>105.0</ele><time>2026-05-04T15:13:01Z</time></trkpt><trkpt lat="45.45805230666555" lon="16.05798994372487"><ele>105.0</ele><time>2026-05-04T15:13:02Z</time></trkpt><trkpt lat="45.458141868782825" lon="16.05774393413614"><ele>105.0</ele><time>2026-05-04T15:13:03Z</time></trkpt><trkpt lat="45.45823084354518" lon="16.05750022588374"><ele>105.0</ele><time>2026-05-04T15:13:04Z</time></trkpt><trkpt lat="45.458280705060474" lon="16.057234785531367"><ele>105.0</ele><time>2026-05-04T15:13:05Z</time></trkpt><trkpt lat="45.45829680147482" lon="16.056931701163638"><ele>105.0</ele><time>2026-05-04T15:13:06Z</time></trkpt><trkpt lat="45.4583505755303" lon="16.056643970235953"><ele>105.0</ele><time>2026-05-04T15:13:07Z</time></trkpt><trkpt lat="45.45846014289811" lon="16.05640243024074"><ele>105.0</ele><time>2026-05-04T15:13:08Z</time></trkpt><trkpt lat="45.458608686647906" lon="16.05620365396567"><ele>105.0</ele><time>2026-05-04T15:13:09Z</time></trkpt><trkpt lat="45.45876055406769" lon="16.05602777464239"><ele>105.0</ele><time>2026-05-04T15:13:10Z</time></trkpt><trkpt lat="45.458887931124295" lon="16.055829997580545"><ele>107.66666666666666</ele><time>2026-05-04T15:13:11Z</time></trkpt><trkpt lat="45.458971953805865" lon="16.055570510704325"><ele>110.33333333333333</ele><time>2026-05-04T15:13:12Z</time></trkpt><trkpt lat="45.45902532098037" lon="16.055286390725865"><ele>113.0</ele><time>2026-05-04T15:13:13Z</time></trkpt><trkpt lat="45.45909872562614" lon="16.055035625380526"><ele>114.66666666666666</ele><time>2026-05-04T15:13:14Z</time></trkpt><trkpt lat="45.45922056570921" lon="16.054828685709257"><ele>116.33333333333334</ele><time>2026-05-04T15:13:15Z</time></trkpt><trkpt lat="45.45937695903586" lon="16.05464920190628"><ele>118.0</ele><time>2026-05-04T15:13:16Z</time></trkpt><trkpt lat="45.45951999729527" lon="16.054428336715127"><ele>120.0</ele><time>2026-05-04T15:13:17Z</time></trkpt><trkpt lat="45.45963833632982" lon="16.054199559702752"><ele>122.0</ele><time>2026-05-04T15:13:18Z</time></trkpt><trkpt lat="45.45974472733785" lon="16.054017730565104"><ele>124.0</ele><time>2026-05-04T15:13:19Z</time></trkpt><trkpt lat="45.459865792980864" lon="16.05383216363301"><ele>125.0</ele><time>2026-05-04T15:13:20Z</time></trkpt><trkpt lat="45.46001122519325" lon="16.053615333676227"><ele>126.0</ele><time>2026-05-04T15:13:21Z</time></trkpt><trkpt lat="45.46018025007819" lon="16.053352225655285"><ele>126.0</ele><time>2026-05-04T15:13:22Z</time></trkpt><trkpt lat="45.460366299968534" lon="16.05307586268728"><ele>126.0</ele><time>2026-05-04T15:13:23Z</time></trkpt><trkpt lat="45.460559809351665" lon="16.052810184278457"><ele>128.0</ele><time>2026-05-04T15:13:24Z</time></trkpt><trkpt lat="45.46075473595734" lon="16.05258006135008"><ele>130.0</ele><time>2026-05-04T15:13:25Z</time></trkpt><trkpt lat="45.46094042955689" lon="16.052391474941395"><ele>130.66666666666669</ele><time>2026-05-04T15:13:26Z</time></trkpt><trkpt lat="45.46110285492518" lon="16.052231604695102"><ele>131.33333333333334</ele><time>2026-05-04T15:13:27Z</time></trkpt><trkpt lat="45.46122870309271" lon="16.052067968774367"><ele>132.0</ele><time>2026-05-04T15:13:28Z</time></trkpt><trkpt lat="45.46130628427674" lon="16.05185683477517"><ele>133.33333333333334</ele><time>2026-05-04T15:13:29Z</time></trkpt><trkpt lat="45.461349904955746" lon="16.051585208770128"><ele>134.66666666666669</ele><time>2026-05-04T15:13:30Z</time></trkpt><trkpt lat="45.46138034862235" lon="16.051297480887172"><ele>136.0</ele><time>2026-05-04T15:13:31Z</time></trkpt><trkpt lat="45.46141775170244" lon="16.05103458119377"><ele>136.66666666666669</ele><time>2026-05-04T15:13:32Z</time></trkpt><trkpt lat="45.46148058986013" lon="16.050788118821238"><ele>137.33333333333334</ele><time>2026-05-04T15:13:33Z</time></trkpt><trkpt lat="45.46159281356003" lon="16.050544832538147"><ele>138.0</ele><time>2026-05-04T15:13:34Z</time></trkpt><trkpt lat="45.461737010416385" lon="16.05029498276924"><ele>138.0</ele><time>2026-05-04T15:13:35Z</time></trkpt><trkpt lat="45.461881873220484" lon="16.050029371582212"><ele>138.0</ele><time>2026-05-04T15:13:36Z</time></trkpt><trkpt lat="45.46200256265047" lon="16.04976299861508"><ele>138.0</ele><time>2026-05-04T15:13:37Z</time></trkpt><trkpt lat="45.46208634138022" lon="16.049498703444055"><ele>138.0</ele><time>2026-05-04T15:13:38Z</time></trkpt><trkpt lat="45.46214382939687" lon="16.04921990198114"><ele>138.0</ele><time>2026-05-04T15:13:39Z</time></trkpt><trkpt lat="45.46219911969104" lon="16.04890271102814"><ele>138.0</ele><time>2026-05-04T15:13:40Z</time></trkpt><trkpt lat="45.462254335966705" lon="16.048549995143667"><ele>138.0</ele><time>2026-05-04T15:13:41Z</time></trkpt><trkpt lat="45.46231249968831" lon="16.04820462682931"><ele>138.5</ele><time>2026-05-04T15:13:42Z</time></trkpt><trkpt lat="45.46236261808693" lon="16.047869463247224"><ele>139.0</ele><time>2026-05-04T15:13:43Z</time></trkpt><trkpt lat="45.462393547944856" lon="16.047526038468845"><ele>139.5</ele><time>2026-05-04T15:13:44Z</time></trkpt><trkpt lat="45.46240200625538" lon="16.0471950295404"><ele>140.0</ele><time>2026-05-04T15:13:45Z</time></trkpt><trkpt lat="45.462417903012096" lon="16.046881074568535"><ele>140.0</ele><time>2026-05-04T15:13:46Z</time></trkpt><trkpt lat="45.46245699516603" lon="16.046594490314053"><ele>140.0</ele><time>2026-05-04T15:13:47Z</time></trkpt><trkpt lat="45.4625309470174" lon="16.046306937356018"><ele>140.0</ele><time>2026-05-04T15:13:48Z</time></trkpt><trkpt lat="45.46260524925271" lon="16.04603282824288"><ele>141.0</ele><time>2026-05-04T15:13:49Z</time></trkpt><trkpt lat="45.462661953885195" lon="16.045778203193866"><ele>142.0</ele><time>2026-05-04T15:13:50Z</time></trkpt><trkpt lat="45.462708459326144" lon="16.04554481437209"><ele>143.0</ele><time>2026-05-04T15:13:51Z</time></trkpt><trkpt lat="45.46274173014838" lon="16.045346648639157"><ele>143.0</ele><time>2026-05-04T15:13:52Z</time></trkpt><trkpt lat="45.4627654276612" lon="16.04518550410726"><ele>143.0</ele><time>2026-05-04T15:13:53Z</time></trkpt><trkpt lat="45.4627897615282" lon="16.045051842233942"><ele>143.0</ele><time>2026-05-04T15:13:54Z</time></trkpt><trkpt lat="45.46280485480283" lon="16.04493525737182"><ele>143.0</ele><time>2026-05-04T15:13:55Z</time></trkpt><trkpt lat="45.46282029172465" lon="16.044817214593223"><ele>143.0</ele><time>2026-05-04T15:13:56Z</time></trkpt><trkpt lat="45.46285500070483" lon="16.04468176948696"><ele>143.0</ele><time>2026-05-04T15:13:57Z</time></trkpt><trkpt lat="45.46291634947691" lon="16.044541278739377"><ele>143.0</ele><time>2026-05-04T15:13:58Z</time></trkpt><trkpt lat="45.46300223143367" lon="16.04439020097042"><ele>143.0</ele><time>2026-05-04T15:13:59Z</time></trkpt><trkpt lat="45.46308394829299" lon="16.04421883362734"><ele>143.0</ele><time>2026-05-04T15:14:00Z</time></trkpt><trkpt lat="45.46315527993783" lon="16.04403674550104"><ele>142.33333333333331</ele><time>2026-05-04T15:14:01Z</time></trkpt><trkpt lat="45.46323173740155" lon="16.043832859845914"><ele>141.66666666666666</ele><time>2026-05-04T15:14:02Z</time></trkpt><trkpt lat="45.46332328226518" lon="16.043590638992942"><ele>141.0</ele><time>2026-05-04T15:14:03Z</time></trkpt><trkpt lat="45.46344050960864" lon="16.04332537469372"><ele>141.33333333333334</ele><time>2026-05-04T15:14:04Z</time></trkpt><trkpt lat="45.46357106332269" lon="16.043056647382993"><ele>141.66666666666669</ele><time>2026-05-04T15:14:05Z</time></trkpt><trkpt lat="45.46369033474826" lon="16.042804985064496"><ele>142.0</ele><time>2026-05-04T15:14:06Z</time></trkpt><trkpt lat="45.46379184894304" lon="16.04254135504622"><ele>143.66666666666669</ele><time>2026-05-04T15:14:07Z</time></trkpt><trkpt lat="45.463859806190676" lon="16.042253958933188"><ele>145.33333333333334</ele><time>2026-05-04T15:14:08Z</time></trkpt><trkpt lat="45.463911290829095" lon="16.041941275900676"><ele>147.0</ele><time>2026-05-04T15:14:09Z</time></trkpt><trkpt lat="45.46396333104123" lon="16.041604544924226"><ele>148.0</ele><time>2026-05-04T15:14:10Z</time></trkpt><trkpt lat="45.46401259920829" lon="16.041281169724567"><ele>149.0</ele><time>2026-05-04T15:14:11Z</time></trkpt><trkpt lat="45.464051080692414" lon="16.04095790170829"><ele>149.0</ele><time>2026-05-04T15:14:12Z</time></trkpt><trkpt lat="45.464088952454105" lon="16.040624982184262"><ele>149.0</ele><time>2026-05-04T15:14:13Z</time></trkpt><trkpt lat="45.46413960391994" lon="16.04029037978788"><ele>149.0</ele><time>2026-05-04T15:14:14Z</time></trkpt><trkpt lat="45.464229510191316" lon="16.039971810121187"><ele>149.0</ele><time>2026-05-04T15:14:15Z</time></trkpt><trkpt lat="45.464339523797165" lon="16.03965256800064"><ele>150.0</ele><time>2026-05-04T15:14:16Z</time></trkpt><trkpt lat="45.46445217849862" lon="16.039327899848498"><ele>151.0</ele><time>2026-05-04T15:14:17Z</time></trkpt><trkpt lat="45.46455440094805" lon="16.038999788142043"><ele>153.33333333333334</ele><time>2026-05-04T15:14:18Z</time></trkpt><trkpt lat="45.46463244810573" lon="16.038698725305714"><ele>155.66666666666666</ele><time>2026-05-04T15:14:19Z</time></trkpt><trkpt lat="45.464722510334646" lon="16.038411426526302"><ele>158.0</ele><time>2026-05-04T15:14:20Z</time></trkpt><trkpt lat="45.46484250894845" lon="16.038131051960274"><ele>160.5</ele><time>2026-05-04T15:14:21Z</time></trkpt><trkpt lat="45.46498611127002" lon="16.03784436638525"><ele>163.0</ele><time>2026-05-04T15:14:22Z</time></trkpt><trkpt lat="45.46512230585347" lon="16.037512138665853"><ele>163.5</ele><time>2026-05-04T15:14:23Z</time></trkpt><trkpt lat="45.46524241362586" lon="16.03714987006521"><ele>164.0</ele><time>2026-05-04T15:14:24Z</time></trkpt><trkpt lat="45.465348520309554" lon="16.036830872449144"><ele>164.0</ele><time>2026-05-04T15:14:25Z</time></trkpt><trkpt lat="45.46544097107243" lon="16.03656321737617"><ele>164.0</ele><time>2026-05-04T15:14:26Z</time></trkpt><trkpt lat="45.46551117189777" lon="16.036296665745294"><ele>164.0</ele><time>2026-05-04T15:14:27Z</time></trkpt><trkpt lat="45.465553263402974" lon="16.036005065294802"><ele>166.33333333333331</ele><time>2026-05-04T15:14:28Z</time></trkpt><trkpt lat="45.46558328842211" lon="16.035711833161518"><ele>168.66666666666666</ele><time>2026-05-04T15:14:29Z</time></trkpt><trkpt lat="45.46561036878258" lon="16.035434202792658"><ele>171.0</ele><time>2026-05-04T15:14:30Z</time></trkpt><trkpt lat="45.465645150727134" lon="16.03516983500848"><ele>172.5</ele><time>2026-05-04T15:14:31Z</time></trkpt><trkpt lat="45.4656868887761" lon="16.034940545333114"><ele>174.0</ele><time>2026-05-04T15:14:32Z</time></trkpt><trkpt lat="45.46574449729433" lon="16.03474241377421"><ele>175.5</ele><time>2026-05-04T15:14:33Z</time></trkpt><trkpt lat="45.465830325244816" lon="16.034601633989233"><ele>177.0</ele><time>2026-05-04T15:14:34Z</time></trkpt><trkpt lat="45.4659434431482" lon="16.034536071331353"><ele>177.0</ele><time>2026-05-04T15:14:35Z</time></trkpt><trkpt lat="45.46608341198535" lon="16.03451616212488"><ele>177.0</ele><time>2026-05-04T15:14:36Z</time></trkpt><trkpt lat="45.46627666145104" lon="16.03450277087697"><ele>177.0</ele><time>2026-05-04T15:14:37Z</time></trkpt><trkpt lat="45.466470268279096" lon="16.03448110873049"><ele>176.33333333333334</ele><time>2026-05-04T15:14:38Z</time></trkpt><trkpt lat="45.466639239632684" lon="16.034443237966542"><ele>175.66666666666669</ele><time>2026-05-04T15:14:39Z</time></trkpt><trkpt lat="45.4667942105529" lon="16.034372699279853"><ele>175.0</ele><time>2026-05-04T15:14:40Z</time></trkpt><trkpt lat="45.46694932410923" lon="16.034256874424713"><ele>172.0</ele><time>2026-05-04T15:14:41Z</time></trkpt><trkpt lat="45.467112716387504" lon="16.034150355242936"><ele>169.0</ele><time>2026-05-04T15:14:42Z</time></trkpt><trkpt lat="45.467295384767674" lon="16.034099434407093"><ele>166.0</ele><time>2026-05-04T15:14:43Z</time></trkpt><trkpt lat="45.467497460118715" lon="16.03413017658225"><ele>166.0</ele><time>2026-05-04T15:14:44Z</time></trkpt><trkpt lat="45.46767851423885" lon="16.034183245619445"><ele>166.0</ele><time>2026-05-04T15:14:45Z</time></trkpt><trkpt lat="45.467838974919104" lon="16.03420276745452"><ele>166.0</ele><time>2026-05-04T15:14:46Z</time></trkpt><trkpt lat="45.467971979701375" lon="16.034149154262565"><ele>163.66666666666669</ele><time>2026-05-04T15:14:47Z</time></trkpt><trkpt lat="45.46809787399667" lon="16.034039013703946"><ele>161.33333333333334</ele><time>2026-05-04T15:14:48Z</time></trkpt><trkpt lat="45.46820197976739" lon="16.03386679858039"><ele>159.0</ele><time>2026-05-04T15:14:49Z</time></trkpt><trkpt lat="45.46829920293699" lon="16.033674630571927"><ele>159.0</ele><time>2026-05-04T15:14:50Z</time></trkpt><trkpt lat="45.46843783125291" lon="16.033517102966286"><ele>159.0</ele><time>2026-05-04T15:14:51Z</time></trkpt><trkpt lat="45.46861428261673" lon="16.033447390349636"><ele>159.0</ele><time>2026-05-04T15:14:52Z</time></trkpt><trkpt lat="45.46876311196558" lon="16.033349680238224"><ele>155.0</ele><time>2026-05-04T15:14:53Z</time></trkpt><trkpt lat="45.468890693928905" lon="16.033208789948084"><ele>151.0</ele><time>2026-05-04T15:14:54Z</time></trkpt><trkpt lat="45.468989315556534" lon="16.03301988201019"><ele>147.0</ele><time>2026-05-04T15:14:55Z</time></trkpt><trkpt lat="45.46906556809549" lon="16.03286193530235"><ele>147.0</ele><time>2026-05-04T15:14:56Z</time></trkpt><trkpt lat="45.46915974059015" lon="16.032769643559874"><ele>147.0</ele><time>2026-05-04T15:14:57Z</time></trkpt><trkpt lat="45.46928899242082" lon="16.032782424035688"><ele>147.0</ele><time>2026-05-04T15:14:58Z</time></trkpt><trkpt lat="45.46943223319286" lon="16.03281692641418"><ele>147.0</ele><time>2026-05-04T15:14:59Z</time></trkpt><trkpt lat="45.46957299021351" lon="16.032767760757928"><ele>144.0</ele><time>2026-05-04T15:15:00Z</time></trkpt><trkpt lat="45.46967885138553" lon="16.032623844562416"><ele>141.0</ele><time>2026-05-04T15:15:01Z</time></trkpt><trkpt lat="45.46976991613054" lon="16.03241600717376"><ele>138.0</ele><time>2026-05-04T15:15:02Z</time></trkpt><trkpt lat="45.469849947526384" lon="16.03219964627651"><ele>138.0</ele><time>2026-05-04T15:15:03Z</time></trkpt><trkpt lat="45.469943663324514" lon="16.032009064604726"><ele>138.0</ele><time>2026-05-04T15:15:04Z</time></trkpt><trkpt lat="45.470060774370374" lon="16.031847578003777"><ele>138.0</ele><time>2026-05-04T15:15:05Z</time></trkpt><trkpt lat="45.47021666293139" lon="16.031725898613146"><ele>138.0</ele><time>2026-05-04T15:15:06Z</time></trkpt><trkpt lat="45.470391778816534" lon="16.03166446056945"><ele>138.0</ele><time>2026-05-04T15:15:07Z</time></trkpt><trkpt lat="45.47053100655551" lon="16.031558352541243"><ele>138.0</ele><time>2026-05-04T15:15:08Z</time></trkpt><trkpt lat="45.47062590873358" lon="16.031423094893295"><ele>134.0</ele><time>2026-05-04T15:15:09Z</time></trkpt><trkpt lat="45.470688889646034" lon="16.03124240621441"><ele>130.0</ele><time>2026-05-04T15:15:10Z</time></trkpt><trkpt lat="45.470711612525605" lon="16.031013990123093"><ele>126.0</ele><time>2026-05-04T15:15:11Z</time></trkpt><trkpt lat="45.47070016941504" lon="16.030767052355035"><ele>125.0</ele><time>2026-05-04T15:15:12Z</time></trkpt><trkpt lat="45.470658487641415" lon="16.030513758427475"><ele>124.0</ele><time>2026-05-04T15:15:13Z</time></trkpt><trkpt lat="45.4706056921965" lon="16.03026199479017"><ele>123.0</ele><time>2026-05-04T15:15:14Z</time></trkpt><trkpt lat="45.4706020603909" lon="16.03002110858021"><ele>123.33333333333334</ele><time>2026-05-04T15:15:15Z</time></trkpt><trkpt lat="45.47060851124255" lon="16.029803017740992"><ele>123.66666666666667</ele><time>2026-05-04T15:15:16Z</time></trkpt><trkpt lat="45.470628200877115" lon="16.029559984697247"><ele>124.0</ele><time>2026-05-04T15:15:17Z</time></trkpt><trkpt lat="45.47066079855022" lon="16.029265976197415"><ele>125.33333333333334</ele><time>2026-05-04T15:15:18Z</time></trkpt><trkpt lat="45.47069396240176" lon="16.02897371405332"><ele>126.66666666666666</ele><time>2026-05-04T15:15:19Z</time></trkpt><trkpt lat="45.47073163797517" lon="16.028715422126492"><ele>128.0</ele><time>2026-05-04T15:15:20Z</time></trkpt><trkpt lat="45.47078547589119" lon="16.02850115205077"><ele>128.0</ele><time>2026-05-04T15:15:21Z</time></trkpt><trkpt lat="45.47087064206728" lon="16.028326683928785"><ele>128.0</ele><time>2026-05-04T15:15:22Z</time></trkpt><trkpt lat="45.470981150691834" lon="16.028233876225357"><ele>128.0</ele><time>2026-05-04T15:15:23Z</time></trkpt><trkpt lat="45.471106247662924" lon="16.02810831077415"><ele>128.0</ele><time>2026-05-04T15:15:24Z</time></trkpt><trkpt lat="45.471255134681186" lon="16.02794165722858"><ele>128.33333333333331</ele><time>2026-05-04T15:15:25Z</time></trkpt><trkpt lat="45.471393422308566" lon="16.027735207864417"><ele>128.66666666666666</ele><time>2026-05-04T15:15:26Z</time></trkpt><trkpt lat="45.471549313836505" lon="16.027553195191388"><ele>129.0</ele><time>2026-05-04T15:15:27Z</time></trkpt><trkpt lat="45.471736986720884" lon="16.02742369998307"><ele>129.0</ele><time>2026-05-04T15:15:28Z</time></trkpt><trkpt lat="45.47193827931372" lon="16.027349169728865"><ele>129.0</ele><time>2026-05-04T15:15:29Z</time></trkpt><trkpt lat="45.47215859591194" lon="16.02727896840344"><ele>129.0</ele><time>2026-05-04T15:15:30Z</time></trkpt><trkpt lat="45.47238059862982" lon="16.027161102321546"><ele>129.5</ele><time>2026-05-04T15:15:31Z</time></trkpt><trkpt lat="45.47260094746045" lon="16.027038618683115"><ele>130.0</ele><time>2026-05-04T15:15:32Z</time></trkpt><trkpt lat="45.47281272015287" lon="16.026863318250765"><ele>130.5</ele><time>2026-05-04T15:15:33Z</time></trkpt><trkpt lat="45.47300688386917" lon="16.02665913130617"><ele>131.0</ele><time>2026-05-04T15:15:34Z</time></trkpt><trkpt lat="45.473186428868104" lon="16.026443373115946"><ele>132.5</ele><time>2026-05-04T15:15:35Z</time></trkpt><trkpt lat="45.47336770078178" lon="16.026249191535868"><ele>134.0</ele><time>2026-05-04T15:15:36Z</time></trkpt><trkpt lat="45.47359153806736" lon="16.026132553948734"><ele>136.0</ele><time>2026-05-04T15:15:37Z</time></trkpt><trkpt lat="45.473818518534905" lon="16.026027011440306"><ele>138.0</ele><time>2026-05-04T15:15:38Z</time></trkpt><trkpt lat="45.474014626134405" lon="16.025885502594914"><ele>140.0</ele><time>2026-05-04T15:15:39Z</time></trkpt><trkpt lat="45.474207420340164" lon="16.0257221267397"><ele>142.0</ele><time>2026-05-04T15:15:40Z</time></trkpt><trkpt lat="45.47439007763643" lon="16.025487224437363"><ele>142.0</ele><time>2026-05-04T15:15:41Z</time></trkpt><trkpt lat="45.47456627036798" lon="16.025238904287445"><ele>142.0</ele><time>2026-05-04T15:15:42Z</time></trkpt><trkpt lat="45.474759119395415" lon="16.025056454947023"><ele>144.33333333333334</ele><time>2026-05-04T15:15:43Z</time></trkpt><trkpt lat="45.474950573685625" lon="16.024903166944252"><ele>146.66666666666666</ele><time>2026-05-04T15:15:44Z</time></trkpt><trkpt lat="45.475137186898905" lon="16.024781826799057"><ele>149.0</ele><time>2026-05-04T15:15:45Z</time></trkpt><trkpt lat="45.475323998859935" lon="16.02466616899456"><ele>149.33333333333331</ele><time>2026-05-04T15:15:46Z</time></trkpt><trkpt lat="45.47550057337968" lon="16.024509809292475"><ele>149.66666666666666</ele><time>2026-05-04T15:15:47Z</time></trkpt><trkpt lat="45.47568657155508" lon="16.02431813589823"><ele>150.0</ele><time>2026-05-04T15:15:48Z</time></trkpt><trkpt lat="45.47588740554493" lon="16.02413466264601"><ele>150.0</ele><time>2026-05-04T15:15:49Z</time></trkpt><trkpt lat="45.4760692586861" lon="16.023945199362213"><ele>150.0</ele><time>2026-05-04T15:15:50Z</time></trkpt><trkpt lat="45.47622630288497" lon="16.023769984613935"><ele>150.0</ele><time>2026-05-04T15:15:51Z</time></trkpt><trkpt lat="45.47623896447776" lon="16.023335537457392"><ele>147.66666666666666</ele><time>2026-05-04T15:15:52Z</time></trkpt><trkpt lat="45.47629810721882" lon="16.02304131600678"><ele>145.33333333333331</ele><time>2026-05-04T15:15:53Z</time></trkpt><trkpt lat="45.476358730811256" lon="16.022777017730895"><ele>143.0</ele><time>2026-05-04T15:15:54Z</time></trkpt><trkpt lat="45.47644670699957" lon="16.02254291495366"><ele>140.66666666666666</ele><time>2026-05-04T15:15:55Z</time></trkpt><trkpt lat="45.47655579532885" lon="16.022320369878145"><ele>138.33333333333334</ele><time>2026-05-04T15:15:56Z</time></trkpt><trkpt lat="45.47667448647023" lon="16.022107142888622"><ele>136.0</ele><time>2026-05-04T15:15:57Z</time></trkpt><trkpt lat="45.476780040506135" lon="16.021875954136743"><ele>134.33333333333334</ele><time>2026-05-04T15:15:58Z</time></trkpt><trkpt lat="45.47685961774431" lon="16.021589191844313"><ele>132.66666666666666</ele><time>2026-05-04T15:15:59Z</time></trkpt><trkpt lat="45.47691651653928" lon="16.02127654851053"><ele>131.0</ele><time>2026-05-04T15:16:00Z</time></trkpt><trkpt lat="45.476966275034826" lon="16.020955175865325"><ele>129.33333333333331</ele><time>2026-05-04T15:16:01Z</time></trkpt><trkpt lat="45.47704117326011" lon="16.020649294046457"><ele>127.66666666666666</ele><time>2026-05-04T15:16:02Z</time></trkpt><trkpt lat="45.477143828864044" lon="16.020376660116128"><ele>126.0</ele><time>2026-05-04T15:16:03Z</time></trkpt><trkpt lat="45.477232287947764" lon="16.020098183643796"><ele>120.0</ele><time>2026-05-04T15:16:04Z</time></trkpt><trkpt lat="45.4772775235873" lon="16.01978366584724"><ele>114.0</ele><time>2026-05-04T15:16:05Z</time></trkpt><trkpt lat="45.47729159648926" lon="16.01940088086715"><ele>112.0</ele><time>2026-05-04T15:16:06Z</time></trkpt><trkpt lat="45.477296485243755" lon="16.01896852780589"><ele>110.0</ele><time>2026-05-04T15:16:07Z</time></trkpt><trkpt lat="45.47730479599653" lon="16.018553214366275"><ele>108.5</ele><time>2026-05-04T15:16:08Z</time></trkpt><trkpt lat="45.47731187085599" lon="16.018174679906757"><ele>107.0</ele><time>2026-05-04T15:16:09Z</time></trkpt><trkpt lat="45.47731639677578" lon="16.017811611479004"><ele>106.5</ele><time>2026-05-04T15:16:10Z</time></trkpt><trkpt lat="45.477330391345824" lon="16.01746923003235"><ele>106.0</ele><time>2026-05-04T15:16:11Z</time></trkpt><trkpt lat="45.477380167438156" lon="16.01715675574583"><ele>106.0</ele><time>2026-05-04T15:16:12Z</time></trkpt><trkpt lat="45.47747402920752" lon="16.016888758595552"><ele>106.0</ele><time>2026-05-04T15:16:13Z</time></trkpt><trkpt lat="45.477586243029116" lon="16.01665806164427"><ele>106.0</ele><time>2026-05-04T15:16:14Z</time></trkpt><trkpt lat="45.477674577285846" lon="16.016429746053483"><ele>106.33333333333334</ele><time>2026-05-04T15:16:15Z</time></trkpt><trkpt lat="45.47771020957256" lon="16.016166426055264"><ele>106.66666666666666</ele><time>2026-05-04T15:16:16Z</time></trkpt><trkpt lat="45.47771037340101" lon="16.015854908067165"><ele>107.0</ele><time>2026-05-04T15:16:17Z</time></trkpt><trkpt lat="45.477692897940756" lon="16.015501997366215"><ele>108.5</ele><time>2026-05-04T15:16:18Z</time></trkpt><trkpt lat="45.47769214900337" lon="16.015147418910757"><ele>110.0</ele><time>2026-05-04T15:16:19Z</time></trkpt><trkpt lat="45.47770971836618" lon="16.014835662604828"><ele>112.0</ele><time>2026-05-04T15:16:20Z</time></trkpt><trkpt lat="45.47771646648692" lon="16.014568608052024"><ele>114.0</ele><time>2026-05-04T15:16:21Z</time></trkpt><trkpt lat="45.477673410204595" lon="16.01432097154529"><ele>116.0</ele><time>2026-05-04T15:16:22Z</time></trkpt><trkpt lat="45.47758435578795" lon="16.014044097620232"><ele>118.0</ele><time>2026-05-04T15:16:23Z</time></trkpt><trkpt lat="45.4774816401778" lon="16.013723627502348"><ele>120.0</ele><time>2026-05-04T15:16:24Z</time></trkpt><trkpt lat="45.47739538252286" lon="16.013375130459096"><ele>121.66666666666666</ele><time>2026-05-04T15:16:25Z</time></trkpt><trkpt lat="45.477347950939" lon="16.013087844438047"><ele>123.33333333333333</ele><time>2026-05-04T15:16:26Z</time></trkpt><trkpt lat="45.47733266132496" lon="16.01286816940654"><ele>125.0</ele><time>2026-05-04T15:16:27Z</time></trkpt><trkpt lat="45.47732443941847" lon="16.012699460533554"><ele>124.99999999999999</ele><time>2026-05-04T15:16:28Z</time></trkpt><trkpt lat="45.477323687177815" lon="16.01257703888934"><ele>125.0</ele><time>2026-05-04T15:16:29Z</time></trkpt><trkpt lat="45.47732586105377" lon="16.01247820580714"><ele>125.0</ele><time>2026-05-04T15:16:30Z</time></trkpt><trkpt lat="45.47733271084466" lon="16.012386411437987"><ele>125.0</ele><time>2026-05-04T15:16:31Z</time></trkpt><trkpt lat="45.477373271580596" lon="16.01229649572335"><ele>124.99999999999999</ele><time>2026-05-04T15:16:32Z</time></trkpt><trkpt lat="45.477458770016646" lon="16.012206445294712"><ele>125.0</ele><time>2026-05-04T15:16:33Z</time></trkpt><trkpt lat="45.47757811460611" lon="16.012109919275975"><ele>126.33333333333333</ele><time>2026-05-04T15:16:34Z</time></trkpt><trkpt lat="45.47772069741178" lon="16.011977986771388"><ele>127.66666666666666</ele><time>2026-05-04T15:16:35Z</time></trkpt><trkpt lat="45.477859457339875" lon="16.011766174620575"><ele>129.0</ele><time>2026-05-04T15:16:36Z</time></trkpt><trkpt lat="45.47798936230767" lon="16.01147899509285"><ele>133.0</ele><time>2026-05-04T15:16:37Z</time></trkpt><trkpt lat="45.478124616802056" lon="16.011137361423305"><ele>137.0</ele><time>2026-05-04T15:16:38Z</time></trkpt><trkpt lat="45.47827229484804" lon="16.010785975180532"><ele>138.5</ele><time>2026-05-04T15:16:39Z</time></trkpt><trkpt lat="45.478445908827695" lon="16.0104579195799"><ele>140.0</ele><time>2026-05-04T15:16:40Z</time></trkpt><trkpt lat="45.47863908617642" lon="16.010138455807827"><ele>141.0</ele><time>2026-05-04T15:16:41Z</time></trkpt><trkpt lat="45.47881816843671" lon="16.009842726094462"><ele>142.0</ele><time>2026-05-04T15:16:42Z</time></trkpt><trkpt lat="45.478976623791965" lon="16.009565991223845"><ele>142.0</ele><time>2026-05-04T15:16:43Z</time></trkpt><trkpt lat="45.47912389177145" lon="16.009319892803628"><ele>142.0</ele><time>2026-05-04T15:16:44Z</time></trkpt><trkpt lat="45.479266538355276" lon="16.009094589388663"><ele>142.0</ele><time>2026-05-04T15:16:45Z</time></trkpt><trkpt lat="45.47941617798475" lon="16.00886667547383"><ele>138.0</ele><time>2026-05-04T15:16:46Z</time></trkpt><trkpt lat="45.47959805293735" lon="16.00864753462835"><ele>134.0</ele><time>2026-05-04T15:16:47Z</time></trkpt><trkpt lat="45.47980799105928" lon="16.00842644504448"><ele>135.0</ele><time>2026-05-04T15:16:48Z</time></trkpt><trkpt lat="45.480051136097934" lon="16.008196653363555"><ele>136.0</ele><time>2026-05-04T15:16:49Z</time></trkpt><trkpt lat="45.480302849551094" lon="16.00795721785286"><ele>129.0</ele><time>2026-05-04T15:16:50Z</time></trkpt><trkpt lat="45.480555393671104" lon="16.007718289479655"><ele>122.0</ele><time>2026-05-04T15:16:51Z</time></trkpt><trkpt lat="45.48079540857535" lon="16.007485502542778"><ele>122.0</ele><time>2026-05-04T15:16:52Z</time></trkpt><trkpt lat="45.481024119403536" lon="16.007272681098126"><ele>122.0</ele><time>2026-05-04T15:16:53Z</time></trkpt><trkpt lat="45.481253613978915" lon="16.007092673716038"><ele>116.5</ele><time>2026-05-04T15:16:54Z</time></trkpt><trkpt lat="45.48150516939449" lon="16.006946425198894"><ele>111.0</ele><time>2026-05-04T15:16:55Z</time></trkpt><trkpt lat="45.48176068526762" lon="16.00684470974961"><ele>111.0</ele><time>2026-05-04T15:16:56Z</time></trkpt><trkpt lat="45.482003588304735" lon="16.006756510175975"><ele>111.0</ele><time>2026-05-04T15:16:57Z</time></trkpt><trkpt lat="45.48224054410264" lon="16.00666041150074"><ele>107.5</ele><time>2026-05-04T15:16:58Z</time></trkpt><trkpt lat="45.482474926817716" lon="16.006540165432714"><ele>104.0</ele><time>2026-05-04T15:16:59Z</time></trkpt><trkpt lat="45.48268631653079" lon="16.00638841048843"><ele>104.0</ele><time>2026-05-04T15:17:00Z</time></trkpt><trkpt lat="45.48287224842087" lon="16.006220713808684"><ele>104.0</ele><time>2026-05-04T15:17:01Z</time></trkpt><trkpt lat="45.4830570525329" lon="16.006024192272676"><ele>103.0</ele><time>2026-05-04T15:17:02Z</time></trkpt><trkpt lat="45.483260214877824" lon="16.005845536239157"><ele>102.0</ele><time>2026-05-04T15:17:03Z</time></trkpt><trkpt lat="45.48345307870478" lon="16.005648484175406"><ele>101.0</ele><time>2026-05-04T15:17:04Z</time></trkpt><trkpt lat="45.48363637265263" lon="16.005365698805782"><ele>100.0</ele><time>2026-05-04T15:17:05Z</time></trkpt><trkpt lat="45.48379173045283" lon="16.005055846342106"><ele>99.66666666666667</ele><time>2026-05-04T15:17:06Z</time></trkpt><trkpt lat="45.48392595805713" lon="16.00478133900988"><ele>99.33333333333334</ele><time>2026-05-04T15:17:07Z</time></trkpt><trkpt lat="45.4840540046263" lon="16.00454056645392"><ele>99.0</ele><time>2026-05-04T15:17:08Z</time></trkpt><trkpt lat="45.484174841788644" lon="16.004322222460665"><ele>100.33333333333334</ele><time>2026-05-04T15:17:09Z</time></trkpt><trkpt lat="45.48429292710593" lon="16.004110704722535"><ele>101.66666666666667</ele><time>2026-05-04T15:17:10Z</time></trkpt><trkpt lat="45.484406819671214" lon="16.00390703641239"><ele>103.0</ele><time>2026-05-04T15:17:11Z</time></trkpt><trkpt lat="45.484524840056" lon="16.003699738035856"><ele>105.33333333333334</ele><time>2026-05-04T15:17:12Z</time></trkpt><trkpt lat="45.48464800172401" lon="16.00348586431448"><ele>107.66666666666666</ele><time>2026-05-04T15:17:13Z</time></trkpt><trkpt lat="45.48476884243201" lon="16.003283129590283"><ele>110.0</ele><time>2026-05-04T15:17:14Z</time></trkpt><trkpt lat="45.484885759766854" lon="16.00311284466703"><ele>110.6</ele><time>2026-05-04T15:17:15Z</time></trkpt><trkpt lat="45.48499605512508" lon="16.002990179728002"><ele>111.2</ele><time>2026-05-04T15:17:16Z</time></trkpt><trkpt lat="45.48509711105" lon="16.002932846327855"><ele>111.80000000000001</ele><time>2026-05-04T15:17:17Z</time></trkpt><trkpt lat="45.48516781065503" lon="16.00293376265578"><ele>112.4</ele><time>2026-05-04T15:17:18Z</time></trkpt><trkpt lat="45.48524410276574" lon="16.002902137725652"><ele>113.0</ele><time>2026-05-04T15:17:21Z</time></trkpt><trkpt lat="45.485280258670656" lon="16.002784825613308"><ele>113.0</ele><time>2026-05-04T15:17:22Z</time></trkpt><trkpt lat="45.485296548656244" lon="16.00258828127567"><ele>113.0</ele><time>2026-05-04T15:17:23Z</time></trkpt><trkpt lat="45.485312598641016" lon="16.002316851640682"><ele>113.0</ele><time>2026-05-04T15:17:24Z</time></trkpt><trkpt lat="45.48534651006757" lon="16.001992834801552"><ele>110.5</ele><time>2026-05-04T15:17:25Z</time></trkpt><trkpt lat="45.4853734945592" lon="16.001647811253434"><ele>108.0</ele><time>2026-05-04T15:17:26Z</time></trkpt><trkpt lat="45.48539237095441" lon="16.001349934137096"><ele>108.0</ele><time>2026-05-04T15:17:27Z</time></trkpt><trkpt lat="45.485407249415914" lon="16.00111360963397"><ele>108.0</ele><time>2026-05-04T15:17:28Z</time></trkpt><trkpt lat="45.48541685407835" lon="16.000908578186277"><ele>108.0</ele><time>2026-05-04T15:17:29Z</time></trkpt><trkpt lat="45.485396182474204" lon="16.00073615490001"><ele>108.0</ele><time>2026-05-04T15:17:30Z</time></trkpt><trkpt lat="45.48531698644261" lon="16.00060120159785"><ele>107.0</ele><time>2026-05-04T15:17:31Z</time></trkpt><trkpt lat="45.4852008141971" lon="16.000526495311068"><ele>106.0</ele><time>2026-05-04T15:17:32Z</time></trkpt><trkpt lat="45.485045396341434" lon="16.000487095128967"><ele>105.0</ele><time>2026-05-04T15:17:33Z</time></trkpt><trkpt lat="45.48485166182531" lon="16.00050535196703"><ele>105.0</ele><time>2026-05-04T15:17:34Z</time></trkpt><trkpt lat="45.48464180075925" lon="16.00052170753569"><ele>105.0</ele><time>2026-05-04T15:17:35Z</time></trkpt><trkpt lat="45.48442609822987" lon="16.00046108906186"><ele>105.0</ele><time>2026-05-04T15:17:36Z</time></trkpt><trkpt lat="45.48423502919515" lon="16.000336167382976"><ele>105.0</ele><time>2026-05-04T15:17:37Z</time></trkpt><trkpt lat="45.48406018856388" lon="16.000186515564806"><ele>105.0</ele><time>2026-05-04T15:17:38Z</time></trkpt><trkpt lat="45.483911106383744" lon="16.000007012265936"><ele>105.0</ele><time>2026-05-04T15:17:39Z</time></trkpt><trkpt lat="45.483778886230546" lon="15.999785878862053"><ele>106.33333333333334</ele><time>2026-05-04T15:17:40Z</time></trkpt><trkpt lat="45.48368171313989" lon="15.999544098337141"><ele>107.66666666666667</ele><time>2026-05-04T15:17:41Z</time></trkpt><trkpt lat="45.4836029663314" lon="15.999316691080253"><ele>109.0</ele><time>2026-05-04T15:17:42Z</time></trkpt><trkpt lat="45.48350938288908" lon="15.999120209411318"><ele>109.33333333333334</ele><time>2026-05-04T15:17:43Z</time></trkpt><trkpt lat="45.48339303938202" lon="15.998982242977045"><ele>109.66666666666666</ele><time>2026-05-04T15:17:44Z</time></trkpt><trkpt lat="45.48325961044536" lon="15.99888775692821"><ele>110.0</ele><time>2026-05-04T15:17:45Z</time></trkpt><trkpt lat="45.48310087998744" lon="15.998848217391469"><ele>109.33333333333333</ele><time>2026-05-04T15:17:46Z</time></trkpt><trkpt lat="45.48291673560192" lon="15.998806819127504"><ele>108.66666666666666</ele><time>2026-05-04T15:17:47Z</time></trkpt><trkpt lat="45.48273492935904" lon="15.998715219025398"><ele>108.0</ele><time>2026-05-04T15:17:48Z</time></trkpt><trkpt lat="45.482556730589565" lon="15.998556306027574"><ele>108.0</ele><time>2026-05-04T15:17:49Z</time></trkpt><trkpt lat="45.48240148831387" lon="15.998365106455413"><ele>108.0</ele><time>2026-05-04T15:17:50Z</time></trkpt><trkpt lat="45.48227066411774" lon="15.998203771330369"><ele>108.0</ele><time>2026-05-04T15:17:51Z</time></trkpt><trkpt lat="45.48214710290184" lon="15.998058655337005"><ele>108.33333333333334</ele><time>2026-05-04T15:17:52Z</time></trkpt><trkpt lat="45.48203272977066" lon="15.997920204917245"><ele>108.66666666666667</ele><time>2026-05-04T15:17:53Z</time></trkpt><trkpt lat="45.48192489593764" lon="15.997756127891552"><ele>109.0</ele><time>2026-05-04T15:17:54Z</time></trkpt><trkpt lat="45.48181449652516" lon="15.997574726512157"><ele>109.66666666666667</ele><time>2026-05-04T15:17:55Z</time></trkpt><trkpt lat="45.48170528558668" lon="15.997389388954193"><ele>110.33333333333334</ele><time>2026-05-04T15:17:56Z</time></trkpt><trkpt lat="45.4816168677154" lon="15.997215685734892"><ele>111.0</ele><time>2026-05-04T15:17:57Z</time></trkpt><trkpt lat="45.481536119919646" lon="15.997047703406416"><ele>111.0</ele><time>2026-05-04T15:17:58Z</time></trkpt><trkpt lat="45.481452046275116" lon="15.996889556846442"><ele>111.0</ele><time>2026-05-04T15:17:59Z</time></trkpt><trkpt lat="45.48136644979474" lon="15.996740964693386"><ele>111.0</ele><time>2026-05-04T15:18:00Z</time></trkpt><trkpt lat="45.48127661588832" lon="15.996593141411406"><ele>111.0</ele><time>2026-05-04T15:18:01Z</time></trkpt><trkpt lat="45.481176756157026" lon="15.99644574924297"><ele>110.75</ele><time>2026-05-04T15:18:02Z</time></trkpt><trkpt lat="45.48107477692612" lon="15.99632390554452"><ele>110.5</ele><time>2026-05-04T15:18:03Z</time></trkpt><trkpt lat="45.48096312695233" lon="15.996206633608681"><ele>110.25</ele><time>2026-05-04T15:18:04Z</time></trkpt><trkpt lat="45.480851037898724" lon="15.996101107171986"><ele>110.0</ele><time>2026-05-04T15:18:05Z</time></trkpt><trkpt lat="45.48075220278933" lon="15.996008764188334"><ele>110.0</ele><time>2026-05-04T15:18:06Z</time></trkpt><trkpt lat="45.48067653499212" lon="15.99592925857296"><ele>110.0</ele><time>2026-05-04T15:18:07Z</time></trkpt><trkpt lat="45.480625413904654" lon="15.995816431352573"><ele>110.0</ele><time>2026-05-04T15:18:08Z</time></trkpt><trkpt lat="45.48063207130978" lon="15.995683448078895"><ele>110.0</ele><time>2026-05-04T15:18:09Z</time></trkpt><trkpt lat="45.48068306771423" lon="15.99557280208416"><ele>110.0</ele><time>2026-05-04T15:18:10Z</time></trkpt><trkpt lat="45.480774828817054" lon="15.995495835693635"><ele>110.33333333333333</ele><time>2026-05-04T15:18:11Z</time></trkpt><trkpt lat="45.48089009443437" lon="15.99540355511166"><ele>110.66666666666666</ele><time>2026-05-04T15:18:12Z</time></trkpt><trkpt lat="45.48102431574656" lon="15.995251776710559"><ele>111.0</ele><time>2026-05-04T15:18:13Z</time></trkpt><trkpt lat="45.48117786978986" lon="15.99506031470809"><ele>113.33333333333334</ele><time>2026-05-04T15:18:14Z</time></trkpt><trkpt lat="45.481352597462035" lon="15.99483707335246"><ele>115.66666666666667</ele><time>2026-05-04T15:18:15Z</time></trkpt><trkpt lat="45.481504030402725" lon="15.994632738154927"><ele>118.0</ele><time>2026-05-04T15:18:16Z</time></trkpt><trkpt lat="45.481632861171555" lon="15.994448578297478"><ele>118.0</ele><time>2026-05-04T15:18:17Z</time></trkpt><trkpt lat="45.481755561967155" lon="15.99428475578429"><ele>118.0</ele><time>2026-05-04T15:18:18Z</time></trkpt><trkpt lat="45.481881271407445" lon="15.994128680714462"><ele>118.0</ele><time>2026-05-04T15:18:19Z</time></trkpt><trkpt lat="45.482010742430866" lon="15.993976438955006"><ele>120.33333333333334</ele><time>2026-05-04T15:18:20Z</time></trkpt><trkpt lat="45.48215470899451" lon="15.99383534552256"><ele>122.66666666666666</ele><time>2026-05-04T15:18:21Z</time></trkpt><trkpt lat="45.48230790270707" lon="15.993706710214475"><ele>125.0</ele><time>2026-05-04T15:18:22Z</time></trkpt><trkpt lat="45.48247174664411" lon="15.993586408266905"><ele>125.0</ele><time>2026-05-04T15:18:23Z</time></trkpt><trkpt lat="45.482642680570265" lon="15.993461168014637"><ele>125.0</ele><time>2026-05-04T15:18:24Z</time></trkpt><trkpt lat="45.48280438217772" lon="15.993349162184755"><ele>125.0</ele><time>2026-05-04T15:18:25Z</time></trkpt><trkpt lat="45.48295813963179" lon="15.99324769262882"><ele>127.0</ele><time>2026-05-04T15:18:26Z</time></trkpt><trkpt lat="45.48310413187936" lon="15.993147020958292"><ele>129.0</ele><time>2026-05-04T15:18:27Z</time></trkpt><trkpt lat="45.483239215808155" lon="15.993044192144218"><ele>131.0</ele><time>2026-05-04T15:18:28Z</time></trkpt><trkpt lat="45.48337254178172" lon="15.992949383566522"><ele>131.0</ele><time>2026-05-04T15:18:29Z</time></trkpt><trkpt lat="45.483510678848226" lon="15.99285751488888"><ele>131.0</ele><time>2026-05-04T15:18:30Z</time></trkpt><trkpt lat="45.48366176145938" lon="15.992774764525317"><ele>131.0</ele><time>2026-05-04T15:18:31Z</time></trkpt><trkpt lat="45.48381072190968" lon="15.992694045759837"><ele>133.0</ele><time>2026-05-04T15:18:32Z</time></trkpt><trkpt lat="45.48396420697144" lon="15.992611992185077"><ele>135.0</ele><time>2026-05-04T15:18:33Z</time></trkpt><trkpt lat="45.48411516084626" lon="15.992533046714293"><ele>137.0</ele><time>2026-05-04T15:18:34Z</time></trkpt><trkpt lat="45.48425892033367" lon="15.992455132181764"><ele>137.75</ele><time>2026-05-04T15:18:35Z</time></trkpt><trkpt lat="45.484401725236985" lon="15.992384576888995"><ele>138.5</ele><time>2026-05-04T15:18:36Z</time></trkpt><trkpt lat="45.48454135799277" lon="15.992318496412196"><ele>139.25</ele><time>2026-05-04T15:18:37Z</time></trkpt><trkpt lat="45.48467364734254" lon="15.992248916325545"><ele>140.0</ele><time>2026-05-04T15:18:38Z</time></trkpt><trkpt lat="45.48480085993643" lon="15.992188706632254"><ele>140.5</ele><time>2026-05-04T15:18:39Z</time></trkpt><trkpt lat="45.48492558124822" lon="15.992129410508076"><ele>141.0</ele><time>2026-05-04T15:18:40Z</time></trkpt><trkpt lat="45.485037425621876" lon="15.992074509485207"><ele>141.5</ele><time>2026-05-04T15:18:41Z</time></trkpt><trkpt lat="45.48514421147311" lon="15.992018132658735"><ele>142.0</ele><time>2026-05-04T15:18:42Z</time></trkpt><trkpt lat="45.48524701984279" lon="15.99194621545233"><ele>142.0</ele><time>2026-05-04T15:18:43Z</time></trkpt><trkpt lat="45.48535026736198" lon="15.991853741486088"><ele>142.0</ele><time>2026-05-04T15:18:44Z</time></trkpt><trkpt lat="45.48544222515957" lon="15.991735691549563"><ele>142.0</ele><time>2026-05-04T15:18:45Z</time></trkpt><trkpt lat="45.48552502783818" lon="15.991606273738341"><ele>142.0</ele><time>2026-05-04T15:18:46Z</time></trkpt><trkpt lat="45.48559743745386" lon="15.99144935303848"><ele>142.5</ele><time>2026-05-04T15:18:47Z</time></trkpt><trkpt lat="45.485666288442665" lon="15.991273575061376"><ele>143.0</ele><time>2026-05-04T15:18:48Z</time></trkpt><trkpt lat="45.48573481952495" lon="15.991090591254025"><ele>143.5</ele><time>2026-05-04T15:18:49Z</time></trkpt><trkpt lat="45.48580263680118" lon="15.990905680385929"><ele>144.0</ele><time>2026-05-04T15:18:50Z</time></trkpt><trkpt lat="45.485871240444254" lon="15.990721111643708"><ele>144.33333333333334</ele><time>2026-05-04T15:18:51Z</time></trkpt><trkpt lat="45.48594044985817" lon="15.990512918342146"><ele>144.66666666666669</ele><time>2026-05-04T15:18:52Z</time></trkpt><trkpt lat="45.48601675940459" lon="15.990285252770674"><ele>145.0</ele><time>2026-05-04T15:18:53Z</time></trkpt><trkpt lat="45.4860956745326" lon="15.990032221260954"><ele>145.33333333333334</ele><time>2026-05-04T15:18:54Z</time></trkpt><trkpt lat="45.48616559320227" lon="15.989786744867727"><ele>145.66666666666666</ele><time>2026-05-04T15:18:55Z</time></trkpt><trkpt lat="45.48622650191401" lon="15.989555368002994"><ele>146.0</ele><time>2026-05-04T15:18:56Z</time></trkpt><trkpt lat="45.48628809531582" lon="15.989330296703518"><ele>145.0</ele><time>2026-05-04T15:18:57Z</time></trkpt><trkpt lat="45.48634378326083" lon="15.989107004212215"><ele>144.0</ele><time>2026-05-04T15:18:58Z</time></trkpt><trkpt lat="45.486404803853574" lon="15.988898084941543"><ele>143.0</ele><time>2026-05-04T15:18:59Z</time></trkpt><trkpt lat="45.48649778506359" lon="15.98871588849239"><ele>143.0</ele><time>2026-05-04T15:19:00Z</time></trkpt><trkpt lat="45.48664459212055" lon="15.988587430633922"><ele>143.0</ele><time>2026-05-04T15:19:01Z</time></trkpt><trkpt lat="45.486814652140616" lon="15.988506697045526"><ele>143.0</ele><time>2026-05-04T15:19:02Z</time></trkpt><trkpt lat="45.48697632117893" lon="15.98842476689711"><ele>142.0</ele><time>2026-05-04T15:19:03Z</time></trkpt><trkpt lat="45.48710478356856" lon="15.988313044831694"><ele>141.0</ele><time>2026-05-04T15:19:04Z</time></trkpt><trkpt lat="45.487215288540575" lon="15.988170009266321"><ele>140.0</ele><time>2026-05-04T15:19:05Z</time></trkpt><trkpt lat="45.48732132500827" lon="15.988002729903352"><ele>140.0</ele><time>2026-05-04T15:19:06Z</time></trkpt><trkpt lat="45.4874183242037" lon="15.987813443441663"><ele>140.0</ele><time>2026-05-04T15:19:07Z</time></trkpt><trkpt lat="45.48751115370039" lon="15.98759514537299"><ele>140.0</ele><time>2026-05-04T15:19:08Z</time></trkpt><trkpt lat="45.4875949304529" lon="15.987333104482776"><ele>140.33333333333331</ele><time>2026-05-04T15:19:09Z</time></trkpt><trkpt lat="45.48766495637911" lon="15.987067778696742"><ele>140.66666666666666</ele><time>2026-05-04T15:19:10Z</time></trkpt><trkpt lat="45.48776128816115" lon="15.98682296552673"><ele>141.0</ele><time>2026-05-04T15:19:11Z</time></trkpt><trkpt lat="45.48789469180481" lon="15.986656730863439"><ele>140.75</ele><time>2026-05-04T15:19:12Z</time></trkpt><trkpt lat="45.4880443258739" lon="15.986549260660336"><ele>140.5</ele><time>2026-05-04T15:19:13Z</time></trkpt><trkpt lat="45.48818481052725" lon="15.986530670324658"><ele>140.25</ele><time>2026-05-04T15:19:14Z</time></trkpt><trkpt lat="45.488309459621846" lon="15.986591524802582"><ele>140.0</ele><time>2026-05-04T15:19:15Z</time></trkpt><trkpt lat="45.488403730304384" lon="15.98670331783805"><ele>140.0</ele><time>2026-05-04T15:19:16Z</time></trkpt><trkpt lat="45.48849167185563" lon="15.986832951989843"><ele>140.0</ele><time>2026-05-04T15:19:17Z</time></trkpt><trkpt lat="45.488622210864165" lon="15.98695531313567"><ele>140.0</ele><time>2026-05-04T15:19:18Z</time></trkpt><trkpt lat="45.48879441949817" lon="15.987088294398468"><ele>142.0</ele><time>2026-05-04T15:19:19Z</time></trkpt><trkpt lat="45.48899531497708" lon="15.987225936737355"><ele>144.0</ele><time>2026-05-04T15:19:20Z</time></trkpt><trkpt lat="45.48923054907426" lon="15.987354719575869"><ele>144.0</ele><time>2026-05-04T15:19:21Z</time></trkpt><trkpt lat="45.48947460797001" lon="15.98746731072542"><ele>144.0</ele><time>2026-05-04T15:19:22Z</time></trkpt><trkpt lat="45.489704926727086" lon="15.987576047270293"><ele>146.5</ele><time>2026-05-04T15:19:23Z</time></trkpt><trkpt lat="45.489908570559294" lon="15.987725825539538"><ele>149.0</ele><time>2026-05-04T15:19:24Z</time></trkpt><trkpt lat="45.49007675485812" lon="15.987955324731281"><ele>149.0</ele><time>2026-05-04T15:19:25Z</time></trkpt><trkpt lat="45.49022084332691" lon="15.98823986830765"><ele>149.0</ele><time>2026-05-04T15:19:26Z</time></trkpt><trkpt lat="45.490386529054945" lon="15.98850669377176"><ele>150.66666666666666</ele><time>2026-05-04T15:19:27Z</time></trkpt><trkpt lat="45.4905687734768" lon="15.988707641802872"><ele>152.33333333333334</ele><time>2026-05-04T15:19:28Z</time></trkpt><trkpt lat="45.49074618971759" lon="15.988859305186024"><ele>154.0</ele><time>2026-05-04T15:19:29Z</time></trkpt><trkpt lat="45.490928274243274" lon="15.988956835234267"><ele>154.0</ele><time>2026-05-04T15:19:30Z</time></trkpt><trkpt lat="45.49113454817251" lon="15.988993424793943"><ele>154.0</ele><time>2026-05-04T15:19:31Z</time></trkpt><trkpt lat="45.49136204686679" lon="15.988962718209613"><ele>154.0</ele><time>2026-05-04T15:19:32Z</time></trkpt><trkpt lat="45.491611264206675" lon="15.98886988786195"><ele>153.5</ele><time>2026-05-04T15:19:33Z</time></trkpt><trkpt lat="45.49188250756978" lon="15.988752809388165"><ele>153.0</ele><time>2026-05-04T15:19:34Z</time></trkpt><trkpt lat="45.49216391778031" lon="15.988630437778541"><ele>153.5</ele><time>2026-05-04T15:19:35Z</time></trkpt><trkpt lat="45.49244816758745" lon="15.98849630333445"><ele>154.0</ele><time>2026-05-04T15:19:36Z</time></trkpt><trkpt lat="45.492741423328205" lon="15.988335097290733"><ele>155.0</ele><time>2026-05-04T15:19:37Z</time></trkpt><trkpt lat="45.49303382608536" lon="15.98815172619396"><ele>156.0</ele><time>2026-05-04T15:19:38Z</time></trkpt><trkpt lat="45.49331826349628" lon="15.987969722271178"><ele>156.0</ele><time>2026-05-04T15:19:39Z</time></trkpt><trkpt lat="45.49357922257225" lon="15.987799579417295"><ele>156.0</ele><time>2026-05-04T15:19:40Z</time></trkpt><trkpt lat="45.49382482625323" lon="15.987641307566529"><ele>154.0</ele><time>2026-05-04T15:19:41Z</time></trkpt><trkpt lat="45.49405945143957" lon="15.987505426240434"><ele>152.0</ele><time>2026-05-04T15:19:42Z</time></trkpt><trkpt lat="45.49427738216075" lon="15.987377123981162"><ele>152.0</ele><time>2026-05-04T15:19:43Z</time></trkpt><trkpt lat="45.494498450836765" lon="15.987237627802397"><ele>152.0</ele><time>2026-05-04T15:19:44Z</time></trkpt><trkpt lat="45.49471598536502" lon="15.987085140035113"><ele>153.5</ele><time>2026-05-04T15:19:45Z</time></trkpt><trkpt lat="45.49492032679538" lon="15.986902496500988"><ele>155.0</ele><time>2026-05-04T15:19:46Z</time></trkpt><trkpt lat="45.49509384127024" lon="15.986661926296069"><ele>156.0</ele><time>2026-05-04T15:19:47Z</time></trkpt><trkpt lat="45.495236204236974" lon="15.986373753905493"><ele>157.0</ele><time>2026-05-04T15:19:48Z</time></trkpt><trkpt lat="45.49534224703279" lon="15.986061454297634"><ele>157.66666666666669</ele><time>2026-05-04T15:19:49Z</time></trkpt><trkpt lat="45.49542179631192" lon="15.98578218134695"><ele>158.33333333333334</ele><time>2026-05-04T15:19:50Z</time></trkpt><trkpt lat="45.49549872405537" lon="15.98550750573518"><ele>159.0</ele><time>2026-05-04T15:19:51Z</time></trkpt><trkpt lat="45.495590576635394" lon="15.985237958804305"><ele>159.33333333333334</ele><time>2026-05-04T15:19:52Z</time></trkpt><trkpt lat="45.495710259776416" lon="15.984976179402214"><ele>159.66666666666669</ele><time>2026-05-04T15:19:53Z</time></trkpt><trkpt lat="45.49584006447083" lon="15.984715335460137"><ele>160.0</ele><time>2026-05-04T15:19:54Z</time></trkpt><trkpt lat="45.49596631913045" lon="15.984433670844258"><ele>159.5</ele><time>2026-05-04T15:19:55Z</time></trkpt><trkpt lat="45.49608864389779" lon="15.984112988995925"><ele>159.0</ele><time>2026-05-04T15:19:56Z</time></trkpt><trkpt lat="45.49620685001262" lon="15.98376780995298"><ele>158.0</ele><time>2026-05-04T15:19:57Z</time></trkpt><trkpt lat="45.496330238896924" lon="15.983406406653819"><ele>157.0</ele><time>2026-05-04T15:19:58Z</time></trkpt><trkpt lat="45.49646118245025" lon="15.983048282689868"><ele>157.0</ele><time>2026-05-04T15:19:59Z</time></trkpt><trkpt lat="45.49662494209859" lon="15.982701567254447"><ele>157.0</ele><time>2026-05-04T15:20:00Z</time></trkpt><trkpt lat="45.49684681495734" lon="15.982410869733085"><ele>157.0</ele><time>2026-05-04T15:20:01Z</time></trkpt><trkpt lat="45.49708556057137" lon="15.982129352406977"><ele>157.0</ele><time>2026-05-04T15:20:02Z</time></trkpt><trkpt lat="45.49732810168035" lon="15.981825820282534"><ele>160.5</ele><time>2026-05-04T15:20:03Z</time></trkpt><trkpt lat="45.49757570021491" lon="15.981498460377198"><ele>164.0</ele><time>2026-05-04T15:20:04Z</time></trkpt><trkpt lat="45.4978100530559" lon="15.981224057104201"><ele>166.0</ele><time>2026-05-04T15:20:05Z</time></trkpt><trkpt lat="45.49802926482882" lon="15.980988032574853"><ele>168.0</ele><time>2026-05-04T15:20:06Z</time></trkpt><trkpt lat="45.49823473734778" lon="15.980785904692487"><ele>168.33333333333334</ele><time>2026-05-04T15:20:07Z</time></trkpt><trkpt lat="45.49842620833258" lon="15.980603782953132"><ele>168.66666666666669</ele><time>2026-05-04T15:20:08Z</time></trkpt><trkpt lat="45.49859243406311" lon="15.980453862970942"><ele>169.0</ele><time>2026-05-04T15:20:09Z</time></trkpt><trkpt lat="45.49873650064447" lon="15.980332383928259"><ele>169.79999999999998</ele><time>2026-05-04T15:20:10Z</time></trkpt><trkpt lat="45.498850911624004" lon="15.980237530962404"><ele>170.6</ele><time>2026-05-04T15:20:11Z</time></trkpt><trkpt lat="45.49894216345121" lon="15.980156645952853"><ele>171.4</ele><time>2026-05-04T15:20:12Z</time></trkpt><trkpt lat="45.49902015872235" lon="15.980094305486935"><ele>172.2</ele><time>2026-05-04T15:20:13Z</time></trkpt><trkpt lat="45.499088929471085" lon="15.980057612501202"><ele>173.0</ele><time>2026-05-04T15:20:14Z</time></trkpt><trkpt lat="45.49915408529622" lon="15.980012347723509"><ele>174.0</ele><time>2026-05-04T15:20:15Z</time></trkpt><trkpt lat="45.499215331217485" lon="15.979918315243278"><ele>175.0</ele><time>2026-05-04T15:20:16Z</time></trkpt><trkpt lat="45.49928804689278" lon="15.979799151454047"><ele>176.0</ele><time>2026-05-04T15:20:17Z</time></trkpt><trkpt lat="45.49940934185823" lon="15.979676996557494"><ele>177.0</ele><time>2026-05-04T15:20:18Z</time></trkpt><trkpt lat="45.499567273086285" lon="15.979549636205716"><ele>176.66666666666666</ele><time>2026-05-04T15:20:19Z</time></trkpt><trkpt lat="45.49973291664176" lon="15.979404615765375"><ele>176.33333333333331</ele><time>2026-05-04T15:20:20Z</time></trkpt><trkpt lat="45.499859764438455" lon="15.979221650677065"><ele>176.0</ele><time>2026-05-04T15:20:21Z</time></trkpt><trkpt lat="45.499928002786824" lon="15.979023081233889"><ele>176.0</ele><time>2026-05-04T15:20:22Z</time></trkpt><trkpt lat="45.4999362983277" lon="15.978778468702595"><ele>176.0</ele><time>2026-05-04T15:20:23Z</time></trkpt><trkpt lat="45.499912797626635" lon="15.97848694471923"><ele>176.0</ele><time>2026-05-04T15:20:24Z</time></trkpt><trkpt lat="45.499895445925475" lon="15.978135752501753"><ele>175.5</ele><time>2026-05-04T15:20:25Z</time></trkpt><trkpt lat="45.49989989639391" lon="15.977756472333928"><ele>175.0</ele><time>2026-05-04T15:20:26Z</time></trkpt><trkpt lat="45.49989617469035" lon="15.977337932054361"><ele>175.0</ele><time>2026-05-04T15:20:27Z</time></trkpt><trkpt lat="45.499861964990565" lon="15.9769026441257"><ele>175.0</ele><time>2026-05-04T15:20:28Z</time></trkpt><trkpt lat="45.49980706294271" lon="15.976470839393032"><ele>175.0</ele><time>2026-05-04T15:20:29Z</time></trkpt><trkpt lat="45.499743787278874" lon="15.976054920405026"><ele>175.0</ele><time>2026-05-04T15:20:30Z</time></trkpt><trkpt lat="45.49967559015682" lon="15.975675778182095"><ele>175.0</ele><time>2026-05-04T15:20:31Z</time></trkpt><trkpt lat="45.499602185452225" lon="15.97529920833468"><ele>175.0</ele><time>2026-05-04T15:20:32Z</time></trkpt><trkpt lat="45.4995130728984" lon="15.974928216002436"><ele>175.0</ele><time>2026-05-04T15:20:33Z</time></trkpt><trkpt lat="45.49940530401338" lon="15.974570301365956"><ele>175.0</ele><time>2026-05-04T15:20:34Z</time></trkpt><trkpt lat="45.499285036935504" lon="15.974256206493926"><ele>175.66666666666669</ele><time>2026-05-04T15:20:35Z</time></trkpt><trkpt lat="45.499168771804875" lon="15.973970387758271"><ele>176.33333333333334</ele><time>2026-05-04T15:20:36Z</time></trkpt><trkpt lat="45.499059969048844" lon="15.973708650618315"><ele>177.0</ele><time>2026-05-04T15:20:37Z</time></trkpt><trkpt lat="45.498961837616484" lon="15.973459829260179"><ele>176.0</ele><time>2026-05-04T15:20:38Z</time></trkpt><trkpt lat="45.49890342837261" lon="15.97319491841612"><ele>175.0</ele><time>2026-05-04T15:20:39Z</time></trkpt><trkpt lat="45.498877629236475" lon="15.972871949695168"><ele>174.0</ele><time>2026-05-04T15:20:40Z</time></trkpt><trkpt lat="45.49885041044672" lon="15.972538437802163"><ele>173.0</ele><time>2026-05-04T15:20:41Z</time></trkpt><trkpt lat="45.49880899526833" lon="15.972205824401163"><ele>172.0</ele><time>2026-05-04T15:20:42Z</time></trkpt><trkpt lat="45.49876657667237" lon="15.971882085531997"><ele>172.0</ele><time>2026-05-04T15:20:43Z</time></trkpt><trkpt lat="45.498750981416904" lon="15.971566059872595"><ele>172.0</ele><time>2026-05-04T15:20:44Z</time></trkpt><trkpt lat="45.49876744890636" lon="15.971260189866701"><ele>172.0</ele><time>2026-05-04T15:20:45Z</time></trkpt><trkpt lat="45.49879032992175" lon="15.970980431400033"><ele>172.66666666666669</ele><time>2026-05-04T15:20:46Z</time></trkpt><trkpt lat="45.49880898297152" lon="15.97070904410187"><ele>173.33333333333334</ele><time>2026-05-04T15:20:47Z</time></trkpt><trkpt lat="45.49883009758657" lon="15.970437988715663"><ele>174.0</ele><time>2026-05-04T15:20:48Z</time></trkpt><trkpt lat="45.498859961251334" lon="15.970159555158277"><ele>175.0</ele><time>2026-05-04T15:20:49Z</time></trkpt><trkpt lat="45.49889542558114" lon="15.96987248596425"><ele>176.0</ele><time>2026-05-04T15:20:50Z</time></trkpt><trkpt lat="45.49892850364725" lon="15.969581055894679"><ele>177.0</ele><time>2026-05-04T15:20:51Z</time></trkpt><trkpt lat="45.49894469381261" lon="15.969287012244555"><ele>176.0</ele><time>2026-05-04T15:20:52Z</time></trkpt><trkpt lat="45.498946412684305" lon="15.968995391237812"><ele>175.0</ele><time>2026-05-04T15:20:53Z</time></trkpt><trkpt lat="45.49894415713322" lon="15.968721129838256"><ele>174.0</ele><time>2026-05-04T15:20:54Z</time></trkpt><trkpt lat="45.4989492773276" lon="15.968464144620722"><ele>173.66666666666666</ele><time>2026-05-04T15:20:55Z</time></trkpt><trkpt lat="45.49897695808917" lon="15.968224689652056"><ele>173.33333333333331</ele><time>2026-05-04T15:20:56Z</time></trkpt><trkpt lat="45.49903191130882" lon="15.967987896944445"><ele>173.0</ele><time>2026-05-04T15:20:57Z</time></trkpt><trkpt lat="45.499106162427125" lon="15.967744576114779"><ele>172.66666666666666</ele><time>2026-05-04T15:20:58Z</time></trkpt><trkpt lat="45.49919064437394" lon="15.967501260974641"><ele>172.33333333333334</ele><time>2026-05-04T15:20:59Z</time></trkpt><trkpt lat="45.49928651025709" lon="15.967243620024007"><ele>172.0</ele><time>2026-05-04T15:21:00Z</time></trkpt><trkpt lat="45.499387127865845" lon="15.966963923168159"><ele>170.5</ele><time>2026-05-04T15:21:01Z</time></trkpt><trkpt lat="45.499497142749505" lon="15.966659778260803"><ele>169.0</ele><time>2026-05-04T15:21:02Z</time></trkpt><trkpt lat="45.49961655116405" lon="15.9663585527439"><ele>169.0</ele><time>2026-05-04T15:21:03Z</time></trkpt><trkpt lat="45.499735356291275" lon="15.96607842515224"><ele>169.0</ele><time>2026-05-04T15:21:04Z</time></trkpt><trkpt lat="45.4998476958346" lon="15.96582049742875"><ele>169.0</ele><time>2026-05-04T15:21:05Z</time></trkpt><trkpt lat="45.49996926615651" lon="15.965592088185511"><ele>168.66666666666669</ele><time>2026-05-04T15:21:06Z</time></trkpt><trkpt lat="45.500128388844196" lon="15.965421110816296"><ele>168.33333333333334</ele><time>2026-05-04T15:21:07Z</time></trkpt><trkpt lat="45.50033158204436" lon="15.96531416620979"><ele>168.0</ele><time>2026-05-04T15:21:08Z</time></trkpt><trkpt lat="45.50053361208295" lon="15.96523842324349"><ele>168.0</ele><time>2026-05-04T15:21:09Z</time></trkpt><trkpt lat="45.50071388144166" lon="15.965092634179134"><ele>168.0</ele><time>2026-05-04T15:21:10Z</time></trkpt><trkpt lat="45.500875689776876" lon="15.96486026149474"><ele>168.0</ele><time>2026-05-04T15:21:11Z</time></trkpt><trkpt lat="45.501024738025386" lon="15.964562113833539"><ele>168.0</ele><time>2026-05-04T15:21:12Z</time></trkpt><trkpt lat="45.501150515659226" lon="15.964231612751481"><ele>168.0</ele><time>2026-05-04T15:21:13Z</time></trkpt><trkpt lat="45.50124275944314" lon="15.963899122232927"><ele>167.33333333333334</ele><time>2026-05-04T15:21:14Z</time></trkpt><trkpt lat="45.50132138999901" lon="15.963612886938535"><ele>166.66666666666669</ele><time>2026-05-04T15:21:15Z</time></trkpt><trkpt lat="45.50140334902877" lon="15.963348752529523"><ele>166.0</ele><time>2026-05-04T15:21:16Z</time></trkpt><trkpt lat="45.501472111781204" lon="15.963092101055976"><ele>166.0</ele><time>2026-05-04T15:21:17Z</time></trkpt><trkpt lat="45.50153007126787" lon="15.962796283690125"><ele>166.0</ele><time>2026-05-04T15:21:18Z</time></trkpt><trkpt lat="45.50156993012735" lon="15.962458105405696"><ele>166.0</ele><time>2026-05-04T15:21:19Z</time></trkpt><trkpt lat="45.501598415623576" lon="15.96211158916581"><ele>166.0</ele><time>2026-05-04T15:21:20Z</time></trkpt><trkpt lat="45.50160194635367" lon="15.961740343994759"><ele>166.0</ele><time>2026-05-04T15:21:21Z</time></trkpt><trkpt lat="45.50157396580774" lon="15.961357293840875"><ele>166.0</ele><time>2026-05-04T15:21:22Z</time></trkpt><trkpt lat="45.50152572764436" lon="15.960991658014601"><ele>167.5</ele><time>2026-05-04T15:21:23Z</time></trkpt><trkpt lat="45.50147649036287" lon="15.96065205448873"><ele>169.0</ele><time>2026-05-04T15:21:24Z</time></trkpt><trkpt lat="45.501449209249834" lon="15.960333009280768"><ele>169.5</ele><time>2026-05-04T15:21:25Z</time></trkpt><trkpt lat="45.50144074612587" lon="15.960015399352995"><ele>170.0</ele><time>2026-05-04T15:21:26Z</time></trkpt><trkpt lat="45.50144135582384" lon="15.959687924904376"><ele>170.0</ele><time>2026-05-04T15:21:27Z</time></trkpt><trkpt lat="45.50145549637329" lon="15.959345982394497"><ele>170.0</ele><time>2026-05-04T15:21:28Z</time></trkpt><trkpt lat="45.501492740122316" lon="15.959006049971823"><ele>170.0</ele><time>2026-05-04T15:21:29Z</time></trkpt><trkpt lat="45.50155515935709" lon="15.958662826408975"><ele>170.0</ele><time>2026-05-04T15:21:30Z</time></trkpt><trkpt lat="45.50160581219525" lon="15.958292031385362"><ele>170.5</ele><time>2026-05-04T15:21:31Z</time></trkpt><trkpt lat="45.50164103152966" lon="15.957906469170865"><ele>171.0</ele><time>2026-05-04T15:21:32Z</time></trkpt><trkpt lat="45.501691407173126" lon="15.957528735484564"><ele>170.0</ele><time>2026-05-04T15:21:33Z</time></trkpt><trkpt lat="45.5017726900985" lon="15.95716729338076"><ele>169.0</ele><time>2026-05-04T15:21:34Z</time></trkpt><trkpt lat="45.50186727993461" lon="15.956845050817963"><ele>168.66666666666669</ele><time>2026-05-04T15:21:35Z</time></trkpt><trkpt lat="45.50196431991991" lon="15.956551608930518"><ele>168.33333333333334</ele><time>2026-05-04T15:21:36Z</time></trkpt><trkpt lat="45.50207376287169" lon="15.956283711589498"><ele>168.0</ele><time>2026-05-04T15:21:37Z</time></trkpt><trkpt lat="45.5021910726879" lon="15.956050011071559"><ele>167.33333333333334</ele><time>2026-05-04T15:21:38Z</time></trkpt><trkpt lat="45.50231607612823" lon="15.955843220232985"><ele>166.66666666666669</ele><time>2026-05-04T15:21:39Z</time></trkpt><trkpt lat="45.50245348505996" lon="15.955660837843286"><ele>166.0</ele><time>2026-05-04T15:21:40Z</time></trkpt><trkpt lat="45.502618420772805" lon="15.955525111152246"><ele>166.0</ele><time>2026-05-04T15:21:41Z</time></trkpt><trkpt lat="45.50279989041492" lon="15.955462023505474"><ele>166.0</ele><time>2026-05-04T15:21:42Z</time></trkpt><trkpt lat="45.50297989687635" lon="15.955500001265888"><ele>166.0</ele><time>2026-05-04T15:21:43Z</time></trkpt><trkpt lat="45.503162680557146" lon="15.955561816105838"><ele>165.66666666666669</ele><time>2026-05-04T15:21:44Z</time></trkpt><trkpt lat="45.50336599024878" lon="15.955550992546135"><ele>165.33333333333334</ele><time>2026-05-04T15:21:45Z</time></trkpt><trkpt lat="45.503576972248716" lon="15.955444713442319"><ele>165.0</ele><time>2026-05-04T15:21:46Z</time></trkpt><trkpt lat="45.50379611888283" lon="15.955285772430509"><ele>162.0</ele><time>2026-05-04T15:21:47Z</time></trkpt><trkpt lat="45.504031674425214" lon="15.95516703359954"><ele>159.0</ele><time>2026-05-04T15:21:48Z</time></trkpt><trkpt lat="45.50427745718088" lon="15.955105573409154"><ele>159.0</ele><time>2026-05-04T15:21:49Z</time></trkpt><trkpt lat="45.50451304963021" lon="15.954989519490308"><ele>159.0</ele><time>2026-05-04T15:21:50Z</time></trkpt><trkpt lat="45.504740349916716" lon="15.954784370200873"><ele>159.5</ele><time>2026-05-04T15:21:51Z</time></trkpt><trkpt lat="45.504977209840845" lon="15.954528093897185"><ele>160.0</ele><time>2026-05-04T15:21:52Z</time></trkpt><trkpt lat="45.505225936686315" lon="15.954247445945514"><ele>159.0</ele><time>2026-05-04T15:21:53Z</time></trkpt><trkpt lat="45.50546382211833" lon="15.9539921152462"><ele>158.0</ele><time>2026-05-04T15:21:54Z</time></trkpt><trkpt lat="45.505709989978456" lon="15.953760219951505"><ele>158.0</ele><time>2026-05-04T15:21:55Z</time></trkpt><trkpt lat="45.50596172998723" lon="15.953508334207696"><ele>158.0</ele><time>2026-05-04T15:21:56Z</time></trkpt><trkpt lat="45.50621715802165" lon="15.953188361500183"><ele>155.0</ele><time>2026-05-04T15:21:57Z</time></trkpt><trkpt lat="45.50645802014889" lon="15.952820080707017"><ele>152.0</ele><time>2026-05-04T15:21:58Z</time></trkpt><trkpt lat="45.50668340237401" lon="15.95246102503437"><ele>150.5</ele><time>2026-05-04T15:21:59Z</time></trkpt><trkpt lat="45.50690069378822" lon="15.952132861958757"><ele>149.0</ele><time>2026-05-04T15:22:00Z</time></trkpt><trkpt lat="45.507102859492676" lon="15.951826789518847"><ele>145.5</ele><time>2026-05-04T15:22:01Z</time></trkpt><trkpt lat="45.50729001255939" lon="15.95153765784191"><ele>142.0</ele><time>2026-05-04T15:22:02Z</time></trkpt><trkpt lat="45.50745821372705" lon="15.95123398333445"><ele>142.0</ele><time>2026-05-04T15:22:03Z</time></trkpt><trkpt lat="45.507605244169426" lon="15.950895111745066"><ele>142.0</ele><time>2026-05-04T15:22:04Z</time></trkpt><trkpt lat="45.507735643838146" lon="15.95049655170161"><ele>143.0</ele><time>2026-05-04T15:22:05Z</time></trkpt><trkpt lat="45.50786078804508" lon="15.950051306264973"><ele>144.0</ele><time>2026-05-04T15:22:06Z</time></trkpt><trkpt lat="45.507986569352255" lon="15.949593472860288"><ele>144.0</ele><time>2026-05-04T15:22:07Z</time></trkpt><trkpt lat="45.50810547628768" lon="15.949171937684396"><ele>144.0</ele><time>2026-05-04T15:22:08Z</time></trkpt><trkpt lat="45.50820968622979" lon="15.948800100730384"><ele>144.0</ele><time>2026-05-04T15:22:09Z</time></trkpt><trkpt lat="45.50831727790097" lon="15.948453198233018"><ele>144.0</ele><time>2026-05-04T15:22:10Z</time></trkpt><trkpt lat="45.508426289711004" lon="15.94811872905317"><ele>145.5</ele><time>2026-05-04T15:22:11Z</time></trkpt><trkpt lat="45.50854850988596" lon="15.94777832214443"><ele>147.0</ele><time>2026-05-04T15:22:12Z</time></trkpt><trkpt lat="45.5086961414727" lon="15.9474491905256"><ele>145.5</ele><time>2026-05-04T15:22:13Z</time></trkpt><trkpt lat="45.508877298101" lon="15.947159991873214"><ele>144.0</ele><time>2026-05-04T15:22:14Z</time></trkpt><trkpt lat="45.509090262419775" lon="15.946945244747372"><ele>144.0</ele><time>2026-05-04T15:22:15Z</time></trkpt><trkpt lat="45.509300918118285" lon="15.946793501408038"><ele>144.0</ele><time>2026-05-04T15:22:16Z</time></trkpt><trkpt lat="45.50948182315387" lon="15.946612314656317"><ele>144.0</ele><time>2026-05-04T15:22:17Z</time></trkpt><trkpt lat="45.509635963194356" lon="15.946341368585196"><ele>144.0</ele><time>2026-05-04T15:22:18Z</time></trkpt><trkpt lat="45.50978138801562" lon="15.946044461212114"><ele>145.5</ele><time>2026-05-04T15:22:19Z</time></trkpt><trkpt lat="45.50992743055339" lon="15.945748587786765"><ele>147.0</ele><time>2026-05-04T15:22:20Z</time></trkpt><trkpt lat="45.51006036622812" lon="15.945435056933633"><ele>147.0</ele><time>2026-05-04T15:22:21Z</time></trkpt><trkpt lat="45.5101799522345" lon="15.945086307195735"><ele>147.0</ele><time>2026-05-04T15:22:22Z</time></trkpt><trkpt lat="45.51028393921093" lon="15.944702167367476"><ele>146.5</ele><time>2026-05-04T15:22:23Z</time></trkpt><trkpt lat="45.51037637428154" lon="15.944312845984378"><ele>146.0</ele><time>2026-05-04T15:22:24Z</time></trkpt><trkpt lat="45.510488067538695" lon="15.943940771566144"><ele>146.0</ele><time>2026-05-04T15:22:25Z</time></trkpt><trkpt lat="45.51064315991038" lon="15.94360592074933"><ele>146.0</ele><time>2026-05-04T15:22:26Z</time></trkpt><trkpt lat="45.510837230502645" lon="15.943308377189688"><ele>146.0</ele><time>2026-05-04T15:22:27Z</time></trkpt><trkpt lat="45.51102628522827" lon="15.94301666671457"><ele>146.0</ele><time>2026-05-04T15:22:28Z</time></trkpt><trkpt lat="45.51119902305809" lon="15.94273819146492"><ele>145.5</ele><time>2026-05-04T15:22:29Z</time></trkpt><trkpt lat="45.51134910551701" lon="15.942480003829782"><ele>145.0</ele><time>2026-05-04T15:22:30Z</time></trkpt><trkpt lat="45.51145857474425" lon="15.94219944642979"><ele>145.0</ele><time>2026-05-04T15:22:31Z</time></trkpt><trkpt lat="45.51151048361991" lon="15.94188335312857"><ele>145.0</ele><time>2026-05-04T15:22:32Z</time></trkpt><trkpt lat="45.51154173449829" lon="15.941591462512351"><ele>145.0</ele><time>2026-05-04T15:22:33Z</time></trkpt><trkpt lat="45.5115982858685" lon="15.941337441503766"><ele>145.66666666666669</ele><time>2026-05-04T15:22:34Z</time></trkpt><trkpt lat="45.5117139109757" lon="15.941163552543669"><ele>146.33333333333334</ele><time>2026-05-04T15:22:35Z</time></trkpt><trkpt lat="45.511867092048035" lon="15.941079368096544"><ele>147.0</ele><time>2026-05-04T15:22:36Z</time></trkpt><trkpt lat="45.51203768573775" lon="15.941046651355569"><ele>147.0</ele><time>2026-05-04T15:22:37Z</time></trkpt><trkpt lat="45.512208367771386" lon="15.94102309081121"><ele>147.0</ele><time>2026-05-04T15:22:38Z</time></trkpt><trkpt lat="45.51238333174345" lon="15.940976979829205"><ele>147.0</ele><time>2026-05-04T15:22:39Z</time></trkpt><trkpt lat="45.512536861831876" lon="15.940867050120179"><ele>149.0</ele><time>2026-05-04T15:22:40Z</time></trkpt><trkpt lat="45.512668654666115" lon="15.94068320267316"><ele>151.0</ele><time>2026-05-04T15:22:41Z</time></trkpt><trkpt lat="45.512775805643" lon="15.940460863700508"><ele>153.0</ele><time>2026-05-04T15:22:42Z</time></trkpt><trkpt lat="45.51285696774423" lon="15.940202711930546"><ele>150.5</ele><time>2026-05-04T15:22:43Z</time></trkpt><trkpt lat="45.5129081905861" lon="15.939891184115064"><ele>148.0</ele><time>2026-05-04T15:22:44Z</time></trkpt><trkpt lat="45.51292594294225" lon="15.939555673011105"><ele>149.0</ele><time>2026-05-04T15:22:45Z</time></trkpt><trkpt lat="45.51290489931446" lon="15.939216703989173"><ele>150.0</ele><time>2026-05-04T15:22:46Z</time></trkpt><trkpt lat="45.512859685616284" lon="15.938882109050681"><ele>150.0</ele><time>2026-05-04T15:22:47Z</time></trkpt><trkpt lat="45.51281125989762" lon="15.938556466934472"><ele>150.0</ele><time>2026-05-04T15:22:48Z</time></trkpt><trkpt lat="45.5127658746434" lon="15.938261996292706"><ele>150.0</ele><time>2026-05-04T15:22:49Z</time></trkpt><trkpt lat="45.512730921573684" lon="15.937982654931384"><ele>150.0</ele><time>2026-05-04T15:22:50Z</time></trkpt><trkpt lat="45.512718417875234" lon="15.937716104827278"><ele>150.0</ele><time>2026-05-04T15:22:51Z</time></trkpt><trkpt lat="45.5127472123053" lon="15.937463026382572"><ele>150.0</ele><time>2026-05-04T15:22:52Z</time></trkpt><trkpt lat="45.51281356209681" lon="15.93726192302397"><ele>149.66666666666666</ele><time>2026-05-04T15:22:53Z</time></trkpt><trkpt lat="45.512922715845086" lon="15.937105322452144"><ele>149.33333333333331</ele><time>2026-05-04T15:22:54Z</time></trkpt><trkpt lat="45.513069534994514" lon="15.9369665929752"><ele>149.0</ele><time>2026-05-04T15:22:55Z</time></trkpt><trkpt lat="45.51322580502448" lon="15.936850937931633"><ele>149.0</ele><time>2026-05-04T15:22:56Z</time></trkpt><trkpt lat="45.51336865775544" lon="15.936749767220851"><ele>149.0</ele><time>2026-05-04T15:22:57Z</time></trkpt><trkpt lat="45.51349870408802" lon="15.936662097985678"><ele>149.0</ele><time>2026-05-04T15:22:58Z</time></trkpt><trkpt lat="45.51361895833557" lon="15.936605173032927"><ele>149.0</ele><time>2026-05-04T15:22:59Z</time></trkpt><trkpt lat="45.51373753582778" lon="15.936616719931884"><ele>148.0</ele><time>2026-05-04T15:23:00Z</time></trkpt><trkpt lat="45.51385449435567" lon="15.936695438050839"><ele>147.0</ele><time>2026-05-04T15:23:01Z</time></trkpt><trkpt lat="45.51399487664077" lon="15.936820909975529"><ele>146.0</ele><time>2026-05-04T15:23:02Z</time></trkpt><trkpt lat="45.51417433769684" lon="15.937007534291984"><ele>145.5</ele><time>2026-05-04T15:23:03Z</time></trkpt><trkpt lat="45.51437619938361" lon="15.937268352792033"><ele>145.0</ele><time>2026-05-04T15:23:04Z</time></trkpt><trkpt lat="45.5145894725179" lon="15.937596580695176"><ele>143.0</ele><time>2026-05-04T15:23:05Z</time></trkpt><trkpt lat="45.514785542341095" lon="15.937900990155368"><ele>141.0</ele><time>2026-05-04T15:23:06Z</time></trkpt><trkpt lat="45.514960486487716" lon="15.938155602940428"><ele>141.0</ele><time>2026-05-04T15:23:07Z</time></trkpt><trkpt lat="45.51512522122308" lon="15.93838095034763"><ele>141.0</ele><time>2026-05-04T15:23:08Z</time></trkpt><trkpt lat="45.51529136495586" lon="15.938578556978454"><ele>141.0</ele><time>2026-05-04T15:23:09Z</time></trkpt><trkpt lat="45.51547195649996" lon="15.938745099611003"><ele>138.66666666666666</ele><time>2026-05-04T15:23:10Z</time></trkpt><trkpt lat="45.51567473572763" lon="15.938883572175895"><ele>136.33333333333331</ele><time>2026-05-04T15:23:11Z</time></trkpt><trkpt lat="45.51587958821803" lon="15.938984891501988"><ele>134.0</ele><time>2026-05-04T15:23:12Z</time></trkpt><trkpt lat="45.51609285340698" lon="15.939035418606426"><ele>132.0</ele><time>2026-05-04T15:23:13Z</time></trkpt><trkpt lat="45.51629950615965" lon="15.93900952730669"><ele>130.0</ele><time>2026-05-04T15:23:14Z</time></trkpt><trkpt lat="45.5165019222093" lon="15.93892472729601"><ele>128.0</ele><time>2026-05-04T15:23:15Z</time></trkpt><trkpt lat="45.5166767802124" lon="15.938848527592924"><ele>128.0</ele><time>2026-05-04T15:23:16Z</time></trkpt><trkpt lat="45.5168195234552" lon="15.938757172357938"><ele>128.0</ele><time>2026-05-04T15:23:17Z</time></trkpt><trkpt lat="45.51693700877399" lon="15.93860810732073"><ele>128.0</ele><time>2026-05-04T15:23:18Z</time></trkpt><trkpt lat="45.51705118021517" lon="15.938390186028728"><ele>125.66666666666666</ele><time>2026-05-04T15:23:19Z</time></trkpt><trkpt lat="45.517166599023014" lon="15.938183293158069"><ele>123.33333333333334</ele><time>2026-05-04T15:23:20Z</time></trkpt><trkpt lat="45.51729169613952" lon="15.938064132508003"><ele>121.0</ele><time>2026-05-04T15:23:21Z</time></trkpt><trkpt lat="45.517416683169095" lon="15.938038921463443"><ele>121.0</ele><time>2026-05-04T15:23:22Z</time></trkpt><trkpt lat="45.517550328337975" lon="15.938059503581135"><ele>121.0</ele><time>2026-05-04T15:23:23Z</time></trkpt><trkpt lat="45.51772084401923" lon="15.938109547806087"><ele>121.0</ele><time>2026-05-04T15:23:24Z</time></trkpt><trkpt lat="45.51792539672031" lon="15.93815358242989"><ele>116.66666666666667</ele><time>2026-05-04T15:23:25Z</time></trkpt><trkpt lat="45.518134987632166" lon="15.938140088618166"><ele>112.33333333333334</ele><time>2026-05-04T15:23:26Z</time></trkpt><trkpt lat="45.51834308988469" lon="15.938089627506491"><ele>108.0</ele><time>2026-05-04T15:23:27Z</time></trkpt><trkpt lat="45.518535027347056" lon="15.938077168297056"><ele>108.0</ele><time>2026-05-04T15:23:28Z</time></trkpt><trkpt lat="45.518724967495" lon="15.938179081367476"><ele>108.0</ele><time>2026-05-04T15:23:29Z</time></trkpt><trkpt lat="45.51890958063143" lon="15.938359723371475"><ele>108.0</ele><time>2026-05-04T15:23:30Z</time></trkpt><trkpt lat="45.5190534775588" lon="15.938559116891332"><ele>108.66666666666666</ele><time>2026-05-04T15:23:31Z</time></trkpt><trkpt lat="45.51916034170469" lon="15.93880408913203"><ele>109.33333333333333</ele><time>2026-05-04T15:23:32Z</time></trkpt><trkpt lat="45.51920563392855" lon="15.939085376667013"><ele>110.0</ele><time>2026-05-04T15:23:33Z</time></trkpt><trkpt lat="45.519243784264646" lon="15.939320399465897"><ele>110.5</ele><time>2026-05-04T15:23:34Z</time></trkpt><trkpt lat="45.51931989915389" lon="15.939477634410252"><ele>111.0</ele><time>2026-05-04T15:23:35Z</time></trkpt><trkpt lat="45.519424436486005" lon="15.939571227701663"><ele>111.5</ele><time>2026-05-04T15:23:36Z</time></trkpt><trkpt lat="45.51955605688905" lon="15.939603971375742"><ele>112.0</ele><time>2026-05-04T15:23:37Z</time></trkpt><trkpt lat="45.5197118342368" lon="15.939578848684583"><ele>114.0</ele><time>2026-05-04T15:23:38Z</time></trkpt><trkpt lat="45.519898630722885" lon="15.939513109824086"><ele>116.0</ele><time>2026-05-04T15:23:39Z</time></trkpt><trkpt lat="45.520109684190054" lon="15.939443289524572"><ele>118.0</ele><time>2026-05-04T15:23:40Z</time></trkpt><trkpt lat="45.52031863669833" lon="15.939376466187712"><ele>119.66666666666667</ele><time>2026-05-04T15:23:41Z</time></trkpt><trkpt lat="45.52051927465046" lon="15.939306100152761"><ele>121.33333333333334</ele><time>2026-05-04T15:23:42Z</time></trkpt><trkpt lat="45.520729508424296" lon="15.939210041814333"><ele>123.0</ele><time>2026-05-04T15:23:43Z</time></trkpt><trkpt lat="45.52095568539815" lon="15.939094446685694"><ele>126.0</ele><time>2026-05-04T15:23:44Z</time></trkpt><trkpt lat="45.52119214617661" lon="15.938977965075292"><ele>129.0</ele><time>2026-05-04T15:23:45Z</time></trkpt><trkpt lat="45.521408899314125" lon="15.938859920507436"><ele>129.33333333333334</ele><time>2026-05-04T15:23:46Z</time></trkpt><trkpt lat="45.521592459629034" lon="15.938721852515833"><ele>129.66666666666669</ele><time>2026-05-04T15:23:47Z</time></trkpt><trkpt lat="45.52174472269422" lon="15.938554591662292"><ele>130.0</ele><time>2026-05-04T15:23:48Z</time></trkpt><trkpt lat="45.52187807921048" lon="15.938357465553729"><ele>130.33333333333334</ele><time>2026-05-04T15:23:49Z</time></trkpt><trkpt lat="45.521996502678505" lon="15.938174667199537"><ele>130.66666666666666</ele><time>2026-05-04T15:23:50Z</time></trkpt><trkpt lat="45.52212315141758" lon="15.938009831418414"><ele>131.0</ele><time>2026-05-04T15:23:51Z</time></trkpt><trkpt lat="45.5222783147583" lon="15.937860504810313"><ele>131.0</ele><time>2026-05-04T15:23:52Z</time></trkpt><trkpt lat="45.52246279604231" lon="15.937709892752597"><ele>131.0</ele><time>2026-05-04T15:23:53Z</time></trkpt><trkpt lat="45.52267913964962" lon="15.93754991912826"><ele>131.5</ele><time>2026-05-04T15:23:54Z</time></trkpt><trkpt lat="45.52293407829678" lon="15.937399973005952"><ele>132.0</ele><time>2026-05-04T15:23:55Z</time></trkpt><trkpt lat="45.52320746245942" lon="15.937254067416353"><ele>132.0</ele><time>2026-05-04T15:23:56Z</time></trkpt><trkpt lat="45.52347304755252" lon="15.937117752427495"><ele>132.0</ele><time>2026-05-04T15:23:57Z</time></trkpt><trkpt lat="45.523730957698525" lon="15.936977196907375"><ele>134.5</ele><time>2026-05-04T15:23:58Z</time></trkpt><trkpt lat="45.52396594749368" lon="15.936832060671755"><ele>137.0</ele><time>2026-05-04T15:23:59Z</time></trkpt><trkpt lat="45.52417658001282" lon="15.93667629693496"><ele>137.5</ele><time>2026-05-04T15:24:00Z</time></trkpt><trkpt lat="45.52438112793839" lon="15.936469767085319"><ele>138.0</ele><time>2026-05-04T15:24:01Z</time></trkpt><trkpt lat="45.52457161438547" lon="15.936215067054425"><ele>139.0</ele><time>2026-05-04T15:24:02Z</time></trkpt><trkpt lat="45.524760445946654" lon="15.93595295185305"><ele>140.0</ele><time>2026-05-04T15:24:03Z</time></trkpt><trkpt lat="45.524947037792295" lon="15.935708854742158"><ele>140.0</ele><time>2026-05-04T15:24:04Z</time></trkpt><trkpt lat="45.525124857429326" lon="15.935487635467643"><ele>140.0</ele><time>2026-05-04T15:24:05Z</time></trkpt><trkpt lat="45.52528626880374" lon="15.93527648527476"><ele>140.33333333333331</ele><time>2026-05-04T15:24:06Z</time></trkpt><trkpt lat="45.52543736642218" lon="15.935075017934269"><ele>140.66666666666666</ele><time>2026-05-04T15:24:07Z</time></trkpt><trkpt lat="45.525589139687796" lon="15.934908514221696"><ele>141.0</ele><time>2026-05-04T15:24:08Z</time></trkpt><trkpt lat="45.52575510189748" lon="15.934809216575472"><ele>141.33333333333334</ele><time>2026-05-04T15:24:09Z</time></trkpt><trkpt lat="45.525927588877394" lon="15.93480169184591"><ele>141.66666666666669</ele><time>2026-05-04T15:24:10Z</time></trkpt><trkpt lat="45.52609427829989" lon="15.934879624654167"><ele>142.0</ele><time>2026-05-04T15:24:11Z</time></trkpt><trkpt lat="45.52626048885646" lon="15.93499350828738"><ele>142.33333333333334</ele><time>2026-05-04T15:24:12Z</time></trkpt><trkpt lat="45.52642507898287" lon="15.935087778447157"><ele>142.66666666666666</ele><time>2026-05-04T15:24:13Z</time></trkpt><trkpt lat="45.5266007204517" lon="15.93510964933786"><ele>143.0</ele><time>2026-05-04T15:24:14Z</time></trkpt><trkpt lat="45.52678057347229" lon="15.935019409073586"><ele>143.0</ele><time>2026-05-04T15:24:15Z</time></trkpt><trkpt lat="45.526968381722526" lon="15.934841498661521"><ele>143.0</ele><time>2026-05-04T15:24:16Z</time></trkpt><trkpt lat="45.52716946353994" lon="15.934588149851786"><ele>144.5</ele><time>2026-05-04T15:24:17Z</time></trkpt><trkpt lat="45.52739508242519" lon="15.934302554192627"><ele>146.0</ele><time>2026-05-04T15:24:18Z</time></trkpt><trkpt lat="45.52764192159743" lon="15.934007223850536"><ele>149.0</ele><time>2026-05-04T15:24:19Z</time></trkpt><trkpt lat="45.5279055849311" lon="15.93370664392241"><ele>152.0</ele><time>2026-05-04T15:24:20Z</time></trkpt><trkpt lat="45.528182169536564" lon="15.933376689308975"><ele>152.0</ele><time>2026-05-04T15:24:21Z</time></trkpt><trkpt lat="45.52845469136938" lon="15.933012514393178"><ele>152.0</ele><time>2026-05-04T15:24:22Z</time></trkpt><trkpt lat="45.52871567545256" lon="15.932621932466331"><ele>153.5</ele><time>2026-05-04T15:24:23Z</time></trkpt><trkpt lat="45.52895326074268" lon="15.932247419701559"><ele>155.0</ele><time>2026-05-04T15:24:24Z</time></trkpt><trkpt lat="45.52916834472933" lon="15.93190485775949"><ele>154.5</ele><time>2026-05-04T15:24:25Z</time></trkpt><trkpt lat="45.52938021333749" lon="15.931590576365123"><ele>154.0</ele><time>2026-05-04T15:24:26Z</time></trkpt><trkpt lat="45.52959339790322" lon="15.931291784520386"><ele>154.5</ele><time>2026-05-04T15:24:27Z</time></trkpt><trkpt lat="45.52983138348555" lon="15.930994143443288"><ele>155.0</ele><time>2026-05-04T15:24:28Z</time></trkpt><trkpt lat="45.53010490764345" lon="15.93070473462147"><ele>155.0</ele><time>2026-05-04T15:24:29Z</time></trkpt><trkpt lat="45.530385961844694" lon="15.930436048250057"><ele>155.0</ele><time>2026-05-04T15:24:30Z</time></trkpt><trkpt lat="45.5306747193924" lon="15.930180316481511"><ele>154.5</ele><time>2026-05-04T15:24:31Z</time></trkpt><trkpt lat="45.53094844881764" lon="15.929950644987379"><ele>154.0</ele><time>2026-05-04T15:24:32Z</time></trkpt><trkpt lat="45.53119796913499" lon="15.929752784073127"><ele>154.0</ele><time>2026-05-04T15:24:33Z</time></trkpt><trkpt lat="45.531445212962865" lon="15.929598051447414"><ele>154.0</ele><time>2026-05-04T15:24:34Z</time></trkpt><trkpt lat="45.5316933452322" lon="15.929473597477779"><ele>154.0</ele><time>2026-05-04T15:24:35Z</time></trkpt><trkpt lat="45.531949812187435" lon="15.929372977640654"><ele>154.0</ele><time>2026-05-04T15:24:36Z</time></trkpt><trkpt lat="45.53219211851942" lon="15.929283747874438"><ele>153.5</ele><time>2026-05-04T15:24:37Z</time></trkpt><trkpt lat="45.53242812044754" lon="15.92918737082045"><ele>153.0</ele><time>2026-05-04T15:24:38Z</time></trkpt><trkpt lat="45.53267471423942" lon="15.92909759403595"><ele>152.0</ele><time>2026-05-04T15:24:39Z</time></trkpt><trkpt lat="45.53293363302175" lon="15.929013913456073"><ele>151.0</ele><time>2026-05-04T15:24:40Z</time></trkpt><trkpt lat="45.533198105126544" lon="15.92893347530643"><ele>151.0</ele><time>2026-05-04T15:24:41Z</time></trkpt><trkpt lat="45.533445200454686" lon="15.928860215543752"><ele>151.0</ele><time>2026-05-04T15:24:42Z</time></trkpt><trkpt lat="45.53368369749209" lon="15.928800665650146"><ele>150.5</ele><time>2026-05-04T15:24:43Z</time></trkpt><trkpt lat="45.533925645678565" lon="15.928755296920878"><ele>150.0</ele><time>2026-05-04T15:24:44Z</time></trkpt><trkpt lat="45.53417037307075" lon="15.92874456966451"><ele>150.0</ele><time>2026-05-04T15:24:45Z</time></trkpt><trkpt lat="45.534409621069834" lon="15.92876825345669"><ele>150.0</ele><time>2026-05-04T15:24:46Z</time></trkpt><trkpt lat="45.53465110888421" lon="15.928790540665105"><ele>151.0</ele><time>2026-05-04T15:24:47Z</time></trkpt><trkpt lat="45.53489007892335" lon="15.928803189270797"><ele>152.0</ele><time>2026-05-04T15:24:48Z</time></trkpt><trkpt lat="45.5351234826608" lon="15.928804379178404"><ele>152.0</ele><time>2026-05-04T15:24:49Z</time></trkpt><trkpt lat="45.53534547655787" lon="15.928785042024945"><ele>152.0</ele><time>2026-05-04T15:24:50Z</time></trkpt><trkpt lat="45.53557099395914" lon="15.92874986383634"><ele>152.0</ele><time>2026-05-04T15:24:51Z</time></trkpt><trkpt lat="45.53581675978822" lon="15.928689693584545"><ele>152.0</ele><time>2026-05-04T15:24:52Z</time></trkpt><trkpt lat="45.53609498213707" lon="15.928579789670488"><ele>152.0</ele><time>2026-05-04T15:24:53Z</time></trkpt><trkpt lat="45.53640238932572" lon="15.928456733230314"><ele>152.5</ele><time>2026-05-04T15:24:54Z</time></trkpt><trkpt lat="45.53673509061979" lon="15.928325332758435"><ele>153.0</ele><time>2026-05-04T15:24:55Z</time></trkpt><trkpt lat="45.53707610089863" lon="15.928208824887829"><ele>153.0</ele><time>2026-05-04T15:24:56Z</time></trkpt><trkpt lat="45.537416226521074" lon="15.928102112537308"><ele>153.0</ele><time>2026-05-04T15:24:57Z</time></trkpt><trkpt lat="45.53774692238281" lon="15.927987713737256"><ele>153.5</ele><time>2026-05-04T15:24:58Z</time></trkpt><trkpt lat="45.538061557437196" lon="15.927875136803982"><ele>154.0</ele><time>2026-05-04T15:24:59Z</time></trkpt><trkpt lat="45.53836008224089" lon="15.927770289610484"><ele>154.0</ele><time>2026-05-04T15:25:00Z</time></trkpt><trkpt lat="45.53865832561672" lon="15.92765323360155"><ele>154.0</ele><time>2026-05-04T15:25:01Z</time></trkpt><trkpt lat="45.53897259794426" lon="15.927513354987264"><ele>153.0</ele><time>2026-05-04T15:25:02Z</time></trkpt><trkpt lat="45.53929859522363" lon="15.927347812607486"><ele>152.0</ele><time>2026-05-04T15:25:03Z</time></trkpt><trkpt lat="45.53961703107999" lon="15.927168017829034"><ele>152.0</ele><time>2026-05-04T15:25:04Z</time></trkpt><trkpt lat="45.53992117097101" lon="15.926990424858365"><ele>152.0</ele><time>2026-05-04T15:25:05Z</time></trkpt><trkpt lat="45.54019969143651" lon="15.92683229699756"><ele>152.0</ele><time>2026-05-04T15:25:06Z</time></trkpt><trkpt lat="45.54045976329567" lon="15.926679937154864"><ele>152.0</ele><time>2026-05-04T15:25:07Z</time></trkpt><trkpt lat="45.540702710214774" lon="15.92653586752222"><ele>152.0</ele><time>2026-05-04T15:25:08Z</time></trkpt><trkpt lat="45.540925871686035" lon="15.926382692938132"><ele>152.0</ele><time>2026-05-04T15:25:09Z</time></trkpt><trkpt lat="45.54113141093069" lon="15.926247191409479"><ele>152.0</ele><time>2026-05-04T15:25:10Z</time></trkpt><trkpt lat="45.54131564601955" lon="15.92612875183719"><ele>152.0</ele><time>2026-05-04T15:25:11Z</time></trkpt><trkpt lat="45.541479499896255" lon="15.926031678311466"><ele>152.0</ele><time>2026-05-04T15:25:12Z</time></trkpt><trkpt lat="45.54162296194413" lon="15.925944345724014"><ele>152.0</ele><time>2026-05-04T15:25:13Z</time></trkpt><trkpt lat="45.54174799203012" lon="15.925866426424552"><ele>152.0</ele><time>2026-05-04T15:25:14Z</time></trkpt><trkpt lat="45.541841444249414" lon="15.925801509113088"><ele>152.0</ele><time>2026-05-04T15:25:15Z</time></trkpt><trkpt lat="45.54190580224385" lon="15.925784586761273"><ele>152.0</ele><time>2026-05-04T15:25:16Z</time></trkpt><trkpt lat="45.541987366419406" lon="15.925901743986913"><ele>152.0</ele><time>2026-05-04T15:25:18Z</time></trkpt><trkpt lat="45.54201548693736" lon="15.926045230826306"><ele>152.0</ele><time>2026-05-04T15:25:19Z</time></trkpt><trkpt lat="45.5420447824491" lon="15.92626623980067"><ele>152.0</ele><time>2026-05-04T15:25:20Z</time></trkpt><trkpt lat="45.54209858472843" lon="15.92655529287032"><ele>152.0</ele><time>2026-05-04T15:25:21Z</time></trkpt><trkpt lat="45.542173912097454" lon="15.926911978071095"><ele>152.0</ele><time>2026-05-04T15:25:22Z</time></trkpt><trkpt lat="45.54226501206702" lon="15.92731351036708"><ele>152.0</ele><time>2026-05-04T15:25:23Z</time></trkpt><trkpt lat="45.54235206481365" lon="15.927713996038337"><ele>152.0</ele><time>2026-05-04T15:25:24Z</time></trkpt><trkpt lat="45.542436287199855" lon="15.928093770741464"><ele>152.0</ele><time>2026-05-04T15:25:25Z</time></trkpt><trkpt lat="45.542510110196034" lon="15.9284487578379"><ele>151.0</ele><time>2026-05-04T15:25:26Z</time></trkpt><trkpt lat="45.54259096839571" lon="15.928791609342374"><ele>150.0</ele><time>2026-05-04T15:25:27Z</time></trkpt><trkpt lat="45.54267492019948" lon="15.929127816878685"><ele>146.5</ele><time>2026-05-04T15:25:28Z</time></trkpt><trkpt lat="45.542776641604775" lon="15.929436690941268"><ele>143.0</ele><time>2026-05-04T15:25:29Z</time></trkpt><trkpt lat="45.54287431045707" lon="15.929717158523633"><ele>144.0</ele><time>2026-05-04T15:25:30Z</time></trkpt><trkpt lat="45.54295697381511" lon="15.9299981542793"><ele>145.0</ele><time>2026-05-04T15:25:31Z</time></trkpt><trkpt lat="45.54302738168001" lon="15.930263513979963"><ele>146.0</ele><time>2026-05-04T15:25:32Z</time></trkpt><trkpt lat="45.543101385688864" lon="15.930540522509782"><ele>146.0</ele><time>2026-05-04T15:25:33Z</time></trkpt><trkpt lat="45.54317467940422" lon="15.930811482039564"><ele>146.0</ele><time>2026-05-04T15:25:34Z</time></trkpt><trkpt lat="45.54324816190689" lon="15.931065216442816"><ele>146.0</ele><time>2026-05-04T15:25:35Z</time></trkpt><trkpt lat="45.543328148021544" lon="15.931318449891565"><ele>145.0</ele><time>2026-05-04T15:25:36Z</time></trkpt><trkpt lat="45.543412583801754" lon="15.931569539540114"><ele>144.0</ele><time>2026-05-04T15:25:37Z</time></trkpt><trkpt lat="45.54349248252524" lon="15.93183454543077"><ele>143.0</ele><time>2026-05-04T15:25:38Z</time></trkpt><trkpt lat="45.54355803734295" lon="15.932121102975332"><ele>142.0</ele><time>2026-05-04T15:25:39Z</time></trkpt><trkpt lat="45.54361597355285" lon="15.9324210277071"><ele>141.0</ele><time>2026-05-04T15:25:40Z</time></trkpt><trkpt lat="45.54365908353553" lon="15.932720795061417"><ele>140.0</ele><time>2026-05-04T15:25:41Z</time></trkpt><trkpt lat="45.54369322187324" lon="15.933016975760074"><ele>141.0</ele><time>2026-05-04T15:25:42Z</time></trkpt><trkpt lat="45.543722505579005" lon="15.933314649949075"><ele>142.0</ele><time>2026-05-04T15:25:43Z</time></trkpt><trkpt lat="45.54375353481326" lon="15.933600477464347"><ele>143.0</ele><time>2026-05-04T15:25:44Z</time></trkpt><trkpt lat="45.543784663867605" lon="15.933871501299967"><ele>143.33333333333331</ele><time>2026-05-04T15:25:45Z</time></trkpt><trkpt lat="45.54381090662588" lon="15.934142048996975"><ele>143.66666666666666</ele><time>2026-05-04T15:25:46Z</time></trkpt><trkpt lat="45.54382421761491" lon="15.934414179486375"><ele>144.0</ele><time>2026-05-04T15:25:47Z</time></trkpt><trkpt lat="45.54382563480805" lon="15.934675410541127"><ele>143.0</ele><time>2026-05-04T15:25:48Z</time></trkpt><trkpt lat="45.54382376880563" lon="15.934946529713132"><ele>142.0</ele><time>2026-05-04T15:25:49Z</time></trkpt><trkpt lat="45.54382453019594" lon="15.935199442112099"><ele>141.0</ele><time>2026-05-04T15:25:50Z</time></trkpt><trkpt lat="45.543838653867276" lon="15.935452834296003"><ele>140.33333333333334</ele><time>2026-05-04T15:25:51Z</time></trkpt><trkpt lat="45.543873091061656" lon="15.935685305362705"><ele>139.66666666666669</ele><time>2026-05-04T15:25:52Z</time></trkpt><trkpt lat="45.54393761765957" lon="15.935920655788781"><ele>139.0</ele><time>2026-05-04T15:25:53Z</time></trkpt><trkpt lat="45.544026115523366" lon="15.936142213494149"><ele>140.33333333333334</ele><time>2026-05-04T15:25:54Z</time></trkpt><trkpt lat="45.54411727854" lon="15.936356142212304"><ele>141.66666666666666</ele><time>2026-05-04T15:25:55Z</time></trkpt><trkpt lat="45.544185455193094" lon="15.936604906675095"><ele>143.0</ele><time>2026-05-04T15:25:56Z</time></trkpt><trkpt lat="45.54424251598325" lon="15.936883899608732"><ele>143.0</ele><time>2026-05-04T15:25:57Z</time></trkpt><trkpt lat="45.54430181552487" lon="15.937169744717384"><ele>143.0</ele><time>2026-05-04T15:25:58Z</time></trkpt><trkpt lat="45.54436184470368" lon="15.9374495030118"><ele>143.0</ele><time>2026-05-04T15:25:59Z</time></trkpt><trkpt lat="45.54442182506474" lon="15.937735526941337"><ele>142.33333333333331</ele><time>2026-05-04T15:26:00Z</time></trkpt><trkpt lat="45.54447758875868" lon="15.937997529166308"><ele>141.66666666666666</ele><time>2026-05-04T15:26:01Z</time></trkpt><trkpt lat="45.54453014723009" lon="15.938254623360333"><ele>141.0</ele><time>2026-05-04T15:26:02Z</time></trkpt><trkpt lat="45.54457474676429" lon="15.938499901973811"><ele>141.0</ele><time>2026-05-04T15:26:03Z</time></trkpt><trkpt lat="45.544619150045996" lon="15.938733545187253"><ele>141.0</ele><time>2026-05-04T15:26:04Z</time></trkpt><trkpt lat="45.54467584562244" lon="15.938949577002164"><ele>141.0</ele><time>2026-05-04T15:26:05Z</time></trkpt><trkpt lat="45.54477209756697" lon="15.93918388939884"><ele>141.66666666666666</ele><time>2026-05-04T15:26:06Z</time></trkpt><trkpt lat="45.54491001259243" lon="15.939414639534526"><ele>142.33333333333331</ele><time>2026-05-04T15:26:07Z</time></trkpt><trkpt lat="45.54507392756213" lon="15.939642699828433"><ele>143.0</ele><time>2026-05-04T15:26:08Z</time></trkpt><trkpt lat="45.54523974573719" lon="15.939857933958447"><ele>144.0</ele><time>2026-05-04T15:26:09Z</time></trkpt><trkpt lat="45.5454153579797" lon="15.940059180274675"><ele>145.0</ele><time>2026-05-04T15:26:10Z</time></trkpt><trkpt lat="45.545597222392956" lon="15.940252714660735"><ele>145.0</ele><time>2026-05-04T15:26:11Z</time></trkpt><trkpt lat="45.5457769399132" lon="15.940441467887203"><ele>145.0</ele><time>2026-05-04T15:26:12Z</time></trkpt><trkpt lat="45.54595734886381" lon="15.940626713799535"><ele>145.0</ele><time>2026-05-04T15:26:13Z</time></trkpt><trkpt lat="45.54615622368802" lon="15.94077275643998"><ele>147.5</ele><time>2026-05-04T15:26:14Z</time></trkpt><trkpt lat="45.546373394124835" lon="15.94085149735741"><ele>150.0</ele><time>2026-05-04T15:26:15Z</time></trkpt><trkpt lat="45.546597076843696" lon="15.940907814772887"><ele>150.33333333333334</ele><time>2026-05-04T15:26:16Z</time></trkpt><trkpt lat="45.54680275171656" lon="15.940973360187092"><ele>150.66666666666669</ele><time>2026-05-04T15:26:17Z</time></trkpt><trkpt lat="45.54700544186037" lon="15.941052671934923"><ele>151.0</ele><time>2026-05-04T15:26:18Z</time></trkpt><trkpt lat="45.54720880861456" lon="15.941167945454385"><ele>153.0</ele><time>2026-05-04T15:26:19Z</time></trkpt><trkpt lat="45.5473973403918" lon="15.94135335622915"><ele>155.0</ele><time>2026-05-04T15:26:20Z</time></trkpt><trkpt lat="45.547567814881276" lon="15.9415961708021"><ele>155.5</ele><time>2026-05-04T15:26:21Z</time></trkpt><trkpt lat="45.54773311982676" lon="15.941852135202573"><ele>156.0</ele><time>2026-05-04T15:26:22Z</time></trkpt><trkpt lat="45.54791320056742" lon="15.94209253328624"><ele>157.0</ele><time>2026-05-04T15:26:23Z</time></trkpt><trkpt lat="45.54809576919471" lon="15.942310404611566"><ele>158.0</ele><time>2026-05-04T15:26:24Z</time></trkpt><trkpt lat="45.54828969487908" lon="15.942516735462489"><ele>159.5</ele><time>2026-05-04T15:26:25Z</time></trkpt><trkpt lat="45.548481521206604" lon="15.942713825491849"><ele>161.0</ele><time>2026-05-04T15:26:26Z</time></trkpt><trkpt lat="45.548669102713134" lon="15.942907169092976"><ele>161.5</ele><time>2026-05-04T15:26:27Z</time></trkpt><trkpt lat="45.54885416041203" lon="15.943113213171742"><ele>162.0</ele><time>2026-05-04T15:26:28Z</time></trkpt><trkpt lat="45.54903267706817" lon="15.94330516348879"><ele>163.0</ele><time>2026-05-04T15:26:29Z</time></trkpt><trkpt lat="45.54924073511959" lon="15.943464315797751"><ele>164.0</ele><time>2026-05-04T15:26:30Z</time></trkpt><trkpt lat="45.54948651708446" lon="15.943593772914232"><ele>163.0</ele><time>2026-05-04T15:26:31Z</time></trkpt><trkpt lat="45.54976374709156" lon="15.943710798587286"><ele>162.0</ele><time>2026-05-04T15:26:32Z</time></trkpt><trkpt lat="45.550065823313815" lon="15.94382074945937"><ele>162.0</ele><time>2026-05-04T15:26:33Z</time></trkpt><trkpt lat="45.5503517036322" lon="15.943926081750252"><ele>162.0</ele><time>2026-05-04T15:26:34Z</time></trkpt><trkpt lat="45.550636858939" lon="15.944005352295425"><ele>164.0</ele><time>2026-05-04T15:26:35Z</time></trkpt><trkpt lat="45.550930317222566" lon="15.944056201269614"><ele>166.0</ele><time>2026-05-04T15:26:36Z</time></trkpt><trkpt lat="45.551230921686745" lon="15.944093413345916"><ele>167.5</ele><time>2026-05-04T15:26:37Z</time></trkpt><trkpt lat="45.55152177105977" lon="15.944142683635976"><ele>169.0</ele><time>2026-05-04T15:26:38Z</time></trkpt><trkpt lat="45.55180304750582" lon="15.944192965984305"><ele>169.5</ele><time>2026-05-04T15:26:39Z</time></trkpt><trkpt lat="45.55205180214948" lon="15.944247556201221"><ele>170.0</ele><time>2026-05-04T15:26:40Z</time></trkpt><trkpt lat="45.55228591727122" lon="15.944297370803676"><ele>170.0</ele><time>2026-05-04T15:26:41Z</time></trkpt><trkpt lat="45.55249972031566" lon="15.944325322473189"><ele>170.0</ele><time>2026-05-04T15:26:42Z</time></trkpt><trkpt lat="45.55271354752739" lon="15.944336609351614"><ele>170.0</ele><time>2026-05-04T15:26:43Z</time></trkpt><trkpt lat="45.55294072333696" lon="15.944320802786912"><ele>172.0</ele><time>2026-05-04T15:26:44Z</time></trkpt><trkpt lat="45.55317116095135" lon="15.94426554882848"><ele>174.0</ele><time>2026-05-04T15:26:45Z</time></trkpt><trkpt lat="45.55341335620241" lon="15.944200641137407"><ele>174.0</ele><time>2026-05-04T15:26:46Z</time></trkpt><trkpt lat="45.55366928837256" lon="15.94414439563491"><ele>174.0</ele><time>2026-05-04T15:26:47Z</time></trkpt><trkpt lat="45.5539199115892" lon="15.944129275950294"><ele>173.0</ele><time>2026-05-04T15:26:48Z</time></trkpt><trkpt lat="45.55416724033547" lon="15.94415689400654"><ele>172.0</ele><time>2026-05-04T15:26:49Z</time></trkpt><trkpt lat="45.55443199008138" lon="15.944170444117614"><ele>172.5</ele><time>2026-05-04T15:26:50Z</time></trkpt><trkpt lat="45.554711487903134" lon="15.944130385923259"><ele>173.0</ele><time>2026-05-04T15:26:51Z</time></trkpt><trkpt lat="45.554985477781464" lon="15.944078667824863"><ele>173.0</ele><time>2026-05-04T15:26:52Z</time></trkpt><trkpt lat="45.55526635040439" lon="15.944034888633363"><ele>173.0</ele><time>2026-05-04T15:26:53Z</time></trkpt><trkpt lat="45.55553405938567" lon="15.943997712331022"><ele>173.5</ele><time>2026-05-04T15:26:54Z</time></trkpt><trkpt lat="45.5557762631365" lon="15.943958229341986"><ele>174.0</ele><time>2026-05-04T15:26:55Z</time></trkpt><trkpt lat="45.55600303309866" lon="15.9439274317961"><ele>174.0</ele><time>2026-05-04T15:26:56Z</time></trkpt><trkpt lat="45.556245066724514" lon="15.943942038289606"><ele>174.0</ele><time>2026-05-04T15:26:57Z</time></trkpt><trkpt lat="45.55648830512888" lon="15.944016787153036"><ele>174.0</ele><time>2026-05-04T15:26:58Z</time></trkpt><trkpt lat="45.55672154300259" lon="15.944103327797812"><ele>174.0</ele><time>2026-05-04T15:26:59Z</time></trkpt><trkpt lat="45.556948636581204" lon="15.94417502632333"><ele>175.33333333333334</ele><time>2026-05-04T15:27:00Z</time></trkpt><trkpt lat="45.557161391454834" lon="15.944219859563399"><ele>176.66666666666669</ele><time>2026-05-04T15:27:01Z</time></trkpt><trkpt lat="45.557361007448726" lon="15.944243314599928"><ele>178.0</ele><time>2026-05-04T15:27:02Z</time></trkpt><trkpt lat="45.55756425091881" lon="15.944260918529054"><ele>178.0</ele><time>2026-05-04T15:27:03Z</time></trkpt><trkpt lat="45.557766967783294" lon="15.94432113497548"><ele>178.0</ele><time>2026-05-04T15:27:04Z</time></trkpt><trkpt lat="45.55796779952329" lon="15.944455171723575"><ele>178.0</ele><time>2026-05-04T15:27:05Z</time></trkpt><trkpt lat="45.5581696969474" lon="15.944658865275178"><ele>176.5</ele><time>2026-05-04T15:27:06Z</time></trkpt><trkpt lat="45.55837976250506" lon="15.94484536523882"><ele>175.0</ele><time>2026-05-04T15:27:07Z</time></trkpt><trkpt lat="45.558586556290706" lon="15.944999065133622"><ele>172.33333333333334</ele><time>2026-05-04T15:27:08Z</time></trkpt><trkpt lat="45.55878273721001" lon="15.94511846698181"><ele>169.66666666666666</ele><time>2026-05-04T15:27:09Z</time></trkpt><trkpt lat="45.558979926406295" lon="15.945179631134092"><ele>167.0</ele><time>2026-05-04T15:27:10Z</time></trkpt><trkpt lat="45.55917600841859" lon="15.945177805914922"><ele>167.0</ele><time>2026-05-04T15:27:11Z</time></trkpt><trkpt lat="45.55936905638142" lon="15.945135612724556"><ele>167.0</ele><time>2026-05-04T15:27:12Z</time></trkpt><trkpt lat="45.55956398383555" lon="15.945084860102094"><ele>167.0</ele><time>2026-05-04T15:27:13Z</time></trkpt><trkpt lat="45.559774955611616" lon="15.945067905949651"><ele>168.33333333333331</ele><time>2026-05-04T15:27:14Z</time></trkpt><trkpt lat="45.55996874038289" lon="15.94512878541582"><ele>169.66666666666666</ele><time>2026-05-04T15:27:15Z</time></trkpt><trkpt lat="45.560132751093775" lon="15.945213959643217"><ele>171.0</ele><time>2026-05-04T15:27:16Z</time></trkpt><trkpt lat="45.56027479602192" lon="15.94525271131785"><ele>169.0</ele><time>2026-05-04T15:27:17Z</time></trkpt><trkpt lat="45.56043466302326" lon="15.945246730438933"><ele>167.0</ele><time>2026-05-04T15:27:18Z</time></trkpt><trkpt lat="45.56062573746596" lon="15.945184768012368"><ele>165.0</ele><time>2026-05-04T15:27:19Z</time></trkpt><trkpt lat="45.560840493447316" lon="15.945048681755251"><ele>166.0</ele><time>2026-05-04T15:27:20Z</time></trkpt><trkpt lat="45.56106187324153" lon="15.944866645992859"><ele>167.0</ele><time>2026-05-04T15:27:21Z</time></trkpt><trkpt lat="45.56127935311944" lon="15.944678190189409"><ele>165.33333333333331</ele><time>2026-05-04T15:27:22Z</time></trkpt><trkpt lat="45.561473394139945" lon="15.944503011787194"><ele>163.66666666666666</ele><time>2026-05-04T15:27:23Z</time></trkpt><trkpt lat="45.56165060395097" lon="15.944326588611217"><ele>162.0</ele><time>2026-05-04T15:27:24Z</time></trkpt><trkpt lat="45.5618149695638" lon="15.944122038516433"><ele>162.0</ele><time>2026-05-04T15:27:25Z</time></trkpt><trkpt lat="45.56196447124291" lon="15.943880870244605"><ele>162.0</ele><time>2026-05-04T15:27:26Z</time></trkpt><trkpt lat="45.56209253503571" lon="15.943637748911444"><ele>162.0</ele><time>2026-05-04T15:27:27Z</time></trkpt><trkpt lat="45.56222207998987" lon="15.943419018021855"><ele>162.33333333333334</ele><time>2026-05-04T15:27:28Z</time></trkpt><trkpt lat="45.56236423262066" lon="15.943225900195737"><ele>162.66666666666669</ele><time>2026-05-04T15:27:29Z</time></trkpt><trkpt lat="45.56253441546757" lon="15.943052743949528"><ele>163.0</ele><time>2026-05-04T15:27:30Z</time></trkpt><trkpt lat="45.562717159585745" lon="15.942915076579828"><ele>162.33333333333334</ele><time>2026-05-04T15:27:31Z</time></trkpt><trkpt lat="45.56289595128756" lon="15.942802505449963"><ele>161.66666666666666</ele><time>2026-05-04T15:27:32Z</time></trkpt><trkpt lat="45.56305249306542" lon="15.942691977689957"><ele>161.0</ele><time>2026-05-04T15:27:33Z</time></trkpt><trkpt lat="45.56317391308455" lon="15.942557519971587"><ele>161.0</ele><time>2026-05-04T15:27:34Z</time></trkpt><trkpt lat="45.563259876529" lon="15.942364670862554"><ele>161.0</ele><time>2026-05-04T15:27:35Z</time></trkpt><trkpt lat="45.56332386782021" lon="15.942102991412117"><ele>161.0</ele><time>2026-05-04T15:27:36Z</time></trkpt><trkpt lat="45.56338188786143" lon="15.941761464090682"><ele>159.5</ele><time>2026-05-04T15:27:37Z</time></trkpt><trkpt lat="45.563441572634794" lon="15.941374556508848"><ele>158.0</ele><time>2026-05-04T15:27:38Z</time></trkpt><trkpt lat="45.56350578842602" lon="15.941017068316135"><ele>157.0</ele><time>2026-05-04T15:27:39Z</time></trkpt><trkpt lat="45.563592913010254" lon="15.940688610144692"><ele>156.0</ele><time>2026-05-04T15:27:40Z</time></trkpt><trkpt lat="45.56369674949394" lon="15.94038963199573"><ele>155.66666666666666</ele><time>2026-05-04T15:27:41Z</time></trkpt><trkpt lat="45.563802608366096" lon="15.940115811012326"><ele>155.33333333333331</ele><time>2026-05-04T15:27:42Z</time></trkpt><trkpt lat="45.56389861924869" lon="15.93985322905119"><ele>155.0</ele><time>2026-05-04T15:27:43Z</time></trkpt><trkpt lat="45.56398494273116" lon="15.939611190365353"><ele>155.0</ele><time>2026-05-04T15:27:44Z</time></trkpt><trkpt lat="45.56407727808392" lon="15.93939332529984"><ele>155.0</ele><time>2026-05-04T15:27:45Z</time></trkpt><trkpt lat="45.564189964063374" lon="15.939208286294935"><ele>155.0</ele><time>2026-05-04T15:27:46Z</time></trkpt><trkpt lat="45.56432728828464" lon="15.939065300218587"><ele>155.0</ele><time>2026-05-04T15:27:47Z</time></trkpt><trkpt lat="45.5644913851829" lon="15.938965754327661"><ele>155.0</ele><time>2026-05-04T15:27:48Z</time></trkpt><trkpt lat="45.56467445895575" lon="15.938900024595986"><ele>155.0</ele><time>2026-05-04T15:27:49Z</time></trkpt><trkpt lat="45.564860044031924" lon="15.938865851029083"><ele>154.66666666666666</ele><time>2026-05-04T15:27:50Z</time></trkpt><trkpt lat="45.565034751215535" lon="15.938829577218591"><ele>154.33333333333334</ele><time>2026-05-04T15:27:51Z</time></trkpt><trkpt lat="45.565182051439734" lon="15.938778796400845"><ele>154.0</ele><time>2026-05-04T15:27:52Z</time></trkpt><trkpt lat="45.565300537161555" lon="15.938693385839102"><ele>154.25</ele><time>2026-05-04T15:27:53Z</time></trkpt><trkpt lat="45.565404788496664" lon="15.938588519058845"><ele>154.5</ele><time>2026-05-04T15:27:54Z</time></trkpt><trkpt lat="45.565491943086265" lon="15.938476277108188"><ele>154.75</ele><time>2026-05-04T15:27:55Z</time></trkpt><trkpt lat="45.56557905143055" lon="15.93838241162175"><ele>155.0</ele><time>2026-05-04T15:27:56Z</time></trkpt><trkpt lat="45.565673615259094" lon="15.938304637879645"><ele>155.25</ele><time>2026-05-04T15:27:57Z</time></trkpt><trkpt lat="45.56577525184421" lon="15.938231283411156"><ele>155.5</ele><time>2026-05-04T15:27:58Z</time></trkpt><trkpt lat="45.56589300429503" lon="15.938151890825978"><ele>155.75</ele><time>2026-05-04T15:27:59Z</time></trkpt><trkpt lat="45.56602174144422" lon="15.938062387993273"><ele>156.0</ele><time>2026-05-04T15:28:00Z</time></trkpt><trkpt lat="45.566147808154966" lon="15.93797086412353"><ele>153.4</ele><time>2026-05-04T15:28:01Z</time></trkpt><trkpt lat="45.566264384359485" lon="15.937891962557199"><ele>150.8</ele><time>2026-05-04T15:28:02Z</time></trkpt><trkpt lat="45.5663526405536" lon="15.937831283588242"><ele>148.20000000000002</ele><time>2026-05-04T15:28:03Z</time></trkpt><trkpt lat="45.56642597552295" lon="15.937822592772685"><ele>145.6</ele><time>2026-05-04T15:28:04Z</time></trkpt><trkpt lat="45.56649470967567" lon="15.937868524586163"><ele>143.0</ele><time>2026-05-04T15:28:05Z</time></trkpt><trkpt lat="45.56656382065657" lon="15.937967308500204"><ele>143.0</ele><time>2026-05-04T15:28:06Z</time></trkpt><trkpt lat="45.56662288719058" lon="15.938123092303064"><ele>143.0</ele><time>2026-05-04T15:28:07Z</time></trkpt><trkpt lat="45.566665216544855" lon="15.93832046825354"><ele>143.0</ele><time>2026-05-04T15:28:08Z</time></trkpt><trkpt lat="45.56667839554686" lon="15.938537038879296"><ele>143.0</ele><time>2026-05-04T15:28:09Z</time></trkpt><trkpt lat="45.56665827452959" lon="15.938786607079962"><ele>141.66666666666666</ele><time>2026-05-04T15:28:10Z</time></trkpt><trkpt lat="45.56663377628527" lon="15.939080916338508"><ele>140.33333333333334</ele><time>2026-05-04T15:28:11Z</time></trkpt><trkpt lat="45.56662056645136" lon="15.939391314905054"><ele>139.0</ele><time>2026-05-04T15:28:12Z</time></trkpt><trkpt lat="45.56661206254979" lon="15.939684178845168"><ele>136.0</ele><time>2026-05-04T15:28:13Z</time></trkpt><trkpt lat="45.566613373434755" lon="15.939955801417955"><ele>133.0</ele><time>2026-05-04T15:28:14Z</time></trkpt><trkpt lat="45.56660860773929" lon="15.940190527407657"><ele>130.0</ele><time>2026-05-04T15:28:15Z</time></trkpt><trkpt lat="45.56658717270459" lon="15.940372059930647"><ele>128.25</ele><time>2026-05-04T15:28:16Z</time></trkpt><trkpt lat="45.56652604562859" lon="15.94052623960323"><ele>126.5</ele><time>2026-05-04T15:28:17Z</time></trkpt><trkpt lat="45.5664305520914" lon="15.940652476307216"><ele>124.75</ele><time>2026-05-04T15:28:18Z</time></trkpt><trkpt lat="45.56632440915079" lon="15.940777020662525"><ele>123.0</ele><time>2026-05-04T15:28:19Z</time></trkpt><trkpt lat="45.566243625497954" lon="15.940919680074035"><ele>122.25</ele><time>2026-05-04T15:28:20Z</time></trkpt><trkpt lat="45.56620065008628" lon="15.941096849467957"><ele>121.5</ele><time>2026-05-04T15:28:21Z</time></trkpt><trkpt lat="45.56620956834856" lon="15.941293375786106"><ele>120.75</ele><time>2026-05-04T15:28:22Z</time></trkpt><trkpt lat="45.56627344467544" lon="15.94149811109498"><ele>120.0</ele><time>2026-05-04T15:28:23Z</time></trkpt><trkpt lat="45.56637040061474" lon="15.941750123515412"><ele>119.5</ele><time>2026-05-04T15:28:24Z</time></trkpt><trkpt lat="45.566478567881845" lon="15.942046516303067"><ele>119.0</ele><time>2026-05-04T15:28:25Z</time></trkpt><trkpt lat="45.56657973217979" lon="15.942378486048828"><ele>118.0</ele><time>2026-05-04T15:28:26Z</time></trkpt><trkpt lat="45.566675241307536" lon="15.942731484090656"><ele>117.0</ele><time>2026-05-04T15:28:27Z</time></trkpt><trkpt lat="45.56677608928341" lon="15.94307568752668"><ele>117.5</ele><time>2026-05-04T15:28:28Z</time></trkpt><trkpt lat="45.56686149073711" lon="15.943406546112067"><ele>118.0</ele><time>2026-05-04T15:28:29Z</time></trkpt><trkpt lat="45.566914845109146" lon="15.943723880924237"><ele>118.0</ele><time>2026-05-04T15:28:30Z</time></trkpt><trkpt lat="45.566918589415074" lon="15.944027661641346"><ele>118.0</ele><time>2026-05-04T15:28:31Z</time></trkpt><trkpt lat="45.566885844237966" lon="15.944312064540053"><ele>118.0</ele><time>2026-05-04T15:28:32Z</time></trkpt><trkpt lat="45.56685670404773" lon="15.944578735983539"><ele>119.0</ele><time>2026-05-04T15:28:33Z</time></trkpt><trkpt lat="45.56685690363543" lon="15.944812636237577"><ele>120.0</ele><time>2026-05-04T15:28:34Z</time></trkpt><trkpt lat="45.56688786602421" lon="15.945012187027467"><ele>121.0</ele><time>2026-05-04T15:28:35Z</time></trkpt><trkpt lat="45.56695000297608" lon="15.94517418358783"><ele>122.0</ele><time>2026-05-04T15:28:36Z</time></trkpt><trkpt lat="45.56703758586576" lon="15.945310272876682"><ele>119.33333333333333</ele><time>2026-05-04T15:28:37Z</time></trkpt><trkpt lat="45.56714542642945" lon="15.945434683508633"><ele>116.66666666666666</ele><time>2026-05-04T15:28:38Z</time></trkpt><trkpt lat="45.56727128010811" lon="15.945548025927833"><ele>114.0</ele><time>2026-05-04T15:28:39Z</time></trkpt><trkpt lat="45.5674218093197" lon="15.945654874411293"><ele>114.0</ele><time>2026-05-04T15:28:40Z</time></trkpt><trkpt lat="45.56759243442968" lon="15.945769390725529"><ele>114.0</ele><time>2026-05-04T15:28:41Z</time></trkpt><trkpt lat="45.567770262533536" lon="15.945938379703072"><ele>114.0</ele><time>2026-05-04T15:28:42Z</time></trkpt><trkpt lat="45.56794106956582" lon="15.946171558113093"><ele>114.5</ele><time>2026-05-04T15:28:43Z</time></trkpt><trkpt lat="45.56813562222081" lon="15.946388787860291"><ele>115.0</ele><time>2026-05-04T15:28:44Z</time></trkpt><trkpt lat="45.568386599753524" lon="15.94657397765743"><ele>115.5</ele><time>2026-05-04T15:28:45Z</time></trkpt><trkpt lat="45.56867597927735" lon="15.946751805793859"><ele>116.0</ele><time>2026-05-04T15:28:46Z</time></trkpt><trkpt lat="45.568961474679995" lon="15.946932024380787"><ele>117.5</ele><time>2026-05-04T15:28:47Z</time></trkpt><trkpt lat="45.56920296515761" lon="15.947098702131736"><ele>119.0</ele><time>2026-05-04T15:28:48Z</time></trkpt><trkpt lat="45.56942232649815" lon="15.947246009823557"><ele>120.33333333333333</ele><time>2026-05-04T15:28:49Z</time></trkpt><trkpt lat="45.56960336020154" lon="15.947361720634543"><ele>121.66666666666666</ele><time>2026-05-04T15:28:50Z</time></trkpt><trkpt lat="45.56975403017318" lon="15.947428263209954"><ele>123.0</ele><time>2026-05-04T15:28:51Z</time></trkpt><trkpt lat="45.5699001277942" lon="15.947434688384943"><ele>123.0</ele><time>2026-05-04T15:28:52Z</time></trkpt><trkpt lat="45.57004521083052" lon="15.947363661321551"><ele>123.0</ele><time>2026-05-04T15:28:53Z</time></trkpt><trkpt lat="45.57020005046712" lon="15.947217999199632"><ele>123.0</ele><time>2026-05-04T15:28:54Z</time></trkpt><trkpt lat="45.57034871120759" lon="15.947025366205898"><ele>124.33333333333334</ele><time>2026-05-04T15:28:55Z</time></trkpt><trkpt lat="45.57049171234539" lon="15.946858621285996"><ele>125.66666666666667</ele><time>2026-05-04T15:28:56Z</time></trkpt><trkpt lat="45.57062116198371" lon="15.946764893110187"><ele>127.0</ele><time>2026-05-04T15:28:57Z</time></trkpt><trkpt lat="45.570751200780464" lon="15.94674222896611"><ele>127.0</ele><time>2026-05-04T15:28:58Z</time></trkpt><trkpt lat="45.570902367515124" lon="15.94678740768788"><ele>127.0</ele><time>2026-05-04T15:28:59Z</time></trkpt><trkpt lat="45.57109257537116" lon="15.946855051471058"><ele>127.0</ele><time>2026-05-04T15:29:00Z</time></trkpt><trkpt lat="45.57131971160504" lon="15.946870729823909"><ele>128.66666666666669</ele><time>2026-05-04T15:29:01Z</time></trkpt><trkpt lat="45.571527234224526" lon="15.94683849996924"><ele>130.33333333333334</ele><time>2026-05-04T15:29:02Z</time></trkpt><trkpt lat="45.57170073012231" lon="15.94678992882345"><ele>132.0</ele><time>2026-05-04T15:29:03Z</time></trkpt><trkpt lat="45.57186301680825" lon="15.94670578714738"><ele>134.33333333333334</ele><time>2026-05-04T15:29:04Z</time></trkpt><trkpt lat="45.57203176425535" lon="15.946572359055592"><ele>136.66666666666669</ele><time>2026-05-04T15:29:05Z</time></trkpt><trkpt lat="45.57219823684573" lon="15.9464465296726"><ele>139.0</ele><time>2026-05-04T15:29:06Z</time></trkpt><trkpt lat="45.5723544972017" lon="15.946386309605607"><ele>139.0</ele><time>2026-05-04T15:29:07Z</time></trkpt><trkpt lat="45.57248884749877" lon="15.9463118740146"><ele>139.0</ele><time>2026-05-04T15:29:08Z</time></trkpt><trkpt lat="45.572596815939384" lon="15.946156788497797"><ele>139.0</ele><time>2026-05-04T15:29:09Z</time></trkpt><trkpt lat="45.572680567665735" lon="15.94592198516772"><ele>140.5</ele><time>2026-05-04T15:29:10Z</time></trkpt><trkpt lat="45.57278295060413" lon="15.945611366748816"><ele>142.0</ele><time>2026-05-04T15:29:11Z</time></trkpt><trkpt lat="45.57290809990079" lon="15.945282657941048"><ele>143.33333333333334</ele><time>2026-05-04T15:29:12Z</time></trkpt><trkpt lat="45.573036820631785" lon="15.944997620910902"><ele>144.66666666666666</ele><time>2026-05-04T15:29:13Z</time></trkpt><trkpt lat="45.573156698444556" lon="15.944766098335286"><ele>146.0</ele><time>2026-05-04T15:29:14Z</time></trkpt><trkpt lat="45.57327274242512" lon="15.944570320077982"><ele>146.0</ele><time>2026-05-04T15:29:15Z</time></trkpt><trkpt lat="45.57338434030359" lon="15.944387459463785"><ele>146.0</ele><time>2026-05-04T15:29:16Z</time></trkpt><trkpt lat="45.57350410543502" lon="15.944200843418637"><ele>146.0</ele><time>2026-05-04T15:29:17Z</time></trkpt><trkpt lat="45.573630405371034" lon="15.944043349282522"><ele>146.66666666666666</ele><time>2026-05-04T15:29:18Z</time></trkpt><trkpt lat="45.57378768843064" lon="15.943924762886066"><ele>147.33333333333334</ele><time>2026-05-04T15:29:19Z</time></trkpt><trkpt lat="45.573974095070696" lon="15.94384474789421"><ele>148.0</ele><time>2026-05-04T15:29:20Z</time></trkpt><trkpt lat="45.57417419214566" lon="15.94380151820694"><ele>148.0</ele><time>2026-05-04T15:29:21Z</time></trkpt><trkpt lat="45.574389201636016" lon="15.94377494840695"><ele>148.0</ele><time>2026-05-04T15:29:22Z</time></trkpt><trkpt lat="45.574612248954736" lon="15.943743438044427"><ele>148.0</ele><time>2026-05-04T15:29:23Z</time></trkpt><trkpt lat="45.57482985023496" lon="15.943700424532322"><ele>149.0</ele><time>2026-05-04T15:29:24Z</time></trkpt><trkpt lat="45.57503836187973" lon="15.94365886306084"><ele>150.0</ele><time>2026-05-04T15:29:25Z</time></trkpt><trkpt lat="45.57526272264048" lon="15.943619814022725"><ele>151.0</ele><time>2026-05-04T15:29:26Z</time></trkpt><trkpt lat="45.575492418725936" lon="15.943609280650094"><ele>151.0</ele><time>2026-05-04T15:29:27Z</time></trkpt><trkpt lat="45.57570798284205" lon="15.943626517017579"><ele>151.0</ele><time>2026-05-04T15:29:28Z</time></trkpt><trkpt lat="45.57591338512368" lon="15.943649803692301"><ele>151.0</ele><time>2026-05-04T15:29:29Z</time></trkpt><trkpt lat="45.57611332604801" lon="15.943646022292988"><ele>151.33333333333334</ele><time>2026-05-04T15:29:30Z</time></trkpt><trkpt lat="45.57631435404845" lon="15.943628910807599"><ele>151.66666666666666</ele><time>2026-05-04T15:29:31Z</time></trkpt><trkpt lat="45.576519123791975" lon="15.943597081066077"><ele>152.0</ele><time>2026-05-04T15:29:32Z</time></trkpt><trkpt lat="45.57672712947871" lon="15.943558303831002"><ele>152.0</ele><time>2026-05-04T15:29:33Z</time></trkpt><trkpt lat="45.5769396717533" lon="15.943520915701722"><ele>152.0</ele><time>2026-05-04T15:29:34Z</time></trkpt><trkpt lat="45.57714929023788" lon="15.943496872749728"><ele>152.0</ele><time>2026-05-04T15:29:35Z</time></trkpt><trkpt lat="45.577336950449435" lon="15.943481754269175"><ele>151.66666666666666</ele><time>2026-05-04T15:29:36Z</time></trkpt><trkpt lat="45.57751688588987" lon="15.943470255030752"><ele>151.33333333333334</ele><time>2026-05-04T15:29:37Z</time></trkpt><trkpt lat="45.577681201109556" lon="15.943468311610177"><ele>151.0</ele><time>2026-05-04T15:29:38Z</time></trkpt><trkpt lat="45.57783336228279" lon="15.94345663431148"><ele>150.25</ele><time>2026-05-04T15:29:39Z</time></trkpt><trkpt lat="45.57798034422601" lon="15.943444857285108"><ele>149.5</ele><time>2026-05-04T15:29:40Z</time></trkpt><trkpt lat="45.57812257113858" lon="15.943434403231153"><ele>148.75</ele><time>2026-05-04T15:29:41Z</time></trkpt><trkpt lat="45.57826335920688" lon="15.943429010476477"><ele>148.0</ele><time>2026-05-04T15:29:42Z</time></trkpt><trkpt lat="45.57841050212203" lon="15.943422312327742"><ele>148.0</ele><time>2026-05-04T15:29:43Z</time></trkpt><trkpt lat="45.578549970867435" lon="15.943408428507217"><ele>148.0</ele><time>2026-05-04T15:29:44Z</time></trkpt><trkpt lat="45.578676502832494" lon="15.943388873112008"><ele>148.0</ele><time>2026-05-04T15:29:45Z</time></trkpt><trkpt lat="45.57879254509597" lon="15.94337131606828"><ele>148.0</ele><time>2026-05-04T15:29:46Z</time></trkpt><trkpt lat="45.57890451063831" lon="15.943360184331395"><ele>149.0</ele><time>2026-05-04T15:29:47Z</time></trkpt><trkpt lat="45.5790322591117" lon="15.943353780935706"><ele>150.0</ele><time>2026-05-04T15:29:48Z</time></trkpt><trkpt lat="45.57917518457963" lon="15.943362018566086"><ele>151.0</ele><time>2026-05-04T15:29:49Z</time></trkpt><trkpt lat="45.579327592571104" lon="15.943390210324957"><ele>152.0</ele><time>2026-05-04T15:29:50Z</time></trkpt><trkpt lat="45.57948814471676" lon="15.943460095491924"><ele>155.0</ele><time>2026-05-04T15:29:51Z</time></trkpt><trkpt lat="45.579654785135716" lon="15.9435861807202"><ele>158.0</ele><time>2026-05-04T15:29:52Z</time></trkpt><trkpt lat="45.57981606203339" lon="15.943772712835875"><ele>161.0</ele><time>2026-05-04T15:29:53Z</time></trkpt><trkpt lat="45.57997543699357" lon="15.943984571641593"><ele>161.0</ele><time>2026-05-04T15:29:54Z</time></trkpt><trkpt lat="45.58011459893541" lon="15.94417552335157"><ele>161.0</ele><time>2026-05-04T15:29:55Z</time></trkpt><trkpt lat="45.580256039185045" lon="15.944381549897901"><ele>161.0</ele><time>2026-05-04T15:29:56Z</time></trkpt><trkpt lat="45.58040317750383" lon="15.94461447063628"><ele>160.5</ele><time>2026-05-04T15:29:57Z</time></trkpt><trkpt lat="45.580555334986094" lon="15.9448751493894"><ele>160.0</ele><time>2026-05-04T15:29:58Z</time></trkpt><trkpt lat="45.58071378348192" lon="15.945167541369393"><ele>160.0</ele><time>2026-05-04T15:29:59Z</time></trkpt><trkpt lat="45.580881548801095" lon="15.945498989021235"><ele>160.0</ele><time>2026-05-04T15:30:00Z</time></trkpt><trkpt lat="45.58104349397739" lon="15.945834046323796"><ele>162.5</ele><time>2026-05-04T15:30:01Z</time></trkpt><trkpt lat="45.58119185177671" lon="15.946166941086306"><ele>165.0</ele><time>2026-05-04T15:30:02Z</time></trkpt><trkpt lat="45.58132387080638" lon="15.946509962961612"><ele>164.5</ele><time>2026-05-04T15:30:03Z</time></trkpt><trkpt lat="45.58144633603147" lon="15.946840035681308"><ele>164.0</ele><time>2026-05-04T15:30:04Z</time></trkpt><trkpt lat="45.581561755707845" lon="15.947151127486002"><ele>164.0</ele><time>2026-05-04T15:30:05Z</time></trkpt><trkpt lat="45.58167821450335" lon="15.947458499346553"><ele>164.0</ele><time>2026-05-04T15:30:06Z</time></trkpt><trkpt lat="45.581790592133046" lon="15.947780634949389"><ele>163.0</ele><time>2026-05-04T15:30:07Z</time></trkpt><trkpt lat="45.58190119726625" lon="15.948133694699706"><ele>162.0</ele><time>2026-05-04T15:30:08Z</time></trkpt><trkpt lat="45.58200473393617" lon="15.948519488711478"><ele>166.5</ele><time>2026-05-04T15:30:09Z</time></trkpt><trkpt lat="45.58209925311957" lon="15.94890594963987"><ele>171.0</ele><time>2026-05-04T15:30:10Z</time></trkpt><trkpt lat="45.58218850960188" lon="15.949296523747362"><ele>171.0</ele><time>2026-05-04T15:30:11Z</time></trkpt><trkpt lat="45.5822737009748" lon="15.949683279348728"><ele>171.0</ele><time>2026-05-04T15:30:12Z</time></trkpt><trkpt lat="45.58235849001638" lon="15.95005633319485"><ele>170.0</ele><time>2026-05-04T15:30:13Z</time></trkpt><trkpt lat="45.582442202250874" lon="15.950429395246214"><ele>169.0</ele><time>2026-05-04T15:30:14Z</time></trkpt><trkpt lat="45.58252087912692" lon="15.950805290827622"><ele>168.0</ele><time>2026-05-04T15:30:15Z</time></trkpt><trkpt lat="45.58260593553321" lon="15.951177867347758"><ele>167.0</ele><time>2026-05-04T15:30:16Z</time></trkpt><trkpt lat="45.58268952873035" lon="15.951538735072557"><ele>168.0</ele><time>2026-05-04T15:30:17Z</time></trkpt><trkpt lat="45.58276931954686" lon="15.951874065479332"><ele>169.0</ele><time>2026-05-04T15:30:18Z</time></trkpt><trkpt lat="45.582842264097664" lon="15.952191325360744"><ele>171.0</ele><time>2026-05-04T15:30:19Z</time></trkpt><trkpt lat="45.58291139323433" lon="15.952506790673329"><ele>173.0</ele><time>2026-05-04T15:30:20Z</time></trkpt><trkpt lat="45.58297470513733" lon="15.952813475138782"><ele>173.0</ele><time>2026-05-04T15:30:21Z</time></trkpt><trkpt lat="45.58304386704839" lon="15.953072858848447"><ele>173.0</ele><time>2026-05-04T15:30:22Z</time></trkpt><trkpt lat="45.583140233571335" lon="15.953279105801176"><ele>173.0</ele><time>2026-05-04T15:30:23Z</time></trkpt><trkpt lat="45.583287133719665" lon="15.95345053965756"><ele>170.5</ele><time>2026-05-04T15:30:24Z</time></trkpt><trkpt lat="45.58349525923377" lon="15.953586596466147"><ele>168.0</ele><time>2026-05-04T15:30:25Z</time></trkpt><trkpt lat="45.583756529244255" lon="15.953723660264732"><ele>168.0</ele><time>2026-05-04T15:30:26Z</time></trkpt><trkpt lat="45.58402105198103" lon="15.953872539710044"><ele>168.0</ele><time>2026-05-04T15:30:27Z</time></trkpt><trkpt lat="45.58424870742812" lon="15.954011848409237"><ele>168.0</ele><time>2026-05-04T15:30:28Z</time></trkpt><trkpt lat="45.58444714774876" lon="15.954139079015778"><ele>168.0</ele><time>2026-05-04T15:30:29Z</time></trkpt><trkpt lat="45.58465507463826" lon="15.954286643777385"><ele>166.5</ele><time>2026-05-04T15:30:30Z</time></trkpt><trkpt lat="45.58485223788467" lon="15.954484195959738"><ele>165.0</ele><time>2026-05-04T15:30:31Z</time></trkpt><trkpt lat="45.58501984474014" lon="15.95473140191791"><ele>165.0</ele><time>2026-05-04T15:30:32Z</time></trkpt><trkpt lat="45.58517465698994" lon="15.95503634993882"><ele>165.0</ele><time>2026-05-04T15:30:33Z</time></trkpt><trkpt lat="45.58531778197126" lon="15.955395459019602"><ele>165.0</ele><time>2026-05-04T15:30:34Z</time></trkpt><trkpt lat="45.58546466289562" lon="15.955791023299508"><ele>165.0</ele><time>2026-05-04T15:30:35Z</time></trkpt><trkpt lat="45.58562536539762" lon="15.956202948222142"><ele>165.5</ele><time>2026-05-04T15:30:36Z</time></trkpt><trkpt lat="45.58577102998028" lon="15.956650141489302"><ele>166.0</ele><time>2026-05-04T15:30:37Z</time></trkpt><trkpt lat="45.58595683577965" lon="15.957052930419762"><ele>167.0</ele><time>2026-05-04T15:30:38Z</time></trkpt><trkpt lat="45.58612961957428" lon="15.957407377838326"><ele>168.0</ele><time>2026-05-04T15:30:39Z</time></trkpt><trkpt lat="45.58628426899721" lon="15.957729010604346"><ele>168.0</ele><time>2026-05-04T15:30:40Z</time></trkpt><trkpt lat="45.58643221593504" lon="15.958028104127512"><ele>168.0</ele><time>2026-05-04T15:30:41Z</time></trkpt><trkpt lat="45.586568684240085" lon="15.958291135967869"><ele>169.66666666666666</ele><time>2026-05-04T15:30:42Z</time></trkpt><trkpt lat="45.58668910809454" lon="15.958534919414499"><ele>171.33333333333331</ele><time>2026-05-04T15:30:43Z</time></trkpt><trkpt lat="45.586784755268106" lon="15.958783099492615"><ele>173.0</ele><time>2026-05-04T15:30:44Z</time></trkpt><trkpt lat="45.58682724944147" lon="15.959031466562749"><ele>174.0</ele><time>2026-05-04T15:30:45Z</time></trkpt><trkpt lat="45.58683557105963" lon="15.95932564204511"><ele>175.0</ele><time>2026-05-04T15:30:46Z</time></trkpt><trkpt lat="45.58683192702823" lon="15.959662709460657"><ele>176.0</ele><time>2026-05-04T15:30:47Z</time></trkpt><trkpt lat="45.586829127646496" lon="15.96002054022889"><ele>178.5</ele><time>2026-05-04T15:30:48Z</time></trkpt><trkpt lat="45.586855618342135" lon="15.96041739146902"><ele>181.0</ele><time>2026-05-04T15:30:49Z</time></trkpt><trkpt lat="45.58689212768552" lon="15.960794448758183"><ele>182.0</ele><time>2026-05-04T15:30:50Z</time></trkpt><trkpt lat="45.58693104540681" lon="15.961145045758084"><ele>183.0</ele><time>2026-05-04T15:30:51Z</time></trkpt><trkpt lat="45.586967484041324" lon="15.961468262592307"><ele>181.66666666666666</ele><time>2026-05-04T15:30:52Z</time></trkpt><trkpt lat="45.58700532517437" lon="15.96178332876795"><ele>180.33333333333331</ele><time>2026-05-04T15:30:53Z</time></trkpt><trkpt lat="45.587066087715634" lon="15.962069422720347"><ele>179.0</ele><time>2026-05-04T15:30:54Z</time></trkpt><trkpt lat="45.587138212173585" lon="15.962321786453673"><ele>177.33333333333331</ele><time>2026-05-04T15:30:55Z</time></trkpt><trkpt lat="45.587266633901365" lon="15.962558346183238"><ele>175.66666666666666</ele><time>2026-05-04T15:30:56Z</time></trkpt><trkpt lat="45.587446864978176" lon="15.962772711789926"><ele>174.0</ele><time>2026-05-04T15:30:57Z</time></trkpt><trkpt lat="45.58759820230233" lon="15.963025607456672"><ele>174.0</ele><time>2026-05-04T15:30:58Z</time></trkpt><trkpt lat="45.58773908225318" lon="15.963239775106782"><ele>174.0</ele><time>2026-05-04T15:30:59Z</time></trkpt><trkpt lat="45.58788392515549" lon="15.963417214472429"><ele>174.0</ele><time>2026-05-04T15:31:00Z</time></trkpt><trkpt lat="45.58804379967904" lon="15.963570840507792"><ele>174.5</ele><time>2026-05-04T15:31:01Z</time></trkpt><trkpt lat="45.58826502612268" lon="15.963671407292798"><ele>175.0</ele><time>2026-05-04T15:31:02Z</time></trkpt><trkpt lat="45.58851958913069" lon="15.963787761132046"><ele>175.5</ele><time>2026-05-04T15:31:03Z</time></trkpt><trkpt lat="45.58878615494958" lon="15.963900859323402"><ele>176.0</ele><time>2026-05-04T15:31:04Z</time></trkpt><trkpt lat="45.589034514728276" lon="15.96400335975382"><ele>176.0</ele><time>2026-05-04T15:31:05Z</time></trkpt><trkpt lat="45.589276577522675" lon="15.964063234463762"><ele>176.0</ele><time>2026-05-04T15:31:06Z</time></trkpt><trkpt lat="45.589505828370626" lon="15.964106952030027"><ele>177.33333333333331</ele><time>2026-05-04T15:31:07Z</time></trkpt><trkpt lat="45.58972993384924" lon="15.964117549280916"><ele>178.66666666666666</ele><time>2026-05-04T15:31:08Z</time></trkpt><trkpt lat="45.5899534938985" lon="15.964140321664317"><ele>180.0</ele><time>2026-05-04T15:31:09Z</time></trkpt><trkpt lat="45.59019094009734" lon="15.964144948439039"><ele>181.0</ele><time>2026-05-04T15:31:10Z</time></trkpt><trkpt lat="45.5904312390509" lon="15.964149054840762"><ele>182.0</ele><time>2026-05-04T15:31:11Z</time></trkpt><trkpt lat="45.59067301728853" lon="15.964157763631778"><ele>182.0</ele><time>2026-05-04T15:31:12Z</time></trkpt><trkpt lat="45.590887609080575" lon="15.964194841108679"><ele>182.0</ele><time>2026-05-04T15:31:13Z</time></trkpt><trkpt lat="45.59107897762183" lon="15.964247513342967"><ele>182.0</ele><time>2026-05-04T15:31:14Z</time></trkpt><trkpt lat="45.59124853967936" lon="15.96433858818895"><ele>181.66666666666666</ele><time>2026-05-04T15:31:15Z</time></trkpt><trkpt lat="45.59140524339249" lon="15.964464543431891"><ele>181.33333333333334</ele><time>2026-05-04T15:31:16Z</time></trkpt><trkpt lat="45.591525913122986" lon="15.964641356041417"><ele>181.0</ele><time>2026-05-04T15:31:17Z</time></trkpt><trkpt lat="45.59162609774919" lon="15.96486789859081"><ele>181.0</ele><time>2026-05-04T15:31:18Z</time></trkpt><trkpt lat="45.59172959838008" lon="15.9651112528379"><ele>181.0</ele><time>2026-05-04T15:31:19Z</time></trkpt><trkpt lat="45.59186607761729" lon="15.965333309463988"><ele>181.0</ele><time>2026-05-04T15:31:20Z</time></trkpt><trkpt lat="45.5920155327418" lon="15.965507297727669"><ele>182.33333333333334</ele><time>2026-05-04T15:31:21Z</time></trkpt><trkpt lat="45.592198507248106" lon="15.965631741203325"><ele>183.66666666666666</ele><time>2026-05-04T15:31:22Z</time></trkpt><trkpt lat="45.59240135547072" lon="15.965690060815954"><ele>185.0</ele><time>2026-05-04T15:31:23Z</time></trkpt><trkpt lat="45.59261686937502" lon="15.965706903490037"><ele>185.0</ele><time>2026-05-04T15:31:24Z</time></trkpt><trkpt lat="45.59283330697877" lon="15.96573972724649"><ele>185.0</ele><time>2026-05-04T15:31:25Z</time></trkpt><trkpt lat="45.59302255344362" lon="15.965775179820609"><ele>185.0</ele><time>2026-05-04T15:31:26Z</time></trkpt><trkpt lat="45.5932166297736" lon="15.96581214577157"><ele>186.0</ele><time>2026-05-04T15:31:27Z</time></trkpt><trkpt lat="45.59341382977957" lon="15.965844988278329"><ele>187.0</ele><time>2026-05-04T15:31:28Z</time></trkpt><trkpt lat="45.59359385941319" lon="15.965885194071715"><ele>188.0</ele><time>2026-05-04T15:31:29Z</time></trkpt><trkpt lat="45.59374623772999" lon="15.965949559063796"><ele>189.33333333333331</ele><time>2026-05-04T15:31:30Z</time></trkpt><trkpt lat="45.593888295609595" lon="15.966057264449436"><ele>190.66666666666666</ele><time>2026-05-04T15:31:31Z</time></trkpt><trkpt lat="45.59402112548047" lon="15.966184706939076"><ele>192.0</ele><time>2026-05-04T15:31:32Z</time></trkpt><trkpt lat="45.59415038249807" lon="15.96631930978225"><ele>192.0</ele><time>2026-05-04T15:31:33Z</time></trkpt><trkpt lat="45.59427005391834" lon="15.966469291430972"><ele>192.0</ele><time>2026-05-04T15:31:34Z</time></trkpt><trkpt lat="45.59436812708802" lon="15.966662358370836"><ele>192.0</ele><time>2026-05-04T15:31:35Z</time></trkpt><trkpt lat="45.594448090946536" lon="15.96688682419262"><ele>193.0</ele><time>2026-05-04T15:31:36Z</time></trkpt><trkpt lat="45.59453310985068" lon="15.967137640145976"><ele>194.0</ele><time>2026-05-04T15:31:37Z</time></trkpt><trkpt lat="45.59464323155653" lon="15.967347134806202"><ele>195.0</ele><time>2026-05-04T15:31:38Z</time></trkpt><trkpt lat="45.5947760774041" lon="15.967543406855178"><ele>195.0</ele><time>2026-05-04T15:31:39Z</time></trkpt><trkpt lat="45.59493987447639" lon="15.967704026351237"><ele>195.0</ele><time>2026-05-04T15:31:40Z</time></trkpt><trkpt lat="45.59509785377043" lon="15.967838067013556"><ele>195.0</ele><time>2026-05-04T15:31:41Z</time></trkpt><trkpt lat="45.595272264757455" lon="15.967900108851797"><ele>197.0</ele><time>2026-05-04T15:31:42Z</time></trkpt><trkpt lat="45.5954595294395" lon="15.967918238197596"><ele>199.0</ele><time>2026-05-04T15:31:43Z</time></trkpt><trkpt lat="45.59566115925246" lon="15.967905495608445"><ele>201.0</ele><time>2026-05-04T15:31:44Z</time></trkpt><trkpt lat="45.59587874919011" lon="15.967911734255726"><ele>201.0</ele><time>2026-05-04T15:31:45Z</time></trkpt><trkpt lat="45.59608102930071" lon="15.967901044937767"><ele>201.0</ele><time>2026-05-04T15:31:46Z</time></trkpt><trkpt lat="45.596259218791076" lon="15.967884668997286"><ele>201.0</ele><time>2026-05-04T15:31:47Z</time></trkpt><trkpt lat="45.59643239198817" lon="15.967823059692591"><ele>202.0</ele><time>2026-05-04T15:31:48Z</time></trkpt><trkpt lat="45.59658206443688" lon="15.967714790611852"><ele>203.0</ele><time>2026-05-04T15:31:49Z</time></trkpt><trkpt lat="45.596717364791594" lon="15.967561813419632"><ele>204.0</ele><time>2026-05-04T15:31:50Z</time></trkpt><trkpt lat="45.596862475012784" lon="15.967339350072288"><ele>198.5</ele><time>2026-05-04T15:31:51Z</time></trkpt><trkpt lat="45.59700983935978" lon="15.96704658200349"><ele>193.0</ele><time>2026-05-04T15:31:52Z</time></trkpt><trkpt lat="45.59719461894521" lon="15.96673321340899"><ele>194.0</ele><time>2026-05-04T15:31:53Z</time></trkpt><trkpt lat="45.597358772323076" lon="15.966413383010043"><ele>195.0</ele><time>2026-05-04T15:31:54Z</time></trkpt><trkpt lat="45.597510770904734" lon="15.966115445141261"><ele>193.5</ele><time>2026-05-04T15:31:55Z</time></trkpt><trkpt lat="45.59766588796655" lon="15.9658523459032"><ele>192.0</ele><time>2026-05-04T15:31:56Z</time></trkpt><trkpt lat="45.597826171354825" lon="15.965636673624072"><ele>192.66666666666669</ele><time>2026-05-04T15:31:57Z</time></trkpt><trkpt lat="45.59798608626822" lon="15.965429289302097"><ele>193.33333333333334</ele><time>2026-05-04T15:31:58Z</time></trkpt><trkpt lat="45.59814788770026" lon="15.965221956920553"><ele>194.0</ele><time>2026-05-04T15:31:59Z</time></trkpt><trkpt lat="45.59831295049309" lon="15.96500678502438"><ele>194.0</ele><time>2026-05-04T15:32:00Z</time></trkpt><trkpt lat="45.598474979490916" lon="15.964799728694054"><ele>194.0</ele><time>2026-05-04T15:32:01Z</time></trkpt><trkpt lat="45.59863831915498" lon="15.964590289353286"><ele>194.0</ele><time>2026-05-04T15:32:02Z</time></trkpt><trkpt lat="45.5988098120742" lon="15.964377299128227"><ele>193.5</ele><time>2026-05-04T15:32:03Z</time></trkpt><trkpt lat="45.599021562402775" lon="15.964215669342696"><ele>193.0</ele><time>2026-05-04T15:32:04Z</time></trkpt><trkpt lat="45.59924034802943" lon="15.964044205709106"><ele>193.0</ele><time>2026-05-04T15:32:05Z</time></trkpt><trkpt lat="45.599455680270495" lon="15.963874001791549"><ele>193.0</ele><time>2026-05-04T15:32:06Z</time></trkpt><trkpt lat="45.59965830010864" lon="15.963727660834566"><ele>192.66666666666666</ele><time>2026-05-04T15:32:07Z</time></trkpt><trkpt lat="45.59985390021387" lon="15.963634446576318"><ele>192.33333333333331</ele><time>2026-05-04T15:32:08Z</time></trkpt><trkpt lat="45.60005064877245" lon="15.963600963805796"><ele>192.0</ele><time>2026-05-04T15:32:09Z</time></trkpt><trkpt lat="45.600244852310155" lon="15.96361295588751"><ele>190.33333333333334</ele><time>2026-05-04T15:32:10Z</time></trkpt><trkpt lat="45.60042767381253" lon="15.963620567819216"><ele>188.66666666666669</ele><time>2026-05-04T15:32:11Z</time></trkpt><trkpt lat="45.60060659009842" lon="15.963627104126243"><ele>187.0</ele><time>2026-05-04T15:32:12Z</time></trkpt><trkpt lat="45.600771758200445" lon="15.963624671102176"><ele>187.0</ele><time>2026-05-04T15:32:13Z</time></trkpt><trkpt lat="45.60093394776251" lon="15.963628457177448"><ele>187.0</ele><time>2026-05-04T15:32:14Z</time></trkpt><trkpt lat="45.601100655733084" lon="15.963657943580072"><ele>187.0</ele><time>2026-05-04T15:32:15Z</time></trkpt><trkpt lat="45.601261631707594" lon="15.963724024652873"><ele>185.33333333333334</ele><time>2026-05-04T15:32:16Z</time></trkpt><trkpt lat="45.60142507011663" lon="15.963863150058382"><ele>183.66666666666666</ele><time>2026-05-04T15:32:17Z</time></trkpt><trkpt lat="45.60159998223858" lon="15.964039827793078"><ele>182.0</ele><time>2026-05-04T15:32:18Z</time></trkpt><trkpt lat="45.60177177491342" lon="15.964209467107967"><ele>179.0</ele><time>2026-05-04T15:32:19Z</time></trkpt><trkpt lat="45.60192542457913" lon="15.964360404168945"><ele>176.0</ele><time>2026-05-04T15:32:20Z</time></trkpt><trkpt lat="45.602020628470534" lon="15.964551115616313"><ele>173.0</ele><time>2026-05-04T15:32:21Z</time></trkpt><trkpt lat="45.60209876448424" lon="15.96471193277453"><ele>173.0</ele><time>2026-05-04T15:32:22Z</time></trkpt><trkpt lat="45.60217815568839" lon="15.964855848349343"><ele>173.0</ele><time>2026-05-04T15:32:23Z</time></trkpt><trkpt lat="45.60223122495737" lon="15.964967829880278"><ele>173.0</ele><time>2026-05-04T15:32:24Z</time></trkpt><trkpt lat="45.60229652867123" lon="15.965024878920653"><ele>173.0</ele><time>2026-05-04T15:32:25Z</time></trkpt><trkpt lat="45.60235798456066" lon="15.96506086161948"><ele>173.0</ele><time>2026-05-04T15:32:26Z</time></trkpt><trkpt lat="45.602450689156704" lon="15.964978258911854"><ele>173.0</ele><time>2026-05-04T15:32:27Z</time></trkpt><trkpt lat="45.60250053861915" lon="15.964797870823215"><ele>173.0</ele><time>2026-05-04T15:32:28Z</time></trkpt><trkpt lat="45.60253664037832" lon="15.964594534177277"><ele>173.0</ele><time>2026-05-04T15:32:29Z</time></trkpt><trkpt lat="45.602592136034545" lon="15.964316056518284"><ele>173.0</ele><time>2026-05-04T15:32:30Z</time></trkpt><trkpt lat="45.60262707031608" lon="15.964017809122176"><ele>173.0</ele><time>2026-05-04T15:32:31Z</time></trkpt><trkpt lat="45.602655409571405" lon="15.9637521766483"><ele>173.0</ele><time>2026-05-04T15:32:32Z</time></trkpt><trkpt lat="45.60273343609295" lon="15.963549144000947"><ele>173.8</ele><time>2026-05-04T15:32:33Z</time></trkpt><trkpt lat="45.60279798632589" lon="15.963363897960978"><ele>174.60000000000002</ele><time>2026-05-04T15:32:34Z</time></trkpt><trkpt lat="45.60285603280423" lon="15.96321498494422"><ele>175.39999999999998</ele><time>2026-05-04T15:32:35Z</time></trkpt><trkpt lat="45.60290665193768" lon="15.963105415466798"><ele>176.2</ele><time>2026-05-04T15:32:36Z</time></trkpt><trkpt lat="45.602966172803725" lon="15.963057156163224"><ele>177.0</ele><time>2026-05-04T15:32:37Z</time></trkpt><trkpt lat="45.60303318325729" lon="15.96302672410898"><ele>173.4</ele><time>2026-05-04T15:32:38Z</time></trkpt><trkpt lat="45.603102181850346" lon="15.96304231408395"><ele>169.79999999999998</ele><time>2026-05-04T15:32:39Z</time></trkpt><trkpt lat="45.603134253678725" lon="15.963165902548216"><ele>166.2</ele><time>2026-05-04T15:32:40Z</time></trkpt><trkpt lat="45.603139523498385" lon="15.963290432571384"><ele>162.6</ele><time>2026-05-04T15:32:41Z</time></trkpt><trkpt lat="45.60307771633351" lon="15.963399000284744"><ele>159.0</ele><time>2026-05-04T15:32:42Z</time></trkpt><trkpt lat="45.603002721251556" lon="15.963504479861847"><ele>158.25</ele><time>2026-05-04T15:32:43Z</time></trkpt><trkpt lat="45.60294409531387" lon="15.963648957130065"><ele>157.5</ele><time>2026-05-04T15:32:44Z</time></trkpt><trkpt lat="45.60293437027158" lon="15.963822082508722"><ele>156.75</ele><time>2026-05-04T15:32:45Z</time></trkpt><trkpt lat="45.60295605864855" lon="15.964023515850393"><ele>156.0</ele><time>2026-05-04T15:32:46Z</time></trkpt><trkpt lat="45.6030229228246" lon="15.964253163094757"><ele>156.0</ele><time>2026-05-04T15:32:47Z</time></trkpt><trkpt lat="45.60308204105437" lon="15.964518864755924"><ele>156.0</ele><time>2026-05-04T15:32:48Z</time></trkpt><trkpt lat="45.60313788320583" lon="15.964804316551277"><ele>156.0</ele><time>2026-05-04T15:32:49Z</time></trkpt><trkpt lat="45.60321197091082" lon="15.965081115143972"><ele>154.66666666666666</ele><time>2026-05-04T15:32:50Z</time></trkpt><trkpt lat="45.603308835458144" lon="15.965306159822193"><ele>153.33333333333331</ele><time>2026-05-04T15:32:51Z</time></trkpt><trkpt lat="45.603393444997025" lon="15.965501261011237"><ele>152.0</ele><time>2026-05-04T15:32:52Z</time></trkpt><trkpt lat="45.60344021879203" lon="15.965668340915638"><ele>152.0</ele><time>2026-05-04T15:32:53Z</time></trkpt><trkpt lat="45.60344839152553" lon="15.965830201365582"><ele>152.0</ele><time>2026-05-04T15:32:54Z</time></trkpt><trkpt lat="45.60343069738022" lon="15.96599258055901"><ele>152.0</ele><time>2026-05-04T15:32:55Z</time></trkpt><trkpt lat="45.60341802530125" lon="15.966165766630589"><ele>152.0</ele><time>2026-05-04T15:32:56Z</time></trkpt><trkpt lat="45.603445494042504" lon="15.9663302350361"><ele>150.5</ele><time>2026-05-04T15:32:57Z</time></trkpt><trkpt lat="45.60350797706762" lon="15.966466429374227"><ele>149.0</ele><time>2026-05-04T15:32:58Z</time></trkpt><trkpt lat="45.603618849081236" lon="15.966553827363304"><ele>147.5</ele><time>2026-05-04T15:32:59Z</time></trkpt><trkpt lat="45.603759748289576" lon="15.966584404646088"><ele>146.0</ele><time>2026-05-04T15:33:00Z</time></trkpt><trkpt lat="45.60393705195277" lon="15.9666289288779"><ele>141.5</ele><time>2026-05-04T15:33:01Z</time></trkpt><trkpt lat="45.60416398627889" lon="15.966675183541438"><ele>137.0</ele><time>2026-05-04T15:33:02Z</time></trkpt><trkpt lat="45.60443804161692" lon="15.966719825353836"><ele>138.0</ele><time>2026-05-04T15:33:03Z</time></trkpt><trkpt lat="45.60474084340645" lon="15.966770652725181"><ele>139.0</ele><time>2026-05-04T15:33:04Z</time></trkpt><trkpt lat="45.60505053954249" lon="15.966852619512599"><ele>141.5</ele><time>2026-05-04T15:33:05Z</time></trkpt><trkpt lat="45.605336801839975" lon="15.966980729096107"><ele>144.0</ele><time>2026-05-04T15:33:06Z</time></trkpt><trkpt lat="45.6056133517049" lon="15.967109839961529"><ele>144.0</ele><time>2026-05-04T15:33:07Z</time></trkpt><trkpt lat="45.605863144222184" lon="15.96721141965624"><ele>144.0</ele><time>2026-05-04T15:33:08Z</time></trkpt><trkpt lat="45.606094843732386" lon="15.967291458177602"><ele>147.0</ele><time>2026-05-04T15:33:09Z</time></trkpt><trkpt lat="45.60631095911" lon="15.967343103902497"><ele>150.0</ele><time>2026-05-04T15:33:10Z</time></trkpt><trkpt lat="45.60649726776204" lon="15.967355383219084"><ele>153.0</ele><time>2026-05-04T15:33:11Z</time></trkpt><trkpt lat="45.60664094040932" lon="15.967401082418982"><ele>153.0</ele><time>2026-05-04T15:33:12Z</time></trkpt><trkpt lat="45.606765095139714" lon="15.967304407617668"><ele>153.0</ele><time>2026-05-04T15:33:13Z</time></trkpt><trkpt lat="45.60687865003097" lon="15.967158904761718"><ele>153.0</ele><time>2026-05-04T15:33:14Z</time></trkpt><trkpt lat="45.60699433718424" lon="15.966971024685026"><ele>157.0</ele><time>2026-05-04T15:33:15Z</time></trkpt><trkpt lat="45.6071362408608" lon="15.966828392977426"><ele>161.0</ele><time>2026-05-04T15:33:16Z</time></trkpt><trkpt lat="45.60730076640535" lon="15.966777585294823"><ele>165.0</ele><time>2026-05-04T15:33:17Z</time></trkpt><trkpt lat="45.607475926729585" lon="15.966817932270173"><ele>165.0</ele><time>2026-05-04T15:33:18Z</time></trkpt><trkpt lat="45.607642870428016" lon="15.966924010937477"><ele>165.0</ele><time>2026-05-04T15:33:19Z</time></trkpt><trkpt lat="45.607797489270304" lon="15.967029807946389"><ele>165.0</ele><time>2026-05-04T15:33:20Z</time></trkpt><trkpt lat="45.6079638111556" lon="15.96707571353214"><ele>166.33333333333334</ele><time>2026-05-04T15:33:21Z</time></trkpt><trkpt lat="45.60814553174419" lon="15.967056636713558"><ele>167.66666666666669</ele><time>2026-05-04T15:33:22Z</time></trkpt><trkpt lat="45.60833897220049" lon="15.966990572519975"><ele>169.0</ele><time>2026-05-04T15:33:23Z</time></trkpt><trkpt lat="45.60853884768649" lon="15.966900703111849"><ele>169.0</ele><time>2026-05-04T15:33:24Z</time></trkpt><trkpt lat="45.608754121484324" lon="15.96676677779299"><ele>169.0</ele><time>2026-05-04T15:33:25Z</time></trkpt><trkpt lat="45.60897931025129" lon="15.966643666098458"><ele>171.33333333333334</ele><time>2026-05-04T15:33:26Z</time></trkpt><trkpt lat="45.60919511692884" lon="15.966545391740226"><ele>173.66666666666666</ele><time>2026-05-04T15:33:27Z</time></trkpt><trkpt lat="45.60939532762089" lon="15.966470993784956"><ele>176.0</ele><time>2026-05-04T15:33:28Z</time></trkpt><trkpt lat="45.60958430151581" lon="15.966397363731712"><ele>176.66666666666666</ele><time>2026-05-04T15:33:29Z</time></trkpt><trkpt lat="45.609753329658325" lon="15.966330719752486"><ele>177.33333333333334</ele><time>2026-05-04T15:33:30Z</time></trkpt><trkpt lat="45.60991296932322" lon="15.966282077925095"><ele>178.0</ele><time>2026-05-04T15:33:31Z</time></trkpt><trkpt lat="45.610061512437916" lon="15.966252148120507"><ele>178.0</ele><time>2026-05-04T15:33:32Z</time></trkpt><trkpt lat="45.61020009084185" lon="15.966216615387347"><ele>178.0</ele><time>2026-05-04T15:33:33Z</time></trkpt><trkpt lat="45.610336443830086" lon="15.966160971027024"><ele>178.0</ele><time>2026-05-04T15:33:34Z</time></trkpt><trkpt lat="45.61046657874739" lon="15.966082562437688"><ele>178.0</ele><time>2026-05-04T15:33:35Z</time></trkpt><trkpt lat="45.610599754699265" lon="15.965981342827925"><ele>178.33333333333334</ele><time>2026-05-04T15:33:36Z</time></trkpt><trkpt lat="45.610741719098634" lon="15.965870725334392"><ele>178.66666666666666</ele><time>2026-05-04T15:33:37Z</time></trkpt><trkpt lat="45.61089601874239" lon="15.965763108864252"><ele>179.0</ele><time>2026-05-04T15:33:38Z</time></trkpt><trkpt lat="45.61105618942907" lon="15.965665788469023"><ele>181.0</ele><time>2026-05-04T15:33:39Z</time></trkpt><trkpt lat="45.61123660552813" lon="15.965588327586325"><ele>183.0</ele><time>2026-05-04T15:33:40Z</time></trkpt><trkpt lat="45.61143328111365" lon="15.96552844343482"><ele>185.0</ele><time>2026-05-04T15:33:41Z</time></trkpt><trkpt lat="45.61163023260052" lon="15.965464049366071"><ele>185.0</ele><time>2026-05-04T15:33:42Z</time></trkpt><trkpt lat="45.61182124258147" lon="15.96539151143027"><ele>185.0</ele><time>2026-05-04T15:33:43Z</time></trkpt><trkpt lat="45.61199978335878" lon="15.965289325566689"><ele>185.0</ele><time>2026-05-04T15:33:44Z</time></trkpt><trkpt lat="45.61215167982604" lon="15.965148791518457"><ele>186.0</ele><time>2026-05-04T15:33:45Z</time></trkpt><trkpt lat="45.61227676230712" lon="15.96499110749942"><ele>187.0</ele><time>2026-05-04T15:33:46Z</time></trkpt><trkpt lat="45.61238165761246" lon="15.964834387073754"><ele>188.0</ele><time>2026-05-04T15:33:47Z</time></trkpt><trkpt lat="45.61247833653172" lon="15.964698749735478"><ele>188.0</ele><time>2026-05-04T15:33:48Z</time></trkpt><trkpt lat="45.61259168560805" lon="15.96456716768283"><ele>188.0</ele><time>2026-05-04T15:33:49Z</time></trkpt><trkpt lat="45.612735977331084" lon="15.964442914101912"><ele>188.0</ele><time>2026-05-04T15:33:50Z</time></trkpt><trkpt lat="45.612914490208276" lon="15.964344334373921"><ele>187.33333333333331</ele><time>2026-05-04T15:33:51Z</time></trkpt><trkpt lat="45.613103429102985" lon="15.96426635834402"><ele>186.66666666666666</ele><time>2026-05-04T15:33:52Z</time></trkpt><trkpt lat="45.61327428919731" lon="15.964223161291443"><ele>186.0</ele><time>2026-05-04T15:33:53Z</time></trkpt><trkpt lat="45.613426032783245" lon="15.964196979820766"><ele>187.25</ele><time>2026-05-04T15:33:54Z</time></trkpt><trkpt lat="45.61355790436095" lon="15.964187171403234"><ele>188.5</ele><time>2026-05-04T15:33:55Z</time></trkpt><trkpt lat="45.61367528606547" lon="15.96418390017794"><ele>189.75</ele><time>2026-05-04T15:33:56Z</time></trkpt><trkpt lat="45.613802610689945" lon="15.964182471237018"><ele>191.0</ele><time>2026-05-04T15:33:57Z</time></trkpt><trkpt lat="45.613943304221635" lon="15.96418876926913"><ele>189.75</ele><time>2026-05-04T15:33:58Z</time></trkpt><trkpt lat="45.614097775180305" lon="15.964202963527141"><ele>188.5</ele><time>2026-05-04T15:33:59Z</time></trkpt><trkpt lat="45.61423028500483" lon="15.964219473183807"><ele>187.25</ele><time>2026-05-04T15:34:00Z</time></trkpt><trkpt lat="45.61434620862127" lon="15.964229855590666"><ele>186.0</ele><time>2026-05-04T15:34:01Z</time></trkpt><trkpt lat="45.61445308617604" lon="15.964237016366923"><ele>187.20000000000002</ele><time>2026-05-04T15:34:02Z</time></trkpt><trkpt lat="45.61455375750523" lon="15.964238947592708"><ele>188.4</ele><time>2026-05-04T15:34:03Z</time></trkpt><trkpt lat="45.61465540885462" lon="15.96424099198732"><ele>189.6</ele><time>2026-05-04T15:34:04Z</time></trkpt><trkpt lat="45.61476729744185" lon="15.964264224677324"><ele>190.8</ele><time>2026-05-04T15:34:05Z</time></trkpt><trkpt lat="45.614885931941664" lon="15.96428953583084"><ele>192.0</ele><time>2026-05-04T15:34:06Z</time></trkpt><trkpt lat="45.614994409157106" lon="15.96431456750583"><ele>192.0</ele><time>2026-05-04T15:34:07Z</time></trkpt><trkpt lat="45.6151020960299" lon="15.964334693761753"><ele>192.0</ele><time>2026-05-04T15:34:08Z</time></trkpt><trkpt lat="45.61521836979853" lon="15.964317868461714"><ele>192.0</ele><time>2026-05-04T15:34:09Z</time></trkpt><trkpt lat="45.615332908586666" lon="15.964236391871616"><ele>192.0</ele><time>2026-05-04T15:34:10Z</time></trkpt><trkpt lat="45.61544827939725" lon="15.964119406887347"><ele>192.5</ele><time>2026-05-04T15:34:11Z</time></trkpt><trkpt lat="45.615550342870506" lon="15.963958801234964"><ele>193.0</ele><time>2026-05-04T15:34:12Z</time></trkpt><trkpt lat="45.615622021303224" lon="15.963772409611597"><ele>193.5</ele><time>2026-05-04T15:34:13Z</time></trkpt><trkpt lat="45.6156903879165" lon="15.963591192143804"><ele>194.0</ele><time>2026-05-04T15:34:14Z</time></trkpt><trkpt lat="45.61578102938789" lon="15.963443478812994"><ele>194.33333333333334</ele><time>2026-05-04T15:34:15Z</time></trkpt><trkpt lat="45.61590389208987" lon="15.963330795752972"><ele>194.66666666666669</ele><time>2026-05-04T15:34:16Z</time></trkpt><trkpt lat="45.61605643269677" lon="15.96327004222086"><ele>195.0</ele><time>2026-05-04T15:34:17Z</time></trkpt><trkpt lat="45.61622021785263" lon="15.963229244829513"><ele>196.0</ele><time>2026-05-04T15:34:18Z</time></trkpt><trkpt lat="45.61640291223517" lon="15.963172246496885"><ele>197.0</ele><time>2026-05-04T15:34:19Z</time></trkpt><trkpt lat="45.61660643495117" lon="15.963114092322822"><ele>198.0</ele><time>2026-05-04T15:34:20Z</time></trkpt><trkpt lat="45.61681706314315" lon="15.963062313648592"><ele>199.33333333333331</ele><time>2026-05-04T15:34:21Z</time></trkpt><trkpt lat="45.61702579674565" lon="15.963014932979284"><ele>200.66666666666666</ele><time>2026-05-04T15:34:22Z</time></trkpt><trkpt lat="45.61722088754186" lon="15.962959067680135"><ele>202.0</ele><time>2026-05-04T15:34:23Z</time></trkpt><trkpt lat="45.61739046882822" lon="15.96289579584801"><ele>202.0</ele><time>2026-05-04T15:34:24Z</time></trkpt><trkpt lat="45.61754568602109" lon="15.962825185235383"><ele>202.0</ele><time>2026-05-04T15:34:25Z</time></trkpt><trkpt lat="45.61769006118146" lon="15.962757299824288"><ele>202.0</ele><time>2026-05-04T15:34:26Z</time></trkpt><trkpt lat="45.61782855678948" lon="15.962683196101178"><ele>202.25</ele><time>2026-05-04T15:34:27Z</time></trkpt><trkpt lat="45.61795560676181" lon="15.962607383442297"><ele>202.5</ele><time>2026-05-04T15:34:28Z</time></trkpt><trkpt lat="45.618067153357806" lon="15.96249508658378"><ele>202.75</ele><time>2026-05-04T15:34:29Z</time></trkpt><trkpt lat="45.618158852420166" lon="15.962337031363123"><ele>203.0</ele><time>2026-05-04T15:34:30Z</time></trkpt><trkpt lat="45.618228561669405" lon="15.962124101972329"><ele>204.66666666666669</ele><time>2026-05-04T15:34:31Z</time></trkpt><trkpt lat="45.61829819508809" lon="15.96188752805943"><ele>206.33333333333331</ele><time>2026-05-04T15:34:32Z</time></trkpt><trkpt lat="45.618368056025226" lon="15.961660342797625"><ele>208.0</ele><time>2026-05-04T15:34:33Z</time></trkpt><trkpt lat="45.61844197638286" lon="15.961434071851906"><ele>208.33333333333331</ele><time>2026-05-04T15:34:34Z</time></trkpt><trkpt lat="45.61852189064327" lon="15.961208738247798"><ele>208.66666666666669</ele><time>2026-05-04T15:34:35Z</time></trkpt><trkpt lat="45.61860646829169" lon="15.960989200845582"><ele>209.0</ele><time>2026-05-04T15:34:36Z</time></trkpt><trkpt lat="45.61871123015732" lon="15.960783071577518"><ele>209.0</ele><time>2026-05-04T15:34:37Z</time></trkpt><trkpt lat="45.61884699021195" lon="15.960603169252229"><ele>209.0</ele><time>2026-05-04T15:34:38Z</time></trkpt><trkpt lat="45.61901250885316" lon="15.960463482131994"><ele>209.0</ele><time>2026-05-04T15:34:39Z</time></trkpt><trkpt lat="45.61919521260825" lon="15.960333811447216"><ele>209.0</ele><time>2026-05-04T15:34:40Z</time></trkpt><trkpt lat="45.61937945482042" lon="15.960252514413087"><ele>209.0</ele><time>2026-05-04T15:34:41Z</time></trkpt><trkpt lat="45.6195696272034" lon="15.96021180551766"><ele>209.0</ele><time>2026-05-04T15:34:42Z</time></trkpt><trkpt lat="45.61976534480283" lon="15.960215261572978"><ele>209.0</ele><time>2026-05-04T15:34:43Z</time></trkpt><trkpt lat="45.61997711846029" lon="15.960232581609626"><ele>209.0</ele><time>2026-05-04T15:34:44Z</time></trkpt><trkpt lat="45.620184038452216" lon="15.960255740737773"><ele>209.0</ele><time>2026-05-04T15:34:45Z</time></trkpt><trkpt lat="45.62036686959621" lon="15.960269217089849"><ele>209.0</ele><time>2026-05-04T15:34:46Z</time></trkpt><trkpt lat="45.62053435129314" lon="15.960265751467656"><ele>209.0</ele><time>2026-05-04T15:34:47Z</time></trkpt><trkpt lat="45.62069299592757" lon="15.960252743091036"><ele>209.0</ele><time>2026-05-04T15:34:48Z</time></trkpt><trkpt lat="45.62084245968978" lon="15.96022123910168"><ele>209.0</ele><time>2026-05-04T15:34:49Z</time></trkpt><trkpt lat="45.6210010840719" lon="15.960150023047188"><ele>209.0</ele><time>2026-05-04T15:34:50Z</time></trkpt><trkpt lat="45.62116068079721" lon="15.960026382937464"><ele>209.0</ele><time>2026-05-04T15:34:51Z</time></trkpt><trkpt lat="45.621321199380944" lon="15.95986379412531"><ele>213.0</ele><time>2026-05-04T15:34:52Z</time></trkpt><trkpt lat="45.62147667004969" lon="15.959696008638042"><ele>217.0</ele><time>2026-05-04T15:34:53Z</time></trkpt><trkpt lat="45.62163918401934" lon="15.959554499750139"><ele>221.0</ele><time>2026-05-04T15:34:54Z</time></trkpt><trkpt lat="45.62181407591346" lon="15.95943907215728"><ele>220.66666666666669</ele><time>2026-05-04T15:34:55Z</time></trkpt><trkpt lat="45.621988143658044" lon="15.959352407663344"><ele>220.33333333333331</ele><time>2026-05-04T15:34:56Z</time></trkpt><trkpt lat="45.622165180450374" lon="15.959292888864143"><ele>220.0</ele><time>2026-05-04T15:34:57Z</time></trkpt><trkpt lat="45.622340147789046" lon="15.959257426752703"><ele>220.0</ele><time>2026-05-04T15:34:58Z</time></trkpt><trkpt lat="45.622510018747484" lon="15.95923037307732"><ele>220.0</ele><time>2026-05-04T15:34:59Z</time></trkpt><trkpt lat="45.62267550157707" lon="15.959210779641992"><ele>220.0</ele><time>2026-05-04T15:35:00Z</time></trkpt><trkpt lat="45.622834148935176" lon="15.959187436708055"><ele>220.33333333333331</ele><time>2026-05-04T15:35:01Z</time></trkpt><trkpt lat="45.62299656800065" lon="15.959142960122936"><ele>220.66666666666669</ele><time>2026-05-04T15:35:02Z</time></trkpt><trkpt lat="45.62316683576035" lon="15.959079551596378"><ele>221.0</ele><time>2026-05-04T15:35:03Z</time></trkpt><trkpt lat="45.623340709591346" lon="15.958996551202997"><ele>221.0</ele><time>2026-05-04T15:35:04Z</time></trkpt><trkpt lat="45.623526520704964" lon="15.95891133748311"><ele>221.0</ele><time>2026-05-04T15:35:05Z</time></trkpt><trkpt lat="45.62372017640525" lon="15.95882510408607"><ele>221.0</ele><time>2026-05-04T15:35:06Z</time></trkpt><trkpt lat="45.62391282783472" lon="15.958743118455924"><ele>221.33333333333334</ele><time>2026-05-04T15:35:07Z</time></trkpt><trkpt lat="45.624087190412354" lon="15.958651110348177"><ele>221.66666666666669</ele><time>2026-05-04T15:35:08Z</time></trkpt><trkpt lat="45.62425416942677" lon="15.95853163387286"><ele>222.0</ele><time>2026-05-04T15:35:09Z</time></trkpt><trkpt lat="45.62442804270441" lon="15.95838277483201"><ele>223.33333333333331</ele><time>2026-05-04T15:35:10Z</time></trkpt><trkpt lat="45.62462001196103" lon="15.958241977189498"><ele>224.66666666666666</ele><time>2026-05-04T15:35:11Z</time></trkpt><trkpt lat="45.624835492197164" lon="15.958148212035464"><ele>226.0</ele><time>2026-05-04T15:35:12Z</time></trkpt><trkpt lat="45.62505097189887" lon="15.958112608701411"><ele>226.0</ele><time>2026-05-04T15:35:13Z</time></trkpt><trkpt lat="45.625265171240564" lon="15.95809282960314"><ele>226.0</ele><time>2026-05-04T15:35:14Z</time></trkpt><trkpt lat="45.625470495978334" lon="15.95806595152519"><ele>226.0</ele><time>2026-05-04T15:35:15Z</time></trkpt><trkpt lat="45.62566138548264" lon="15.95804330392992"><ele>226.66666666666666</ele><time>2026-05-04T15:35:16Z</time></trkpt><trkpt lat="45.62584738009939" lon="15.958040162417497"><ele>227.33333333333331</ele><time>2026-05-04T15:35:17Z</time></trkpt><trkpt lat="45.62602794152135" lon="15.958058108948238"><ele>228.0</ele><time>2026-05-04T15:35:18Z</time></trkpt><trkpt lat="45.626196128922075" lon="15.958078265823408"><ele>229.66666666666669</ele><time>2026-05-04T15:35:19Z</time></trkpt><trkpt lat="45.62634833759717" lon="15.958101250145473"><ele>231.33333333333334</ele><time>2026-05-04T15:35:20Z</time></trkpt><trkpt lat="45.62648541907644" lon="15.958175565532091"><ele>233.0</ele><time>2026-05-04T15:35:21Z</time></trkpt><trkpt lat="45.62661728482399" lon="15.958290876908444"><ele>232.66666666666669</ele><time>2026-05-04T15:35:22Z</time></trkpt><trkpt lat="45.62675570359759" lon="15.958426440596506"><ele>232.33333333333331</ele><time>2026-05-04T15:35:23Z</time></trkpt><trkpt lat="45.62688181085927" lon="15.958553096845979"><ele>232.0</ele><time>2026-05-04T15:35:24Z</time></trkpt><trkpt lat="45.627009236188904" lon="15.958675696701055"><ele>232.0</ele><time>2026-05-04T15:35:25Z</time></trkpt><trkpt lat="45.62713495144961" lon="15.958802477400095"><ele>232.0</ele><time>2026-05-04T15:35:26Z</time></trkpt><trkpt lat="45.627245280668724" lon="15.95896849311736"><ele>232.0</ele><time>2026-05-04T15:35:27Z</time></trkpt><trkpt lat="45.62733658930228" lon="15.95919509351897"><ele>230.0</ele><time>2026-05-04T15:35:28Z</time></trkpt><trkpt lat="45.627418502985755" lon="15.959463404946781"><ele>228.0</ele><time>2026-05-04T15:35:29Z</time></trkpt><trkpt lat="45.62749138598403" lon="15.959699027406652"><ele>226.0</ele><time>2026-05-04T15:35:30Z</time></trkpt><trkpt lat="45.627564946514525" lon="15.959912213757674"><ele>224.33333333333331</ele><time>2026-05-04T15:35:31Z</time></trkpt><trkpt lat="45.62766793866334" lon="15.960112657088851"><ele>222.66666666666669</ele><time>2026-05-04T15:35:32Z</time></trkpt><trkpt lat="45.62781468483332" lon="15.960290013138904"><ele>221.0</ele><time>2026-05-04T15:35:33Z</time></trkpt><trkpt lat="45.627991832972626" lon="15.960422759057508"><ele>224.66666666666669</ele><time>2026-05-04T15:35:34Z</time></trkpt><trkpt lat="45.628165262431" lon="15.960541839653501"><ele>228.33333333333331</ele><time>2026-05-04T15:35:35Z</time></trkpt><trkpt lat="45.62832406517505" lon="15.960689288497456"><ele>232.0</ele><time>2026-05-04T15:35:36Z</time></trkpt><trkpt lat="45.62849758572156" lon="15.960843568172965"><ele>231.5</ele><time>2026-05-04T15:35:37Z</time></trkpt><trkpt lat="45.62871101347593" lon="15.960970551590213"><ele>231.0</ele><time>2026-05-04T15:35:38Z</time></trkpt><trkpt lat="45.62896124765045" lon="15.961056397147729"><ele>231.0</ele><time>2026-05-04T15:35:39Z</time></trkpt><trkpt lat="45.62923298566936" lon="15.961131854313011"><ele>231.0</ele><time>2026-05-04T15:35:40Z</time></trkpt><trkpt lat="45.6294857485775" lon="15.96121154174727"><ele>227.5</ele><time>2026-05-04T15:35:41Z</time></trkpt><trkpt lat="45.62972337589175" lon="15.961324612299627"><ele>224.0</ele><time>2026-05-04T15:35:42Z</time></trkpt><trkpt lat="45.62994330268298" lon="15.961466050539785"><ele>224.0</ele><time>2026-05-04T15:35:43Z</time></trkpt><trkpt lat="45.630139135076504" lon="15.961621550875455"><ele>224.0</ele><time>2026-05-04T15:35:44Z</time></trkpt><trkpt lat="45.63033153844941" lon="15.961779638192745"><ele>224.0</ele><time>2026-05-04T15:35:45Z</time></trkpt><trkpt lat="45.63053606939184" lon="15.961938267023278"><ele>223.5</ele><time>2026-05-04T15:35:46Z</time></trkpt><trkpt lat="45.63074274167563" lon="15.962092573624814"><ele>223.0</ele><time>2026-05-04T15:35:47Z</time></trkpt><trkpt lat="45.630956516906856" lon="15.96224694572765"><ele>222.5</ele><time>2026-05-04T15:35:48Z</time></trkpt><trkpt lat="45.63116941168394" lon="15.962388350865554"><ele>222.0</ele><time>2026-05-04T15:35:49Z</time></trkpt><trkpt lat="45.63139242076306" lon="15.962509694001964"><ele>222.0</ele><time>2026-05-04T15:35:50Z</time></trkpt><trkpt lat="45.63162905586829" lon="15.962602077249361"><ele>222.0</ele><time>2026-05-04T15:35:51Z</time></trkpt><trkpt lat="45.63187588277793" lon="15.96265882231977"><ele>223.5</ele><time>2026-05-04T15:35:52Z</time></trkpt><trkpt lat="45.63212328066995" lon="15.962686359435335"><ele>225.0</ele><time>2026-05-04T15:35:53Z</time></trkpt><trkpt lat="45.63237044446947" lon="15.962709728602954"><ele>225.0</ele><time>2026-05-04T15:35:54Z</time></trkpt><trkpt lat="45.63261276175016" lon="15.96273266059321"><ele>225.0</ele><time>2026-05-04T15:35:55Z</time></trkpt><trkpt lat="45.63285558030474" lon="15.962732608334257"><ele>224.5</ele><time>2026-05-04T15:35:56Z</time></trkpt><trkpt lat="45.633099737865365" lon="15.962689331993117"><ele>224.0</ele><time>2026-05-04T15:35:57Z</time></trkpt><trkpt lat="45.63334247214914" lon="15.96264104027751"><ele>224.0</ele><time>2026-05-04T15:35:58Z</time></trkpt><trkpt lat="45.63358137871034" lon="15.962592912303016"><ele>224.0</ele><time>2026-05-04T15:35:59Z</time></trkpt><trkpt lat="45.633810615743364" lon="15.962536198866632"><ele>223.0</ele><time>2026-05-04T15:36:00Z</time></trkpt><trkpt lat="45.634030907876976" lon="15.96245482394271"><ele>222.0</ele><time>2026-05-04T15:36:01Z</time></trkpt><trkpt lat="45.63428144520306" lon="15.962412129036647"><ele>222.0</ele><time>2026-05-04T15:36:02Z</time></trkpt><trkpt lat="45.634533115112944" lon="15.96244626118291"><ele>222.0</ele><time>2026-05-04T15:36:03Z</time></trkpt><trkpt lat="45.634771654865446" lon="15.962461098521162"><ele>222.0</ele><time>2026-05-04T15:36:04Z</time></trkpt><trkpt lat="45.634999961210326" lon="15.962442656919034"><ele>222.0</ele><time>2026-05-04T15:36:05Z</time></trkpt><trkpt lat="45.63520941332365" lon="15.962395777503586"><ele>222.0</ele><time>2026-05-04T15:36:06Z</time></trkpt><trkpt lat="45.63540201067912" lon="15.962345240306401"><ele>220.66666666666669</ele><time>2026-05-04T15:36:07Z</time></trkpt><trkpt lat="45.6355826579199" lon="15.962270514898709"><ele>219.33333333333334</ele><time>2026-05-04T15:36:08Z</time></trkpt><trkpt lat="45.63575482606724" lon="15.962165391299804"><ele>218.0</ele><time>2026-05-04T15:36:09Z</time></trkpt><trkpt lat="45.63590860192087" lon="15.962067606381696"><ele>218.0</ele><time>2026-05-04T15:36:10Z</time></trkpt><trkpt lat="45.63607857530646" lon="15.96202826859519"><ele>218.0</ele><time>2026-05-04T15:36:11Z</time></trkpt><trkpt lat="45.63628098392458" lon="15.96205664114561"><ele>218.0</ele><time>2026-05-04T15:36:12Z</time></trkpt><trkpt lat="45.63650717337671" lon="15.962126927684686"><ele>216.66666666666669</ele><time>2026-05-04T15:36:13Z</time></trkpt><trkpt lat="45.63673319593558" lon="15.962157557370448"><ele>215.33333333333331</ele><time>2026-05-04T15:36:14Z</time></trkpt><trkpt lat="45.63694907673963" lon="15.962129380634229"><ele>214.0</ele><time>2026-05-04T15:36:15Z</time></trkpt><trkpt lat="45.6371543650438" lon="15.962017155138104"><ele>212.66666666666666</ele><time>2026-05-04T15:36:16Z</time></trkpt><trkpt lat="45.63735503143613" lon="15.96185652993447"><ele>211.33333333333331</ele><time>2026-05-04T15:36:17Z</time></trkpt><trkpt lat="45.63754061871568" lon="15.961699837928641"><ele>210.0</ele><time>2026-05-04T15:36:18Z</time></trkpt><trkpt lat="45.63771201668766" lon="15.961565629222795"><ele>212.66666666666669</ele><time>2026-05-04T15:36:19Z</time></trkpt><trkpt lat="45.63787648806029" lon="15.961458099064169"><ele>215.33333333333334</ele><time>2026-05-04T15:36:20Z</time></trkpt><trkpt lat="45.6380604935331" lon="15.96138057023796"><ele>218.0</ele><time>2026-05-04T15:36:21Z</time></trkpt><trkpt lat="45.6382570462043" lon="15.961327525847297"><ele>218.0</ele><time>2026-05-04T15:36:22Z</time></trkpt><trkpt lat="45.63844550792995" lon="15.961291952862856"><ele>218.0</ele><time>2026-05-04T15:36:23Z</time></trkpt><trkpt lat="45.63861882123216" lon="15.96124994895088"><ele>218.0</ele><time>2026-05-04T15:36:24Z</time></trkpt><trkpt lat="45.63878687533335" lon="15.961225067330751"><ele>217.66666666666669</ele><time>2026-05-04T15:36:25Z</time></trkpt><trkpt lat="45.63894176517707" lon="15.961287855413925"><ele>217.33333333333331</ele><time>2026-05-04T15:36:26Z</time></trkpt><trkpt lat="45.639082776547696" lon="15.961391624594203"><ele>217.0</ele><time>2026-05-04T15:36:27Z</time></trkpt><trkpt lat="45.63921353221087" lon="15.96150788417356"><ele>217.0</ele><time>2026-05-04T15:36:28Z</time></trkpt><trkpt lat="45.639364968755395" lon="15.961574377192646"><ele>217.0</ele><time>2026-05-04T15:36:29Z</time></trkpt><trkpt lat="45.63954549656277" lon="15.96156121564826"><ele>217.0</ele><time>2026-05-04T15:36:30Z</time></trkpt><trkpt lat="45.6397378019882" lon="15.961488278885804"><ele>215.33333333333331</ele><time>2026-05-04T15:36:31Z</time></trkpt><trkpt lat="45.63993288667122" lon="15.961385071162999"><ele>213.66666666666669</ele><time>2026-05-04T15:36:32Z</time></trkpt><trkpt lat="45.640143337951784" lon="15.96126875579857"><ele>212.0</ele><time>2026-05-04T15:36:33Z</time></trkpt><trkpt lat="45.64036483531504" lon="15.961155719655148"><ele>210.0</ele><time>2026-05-04T15:36:34Z</time></trkpt><trkpt lat="45.640598259602875" lon="15.961059076052896"><ele>208.0</ele><time>2026-05-04T15:36:35Z</time></trkpt><trkpt lat="45.64084891828834" lon="15.960993030710782"><ele>208.0</ele><time>2026-05-04T15:36:36Z</time></trkpt><trkpt lat="45.64112555943096" lon="15.960982240050566"><ele>208.0</ele><time>2026-05-04T15:36:37Z</time></trkpt><trkpt lat="45.641380042814525" lon="15.960992040361004"><ele>210.5</ele><time>2026-05-04T15:36:38Z</time></trkpt><trkpt lat="45.64161714260168" lon="15.96098266875965"><ele>213.0</ele><time>2026-05-04T15:36:39Z</time></trkpt><trkpt lat="45.64183540123366" lon="15.960931965392327"><ele>217.5</ele><time>2026-05-04T15:36:40Z</time></trkpt><trkpt lat="45.64204538114828" lon="15.96082551591314"><ele>222.0</ele><time>2026-05-04T15:36:41Z</time></trkpt><trkpt lat="45.64224303195041" lon="15.960662387454157"><ele>222.0</ele><time>2026-05-04T15:36:42Z</time></trkpt><trkpt lat="45.64240204119727" lon="15.960481542445187"><ele>222.0</ele><time>2026-05-04T15:36:43Z</time></trkpt><trkpt lat="45.64254627274219" lon="15.96035820865671"><ele>222.0</ele><time>2026-05-04T15:36:44Z</time></trkpt><trkpt lat="45.642705743961045" lon="15.960319442863195"><ele>223.0</ele><time>2026-05-04T15:36:45Z</time></trkpt><trkpt lat="45.642886371213024" lon="15.960350961168698"><ele>224.0</ele><time>2026-05-04T15:36:46Z</time></trkpt><trkpt lat="45.64308908949957" lon="15.960426046687774"><ele>225.0</ele><time>2026-05-04T15:36:47Z</time></trkpt><trkpt lat="45.64330881859807" lon="15.960468538508993"><ele>225.0</ele><time>2026-05-04T15:36:48Z</time></trkpt><trkpt lat="45.643524680363264" lon="15.960423276606395"><ele>225.0</ele><time>2026-05-04T15:36:49Z</time></trkpt><trkpt lat="45.64374014416386" lon="15.96031088801199"><ele>225.0</ele><time>2026-05-04T15:36:50Z</time></trkpt><trkpt lat="45.64395647025065" lon="15.960125590131"><ele>224.5</ele><time>2026-05-04T15:36:51Z</time></trkpt><trkpt lat="45.64416246191842" lon="15.95990524182262"><ele>224.0</ele><time>2026-05-04T15:36:52Z</time></trkpt><trkpt lat="45.64435655872409" lon="15.959709720375251"><ele>224.33333333333334</ele><time>2026-05-04T15:36:53Z</time></trkpt><trkpt lat="45.64454832515617" lon="15.959535194633483"><ele>224.66666666666669</ele><time>2026-05-04T15:36:54Z</time></trkpt><trkpt lat="45.64472532793635" lon="15.959397694718819"><ele>225.0</ele><time>2026-05-04T15:36:55Z</time></trkpt><trkpt lat="45.64490278380463" lon="15.959286045355737"><ele>222.66666666666669</ele><time>2026-05-04T15:36:56Z</time></trkpt><trkpt lat="45.64507879083172" lon="15.959198539353716"><ele>220.33333333333334</ele><time>2026-05-04T15:36:57Z</time></trkpt><trkpt lat="45.64525267442788" lon="15.95915583824745"><ele>218.0</ele><time>2026-05-04T15:36:58Z</time></trkpt><trkpt lat="45.645438749464724" lon="15.959170037550312"><ele>217.66666666666669</ele><time>2026-05-04T15:36:59Z</time></trkpt><trkpt lat="45.64563508235047" lon="15.9592281783377"><ele>217.33333333333331</ele><time>2026-05-04T15:37:00Z</time></trkpt><trkpt lat="45.64583710293211" lon="15.959341793122189"><ele>217.0</ele><time>2026-05-04T15:37:01Z</time></trkpt><trkpt lat="45.646022963270475" lon="15.959510514685844"><ele>213.5</ele><time>2026-05-04T15:37:02Z</time></trkpt><trkpt lat="45.64622257821743" lon="15.959698838798305"><ele>210.0</ele><time>2026-05-04T15:37:03Z</time></trkpt><trkpt lat="45.646435248157324" lon="15.959867287779076"><ele>210.0</ele><time>2026-05-04T15:37:04Z</time></trkpt><trkpt lat="45.64665403185036" lon="15.960016518842062"><ele>210.0</ele><time>2026-05-04T15:37:05Z</time></trkpt><trkpt lat="45.64685587440808" lon="15.960170112682613"><ele>207.33333333333331</ele><time>2026-05-04T15:37:06Z</time></trkpt><trkpt lat="45.647052422597156" lon="15.960331296462245"><ele>204.66666666666666</ele><time>2026-05-04T15:37:07Z</time></trkpt><trkpt lat="45.647246907236024" lon="15.960472313710676"><ele>202.0</ele><time>2026-05-04T15:37:08Z</time></trkpt><trkpt lat="45.64741961327518" lon="15.960590714928644"><ele>202.0</ele><time>2026-05-04T15:37:09Z</time></trkpt><trkpt lat="45.647571238132755" lon="15.960703347005333"><ele>202.0</ele><time>2026-05-04T15:37:10Z</time></trkpt><trkpt lat="45.647717519112284" lon="15.960823859390082"><ele>202.0</ele><time>2026-05-04T15:37:11Z</time></trkpt><trkpt lat="45.64786064224504" lon="15.960932357231417"><ele>200.33333333333331</ele><time>2026-05-04T15:37:12Z</time></trkpt><trkpt lat="45.648015299812975" lon="15.96103926018259"><ele>198.66666666666669</ele><time>2026-05-04T15:37:13Z</time></trkpt><trkpt lat="45.64818193988002" lon="15.961118960873014"><ele>197.0</ele><time>2026-05-04T15:37:14Z</time></trkpt><trkpt lat="45.64835456665505" lon="15.961178222092654"><ele>197.0</ele><time>2026-05-04T15:37:15Z</time></trkpt><trkpt lat="45.64852627094495" lon="15.961238855876683"><ele>197.0</ele><time>2026-05-04T15:37:16Z</time></trkpt><trkpt lat="45.6486959234676" lon="15.961335676293315"><ele>197.0</ele><time>2026-05-04T15:37:17Z</time></trkpt><trkpt lat="45.64885730730774" lon="15.961458189173504"><ele>197.33333333333334</ele><time>2026-05-04T15:37:18Z</time></trkpt><trkpt lat="45.649012607672695" lon="15.961598423354529"><ele>197.66666666666669</ele><time>2026-05-04T15:37:19Z</time></trkpt><trkpt lat="45.649175678528934" lon="15.961719517477064"><ele>198.0</ele><time>2026-05-04T15:37:20Z</time></trkpt><trkpt lat="45.649324836358026" lon="15.961817767343458"><ele>194.66666666666666</ele><time>2026-05-04T15:37:21Z</time></trkpt><trkpt lat="45.64946753812783" lon="15.961903105516994"><ele>191.33333333333331</ele><time>2026-05-04T15:37:22Z</time></trkpt><trkpt lat="45.64962320459699" lon="15.962001495539946"><ele>188.0</ele><time>2026-05-04T15:37:23Z</time></trkpt><trkpt lat="45.649790793620916" lon="15.962098617883907"><ele>188.0</ele><time>2026-05-04T15:37:24Z</time></trkpt><trkpt lat="45.64996537528559" lon="15.962194224221992"><ele>188.0</ele><time>2026-05-04T15:37:25Z</time></trkpt><trkpt lat="45.65013270255721" lon="15.962322704021021"><ele>188.0</ele><time>2026-05-04T15:37:26Z</time></trkpt><trkpt lat="45.65028070094635" lon="15.962485789296526"><ele>187.0</ele><time>2026-05-04T15:37:27Z</time></trkpt><trkpt lat="45.650417470566374" lon="15.962652985526233"><ele>186.0</ele><time>2026-05-04T15:37:28Z</time></trkpt><trkpt lat="45.65056549895829" lon="15.962788391482281"><ele>185.0</ele><time>2026-05-04T15:37:29Z</time></trkpt><trkpt lat="45.650724178969355" lon="15.962901466506036"><ele>185.0</ele><time>2026-05-04T15:37:30Z</time></trkpt><trkpt lat="45.650887572002034" lon="15.963007547798307"><ele>185.0</ele><time>2026-05-04T15:37:31Z</time></trkpt><trkpt lat="45.65103779227108" lon="15.963132206479878"><ele>185.0</ele><time>2026-05-04T15:37:32Z</time></trkpt><trkpt lat="45.65117273022591" lon="15.963290769265745"><ele>186.0</ele><time>2026-05-04T15:37:33Z</time></trkpt><trkpt lat="45.651292218460114" lon="15.96347682734588"><ele>187.0</ele><time>2026-05-04T15:37:34Z</time></trkpt><trkpt lat="45.65141211003475" lon="15.963678645003297"><ele>188.0</ele><time>2026-05-04T15:37:35Z</time></trkpt><trkpt lat="45.65151775442245" lon="15.963891971420692"><ele>188.0</ele><time>2026-05-04T15:37:36Z</time></trkpt><trkpt lat="45.65162235836299" lon="15.964115509119287"><ele>188.0</ele><time>2026-05-04T15:37:37Z</time></trkpt><trkpt lat="45.65172180149109" lon="15.964348952350015"><ele>188.0</ele><time>2026-05-04T15:37:38Z</time></trkpt><trkpt lat="45.651817389529526" lon="15.964589922566432"><ele>187.33333333333331</ele><time>2026-05-04T15:37:39Z</time></trkpt><trkpt lat="45.65191187713809" lon="15.964831713777063"><ele>186.66666666666666</ele><time>2026-05-04T15:37:40Z</time></trkpt><trkpt lat="45.65198904245644" lon="15.96508356464551"><ele>186.0</ele><time>2026-05-04T15:37:41Z</time></trkpt><trkpt lat="45.65205410070601" lon="15.965330742880383"><ele>186.0</ele><time>2026-05-04T15:37:42Z</time></trkpt><trkpt lat="45.652118668227786" lon="15.965579158801557"><ele>186.0</ele><time>2026-05-04T15:37:43Z</time></trkpt><trkpt lat="45.65218335040568" lon="15.965826350134563"><ele>186.0</ele><time>2026-05-04T15:37:44Z</time></trkpt><trkpt lat="45.6522510291007" lon="15.966068690694254"><ele>186.0</ele><time>2026-05-04T15:37:45Z</time></trkpt><trkpt lat="45.65231909387097" lon="15.966307622956629"><ele>186.0</ele><time>2026-05-04T15:37:46Z</time></trkpt><trkpt lat="45.652386507156365" lon="15.966547714172718"><ele>186.0</ele><time>2026-05-04T15:37:47Z</time></trkpt><trkpt lat="45.65245836890896" lon="15.966775204953084"><ele>183.66666666666666</ele><time>2026-05-04T15:37:48Z</time></trkpt><trkpt lat="45.65252456403518" lon="15.96699346869195"><ele>181.33333333333331</ele><time>2026-05-04T15:37:49Z</time></trkpt><trkpt lat="45.652586194090816" lon="15.967192853026743"><ele>179.0</ele><time>2026-05-04T15:37:50Z</time></trkpt><trkpt lat="45.652649061863364" lon="15.967380953063712"><ele>179.0</ele><time>2026-05-04T15:37:51Z</time></trkpt><trkpt lat="45.652709936220866" lon="15.967583161810204"><ele>179.0</ele><time>2026-05-04T15:37:52Z</time></trkpt><trkpt lat="45.652774350067105" lon="15.967817922602089"><ele>179.0</ele><time>2026-05-04T15:37:53Z</time></trkpt><trkpt lat="45.65285779137729" lon="15.968073949964278"><ele>179.0</ele><time>2026-05-04T15:37:54Z</time></trkpt><trkpt lat="45.65296970180105" lon="15.968347193827304"><ele>179.0</ele><time>2026-05-04T15:37:55Z</time></trkpt><trkpt lat="45.65309588419271" lon="15.968622759774963"><ele>178.66666666666666</ele><time>2026-05-04T15:37:56Z</time></trkpt><trkpt lat="45.65319780534897" lon="15.968873036797467"><ele>178.33333333333334</ele><time>2026-05-04T15:37:57Z</time></trkpt><trkpt lat="45.65327345515388" lon="15.969109740418219"><ele>178.0</ele><time>2026-05-04T15:37:58Z</time></trkpt><trkpt lat="45.653315273823125" lon="15.969329755335503"><ele>177.66666666666669</ele><time>2026-05-04T15:37:59Z</time></trkpt><trkpt lat="45.653328654018665" lon="15.969559170335822"><ele>177.33333333333334</ele><time>2026-05-04T15:38:00Z</time></trkpt><trkpt lat="45.653324450477015" lon="15.969803163366885"><ele>177.0</ele><time>2026-05-04T15:38:01Z</time></trkpt><trkpt lat="45.653335849140205" lon="15.9700784997418"><ele>177.0</ele><time>2026-05-04T15:38:02Z</time></trkpt><trkpt lat="45.65337099052296" lon="15.970342275407486"><ele>177.0</ele><time>2026-05-04T15:38:03Z</time></trkpt><trkpt lat="45.65341891106767" lon="15.970596904148262"><ele>177.0</ele><time>2026-05-04T15:38:04Z</time></trkpt><trkpt lat="45.65346466420137" lon="15.970840535724193"><ele>176.0</ele><time>2026-05-04T15:38:05Z</time></trkpt><trkpt lat="45.65349275030689" lon="15.971071850940119"><ele>175.0</ele><time>2026-05-04T15:38:06Z</time></trkpt><trkpt lat="45.65349366689701" lon="15.971301454899827"><ele>174.0</ele><time>2026-05-04T15:38:07Z</time></trkpt><trkpt lat="45.65346816034066" lon="15.971527966306867"><ele>173.25</ele><time>2026-05-04T15:38:08Z</time></trkpt><trkpt lat="45.65340432099826" lon="15.971732094359599"><ele>172.5</ele><time>2026-05-04T15:38:09Z</time></trkpt><trkpt lat="45.65332678101188" lon="15.971915762833984"><ele>171.75</ele><time>2026-05-04T15:38:10Z</time></trkpt><trkpt lat="45.653258434364105" lon="15.97208593872315"><ele>171.0</ele><time>2026-05-04T15:38:11Z</time></trkpt><trkpt lat="45.65322117776375" lon="15.972264018600143"><ele>171.0</ele><time>2026-05-04T15:38:12Z</time></trkpt><trkpt lat="45.65322827830343" lon="15.97245479367513"><ele>171.0</ele><time>2026-05-04T15:38:13Z</time></trkpt><trkpt lat="45.65326795562696" lon="15.972645143091096"><ele>171.0</ele><time>2026-05-04T15:38:14Z</time></trkpt><trkpt lat="45.653330819126" lon="15.97282574962843"><ele>171.0</ele><time>2026-05-04T15:38:15Z</time></trkpt><trkpt lat="45.65341967099709" lon="15.972983161246674"><ele>169.5</ele><time>2026-05-04T15:38:16Z</time></trkpt><trkpt lat="45.65353138654104" lon="15.97309155882746"><ele>168.0</ele><time>2026-05-04T15:38:17Z</time></trkpt><trkpt lat="45.65364393452927" lon="15.973142683437757"><ele>166.5</ele><time>2026-05-04T15:38:18Z</time></trkpt><trkpt lat="45.653749530920855" lon="15.973135083903475"><ele>165.0</ele><time>2026-05-04T15:38:19Z</time></trkpt><trkpt lat="45.65386161158651" lon="15.973097293373119"><ele>165.0</ele><time>2026-05-04T15:38:20Z</time></trkpt><trkpt lat="45.65399072510792" lon="15.973011867189985"><ele>165.0</ele><time>2026-05-04T15:38:21Z</time></trkpt><trkpt lat="45.65410941073" lon="15.972883440129142"><ele>165.0</ele><time>2026-05-04T15:38:22Z</time></trkpt><trkpt lat="45.65422133271846" lon="15.972729948793624"><ele>165.0</ele><time>2026-05-04T15:38:23Z</time></trkpt><trkpt lat="45.65432572379814" lon="15.972560265399286"><ele>166.0</ele><time>2026-05-04T15:38:24Z</time></trkpt><trkpt lat="45.65443630463351" lon="15.97242036149735"><ele>167.0</ele><time>2026-05-04T15:38:25Z</time></trkpt><trkpt lat="45.65455481358641" lon="15.972305985086514"><ele>168.0</ele><time>2026-05-04T15:38:26Z</time></trkpt><trkpt lat="45.65466996727025" lon="15.972199182192718"><ele>169.0</ele><time>2026-05-04T15:38:27Z</time></trkpt><trkpt lat="45.65479887359966" lon="15.972110456646194"><ele>166.25</ele><time>2026-05-04T15:38:28Z</time></trkpt><trkpt lat="45.65492508295962" lon="15.972012307845038"><ele>163.5</ele><time>2026-05-04T15:38:29Z</time></trkpt><trkpt lat="45.655054147160556" lon="15.971913079550564"><ele>160.75</ele><time>2026-05-04T15:38:30Z</time></trkpt><trkpt lat="45.65518797794441" lon="15.971825774241298"><ele>158.0</ele><time>2026-05-04T15:38:31Z</time></trkpt><trkpt lat="45.65533352928274" lon="15.971761442866264"><ele>155.0</ele><time>2026-05-04T15:38:32Z</time></trkpt><trkpt lat="45.655490129229754" lon="15.971782390097061"><ele>152.0</ele><time>2026-05-04T15:38:33Z</time></trkpt><trkpt lat="45.65565936121047" lon="15.971771246875832"><ele>149.0</ele><time>2026-05-04T15:38:34Z</time></trkpt><trkpt lat="45.65581502651407" lon="15.971881476020906"><ele>149.0</ele><time>2026-05-04T15:38:35Z</time></trkpt><trkpt lat="45.65596396758035" lon="15.971977107934514"><ele>149.0</ele><time>2026-05-04T15:38:36Z</time></trkpt><trkpt lat="45.65610627127905" lon="15.97210387799464"><ele>149.0</ele><time>2026-05-04T15:38:37Z</time></trkpt><trkpt lat="45.65623025008561" lon="15.972261300858806"><ele>147.0</ele><time>2026-05-04T15:38:38Z</time></trkpt><trkpt lat="45.656334614920446" lon="15.972431495019752"><ele>145.0</ele><time>2026-05-04T15:38:39Z</time></trkpt><trkpt lat="45.656418903764575" lon="15.972613386590798"><ele>143.0</ele><time>2026-05-04T15:38:40Z</time></trkpt><trkpt lat="45.65649927802763" lon="15.972790122769405"><ele>142.5</ele><time>2026-05-04T15:38:41Z</time></trkpt><trkpt lat="45.6565889121884" lon="15.972944857053042"><ele>142.0</ele><time>2026-05-04T15:38:42Z</time></trkpt><trkpt lat="45.65666371724571" lon="15.973103067242878"><ele>141.5</ele><time>2026-05-04T15:38:43Z</time></trkpt><trkpt lat="45.65675136055555" lon="15.973238387283972"><ele>141.0</ele><time>2026-05-04T15:38:44Z</time></trkpt><trkpt lat="45.65684064745178" lon="15.973363630644297"><ele>140.6</ele><time>2026-05-04T15:38:45Z</time></trkpt><trkpt lat="45.65693456080541" lon="15.973478979963945"><ele>140.2</ele><time>2026-05-04T15:38:46Z</time></trkpt><trkpt lat="45.65703143405024" lon="15.973571648838394"><ele>139.8</ele><time>2026-05-04T15:38:47Z</time></trkpt><trkpt lat="45.65712242151661" lon="15.973650786991318"><ele>139.4</ele><time>2026-05-04T15:38:48Z</time></trkpt><trkpt lat="45.65719975408984" lon="15.973704750651786"><ele>139.0</ele><time>2026-05-04T15:38:49Z</time></trkpt><trkpt lat="45.65729516472831" lon="15.973757068066066"><ele>139.0</ele><time>2026-05-04T15:38:51Z</time></trkpt><trkpt lat="45.65735619947864" lon="15.973792800933602"><ele>139.0</ele><time>2026-05-04T15:38:54Z</time></trkpt><trkpt lat="45.657392150011354" lon="15.973871178398579"><ele>139.0</ele><time>2026-05-04T15:55:19Z</time></trkpt><trkpt lat="45.657448536115986" lon="15.973792485864674"><ele>139.0</ele><time>2026-05-04T16:13:29Z</time></trkpt><trkpt lat="45.65736258048573" lon="15.973843198332485"><ele>139.0</ele><time>2026-05-04T16:14:51Z</time></trkpt><trkpt lat="45.657336066886266" lon="15.973943118357758"><ele>139.0</ele><time>2026-05-04T16:15:04Z</time></trkpt><trkpt lat="45.657298894908735" lon="15.974037490105214"><ele>139.0</ele><time>2026-05-04T16:15:09Z</time></trkpt><trkpt lat="45.6573461185293" lon="15.973921618989317"><ele>139.0</ele><time>2026-05-04T16:15:14Z</time></trkpt><trkpt lat="45.657376044612576" lon="15.973838962120968"><ele>139.0</ele><time>2026-05-04T16:15:42Z</time></trkpt><trkpt lat="45.657380717069245" lon="15.973747063181028"><ele>139.0</ele><time>2026-05-04T16:15:46Z</time></trkpt><trkpt lat="45.6573159018211" lon="15.973732576337682"><ele>139.0</ele><time>2026-05-04T16:15:52Z</time></trkpt><trkpt lat="45.657248255382825" lon="15.973694880522267"><ele>139.0</ele><time>2026-05-04T16:15:59Z</time></trkpt><trkpt lat="45.65718255954422" lon="15.973667995335505"><ele>139.0</ele><time>2026-05-04T16:16:05Z</time></trkpt><trkpt lat="45.65711170810848" lon="15.973685848056052"><ele>139.0</ele><time>2026-05-04T16:16:11Z</time></trkpt><trkpt lat="45.65714200239192" lon="15.97376961165916"><ele>139.0</ele><time>2026-05-04T16:16:17Z</time></trkpt><trkpt lat="45.65719552777829" lon="15.973840644196475"><ele>139.0</ele><time>2026-05-04T16:16:29Z</time></trkpt><trkpt lat="45.65722137570092" lon="15.973936575953479"><ele>139.0</ele><time>2026-05-04T16:16:36Z</time></trkpt><trkpt lat="45.65725796087842" lon="15.974013364040916"><ele>139.0</ele><time>2026-05-04T16:16:43Z</time></trkpt><trkpt lat="45.65719098815389" lon="15.973935705185973"><ele>139.0</ele><time>2026-05-04T16:16:53Z</time></trkpt><trkpt lat="45.65727959350042" lon="15.974036421049233"><ele>139.0</ele><time>2026-05-04T16:17:09Z</time></trkpt><trkpt lat="45.65721681521669" lon="15.973972080096031"><ele>139.0</ele><time>2026-05-04T16:17:23Z</time></trkpt><trkpt lat="45.65727355896463" lon="15.973899820893498"><ele>139.0</ele><time>2026-05-04T16:17:35Z</time></trkpt><trkpt lat="45.65718691797892" lon="15.97387080286687"><ele>139.0</ele><time>2026-05-04T16:17:46Z</time></trkpt><trkpt lat="45.65719750871599" lon="15.973716180462075"><ele>139.0</ele><time>2026-05-04T16:17:59Z</time></trkpt><trkpt lat="45.65712938673366" lon="15.97370799415829"><ele>139.0</ele><time>2026-05-04T16:18:06Z</time></trkpt><trkpt lat="45.65719575466958" lon="15.973686158139094"><ele>139.0</ele><time>2026-05-04T16:18:18Z</time></trkpt><trkpt lat="45.65725541739064" lon="15.973724406028266"><ele>139.0</ele><time>2026-05-04T16:18:25Z</time></trkpt><trkpt lat="45.657325164271576" lon="15.973783713791171"><ele>139.0</ele><time>2026-05-04T16:18:33Z</time></trkpt><trkpt lat="45.65738891972486" lon="15.973795668320543"><ele>139.0</ele><time>2026-05-04T16:18:40Z</time></trkpt><trkpt lat="45.65737217235589" lon="15.97395578838414"><ele>139.0</ele><time>2026-05-04T16:20:53Z</time></trkpt><trkpt lat="45.65734584767531" lon="15.97387029511051"><ele>139.0</ele><time>2026-05-04T16:24:00Z</time></trkpt><trkpt lat="45.65735314697152" lon="15.973732786954614"><ele>139.0</ele><time>2026-05-04T16:24:07Z</time></trkpt><trkpt lat="45.657387566413284" lon="15.973826767481556"><ele>139.0</ele><time>2026-05-04T16:25:53Z</time></trkpt><trkpt lat="45.657494260828614" lon="15.973818156913719"><ele>139.0</ele><time>2026-05-04T16:26:38Z</time></trkpt><trkpt lat="45.65762564661107" lon="15.973838997583288"><ele>139.0</ele><time>2026-05-04T16:26:40Z</time></trkpt><trkpt lat="45.657704284615534" lon="15.973874753591831"><ele>139.0</ele><time>2026-05-04T16:26:41Z</time></trkpt><trkpt lat="45.657781056169924" lon="15.97387843891863"><ele>138.66666666666669</ele><time>2026-05-04T16:26:42Z</time></trkpt><trkpt lat="45.65785764109479" lon="15.973878783444041"><ele>138.33333333333334</ele><time>2026-05-04T16:26:43Z</time></trkpt><trkpt lat="45.657937019005935" lon="15.97385560955987"><ele>138.0</ele><time>2026-05-04T16:26:44Z</time></trkpt><trkpt lat="45.65801406536161" lon="15.97387673521365"><ele>137.66666666666666</ele><time>2026-05-04T16:26:45Z</time></trkpt><trkpt lat="45.65809851966222" lon="15.973872661159525"><ele>137.33333333333331</ele><time>2026-05-04T16:26:46Z</time></trkpt><trkpt lat="45.65818844053845" lon="15.973867605178404"><ele>137.0</ele><time>2026-05-04T16:26:47Z</time></trkpt><trkpt lat="45.65829159088935" lon="15.97386858571081"><ele>137.0</ele><time>2026-05-04T16:26:48Z</time></trkpt><trkpt lat="45.65840331953473" lon="15.973876017391309"><ele>137.0</ele><time>2026-05-04T16:26:49Z</time></trkpt><trkpt lat="45.658522593836345" lon="15.97388663361783"><ele>137.0</ele><time>2026-05-04T16:26:50Z</time></trkpt><trkpt lat="45.65864539938239" lon="15.973902022402507"><ele>137.0</ele><time>2026-05-04T16:26:51Z</time></trkpt><trkpt lat="45.65876674257376" lon="15.9739204929975"><ele>137.5</ele><time>2026-05-04T16:26:52Z</time></trkpt><trkpt lat="45.65888830862111" lon="15.973940265480575"><ele>138.0</ele><time>2026-05-04T16:26:53Z</time></trkpt><trkpt lat="45.6590141596484" lon="15.973965091658027"><ele>138.5</ele><time>2026-05-04T16:26:54Z</time></trkpt><trkpt lat="45.65913969714369" lon="15.973989207256503"><ele>139.0</ele><time>2026-05-04T16:26:55Z</time></trkpt><trkpt lat="45.659266870518564" lon="15.97401286642634"><ele>139.0</ele><time>2026-05-04T16:26:56Z</time></trkpt><trkpt lat="45.659393156243624" lon="15.974035874180633"><ele>139.0</ele><time>2026-05-04T16:26:57Z</time></trkpt><trkpt lat="45.65952144063531" lon="15.974059514764795"><ele>139.0</ele><time>2026-05-04T16:26:58Z</time></trkpt><trkpt lat="45.65965371878296" lon="15.974086323278131"><ele>139.0</ele><time>2026-05-04T16:26:59Z</time></trkpt><trkpt lat="45.65978479361005" lon="15.974094621586957"><ele>139.0</ele><time>2026-05-04T16:27:00Z</time></trkpt><trkpt lat="45.659911330411866" lon="15.974119871318798"><ele>139.0</ele><time>2026-05-04T16:27:01Z</time></trkpt><trkpt lat="45.66003593142147" lon="15.974149019975163"><ele>139.0</ele><time>2026-05-04T16:27:02Z</time></trkpt><trkpt lat="45.6601634040441" lon="15.974172800060147"><ele>139.0</ele><time>2026-05-04T16:27:03Z</time></trkpt><trkpt lat="45.66029880285294" lon="15.97420189577636"><ele>139.75</ele><time>2026-05-04T16:27:04Z</time></trkpt><trkpt lat="45.66044170525979" lon="15.974226139128847"><ele>140.5</ele><time>2026-05-04T16:27:05Z</time></trkpt><trkpt lat="45.66059135015908" lon="15.974250811714422"><ele>141.25</ele><time>2026-05-04T16:27:06Z</time></trkpt><trkpt lat="45.6607395741075" lon="15.974279065630501"><ele>142.0</ele><time>2026-05-04T16:27:07Z</time></trkpt><trkpt lat="45.66088297787786" lon="15.97431305895789"><ele>142.0</ele><time>2026-05-04T16:27:08Z</time></trkpt><trkpt lat="45.66103578296376" lon="15.974337954463559"><ele>142.0</ele><time>2026-05-04T16:27:09Z</time></trkpt><trkpt lat="45.66118410794031" lon="15.97437104351555"><ele>142.0</ele><time>2026-05-04T16:27:10Z</time></trkpt><trkpt lat="45.66132492523844" lon="15.974400439120313"><ele>142.0</ele><time>2026-05-04T16:27:11Z</time></trkpt><trkpt lat="45.66146114673337" lon="15.97441237063167"><ele>142.33333333333334</ele><time>2026-05-04T16:27:12Z</time></trkpt><trkpt lat="45.661612647928436" lon="15.974438512286717"><ele>142.66666666666666</ele><time>2026-05-04T16:27:13Z</time></trkpt><trkpt lat="45.6617604293501" lon="15.974470824659802"><ele>143.0</ele><time>2026-05-04T16:27:14Z</time></trkpt><trkpt lat="45.66190890715408" lon="15.97450092375798"><ele>142.33333333333331</ele><time>2026-05-04T16:27:15Z</time></trkpt><trkpt lat="45.662067458813" lon="15.974531682927323"><ele>141.66666666666666</ele><time>2026-05-04T16:27:16Z</time></trkpt><trkpt lat="45.66223288429113" lon="15.97456610592916"><ele>141.0</ele><time>2026-05-04T16:27:17Z</time></trkpt><trkpt lat="45.66240842813605" lon="15.974607523975601"><ele>141.0</ele><time>2026-05-04T16:27:18Z</time></trkpt><trkpt lat="45.662567994358085" lon="15.974631947937787"><ele>141.0</ele><time>2026-05-04T16:27:19Z</time></trkpt><trkpt lat="45.66272329613885" lon="15.974663984954713"><ele>141.0</ele><time>2026-05-04T16:27:20Z</time></trkpt><trkpt lat="45.66288693197584" lon="15.974691105017337"><ele>141.33333333333334</ele><time>2026-05-04T16:27:21Z</time></trkpt><trkpt lat="45.6630589887052" lon="15.974724520021407"><ele>141.66666666666669</ele><time>2026-05-04T16:27:22Z</time></trkpt><trkpt lat="45.66323126707844" lon="15.974741349600698"><ele>142.0</ele><time>2026-05-04T16:27:23Z</time></trkpt><trkpt lat="45.663414395406804" lon="15.97475348680581"><ele>142.0</ele><time>2026-05-04T16:27:24Z</time></trkpt><trkpt lat="45.66359684637907" lon="15.974766459382607"><ele>142.0</ele><time>2026-05-04T16:27:25Z</time></trkpt><trkpt lat="45.66377907996889" lon="15.97478092496798"><ele>142.0</ele><time>2026-05-04T16:27:26Z</time></trkpt><trkpt lat="45.66396611281973" lon="15.97478614574355"><ele>140.33333333333334</ele><time>2026-05-04T16:27:27Z</time></trkpt><trkpt lat="45.66415786198815" lon="15.974798696998299"><ele>138.66666666666666</ele><time>2026-05-04T16:27:28Z</time></trkpt><trkpt lat="45.664352805194255" lon="15.974823838353556"><ele>137.0</ele><time>2026-05-04T16:27:29Z</time></trkpt><trkpt lat="45.66455972424391" lon="15.974834458414243"><ele>135.33333333333331</ele><time>2026-05-04T16:27:30Z</time></trkpt><trkpt lat="45.6647677232763" lon="15.974861674988789"><ele>133.66666666666666</ele><time>2026-05-04T16:27:31Z</time></trkpt><trkpt lat="45.66497770110584" lon="15.974885649949389"><ele>132.0</ele><time>2026-05-04T16:27:32Z</time></trkpt><trkpt lat="45.66519124498637" lon="15.974910777266764"><ele>131.66666666666666</ele><time>2026-05-04T16:27:33Z</time></trkpt><trkpt lat="45.665400843512344" lon="15.974927594592325"><ele>131.33333333333331</ele><time>2026-05-04T16:27:34Z</time></trkpt><trkpt lat="45.66559825238782" lon="15.974952939581927"><ele>131.0</ele><time>2026-05-04T16:27:35Z</time></trkpt><trkpt lat="45.66580207518545" lon="15.974964399101653"><ele>131.0</ele><time>2026-05-04T16:27:36Z</time></trkpt><trkpt lat="45.66600064357759" lon="15.974976646746013"><ele>131.0</ele><time>2026-05-04T16:27:37Z</time></trkpt><trkpt lat="45.66619666207483" lon="15.974989234099276"><ele>131.0</ele><time>2026-05-04T16:27:38Z</time></trkpt><trkpt lat="45.666387090211565" lon="15.975001805069436"><ele>131.33333333333331</ele><time>2026-05-04T16:27:39Z</time></trkpt><trkpt lat="45.66657136205988" lon="15.97501102596753"><ele>131.66666666666666</ele><time>2026-05-04T16:27:40Z</time></trkpt><trkpt lat="45.66675186294848" lon="15.975026456906008"><ele>132.0</ele><time>2026-05-04T16:27:41Z</time></trkpt><trkpt lat="45.66693099209955" lon="15.975046186925422"><ele>130.66666666666666</ele><time>2026-05-04T16:27:42Z</time></trkpt><trkpt lat="45.667109124421785" lon="15.975064221899501"><ele>129.33333333333331</ele><time>2026-05-04T16:27:43Z</time></trkpt><trkpt lat="45.667289925339965" lon="15.975080232446704"><ele>128.0</ele><time>2026-05-04T16:27:44Z</time></trkpt><trkpt lat="45.66746675753635" lon="15.97509779462656"><ele>128.0</ele><time>2026-05-04T16:27:45Z</time></trkpt><trkpt lat="45.667641145316466" lon="15.975116516871829"><ele>128.0</ele><time>2026-05-04T16:27:46Z</time></trkpt><trkpt lat="45.6678137001169" lon="15.975136657439434"><ele>128.0</ele><time>2026-05-04T16:27:47Z</time></trkpt><trkpt lat="45.66799020497545" lon="15.975160122829436"><ele>127.66666666666666</ele><time>2026-05-04T16:27:48Z</time></trkpt><trkpt lat="45.668165261846035" lon="15.975201992656162"><ele>127.33333333333334</ele><time>2026-05-04T16:27:49Z</time></trkpt><trkpt lat="45.66834322985012" lon="15.975270253455983"><ele>127.0</ele><time>2026-05-04T16:27:50Z</time></trkpt><trkpt lat="45.668521707398284" lon="15.975362250383919"><ele>128.0</ele><time>2026-05-04T16:27:51Z</time></trkpt><trkpt lat="45.66869543812485" lon="15.975469642899542"><ele>129.0</ele><time>2026-05-04T16:27:52Z</time></trkpt><trkpt lat="45.66887286861378" lon="15.975587505555968"><ele>130.0</ele><time>2026-05-04T16:27:53Z</time></trkpt><trkpt lat="45.66905197030589" lon="15.975712559580966"><ele>130.0</ele><time>2026-05-04T16:27:54Z</time></trkpt><trkpt lat="45.66922748164669" lon="15.9758480822294"><ele>130.0</ele><time>2026-05-04T16:27:55Z</time></trkpt><trkpt lat="45.66940408376645" lon="15.975989550838214"><ele>130.0</ele><time>2026-05-04T16:27:56Z</time></trkpt><trkpt lat="45.66957864372067" lon="15.976130031471078"><ele>129.66666666666669</ele><time>2026-05-04T16:27:57Z</time></trkpt><trkpt lat="45.669757565216855" lon="15.976275086640284"><ele>129.33333333333334</ele><time>2026-05-04T16:27:58Z</time></trkpt><trkpt lat="45.669939096246786" lon="15.976418679788964"><ele>129.0</ele><time>2026-05-04T16:27:59Z</time></trkpt><trkpt lat="45.67012830204381" lon="15.976567553221072"><ele>128.0</ele><time>2026-05-04T16:28:00Z</time></trkpt><trkpt lat="45.670324764815824" lon="15.976721672581228"><ele>127.0</ele><time>2026-05-04T16:28:01Z</time></trkpt><trkpt lat="45.670518017799054" lon="15.976881172471014"><ele>126.0</ele><time>2026-05-04T16:28:02Z</time></trkpt><trkpt lat="45.67071879590459" lon="15.977043182820724"><ele>126.0</ele><time>2026-05-04T16:28:03Z</time></trkpt><trkpt lat="45.67092748840096" lon="15.977208392790223"><ele>126.0</ele><time>2026-05-04T16:28:04Z</time></trkpt><trkpt lat="45.67113939337331" lon="15.97737248802061"><ele>125.5</ele><time>2026-05-04T16:28:05Z</time></trkpt><trkpt lat="45.67135139076207" lon="15.977537605390339"><ele>125.0</ele><time>2026-05-04T16:28:06Z</time></trkpt><trkpt lat="45.67155944234536" lon="15.977701140811128"><ele>125.0</ele><time>2026-05-04T16:28:07Z</time></trkpt><trkpt lat="45.67176423622076" lon="15.977861943365935"><ele>125.0</ele><time>2026-05-04T16:28:08Z</time></trkpt><trkpt lat="45.67196346497039" lon="15.978017414888456"><ele>125.0</ele><time>2026-05-04T16:28:09Z</time></trkpt><trkpt lat="45.67216012959761" lon="15.978167668803255"><ele>125.0</ele><time>2026-05-04T16:28:10Z</time></trkpt><trkpt lat="45.672357317485144" lon="15.978313706827281"><ele>125.0</ele><time>2026-05-04T16:28:11Z</time></trkpt><trkpt lat="45.67255431665892" lon="15.978454168124633"><ele>125.0</ele><time>2026-05-04T16:28:12Z</time></trkpt><trkpt lat="45.67275795736736" lon="15.978571258673021"><ele>125.0</ele><time>2026-05-04T16:28:13Z</time></trkpt><trkpt lat="45.672972661989185" lon="15.978669902411161"><ele>125.0</ele><time>2026-05-04T16:28:14Z</time></trkpt><trkpt lat="45.67319739278775" lon="15.978746841306917"><ele>125.5</ele><time>2026-05-04T16:28:15Z</time></trkpt><trkpt lat="45.673421080063925" lon="15.978816472911738"><ele>126.0</ele><time>2026-05-04T16:28:16Z</time></trkpt><trkpt lat="45.673652211061615" lon="15.978882767785187"><ele>126.0</ele><time>2026-05-04T16:28:17Z</time></trkpt><trkpt lat="45.673881178361384" lon="15.978951922738839"><ele>126.0</ele><time>2026-05-04T16:28:18Z</time></trkpt><trkpt lat="45.674111675912414" lon="15.979021146253151"><ele>126.0</ele><time>2026-05-04T16:28:19Z</time></trkpt><trkpt lat="45.67434316064205" lon="15.979092961925227"><ele>126.0</ele><time>2026-05-04T16:28:20Z</time></trkpt><trkpt lat="45.674575929020904" lon="15.979166443785806"><ele>124.5</ele><time>2026-05-04T16:28:21Z</time></trkpt><trkpt lat="45.67480847613867" lon="15.979238564166446"><ele>123.0</ele><time>2026-05-04T16:28:22Z</time></trkpt><trkpt lat="45.675040683492306" lon="15.979306524263588"><ele>123.0</ele><time>2026-05-04T16:28:23Z</time></trkpt><trkpt lat="45.67526570204099" lon="15.979381509767094"><ele>123.0</ele><time>2026-05-04T16:28:24Z</time></trkpt><trkpt lat="45.6754876851468" lon="15.97944946114047"><ele>123.5</ele><time>2026-05-04T16:28:25Z</time></trkpt><trkpt lat="45.67571136856886" lon="15.979516773522688"><ele>124.0</ele><time>2026-05-04T16:28:26Z</time></trkpt><trkpt lat="45.67593268548332" lon="15.979586002619923"><ele>125.33333333333334</ele><time>2026-05-04T16:28:27Z</time></trkpt><trkpt lat="45.67615030752713" lon="15.979656947348824"><ele>126.66666666666666</ele><time>2026-05-04T16:28:28Z</time></trkpt><trkpt lat="45.67636725414259" lon="15.979726114650314"><ele>128.0</ele><time>2026-05-04T16:28:29Z</time></trkpt><trkpt lat="45.67658468665085" lon="15.97978904594053"><ele>128.0</ele><time>2026-05-04T16:28:30Z</time></trkpt><trkpt lat="45.676811922445324" lon="15.979837637794743"><ele>128.0</ele><time>2026-05-04T16:28:31Z</time></trkpt><trkpt lat="45.67703538942199" lon="15.979875276751729"><ele>130.0</ele><time>2026-05-04T16:28:32Z</time></trkpt><trkpt lat="45.67726745312745" lon="15.979902032768564"><ele>132.0</ele><time>2026-05-04T16:28:33Z</time></trkpt><trkpt lat="45.67750537978815" lon="15.979907466370982"><ele>132.0</ele><time>2026-05-04T16:28:34Z</time></trkpt><trkpt lat="45.67775068196716" lon="15.979901624229623"><ele>132.0</ele><time>2026-05-04T16:28:35Z</time></trkpt><trkpt lat="45.67799997278025" lon="15.979887566743278"><ele>133.5</ele><time>2026-05-04T16:28:36Z</time></trkpt><trkpt lat="45.678255181566975" lon="15.979876594663349"><ele>135.0</ele><time>2026-05-04T16:28:37Z</time></trkpt><trkpt lat="45.678508930682135" lon="15.979873929651298"><ele>134.5</ele><time>2026-05-04T16:28:38Z</time></trkpt><trkpt lat="45.67876778563445" lon="15.979864671509068"><ele>134.0</ele><time>2026-05-04T16:28:39Z</time></trkpt><trkpt lat="45.67903105100071" lon="15.979852427590401"><ele>134.0</ele><time>2026-05-04T16:28:40Z</time></trkpt><trkpt lat="45.67929980737772" lon="15.979841934686464"><ele>134.0</ele><time>2026-05-04T16:28:41Z</time></trkpt><trkpt lat="45.67957532821354" lon="15.97983554916457"><ele>133.0</ele><time>2026-05-04T16:28:42Z</time></trkpt><trkpt lat="45.67985193690708" lon="15.979825289302642"><ele>132.0</ele><time>2026-05-04T16:28:43Z</time></trkpt><trkpt lat="45.680129196818584" lon="15.979817023036636"><ele>130.0</ele><time>2026-05-04T16:28:44Z</time></trkpt><trkpt lat="45.68040630789521" lon="15.979823935321559"><ele>128.0</ele><time>2026-05-04T16:28:45Z</time></trkpt><trkpt lat="45.68068421151828" lon="15.97981389673193"><ele>128.0</ele><time>2026-05-04T16:28:46Z</time></trkpt><trkpt lat="45.68096212684757" lon="15.979802029205356"><ele>128.0</ele><time>2026-05-04T16:28:47Z</time></trkpt><trkpt lat="45.681234922186086" lon="15.979795540437634"><ele>128.0</ele><time>2026-05-04T16:28:48Z</time></trkpt><trkpt lat="45.68150801351892" lon="15.979789463241278"><ele>128.0</ele><time>2026-05-04T16:28:49Z</time></trkpt><trkpt lat="45.681782244059555" lon="15.979784835415815"><ele>128.0</ele><time>2026-05-04T16:28:50Z</time></trkpt><trkpt lat="45.682057050349144" lon="15.979777973844818"><ele>128.0</ele><time>2026-05-04T16:28:51Z</time></trkpt><trkpt lat="45.68232977290368" lon="15.979768084549098"><ele>128.0</ele><time>2026-05-04T16:28:52Z</time></trkpt><trkpt lat="45.682598476505554" lon="15.979758890507515"><ele>128.0</ele><time>2026-05-04T16:28:53Z</time></trkpt><trkpt lat="45.682866489409335" lon="15.97975189425926"><ele>128.0</ele><time>2026-05-04T16:28:54Z</time></trkpt><trkpt lat="45.68313290912541" lon="15.979743619796059"><ele>128.0</ele><time>2026-05-04T16:28:55Z</time></trkpt><trkpt lat="45.68339643505762" lon="15.979733434027215"><ele>127.5</ele><time>2026-05-04T16:28:56Z</time></trkpt><trkpt lat="45.683657068219965" lon="15.97972752620406"><ele>127.0</ele><time>2026-05-04T16:28:57Z</time></trkpt><trkpt lat="45.6839167985419" lon="15.979721531700653"><ele>127.0</ele><time>2026-05-04T16:28:58Z</time></trkpt><trkpt lat="45.68417795540054" lon="15.979724917258196"><ele>127.0</ele><time>2026-05-04T16:28:59Z</time></trkpt><trkpt lat="45.68443889102932" lon="15.979748183124842"><ele>125.0</ele><time>2026-05-04T16:29:00Z</time></trkpt><trkpt lat="45.68470076415459" lon="15.97980168048318"><ele>123.0</ele><time>2026-05-04T16:29:01Z</time></trkpt><trkpt lat="45.68496476519592" lon="15.979871070998705"><ele>123.0</ele><time>2026-05-04T16:29:02Z</time></trkpt><trkpt lat="45.68524036866658" lon="15.979948799137562"><ele>123.0</ele><time>2026-05-04T16:29:03Z</time></trkpt><trkpt lat="45.68553083425053" lon="15.980021548489633"><ele>124.0</ele><time>2026-05-04T16:29:04Z</time></trkpt><trkpt lat="45.68583355181587" lon="15.980096194274937"><ele>125.0</ele><time>2026-05-04T16:29:05Z</time></trkpt><trkpt lat="45.68615679193395" lon="15.980170420734453"><ele>125.0</ele><time>2026-05-04T16:29:06Z</time></trkpt><trkpt lat="45.68649218121847" lon="15.980250687679453"><ele>125.0</ele><time>2026-05-04T16:29:07Z</time></trkpt><trkpt lat="45.686815751146256" lon="15.980332987912071"><ele>124.5</ele><time>2026-05-04T16:29:08Z</time></trkpt><trkpt lat="45.687120447372266" lon="15.980406617558069"><ele>124.0</ele><time>2026-05-04T16:29:09Z</time></trkpt><trkpt lat="45.68742263003163" lon="15.98047736119539"><ele>124.0</ele><time>2026-05-04T16:29:10Z</time></trkpt><trkpt lat="45.687713794819636" lon="15.980546438462705"><ele>124.0</ele><time>2026-05-04T16:29:11Z</time></trkpt><trkpt lat="45.688005210832564" lon="15.980620545448412"><ele>123.5</ele><time>2026-05-04T16:29:12Z</time></trkpt><trkpt lat="45.68829721612982" lon="15.98069269163912"><ele>123.0</ele><time>2026-05-04T16:29:13Z</time></trkpt><trkpt lat="45.68858792785297" lon="15.980762629993434"><ele>122.5</ele><time>2026-05-04T16:29:14Z</time></trkpt><trkpt lat="45.688877612020065" lon="15.980845381533653"><ele>122.0</ele><time>2026-05-04T16:29:15Z</time></trkpt><trkpt lat="45.68915667578323" lon="15.980941687666956"><ele>123.5</ele><time>2026-05-04T16:29:16Z</time></trkpt><trkpt lat="45.68943699328143" lon="15.98105389532256"><ele>125.0</ele><time>2026-05-04T16:29:17Z</time></trkpt><trkpt lat="45.689708303113804" lon="15.98117939944898"><ele>125.0</ele><time>2026-05-04T16:29:18Z</time></trkpt><trkpt lat="45.68997731129997" lon="15.981308005594537"><ele>125.0</ele><time>2026-05-04T16:29:19Z</time></trkpt><trkpt lat="45.690241078679605" lon="15.9814326820615"><ele>123.5</ele><time>2026-05-04T16:29:20Z</time></trkpt><trkpt lat="45.69048918216825" lon="15.981544245754476"><ele>122.0</ele><time>2026-05-04T16:29:21Z</time></trkpt><trkpt lat="45.6907305921201" lon="15.981651177686432"><ele>124.0</ele><time>2026-05-04T16:29:22Z</time></trkpt><trkpt lat="45.690964181175744" lon="15.981759408690491"><ele>126.0</ele><time>2026-05-04T16:29:23Z</time></trkpt><trkpt lat="45.69119988726257" lon="15.981867795467378"><ele>126.0</ele><time>2026-05-04T16:29:24Z</time></trkpt><trkpt lat="45.691431946060284" lon="15.981974808244885"><ele>126.0</ele><time>2026-05-04T16:29:25Z</time></trkpt><trkpt lat="45.691659661140484" lon="15.982079132482516"><ele>126.0</ele><time>2026-05-04T16:29:26Z</time></trkpt><trkpt lat="45.69188266178432" lon="15.982180672187244"><ele>126.0</ele><time>2026-05-04T16:29:27Z</time></trkpt><trkpt lat="45.69210178381786" lon="15.98228037909374"><ele>122.0</ele><time>2026-05-04T16:29:28Z</time></trkpt><trkpt lat="45.692327034061364" lon="15.982382299837155"><ele>118.0</ele><time>2026-05-04T16:29:29Z</time></trkpt><trkpt lat="45.69254783412088" lon="15.982484425312418"><ele>118.5</ele><time>2026-05-04T16:29:30Z</time></trkpt><trkpt lat="45.69276840722601" lon="15.9825855183567"><ele>119.0</ele><time>2026-05-04T16:29:31Z</time></trkpt><trkpt lat="45.6929983425147" lon="15.98268944557646"><ele>119.0</ele><time>2026-05-04T16:29:32Z</time></trkpt><trkpt lat="45.69322839692375" lon="15.982796861324761"><ele>119.0</ele><time>2026-05-04T16:29:33Z</time></trkpt><trkpt lat="45.69345532728959" lon="15.982899101866785"><ele>117.5</ele><time>2026-05-04T16:29:34Z</time></trkpt><trkpt lat="45.693670423338894" lon="15.98299491733896"><ele>116.0</ele><time>2026-05-04T16:29:35Z</time></trkpt><trkpt lat="45.6938884625428" lon="15.98309065849929"><ele>116.0</ele><time>2026-05-04T16:29:36Z</time></trkpt><trkpt lat="45.69411589956822" lon="15.983188280391746"><ele>116.0</ele><time>2026-05-04T16:29:37Z</time></trkpt><trkpt lat="45.69435244145064" lon="15.983282075375579"><ele>117.66666666666666</ele><time>2026-05-04T16:29:38Z</time></trkpt><trkpt lat="45.694580239160906" lon="15.983385115787526"><ele>119.33333333333334</ele><time>2026-05-04T16:29:39Z</time></trkpt><trkpt lat="45.69476979021896" lon="15.983482199190558"><ele>121.0</ele><time>2026-05-04T16:29:40Z</time></trkpt><trkpt lat="45.69493751844586" lon="15.983569157505933"><ele>121.0</ele><time>2026-05-04T16:29:41Z</time></trkpt><trkpt lat="45.69509230411409" lon="15.983641956048244"><ele>121.0</ele><time>2026-05-04T16:29:42Z</time></trkpt><trkpt lat="45.69525021305845" lon="15.98371375771339"><ele>121.0</ele><time>2026-05-04T16:29:43Z</time></trkpt><trkpt lat="45.6954121943888" lon="15.983787069991616"><ele>121.33333333333334</ele><time>2026-05-04T16:29:44Z</time></trkpt><trkpt lat="45.69556985979131" lon="15.983856922354137"><ele>121.66666666666666</ele><time>2026-05-04T16:29:45Z</time></trkpt><trkpt lat="45.69571228011056" lon="15.983921360431086"><ele>122.0</ele><time>2026-05-04T16:29:46Z</time></trkpt><trkpt lat="45.69584280555309" lon="15.983980864763907"><ele>122.0</ele><time>2026-05-04T16:29:47Z</time></trkpt><trkpt lat="45.6959639331178" lon="15.984038208342449"><ele>122.0</ele><time>2026-05-04T16:29:48Z</time></trkpt><trkpt lat="45.69607907210374" lon="15.984089367243381"><ele>122.0</ele><time>2026-05-04T16:29:49Z</time></trkpt><trkpt lat="45.69618597167388" lon="15.984136909505372"><ele>122.0</ele><time>2026-05-04T16:29:50Z</time></trkpt><trkpt lat="45.69628488656432" lon="15.984181182229795"><ele>121.8</ele><time>2026-05-04T16:29:51Z</time></trkpt><trkpt lat="45.696377849525064" lon="15.984226748833073"><ele>121.6</ele><time>2026-05-04T16:29:52Z</time></trkpt><trkpt lat="45.69647286847381" lon="15.984269754443593"><ele>121.39999999999999</ele><time>2026-05-04T16:29:53Z</time></trkpt><trkpt lat="45.69656172280167" lon="15.984310464201942"><ele>121.19999999999999</ele><time>2026-05-04T16:29:54Z</time></trkpt><trkpt lat="45.6966479681861" lon="15.98434640047628"><ele>121.0</ele><time>2026-05-04T16:29:55Z</time></trkpt><trkpt lat="45.696739828907354" lon="15.984386582222175"><ele>121.0</ele><time>2026-05-04T16:29:56Z</time></trkpt><trkpt lat="45.696832595611475" lon="15.984427124892743"><ele>121.0</ele><time>2026-05-04T16:29:57Z</time></trkpt><trkpt lat="45.696922556774624" lon="15.984467958457605"><ele>121.0</ele><time>2026-05-04T16:29:58Z</time></trkpt><trkpt lat="45.69700705884404" lon="15.984506365970283"><ele>121.0</ele><time>2026-05-04T16:29:59Z</time></trkpt><trkpt lat="45.697089534536396" lon="15.984543830530242"><ele>121.0</ele><time>2026-05-04T16:30:00Z</time></trkpt><trkpt lat="45.69717018866279" lon="15.984581360676948"><ele>119.33333333333334</ele><time>2026-05-04T16:30:01Z</time></trkpt><trkpt lat="45.69724161083309" lon="15.984614234918926"><ele>117.66666666666667</ele><time>2026-05-04T16:30:02Z</time></trkpt><trkpt lat="45.69730831473066" lon="15.984643262760057"><ele>116.0</ele><time>2026-05-04T16:30:03Z</time></trkpt><trkpt lat="45.697369866320614" lon="15.984672371989408"><ele>114.33333333333334</ele><time>2026-05-04T16:30:04Z</time></trkpt><trkpt lat="45.69748693698414" lon="15.984728397255365"><ele>112.66666666666667</ele><time>2026-05-04T16:30:06Z</time></trkpt><trkpt lat="45.69755220794994" lon="15.984758027363602"><ele>111.0</ele><time>2026-05-04T16:30:07Z</time></trkpt><trkpt lat="45.69762066690465" lon="15.984790777768753"><ele>111.0</ele><time>2026-05-04T16:30:08Z</time></trkpt><trkpt lat="45.69769188816399" lon="15.98482068450195"><ele>111.0</ele><time>2026-05-04T16:30:09Z</time></trkpt><trkpt lat="45.69777018742492" lon="15.98485544175744"><ele>111.0</ele><time>2026-05-04T16:30:10Z</time></trkpt><trkpt lat="45.697850639179606" lon="15.98489313432228"><ele>111.0</ele><time>2026-05-04T16:30:11Z</time></trkpt><trkpt lat="45.697930909079695" lon="15.984929127206536"><ele>111.0</ele><time>2026-05-04T16:30:12Z</time></trkpt><trkpt lat="45.69801230468039" lon="15.984963361333985"><ele>111.0</ele><time>2026-05-04T16:30:13Z</time></trkpt><trkpt lat="45.69809147604243" lon="15.984996835738894"><ele>110.8</ele><time>2026-05-04T16:30:14Z</time></trkpt><trkpt lat="45.698179102694596" lon="15.985035996429614"><ele>110.6</ele><time>2026-05-04T16:30:15Z</time></trkpt><trkpt lat="45.69827231296198" lon="15.98507930289019"><ele>110.4</ele><time>2026-05-04T16:30:16Z</time></trkpt><trkpt lat="45.698369945813184" lon="15.985124766953895"><ele>110.2</ele><time>2026-05-04T16:30:17Z</time></trkpt><trkpt lat="45.698462625504" lon="15.985166537449524"><ele>110.0</ele><time>2026-05-04T16:30:18Z</time></trkpt><trkpt lat="45.69854915423331" lon="15.985202449953842"><ele>110.4</ele><time>2026-05-04T16:30:19Z</time></trkpt><trkpt lat="45.6986412348057" lon="15.985247140106306"><ele>110.8</ele><time>2026-05-04T16:30:20Z</time></trkpt><trkpt lat="45.698736890552766" lon="15.985292881681463"><ele>111.19999999999999</ele><time>2026-05-04T16:30:21Z</time></trkpt><trkpt lat="45.69884418592944" lon="15.985343254816824"><ele>111.6</ele><time>2026-05-04T16:30:22Z</time></trkpt><trkpt lat="45.69895457829074" lon="15.98539088394235"><ele>112.0</ele><time>2026-05-04T16:30:23Z</time></trkpt><trkpt lat="45.69906386497271" lon="15.985439024150846"><ele>112.0</ele><time>2026-05-04T16:30:24Z</time></trkpt><trkpt lat="45.699176879030226" lon="15.985492978722522"><ele>112.0</ele><time>2026-05-04T16:30:25Z</time></trkpt><trkpt lat="45.69929557402691" lon="15.985548375143848"><ele>112.0</ele><time>2026-05-04T16:30:26Z</time></trkpt><trkpt lat="45.69941980870685" lon="15.985604425071706"><ele>112.0</ele><time>2026-05-04T16:30:27Z</time></trkpt><trkpt lat="45.69953876660271" lon="15.985662521761025"><ele>112.0</ele><time>2026-05-04T16:30:28Z</time></trkpt><trkpt lat="45.699652990222994" lon="15.985719427311402"><ele>112.0</ele><time>2026-05-04T16:30:29Z</time></trkpt><trkpt lat="45.699767188698786" lon="15.985777671850128"><ele>112.0</ele><time>2026-05-04T16:30:30Z</time></trkpt><trkpt lat="45.69987835332193" lon="15.985831693915452"><ele>112.0</ele><time>2026-05-04T16:30:31Z</time></trkpt><trkpt lat="45.69999040407061" lon="15.985888056767994"><ele>112.0</ele><time>2026-05-04T16:30:32Z</time></trkpt><trkpt lat="45.70010858245362" lon="15.985946014678719"><ele>112.0</ele><time>2026-05-04T16:30:33Z</time></trkpt><trkpt lat="45.70022904375469" lon="15.98600711844165"><ele>112.0</ele><time>2026-05-04T16:30:34Z</time></trkpt><trkpt lat="45.70034816070221" lon="15.986068885716533"><ele>112.0</ele><time>2026-05-04T16:30:35Z</time></trkpt><trkpt lat="45.70046967066274" lon="15.986136855261162"><ele>112.25</ele><time>2026-05-04T16:30:36Z</time></trkpt><trkpt lat="45.700591344154" lon="15.986204182261925"><ele>112.5</ele><time>2026-05-04T16:30:37Z</time></trkpt><trkpt lat="45.70071601311" lon="15.986271494935268"><ele>112.75</ele><time>2026-05-04T16:30:38Z</time></trkpt><trkpt lat="45.70084223528612" lon="15.986341382237129"><ele>113.0</ele><time>2026-05-04T16:30:39Z</time></trkpt><trkpt lat="45.7009671103773" lon="15.986411977182104"><ele>113.0</ele><time>2026-05-04T16:30:40Z</time></trkpt><trkpt lat="45.70109412910854" lon="15.986481693711358"><ele>113.0</ele><time>2026-05-04T16:30:41Z</time></trkpt><trkpt lat="45.70122714646305" lon="15.986557605455463"><ele>113.0</ele><time>2026-05-04T16:30:42Z</time></trkpt><trkpt lat="45.70136367535094" lon="15.98663574500956"><ele>113.0</ele><time>2026-05-04T16:30:43Z</time></trkpt><trkpt lat="45.70150442704193" lon="15.986714186395727"><ele>112.75</ele><time>2026-05-04T16:30:44Z</time></trkpt><trkpt lat="45.70163521878646" lon="15.98677860276789"><ele>112.5</ele><time>2026-05-04T16:30:45Z</time></trkpt><trkpt lat="45.701765870774224" lon="15.986839475316517"><ele>112.25</ele><time>2026-05-04T16:30:46Z</time></trkpt><trkpt lat="45.701903537604395" lon="15.986916332613516"><ele>112.0</ele><time>2026-05-04T16:30:47Z</time></trkpt><trkpt lat="45.702051624637846" lon="15.987002247951413"><ele>111.75</ele><time>2026-05-04T16:30:48Z</time></trkpt><trkpt lat="45.70219270900459" lon="15.987095107407685"><ele>111.5</ele><time>2026-05-04T16:30:49Z</time></trkpt><trkpt lat="45.702330720721285" lon="15.987190463840744"><ele>111.25</ele><time>2026-05-04T16:30:50Z</time></trkpt><trkpt lat="45.70245755712297" lon="15.987261520590275"><ele>111.0</ele><time>2026-05-04T16:30:51Z</time></trkpt><trkpt lat="45.7025914284393" lon="15.987321944279541"><ele>111.0</ele><time>2026-05-04T16:30:52Z</time></trkpt><trkpt lat="45.70272499545704" lon="15.987377574347176"><ele>111.0</ele><time>2026-05-04T16:30:53Z</time></trkpt><trkpt lat="45.702857626558206" lon="15.987422862828279"><ele>111.0</ele><time>2026-05-04T16:30:54Z</time></trkpt><trkpt lat="45.70299465669784" lon="15.987467313943021"><ele>111.0</ele><time>2026-05-04T16:30:55Z</time></trkpt><trkpt lat="45.703122514421764" lon="15.987513385708437"><ele>111.0</ele><time>2026-05-04T16:30:56Z</time></trkpt><trkpt lat="45.703240672794" lon="15.987558807266028"><ele>111.0</ele><time>2026-05-04T16:30:57Z</time></trkpt><trkpt lat="45.703361183173826" lon="15.987609111490206"><ele>111.0</ele><time>2026-05-04T16:30:58Z</time></trkpt><trkpt lat="45.70349044019258" lon="15.98765607278492"><ele>111.0</ele><time>2026-05-04T16:30:59Z</time></trkpt><trkpt lat="45.70360662876214" lon="15.987697277802187"><ele>111.25</ele><time>2026-05-04T16:31:00Z</time></trkpt><trkpt lat="45.70371885380709" lon="15.987735998867834"><ele>111.5</ele><time>2026-05-04T16:31:01Z</time></trkpt><trkpt lat="45.70382644306312" lon="15.987774275098237"><ele>111.75</ele><time>2026-05-04T16:31:02Z</time></trkpt><trkpt lat="45.70393774240302" lon="15.987818790277506"><ele>112.0</ele><time>2026-05-04T16:31:03Z</time></trkpt><trkpt lat="45.7040478628789" lon="15.987881090842583"><ele>112.0</ele><time>2026-05-04T16:31:04Z</time></trkpt><trkpt lat="45.70414493271504" lon="15.987968313379277"><ele>112.0</ele><time>2026-05-04T16:31:05Z</time></trkpt><trkpt lat="45.70423135696905" lon="15.988085338825078"><ele>112.0</ele><time>2026-05-04T16:31:06Z</time></trkpt><trkpt lat="45.70429519412138" lon="15.988225224889431"><ele>112.0</ele><time>2026-05-04T16:31:07Z</time></trkpt><trkpt lat="45.704347520239196" lon="15.988388476281735"><ele>112.0</ele><time>2026-05-04T16:31:08Z</time></trkpt><trkpt lat="45.704387857739235" lon="15.988559080099922"><ele>112.0</ele><time>2026-05-04T16:31:09Z</time></trkpt><trkpt lat="45.70443196289863" lon="15.988719105083414"><ele>112.0</ele><time>2026-05-04T16:31:10Z</time></trkpt><trkpt lat="45.70448062262634" lon="15.988865552728212"><ele>112.0</ele><time>2026-05-04T16:31:11Z</time></trkpt><trkpt lat="45.704532904721994" lon="15.98901260257344"><ele>112.0</ele><time>2026-05-04T16:31:12Z</time></trkpt><trkpt lat="45.704589087332465" lon="15.989166925717553"><ele>112.0</ele><time>2026-05-04T16:31:13Z</time></trkpt><trkpt lat="45.70465442471811" lon="15.989319218105296"><ele>112.0</ele><time>2026-05-04T16:31:14Z</time></trkpt><trkpt lat="45.704733507324214" lon="15.989463638314175"><ele>112.0</ele><time>2026-05-04T16:31:15Z</time></trkpt><trkpt lat="45.70482445875525" lon="15.989608317993367"><ele>112.33333333333334</ele><time>2026-05-04T16:31:16Z</time></trkpt><trkpt lat="45.70493814824956" lon="15.989757194323145"><ele>112.66666666666666</ele><time>2026-05-04T16:31:17Z</time></trkpt><trkpt lat="45.705075461036955" lon="15.989914200343147"><ele>113.0</ele><time>2026-05-04T16:31:18Z</time></trkpt><trkpt lat="45.70523187128577" lon="15.990061220819904"><ele>112.33333333333333</ele><time>2026-05-04T16:31:19Z</time></trkpt><trkpt lat="45.70538453969581" lon="15.990205393742436"><ele>111.66666666666666</ele><time>2026-05-04T16:31:20Z</time></trkpt><trkpt lat="45.70551639194567" lon="15.990362861416024"><ele>111.0</ele><time>2026-05-04T16:31:21Z</time></trkpt><trkpt lat="45.705635415280874" lon="15.99053069784396"><ele>111.0</ele><time>2026-05-04T16:31:22Z</time></trkpt><trkpt lat="45.70573971598188" lon="15.990692084889051"><ele>111.0</ele><time>2026-05-04T16:31:23Z</time></trkpt><trkpt lat="45.70583418632195" lon="15.990853746005728"><ele>111.0</ele><time>2026-05-04T16:31:24Z</time></trkpt><trkpt lat="45.70592396218123" lon="15.99101065366139"><ele>111.0</ele><time>2026-05-04T16:31:25Z</time></trkpt><trkpt lat="45.706029761234646" lon="15.991178231986314"><ele>111.0</ele><time>2026-05-04T16:31:26Z</time></trkpt><trkpt lat="45.706138163790385" lon="15.991321998894305"><ele>111.0</ele><time>2026-05-04T16:31:27Z</time></trkpt><trkpt lat="45.706252043322145" lon="15.991452253435567"><ele>111.0</ele><time>2026-05-04T16:31:28Z</time></trkpt><trkpt lat="45.70637010461323" lon="15.991565655926756"><ele>111.0</ele><time>2026-05-04T16:31:29Z</time></trkpt><trkpt lat="45.70649039438638" lon="15.991685708587779"><ele>111.25</ele><time>2026-05-04T16:31:30Z</time></trkpt><trkpt lat="45.70660412067527" lon="15.991817450184266"><ele>111.5</ele><time>2026-05-04T16:31:31Z</time></trkpt><trkpt lat="45.70671161808856" lon="15.991960761047913"><ele>111.75</ele><time>2026-05-04T16:31:32Z</time></trkpt><trkpt lat="45.706822572940276" lon="15.992112781661056"><ele>112.0</ele><time>2026-05-04T16:31:33Z</time></trkpt><trkpt lat="45.706934260479855" lon="15.992272651065306"><ele>111.33333333333334</ele><time>2026-05-04T16:31:34Z</time></trkpt><trkpt lat="45.70704172345096" lon="15.992435673867996"><ele>110.66666666666666</ele><time>2026-05-04T16:31:35Z</time></trkpt><trkpt lat="45.70714669772202" lon="15.99259387646185"><ele>110.0</ele><time>2026-05-04T16:31:36Z</time></trkpt><trkpt lat="45.70724950289863" lon="15.992746320723862"><ele>110.0</ele><time>2026-05-04T16:31:37Z</time></trkpt><trkpt lat="45.707351501022686" lon="15.992900796775423"><ele>110.0</ele><time>2026-05-04T16:31:38Z</time></trkpt><trkpt lat="45.707453068011795" lon="15.993062596126844"><ele>110.0</ele><time>2026-05-04T16:31:39Z</time></trkpt><trkpt lat="45.70755961195951" lon="15.993213510633849"><ele>110.25</ele><time>2026-05-04T16:31:40Z</time></trkpt><trkpt lat="45.70766616650869" lon="15.993360735422316"><ele>110.5</ele><time>2026-05-04T16:31:41Z</time></trkpt><trkpt lat="45.70777028713582" lon="15.993493561390991"><ele>110.75</ele><time>2026-05-04T16:31:42Z</time></trkpt><trkpt lat="45.70787271935894" lon="15.993628157011006"><ele>111.0</ele><time>2026-05-04T16:31:43Z</time></trkpt><trkpt lat="45.70797450745705" lon="15.993762971610565"><ele>110.5</ele><time>2026-05-04T16:31:44Z</time></trkpt><trkpt lat="45.70807833435928" lon="15.993894100965676"><ele>110.0</ele><time>2026-05-04T16:31:45Z</time></trkpt><trkpt lat="45.708180298066424" lon="15.994015740031367"><ele>109.5</ele><time>2026-05-04T16:31:46Z</time></trkpt><trkpt lat="45.708274839729675" lon="15.994124754106586"><ele>109.0</ele><time>2026-05-04T16:31:47Z</time></trkpt><trkpt lat="45.70835981847812" lon="15.994227122833365"><ele>109.0</ele><time>2026-05-04T16:31:48Z</time></trkpt><trkpt lat="45.70843777566423" lon="15.994331337159132"><ele>109.0</ele><time>2026-05-04T16:31:49Z</time></trkpt><trkpt lat="45.70850738260428" lon="15.994431222199097"><ele>109.0</ele><time>2026-05-04T16:31:50Z</time></trkpt><trkpt lat="45.70857363747107" lon="15.994531022237688"><ele>109.0</ele><time>2026-05-04T16:31:51Z</time></trkpt><trkpt lat="45.70864625238089" lon="15.994636072763807"><ele>109.0</ele><time>2026-05-04T16:31:52Z</time></trkpt><trkpt lat="45.70872576880395" lon="15.994756837693934"><ele>109.0</ele><time>2026-05-04T16:31:53Z</time></trkpt><trkpt lat="45.70881881824005" lon="15.994892301356547"><ele>109.0</ele><time>2026-05-04T16:31:54Z</time></trkpt><trkpt lat="45.70892631930129" lon="15.995039841564406"><ele>109.0</ele><time>2026-05-04T16:31:55Z</time></trkpt><trkpt lat="45.709054245284165" lon="15.995194173100634"><ele>109.0</ele><time>2026-05-04T16:31:56Z</time></trkpt><trkpt lat="45.70920728305117" lon="15.995332889234643"><ele>108.33333333333334</ele><time>2026-05-04T16:31:57Z</time></trkpt><trkpt lat="45.709384401122165" lon="15.995429613333663"><ele>107.66666666666666</ele><time>2026-05-04T16:31:58Z</time></trkpt><trkpt lat="45.70955800352086" lon="15.995489045597138"><ele>107.0</ele><time>2026-05-04T16:31:59Z</time></trkpt><trkpt lat="45.70970550300044" lon="15.995523278491701"><ele>106.8</ele><time>2026-05-04T16:32:00Z</time></trkpt><trkpt lat="45.709822437252896" lon="15.995542643247312"><ele>106.6</ele><time>2026-05-04T16:32:01Z</time></trkpt><trkpt lat="45.70991802191764" lon="15.99556431526527"><ele>106.39999999999999</ele><time>2026-05-04T16:32:02Z</time></trkpt><trkpt lat="45.70999140519505" lon="15.99557798913401"><ele>106.19999999999999</ele><time>2026-05-04T16:32:03Z</time></trkpt><trkpt lat="45.71011459475535" lon="15.995594868593798"><ele>106.0</ele><time>2026-05-04T16:32:05Z</time></trkpt><trkpt lat="45.710202873371244" lon="15.995598777269546"><ele>106.66666666666667</ele><time>2026-05-04T16:32:06Z</time></trkpt><trkpt lat="45.71033030671101" lon="15.995603619883418"><ele>107.33333333333334</ele><time>2026-05-04T16:32:07Z</time></trkpt><trkpt lat="45.71048778891564" lon="15.99561057302107"><ele>108.0</ele><time>2026-05-04T16:32:08Z</time></trkpt><trkpt lat="45.71068557820527" lon="15.995610788792549"><ele>108.0</ele><time>2026-05-04T16:32:09Z</time></trkpt><trkpt lat="45.710937413693166" lon="15.995611226324295"><ele>108.0</ele><time>2026-05-04T16:32:10Z</time></trkpt><trkpt lat="45.71123039643565" lon="15.995605468341308"><ele>108.0</ele><time>2026-05-04T16:32:11Z</time></trkpt><trkpt lat="45.71154930819279" lon="15.995598220112912"><ele>108.0</ele><time>2026-05-04T16:32:12Z</time></trkpt><trkpt lat="45.7118672735025" lon="15.99562158385494"><ele>107.5</ele><time>2026-05-04T16:32:13Z</time></trkpt><trkpt lat="45.71216778467058" lon="15.995654962729844"><ele>107.0</ele><time>2026-05-04T16:32:14Z</time></trkpt><trkpt lat="45.712448928992174" lon="15.99569497336576"><ele>107.0</ele><time>2026-05-04T16:32:15Z</time></trkpt><trkpt lat="45.71271424013949" lon="15.99573212476962"><ele>107.0</ele><time>2026-05-04T16:32:16Z</time></trkpt><trkpt lat="45.71296696013563" lon="15.995763548166796"><ele>107.0</ele><time>2026-05-04T16:32:17Z</time></trkpt><trkpt lat="45.713210242395434" lon="15.995791454940052"><ele>107.0</ele><time>2026-05-04T16:32:18Z</time></trkpt><trkpt lat="45.71343599170666" lon="15.995816425605943"><ele>107.66666666666666</ele><time>2026-05-04T16:32:19Z</time></trkpt><trkpt lat="45.71364671922038" lon="15.995844463174421"><ele>108.33333333333334</ele><time>2026-05-04T16:32:20Z</time></trkpt><trkpt lat="45.71385778594541" lon="15.995870841523278"><ele>109.0</ele><time>2026-05-04T16:32:21Z</time></trkpt><trkpt lat="45.71407707678783" lon="15.995901194552125"><ele>109.0</ele><time>2026-05-04T16:32:22Z</time></trkpt><trkpt lat="45.71429284480091" lon="15.995926913511637"><ele>109.0</ele><time>2026-05-04T16:32:23Z</time></trkpt><trkpt lat="45.71450078553717" lon="15.995952698047743"><ele>109.0</ele><time>2026-05-04T16:32:24Z</time></trkpt><trkpt lat="45.71468909367637" lon="15.99597313482655"><ele>108.66666666666667</ele><time>2026-05-04T16:32:25Z</time></trkpt><trkpt lat="45.71487039420079" lon="15.99599183029032"><ele>108.33333333333334</ele><time>2026-05-04T16:32:26Z</time></trkpt><trkpt lat="45.715050321978" lon="15.996012725175408"><ele>108.0</ele><time>2026-05-04T16:32:27Z</time></trkpt><trkpt lat="45.71523810376845" lon="15.99603150495363"><ele>107.66666666666666</ele><time>2026-05-04T16:32:28Z</time></trkpt><trkpt lat="45.71543470855287" lon="15.996045344308474"><ele>107.33333333333333</ele><time>2026-05-04T16:32:29Z</time></trkpt><trkpt lat="45.715627990031045" lon="15.996063227043665"><ele>107.0</ele><time>2026-05-04T16:32:30Z</time></trkpt><trkpt lat="45.71581303812171" lon="15.996085745042434"><ele>107.0</ele><time>2026-05-04T16:32:31Z</time></trkpt><trkpt lat="45.71599711536893" lon="15.996110442355903"><ele>107.0</ele><time>2026-05-04T16:32:32Z</time></trkpt><trkpt lat="45.71616830447493" lon="15.996132449566938"><ele>107.0</ele><time>2026-05-04T16:32:33Z</time></trkpt><trkpt lat="45.71634236709406" lon="15.996153525260786"><ele>107.0</ele><time>2026-05-04T16:32:34Z</time></trkpt><trkpt lat="45.71651842178561" lon="15.99617034131593"><ele>107.0</ele><time>2026-05-04T16:32:35Z</time></trkpt><trkpt lat="45.71668739015586" lon="15.99619066526736"><ele>107.0</ele><time>2026-05-04T16:32:36Z</time></trkpt><trkpt lat="45.716853481957045" lon="15.996210051375218"><ele>107.66666666666666</ele><time>2026-05-04T16:32:37Z</time></trkpt><trkpt lat="45.717015898531564" lon="15.996230568501966"><ele>108.33333333333334</ele><time>2026-05-04T16:32:38Z</time></trkpt><trkpt lat="45.71718265399823" lon="15.996251198129732"><ele>109.0</ele><time>2026-05-04T16:32:39Z</time></trkpt><trkpt lat="45.717347259054776" lon="15.996269792234067"><ele>109.0</ele><time>2026-05-04T16:32:40Z</time></trkpt><trkpt lat="45.71750460922813" lon="15.99628480744696"><ele>109.0</ele><time>2026-05-04T16:32:41Z</time></trkpt><trkpt lat="45.71765793362748" lon="15.996301811770836"><ele>109.0</ele><time>2026-05-04T16:32:42Z</time></trkpt><trkpt lat="45.71780680903559" lon="15.996325935761933"><ele>108.66666666666667</ele><time>2026-05-04T16:32:43Z</time></trkpt><trkpt lat="45.717966628015446" lon="15.996367246223079"><ele>108.33333333333334</ele><time>2026-05-04T16:32:44Z</time></trkpt><trkpt lat="45.718130757757336" lon="15.996442847944573"><ele>108.0</ele><time>2026-05-04T16:32:45Z</time></trkpt><trkpt lat="45.718292938873624" lon="15.996557551682953"><ele>108.0</ele><time>2026-05-04T16:32:46Z</time></trkpt><trkpt lat="45.718456027637" lon="15.99669671906879"><ele>108.0</ele><time>2026-05-04T16:32:47Z</time></trkpt><trkpt lat="45.71862213604671" lon="15.996842602058793"><ele>108.0</ele><time>2026-05-04T16:32:48Z</time></trkpt><trkpt lat="45.71879426480536" lon="15.996992308065666"><ele>108.0</ele><time>2026-05-04T16:32:49Z</time></trkpt><trkpt lat="45.718974227154106" lon="15.997148182245477"><ele>108.0</ele><time>2026-05-04T16:32:50Z</time></trkpt><trkpt lat="45.719162399320524" lon="15.997333162994574"><ele>108.0</ele><time>2026-05-04T16:32:51Z</time></trkpt><trkpt lat="45.719326335413626" lon="15.997531893265842"><ele>108.33333333333334</ele><time>2026-05-04T16:32:52Z</time></trkpt><trkpt lat="45.71947617693259" lon="15.997727142907955"><ele>108.66666666666667</ele><time>2026-05-04T16:32:53Z</time></trkpt><trkpt lat="45.719622125122676" lon="15.997918900907074"><ele>109.0</ele><time>2026-05-04T16:32:54Z</time></trkpt><trkpt lat="45.7197618785546" lon="15.99810451226129"><ele>109.0</ele><time>2026-05-04T16:32:55Z</time></trkpt><trkpt lat="45.719903562933624" lon="15.99828674940872"><ele>109.0</ele><time>2026-05-04T16:32:56Z</time></trkpt><trkpt lat="45.7200580360522" lon="15.99846765219248"><ele>109.0</ele><time>2026-05-04T16:32:57Z</time></trkpt><trkpt lat="45.72022443200807" lon="15.99862684662791"><ele>108.66666666666667</ele><time>2026-05-04T16:32:58Z</time></trkpt><trkpt lat="45.72040279205859" lon="15.998758441541133"><ele>108.33333333333334</ele><time>2026-05-04T16:32:59Z</time></trkpt><trkpt lat="45.72059249072662" lon="15.99885955567492"><ele>108.0</ele><time>2026-05-04T16:33:00Z</time></trkpt><trkpt lat="45.72079661596864" lon="15.998936244641856"><ele>108.0</ele><time>2026-05-04T16:33:01Z</time></trkpt><trkpt lat="45.721005135586324" lon="15.999020600277232"><ele>108.0</ele><time>2026-05-04T16:33:02Z</time></trkpt><trkpt lat="45.721200323197" lon="15.999133056398831"><ele>108.0</ele><time>2026-05-04T16:33:03Z</time></trkpt><trkpt lat="45.7213948776001" lon="15.999247510567054"><ele>108.33333333333334</ele><time>2026-05-04T16:33:04Z</time></trkpt><trkpt lat="45.7215903215711" lon="15.999361276445462"><ele>108.66666666666667</ele><time>2026-05-04T16:33:05Z</time></trkpt><trkpt lat="45.72179022302342" lon="15.99947258423799"><ele>109.0</ele><time>2026-05-04T16:33:06Z</time></trkpt><trkpt lat="45.721990053344946" lon="15.999584749805333"><ele>108.0</ele><time>2026-05-04T16:33:07Z</time></trkpt><trkpt lat="45.72217417197932" lon="15.999688166378066"><ele>107.0</ele><time>2026-05-04T16:33:08Z</time></trkpt><trkpt lat="45.722343067521194" lon="15.99978572845517"><ele>106.0</ele><time>2026-05-04T16:33:09Z</time></trkpt><trkpt lat="45.722504669963755" lon="15.99988270101341"><ele>106.0</ele><time>2026-05-04T16:33:10Z</time></trkpt><trkpt lat="45.72266928464251" lon="15.999986097444678"><ele>106.0</ele><time>2026-05-04T16:33:11Z</time></trkpt><trkpt lat="45.722844637031194" lon="16.000099458255292"><ele>106.0</ele><time>2026-05-04T16:33:12Z</time></trkpt><trkpt lat="45.723019203563524" lon="16.000222970335088"><ele>106.66666666666667</ele><time>2026-05-04T16:33:13Z</time></trkpt><trkpt lat="45.723178063901344" lon="16.000342644131123"><ele>107.33333333333334</ele><time>2026-05-04T16:33:14Z</time></trkpt><trkpt lat="45.72332120119539" lon="16.00046211258189"><ele>108.0</ele><time>2026-05-04T16:33:15Z</time></trkpt><trkpt lat="45.72344881689188" lon="16.000569964141953"><ele>108.0</ele><time>2026-05-04T16:33:16Z</time></trkpt><trkpt lat="45.72356194898826" lon="16.000671857842764"><ele>108.00000000000001</ele><time>2026-05-04T16:33:17Z</time></trkpt><trkpt lat="45.72365895430116" lon="16.000765997571698"><ele>108.00000000000001</ele><time>2026-05-04T16:33:18Z</time></trkpt><trkpt lat="45.723742115220176" lon="16.000850437914135"><ele>108.0</ele><time>2026-05-04T16:33:19Z</time></trkpt><trkpt lat="45.72381809970444" lon="16.000933867596782"><ele>108.0</ele><time>2026-05-04T16:33:20Z</time></trkpt><trkpt lat="45.72388849485382" lon="16.00101662244843"><ele>108.2</ele><time>2026-05-04T16:33:21Z</time></trkpt><trkpt lat="45.7239478983295" lon="16.00108618620436"><ele>108.4</ele><time>2026-05-04T16:33:22Z</time></trkpt><trkpt lat="45.7239993478777" lon="16.00114618832239"><ele>108.60000000000001</ele><time>2026-05-04T16:33:25Z</time></trkpt><trkpt lat="45.72410514484599" lon="16.001151486156765"><ele>108.80000000000001</ele><time>2026-05-04T16:33:27Z</time></trkpt><trkpt lat="45.724177153089066" lon="16.00106811063722"><ele>109.0</ele><time>2026-05-04T16:33:28Z</time></trkpt><trkpt lat="45.724268716819466" lon="16.000927549097362"><ele>108.66666666666667</ele><time>2026-05-04T16:33:29Z</time></trkpt><trkpt lat="45.72440152236334" lon="16.000738782173116"><ele>108.33333333333334</ele><time>2026-05-04T16:33:30Z</time></trkpt><trkpt lat="45.72458234594788" lon="16.000497810324326"><ele>108.0</ele><time>2026-05-04T16:33:31Z</time></trkpt><trkpt lat="45.72477547369968" lon="16.000236864556555"><ele>108.0</ele><time>2026-05-04T16:33:32Z</time></trkpt><trkpt lat="45.72495247348984" lon="16.00000389461272"><ele>108.0</ele><time>2026-05-04T16:33:33Z</time></trkpt><trkpt lat="45.725118706614666" lon="15.99979623849338"><ele>107.66666666666666</ele><time>2026-05-04T16:33:34Z</time></trkpt><trkpt lat="45.725266624131464" lon="15.999609972327939"><ele>107.33333333333333</ele><time>2026-05-04T16:33:35Z</time></trkpt><trkpt lat="45.72541022868043" lon="15.999417265039924"><ele>107.0</ele><time>2026-05-04T16:33:36Z</time></trkpt><trkpt lat="45.72554476849653" lon="15.999203900788158"><ele>107.33333333333333</ele><time>2026-05-04T16:33:37Z</time></trkpt><trkpt lat="45.725667413080814" lon="15.99897879026019"><ele>107.66666666666666</ele><time>2026-05-04T16:33:38Z</time></trkpt><trkpt lat="45.7257941070988" lon="15.998722335086537"><ele>108.0</ele><time>2026-05-04T16:33:39Z</time></trkpt><trkpt lat="45.72592071317312" lon="15.998451811577517"><ele>108.0</ele><time>2026-05-04T16:33:40Z</time></trkpt><trkpt lat="45.72603788414422" lon="15.998188236211181"><ele>108.0</ele><time>2026-05-04T16:33:41Z</time></trkpt><trkpt lat="45.72613850769522" lon="15.997927226460071"><ele>108.0</ele><time>2026-05-04T16:33:42Z</time></trkpt><trkpt lat="45.7262202886597" lon="15.997690358330143"><ele>108.66666666666666</ele><time>2026-05-04T16:33:43Z</time></trkpt><trkpt lat="45.726292893397584" lon="15.997469361379517"><ele>109.33333333333333</ele><time>2026-05-04T16:33:44Z</time></trkpt><trkpt lat="45.72636608210841" lon="15.997251019788443"><ele>110.0</ele><time>2026-05-04T16:33:45Z</time></trkpt><trkpt lat="45.726443922122" lon="15.997033188088915"><ele>110.0</ele><time>2026-05-04T16:33:46Z</time></trkpt><trkpt lat="45.726540283961576" lon="15.996808743929424"><ele>110.0</ele><time>2026-05-04T16:33:47Z</time></trkpt><trkpt lat="45.7266676038915" lon="15.996588841853985"><ele>110.0</ele><time>2026-05-04T16:33:48Z</time></trkpt><trkpt lat="45.7268157707548" lon="15.996380123539346"><ele>110.0</ele><time>2026-05-04T16:33:49Z</time></trkpt><trkpt lat="45.72696428593239" lon="15.996169351284706"><ele>110.0</ele><time>2026-05-04T16:33:50Z</time></trkpt><trkpt lat="45.72710237993512" lon="15.99595709434298"><ele>110.0</ele><time>2026-05-04T16:33:51Z</time></trkpt><trkpt lat="45.72722203179934" lon="15.995772681403437"><ele>110.0</ele><time>2026-05-04T16:33:52Z</time></trkpt><trkpt lat="45.72734147261978" lon="15.995620144994996"><ele>110.0</ele><time>2026-05-04T16:33:53Z</time></trkpt><trkpt lat="45.72746125210417" lon="15.99549785203234"><ele>110.0</ele><time>2026-05-04T16:33:54Z</time></trkpt><trkpt lat="45.72756596021697" lon="15.995371680665118"><ele>110.0</ele><time>2026-05-04T16:33:55Z</time></trkpt><trkpt lat="45.72763854278784" lon="15.995220205387294"><ele>110.0</ele><time>2026-05-04T16:33:56Z</time></trkpt><trkpt lat="45.72768571274207" lon="15.995028446525556"><ele>110.0</ele><time>2026-05-04T16:33:57Z</time></trkpt><trkpt lat="45.72771577985562" lon="15.994809216511966"><ele>110.0</ele><time>2026-05-04T16:33:58Z</time></trkpt><trkpt lat="45.727729352104106" lon="15.994547080585262"><ele>110.0</ele><time>2026-05-04T16:33:59Z</time></trkpt><trkpt lat="45.727731129857375" lon="15.994276160321244"><ele>110.0</ele><time>2026-05-04T16:34:00Z</time></trkpt><trkpt lat="45.727727883649266" lon="15.994019523305344"><ele>110.0</ele><time>2026-05-04T16:34:01Z</time></trkpt><trkpt lat="45.72772973492694" lon="15.993768801720321"><ele>110.0</ele><time>2026-05-04T16:34:02Z</time></trkpt><trkpt lat="45.72774359700084" lon="15.99352834565207"><ele>110.0</ele><time>2026-05-04T16:34:03Z</time></trkpt><trkpt lat="45.72775799898058" lon="15.993310499699717"><ele>110.0</ele><time>2026-05-04T16:34:04Z</time></trkpt><trkpt lat="45.72777945253685" lon="15.993113213792011"><ele>111.0</ele><time>2026-05-04T16:34:05Z</time></trkpt><trkpt lat="45.72780258847766" lon="15.992925873583504"><ele>112.0</ele><time>2026-05-04T16:34:06Z</time></trkpt><trkpt lat="45.727834177854845" lon="15.992752600025678"><ele>113.0</ele><time>2026-05-04T16:34:07Z</time></trkpt><trkpt lat="45.7278843708982" lon="15.992593260877726"><ele>114.0</ele><time>2026-05-04T16:34:08Z</time></trkpt><trkpt lat="45.72794958865378" lon="15.992455892016796"><ele>114.2</ele><time>2026-05-04T16:34:09Z</time></trkpt><trkpt lat="45.72803715689185" lon="15.992361785520945"><ele>114.4</ele><time>2026-05-04T16:34:10Z</time></trkpt><trkpt lat="45.72811267001777" lon="15.992274185164554"><ele>114.6</ele><time>2026-05-04T16:34:11Z</time></trkpt><trkpt lat="45.728217292594245" lon="15.992232632387578"><ele>114.8</ele><time>2026-05-04T16:34:12Z</time></trkpt><trkpt lat="45.72831429547811" lon="15.992245331449144"><ele>115.0</ele><time>2026-05-04T16:34:13Z</time></trkpt><trkpt lat="45.72839974367368" lon="15.992291415492344"><ele>115.0</ele><time>2026-05-04T16:34:14Z</time></trkpt><trkpt lat="45.72849189424497" lon="15.99236333895113"><ele>115.0</ele><time>2026-05-04T16:34:15Z</time></trkpt><trkpt lat="45.728602878806484" lon="15.992433379808812"><ele>115.0</ele><time>2026-05-04T16:34:16Z</time></trkpt><trkpt lat="45.72872196896141" lon="15.992490081116847"><ele>115.0</ele><time>2026-05-04T16:34:17Z</time></trkpt><trkpt lat="45.72883259009941" lon="15.992535069401379"><ele>115.2</ele><time>2026-05-04T16:34:18Z</time></trkpt><trkpt lat="45.72893899548276" lon="15.992579229573131"><ele>115.4</ele><time>2026-05-04T16:34:19Z</time></trkpt><trkpt lat="45.72904133706163" lon="15.992606799553181"><ele>115.6</ele><time>2026-05-04T16:34:20Z</time></trkpt><trkpt lat="45.72914330184471" lon="15.99263003256121"><ele>115.8</ele><time>2026-05-04T16:34:21Z</time></trkpt><trkpt lat="45.72925153862312" lon="15.992639438095312"><ele>116.0</ele><time>2026-05-04T16:34:22Z</time></trkpt><trkpt lat="45.729358712595804" lon="15.992624816496267"><ele>115.83333333333333</ele><time>2026-05-04T16:34:23Z</time></trkpt><trkpt lat="45.72945261675029" lon="15.992594893051109"><ele>115.66666666666666</ele><time>2026-05-04T16:34:24Z</time></trkpt><trkpt lat="45.72952203573191" lon="15.992555240513948"><ele>115.5</ele><time>2026-05-04T16:34:25Z</time></trkpt><trkpt lat="45.72958502107535" lon="15.992522844230715"><ele>115.33333333333334</ele><time>2026-05-04T16:34:26Z</time></trkpt><trkpt lat="45.729697284386354" lon="15.992530856299254"><ele>115.16666666666667</ele><time>2026-05-04T16:34:28Z</time></trkpt><trkpt lat="45.729769111827586" lon="15.992593074265569"><ele>115.0</ele><time>2026-05-04T16:34:30Z</time></trkpt><trkpt lat="45.72981269806963" lon="15.992728815602955"><ele>115.0</ele><time>2026-05-04T16:34:32Z</time></trkpt><trkpt lat="45.72981170536132" lon="15.992839414205267"><ele>115.0</ele><time>2026-05-04T16:34:33Z</time></trkpt><trkpt lat="45.72979998027036" lon="15.992968345999174"><ele>115.0</ele><time>2026-05-04T16:34:34Z</time></trkpt><trkpt lat="45.729786139087054" lon="15.993118451842834"><ele>115.0</ele><time>2026-05-04T16:34:35Z</time></trkpt><trkpt lat="45.729779960755074" lon="15.993279858562579"><ele>115.0</ele><time>2026-05-04T16:34:36Z</time></trkpt><trkpt lat="45.72977147209162" lon="15.993459992857522"><ele>114.5</ele><time>2026-05-04T16:34:37Z</time></trkpt><trkpt lat="45.72976745879289" lon="15.99365275176997"><ele>114.0</ele><time>2026-05-04T16:34:38Z</time></trkpt><trkpt lat="45.72976809823004" lon="15.993850537538023"><ele>113.5</ele><time>2026-05-04T16:34:39Z</time></trkpt><trkpt lat="45.729769190084525" lon="15.994045939120854"><ele>113.0</ele><time>2026-05-04T16:34:40Z</time></trkpt><trkpt lat="45.729774338110836" lon="15.994222610614859"><ele>112.5</ele><time>2026-05-04T16:34:41Z</time></trkpt><trkpt lat="45.7297768166634" lon="15.994403649919086"><ele>112.0</ele><time>2026-05-04T16:34:42Z</time></trkpt><trkpt lat="45.72977493869919" lon="15.994578927127233"><ele>111.5</ele><time>2026-05-04T16:34:43Z</time></trkpt><trkpt lat="45.72976903404128" lon="15.994755229053016"><ele>111.0</ele><time>2026-05-04T16:34:44Z</time></trkpt><trkpt lat="45.72975368410418" lon="15.994917385818066"><ele>111.0</ele><time>2026-05-04T16:34:45Z</time></trkpt><trkpt lat="45.72973400874677" lon="15.995067107328943"><ele>111.0</ele><time>2026-05-04T16:34:46Z</time></trkpt><trkpt lat="45.72970997559377" lon="15.995204140241336"><ele>111.0</ele><time>2026-05-04T16:34:47Z</time></trkpt><trkpt lat="45.72968302364415" lon="15.995329980858864"><ele>111.0</ele><time>2026-05-04T16:34:48Z</time></trkpt><trkpt lat="45.72965935000795" lon="15.995467824951593"><ele>111.0</ele><time>2026-05-04T16:34:49Z</time></trkpt><trkpt lat="45.72966120365899" lon="15.995622272551016"><ele>111.0</ele><time>2026-05-04T16:34:50Z</time></trkpt><trkpt lat="45.72969940515122" lon="15.995763988496185"><ele>111.0</ele><time>2026-05-04T16:34:51Z</time></trkpt><trkpt lat="45.72977330994308" lon="15.995901113218544"><ele>111.0</ele><time>2026-05-04T16:34:52Z</time></trkpt><trkpt lat="45.729877404683684" lon="15.996013150270791"><ele>111.0</ele><time>2026-05-04T16:34:53Z</time></trkpt><trkpt lat="45.72999020073379" lon="15.996116406502084"><ele>111.0</ele><time>2026-05-04T16:34:54Z</time></trkpt><trkpt lat="45.73010027313272" lon="15.996197100713816"><ele>111.0</ele><time>2026-05-04T16:34:55Z</time></trkpt><trkpt lat="45.73021033260358" lon="15.996269505370998"><ele>111.0</ele><time>2026-05-04T16:34:56Z</time></trkpt><trkpt lat="45.73031411286885" lon="15.996326349201475"><ele>111.0</ele><time>2026-05-04T16:34:57Z</time></trkpt><trkpt lat="45.730412188339216" lon="15.996370165269768"><ele>111.33333333333333</ele><time>2026-05-04T16:34:58Z</time></trkpt><trkpt lat="45.730503242882634" lon="15.996411655908755"><ele>111.66666666666666</ele><time>2026-05-04T16:34:59Z</time></trkpt><trkpt lat="45.73059492763875" lon="15.99645367866787"><ele>112.0</ele><time>2026-05-04T16:35:00Z</time></trkpt><trkpt lat="45.73068172022771" lon="15.996492392481603"><ele>112.33333333333333</ele><time>2026-05-04T16:35:01Z</time></trkpt><trkpt lat="45.73075524359088" lon="15.996523389964544"><ele>112.66666666666666</ele><time>2026-05-04T16:35:02Z</time></trkpt><trkpt lat="45.73082334859142" lon="15.996554473548327"><ele>113.0</ele><time>2026-05-04T16:35:03Z</time></trkpt><trkpt lat="45.730898186200136" lon="15.996601688416387"><ele>112.80000000000001</ele><time>2026-05-04T16:35:04Z</time></trkpt><trkpt lat="45.73096635573473" lon="15.996687599057346"><ele>112.60000000000001</ele><time>2026-05-04T16:35:05Z</time></trkpt><trkpt lat="45.73101875156253" lon="15.996798036850794"><ele>112.39999999999999</ele><time>2026-05-04T16:35:06Z</time></trkpt><trkpt lat="45.73105267998244" lon="15.996937271517545"><ele>112.19999999999999</ele><time>2026-05-04T16:35:07Z</time></trkpt><trkpt lat="45.731075621743045" lon="15.997098190918159"><ele>112.0</ele><time>2026-05-04T16:35:08Z</time></trkpt><trkpt lat="45.73110300565761" lon="15.997262097125947"><ele>112.0</ele><time>2026-05-04T16:35:09Z</time></trkpt><trkpt lat="45.731139689725104" lon="15.997422119149533"><ele>112.0</ele><time>2026-05-04T16:35:10Z</time></trkpt><trkpt lat="45.73118313733191" lon="15.99757295267881"><ele>112.0</ele><time>2026-05-04T16:35:11Z</time></trkpt><trkpt lat="45.73122463798739" lon="15.997731128463721"><ele>112.0</ele><time>2026-05-04T16:35:12Z</time></trkpt><trkpt lat="45.73126288142634" lon="15.997907022771267"><ele>112.0</ele><time>2026-05-04T16:35:13Z</time></trkpt><trkpt lat="45.73129420152949" lon="15.998096799385449"><ele>112.0</ele><time>2026-05-04T16:35:14Z</time></trkpt><trkpt lat="45.731308674045714" lon="15.998300700989859"><ele>112.0</ele><time>2026-05-04T16:35:15Z</time></trkpt><trkpt lat="45.731308386913476" lon="15.998507384271315"><ele>112.0</ele><time>2026-05-04T16:35:16Z</time></trkpt><trkpt lat="45.73129870896914" lon="15.9987107845848"><ele>111.75</ele><time>2026-05-04T16:35:17Z</time></trkpt><trkpt lat="45.731294308172494" lon="15.998916968640703"><ele>111.5</ele><time>2026-05-04T16:35:18Z</time></trkpt><trkpt lat="45.7312992817931" lon="15.999128946525918"><ele>111.25</ele><time>2026-05-04T16:35:19Z</time></trkpt><trkpt lat="45.73132680259706" lon="15.999322205759208"><ele>111.0</ele><time>2026-05-04T16:35:20Z</time></trkpt><trkpt lat="45.73137334618379" lon="15.99951299029495"><ele>111.0</ele><time>2026-05-04T16:35:21Z</time></trkpt><trkpt lat="45.73142650606076" lon="15.99969128784942"><ele>111.0</ele><time>2026-05-04T16:35:22Z</time></trkpt><trkpt lat="45.73147421255354" lon="15.999861095172117"><ele>111.0</ele><time>2026-05-04T16:35:23Z</time></trkpt><trkpt lat="45.73151601301348" lon="16.00004899135441"><ele>111.0</ele><time>2026-05-04T16:35:24Z</time></trkpt><trkpt lat="45.73154651689427" lon="16.000239415539255"><ele>111.0</ele><time>2026-05-04T16:35:25Z</time></trkpt><trkpt lat="45.7315549078008" lon="16.000409933148962"><ele>111.0</ele><time>2026-05-04T16:35:26Z</time></trkpt><trkpt lat="45.731547259955256" lon="16.00058783969889"><ele>111.0</ele><time>2026-05-04T16:35:27Z</time></trkpt><trkpt lat="45.73152484890081" lon="16.00078122919813"><ele>111.0</ele><time>2026-05-04T16:35:28Z</time></trkpt><trkpt lat="45.7314937276641" lon="16.00098483549699"><ele>111.25</ele><time>2026-05-04T16:35:29Z</time></trkpt><trkpt lat="45.73146368369994" lon="16.00119708163793"><ele>111.5</ele><time>2026-05-04T16:35:30Z</time></trkpt><trkpt lat="45.731433596215076" lon="16.0014068294931"><ele>111.75</ele><time>2026-05-04T16:35:31Z</time></trkpt><trkpt lat="45.73140492780985" lon="16.00160188555364"><ele>112.0</ele><time>2026-05-04T16:35:32Z</time></trkpt><trkpt lat="45.731379249328924" lon="16.001792234427633"><ele>112.0</ele><time>2026-05-04T16:35:33Z</time></trkpt><trkpt lat="45.73135424570923" lon="16.001973827132616"><ele>112.0</ele><time>2026-05-04T16:35:34Z</time></trkpt><trkpt lat="45.73132457954991" lon="16.002160819670973"><ele>112.0</ele><time>2026-05-04T16:35:35Z</time></trkpt><trkpt lat="45.73128889384349" lon="16.002342488529834"><ele>112.0</ele><time>2026-05-04T16:35:36Z</time></trkpt><trkpt lat="45.73124523005297" lon="16.002523961263762"><ele>112.0</ele><time>2026-05-04T16:35:37Z</time></trkpt><trkpt lat="45.73119786215503" lon="16.002706590092874"><ele>112.0</ele><time>2026-05-04T16:35:38Z</time></trkpt><trkpt lat="45.731153610563794" lon="16.002872183268543"><ele>112.0</ele><time>2026-05-04T16:35:39Z</time></trkpt><trkpt lat="45.731112326051914" lon="16.003053401902648"><ele>112.0</ele><time>2026-05-04T16:35:40Z</time></trkpt><trkpt lat="45.73107979575699" lon="16.003225997666508"><ele>112.16666666666667</ele><time>2026-05-04T16:35:41Z</time></trkpt><trkpt lat="45.73105195582134" lon="16.00338140174711"><ele>112.33333333333334</ele><time>2026-05-04T16:35:42Z</time></trkpt><trkpt lat="45.73103117310509" lon="16.003505924102537"><ele>112.5</ele><time>2026-05-04T16:35:43Z</time></trkpt><trkpt lat="45.73101220128235" lon="16.0035942345835"><ele>112.66666666666666</ele><time>2026-05-04T16:35:44Z</time></trkpt><trkpt lat="45.7309866975489" lon="16.003732283551226"><ele>112.83333333333333</ele><time>2026-05-04T16:35:46Z</time></trkpt><trkpt lat="45.7309701355476" lon="16.003847833376113"><ele>113.0</ele><time>2026-05-04T16:35:48Z</time></trkpt><trkpt lat="45.731016034491745" lon="16.004011583315965"><ele>112.5</ele><time>2026-05-04T16:35:50Z</time></trkpt><trkpt lat="45.731092280692366" lon="16.004093671712763"><ele>112.0</ele><time>2026-05-04T16:35:51Z</time></trkpt><trkpt lat="45.731206440901246" lon="16.004175004494865"><ele>111.5</ele><time>2026-05-04T16:35:52Z</time></trkpt><trkpt lat="45.731367071831635" lon="16.004271320574126"><ele>111.0</ele><time>2026-05-04T16:35:53Z</time></trkpt><trkpt lat="45.731540863695926" lon="16.004406658426518"><ele>111.0</ele><time>2026-05-04T16:35:54Z</time></trkpt><trkpt lat="45.731719086896135" lon="16.00454838620064"><ele>111.0</ele><time>2026-05-04T16:35:55Z</time></trkpt><trkpt lat="45.731888530982545" lon="16.004670666784826"><ele>111.0</ele><time>2026-05-04T16:35:56Z</time></trkpt><trkpt lat="45.73205659369791" lon="16.004794911308533"><ele>111.0</ele><time>2026-05-04T16:35:57Z</time></trkpt><trkpt lat="45.73226134088257" lon="16.004962215412704"><ele>111.0</ele><time>2026-05-04T16:35:58Z</time></trkpt><trkpt lat="45.73247874080957" lon="16.005160351555382"><ele>111.0</ele><time>2026-05-04T16:35:59Z</time></trkpt><trkpt lat="45.73269927513266" lon="16.005343124459355"><ele>111.0</ele><time>2026-05-04T16:36:00Z</time></trkpt><trkpt lat="45.73290372706502" lon="16.005509692993378"><ele>111.0</ele><time>2026-05-04T16:36:01Z</time></trkpt><trkpt lat="45.733098260058625" lon="16.005671277959678"><ele>111.0</ele><time>2026-05-04T16:36:02Z</time></trkpt><trkpt lat="45.73329128874159" lon="16.00583304171735"><ele>111.0</ele><time>2026-05-04T16:36:03Z</time></trkpt><trkpt lat="45.73347973635264" lon="16.00599581621564"><ele>111.33333333333334</ele><time>2026-05-04T16:36:04Z</time></trkpt><trkpt lat="45.733671232732455" lon="16.006151271444924"><ele>111.66666666666667</ele><time>2026-05-04T16:36:05Z</time></trkpt><trkpt lat="45.7338610606953" lon="16.006309888782695"><ele>112.0</ele><time>2026-05-04T16:36:06Z</time></trkpt><trkpt lat="45.734048260731626" lon="16.006465849872377"><ele>112.0</ele><time>2026-05-04T16:36:07Z</time></trkpt><trkpt lat="45.7342311400024" lon="16.006620948791024"><ele>112.0</ele><time>2026-05-04T16:36:08Z</time></trkpt><trkpt lat="45.73439725718145" lon="16.00676298107278"><ele>112.0</ele><time>2026-05-04T16:36:09Z</time></trkpt><trkpt lat="45.7345640263902" lon="16.006903639515517"><ele>111.66666666666667</ele><time>2026-05-04T16:36:10Z</time></trkpt><trkpt lat="45.73472285965373" lon="16.00703755014802"><ele>111.33333333333334</ele><time>2026-05-04T16:36:11Z</time></trkpt><trkpt lat="45.73487696622925" lon="16.007165532813236"><ele>111.0</ele><time>2026-05-04T16:36:12Z</time></trkpt><trkpt lat="45.735022532135716" lon="16.00728509567371"><ele>111.0</ele><time>2026-05-04T16:36:13Z</time></trkpt><trkpt lat="45.73515556632001" lon="16.007401006477686"><ele>111.0</ele><time>2026-05-04T16:36:14Z</time></trkpt><trkpt lat="45.735276780916905" lon="16.007499293787273"><ele>111.0</ele><time>2026-05-04T16:36:15Z</time></trkpt><trkpt lat="45.735386842060194" lon="16.007588987048607"><ele>111.0</ele><time>2026-05-04T16:36:16Z</time></trkpt><trkpt lat="45.735475566599376" lon="16.007662802015297"><ele>110.66666666666667</ele><time>2026-05-04T16:36:17Z</time></trkpt><trkpt lat="45.73554151565562" lon="16.007718578175712"><ele>110.33333333333334</ele><time>2026-05-04T16:36:18Z</time></trkpt><trkpt lat="45.73562300726692" lon="16.007784712590603"><ele>110.0</ele><time>2026-05-04T16:36:20Z</time></trkpt><trkpt lat="45.73569613256452" lon="16.0077852519901"><ele>109.66666666666667</ele><time>2026-05-04T16:36:22Z</time></trkpt><trkpt lat="45.7357611848724" lon="16.007660051857524"><ele>109.33333333333334</ele><time>2026-05-04T16:36:24Z</time></trkpt><trkpt lat="45.73579790133655" lon="16.007557030229115"><ele>109.0</ele><time>2026-05-04T16:36:25Z</time></trkpt><trkpt lat="45.73584114035899" lon="16.007430422076432"><ele>108.75</ele><time>2026-05-04T16:36:26Z</time></trkpt><trkpt lat="45.73588309514377" lon="16.00729486426216"><ele>108.5</ele><time>2026-05-04T16:36:27Z</time></trkpt><trkpt lat="45.73592540879741" lon="16.007151236221265"><ele>108.25</ele><time>2026-05-04T16:36:28Z</time></trkpt><trkpt lat="45.735973031752906" lon="16.006999879336934"><ele>108.0</ele><time>2026-05-04T16:36:29Z</time></trkpt><trkpt lat="45.73602872305409" lon="16.00683882929033"><ele>108.33333333333334</ele><time>2026-05-04T16:36:30Z</time></trkpt><trkpt lat="45.73608272330343" lon="16.00667228544363"><ele>108.66666666666667</ele><time>2026-05-04T16:36:31Z</time></trkpt><trkpt lat="45.736133043558354" lon="16.0064766649568"><ele>109.0</ele><time>2026-05-04T16:36:32Z</time></trkpt><trkpt lat="45.736197992475724" lon="16.006213316180336"><ele>109.0</ele><time>2026-05-04T16:36:33Z</time></trkpt><trkpt lat="45.73630728399529" lon="16.005894094943333"><ele>109.0</ele><time>2026-05-04T16:36:34Z</time></trkpt><trkpt lat="45.73643980789178" lon="16.00552932537329"><ele>109.5</ele><time>2026-05-04T16:36:35Z</time></trkpt><trkpt lat="45.736582102026055" lon="16.00512201315438"><ele>110.0</ele><time>2026-05-04T16:36:36Z</time></trkpt><trkpt lat="45.736720121337505" lon="16.00468606284085"><ele>110.5</ele><time>2026-05-04T16:36:37Z</time></trkpt><trkpt lat="45.73685859868431" lon="16.004263994618842"><ele>111.0</ele><time>2026-05-04T16:36:38Z</time></trkpt><trkpt lat="45.73698484576955" lon="16.003879146219436"><ele>111.0</ele><time>2026-05-04T16:36:39Z</time></trkpt><trkpt lat="45.73709395209857" lon="16.003546059480303"><ele>111.0</ele><time>2026-05-04T16:36:40Z</time></trkpt><trkpt lat="45.737188918428124" lon="16.003267687090815"><ele>110.66666666666666</ele><time>2026-05-04T16:36:41Z</time></trkpt><trkpt lat="45.737269784153874" lon="16.003041618652375"><ele>110.33333333333333</ele><time>2026-05-04T16:36:42Z</time></trkpt><trkpt lat="45.73733692730182" lon="16.00285051494354"><ele>110.0</ele><time>2026-05-04T16:36:43Z</time></trkpt><trkpt lat="45.73739340120384" lon="16.002685365522648"><ele>110.0</ele><time>2026-05-04T16:36:44Z</time></trkpt><trkpt lat="45.73745425245616" lon="16.00256995404231"><ele>110.0</ele><time>2026-05-04T16:36:45Z</time></trkpt><trkpt lat="45.737545261775246" lon="16.002509913642395"><ele>110.0</ele><time>2026-05-04T16:36:46Z</time></trkpt><trkpt lat="45.73765811766275" lon="16.00252658451725"><ele>110.0</ele><time>2026-05-04T16:36:47Z</time></trkpt><trkpt lat="45.73777353209014" lon="16.002613489511855"><ele>110.0</ele><time>2026-05-04T16:36:48Z</time></trkpt><trkpt lat="45.73789926852854" lon="16.002756039659175"><ele>110.0</ele><time>2026-05-04T16:36:49Z</time></trkpt><trkpt lat="45.73806916341723" lon="16.002888463959078"><ele>110.0</ele><time>2026-05-04T16:36:50Z</time></trkpt><trkpt lat="45.73827557843714" lon="16.00300989279814"><ele>110.0</ele><time>2026-05-04T16:36:51Z</time></trkpt><trkpt lat="45.73848168418782" lon="16.00313386048966"><ele>110.0</ele><time>2026-05-04T16:36:52Z</time></trkpt><trkpt lat="45.73868117560545" lon="16.003268557452795"><ele>110.0</ele><time>2026-05-04T16:36:53Z</time></trkpt><trkpt lat="45.73887844535239" lon="16.003407924210773"><ele>110.0</ele><time>2026-05-04T16:36:54Z</time></trkpt><trkpt lat="45.73905995058644" lon="16.003533699983187"><ele>110.0</ele><time>2026-05-04T16:36:55Z</time></trkpt><trkpt lat="45.73923268742401" lon="16.00364778602085"><ele>110.0</ele><time>2026-05-04T16:36:56Z</time></trkpt><trkpt lat="45.73939221862495" lon="16.00375555204905"><ele>110.0</ele><time>2026-05-04T16:36:57Z</time></trkpt><trkpt lat="45.73954467350365" lon="16.00385861597886"><ele>110.0</ele><time>2026-05-04T16:36:58Z</time></trkpt><trkpt lat="45.73969497953794" lon="16.00396003408773"><ele>110.0</ele><time>2026-05-04T16:36:59Z</time></trkpt><trkpt lat="45.739848583589996" lon="16.004062250299906"><ele>110.0</ele><time>2026-05-04T16:37:00Z</time></trkpt><trkpt lat="45.74000383698908" lon="16.00416667652614"><ele>109.66666666666666</ele><time>2026-05-04T16:37:01Z</time></trkpt><trkpt lat="45.7401603000154" lon="16.004273092212216"><ele>109.33333333333334</ele><time>2026-05-04T16:37:02Z</time></trkpt><trkpt lat="45.74031851387645" lon="16.0043818083608"><ele>109.0</ele><time>2026-05-04T16:37:03Z</time></trkpt><trkpt lat="45.740473221950715" lon="16.004488245291512"><ele>109.0</ele><time>2026-05-04T16:37:04Z</time></trkpt><trkpt lat="45.740637746420106" lon="16.004601824903848"><ele>109.0</ele><time>2026-05-04T16:37:05Z</time></trkpt><trkpt lat="45.74079612059565" lon="16.004716303336757"><ele>109.0</ele><time>2026-05-04T16:37:06Z</time></trkpt><trkpt lat="45.7409497892026" lon="16.004840469917703"><ele>109.0</ele><time>2026-05-04T16:37:07Z</time></trkpt><trkpt lat="45.74109582899361" lon="16.00498855735088"><ele>109.0</ele><time>2026-05-04T16:37:08Z</time></trkpt><trkpt lat="45.741231724179165" lon="16.005163432487628"><ele>109.0</ele><time>2026-05-04T16:37:09Z</time></trkpt><trkpt lat="45.74135389105079" lon="16.00535638530022"><ele>109.33333333333334</ele><time>2026-05-04T16:37:10Z</time></trkpt><trkpt lat="45.74146274154519" lon="16.00557037604646"><ele>109.66666666666666</ele><time>2026-05-04T16:37:11Z</time></trkpt><trkpt lat="45.74154772443195" lon="16.005794995167285"><ele>110.0</ele><time>2026-05-04T16:37:12Z</time></trkpt><trkpt lat="45.74161898021036" lon="16.00602803004631"><ele>110.0</ele><time>2026-05-04T16:37:13Z</time></trkpt><trkpt lat="45.74167100809417" lon="16.00626044200512"><ele>110.0</ele><time>2026-05-04T16:37:14Z</time></trkpt><trkpt lat="45.741694585228" lon="16.00648912448181"><ele>110.0</ele><time>2026-05-04T16:37:15Z</time></trkpt><trkpt lat="45.74168720814441" lon="16.00669469283767"><ele>110.0</ele><time>2026-05-04T16:37:16Z</time></trkpt><trkpt lat="45.74166283158961" lon="16.006851362059404"><ele>110.0</ele><time>2026-05-04T16:37:17Z</time></trkpt><trkpt lat="45.74163446009142" lon="16.00696342991736"><ele>110.0</ele><time>2026-05-04T16:37:18Z</time></trkpt><trkpt lat="45.74160835353145" lon="16.00704586342616"><ele>110.0</ele><time>2026-05-04T16:37:19Z</time></trkpt><trkpt lat="45.74156144213718" lon="16.007134185088642"><ele>110.0</ele><time>2026-05-04T16:37:21Z</time></trkpt><trkpt lat="45.74148791019445" lon="16.007270740929354"><ele>110.0</ele><time>2026-05-04T16:37:23Z</time></trkpt><trkpt lat="45.741418447580095" lon="16.00735542947717"><ele>110.0</ele><time>2026-05-04T16:37:24Z</time></trkpt><trkpt lat="45.74132296654784" lon="16.007443508207086"><ele>110.0</ele><time>2026-05-04T16:37:25Z</time></trkpt><trkpt lat="45.74120844022225" lon="16.007519252645192"><ele>110.0</ele><time>2026-05-04T16:37:26Z</time></trkpt><trkpt lat="45.74107481179477" lon="16.00756622461187"><ele>109.75</ele><time>2026-05-04T16:37:27Z</time></trkpt><trkpt lat="45.74093589267922" lon="16.007573322634"><ele>109.5</ele><time>2026-05-04T16:37:28Z</time></trkpt><trkpt lat="45.740793500582825" lon="16.00754109374755"><ele>109.25</ele><time>2026-05-04T16:37:29Z</time></trkpt><trkpt lat="45.74065679439079" lon="16.00747324162489"><ele>109.0</ele><time>2026-05-04T16:37:30Z</time></trkpt><trkpt lat="45.74052794093541" lon="16.00735977650832"><ele>109.0</ele><time>2026-05-04T16:37:31Z</time></trkpt><trkpt lat="45.740406775988795" lon="16.007216588353277"><ele>109.0</ele><time>2026-05-04T16:37:32Z</time></trkpt><trkpt lat="45.74028396828939" lon="16.00705433412035"><ele>109.0</ele><time>2026-05-04T16:37:33Z</time></trkpt><trkpt lat="45.74015787392336" lon="16.00687346395546"><ele>109.0</ele><time>2026-05-04T16:37:34Z</time></trkpt><trkpt lat="45.74003804259985" lon="16.006691533815406"><ele>109.0</ele><time>2026-05-04T16:37:35Z</time></trkpt><trkpt lat="45.7399295715691" lon="16.006528786750465"><ele>109.0</ele><time>2026-05-04T16:37:36Z</time></trkpt><trkpt lat="45.73983452250843" lon="16.006382694793327"><ele>109.0</ele><time>2026-05-04T16:37:37Z</time></trkpt><trkpt lat="45.739742751348764" lon="16.00624157635559"><ele>109.0</ele><time>2026-05-04T16:37:38Z</time></trkpt><trkpt lat="45.739655039323665" lon="16.00610410586697"><ele>109.0</ele><time>2026-05-04T16:37:39Z</time></trkpt><trkpt lat="45.739577994097615" lon="16.005975495687277"><ele>109.0</ele><time>2026-05-04T16:37:40Z</time></trkpt><trkpt lat="45.73950760594236" lon="16.005855616333168"><ele>109.16666666666667</ele><time>2026-05-04T16:37:41Z</time></trkpt><trkpt lat="45.739436944191766" lon="16.005756345764137"><ele>109.33333333333334</ele><time>2026-05-04T16:37:42Z</time></trkpt><trkpt lat="45.739369367047" lon="16.005665401460824"><ele>109.5</ele><time>2026-05-04T16:37:43Z</time></trkpt><trkpt lat="45.7393202253235" lon="16.005575750669607"><ele>109.66666666666666</ele><time>2026-05-04T16:37:44Z</time></trkpt><trkpt lat="45.73928223262493" lon="16.00550240075704"><ele>109.83333333333333</ele><time>2026-05-04T16:37:45Z</time></trkpt><trkpt lat="45.739230056671005" lon="16.00541072349421"><ele>110.0</ele><time>2026-05-04T16:37:47Z</time></trkpt><trkpt lat="45.739169764250605" lon="16.005320173258532"><ele>110.0</ele><time>2026-05-04T16:38:59Z</time></trkpt><trkpt lat="45.73912945813382" lon="16.005225894309167"><ele>110.0</ele><time>2026-05-04T16:39:01Z</time></trkpt><trkpt lat="45.739178136564945" lon="16.00505766903502"><ele>110.0</ele><time>2026-05-04T16:39:03Z</time></trkpt><trkpt lat="45.73924782389624" lon="16.00495677493832"><ele>110.0</ele><time>2026-05-04T16:39:04Z</time></trkpt><trkpt lat="45.73935055390222" lon="16.00482326583664"><ele>110.0</ele><time>2026-05-04T16:39:05Z</time></trkpt><trkpt lat="45.739471617371365" lon="16.004654152750025"><ele>110.0</ele><time>2026-05-04T16:39:06Z</time></trkpt><trkpt lat="45.73961313017501" lon="16.004454550614156"><ele>110.0</ele><time>2026-05-04T16:39:07Z</time></trkpt><trkpt lat="45.73977118834017" lon="16.004232284695682"><ele>110.0</ele><time>2026-05-04T16:39:08Z</time></trkpt><trkpt lat="45.73996859278877" lon="16.00395588535703"><ele>110.0</ele><time>2026-05-04T16:39:09Z</time></trkpt><trkpt lat="45.74019547549463" lon="16.003646538165558"><ele>110.0</ele><time>2026-05-04T16:39:10Z</time></trkpt><trkpt lat="45.740439909200134" lon="16.00330387124811"><ele>110.0</ele><time>2026-05-04T16:39:11Z</time></trkpt><trkpt lat="45.74070307514674" lon="16.002935769564175"><ele>110.0</ele><time>2026-05-04T16:39:12Z</time></trkpt><trkpt lat="45.740980184852916" lon="16.00254884351149"><ele>110.5</ele><time>2026-05-04T16:39:13Z</time></trkpt><trkpt lat="45.74126362826565" lon="16.00214738280649"><ele>111.0</ele><time>2026-05-04T16:39:14Z</time></trkpt><trkpt lat="45.74152642618157" lon="16.00176667691791"><ele>111.0</ele><time>2026-05-04T16:39:15Z</time></trkpt><trkpt lat="45.74176415664499" lon="16.001418340953148"><ele>111.0</ele><time>2026-05-04T16:39:16Z</time></trkpt><trkpt lat="45.74198479559103" lon="16.001109831362434"><ele>111.0</ele><time>2026-05-04T16:39:17Z</time></trkpt><trkpt lat="45.74218402075576" lon="16.0008373043348"><ele>111.0</ele><time>2026-05-04T16:39:18Z</time></trkpt><trkpt lat="45.74236658005225" lon="16.00058178280121"><ele>110.5</ele><time>2026-05-04T16:39:19Z</time></trkpt><trkpt lat="45.74253925675655" lon="16.000338255402042"><ele>110.0</ele><time>2026-05-04T16:39:20Z</time></trkpt><trkpt lat="45.742713801461825" lon="16.00008938275711"><ele>110.5</ele><time>2026-05-04T16:39:21Z</time></trkpt><trkpt lat="45.74289184412205" lon="15.999840075508786"><ele>111.0</ele><time>2026-05-04T16:39:22Z</time></trkpt><trkpt lat="45.743058684261136" lon="15.999608592879175"><ele>111.0</ele><time>2026-05-04T16:39:23Z</time></trkpt><trkpt lat="45.74321313526278" lon="15.999394420478014"><ele>111.0</ele><time>2026-05-04T16:39:24Z</time></trkpt><trkpt lat="45.74336035362108" lon="15.999189986283724"><ele>111.0</ele><time>2026-05-04T16:39:25Z</time></trkpt><trkpt lat="45.743507546422215" lon="15.998988216947353"><ele>112.0</ele><time>2026-05-04T16:39:26Z</time></trkpt><trkpt lat="45.743648984167656" lon="15.998795574646199"><ele>113.0</ele><time>2026-05-04T16:39:27Z</time></trkpt><trkpt lat="45.743781685361284" lon="15.998616338137627"><ele>114.0</ele><time>2026-05-04T16:39:28Z</time></trkpt><trkpt lat="45.74390587967969" lon="15.998446399225703"><ele>113.0</ele><time>2026-05-04T16:39:29Z</time></trkpt><trkpt lat="45.74403304206145" lon="15.99827736900395"><ele>112.0</ele><time>2026-05-04T16:39:30Z</time></trkpt><trkpt lat="45.74415623497296" lon="15.998108888937598"><ele>111.0</ele><time>2026-05-04T16:39:31Z</time></trkpt><trkpt lat="45.744278930504855" lon="15.997940535991834"><ele>111.0</ele><time>2026-05-04T16:39:32Z</time></trkpt><trkpt lat="45.744403531769144" lon="15.997769567139134"><ele>111.0</ele><time>2026-05-04T16:39:33Z</time></trkpt><trkpt lat="45.74453121259516" lon="15.997591868028003"><ele>111.0</ele><time>2026-05-04T16:39:34Z</time></trkpt><trkpt lat="45.74465109323447" lon="15.997421460379604"><ele>110.66666666666666</ele><time>2026-05-04T16:39:35Z</time></trkpt><trkpt lat="45.74477101308152" lon="15.99725358930487"><ele>110.33333333333333</ele><time>2026-05-04T16:39:36Z</time></trkpt><trkpt lat="45.74488885963313" lon="15.997090910775823"><ele>110.0</ele><time>2026-05-04T16:39:37Z</time></trkpt><trkpt lat="45.744998233125045" lon="15.996937860271256"><ele>110.0</ele><time>2026-05-04T16:39:38Z</time></trkpt><trkpt lat="45.745103637981515" lon="15.996790141356781"><ele>110.0</ele><time>2026-05-04T16:39:39Z</time></trkpt><trkpt lat="45.74521164163702" lon="15.996641084420318"><ele>110.0</ele><time>2026-05-04T16:39:40Z</time></trkpt><trkpt lat="45.74532055175985" lon="15.996487599757678"><ele>110.33333333333333</ele><time>2026-05-04T16:39:41Z</time></trkpt><trkpt lat="45.74543059003428" lon="15.99633403652982"><ele>110.66666666666666</ele><time>2026-05-04T16:39:42Z</time></trkpt><trkpt lat="45.745538516676945" lon="15.996184316673665"><ele>111.0</ele><time>2026-05-04T16:39:43Z</time></trkpt><trkpt lat="45.74564442217944" lon="15.996037883913761"><ele>111.0</ele><time>2026-05-04T16:39:44Z</time></trkpt><trkpt lat="45.745747751553694" lon="15.995892244445166"><ele>111.0</ele><time>2026-05-04T16:39:45Z</time></trkpt><trkpt lat="45.745856116310435" lon="15.995743360276848"><ele>111.0</ele><time>2026-05-04T16:39:46Z</time></trkpt><trkpt lat="45.745960954213615" lon="15.995597634696729"><ele>111.0</ele><time>2026-05-04T16:39:47Z</time></trkpt><trkpt lat="45.74606383015948" lon="15.995453178453122"><ele>111.75</ele><time>2026-05-04T16:39:48Z</time></trkpt><trkpt lat="45.74616279389188" lon="15.995315422862717"><ele>112.5</ele><time>2026-05-04T16:39:49Z</time></trkpt><trkpt lat="45.746261733386035" lon="15.995177015532132"><ele>113.25</ele><time>2026-05-04T16:39:50Z</time></trkpt><trkpt lat="45.746359201452535" lon="15.995041531063377"><ele>114.0</ele><time>2026-05-04T16:39:51Z</time></trkpt><trkpt lat="45.74645487846535" lon="15.99490917595848"><ele>114.0</ele><time>2026-05-04T16:39:52Z</time></trkpt><trkpt lat="45.74655049084719" lon="15.99477607002368"><ele>114.0</ele><time>2026-05-04T16:39:53Z</time></trkpt><trkpt lat="45.7466440130594" lon="15.994644478071342"><ele>114.0</ele><time>2026-05-04T16:39:54Z</time></trkpt><trkpt lat="45.746733718444155" lon="15.994517783639857"><ele>114.0</ele><time>2026-05-04T16:39:55Z</time></trkpt><trkpt lat="45.74681691023808" lon="15.99440361577676"><ele>113.6</ele><time>2026-05-04T16:39:56Z</time></trkpt><trkpt lat="45.74689431747388" lon="15.994294021058094"><ele>113.2</ele><time>2026-05-04T16:39:57Z</time></trkpt><trkpt lat="45.746967112882345" lon="15.994192956509266"><ele>112.79999999999998</ele><time>2026-05-04T16:39:58Z</time></trkpt><trkpt lat="45.747033543233215" lon="15.994100110027428"><ele>112.39999999999999</ele><time>2026-05-04T16:39:59Z</time></trkpt><trkpt lat="45.7470942260255" lon="15.994018211824434"><ele>112.0</ele><time>2026-05-04T16:40:00Z</time></trkpt><trkpt lat="45.74714803368799" lon="15.993942786799916"><ele>112.00000000000001</ele><time>2026-05-04T16:40:01Z</time></trkpt><trkpt lat="45.74719018108806" lon="15.993875711725101"><ele>112.0</ele><time>2026-05-04T16:40:02Z</time></trkpt><trkpt lat="45.747267962064456" lon="15.993751601135395"><ele>112.0</ele><time>2026-05-04T16:40:04Z</time></trkpt><trkpt lat="45.74733652090939" lon="15.993650685517522"><ele>112.0</ele><time>2026-05-04T16:40:06Z</time></trkpt><trkpt lat="45.74739426791485" lon="15.993573693550141"><ele>112.00000000000001</ele><time>2026-05-04T16:40:08Z</time></trkpt><trkpt lat="45.74744882166236" lon="15.993495119046557"><ele>112.0</ele><time>2026-05-04T16:40:11Z</time></trkpt><trkpt lat="45.74750388786485" lon="15.99341830391259"><ele>112.0</ele><time>2026-05-04T16:40:30Z</time></trkpt><trkpt lat="45.74758199301404" lon="15.993305771909858"><ele>111.99999999999999</ele><time>2026-05-04T16:40:32Z</time></trkpt><trkpt lat="45.7476336139594" lon="15.993232617970811"><ele>111.99999999999999</ele><time>2026-05-04T16:40:33Z</time></trkpt><trkpt lat="45.74768803163474" lon="15.993156229925194"><ele>112.0</ele><time>2026-05-04T16:40:34Z</time></trkpt><trkpt lat="45.747756200273514" lon="15.993059487364208"><ele>112.0</ele><time>2026-05-04T16:40:35Z</time></trkpt><trkpt lat="45.74783428222266" lon="15.992953483533887"><ele>112.0</ele><time>2026-05-04T16:40:36Z</time></trkpt><trkpt lat="45.747912740304336" lon="15.99284759359219"><ele>112.0</ele><time>2026-05-04T16:40:37Z</time></trkpt><trkpt lat="45.747997720384205" lon="15.992739705013866"><ele>112.0</ele><time>2026-05-04T16:40:38Z</time></trkpt><trkpt lat="45.748088793501374" lon="15.992629975120998"><ele>112.0</ele><time>2026-05-04T16:40:39Z</time></trkpt><trkpt lat="45.748185124141806" lon="15.992508101877258"><ele>112.25</ele><time>2026-05-04T16:40:40Z</time></trkpt><trkpt lat="45.748283045231375" lon="15.992377723511565"><ele>112.5</ele><time>2026-05-04T16:40:41Z</time></trkpt><trkpt lat="45.74837798544141" lon="15.992244198330392"><ele>112.75</ele><time>2026-05-04T16:40:42Z</time></trkpt><trkpt lat="45.74847575738095" lon="15.992103693623976"><ele>113.0</ele><time>2026-05-04T16:40:43Z</time></trkpt><trkpt lat="45.74857787266002" lon="15.991963284959331"><ele>113.0</ele><time>2026-05-04T16:40:44Z</time></trkpt><trkpt lat="45.74868209382006" lon="15.991820278785042"><ele>113.0</ele><time>2026-05-04T16:40:45Z</time></trkpt><trkpt lat="45.74878726399771" lon="15.991673869786846"><ele>113.0</ele><time>2026-05-04T16:40:46Z</time></trkpt><trkpt lat="45.74889453097411" lon="15.991517391842734"><ele>113.0</ele><time>2026-05-04T16:40:47Z</time></trkpt><trkpt lat="45.74900580223255" lon="15.99135998500357"><ele>113.33333333333333</ele><time>2026-05-04T16:40:48Z</time></trkpt><trkpt lat="45.749120274340356" lon="15.991197429329628"><ele>113.66666666666666</ele><time>2026-05-04T16:40:49Z</time></trkpt><trkpt lat="45.7492369434236" lon="15.991036024659216"><ele>114.0</ele><time>2026-05-04T16:40:50Z</time></trkpt><trkpt lat="45.74935687530711" lon="15.99086793446604"><ele>113.66666666666666</ele><time>2026-05-04T16:40:51Z</time></trkpt><trkpt lat="45.74947482825696" lon="15.990703956491"><ele>113.33333333333333</ele><time>2026-05-04T16:40:52Z</time></trkpt><trkpt lat="45.749597109389526" lon="15.990535322542637"><ele>113.0</ele><time>2026-05-04T16:40:53Z</time></trkpt><trkpt lat="45.74972232362317" lon="15.99036328294026"><ele>113.0</ele><time>2026-05-04T16:40:54Z</time></trkpt><trkpt lat="45.749842379776574" lon="15.99019585866508"><ele>113.0</ele><time>2026-05-04T16:40:55Z</time></trkpt><trkpt lat="45.749957888054574" lon="15.990037096407924"><ele>113.0</ele><time>2026-05-04T16:40:56Z</time></trkpt><trkpt lat="45.75007160704186" lon="15.989887865957797"><ele>113.0</ele><time>2026-05-04T16:40:57Z</time></trkpt><trkpt lat="45.750178905287775" lon="15.98975706711534"><ele>113.0</ele><time>2026-05-04T16:40:58Z</time></trkpt><trkpt lat="45.75028779770653" lon="15.989634020573838"><ele>113.0</ele><time>2026-05-04T16:40:59Z</time></trkpt><trkpt lat="45.750406643870676" lon="15.989512762182006"><ele>113.0</ele><time>2026-05-04T16:41:00Z</time></trkpt><trkpt lat="45.7505306103143" lon="15.989395093344662"><ele>113.0</ele><time>2026-05-04T16:41:01Z</time></trkpt><trkpt lat="45.75066105662919" lon="15.989287338669865"><ele>113.0</ele><time>2026-05-04T16:41:02Z</time></trkpt><trkpt lat="45.75080299534588" lon="15.989187717063059"><ele>113.0</ele><time>2026-05-04T16:41:03Z</time></trkpt><trkpt lat="45.75095098148922" lon="15.989102106881408"><ele>112.25</ele><time>2026-05-04T16:41:04Z</time></trkpt><trkpt lat="45.75109088657316" lon="15.989051695744296"><ele>111.5</ele><time>2026-05-04T16:41:05Z</time></trkpt><trkpt lat="45.751221692387894" lon="15.989011011833396"><ele>110.75</ele><time>2026-05-04T16:41:06Z</time></trkpt><trkpt lat="45.75133532117289" lon="15.988984619536476"><ele>110.0</ele><time>2026-05-04T16:41:07Z</time></trkpt><trkpt lat="45.75143445822191" lon="15.988972146480172"><ele>109.99999999999999</ele><time>2026-05-04T16:41:08Z</time></trkpt><trkpt lat="45.75152182907013" lon="15.988966598339752"><ele>110.0</ele><time>2026-05-04T16:41:09Z</time></trkpt><trkpt lat="45.75159929042176" lon="15.988966340541563"><ele>110.0</ele><time>2026-05-04T16:41:10Z</time></trkpt><trkpt lat="45.751665088026215" lon="15.988969421559505"><ele>110.0</ele><time>2026-05-04T16:41:11Z</time></trkpt><trkpt lat="45.75175869367584" lon="15.988984532402368"><ele>109.99999999999999</ele><time>2026-05-04T16:41:13Z</time></trkpt><trkpt lat="45.751837987210116" lon="15.989011665662847"><ele>110.0</ele><time>2026-05-04T16:41:15Z</time></trkpt><trkpt lat="45.7519464719955" lon="15.989020346744015"><ele>110.25</ele><time>2026-05-04T16:41:17Z</time></trkpt><trkpt lat="45.75204936261654" lon="15.98902781847047"><ele>110.5</ele><time>2026-05-04T16:41:19Z</time></trkpt><trkpt lat="45.752174463213386" lon="15.989047085455141"><ele>110.75</ele><time>2026-05-04T16:41:21Z</time></trkpt><trkpt lat="45.752309510599495" lon="15.989065685669766"><ele>111.0</ele><time>2026-05-04T16:41:23Z</time></trkpt><trkpt lat="45.752406788187315" lon="15.989077868724644"><ele>111.0</ele><time>2026-05-04T16:41:24Z</time></trkpt><trkpt lat="45.75252803170332" lon="15.989099335749486"><ele>111.0</ele><time>2026-05-04T16:41:25Z</time></trkpt><trkpt lat="45.75266308196908" lon="15.989120263246713"><ele>111.0</ele><time>2026-05-04T16:41:26Z</time></trkpt><trkpt lat="45.75279158148476" lon="15.98914411574509"><ele>111.0</ele><time>2026-05-04T16:41:27Z</time></trkpt><trkpt lat="45.75292681820067" lon="15.989158546519898"><ele>111.75</ele><time>2026-05-04T16:41:28Z</time></trkpt><trkpt lat="45.7530447871588" lon="15.989171352212532"><ele>112.5</ele><time>2026-05-04T16:41:29Z</time></trkpt><trkpt lat="45.75315485225264" lon="15.989186692684815"><ele>113.25</ele><time>2026-05-04T16:41:30Z</time></trkpt><trkpt lat="45.75326702256124" lon="15.989206145978297"><ele>114.0</ele><time>2026-05-04T16:41:31Z</time></trkpt><trkpt lat="45.75338900979453" lon="15.989233335532214"><ele>114.0</ele><time>2026-05-04T16:41:32Z</time></trkpt><trkpt lat="45.75351787329291" lon="15.989260451731543"><ele>114.0</ele><time>2026-05-04T16:41:33Z</time></trkpt><trkpt lat="45.75366352159676" lon="15.98928375430303"><ele>114.0</ele><time>2026-05-04T16:41:34Z</time></trkpt><trkpt lat="45.7538161559715" lon="15.989290130025772"><ele>114.0</ele><time>2026-05-04T16:41:35Z</time></trkpt><trkpt lat="45.75396548420619" lon="15.989310312529557"><ele>112.66666666666666</ele><time>2026-05-04T16:41:36Z</time></trkpt><trkpt lat="45.75412314821219" lon="15.989337539652702"><ele>111.33333333333333</ele><time>2026-05-04T16:41:37Z</time></trkpt><trkpt lat="45.75429161113644" lon="15.989364372493064"><ele>110.0</ele><time>2026-05-04T16:41:38Z</time></trkpt><trkpt lat="45.75445629673501" lon="15.989387964664898"><ele>110.0</ele><time>2026-05-04T16:41:39Z</time></trkpt><trkpt lat="45.7546108782796" lon="15.989411055761991"><ele>110.0</ele><time>2026-05-04T16:41:40Z</time></trkpt><trkpt lat="45.754761444452456" lon="15.989433318103853"><ele>110.0</ele><time>2026-05-04T16:41:41Z</time></trkpt><trkpt lat="45.75491371326775" lon="15.989456432377434"><ele>110.0</ele><time>2026-05-04T16:41:42Z</time></trkpt><trkpt lat="45.75507384673628" lon="15.98947901181846"><ele>110.0</ele><time>2026-05-04T16:41:43Z</time></trkpt><trkpt lat="45.75524187354734" lon="15.989495443156768"><ele>110.0</ele><time>2026-05-04T16:41:44Z</time></trkpt><trkpt lat="45.755412583902135" lon="15.989508411537338"><ele>110.66666666666666</ele><time>2026-05-04T16:41:45Z</time></trkpt><trkpt lat="45.75558421346844" lon="15.989522369881911"><ele>111.33333333333334</ele><time>2026-05-04T16:41:46Z</time></trkpt><trkpt lat="45.75575350412897" lon="15.989545387987318"><ele>112.0</ele><time>2026-05-04T16:41:47Z</time></trkpt><trkpt lat="45.75591595456896" lon="15.989580473799343"><ele>112.66666666666667</ele><time>2026-05-04T16:41:48Z</time></trkpt><trkpt lat="45.75608778650237" lon="15.989612448663454"><ele>113.33333333333334</ele><time>2026-05-04T16:41:49Z</time></trkpt><trkpt lat="45.75625697737284" lon="15.989640715200506"><ele>114.0</ele><time>2026-05-04T16:41:50Z</time></trkpt><trkpt lat="45.75643607420829" lon="15.989668899975705"><ele>114.0</ele><time>2026-05-04T16:41:51Z</time></trkpt><trkpt lat="45.75661592716972" lon="15.98969838964861"><ele>114.0</ele><time>2026-05-04T16:41:52Z</time></trkpt><trkpt lat="45.75679752293323" lon="15.989729017004843"><ele>114.0</ele><time>2026-05-04T16:41:53Z</time></trkpt><trkpt lat="45.75696940195803" lon="15.989757610797051"><ele>114.66666666666666</ele><time>2026-05-04T16:41:54Z</time></trkpt><trkpt lat="45.757139869278845" lon="15.98978402846889"><ele>115.33333333333333</ele><time>2026-05-04T16:41:55Z</time></trkpt><trkpt lat="45.75730254720901" lon="15.989810387433812"><ele>116.0</ele><time>2026-05-04T16:41:56Z</time></trkpt><trkpt lat="45.75746364531821" lon="15.989837365812772"><ele>116.0</ele><time>2026-05-04T16:41:57Z</time></trkpt><trkpt lat="45.75761708590081" lon="15.989866277768424"><ele>116.0</ele><time>2026-05-04T16:41:58Z</time></trkpt><trkpt lat="45.757775741194955" lon="15.989893422775257"><ele>116.0</ele><time>2026-05-04T16:41:59Z</time></trkpt><trkpt lat="45.757934951254754" lon="15.989924636187911"><ele>115.75</ele><time>2026-05-04T16:42:00Z</time></trkpt><trkpt lat="45.75809279242044" lon="15.989961480232637"><ele>115.5</ele><time>2026-05-04T16:42:01Z</time></trkpt><trkpt lat="45.75823574681926" lon="15.98998737664981"><ele>115.25</ele><time>2026-05-04T16:42:02Z</time></trkpt><trkpt lat="45.758375691755" lon="15.990008094813332"><ele>115.0</ele><time>2026-05-04T16:42:03Z</time></trkpt><trkpt lat="45.758514322373635" lon="15.990031679340637"><ele>114.25</ele><time>2026-05-04T16:42:04Z</time></trkpt><trkpt lat="45.7586527391839" lon="15.990059032737827"><ele>113.5</ele><time>2026-05-04T16:42:05Z</time></trkpt><trkpt lat="45.758792706014056" lon="15.990084628362089"><ele>112.75</ele><time>2026-05-04T16:42:06Z</time></trkpt><trkpt lat="45.75893102845" lon="15.990106553742537"><ele>112.0</ele><time>2026-05-04T16:42:07Z</time></trkpt><trkpt lat="45.75907040562568" lon="15.990129824191452"><ele>112.0</ele><time>2026-05-04T16:42:08Z</time></trkpt><trkpt lat="45.75921271037678" lon="15.990151965097398"><ele>112.0</ele><time>2026-05-04T16:42:09Z</time></trkpt><trkpt lat="45.75936362209652" lon="15.990176518324612"><ele>112.0</ele><time>2026-05-04T16:42:10Z</time></trkpt><trkpt lat="45.759518280875035" lon="15.99019592421514"><ele>112.33333333333334</ele><time>2026-05-04T16:42:11Z</time></trkpt><trkpt lat="45.75967735931656" lon="15.990224685974374"><ele>112.66666666666666</ele><time>2026-05-04T16:42:12Z</time></trkpt><trkpt lat="45.75983360745018" lon="15.990250020032082"><ele>113.0</ele><time>2026-05-04T16:42:13Z</time></trkpt><trkpt lat="45.7599840306462" lon="15.990275634055939"><ele>113.0</ele><time>2026-05-04T16:42:14Z</time></trkpt><trkpt lat="45.76013446516871" lon="15.990301306675661"><ele>113.0</ele><time>2026-05-04T16:42:15Z</time></trkpt><trkpt lat="45.760286522853036" lon="15.990329773574127"><ele>113.0</ele><time>2026-05-04T16:42:16Z</time></trkpt><trkpt lat="45.7604414222364" lon="15.990355761121272"><ele>113.33333333333333</ele><time>2026-05-04T16:42:17Z</time></trkpt><trkpt lat="45.760594223709084" lon="15.990378420052048"><ele>113.66666666666666</ele><time>2026-05-04T16:42:18Z</time></trkpt><trkpt lat="45.76074985996729" lon="15.990403592370871"><ele>114.0</ele><time>2026-05-04T16:42:19Z</time></trkpt><trkpt lat="45.760905974906414" lon="15.990427684587834"><ele>113.33333333333334</ele><time>2026-05-04T16:42:20Z</time></trkpt><trkpt lat="45.761057773314405" lon="15.990449672150255"><ele>112.66666666666667</ele><time>2026-05-04T16:42:21Z</time></trkpt><trkpt lat="45.76121667527012" lon="15.990475241426555"><ele>112.0</ele><time>2026-05-04T16:42:22Z</time></trkpt><trkpt lat="45.761383803386444" lon="15.990502326083352"><ele>112.0</ele><time>2026-05-04T16:42:23Z</time></trkpt><trkpt lat="45.761551443205306" lon="15.990528119647202"><ele>112.0</ele><time>2026-05-04T16:42:24Z</time></trkpt><trkpt lat="45.761719989870535" lon="15.990556296260989"><ele>112.0</ele><time>2026-05-04T16:42:25Z</time></trkpt><trkpt lat="45.76188815604522" lon="15.990583538591565"><ele>113.33333333333334</ele><time>2026-05-04T16:42:26Z</time></trkpt><trkpt lat="45.76205341999725" lon="15.990610054013349"><ele>114.66666666666666</ele><time>2026-05-04T16:42:27Z</time></trkpt><trkpt lat="45.762213492660955" lon="15.990637473997117"><ele>116.0</ele><time>2026-05-04T16:42:28Z</time></trkpt><trkpt lat="45.76237433811389" lon="15.990664806282567"><ele>116.0</ele><time>2026-05-04T16:42:29Z</time></trkpt><trkpt lat="45.76253281431552" lon="15.990688232296819"><ele>116.0</ele><time>2026-05-04T16:42:30Z</time></trkpt><trkpt lat="45.76269187366346" lon="15.990713136166953"><ele>116.0</ele><time>2026-05-04T16:42:31Z</time></trkpt><trkpt lat="45.762856286843856" lon="15.990738718729533"><ele>116.33333333333333</ele><time>2026-05-04T16:42:32Z</time></trkpt><trkpt lat="45.763016637080256" lon="15.990767779179468"><ele>116.66666666666666</ele><time>2026-05-04T16:42:33Z</time></trkpt><trkpt lat="45.76317436600037" lon="15.9907994908139"><ele>117.0</ele><time>2026-05-04T16:42:34Z</time></trkpt><trkpt lat="45.76333889184458" lon="15.990819520484235"><ele>117.0</ele><time>2026-05-04T16:42:35Z</time></trkpt><trkpt lat="45.76350485466272" lon="15.990849395600238"><ele>117.0</ele><time>2026-05-04T16:42:36Z</time></trkpt><trkpt lat="45.76367316299558" lon="15.990876629437542"><ele>117.0</ele><time>2026-05-04T16:42:37Z</time></trkpt><trkpt lat="45.763842294270745" lon="15.99090381494072"><ele>116.33333333333334</ele><time>2026-05-04T16:42:38Z</time></trkpt><trkpt lat="45.76400548672246" lon="15.990927980741827"><ele>115.66666666666667</ele><time>2026-05-04T16:42:39Z</time></trkpt><trkpt lat="45.76416623018112" lon="15.990953407721479"><ele>115.0</ele><time>2026-05-04T16:42:40Z</time></trkpt><trkpt lat="45.7643244652509" lon="15.990974696162544"><ele>114.33333333333334</ele><time>2026-05-04T16:42:41Z</time></trkpt><trkpt lat="45.76447923495766" lon="15.990996028483341"><ele>113.66666666666666</ele><time>2026-05-04T16:42:42Z</time></trkpt><trkpt lat="45.76463188418259" lon="15.991011773220162"><ele>113.0</ele><time>2026-05-04T16:42:43Z</time></trkpt><trkpt lat="45.76478823194757" lon="15.991025935395669"><ele>113.0</ele><time>2026-05-04T16:42:44Z</time></trkpt><trkpt lat="45.764943603293" lon="15.99104060151571"><ele>113.0</ele><time>2026-05-04T16:42:45Z</time></trkpt><trkpt lat="45.76509533911369" lon="15.991055457188812"><ele>113.0</ele><time>2026-05-04T16:42:46Z</time></trkpt><trkpt lat="45.765253314141226" lon="15.991068635548741"><ele>113.0</ele><time>2026-05-04T16:42:47Z</time></trkpt><trkpt lat="45.76541019901355" lon="15.991077578587355"><ele>113.0</ele><time>2026-05-04T16:42:48Z</time></trkpt><trkpt lat="45.76556146544344" lon="15.991089670665902"><ele>113.0</ele><time>2026-05-04T16:42:49Z</time></trkpt><trkpt lat="45.76570497151578" lon="15.991100562800575"><ele>113.0</ele><time>2026-05-04T16:42:50Z</time></trkpt><trkpt lat="45.76584322116144" lon="15.991107644792649"><ele>113.0</ele><time>2026-05-04T16:42:51Z</time></trkpt><trkpt lat="45.76598078440743" lon="15.99111262425128"><ele>113.0</ele><time>2026-05-04T16:42:52Z</time></trkpt><trkpt lat="45.76610816824728" lon="15.991117983561587"><ele>113.0</ele><time>2026-05-04T16:42:53Z</time></trkpt><trkpt lat="45.76623063212129" lon="15.991124507965687"><ele>113.25</ele><time>2026-05-04T16:42:54Z</time></trkpt><trkpt lat="45.76635719750476" lon="15.991131755044474"><ele>113.5</ele><time>2026-05-04T16:42:55Z</time></trkpt><trkpt lat="45.7664777373341" lon="15.991128663358724"><ele>113.75</ele><time>2026-05-04T16:42:56Z</time></trkpt><trkpt lat="45.766589468959545" lon="15.99114004524143"><ele>114.0</ele><time>2026-05-04T16:42:57Z</time></trkpt><trkpt lat="45.76669166773885" lon="15.99113953600789"><ele>114.0</ele><time>2026-05-04T16:42:58Z</time></trkpt><trkpt lat="45.7667797594804" lon="15.991141646542989"><ele>114.0</ele><time>2026-05-04T16:42:59Z</time></trkpt><trkpt lat="45.76684762630074" lon="15.991146967973883"><ele>114.0</ele><time>2026-05-04T16:43:00Z</time></trkpt><trkpt lat="45.766921684137195" lon="15.99115110169898"><ele>114.0</ele><time>2026-05-04T16:43:03Z</time></trkpt><trkpt lat="45.766990327821986" lon="15.991153693357933"><ele>114.0</ele><time>2026-05-04T16:43:08Z</time></trkpt><trkpt lat="45.7670612277072" lon="15.9911506499053"><ele>114.0</ele><time>2026-05-04T16:43:50Z</time></trkpt><trkpt lat="45.767184449821514" lon="15.9911386551657"><ele>114.0</ele><time>2026-05-04T16:43:52Z</time></trkpt><trkpt lat="45.767271114642966" lon="15.991132053448553"><ele>114.0</ele><time>2026-05-04T16:43:53Z</time></trkpt><trkpt lat="45.767377054770854" lon="15.991128196620162"><ele>114.0</ele><time>2026-05-04T16:43:54Z</time></trkpt><trkpt lat="45.76749011990005" lon="15.991124965150526"><ele>114.0</ele><time>2026-05-04T16:43:55Z</time></trkpt><trkpt lat="45.7676012162136" lon="15.99112033083767"><ele>114.0</ele><time>2026-05-04T16:43:56Z</time></trkpt><trkpt lat="45.76771370710801" lon="15.99111286935276"><ele>113.25</ele><time>2026-05-04T16:43:57Z</time></trkpt><trkpt lat="45.76783142705897" lon="15.99110558637722"><ele>112.5</ele><time>2026-05-04T16:43:58Z</time></trkpt><trkpt lat="45.76796186656503" lon="15.991098840296043"><ele>111.75</ele><time>2026-05-04T16:43:59Z</time></trkpt><trkpt lat="45.76809748761762" lon="15.991090035419997"><ele>111.0</ele><time>2026-05-04T16:44:00Z</time></trkpt><trkpt lat="45.768232441046294" lon="15.991084980399457"><ele>111.0</ele><time>2026-05-04T16:44:01Z</time></trkpt><trkpt lat="45.76837212100008" lon="15.991079967216002"><ele>111.0</ele><time>2026-05-04T16:44:02Z</time></trkpt><trkpt lat="45.76852071748428" lon="15.991076300126865"><ele>111.0</ele><time>2026-05-04T16:44:03Z</time></trkpt><trkpt lat="45.768666664411306" lon="15.991070189259615"><ele>111.0</ele><time>2026-05-04T16:44:04Z</time></trkpt><trkpt lat="45.768809463179736" lon="15.991060789712066"><ele>110.66666666666666</ele><time>2026-05-04T16:44:05Z</time></trkpt><trkpt lat="45.76895785047762" lon="15.991051596450495"><ele>110.33333333333333</ele><time>2026-05-04T16:44:06Z</time></trkpt><trkpt lat="45.76911125584913" lon="15.991042689231971"><ele>110.0</ele><time>2026-05-04T16:44:07Z</time></trkpt><trkpt lat="45.76927001212773" lon="15.991033514895353"><ele>110.25</ele><time>2026-05-04T16:44:08Z</time></trkpt><trkpt lat="45.76942052409449" lon="15.991025338544212"><ele>110.5</ele><time>2026-05-04T16:44:09Z</time></trkpt><trkpt lat="45.769562043508344" lon="15.991016275345578"><ele>110.75</ele><time>2026-05-04T16:44:10Z</time></trkpt><trkpt lat="45.76970050711804" lon="15.991011231455166"><ele>111.0</ele><time>2026-05-04T16:44:11Z</time></trkpt><trkpt lat="45.76984678919702" lon="15.991007433710697"><ele>111.0</ele><time>2026-05-04T16:44:12Z</time></trkpt><trkpt lat="45.77000294591808" lon="15.991004260236952"><ele>111.0</ele><time>2026-05-04T16:44:13Z</time></trkpt><trkpt lat="45.77015793984573" lon="15.990995263535046"><ele>111.0</ele><time>2026-05-04T16:44:14Z</time></trkpt><trkpt lat="45.77030424488407" lon="15.99098409537244"><ele>111.0</ele><time>2026-05-04T16:44:15Z</time></trkpt><trkpt lat="45.77044059398798" lon="15.990976184640804"><ele>111.0</ele><time>2026-05-04T16:44:16Z</time></trkpt><trkpt lat="45.770575087116384" lon="15.990968746455515"><ele>111.0</ele><time>2026-05-04T16:44:17Z</time></trkpt><trkpt lat="45.77071579708911" lon="15.990958932510704"><ele>111.0</ele><time>2026-05-04T16:44:18Z</time></trkpt><trkpt lat="45.7708590756172" lon="15.990947644762517"><ele>111.0</ele><time>2026-05-04T16:44:19Z</time></trkpt><trkpt lat="45.77099802566158" lon="15.990941461894197"><ele>111.0</ele><time>2026-05-04T16:44:20Z</time></trkpt><trkpt lat="45.77113095436212" lon="15.990933344079492"><ele>111.0</ele><time>2026-05-04T16:44:21Z</time></trkpt><trkpt lat="45.7712643800125" lon="15.990928242190012"><ele>111.0</ele><time>2026-05-04T16:44:22Z</time></trkpt><trkpt lat="45.77138615935789" lon="15.990921499252302"><ele>111.16666666666667</ele><time>2026-05-04T16:44:23Z</time></trkpt><trkpt lat="45.77149167969314" lon="15.990913793415816"><ele>111.33333333333334</ele><time>2026-05-04T16:44:24Z</time></trkpt><trkpt lat="45.77157914789154" lon="15.990913261047117"><ele>111.5</ele><time>2026-05-04T16:44:25Z</time></trkpt><trkpt lat="45.77165465252406" lon="15.990911800085271"><ele>111.66666666666667</ele><time>2026-05-04T16:44:26Z</time></trkpt><trkpt lat="45.77171864476785" lon="15.990916803710972"><ele>111.83333333333334</ele><time>2026-05-04T16:44:27Z</time></trkpt><trkpt lat="45.771799467594036" lon="15.990912172006919"><ele>112.0</ele><time>2026-05-04T16:44:29Z</time></trkpt><trkpt lat="45.771876498655196" lon="15.990886314963033"><ele>112.19999999999999</ele><time>2026-05-04T16:44:32Z</time></trkpt><trkpt lat="45.77194028778162" lon="15.990899179583229"><ele>112.39999999999999</ele><time>2026-05-04T16:45:04Z</time></trkpt><trkpt lat="45.772040894362576" lon="15.99087590573017"><ele>112.60000000000001</ele><time>2026-05-04T16:45:07Z</time></trkpt><trkpt lat="45.7721787487677" lon="15.990877049120465"><ele>112.80000000000001</ele><time>2026-05-04T16:45:09Z</time></trkpt><trkpt lat="45.77226421124712" lon="15.99088141976761"><ele>113.0</ele><time>2026-05-04T16:45:10Z</time></trkpt><trkpt lat="45.77236545747099" lon="15.990881614549815"><ele>113.0</ele><time>2026-05-04T16:45:11Z</time></trkpt><trkpt lat="45.772456178120265" lon="15.990878657160724"><ele>113.00000000000001</ele><time>2026-05-04T16:45:12Z</time></trkpt><trkpt lat="45.77256667644448" lon="15.990873343908886"><ele>113.00000000000001</ele><time>2026-05-04T16:45:13Z</time></trkpt><trkpt lat="45.7726736296379" lon="15.990868058291449"><ele>113.0</ele><time>2026-05-04T16:45:14Z</time></trkpt><trkpt lat="45.77279140832253" lon="15.99086128327594"><ele>113.0</ele><time>2026-05-04T16:45:15Z</time></trkpt><trkpt lat="45.7729312975964" lon="15.990853220665166"><ele>112.75</ele><time>2026-05-04T16:45:16Z</time></trkpt><trkpt lat="45.773080172346674" lon="15.990847712693936"><ele>112.5</ele><time>2026-05-04T16:45:17Z</time></trkpt><trkpt lat="45.77321609970432" lon="15.99083853108823"><ele>112.25</ele><time>2026-05-04T16:45:18Z</time></trkpt><trkpt lat="45.77334881666562" lon="15.990832378685427"><ele>112.0</ele><time>2026-05-04T16:45:19Z</time></trkpt><trkpt lat="45.773483251599906" lon="15.99082415005872"><ele>113.0</ele><time>2026-05-04T16:45:20Z</time></trkpt><trkpt lat="45.77362155294935" lon="15.990816632726899"><ele>114.0</ele><time>2026-05-04T16:45:21Z</time></trkpt><trkpt lat="45.77376903251027" lon="15.990807199164363"><ele>115.0</ele><time>2026-05-04T16:45:22Z</time></trkpt><trkpt lat="45.77393044899126" lon="15.99079899597834"><ele>116.0</ele><time>2026-05-04T16:45:23Z</time></trkpt><trkpt lat="45.774090507312856" lon="15.990789854669723"><ele>116.0</ele><time>2026-05-04T16:45:24Z</time></trkpt><trkpt lat="45.774272747451185" lon="15.99077739417417"><ele>116.0</ele><time>2026-05-04T16:45:25Z</time></trkpt><trkpt lat="45.7744504216381" lon="15.99076701034767"><ele>116.0</ele><time>2026-05-04T16:45:26Z</time></trkpt><trkpt lat="45.77464001331883" lon="15.990757179320443"><ele>115.0</ele><time>2026-05-04T16:45:27Z</time></trkpt><trkpt lat="45.7748146431703" lon="15.990748177993831"><ele>114.0</ele><time>2026-05-04T16:45:28Z</time></trkpt><trkpt lat="45.7749712831821" lon="15.990735126562738"><ele>113.0</ele><time>2026-05-04T16:45:29Z</time></trkpt><trkpt lat="45.775125655928285" lon="15.990719662070246"><ele>113.33333333333333</ele><time>2026-05-04T16:45:30Z</time></trkpt><trkpt lat="45.7752690181885" lon="15.990709085667623"><ele>113.66666666666666</ele><time>2026-05-04T16:45:31Z</time></trkpt><trkpt lat="45.77542615753002" lon="15.990697364296725"><ele>114.0</ele><time>2026-05-04T16:45:32Z</time></trkpt><trkpt lat="45.775596688873534" lon="15.990687205892932"><ele>114.0</ele><time>2026-05-04T16:45:33Z</time></trkpt><trkpt lat="45.77578458862094" lon="15.990675324637698"><ele>114.0</ele><time>2026-05-04T16:45:34Z</time></trkpt><trkpt lat="45.775972779183846" lon="15.990661688793615"><ele>114.0</ele><time>2026-05-04T16:45:35Z</time></trkpt><trkpt lat="45.77613104344005" lon="15.990642493476297"><ele>113.0</ele><time>2026-05-04T16:45:36Z</time></trkpt><trkpt lat="45.77626272110008" lon="15.990626390383062"><ele>112.0</ele><time>2026-05-04T16:45:37Z</time></trkpt><trkpt lat="45.77638524118283" lon="15.99061438784551"><ele>111.0</ele><time>2026-05-04T16:45:38Z</time></trkpt><trkpt lat="45.77650079046635" lon="15.990609261348018"><ele>110.0</ele><time>2026-05-04T16:45:39Z</time></trkpt><trkpt lat="45.776613603493274" lon="15.990600378570932"><ele>110.0</ele><time>2026-05-04T16:45:40Z</time></trkpt><trkpt lat="45.77671956593127" lon="15.990587668800398"><ele>110.0</ele><time>2026-05-04T16:45:41Z</time></trkpt><trkpt lat="45.77681177995778" lon="15.990576733688759"><ele>110.0</ele><time>2026-05-04T16:45:42Z</time></trkpt><trkpt lat="45.77688801103117" lon="15.990567164964231"><ele>110.0</ele><time>2026-05-04T16:45:43Z</time></trkpt><trkpt lat="45.77695676984573" lon="15.990552900791375"><ele>110.0</ele><time>2026-05-04T16:45:44Z</time></trkpt><trkpt lat="45.77706125500838" lon="15.990525524639972"><ele>109.99999999999999</ele><time>2026-05-04T16:45:46Z</time></trkpt><trkpt lat="45.77713383711833" lon="15.99051613377631"><ele>110.0</ele><time>2026-05-04T16:45:48Z</time></trkpt><trkpt lat="45.77721460539556" lon="15.990527726557827"><ele>110.0</ele><time>2026-05-04T16:45:51Z</time></trkpt><trkpt lat="45.777291948201295" lon="15.990527668204802"><ele>110.0</ele><time>2026-05-04T16:45:53Z</time></trkpt><trkpt lat="45.77739948606603" lon="15.990514021899097"><ele>109.99999999999999</ele><time>2026-05-04T16:45:55Z</time></trkpt><trkpt lat="45.77746273303609" lon="15.990505483950148"><ele>110.0</ele><time>2026-05-04T16:45:56Z</time></trkpt><trkpt lat="45.77752776342136" lon="15.99050154970499"><ele>109.99999999999999</ele><time>2026-05-04T16:45:57Z</time></trkpt><trkpt lat="45.777598278775926" lon="15.990496944142055"><ele>110.0</ele><time>2026-05-04T16:45:58Z</time></trkpt><trkpt lat="45.77767065872603" lon="15.990477324664461"><ele>110.0</ele><time>2026-05-04T16:45:59Z</time></trkpt><trkpt lat="45.77773981329558" lon="15.990432220574869"><ele>110.0</ele><time>2026-05-04T16:46:00Z</time></trkpt><trkpt lat="45.77779592274197" lon="15.990361506994978"><ele>109.99999999999999</ele><time>2026-05-04T16:46:01Z</time></trkpt><trkpt lat="45.777845968393564" lon="15.990277165805857"><ele>110.0</ele><time>2026-05-04T16:46:02Z</time></trkpt><trkpt lat="45.777881182459005" lon="15.990177464931207"><ele>110.75</ele><time>2026-05-04T16:46:03Z</time></trkpt><trkpt lat="45.777897498731356" lon="15.990058263393514"><ele>111.5</ele><time>2026-05-04T16:46:04Z</time></trkpt><trkpt lat="45.77789272833834" lon="15.989899927015344"><ele>112.25</ele><time>2026-05-04T16:46:05Z</time></trkpt><trkpt lat="45.77787544200797" lon="15.989724386536052"><ele>113.0</ele><time>2026-05-04T16:46:06Z</time></trkpt><trkpt lat="45.77786501693414" lon="15.989512052533593"><ele>113.0</ele><time>2026-05-04T16:46:07Z</time></trkpt><trkpt lat="45.777858324968044" lon="15.989318614641032"><ele>113.0</ele><time>2026-05-04T16:46:08Z</time></trkpt><trkpt lat="45.77785145295838" lon="15.989147918524816"><ele>113.0</ele><time>2026-05-04T16:46:09Z</time></trkpt><trkpt lat="45.77784643050442" lon="15.988962625667979"><ele>113.0</ele><time>2026-05-04T16:46:10Z</time></trkpt><trkpt lat="45.777844800135135" lon="15.988749015475237"><ele>113.0</ele><time>2026-05-04T16:46:11Z</time></trkpt><trkpt lat="45.77784651054495" lon="15.9885034540775"><ele>113.0</ele><time>2026-05-04T16:46:12Z</time></trkpt><trkpt lat="45.777848387861845" lon="15.988241060375463"><ele>113.0</ele><time>2026-05-04T16:46:13Z</time></trkpt><trkpt lat="45.77785203656033" lon="15.988002142329158"><ele>114.0</ele><time>2026-05-04T16:46:14Z</time></trkpt><trkpt lat="45.77785416812751" lon="15.987760869462422"><ele>115.0</ele><time>2026-05-04T16:46:15Z</time></trkpt><trkpt lat="45.77785524929112" lon="15.987533183887459"><ele>116.0</ele><time>2026-05-04T16:46:16Z</time></trkpt><trkpt lat="45.777856559797556" lon="15.987316163769673"><ele>116.0</ele><time>2026-05-04T16:46:17Z</time></trkpt><trkpt lat="45.777854323089436" lon="15.987101478779756"><ele>116.0</ele><time>2026-05-04T16:46:18Z</time></trkpt><trkpt lat="45.77784944823206" lon="15.986892418082098"><ele>116.0</ele><time>2026-05-04T16:46:19Z</time></trkpt><trkpt lat="45.77784563088772" lon="15.98669557126068"><ele>116.0</ele><time>2026-05-04T16:46:20Z</time></trkpt><trkpt lat="45.77784072291898" lon="15.986503313165501"><ele>115.5</ele><time>2026-05-04T16:46:21Z</time></trkpt><trkpt lat="45.77783617974599" lon="15.98630922349962"><ele>115.0</ele><time>2026-05-04T16:46:22Z</time></trkpt><trkpt lat="45.7778273885533" lon="15.98611316205636"><ele>114.5</ele><time>2026-05-04T16:46:23Z</time></trkpt><trkpt lat="45.77782065221511" lon="15.985906225326888"><ele>114.0</ele><time>2026-05-04T16:46:24Z</time></trkpt><trkpt lat="45.777814449685" lon="15.985699061163995"><ele>113.0</ele><time>2026-05-04T16:46:25Z</time></trkpt><trkpt lat="45.777807681935066" lon="15.985490846699545"><ele>112.0</ele><time>2026-05-04T16:46:26Z</time></trkpt><trkpt lat="45.77780118561814" lon="15.985275814238468"><ele>111.0</ele><time>2026-05-04T16:46:27Z</time></trkpt><trkpt lat="45.77779730014304" lon="15.98504590324925"><ele>110.66666666666666</ele><time>2026-05-04T16:46:28Z</time></trkpt><trkpt lat="45.77779090713352" lon="15.984801297983166"><ele>110.33333333333333</ele><time>2026-05-04T16:46:29Z</time></trkpt><trkpt lat="45.77778605721409" lon="15.984567285605095"><ele>110.0</ele><time>2026-05-04T16:46:30Z</time></trkpt><trkpt lat="45.77778410735547" lon="15.984341533116138"><ele>110.0</ele><time>2026-05-04T16:46:31Z</time></trkpt><trkpt lat="45.77778834550499" lon="15.984119902261986"><ele>110.0</ele><time>2026-05-04T16:46:32Z</time></trkpt><trkpt lat="45.77779714116255" lon="15.983908183098304"><ele>110.0</ele><time>2026-05-04T16:46:33Z</time></trkpt><trkpt lat="45.77780299429166" lon="15.983710935226535"><ele>110.0</ele><time>2026-05-04T16:46:34Z</time></trkpt><trkpt lat="45.777807278915084" lon="15.983517535695112"><ele>109.75</ele><time>2026-05-04T16:46:35Z</time></trkpt><trkpt lat="45.77781778751099" lon="15.983325159625679"><ele>109.5</ele><time>2026-05-04T16:46:36Z</time></trkpt><trkpt lat="45.77783881465385" lon="15.983131827931222"><ele>109.25</ele><time>2026-05-04T16:46:37Z</time></trkpt><trkpt lat="45.7778594541766" lon="15.982935097043647"><ele>109.0</ele><time>2026-05-04T16:46:38Z</time></trkpt><trkpt lat="45.777875596097374" lon="15.982739814891618"><ele>109.0</ele><time>2026-05-04T16:46:39Z</time></trkpt><trkpt lat="45.777883479909605" lon="15.982546786667733"><ele>109.0</ele><time>2026-05-04T16:46:40Z</time></trkpt><trkpt lat="45.77788604452369" lon="15.98236180950311"><ele>109.0</ele><time>2026-05-04T16:46:41Z</time></trkpt><trkpt lat="45.777879210235064" lon="15.982196599145507"><ele>109.0</ele><time>2026-05-04T16:46:42Z</time></trkpt><trkpt lat="45.777864643368375" lon="15.982044282429701"><ele>109.00000000000001</ele><time>2026-05-04T16:46:43Z</time></trkpt><trkpt lat="45.77785084961736" lon="15.98190287022294"><ele>109.0</ele><time>2026-05-04T16:46:44Z</time></trkpt><trkpt lat="45.77783952660904" lon="15.981780859204248"><ele>109.0</ele><time>2026-05-04T16:46:45Z</time></trkpt><trkpt lat="45.77783271252935" lon="15.981676177197636"><ele>109.0</ele><time>2026-05-04T16:46:46Z</time></trkpt><trkpt lat="45.77782765103663" lon="15.981516263109901"><ele>109.00000000000001</ele><time>2026-05-04T16:46:48Z</time></trkpt><trkpt lat="45.77782092781028" lon="15.98142627068101"><ele>109.0</ele><time>2026-05-04T16:46:49Z</time></trkpt><trkpt lat="45.77781841288916" lon="15.981321736931488"><ele>109.33333333333334</ele><time>2026-05-04T16:46:50Z</time></trkpt><trkpt lat="45.77781438559037" lon="15.981204768810924"><ele>109.66666666666667</ele><time>2026-05-04T16:46:51Z</time></trkpt><trkpt lat="45.77781458409611" lon="15.981095748425284"><ele>110.0</ele><time>2026-05-04T16:46:52Z</time></trkpt><trkpt lat="45.777816497112426" lon="15.981000014408579"><ele>110.33333333333334</ele><time>2026-05-04T16:46:53Z</time></trkpt><trkpt lat="45.7778620869918" lon="15.980829291303941"><ele>110.66666666666667</ele><time>2026-05-04T16:46:55Z</time></trkpt><trkpt lat="45.77792425197612" lon="15.980749349389617"><ele>111.0</ele><time>2026-05-04T16:46:56Z</time></trkpt><trkpt lat="45.77801405180964" lon="15.980693838088"><ele>111.25</ele><time>2026-05-04T16:46:57Z</time></trkpt><trkpt lat="45.778124880406786" lon="15.980666923840825"><ele>111.5</ele><time>2026-05-04T16:46:58Z</time></trkpt><trkpt lat="45.77825089566848" lon="15.980661382233613"><ele>111.75</ele><time>2026-05-04T16:46:59Z</time></trkpt><trkpt lat="45.77840574108835" lon="15.980646880994584"><ele>112.0</ele><time>2026-05-04T16:47:00Z</time></trkpt><trkpt lat="45.778597271262214" lon="15.980621041564792"><ele>112.0</ele><time>2026-05-04T16:47:01Z</time></trkpt><trkpt lat="45.778773712932825" lon="15.980601850509862"><ele>112.0</ele><time>2026-05-04T16:47:02Z</time></trkpt><trkpt lat="45.7789482382064" lon="15.980576774986321"><ele>112.0</ele><time>2026-05-04T16:47:03Z</time></trkpt><trkpt lat="45.779146035703384" lon="15.980531522282494"><ele>112.0</ele><time>2026-05-04T16:47:04Z</time></trkpt><trkpt lat="45.779368329775146" lon="15.980466768090771"><ele>112.0</ele><time>2026-05-04T16:47:05Z</time></trkpt><trkpt lat="45.779589991027514" lon="15.980394600108283"><ele>112.0</ele><time>2026-05-04T16:47:06Z</time></trkpt><trkpt lat="45.77978951644593" lon="15.980326306821555"><ele>112.0</ele><time>2026-05-04T16:47:07Z</time></trkpt><trkpt lat="45.77997863001269" lon="15.980271786719353"><ele>112.0</ele><time>2026-05-04T16:47:08Z</time></trkpt><trkpt lat="45.78016561867331" lon="15.980234141291467"><ele>112.33333333333334</ele><time>2026-05-04T16:47:09Z</time></trkpt><trkpt lat="45.7803510560091" lon="15.980209837088015"><ele>112.66666666666666</ele><time>2026-05-04T16:47:10Z</time></trkpt><trkpt lat="45.7805190403587" lon="15.980206073408104"><ele>113.0</ele><time>2026-05-04T16:47:11Z</time></trkpt><trkpt lat="45.78066624842726" lon="15.980202203411395"><ele>113.0</ele><time>2026-05-04T16:47:12Z</time></trkpt><trkpt lat="45.78079991915053" lon="15.980194622551029"><ele>113.0</ele><time>2026-05-04T16:47:13Z</time></trkpt><trkpt lat="45.78092950572673" lon="15.980187440036676"><ele>113.0</ele><time>2026-05-04T16:47:14Z</time></trkpt><trkpt lat="45.78105289769748" lon="15.980176696311633"><ele>113.0</ele><time>2026-05-04T16:47:15Z</time></trkpt><trkpt lat="45.781179811250894" lon="15.980167646972372"><ele>113.25</ele><time>2026-05-04T16:47:16Z</time></trkpt><trkpt lat="45.781307557662394" lon="15.980162857725071"><ele>113.5</ele><time>2026-05-04T16:47:17Z</time></trkpt><trkpt lat="45.781434296872824" lon="15.98015547083046"><ele>113.75</ele><time>2026-05-04T16:47:18Z</time></trkpt><trkpt lat="45.78156860225298" lon="15.98014903489119"><ele>114.0</ele><time>2026-05-04T16:47:19Z</time></trkpt><trkpt lat="45.78169259221721" lon="15.98014045473095"><ele>114.0</ele><time>2026-05-04T16:47:20Z</time></trkpt><trkpt lat="45.78180633569766" lon="15.980133831954763"><ele>114.0</ele><time>2026-05-04T16:47:21Z</time></trkpt><trkpt lat="45.781912300316165" lon="15.980128577022336"><ele>114.0</ele><time>2026-05-04T16:47:22Z</time></trkpt><trkpt lat="45.78200410133814" lon="15.980129675799294"><ele>114.0</ele><time>2026-05-04T16:47:23Z</time></trkpt><trkpt lat="45.782077931306695" lon="15.980134575615256"><ele>114.0</ele><time>2026-05-04T16:47:24Z</time></trkpt><trkpt lat="45.7821905702602" lon="15.980156885326668"><ele>113.85714285714285</ele><time>2026-05-04T16:47:26Z</time></trkpt><trkpt lat="45.78225489810352" lon="15.980165869926369"><ele>113.7142857142857</ele><time>2026-05-04T16:47:27Z</time></trkpt><trkpt lat="45.7823291343579" lon="15.980164029749936"><ele>113.57142857142857</ele><time>2026-05-04T16:47:28Z</time></trkpt><trkpt lat="45.782409257382035" lon="15.98015717712791"><ele>113.42857142857142</ele><time>2026-05-04T16:47:29Z</time></trkpt><trkpt lat="45.78249342770796" lon="15.980150450364164"><ele>113.28571428571428</ele><time>2026-05-04T16:47:30Z</time></trkpt><trkpt lat="45.782564683442445" lon="15.980148443806456"><ele>113.14285714285714</ele><time>2026-05-04T16:47:31Z</time></trkpt><trkpt lat="45.78262847155867" lon="15.98014797334594"><ele>113.0</ele><time>2026-05-04T16:47:32Z</time></trkpt><trkpt lat="45.78273897483237" lon="15.980143183856551"><ele>113.33333333333333</ele><time>2026-05-04T16:47:34Z</time></trkpt><trkpt lat="45.78282491987412" lon="15.980142998262927"><ele>113.66666666666666</ele><time>2026-05-04T16:47:36Z</time></trkpt><trkpt lat="45.78290781963842" lon="15.980137014223052"><ele>114.0</ele><time>2026-05-04T16:47:38Z</time></trkpt><trkpt lat="45.78297993078539" lon="15.980128625891075"><ele>114.33333333333334</ele><time>2026-05-04T16:47:40Z</time></trkpt><trkpt lat="45.78304795415627" lon="15.980124864536535"><ele>114.66666666666667</ele><time>2026-05-04T16:47:42Z</time></trkpt><trkpt lat="45.78316851861613" lon="15.980109844322183"><ele>115.0</ele><time>2026-05-04T16:47:44Z</time></trkpt><trkpt lat="45.78324545907761" lon="15.980099663493828"><ele>115.0</ele><time>2026-05-04T16:47:46Z</time></trkpt><trkpt lat="45.78334633533228" lon="15.980086927147582"><ele>115.0</ele><time>2026-05-04T16:47:48Z</time></trkpt><trkpt lat="45.78341782667302" lon="15.980074187977214"><ele>115.0</ele><time>2026-05-04T16:47:49Z</time></trkpt><trkpt lat="45.78350504636622" lon="15.980065221945669"><ele>115.0</ele><time>2026-05-04T16:47:50Z</time></trkpt><trkpt lat="45.78361140483476" lon="15.980065421796121"><ele>115.0</ele><time>2026-05-04T16:47:51Z</time></trkpt><trkpt lat="45.783707749206016" lon="15.980059531012968"><ele>114.5</ele><time>2026-05-04T16:47:52Z</time></trkpt><trkpt lat="45.78380813052418" lon="15.98004657999508"><ele>114.0</ele><time>2026-05-04T16:47:53Z</time></trkpt><trkpt lat="45.78391730528103" lon="15.980033968190185"><ele>113.5</ele><time>2026-05-04T16:47:54Z</time></trkpt><trkpt lat="45.78404082041705" lon="15.980021504509363"><ele>113.0</ele><time>2026-05-04T16:47:55Z</time></trkpt><trkpt lat="45.784183258815496" lon="15.980013271043154"><ele>113.0</ele><time>2026-05-04T16:47:56Z</time></trkpt><trkpt lat="45.78433746244891" lon="15.9800036816016"><ele>113.0</ele><time>2026-05-04T16:47:57Z</time></trkpt><trkpt lat="45.78448185114781" lon="15.979995538744843"><ele>113.0</ele><time>2026-05-04T16:47:58Z</time></trkpt><trkpt lat="45.78462244085658" lon="15.97998185740973"><ele>113.0</ele><time>2026-05-04T16:47:59Z</time></trkpt><trkpt lat="45.78476432737588" lon="15.979973317630227"><ele>113.66666666666666</ele><time>2026-05-04T16:48:00Z</time></trkpt><trkpt lat="45.78491295593329" lon="15.979954564284728"><ele>114.33333333333334</ele><time>2026-05-04T16:48:01Z</time></trkpt><trkpt lat="45.78507633054016" lon="15.979931786473554"><ele>115.0</ele><time>2026-05-04T16:48:02Z</time></trkpt><trkpt lat="45.785246188089125" lon="15.979918116754929"><ele>115.0</ele><time>2026-05-04T16:48:03Z</time></trkpt><trkpt lat="45.78541700506621" lon="15.979901210012137"><ele>115.0</ele><time>2026-05-04T16:48:04Z</time></trkpt><trkpt lat="45.785573932255524" lon="15.979888193463864"><ele>115.0</ele><time>2026-05-04T16:48:05Z</time></trkpt><trkpt lat="45.78572225375341" lon="15.979877395892927"><ele>115.0</ele><time>2026-05-04T16:48:06Z</time></trkpt><trkpt lat="45.78586519756261" lon="15.9798667756475"><ele>115.0</ele><time>2026-05-04T16:48:07Z</time></trkpt><trkpt lat="45.78600883030116" lon="15.979850954230425"><ele>115.0</ele><time>2026-05-04T16:48:08Z</time></trkpt><trkpt lat="45.78615803665507" lon="15.979835235599767"><ele>115.0</ele><time>2026-05-04T16:48:09Z</time></trkpt><trkpt lat="45.78631149600692" lon="15.97982015410941"><ele>114.66666666666667</ele><time>2026-05-04T16:48:10Z</time></trkpt><trkpt lat="45.78646032037875" lon="15.979805483456586"><ele>114.33333333333334</ele><time>2026-05-04T16:48:11Z</time></trkpt><trkpt lat="45.7866113251557" lon="15.979790384295772"><ele>114.0</ele><time>2026-05-04T16:48:12Z</time></trkpt><trkpt lat="45.7867683188897" lon="15.97977642444029"><ele>114.33333333333334</ele><time>2026-05-04T16:48:13Z</time></trkpt><trkpt lat="45.78692411575925" lon="15.97975938682712"><ele>114.66666666666667</ele><time>2026-05-04T16:48:14Z</time></trkpt><trkpt lat="45.787079191063874" lon="15.979740681546865"><ele>115.0</ele><time>2026-05-04T16:48:15Z</time></trkpt><trkpt lat="45.78724110676697" lon="15.979725720375908"><ele>115.0</ele><time>2026-05-04T16:48:16Z</time></trkpt><trkpt lat="45.78740582887853" lon="15.979714616759583"><ele>115.0</ele><time>2026-05-04T16:48:17Z</time></trkpt><trkpt lat="45.787568895400454" lon="15.979705112561646"><ele>115.0</ele><time>2026-05-04T16:48:18Z</time></trkpt><trkpt lat="45.78774504436391" lon="15.979695360124191"><ele>114.0</ele><time>2026-05-04T16:48:19Z</time></trkpt><trkpt lat="45.787928168296574" lon="15.97968750398276"><ele>113.0</ele><time>2026-05-04T16:48:20Z</time></trkpt><trkpt lat="45.788115999663454" lon="15.97968001220721"><ele>112.0</ele><time>2026-05-04T16:48:21Z</time></trkpt><trkpt lat="45.788305066588975" lon="15.979671461948152"><ele>112.0</ele><time>2026-05-04T16:48:22Z</time></trkpt><trkpt lat="45.788485624317055" lon="15.979660948218681"><ele>112.0</ele><time>2026-05-04T16:48:23Z</time></trkpt><trkpt lat="45.788657020562134" lon="15.979646720493232"><ele>112.0</ele><time>2026-05-04T16:48:24Z</time></trkpt><trkpt lat="45.78882108743973" lon="15.979630798429293"><ele>110.0</ele><time>2026-05-04T16:48:25Z</time></trkpt><trkpt lat="45.78898444681431" lon="15.97961949156483"><ele>108.0</ele><time>2026-05-04T16:48:26Z</time></trkpt><trkpt lat="45.789148440978636" lon="15.979612833195983"><ele>106.0</ele><time>2026-05-04T16:48:27Z</time></trkpt><trkpt lat="45.78930870841532" lon="15.979607437925297"><ele>106.66666666666667</ele><time>2026-05-04T16:48:28Z</time></trkpt><trkpt lat="45.789471502734436" lon="15.979600121232131"><ele>107.33333333333334</ele><time>2026-05-04T16:48:29Z</time></trkpt><trkpt lat="45.789646653901436" lon="15.979591194963454"><ele>108.0</ele><time>2026-05-04T16:48:30Z</time></trkpt><trkpt lat="45.789826574199594" lon="15.979581639577244"><ele>108.0</ele><time>2026-05-04T16:48:31Z</time></trkpt><trkpt lat="45.790009985181776" lon="15.979570313413296"><ele>108.0</ele><time>2026-05-04T16:48:32Z</time></trkpt><trkpt lat="45.790195228679316" lon="15.979563752696647"><ele>108.0</ele><time>2026-05-04T16:48:33Z</time></trkpt><trkpt lat="45.79038772558878" lon="15.979563377034994"><ele>110.0</ele><time>2026-05-04T16:48:34Z</time></trkpt><trkpt lat="45.790581150674456" lon="15.979563146040064"><ele>112.0</ele><time>2026-05-04T16:48:35Z</time></trkpt><trkpt lat="45.79077243025421" lon="15.979560003234466"><ele>114.0</ele><time>2026-05-04T16:48:36Z</time></trkpt><trkpt lat="45.79096570823752" lon="15.979547659086807"><ele>115.0</ele><time>2026-05-04T16:48:37Z</time></trkpt><trkpt lat="45.79115321945545" lon="15.979533716510097"><ele>116.0</ele><time>2026-05-04T16:48:38Z</time></trkpt><trkpt lat="45.791350393746036" lon="15.979519061971322"><ele>117.0</ele><time>2026-05-04T16:48:39Z</time></trkpt><trkpt lat="45.791554349598755" lon="15.979507679151235"><ele>117.0</ele><time>2026-05-04T16:48:40Z</time></trkpt><trkpt lat="45.79175829519193" lon="15.979503534692444"><ele>117.0</ele><time>2026-05-04T16:48:41Z</time></trkpt><trkpt lat="45.79195966427058" lon="15.979506240190064"><ele>117.0</ele><time>2026-05-04T16:48:42Z</time></trkpt><trkpt lat="45.79217429770903" lon="15.97951882739822"><ele>116.66666666666666</ele><time>2026-05-04T16:48:43Z</time></trkpt><trkpt lat="45.79239388457403" lon="15.979527738339216"><ele>116.33333333333333</ele><time>2026-05-04T16:48:44Z</time></trkpt><trkpt lat="45.792596838696205" lon="15.979523076902868"><ele>116.0</ele><time>2026-05-04T16:48:45Z</time></trkpt><trkpt lat="45.79278667107315" lon="15.979516054397598"><ele>115.0</ele><time>2026-05-04T16:48:46Z</time></trkpt><trkpt lat="45.79297394327872" lon="15.979509825878473"><ele>114.0</ele><time>2026-05-04T16:48:47Z</time></trkpt><trkpt lat="45.793160439216095" lon="15.979509421322367"><ele>113.0</ele><time>2026-05-04T16:48:48Z</time></trkpt><trkpt lat="45.79333278698603" lon="15.979512177430134"><ele>113.0</ele><time>2026-05-04T16:48:49Z</time></trkpt><trkpt lat="45.79350108778432" lon="15.979510802989036"><ele>113.0</ele><time>2026-05-04T16:48:50Z</time></trkpt><trkpt lat="45.79365730107159" lon="15.979509204368565"><ele>113.0</ele><time>2026-05-04T16:48:51Z</time></trkpt><trkpt lat="45.79379915717137" lon="15.979515443160079"><ele>113.0</ele><time>2026-05-04T16:48:52Z</time></trkpt><trkpt lat="45.79392964758216" lon="15.979534856806712"><ele>113.0</ele><time>2026-05-04T16:48:53Z</time></trkpt><trkpt lat="45.79405138514856" lon="15.979563806554179"><ele>113.0</ele><time>2026-05-04T16:48:54Z</time></trkpt><trkpt lat="45.794170232604536" lon="15.979596815390783"><ele>113.0</ele><time>2026-05-04T16:48:55Z</time></trkpt><trkpt lat="45.79429519627813" lon="15.979631239670757"><ele>113.5</ele><time>2026-05-04T16:48:56Z</time></trkpt><trkpt lat="45.79442116707533" lon="15.979666244160446"><ele>114.0</ele><time>2026-05-04T16:48:57Z</time></trkpt><trkpt lat="45.79454772612908" lon="15.979693066767208"><ele>114.5</ele><time>2026-05-04T16:48:58Z</time></trkpt><trkpt lat="45.79467756091449" lon="15.9797049032675"><ele>115.0</ele><time>2026-05-04T16:48:59Z</time></trkpt><trkpt lat="45.79481134155798" lon="15.979710364422072"><ele>115.0</ele><time>2026-05-04T16:49:00Z</time></trkpt><trkpt lat="45.79494609034218" lon="15.979705960056847"><ele>115.0</ele><time>2026-05-04T16:49:01Z</time></trkpt><trkpt lat="45.7950939457868" lon="15.979696102085025"><ele>115.0</ele><time>2026-05-04T16:49:02Z</time></trkpt><trkpt lat="45.79526236105798" lon="15.979684132891846"><ele>114.66666666666667</ele><time>2026-05-04T16:49:03Z</time></trkpt><trkpt lat="45.795447185618876" lon="15.97966561073284"><ele>114.33333333333334</ele><time>2026-05-04T16:49:04Z</time></trkpt><trkpt lat="45.79562984537142" lon="15.979639955649013"><ele>114.0</ele><time>2026-05-04T16:49:05Z</time></trkpt><trkpt lat="45.79580633684985" lon="15.979613453951478"><ele>114.0</ele><time>2026-05-04T16:49:06Z</time></trkpt><trkpt lat="45.79598217408083" lon="15.979597789877484"><ele>114.0</ele><time>2026-05-04T16:49:07Z</time></trkpt><trkpt lat="45.79616076605664" lon="15.979588026045793"><ele>114.0</ele><time>2026-05-04T16:49:08Z</time></trkpt><trkpt lat="45.79632992502217" lon="15.979582660770028"><ele>114.25</ele><time>2026-05-04T16:49:09Z</time></trkpt><trkpt lat="45.79648717410151" lon="15.979575464804805"><ele>114.5</ele><time>2026-05-04T16:49:10Z</time></trkpt><trkpt lat="45.796630697455164" lon="15.979565596532103"><ele>114.75</ele><time>2026-05-04T16:49:11Z</time></trkpt><trkpt lat="45.7967678666513" lon="15.979553643118674"><ele>115.0</ele><time>2026-05-04T16:49:12Z</time></trkpt><trkpt lat="45.79691638630475" lon="15.979547179056562"><ele>115.66666666666667</ele><time>2026-05-04T16:49:13Z</time></trkpt><trkpt lat="45.79707898307819" lon="15.979537952623717"><ele>116.33333333333334</ele><time>2026-05-04T16:49:14Z</time></trkpt><trkpt lat="45.79726784422311" lon="15.979528081014127"><ele>117.0</ele><time>2026-05-04T16:49:15Z</time></trkpt><trkpt lat="45.79747782449571" lon="15.979520788647338"><ele>116.33333333333334</ele><time>2026-05-04T16:49:16Z</time></trkpt><trkpt lat="45.79769509691833" lon="15.979512791105236"><ele>115.66666666666667</ele><time>2026-05-04T16:49:17Z</time></trkpt><trkpt lat="45.79790645214905" lon="15.979502595842597"><ele>115.0</ele><time>2026-05-04T16:49:18Z</time></trkpt><trkpt lat="45.79810152716213" lon="15.979490901510424"><ele>115.0</ele><time>2026-05-04T16:49:19Z</time></trkpt><trkpt lat="45.79829035627257" lon="15.979479685335518"><ele>115.0</ele><time>2026-05-04T16:49:20Z</time></trkpt><trkpt lat="45.798464620774816" lon="15.979466868418957"><ele>115.0</ele><time>2026-05-04T16:49:21Z</time></trkpt><trkpt lat="45.79862581111839" lon="15.979454950595251"><ele>114.5</ele><time>2026-05-04T16:49:22Z</time></trkpt><trkpt lat="45.79877362028355" lon="15.979448182676384"><ele>114.0</ele><time>2026-05-04T16:49:23Z</time></trkpt><trkpt lat="45.79891044411809" lon="15.979446528251714"><ele>113.5</ele><time>2026-05-04T16:49:24Z</time></trkpt><trkpt lat="45.79903806437777" lon="15.979447839746854"><ele>113.0</ele><time>2026-05-04T16:49:25Z</time></trkpt><trkpt lat="45.79916073985925" lon="15.97944958029116"><ele>113.0</ele><time>2026-05-04T16:49:26Z</time></trkpt><trkpt lat="45.799274944337284" lon="15.979452152415336"><ele>113.00000000000001</ele><time>2026-05-04T16:49:27Z</time></trkpt><trkpt lat="45.79937882272694" lon="15.979454144848935"><ele>113.00000000000001</ele><time>2026-05-04T16:49:28Z</time></trkpt><trkpt lat="45.799474237753834" lon="15.97946069951648"><ele>113.0</ele><time>2026-05-04T16:49:29Z</time></trkpt><trkpt lat="45.799562985412706" lon="15.97947001996566"><ele>113.0</ele><time>2026-05-04T16:49:30Z</time></trkpt><trkpt lat="45.799640129911666" lon="15.979475055877014"><ele>113.2</ele><time>2026-05-04T16:49:31Z</time></trkpt><trkpt lat="45.79971066115081" lon="15.979472252436993"><ele>113.4</ele><time>2026-05-04T16:49:32Z</time></trkpt><trkpt lat="45.79982459962535" lon="15.979463861636662"><ele>113.60000000000001</ele><time>2026-05-04T16:49:34Z</time></trkpt><trkpt lat="45.79989019143519" lon="15.979465236681422"><ele>113.80000000000001</ele><time>2026-05-04T16:49:36Z</time></trkpt><trkpt lat="45.79999334250167" lon="15.979473210087027"><ele>114.0</ele><time>2026-05-04T16:50:07Z</time></trkpt><trkpt lat="45.80009649332507" lon="15.979580659123231"><ele>114.0</ele><time>2026-05-04T16:50:09Z</time></trkpt><trkpt lat="45.80013756396218" lon="15.979673654660061"><ele>114.0</ele><time>2026-05-04T16:50:10Z</time></trkpt><trkpt lat="45.80016718490367" lon="15.97978980108062"><ele>114.0</ele><time>2026-05-04T16:50:11Z</time></trkpt><trkpt lat="45.80018851716849" lon="15.979928344357736"><ele>114.0</ele><time>2026-05-04T16:50:12Z</time></trkpt><trkpt lat="45.800198606507" lon="15.980118222231015"><ele>114.0</ele><time>2026-05-04T16:50:13Z</time></trkpt><trkpt lat="45.80021190877898" lon="15.980368101766073"><ele>115.0</ele><time>2026-05-04T16:50:14Z</time></trkpt><trkpt lat="45.800229571890185" lon="15.980633790292407"><ele>116.0</ele><time>2026-05-04T16:50:15Z</time></trkpt><trkpt lat="45.80024581524169" lon="15.980874875252823"><ele>117.0</ele><time>2026-05-04T16:50:16Z</time></trkpt><trkpt lat="45.80025946339578" lon="15.981112114922734"><ele>117.0</ele><time>2026-05-04T16:50:17Z</time></trkpt><trkpt lat="45.800272897058655" lon="15.981324083898876"><ele>117.0</ele><time>2026-05-04T16:50:18Z</time></trkpt><trkpt lat="45.80028702512695" lon="15.981533040008946"><ele>117.0</ele><time>2026-05-04T16:50:19Z</time></trkpt><trkpt lat="45.80030022520544" lon="15.981744939853288"><ele>117.0</ele><time>2026-05-04T16:50:20Z</time></trkpt><trkpt lat="45.80031223222796" lon="15.981952187835804"><ele>116.75</ele><time>2026-05-04T16:50:21Z</time></trkpt><trkpt lat="45.80032104304846" lon="15.982165369888993"><ele>116.5</ele><time>2026-05-04T16:50:22Z</time></trkpt><trkpt lat="45.80032956007896" lon="15.982372051075284"><ele>116.25</ele><time>2026-05-04T16:50:23Z</time></trkpt><trkpt lat="45.80033788271595" lon="15.982571720737742"><ele>116.0</ele><time>2026-05-04T16:50:24Z</time></trkpt><trkpt lat="45.8003460868235" lon="15.982768673383083"><ele>116.0</ele><time>2026-05-04T16:50:25Z</time></trkpt><trkpt lat="45.80035849755868" lon="15.982963106969537"><ele>116.0</ele><time>2026-05-04T16:50:26Z</time></trkpt><trkpt lat="45.800368306768924" lon="15.98315374845082"><ele>116.0</ele><time>2026-05-04T16:50:27Z</time></trkpt><trkpt lat="45.8003751335836" lon="15.98334261392091"><ele>116.0</ele><time>2026-05-04T16:50:28Z</time></trkpt><trkpt lat="45.80038425937438" lon="15.983531418394746"><ele>115.75</ele><time>2026-05-04T16:50:29Z</time></trkpt><trkpt lat="45.80038973400087" lon="15.98371416439214"><ele>115.5</ele><time>2026-05-04T16:50:30Z</time></trkpt><trkpt lat="45.80040009137611" lon="15.983897410436368"><ele>115.25</ele><time>2026-05-04T16:50:31Z</time></trkpt><trkpt lat="45.80040777054618" lon="15.984075921228346"><ele>115.0</ele><time>2026-05-04T16:50:32Z</time></trkpt><trkpt lat="45.80041388209851" lon="15.984253324889284"><ele>115.0</ele><time>2026-05-04T16:50:33Z</time></trkpt><trkpt lat="45.8004208400169" lon="15.984419713266002"><ele>115.0</ele><time>2026-05-04T16:50:34Z</time></trkpt><trkpt lat="45.80042581533863" lon="15.984582504143832"><ele>115.0</ele><time>2026-05-04T16:50:35Z</time></trkpt><trkpt lat="45.80043476967707" lon="15.984733700848203"><ele>115.0</ele><time>2026-05-04T16:50:36Z</time></trkpt><trkpt lat="45.80043979824926" lon="15.984853377442075"><ele>115.0</ele><time>2026-05-04T16:50:37Z</time></trkpt><trkpt lat="45.80044480841112" lon="15.984967307038152"><ele>115.66666666666667</ele><time>2026-05-04T16:50:39Z</time></trkpt><trkpt lat="45.80048097158923" lon="15.985060573840284"><ele>116.33333333333334</ele><time>2026-05-04T16:51:44Z</time></trkpt><trkpt lat="45.80047087744424" lon="15.98517615932748"><ele>117.0</ele><time>2026-05-04T16:51:46Z</time></trkpt><trkpt lat="45.8003847751676" lon="15.985255274732745"><ele>117.66666666666666</ele><time>2026-05-04T16:51:48Z</time></trkpt><trkpt lat="45.800321744398026" lon="15.985264922114233"><ele>118.33333333333333</ele><time>2026-05-04T16:51:49Z</time></trkpt><trkpt lat="45.80023024516787" lon="15.985292295965964"><ele>119.0</ele><time>2026-05-04T16:51:51Z</time></trkpt><trkpt lat="45.80015861837959" lon="15.985302780470256"><ele>119.0</ele><time>2026-05-04T16:51:54Z</time></trkpt><trkpt lat="45.80011664309561" lon="15.985193267138246"><ele>119.0</ele><time>2026-05-04T16:51:57Z</time></trkpt><trkpt lat="45.80009398945864" lon="15.98505687442883"><ele>119.0</ele><time>2026-05-04T16:51:59Z</time></trkpt><trkpt lat="45.80008961114009" lon="15.984925887738793"><ele>119.0</ele><time>2026-05-04T16:52:01Z</time></trkpt><trkpt lat="45.80008149188194" lon="15.98479860146822"><ele>119.0</ele><time>2026-05-04T16:52:03Z</time></trkpt><trkpt lat="45.80006751828551" lon="15.98465792254924"><ele>118.2</ele><time>2026-05-04T16:52:05Z</time></trkpt><trkpt lat="45.80006114254485" lon="15.98450514344559"><ele>117.4</ele><time>2026-05-04T16:52:07Z</time></trkpt><trkpt lat="45.80006596667602" lon="15.984350329197603"><ele>116.6</ele><time>2026-05-04T16:52:09Z</time></trkpt><trkpt lat="45.80005121707041" lon="15.984194262005133"><ele>115.8</ele><time>2026-05-04T16:52:11Z</time></trkpt><trkpt lat="45.800044733903725" lon="15.984093090280954"><ele>115.0</ele><time>2026-05-04T16:52:12Z</time></trkpt><trkpt lat="45.80003499065778" lon="15.983999207646564"><ele>115.0</ele><time>2026-05-04T16:52:13Z</time></trkpt><trkpt lat="45.80001801378251" lon="15.98385113438355"><ele>115.0</ele><time>2026-05-04T16:52:15Z</time></trkpt><trkpt lat="45.80000561176174" lon="15.98372715472785"><ele>115.0</ele><time>2026-05-04T16:52:18Z</time></trkpt><trkpt lat="45.79999900834717" lon="15.983594947041903"><ele>115.0</ele><time>2026-05-04T16:52:21Z</time></trkpt><trkpt lat="45.79998715062684" lon="15.983454690359764"><ele>115.0</ele><time>2026-05-04T16:52:23Z</time></trkpt><trkpt lat="45.79998539971197" lon="15.983358330611512"><ele>114.99999999999999</ele><time>2026-05-04T16:52:24Z</time></trkpt><trkpt lat="45.7999783549012" lon="15.983261927043097"><ele>115.0</ele><time>2026-05-04T16:52:25Z</time></trkpt><trkpt lat="45.79996526279089" lon="15.983132118954344"><ele>114.99999999999999</ele><time>2026-05-04T16:52:27Z</time></trkpt><trkpt lat="45.79996172129496" lon="15.98303461267296"><ele>114.99999999999999</ele><time>2026-05-04T16:52:29Z</time></trkpt><trkpt lat="45.79995633897897" lon="15.982934875330852"><ele>115.0</ele><time>2026-05-04T16:52:32Z</time></trkpt><trkpt lat="45.79994595054309" lon="15.982839966797181"><ele>114.99999999999999</ele><time>2026-05-04T16:52:35Z</time></trkpt><trkpt lat="45.799935443895876" lon="15.982734906466053"><ele>114.99999999999999</ele><time>2026-05-04T16:52:39Z</time></trkpt><trkpt lat="45.79994343316962" lon="15.982642838717524"><ele>115.0</ele><time>2026-05-04T16:52:43Z</time></trkpt></trkseg></trk></gpx>